<?xml version='1.0' encoding='UTF-8'?><gpx version="1.1" creator="JPX - https://github.com/jenetics/jpx" xmlns="http://www.topografix.com/GPX/1/1"><trk><trkseg><trkpt lat="45.10763416503012" lon="10.076719314500597"><ele>40.0</ele><time>2026-04-06T05:32:18.992Z</time></trkpt><trkpt lat="45.1077238171321" lon="10.076606178214357"><ele>40.0</ele><time>2026-04-06T05:32:20.993Z</time></trkpt><trkpt lat="45.10777234007479" lon="10.076549185033382"><ele>40.0</ele><time>2026-04-06T05:32:21.993Z</time></trkpt><trkpt lat="45.1078255619191" lon="10.076496295619968"><ele>40.0</ele><time>2026-04-06T05:32:22.994Z</time></trkpt><trkpt lat="45.10787925464031" lon="10.076448180835898"><ele>40.0</ele><time>2026-04-06T05:32:23.994Z</time></trkpt><trkpt lat="45.107936121971875" lon="10.076399578621446"><ele>40.0</ele><time>2026-04-06T05:32:24.995Z</time></trkpt><trkpt lat="45.10799226097072" lon="10.076355942930153"><ele>40.0</ele><time>2026-04-06T05:32:25.995Z</time></trkpt><trkpt lat="45.10810605269603" lon="10.076281698512279"><ele>40.0</ele><time>2026-04-06T05:32:27.996Z</time></trkpt><trkpt lat="45.10816719123744" lon="10.07624776294485"><ele>40.0</ele><time>2026-04-06T05:32:28.996Z</time></trkpt><trkpt lat="45.10828065903599" lon="10.07618204262052"><ele>40.0</ele><time>2026-04-06T05:32:30.997Z</time></trkpt><trkpt lat="45.10839136385854" lon="10.076115777989838"><ele>40.0</ele><time>2026-04-06T05:32:32.997Z</time></trkpt><trkpt lat="45.108503020246715" lon="10.076043568251846"><ele>40.0</ele><time>2026-04-06T05:32:34.998Z</time></trkpt><trkpt lat="45.10859695868921" lon="10.075966809576704"><ele>40.0</ele><time>2026-04-06T05:32:36.998Z</time></trkpt><trkpt lat="45.10869683851619" lon="10.075863119285966"><ele>40.0</ele><time>2026-04-06T05:32:38.998Z</time></trkpt><trkpt lat="45.10874112314209" lon="10.0757992524039"><ele>40.0</ele><time>2026-04-06T05:32:39.998Z</time></trkpt><trkpt lat="45.108825352150696" lon="10.07567257443018"><ele>40.0</ele><time>2026-04-06T05:32:41.999Z</time></trkpt><trkpt lat="45.108892660450394" lon="10.075522871145644"><ele>40.0</ele><time>2026-04-06T05:32:43.999Z</time></trkpt><trkpt lat="45.10894296018242" lon="10.07536221681272"><ele>39.833333333333336</ele><time>2026-04-06T05:32:45.999Z</time></trkpt><trkpt lat="45.108970556408714" lon="10.075280815841891"><ele>39.66666666666667</ele><time>2026-04-06T05:32:46.999Z</time></trkpt><trkpt lat="45.108992923339045" lon="10.07519574592811"><ele>39.5</ele><time>2026-04-06T05:32:47.999Z</time></trkpt><trkpt lat="45.109017693753856" lon="10.075109081794272"><ele>39.333333333333336</ele><time>2026-04-06T05:32:48.999Z</time></trkpt><trkpt lat="45.10906297144304" lon="10.07494042728225"><ele>39.166666666666664</ele><time>2026-04-06T05:32:50.999Z</time></trkpt><trkpt lat="45.109089667936196" lon="10.0748555827116"><ele>39.0</ele><time>2026-04-06T05:32:51.999Z</time></trkpt><trkpt lat="45.10913341431945" lon="10.074693080474432"><ele>39.0</ele><time>2026-04-06T05:32:54Z</time></trkpt><trkpt lat="45.109161634899124" lon="10.074599488045113"><ele>39.0</ele><time>2026-04-06T05:32:55Z</time></trkpt><trkpt lat="45.10920053972605" lon="10.074449585914852"><ele>39.0</ele><time>2026-04-06T05:32:57Z</time></trkpt><trkpt lat="45.109257565847095" lon="10.074295193620863"><ele>39.0</ele><time>2026-04-06T05:32:59Z</time></trkpt><trkpt lat="45.10932521427213" lon="10.074146757293471"><ele>39.0</ele><time>2026-04-06T05:33:01Z</time></trkpt><trkpt lat="45.109405815975244" lon="10.074018786807075"><ele>39.4</ele><time>2026-04-06T05:33:03Z</time></trkpt><trkpt lat="45.10943125210369" lon="10.073936807541866"><ele>39.8</ele><time>2026-04-06T05:33:04Z</time></trkpt><trkpt lat="45.10950482715552" lon="10.073801671770138"><ele>40.199999999999996</ele><time>2026-04-06T05:33:06Z</time></trkpt><trkpt lat="45.10955590117072" lon="10.073741803843467"><ele>40.599999999999994</ele><time>2026-04-06T05:33:07Z</time></trkpt><trkpt lat="45.109628618040645" lon="10.073607968835956"><ele>41.0</ele><time>2026-04-06T05:33:09Z</time></trkpt><trkpt lat="45.10969083224493" lon="10.07346139190689"><ele>41.0</ele><time>2026-04-06T05:33:11Z</time></trkpt><trkpt lat="45.109733395428044" lon="10.073382810219389"><ele>41.0</ele><time>2026-04-06T05:33:12Z</time></trkpt><trkpt lat="45.10978682926904" lon="10.073321338109162"><ele>41.0</ele><time>2026-04-06T05:33:13Z</time></trkpt><trkpt lat="45.10982703968751" lon="10.073235707699807"><ele>41.0</ele><time>2026-04-06T05:33:14Z</time></trkpt><trkpt lat="45.10990021821927" lon="10.073106600709469"><ele>41.0</ele><time>2026-04-06T05:33:16Z</time></trkpt><trkpt lat="45.109971732376" lon="10.072969397612127"><ele>41.0</ele><time>2026-04-06T05:33:18Z</time></trkpt><trkpt lat="45.11001393500978" lon="10.072887802446981"><ele>40.99999999999999</ele><time>2026-04-06T05:33:19Z</time></trkpt><trkpt lat="45.110055191176265" lon="10.072807113207825"><ele>41.0</ele><time>2026-04-06T05:33:20Z</time></trkpt><trkpt lat="45.110096208093694" lon="10.072734308006025"><ele>41.0</ele><time>2026-04-06T05:33:21Z</time></trkpt><trkpt lat="45.11013641040318" lon="10.072654173340151"><ele>41.0</ele><time>2026-04-06T05:33:22Z</time></trkpt><trkpt lat="45.11017699565929" lon="10.072575677281154"><ele>41.0</ele><time>2026-04-06T05:33:23Z</time></trkpt><trkpt lat="45.11021421525029" lon="10.072496626499285"><ele>40.99999999999999</ele><time>2026-04-06T05:33:24Z</time></trkpt><trkpt lat="45.110250955995774" lon="10.072417994403747"><ele>41.0</ele><time>2026-04-06T05:33:25Z</time></trkpt><trkpt lat="45.1102864947052" lon="10.072337932734007"><ele>41.0</ele><time>2026-04-06T05:33:26Z</time></trkpt><trkpt lat="45.11032008091891" lon="10.072254848236836"><ele>41.0</ele><time>2026-04-06T05:33:27Z</time></trkpt><trkpt lat="45.11035054319613" lon="10.07217259179224"><ele>41.0</ele><time>2026-04-06T05:33:28Z</time></trkpt><trkpt lat="45.11038030295438" lon="10.072091238954329"><ele>41.0</ele><time>2026-04-06T05:33:29Z</time></trkpt><trkpt lat="45.110437713913136" lon="10.071927004282223"><ele>41.0</ele><time>2026-04-06T05:33:31Z</time></trkpt><trkpt lat="45.110471364456835" lon="10.071840846577818"><ele>41.0</ele><time>2026-04-06T05:33:32Z</time></trkpt><trkpt lat="45.110500714336794" lon="10.071753725346799"><ele>40.99999999999999</ele><time>2026-04-06T05:33:33Z</time></trkpt><trkpt lat="45.11053081751998" lon="10.071666440113521"><ele>41.0</ele><time>2026-04-06T05:33:34Z</time></trkpt><trkpt lat="45.110561183574156" lon="10.071578845173637"><ele>41.0</ele><time>2026-04-06T05:33:35Z</time></trkpt><trkpt lat="45.110590445367876" lon="10.071492928330716"><ele>41.0</ele><time>2026-04-06T05:33:36Z</time></trkpt><trkpt lat="45.11062150638444" lon="10.071407863018546"><ele>41.0</ele><time>2026-04-06T05:33:37Z</time></trkpt><trkpt lat="45.11065577871622" lon="10.071326506725159"><ele>40.99999999999999</ele><time>2026-04-06T05:33:38Z</time></trkpt><trkpt lat="45.110689974405325" lon="10.071244142943781"><ele>41.0</ele><time>2026-04-06T05:33:39Z</time></trkpt><trkpt lat="45.11072779584422" lon="10.07117129300734"><ele>41.0</ele><time>2026-04-06T05:33:40Z</time></trkpt><trkpt lat="45.11078195841255" lon="10.071014668411108"><ele>41.0</ele><time>2026-04-06T05:33:42Z</time></trkpt><trkpt lat="45.110703789304104" lon="10.070869335648084"><ele>41.0</ele><time>2026-04-06T05:33:44Z</time></trkpt><trkpt lat="45.11063590416461" lon="10.070825194883803"><ele>41.0</ele><time>2026-04-06T05:33:45Z</time></trkpt><trkpt lat="45.110567499011864" lon="10.070782498893552"><ele>41.0</ele><time>2026-04-06T05:33:46Z</time></trkpt><trkpt lat="45.11049435415477" lon="10.070740591096035"><ele>40.33333333333333</ele><time>2026-04-06T05:33:47Z</time></trkpt><trkpt lat="45.11041604930076" lon="10.070695769533385"><ele>39.666666666666664</ele><time>2026-04-06T05:33:48Z</time></trkpt><trkpt lat="45.11034078938405" lon="10.070649943716834"><ele>39.0</ele><time>2026-04-06T05:33:49Z</time></trkpt><trkpt lat="45.11026647649734" lon="10.07059740200967"><ele>38.333333333333336</ele><time>2026-04-06T05:33:50Z</time></trkpt><trkpt lat="45.11019835257581" lon="10.070538230698345"><ele>37.66666666666667</ele><time>2026-04-06T05:33:51Z</time></trkpt><trkpt lat="45.110138138834905" lon="10.070465986206273"><ele>37.0</ele><time>2026-04-06T05:33:52Z</time></trkpt><trkpt lat="45.110083751028" lon="10.070375920881306"><ele>37.0</ele><time>2026-04-06T05:33:53Z</time></trkpt><trkpt lat="45.11003496415521" lon="10.070277069184973"><ele>37.0</ele><time>2026-04-06T05:33:54Z</time></trkpt><trkpt lat="45.10999294735707" lon="10.070168293124622"><ele>37.0</ele><time>2026-04-06T05:33:55Z</time></trkpt><trkpt lat="45.10996034437162" lon="10.070059058422359"><ele>37.0</ele><time>2026-04-06T05:33:55.999Z</time></trkpt><trkpt lat="45.10992575692139" lon="10.069957360801508"><ele>37.0</ele><time>2026-04-06T05:33:56.999Z</time></trkpt><trkpt lat="45.10989230385218" lon="10.069854957310909"><ele>37.0</ele><time>2026-04-06T05:33:57.999Z</time></trkpt><trkpt lat="45.109856221242005" lon="10.06975528997411"><ele>36.333333333333336</ele><time>2026-04-06T05:33:58.999Z</time></trkpt><trkpt lat="45.10982132213323" lon="10.06965879171158"><ele>35.66666666666667</ele><time>2026-04-06T05:33:59.999Z</time></trkpt><trkpt lat="45.109789207055755" lon="10.069561009670547"><ele>35.0</ele><time>2026-04-06T05:34:00.999Z</time></trkpt><trkpt lat="45.10975866999749" lon="10.069463167015929"><ele>34.333333333333336</ele><time>2026-04-06T05:34:01.999Z</time></trkpt><trkpt lat="45.10972901287469" lon="10.06936639827205"><ele>33.666666666666664</ele><time>2026-04-06T05:34:02.999Z</time></trkpt><trkpt lat="45.109691236333795" lon="10.069272960845161"><ele>33.0</ele><time>2026-04-06T05:34:03.999Z</time></trkpt><trkpt lat="45.10965313668474" lon="10.069182660933183"><ele>33.0</ele><time>2026-04-06T05:34:04.999Z</time></trkpt><trkpt lat="45.109614285818886" lon="10.069092862117783"><ele>33.0</ele><time>2026-04-06T05:34:05.999Z</time></trkpt><trkpt lat="45.10956913980854" lon="10.069013466237344"><ele>33.0</ele><time>2026-04-06T05:34:06.999Z</time></trkpt><trkpt lat="45.10952083258399" lon="10.06893772270029"><ele>33.0</ele><time>2026-04-06T05:34:07.999Z</time></trkpt><trkpt lat="45.109472107169886" lon="10.068865669519663"><ele>33.0</ele><time>2026-04-06T05:34:08.999Z</time></trkpt><trkpt lat="45.109424180814976" lon="10.068791067785988"><ele>33.0</ele><time>2026-04-06T05:34:09.999Z</time></trkpt><trkpt lat="45.10937649704498" lon="10.068711564865762"><ele>33.0</ele><time>2026-04-06T05:34:10.999Z</time></trkpt><trkpt lat="45.1093300039883" lon="10.068633415857217"><ele>33.0</ele><time>2026-04-06T05:34:11.999Z</time></trkpt><trkpt lat="45.10928729358678" lon="10.06855197636645"><ele>33.0</ele><time>2026-04-06T05:34:12.999Z</time></trkpt><trkpt lat="45.109241457023" lon="10.06847458072114"><ele>33.0</ele><time>2026-04-06T05:34:13.999Z</time></trkpt><trkpt lat="45.1091921553401" lon="10.068399251000598"><ele>33.0</ele><time>2026-04-06T05:34:14.999Z</time></trkpt><trkpt lat="45.109145416668184" lon="10.06832336664327"><ele>33.0</ele><time>2026-04-06T05:34:16.001Z</time></trkpt><trkpt lat="45.10909898259171" lon="10.068241852583645"><ele>33.0</ele><time>2026-04-06T05:34:17.001Z</time></trkpt><trkpt lat="45.10905163274269" lon="10.068164014559743"><ele>33.0</ele><time>2026-04-06T05:34:18.001Z</time></trkpt><trkpt lat="45.10900531641986" lon="10.068087694579326"><ele>33.14285714285714</ele><time>2026-04-06T05:34:19.001Z</time></trkpt><trkpt lat="45.10896070853376" lon="10.068010063647167"><ele>33.285714285714285</ele><time>2026-04-06T05:34:20.001Z</time></trkpt><trkpt lat="45.108915610592256" lon="10.067933983464599"><ele>33.42857142857143</ele><time>2026-04-06T05:34:21.001Z</time></trkpt><trkpt lat="45.10886815027453" lon="10.067851696855202"><ele>33.57142857142857</ele><time>2026-04-06T05:34:22.001Z</time></trkpt><trkpt lat="45.10881938298387" lon="10.067777648945217"><ele>33.714285714285715</ele><time>2026-04-06T05:34:23.001Z</time></trkpt><trkpt lat="45.10877536926891" lon="10.067701699209882"><ele>33.857142857142854</ele><time>2026-04-06T05:34:24.001Z</time></trkpt><trkpt lat="45.10873235662187" lon="10.067624688799711"><ele>34.0</ele><time>2026-04-06T05:34:25.001Z</time></trkpt><trkpt lat="45.10868954891086" lon="10.067550505736445"><ele>33.99999999999999</ele><time>2026-04-06T05:34:26.001Z</time></trkpt><trkpt lat="45.10864140275702" lon="10.06747321694499"><ele>34.0</ele><time>2026-04-06T05:34:27.001Z</time></trkpt><trkpt lat="45.108595929130395" lon="10.067396363264134"><ele>34.0</ele><time>2026-04-06T05:34:28.001Z</time></trkpt><trkpt lat="45.108548676659815" lon="10.067314563054417"><ele>34.0</ele><time>2026-04-06T05:34:29.001Z</time></trkpt><trkpt lat="45.10849974426139" lon="10.067234886673367"><ele>34.0</ele><time>2026-04-06T05:34:30.001Z</time></trkpt><trkpt lat="45.10845334761063" lon="10.067156228306299"><ele>33.99999999999999</ele><time>2026-04-06T05:34:31.001Z</time></trkpt><trkpt lat="45.10840852170593" lon="10.06707856677919"><ele>34.0</ele><time>2026-04-06T05:34:32.001Z</time></trkpt><trkpt lat="45.108362362545485" lon="10.067004503590917"><ele>33.857142857142854</ele><time>2026-04-06T05:34:33.001Z</time></trkpt><trkpt lat="45.108319498710905" lon="10.066932063838403"><ele>33.714285714285715</ele><time>2026-04-06T05:34:34.001Z</time></trkpt><trkpt lat="45.10827363541844" lon="10.066855267025431"><ele>33.57142857142857</ele><time>2026-04-06T05:34:35.001Z</time></trkpt><trkpt lat="45.108223789756636" lon="10.066777119121868"><ele>33.42857142857143</ele><time>2026-04-06T05:34:36.001Z</time></trkpt><trkpt lat="45.10817555408676" lon="10.066699748250349"><ele>33.285714285714285</ele><time>2026-04-06T05:34:37.001Z</time></trkpt><trkpt lat="45.108127856290366" lon="10.066621481847653"><ele>33.14285714285714</ele><time>2026-04-06T05:34:38.001Z</time></trkpt><trkpt lat="45.10809477275982" lon="10.066529522286324"><ele>33.0</ele><time>2026-04-06T05:34:39.001Z</time></trkpt><trkpt lat="45.108049648487736" lon="10.066455012381926"><ele>33.0</ele><time>2026-04-06T05:34:40Z</time></trkpt><trkpt lat="45.10800173817431" lon="10.066375902109927"><ele>33.0</ele><time>2026-04-06T05:34:41Z</time></trkpt><trkpt lat="45.10795248082315" lon="10.066294748857025"><ele>33.0</ele><time>2026-04-06T05:34:42Z</time></trkpt><trkpt lat="45.10789360566324" lon="10.066228755860172"><ele>33.0</ele><time>2026-04-06T05:34:43Z</time></trkpt><trkpt lat="45.10784686849182" lon="10.066153778722736"><ele>33.0</ele><time>2026-04-06T05:34:44Z</time></trkpt><trkpt lat="45.10780083135917" lon="10.066076992273935"><ele>33.0</ele><time>2026-04-06T05:34:45Z</time></trkpt><trkpt lat="45.10775298036273" lon="10.06600154837069"><ele>33.0</ele><time>2026-04-06T05:34:46Z</time></trkpt><trkpt lat="45.107706206929954" lon="10.065930405595088"><ele>33.0</ele><time>2026-04-06T05:34:47Z</time></trkpt><trkpt lat="45.10766140587325" lon="10.065853767895709"><ele>33.0</ele><time>2026-04-06T05:34:48Z</time></trkpt><trkpt lat="45.107614484514" lon="10.065773524623932"><ele>33.0</ele><time>2026-04-06T05:34:49Z</time></trkpt><trkpt lat="45.10756679073515" lon="10.065697737471144"><ele>33.0</ele><time>2026-04-06T05:34:50Z</time></trkpt><trkpt lat="45.10751780167496" lon="10.065619028865532"><ele>33.0</ele><time>2026-04-06T05:34:51Z</time></trkpt><trkpt lat="45.10746754468176" lon="10.065540952854994"><ele>33.0</ele><time>2026-04-06T05:34:52Z</time></trkpt><trkpt lat="45.10741853084568" lon="10.065460078497436"><ele>33.0</ele><time>2026-04-06T05:34:53Z</time></trkpt><trkpt lat="45.10736921424253" lon="10.065381231046272"><ele>33.0</ele><time>2026-04-06T05:34:54Z</time></trkpt><trkpt lat="45.10732022418917" lon="10.065307049668887"><ele>33.0</ele><time>2026-04-06T05:34:55Z</time></trkpt><trkpt lat="45.107270867218254" lon="10.065232157351314"><ele>33.0</ele><time>2026-04-06T05:34:56Z</time></trkpt><trkpt lat="45.10722625269676" lon="10.065155571536996"><ele>33.0</ele><time>2026-04-06T05:34:57Z</time></trkpt><trkpt lat="45.10718017146822" lon="10.0650802457602"><ele>33.0</ele><time>2026-04-06T05:34:58Z</time></trkpt><trkpt lat="45.1071326512336" lon="10.064999975963383"><ele>33.0</ele><time>2026-04-06T05:34:59Z</time></trkpt><trkpt lat="45.10708468059408" lon="10.064921846429954"><ele>33.0</ele><time>2026-04-06T05:35:00Z</time></trkpt><trkpt lat="45.10703610882003" lon="10.064846790611465"><ele>33.0</ele><time>2026-04-06T05:35:01Z</time></trkpt><trkpt lat="45.106990225737896" lon="10.064771861768495"><ele>33.0</ele><time>2026-04-06T05:35:02Z</time></trkpt><trkpt lat="45.106942603085585" lon="10.064696376476203"><ele>33.0</ele><time>2026-04-06T05:35:03Z</time></trkpt><trkpt lat="45.10689566982306" lon="10.064621310842139"><ele>33.0</ele><time>2026-04-06T05:35:04Z</time></trkpt><trkpt lat="45.106846889465125" lon="10.064546320920572"><ele>33.0</ele><time>2026-04-06T05:35:05Z</time></trkpt><trkpt lat="45.10679857752221" lon="10.064470092170689"><ele>33.0</ele><time>2026-04-06T05:35:06Z</time></trkpt><trkpt lat="45.10675151075901" lon="10.06439469042382"><ele>33.0</ele><time>2026-04-06T05:35:07Z</time></trkpt><trkpt lat="45.10670435057157" lon="10.06431877188482"><ele>33.0</ele><time>2026-04-06T05:35:08Z</time></trkpt><trkpt lat="45.106656904592626" lon="10.06424107299774"><ele>33.0</ele><time>2026-04-06T05:35:09Z</time></trkpt><trkpt lat="45.106609557099745" lon="10.064163834809266"><ele>33.0</ele><time>2026-04-06T05:35:10Z</time></trkpt><trkpt lat="45.10656456576801" lon="10.064087170836734"><ele>33.0</ele><time>2026-04-06T05:35:11Z</time></trkpt><trkpt lat="45.10652021318093" lon="10.064015004508956"><ele>33.0</ele><time>2026-04-06T05:35:12Z</time></trkpt><trkpt lat="45.106475726498495" lon="10.063941732688642"><ele>33.0</ele><time>2026-04-06T05:35:13Z</time></trkpt><trkpt lat="45.1064334807986" lon="10.063872241651124"><ele>33.0</ele><time>2026-04-06T05:35:14Z</time></trkpt><trkpt lat="45.10638823185088" lon="10.063804870767244"><ele>33.166666666666664</ele><time>2026-04-06T05:35:15Z</time></trkpt><trkpt lat="45.10634561142416" lon="10.06373416168444"><ele>33.333333333333336</ele><time>2026-04-06T05:35:16Z</time></trkpt><trkpt lat="45.106300518407316" lon="10.063663493597165"><ele>33.5</ele><time>2026-04-06T05:35:17Z</time></trkpt><trkpt lat="45.10625639159456" lon="10.063595169211702"><ele>33.66666666666667</ele><time>2026-04-06T05:35:18Z</time></trkpt><trkpt lat="45.10617621459115" lon="10.06346538665618"><ele>33.833333333333336</ele><time>2026-04-06T05:35:20Z</time></trkpt><trkpt lat="45.106097846785524" lon="10.06333428233337"><ele>34.0</ele><time>2026-04-06T05:35:22Z</time></trkpt><trkpt lat="45.10602702948994" lon="10.063212571588206"><ele>33.99999999999999</ele><time>2026-04-06T05:35:24Z</time></trkpt><trkpt lat="45.10594781197917" lon="10.063081188199414"><ele>34.0</ele><time>2026-04-06T05:35:26Z</time></trkpt><trkpt lat="45.105905149691225" lon="10.06301490046592"><ele>34.0</ele><time>2026-04-06T05:35:27Z</time></trkpt><trkpt lat="45.10585982907541" lon="10.062951340093475"><ele>34.0</ele><time>2026-04-06T05:35:28Z</time></trkpt><trkpt lat="45.10581147268533" lon="10.062885297480898"><ele>34.0</ele><time>2026-04-06T05:35:29Z</time></trkpt><trkpt lat="45.10576704446144" lon="10.062819032481665"><ele>33.99999999999999</ele><time>2026-04-06T05:35:30Z</time></trkpt><trkpt lat="45.105720898064114" lon="10.06274698273348"><ele>34.0</ele><time>2026-04-06T05:35:31Z</time></trkpt><trkpt lat="45.10567465240497" lon="10.062673979296944"><ele>34.0</ele><time>2026-04-06T05:35:32Z</time></trkpt><trkpt lat="45.105624546610926" lon="10.062597261858144"><ele>34.0</ele><time>2026-04-06T05:35:32.999Z</time></trkpt><trkpt lat="45.1055725822107" lon="10.062518338183372"><ele>34.0</ele><time>2026-04-06T05:35:33.999Z</time></trkpt><trkpt lat="45.10552275277898" lon="10.062438559606122"><ele>34.0</ele><time>2026-04-06T05:35:34.999Z</time></trkpt><trkpt lat="45.10546921021841" lon="10.06235956256371"><ele>34.0</ele><time>2026-04-06T05:35:35.999Z</time></trkpt><trkpt lat="45.10541175214303" lon="10.062278453152489"><ele>34.0</ele><time>2026-04-06T05:35:36.999Z</time></trkpt><trkpt lat="45.10534730024007" lon="10.062210673200147"><ele>33.66666666666667</ele><time>2026-04-06T05:35:37.999Z</time></trkpt><trkpt lat="45.1052777671537" lon="10.062147019027456"><ele>33.333333333333336</ele><time>2026-04-06T05:35:38.999Z</time></trkpt><trkpt lat="45.10520549433085" lon="10.06209081457891"><ele>33.0</ele><time>2026-04-06T05:35:39.999Z</time></trkpt><trkpt lat="45.10513747087634" lon="10.062043951373537"><ele>32.666666666666664</ele><time>2026-04-06T05:35:40.999Z</time></trkpt><trkpt lat="45.10506748579121" lon="10.062004225945152"><ele>32.33333333333333</ele><time>2026-04-06T05:35:41.999Z</time></trkpt><trkpt lat="45.104997243326864" lon="10.061972695945189"><ele>32.0</ele><time>2026-04-06T05:35:42.999Z</time></trkpt><trkpt lat="45.10492760019977" lon="10.061962183366223"><ele>32.0</ele><time>2026-04-06T05:35:43.999Z</time></trkpt><trkpt lat="45.10485779444954" lon="10.061951405279485"><ele>31.999999999999996</ele><time>2026-04-06T05:35:44.999Z</time></trkpt><trkpt lat="45.104790112419714" lon="10.06195304040649"><ele>32.0</ele><time>2026-04-06T05:35:45.999Z</time></trkpt><trkpt lat="45.104723974564" lon="10.061968176389499"><ele>32.0</ele><time>2026-04-06T05:35:46.999Z</time></trkpt><trkpt lat="45.10465916208301" lon="10.061990911736096"><ele>31.999999999999996</ele><time>2026-04-06T05:35:47.999Z</time></trkpt><trkpt lat="45.10459616201802" lon="10.06202395734835"><ele>32.0</ele><time>2026-04-06T05:35:48.999Z</time></trkpt><trkpt lat="45.10453327448791" lon="10.062061944895408"><ele>32.0</ele><time>2026-04-06T05:35:49.999Z</time></trkpt><trkpt lat="45.10447107838541" lon="10.062099185752054"><ele>32.0</ele><time>2026-04-06T05:35:50.999Z</time></trkpt><trkpt lat="45.104407799009245" lon="10.062136271607834"><ele>31.999999999999996</ele><time>2026-04-06T05:35:51.999Z</time></trkpt><trkpt lat="45.10434364952432" lon="10.062172154667827"><ele>32.0</ele><time>2026-04-06T05:35:52.999Z</time></trkpt><trkpt lat="45.10427768514985" lon="10.06220813970548"><ele>32.0</ele><time>2026-04-06T05:35:53.999Z</time></trkpt><trkpt lat="45.10421286731121" lon="10.062247201858543"><ele>31.999999999999996</ele><time>2026-04-06T05:35:54.999Z</time></trkpt><trkpt lat="45.1041471635942" lon="10.062285584557328"><ele>32.0</ele><time>2026-04-06T05:35:55.999Z</time></trkpt><trkpt lat="45.104082396480024" lon="10.062323816115313"><ele>32.0</ele><time>2026-04-06T05:35:56.999Z</time></trkpt><trkpt lat="45.104016485167335" lon="10.06236216710591"><ele>32.285714285714285</ele><time>2026-04-06T05:35:57.999Z</time></trkpt><trkpt lat="45.103951723516076" lon="10.062400654742241"><ele>32.57142857142857</ele><time>2026-04-06T05:35:58.999Z</time></trkpt><trkpt lat="45.10388438218657" lon="10.06243749756887"><ele>32.857142857142854</ele><time>2026-04-06T05:35:59.999Z</time></trkpt><trkpt lat="45.10381881974697" lon="10.062476260688959"><ele>33.14285714285714</ele><time>2026-04-06T05:36:00.999Z</time></trkpt><trkpt lat="45.103753760874454" lon="10.062515098584345"><ele>33.42857142857143</ele><time>2026-04-06T05:36:01.999Z</time></trkpt><trkpt lat="45.10368806353966" lon="10.062550912685785"><ele>33.71428571428571</ele><time>2026-04-06T05:36:02.999Z</time></trkpt><trkpt lat="45.10362324759541" lon="10.062587502491697"><ele>34.0</ele><time>2026-04-06T05:36:03.999Z</time></trkpt><trkpt lat="45.103559461101334" lon="10.062625589977515"><ele>34.0</ele><time>2026-04-06T05:36:04.999Z</time></trkpt><trkpt lat="45.10349658021256" lon="10.062661783360294"><ele>34.0</ele><time>2026-04-06T05:36:05.999Z</time></trkpt><trkpt lat="45.10343391860252" lon="10.062697275907308"><ele>34.0</ele><time>2026-04-06T05:36:06.999Z</time></trkpt><trkpt lat="45.103367592838524" lon="10.062720841316866"><ele>34.0</ele><time>2026-04-06T05:36:07.999Z</time></trkpt><trkpt lat="45.10330373996566" lon="10.06272053602437"><ele>34.0</ele><time>2026-04-06T05:36:08.999Z</time></trkpt><trkpt lat="45.10322870880434" lon="10.062574775859662"><ele>34.0</ele><time>2026-04-06T05:36:10.999Z</time></trkpt><trkpt lat="45.10326516269144" lon="10.062468040005417"><ele>34.14285714285714</ele><time>2026-04-06T05:36:11.999Z</time></trkpt><trkpt lat="45.10325889390924" lon="10.062367451621421"><ele>34.285714285714285</ele><time>2026-04-06T05:36:12.999Z</time></trkpt><trkpt lat="45.10326236118263" lon="10.062270931734957"><ele>34.42857142857143</ele><time>2026-04-06T05:36:13.999Z</time></trkpt><trkpt lat="45.10326643020193" lon="10.062172411071362"><ele>34.57142857142857</ele><time>2026-04-06T05:36:14.999Z</time></trkpt><trkpt lat="45.10327453674331" lon="10.06207430995037"><ele>34.714285714285715</ele><time>2026-04-06T05:36:15.999Z</time></trkpt><trkpt lat="45.103279422635204" lon="10.061976447410212"><ele>34.857142857142854</ele><time>2026-04-06T05:36:16.999Z</time></trkpt><trkpt lat="45.10328098872428" lon="10.06187493326445"><ele>35.0</ele><time>2026-04-06T05:36:17.999Z</time></trkpt><trkpt lat="45.10327993471103" lon="10.061776949721246"><ele>35.0</ele><time>2026-04-06T05:36:18.999Z</time></trkpt><trkpt lat="45.10327960188798" lon="10.061677266668982"><ele>35.0</ele><time>2026-04-06T05:36:19.999Z</time></trkpt><trkpt lat="45.10328271050204" lon="10.061578180504668"><ele>35.0</ele><time>2026-04-06T05:36:21.001Z</time></trkpt><trkpt lat="45.103288237844595" lon="10.061478913304631"><ele>35.0</ele><time>2026-04-06T05:36:22.001Z</time></trkpt><trkpt lat="45.1032913225582" lon="10.061378273085891"><ele>35.0</ele><time>2026-04-06T05:36:23.001Z</time></trkpt><trkpt lat="45.10329339489092" lon="10.06128050225645"><ele>35.0</ele><time>2026-04-06T05:36:24.001Z</time></trkpt><trkpt lat="45.103295462326145" lon="10.061180263510424"><ele>35.0</ele><time>2026-04-06T05:36:25.001Z</time></trkpt><trkpt lat="45.103298266936626" lon="10.061083410954955"><ele>35.142857142857146</ele><time>2026-04-06T05:36:26.001Z</time></trkpt><trkpt lat="45.103301418682925" lon="10.060984063245815"><ele>35.285714285714285</ele><time>2026-04-06T05:36:27.001Z</time></trkpt><trkpt lat="45.103304957893755" lon="10.060882487153394"><ele>35.42857142857143</ele><time>2026-04-06T05:36:28.001Z</time></trkpt><trkpt lat="45.103306950330605" lon="10.060781461689594"><ele>35.57142857142857</ele><time>2026-04-06T05:36:29.001Z</time></trkpt><trkpt lat="45.10330408691627" lon="10.060681449686943"><ele>35.714285714285715</ele><time>2026-04-06T05:36:30.001Z</time></trkpt><trkpt lat="45.10330437356283" lon="10.060579535554663"><ele>35.85714285714286</ele><time>2026-04-06T05:36:31.001Z</time></trkpt><trkpt lat="45.10330548680189" lon="10.060479194985849"><ele>36.0</ele><time>2026-04-06T05:36:32Z</time></trkpt><trkpt lat="45.103307060193174" lon="10.060376821180341"><ele>35.85714285714286</ele><time>2026-04-06T05:36:33Z</time></trkpt><trkpt lat="45.103304469204005" lon="10.060275415727077"><ele>35.714285714285715</ele><time>2026-04-06T05:36:34.001Z</time></trkpt><trkpt lat="45.10331061805994" lon="10.060175355332936"><ele>35.57142857142857</ele><time>2026-04-06T05:36:35Z</time></trkpt><trkpt lat="45.1033105169301" lon="10.06007317080031"><ele>35.42857142857143</ele><time>2026-04-06T05:36:36Z</time></trkpt><trkpt lat="45.10330931239179" lon="10.059970519490758"><ele>35.285714285714285</ele><time>2026-04-06T05:36:37Z</time></trkpt><trkpt lat="45.103312941799715" lon="10.059868749789675"><ele>35.142857142857146</ele><time>2026-04-06T05:36:38Z</time></trkpt><trkpt lat="45.10331843995714" lon="10.059766189577065"><ele>35.0</ele><time>2026-04-06T05:36:39Z</time></trkpt><trkpt lat="45.10332089624402" lon="10.059663633838477"><ele>35.0</ele><time>2026-04-06T05:36:40Z</time></trkpt><trkpt lat="45.10331944813401" lon="10.059560256519267"><ele>35.0</ele><time>2026-04-06T05:36:41Z</time></trkpt><trkpt lat="45.10331114250991" lon="10.05945912229685"><ele>35.0</ele><time>2026-04-06T05:36:42Z</time></trkpt><trkpt lat="45.10329755437305" lon="10.059361300586506"><ele>35.0</ele><time>2026-04-06T05:36:43Z</time></trkpt><trkpt lat="45.10326149099692" lon="10.059269473774949"><ele>35.0</ele><time>2026-04-06T05:36:44Z</time></trkpt><trkpt lat="45.10321528896676" lon="10.059191803898424"><ele>35.0</ele><time>2026-04-06T05:36:45Z</time></trkpt><trkpt lat="45.1031708397971" lon="10.059109978696323"><ele>35.0</ele><time>2026-04-06T05:36:46Z</time></trkpt><trkpt lat="45.1030786559962" lon="10.05911479193894"><ele>35.285714285714285</ele><time>2026-04-06T05:36:47Z</time></trkpt><trkpt lat="45.10300667677404" lon="10.059106355790085"><ele>35.57142857142857</ele><time>2026-04-06T05:36:48Z</time></trkpt><trkpt lat="45.102935874982066" lon="10.059091660168297"><ele>35.85714285714286</ele><time>2026-04-06T05:36:49Z</time></trkpt><trkpt lat="45.10287156925032" lon="10.05906809969847"><ele>36.14285714285714</ele><time>2026-04-06T05:36:50Z</time></trkpt><trkpt lat="45.102816529893744" lon="10.059012968630087"><ele>36.42857142857143</ele><time>2026-04-06T05:36:51Z</time></trkpt><trkpt lat="45.102776498897995" lon="10.058925668661727"><ele>36.714285714285715</ele><time>2026-04-06T05:36:52Z</time></trkpt><trkpt lat="45.1027775800779" lon="10.058806326541431"><ele>37.0</ele><time>2026-04-06T05:36:53Z</time></trkpt><trkpt lat="45.10275070508261" lon="10.05870863062837"><ele>37.0</ele><time>2026-04-06T05:36:54Z</time></trkpt><trkpt lat="45.10273224228287" lon="10.058609807244254"><ele>37.0</ele><time>2026-04-06T05:36:55Z</time></trkpt><trkpt lat="45.1027166758001" lon="10.058508578122355"><ele>37.0</ele><time>2026-04-06T05:36:56Z</time></trkpt><trkpt lat="45.10269758034558" lon="10.05840812251289"><ele>37.0</ele><time>2026-04-06T05:36:57Z</time></trkpt><trkpt lat="45.1026798657155" lon="10.05830905642211"><ele>37.0</ele><time>2026-04-06T05:36:58Z</time></trkpt><trkpt lat="45.10266093053584" lon="10.058209274955901"><ele>37.0</ele><time>2026-04-06T05:36:59Z</time></trkpt><trkpt lat="45.102640870129996" lon="10.05811110981106"><ele>37.0</ele><time>2026-04-06T05:37:00Z</time></trkpt><trkpt lat="45.10261800464984" lon="10.05801873567791"><ele>37.285714285714285</ele><time>2026-04-06T05:37:01Z</time></trkpt><trkpt lat="45.102597630914545" lon="10.057920878268202"><ele>37.57142857142857</ele><time>2026-04-06T05:37:02Z</time></trkpt><trkpt lat="45.10257222392927" lon="10.057827070502658"><ele>37.85714285714286</ele><time>2026-04-06T05:37:03Z</time></trkpt><trkpt lat="45.10254544365229" lon="10.05773297932836"><ele>38.14285714285714</ele><time>2026-04-06T05:37:04Z</time></trkpt><trkpt lat="45.10251896185131" lon="10.057642390938312"><ele>38.42857142857142</ele><time>2026-04-06T05:37:05Z</time></trkpt><trkpt lat="45.10249176885646" lon="10.057547500817856"><ele>38.714285714285715</ele><time>2026-04-06T05:37:06Z</time></trkpt><trkpt lat="45.10246627659138" lon="10.057456066678851"><ele>39.0</ele><time>2026-04-06T05:37:07Z</time></trkpt><trkpt lat="45.10243596287059" lon="10.057361785764508"><ele>38.85714285714286</ele><time>2026-04-06T05:37:08Z</time></trkpt><trkpt lat="45.102402065598376" lon="10.057272949506864"><ele>38.71428571428571</ele><time>2026-04-06T05:37:09Z</time></trkpt><trkpt lat="45.1023673059346" lon="10.05718596142443"><ele>38.57142857142857</ele><time>2026-04-06T05:37:10Z</time></trkpt><trkpt lat="45.10233678896342" lon="10.057099379067902"><ele>38.42857142857143</ele><time>2026-04-06T05:37:11Z</time></trkpt><trkpt lat="45.10230295931222" lon="10.05701296636409"><ele>38.28571428571429</ele><time>2026-04-06T05:37:12Z</time></trkpt><trkpt lat="45.1022701015559" lon="10.05692487912798"><ele>38.14285714285714</ele><time>2026-04-06T05:37:13Z</time></trkpt><trkpt lat="45.10223694812782" lon="10.05683828864775"><ele>38.0</ele><time>2026-04-06T05:37:14Z</time></trkpt><trkpt lat="45.102210419994314" lon="10.056750989047634"><ele>38.0</ele><time>2026-04-06T05:37:15Z</time></trkpt><trkpt lat="45.10218008905115" lon="10.056661378901891"><ele>38.0</ele><time>2026-04-06T05:37:16Z</time></trkpt><trkpt lat="45.10215201969603" lon="10.056572827484601"><ele>38.0</ele><time>2026-04-06T05:37:17Z</time></trkpt><trkpt lat="45.102121309151926" lon="10.056482025684902"><ele>38.0</ele><time>2026-04-06T05:37:18Z</time></trkpt><trkpt lat="45.10209214516755" lon="10.056394659173758"><ele>38.0</ele><time>2026-04-06T05:37:19Z</time></trkpt><trkpt lat="45.102061639147564" lon="10.056305741109727"><ele>38.0</ele><time>2026-04-06T05:37:20Z</time></trkpt><trkpt lat="45.10203230453742" lon="10.056216046690801"><ele>38.0</ele><time>2026-04-06T05:37:21Z</time></trkpt><trkpt lat="45.102003010323024" lon="10.056127800867921"><ele>37.714285714285715</ele><time>2026-04-06T05:37:22Z</time></trkpt><trkpt lat="45.10197415011636" lon="10.056029778200385"><ele>37.42857142857143</ele><time>2026-04-06T05:37:23Z</time></trkpt><trkpt lat="45.10194287632235" lon="10.055941263583732"><ele>37.142857142857146</ele><time>2026-04-06T05:37:24Z</time></trkpt><trkpt lat="45.10191217440198" lon="10.055847525807136"><ele>36.85714285714286</ele><time>2026-04-06T05:37:25Z</time></trkpt><trkpt lat="45.1018810470069" lon="10.055754231800428"><ele>36.57142857142857</ele><time>2026-04-06T05:37:26Z</time></trkpt><trkpt lat="45.10185016613271" lon="10.055660386098403"><ele>36.28571428571429</ele><time>2026-04-06T05:37:27Z</time></trkpt><trkpt lat="45.101818974427395" lon="10.055567385290425"><ele>36.0</ele><time>2026-04-06T05:37:28Z</time></trkpt><trkpt lat="45.10178826105933" lon="10.055472053641973"><ele>35.85714285714286</ele><time>2026-04-06T05:37:29Z</time></trkpt><trkpt lat="45.10175794559007" lon="10.055378934852357"><ele>35.714285714285715</ele><time>2026-04-06T05:37:30Z</time></trkpt><trkpt lat="45.101727756060264" lon="10.055286743643816"><ele>35.57142857142857</ele><time>2026-04-06T05:37:30.999Z</time></trkpt><trkpt lat="45.101695141386394" lon="10.05519294175557"><ele>35.42857142857143</ele><time>2026-04-06T05:37:31.999Z</time></trkpt><trkpt lat="45.101665403719394" lon="10.055100896096112"><ele>35.285714285714285</ele><time>2026-04-06T05:37:32.999Z</time></trkpt><trkpt lat="45.10163377105519" lon="10.05500855995712"><ele>35.142857142857146</ele><time>2026-04-06T05:37:33.999Z</time></trkpt><trkpt lat="45.10160309754404" lon="10.054919289678768"><ele>35.0</ele><time>2026-04-06T05:37:34.999Z</time></trkpt><trkpt lat="45.10157375340742" lon="10.054827953892406"><ele>35.0</ele><time>2026-04-06T05:37:35.999Z</time></trkpt><trkpt lat="45.101543546200894" lon="10.05473467268131"><ele>35.0</ele><time>2026-04-06T05:37:36.999Z</time></trkpt><trkpt lat="45.101515961774794" lon="10.054639973371955"><ele>35.0</ele><time>2026-04-06T05:37:37.999Z</time></trkpt><trkpt lat="45.10148776829499" lon="10.054545726919551"><ele>35.0</ele><time>2026-04-06T05:37:38.999Z</time></trkpt><trkpt lat="45.1014604039431" lon="10.054449861952337"><ele>35.0</ele><time>2026-04-06T05:37:39.999Z</time></trkpt><trkpt lat="45.10143076287045" lon="10.054356365000602"><ele>35.0</ele><time>2026-04-06T05:37:40.999Z</time></trkpt><trkpt lat="45.10139989694038" lon="10.054264759987696"><ele>35.0</ele><time>2026-04-06T05:37:41.999Z</time></trkpt><trkpt lat="45.1013945090572" lon="10.054161016492245"><ele>35.0</ele><time>2026-04-06T05:37:42.999Z</time></trkpt><trkpt lat="45.101386240724" lon="10.054063445529072"><ele>35.0</ele><time>2026-04-06T05:37:43.999Z</time></trkpt><trkpt lat="45.10138428910153" lon="10.053968706422037"><ele>35.0</ele><time>2026-04-06T05:37:44.999Z</time></trkpt><trkpt lat="45.10138543511516" lon="10.053865794564498"><ele>35.0</ele><time>2026-04-06T05:37:45.999Z</time></trkpt><trkpt lat="45.10139396621688" lon="10.05376552129834"><ele>35.0</ele><time>2026-04-06T05:37:46.999Z</time></trkpt><trkpt lat="45.101396541091205" lon="10.053666159935581"><ele>35.0</ele><time>2026-04-06T05:37:47.999Z</time></trkpt><trkpt lat="45.10139981639137" lon="10.053565030000222"><ele>35.0</ele><time>2026-04-06T05:37:48.999Z</time></trkpt><trkpt lat="45.10140024837277" lon="10.053466453295341"><ele>35.0</ele><time>2026-04-06T05:37:49.999Z</time></trkpt><trkpt lat="45.1014078093461" lon="10.053366773333282"><ele>35.0</ele><time>2026-04-06T05:37:50.999Z</time></trkpt><trkpt lat="45.10141400968448" lon="10.053268510154231"><ele>35.0</ele><time>2026-04-06T05:37:51.999Z</time></trkpt><trkpt lat="45.10141971270898" lon="10.053172964702153"><ele>35.0</ele><time>2026-04-06T05:37:52.999Z</time></trkpt><trkpt lat="45.10142604511609" lon="10.053074777907113"><ele>35.0</ele><time>2026-04-06T05:37:53.999Z</time></trkpt><trkpt lat="45.10143492516771" lon="10.05298040576358"><ele>35.0</ele><time>2026-04-06T05:37:54.999Z</time></trkpt><trkpt lat="45.10144144633956" lon="10.05288521323974"><ele>35.0</ele><time>2026-04-06T05:37:55.999Z</time></trkpt><trkpt lat="45.101449850458856" lon="10.052790056264296"><ele>35.0</ele><time>2026-04-06T05:37:56.999Z</time></trkpt><trkpt lat="45.10145808994068" lon="10.052694363689413"><ele>35.0</ele><time>2026-04-06T05:37:57.999Z</time></trkpt><trkpt lat="45.10146396035423" lon="10.052600907746708"><ele>35.0</ele><time>2026-04-06T05:37:58.999Z</time></trkpt><trkpt lat="45.101473574260446" lon="10.052507257117774"><ele>35.0</ele><time>2026-04-06T05:37:59.999Z</time></trkpt><trkpt lat="45.10148046466732" lon="10.052413639687781"><ele>35.0</ele><time>2026-04-06T05:38:00.999Z</time></trkpt><trkpt lat="45.101487061807155" lon="10.052319791284512"><ele>35.0</ele><time>2026-04-06T05:38:01.999Z</time></trkpt><trkpt lat="45.101495228842936" lon="10.052226077948117"><ele>35.0</ele><time>2026-04-06T05:38:02.999Z</time></trkpt><trkpt lat="45.10150257574596" lon="10.052132502805678"><ele>35.142857142857146</ele><time>2026-04-06T05:38:03.999Z</time></trkpt><trkpt lat="45.10151046670977" lon="10.052039567091537"><ele>35.285714285714285</ele><time>2026-04-06T05:38:04.999Z</time></trkpt><trkpt lat="45.101517593704656" lon="10.0519472373575"><ele>35.42857142857143</ele><time>2026-04-06T05:38:05.999Z</time></trkpt><trkpt lat="45.10152695370592" lon="10.051854507948315"><ele>35.57142857142857</ele><time>2026-04-06T05:38:06.999Z</time></trkpt><trkpt lat="45.10153410383168" lon="10.05176117909358"><ele>35.714285714285715</ele><time>2026-04-06T05:38:07.999Z</time></trkpt><trkpt lat="45.101539725267635" lon="10.051668250532206"><ele>35.85714285714286</ele><time>2026-04-06T05:38:08.999Z</time></trkpt><trkpt lat="45.101544838088" lon="10.051577028022944"><ele>36.0</ele><time>2026-04-06T05:38:09.999Z</time></trkpt><trkpt lat="45.101551496760266" lon="10.051483649185341"><ele>36.166666666666664</ele><time>2026-04-06T05:38:10.999Z</time></trkpt><trkpt lat="45.10155879317245" lon="10.05139255320139"><ele>36.333333333333336</ele><time>2026-04-06T05:38:11.999Z</time></trkpt><trkpt lat="45.101581794352064" lon="10.051305152552576"><ele>36.5</ele><time>2026-04-06T05:38:12.999Z</time></trkpt><trkpt lat="45.10157488758189" lon="10.051211839907433"><ele>36.66666666666667</ele><time>2026-04-06T05:38:13.999Z</time></trkpt><trkpt lat="45.10161812170743" lon="10.051072102874762"><ele>36.833333333333336</ele><time>2026-04-06T05:38:15.999Z</time></trkpt><trkpt lat="45.10172439834013" lon="10.051022244586946"><ele>37.0</ele><time>2026-04-06T05:38:17.999Z</time></trkpt><trkpt lat="45.10184563179662" lon="10.051042754607694"><ele>37.0</ele><time>2026-04-06T05:38:19.999Z</time></trkpt><trkpt lat="45.10197024303595" lon="10.051066273880332"><ele>37.0</ele><time>2026-04-06T05:38:21.999Z</time></trkpt><trkpt lat="45.102033355227064" lon="10.05107021124159"><ele>37.0</ele><time>2026-04-06T05:38:22.999Z</time></trkpt><trkpt lat="45.10209822450388" lon="10.051076106190946"><ele>37.0</ele><time>2026-04-06T05:38:23.999Z</time></trkpt><trkpt lat="45.1021623059786" lon="10.051079354073211"><ele>37.0</ele><time>2026-04-06T05:38:24.999Z</time></trkpt><trkpt lat="45.102227794723426" lon="10.05108527374003"><ele>37.0</ele><time>2026-04-06T05:38:25.999Z</time></trkpt><trkpt lat="45.1022933793306" lon="10.051089864236662"><ele>37.0</ele><time>2026-04-06T05:38:27Z</time></trkpt><trkpt lat="45.102358870843766" lon="10.051095977440712"><ele>36.714285714285715</ele><time>2026-04-06T05:38:28Z</time></trkpt><trkpt lat="45.10242297273255" lon="10.051102096446103"><ele>36.42857142857143</ele><time>2026-04-06T05:38:29Z</time></trkpt><trkpt lat="45.10248857842977" lon="10.05111168344276"><ele>36.14285714285714</ele><time>2026-04-06T05:38:30Z</time></trkpt><trkpt lat="45.10255637369574" lon="10.051118919729848"><ele>35.85714285714286</ele><time>2026-04-06T05:38:31Z</time></trkpt><trkpt lat="45.10262445446357" lon="10.051122662222697"><ele>35.57142857142857</ele><time>2026-04-06T05:38:32Z</time></trkpt><trkpt lat="45.10269292636751" lon="10.051129878790384"><ele>35.285714285714285</ele><time>2026-04-06T05:38:33Z</time></trkpt><trkpt lat="45.10276105190218" lon="10.051138735589536"><ele>35.0</ele><time>2026-04-06T05:38:34Z</time></trkpt><trkpt lat="45.10283012816976" lon="10.051146404040388"><ele>35.0</ele><time>2026-04-06T05:38:35Z</time></trkpt><trkpt lat="45.10289904824099" lon="10.051153539703623"><ele>35.0</ele><time>2026-04-06T05:38:36Z</time></trkpt><trkpt lat="45.102966191580435" lon="10.051163573294017"><ele>35.0</ele><time>2026-04-06T05:38:37Z</time></trkpt><trkpt lat="45.10303313001778" lon="10.051175432152277"><ele>35.0</ele><time>2026-04-06T05:38:38Z</time></trkpt><trkpt lat="45.10310389637064" lon="10.051188921954953"><ele>35.0</ele><time>2026-04-06T05:38:39Z</time></trkpt><trkpt lat="45.10317246534563" lon="10.051193356689069"><ele>35.0</ele><time>2026-04-06T05:38:40Z</time></trkpt><trkpt lat="45.10324011210385" lon="10.051203163257103"><ele>35.0</ele><time>2026-04-06T05:38:41Z</time></trkpt><trkpt lat="45.10330706202014" lon="10.051216217482297"><ele>34.83333333333333</ele><time>2026-04-06T05:38:42Z</time></trkpt><trkpt lat="45.10337332202993" lon="10.051231676270985"><ele>34.666666666666664</ele><time>2026-04-06T05:38:43Z</time></trkpt><trkpt lat="45.1034386517148" lon="10.051246456696926"><ele>34.5</ele><time>2026-04-06T05:38:44Z</time></trkpt><trkpt lat="45.1035032096334" lon="10.05125924461471"><ele>34.333333333333336</ele><time>2026-04-06T05:38:45Z</time></trkpt><trkpt lat="45.10356764958233" lon="10.05127341628468"><ele>34.16666666666667</ele><time>2026-04-06T05:38:46Z</time></trkpt><trkpt lat="45.10369543772547" lon="10.051298971602696"><ele>34.0</ele><time>2026-04-06T05:38:48Z</time></trkpt><trkpt lat="45.103760995151426" lon="10.051314155908624"><ele>33.99999999999999</ele><time>2026-04-06T05:38:49Z</time></trkpt><trkpt lat="45.10382895418065" lon="10.051322626806405"><ele>34.0</ele><time>2026-04-06T05:38:50Z</time></trkpt><trkpt lat="45.103893933394204" lon="10.051331162704553"><ele>34.0</ele><time>2026-04-06T05:38:51Z</time></trkpt><trkpt lat="45.10395799818276" lon="10.051341342217741"><ele>34.0</ele><time>2026-04-06T05:38:52Z</time></trkpt><trkpt lat="45.10402467872298" lon="10.051356356378971"><ele>34.0</ele><time>2026-04-06T05:38:53Z</time></trkpt><trkpt lat="45.1040904584168" lon="10.051373350543813"><ele>33.99999999999999</ele><time>2026-04-06T05:38:54Z</time></trkpt><trkpt lat="45.1041557876791" lon="10.05138568408184"><ele>34.0</ele><time>2026-04-06T05:38:55Z</time></trkpt><trkpt lat="45.104221218651766" lon="10.051405002670768"><ele>33.857142857142854</ele><time>2026-04-06T05:38:56Z</time></trkpt><trkpt lat="45.10428649174374" lon="10.051419339754304"><ele>33.714285714285715</ele><time>2026-04-06T05:38:57Z</time></trkpt><trkpt lat="45.10435095529877" lon="10.051427066273137"><ele>33.57142857142857</ele><time>2026-04-06T05:38:58Z</time></trkpt><trkpt lat="45.10441626050978" lon="10.051437629862276"><ele>33.42857142857143</ele><time>2026-04-06T05:38:59Z</time></trkpt><trkpt lat="45.1044823636306" lon="10.051452037528081"><ele>33.285714285714285</ele><time>2026-04-06T05:39:00Z</time></trkpt><trkpt lat="45.104547969164315" lon="10.051463197893174"><ele>33.14285714285714</ele><time>2026-04-06T05:39:01Z</time></trkpt><trkpt lat="45.10461287612958" lon="10.051473794110157"><ele>33.0</ele><time>2026-04-06T05:39:02Z</time></trkpt><trkpt lat="45.10467995179854" lon="10.051480622172758"><ele>33.0</ele><time>2026-04-06T05:39:03Z</time></trkpt><trkpt lat="45.1047459466589" lon="10.051485155644755"><ele>33.0</ele><time>2026-04-06T05:39:04Z</time></trkpt><trkpt lat="45.1048724076342" lon="10.051482668668292"><ele>33.0</ele><time>2026-04-06T05:39:06Z</time></trkpt><trkpt lat="45.1049390711173" lon="10.051478313213078"><ele>33.0</ele><time>2026-04-06T05:39:07Z</time></trkpt><trkpt lat="45.10500253604158" lon="10.051476565816913"><ele>33.0</ele><time>2026-04-06T05:39:08Z</time></trkpt><trkpt lat="45.10506607305678" lon="10.051479325110508"><ele>33.0</ele><time>2026-04-06T05:39:09Z</time></trkpt><trkpt lat="45.10517842781234" lon="10.051446055398408"><ele>33.0</ele><time>2026-04-06T05:39:11Z</time></trkpt><trkpt lat="45.10523389799712" lon="10.051382543584277"><ele>33.0</ele><time>2026-04-06T05:39:12Z</time></trkpt><trkpt lat="45.10525578304172" lon="10.051269859470052"><ele>33.0</ele><time>2026-04-06T05:39:13Z</time></trkpt><trkpt lat="45.10523898255187" lon="10.05115409315593"><ele>33.0</ele><time>2026-04-06T05:39:14Z</time></trkpt><trkpt lat="45.105238442717784" lon="10.051054622806234"><ele>33.0</ele><time>2026-04-06T05:39:15Z</time></trkpt><trkpt lat="45.10523584331524" lon="10.050953520149285"><ele>33.0</ele><time>2026-04-06T05:39:16Z</time></trkpt><trkpt lat="45.10523621176897" lon="10.050853348052087"><ele>33.14285714285714</ele><time>2026-04-06T05:39:17Z</time></trkpt><trkpt lat="45.10523268820911" lon="10.05075268545726"><ele>33.285714285714285</ele><time>2026-04-06T05:39:18Z</time></trkpt><trkpt lat="45.10523166885471" lon="10.050654006815604"><ele>33.42857142857143</ele><time>2026-04-06T05:39:19Z</time></trkpt><trkpt lat="45.10522803908476" lon="10.050553504324704"><ele>33.57142857142857</ele><time>2026-04-06T05:39:20Z</time></trkpt><trkpt lat="45.10523038670146" lon="10.050458572554083"><ele>33.714285714285715</ele><time>2026-04-06T05:39:21Z</time></trkpt><trkpt lat="45.10523175038352" lon="10.050362364259259"><ele>33.857142857142854</ele><time>2026-04-06T05:39:22Z</time></trkpt><trkpt lat="45.10523306871905" lon="10.050268438591651"><ele>34.0</ele><time>2026-04-06T05:39:23Z</time></trkpt><trkpt lat="45.105234414686635" lon="10.050172350087145"><ele>33.99999999999999</ele><time>2026-04-06T05:39:24Z</time></trkpt><trkpt lat="45.105234673323096" lon="10.050077771218943"><ele>34.0</ele><time>2026-04-06T05:39:25Z</time></trkpt><trkpt lat="45.10523417318545" lon="10.049982586008984"><ele>34.0</ele><time>2026-04-06T05:39:26Z</time></trkpt><trkpt lat="45.105232946619495" lon="10.049887442268616"><ele>34.0</ele><time>2026-04-06T05:39:27Z</time></trkpt><trkpt lat="45.105230808494234" lon="10.049792000895676"><ele>34.0</ele><time>2026-04-06T05:39:28Z</time></trkpt><trkpt lat="45.10522912249058" lon="10.04969647258387"><ele>33.99999999999999</ele><time>2026-04-06T05:39:29Z</time></trkpt><trkpt lat="45.10522678522478" lon="10.049600984451803"><ele>34.0</ele><time>2026-04-06T05:39:30Z</time></trkpt><trkpt lat="45.10522424609208" lon="10.049503571541013"><ele>33.857142857142854</ele><time>2026-04-06T05:39:31Z</time></trkpt><trkpt lat="45.105219521049264" lon="10.049406390053697"><ele>33.714285714285715</ele><time>2026-04-06T05:39:32Z</time></trkpt><trkpt lat="45.105214730649465" lon="10.049311569930875"><ele>33.57142857142857</ele><time>2026-04-06T05:39:33Z</time></trkpt><trkpt lat="45.105209748618755" lon="10.049214700796979"><ele>33.42857142857143</ele><time>2026-04-06T05:39:33.999Z</time></trkpt><trkpt lat="45.10520438139893" lon="10.04911990894882"><ele>33.285714285714285</ele><time>2026-04-06T05:39:34.999Z</time></trkpt><trkpt lat="45.10519751832689" lon="10.049023105213486"><ele>33.14285714285714</ele><time>2026-04-06T05:39:35.999Z</time></trkpt><trkpt lat="45.105187858448694" lon="10.04892866190847"><ele>33.0</ele><time>2026-04-06T05:39:36.999Z</time></trkpt><trkpt lat="45.10517744941419" lon="10.048834501032301"><ele>33.285714285714285</ele><time>2026-04-06T05:39:37.999Z</time></trkpt><trkpt lat="45.10517024802958" lon="10.048737629221542"><ele>33.57142857142857</ele><time>2026-04-06T05:39:38.999Z</time></trkpt><trkpt lat="45.10515965380579" lon="10.04864280794391"><ele>33.85714285714286</ele><time>2026-04-06T05:39:39.999Z</time></trkpt><trkpt lat="45.10514816723503" lon="10.048547453082085"><ele>34.14285714285714</ele><time>2026-04-06T05:39:40.999Z</time></trkpt><trkpt lat="45.10513477330318" lon="10.048451855319804"><ele>34.42857142857143</ele><time>2026-04-06T05:39:41.999Z</time></trkpt><trkpt lat="45.10512307444627" lon="10.048357600025126"><ele>34.714285714285715</ele><time>2026-04-06T05:39:42.999Z</time></trkpt><trkpt lat="45.10510973354692" lon="10.04826229636078"><ele>35.0</ele><time>2026-04-06T05:39:43.999Z</time></trkpt><trkpt lat="45.10510084889076" lon="10.04816490260747"><ele>35.0</ele><time>2026-04-06T05:39:44.999Z</time></trkpt><trkpt lat="45.10509071436296" lon="10.048071209175975"><ele>35.0</ele><time>2026-04-06T05:39:45.999Z</time></trkpt><trkpt lat="45.105080454372455" lon="10.047978295543768"><ele>35.0</ele><time>2026-04-06T05:39:46.999Z</time></trkpt><trkpt lat="45.10506849582126" lon="10.047883976429071"><ele>35.0</ele><time>2026-04-06T05:39:47.999Z</time></trkpt><trkpt lat="45.105053363113434" lon="10.047792128168581"><ele>35.0</ele><time>2026-04-06T05:39:48.999Z</time></trkpt><trkpt lat="45.10502925299624" lon="10.047706580902334"><ele>35.0</ele><time>2026-04-06T05:39:49.999Z</time></trkpt><trkpt lat="45.10500214135061" lon="10.047623787920976"><ele>35.0</ele><time>2026-04-06T05:39:50.999Z</time></trkpt><trkpt lat="45.10497939806637" lon="10.04753983917625"><ele>34.857142857142854</ele><time>2026-04-06T05:39:51.999Z</time></trkpt><trkpt lat="45.10495810513104" lon="10.047455340243378"><ele>34.714285714285715</ele><time>2026-04-06T05:39:52.999Z</time></trkpt><trkpt lat="45.10493752462548" lon="10.047369533191748"><ele>34.57142857142857</ele><time>2026-04-06T05:39:53.999Z</time></trkpt><trkpt lat="45.10491508017541" lon="10.047283550684108"><ele>34.42857142857143</ele><time>2026-04-06T05:39:54.999Z</time></trkpt><trkpt lat="45.10489692904341" lon="10.047193628812632"><ele>34.285714285714285</ele><time>2026-04-06T05:39:55.999Z</time></trkpt><trkpt lat="45.10487410266993" lon="10.047106722225761"><ele>34.14285714285714</ele><time>2026-04-06T05:39:56.999Z</time></trkpt><trkpt lat="45.10485265088324" lon="10.047017752059368"><ele>34.0</ele><time>2026-04-06T05:39:57.999Z</time></trkpt><trkpt lat="45.104833804750236" lon="10.046925591400187"><ele>33.857142857142854</ele><time>2026-04-06T05:39:58.999Z</time></trkpt><trkpt lat="45.10481455316499" lon="10.046835684694303"><ele>33.714285714285715</ele><time>2026-04-06T05:39:59.999Z</time></trkpt><trkpt lat="45.10479432435931" lon="10.046743388656461"><ele>33.57142857142857</ele><time>2026-04-06T05:40:00.999Z</time></trkpt><trkpt lat="45.104772833933865" lon="10.046653453632555"><ele>33.42857142857143</ele><time>2026-04-06T05:40:01.999Z</time></trkpt><trkpt lat="45.104751733752714" lon="10.046563190325282"><ele>33.285714285714285</ele><time>2026-04-06T05:40:02.999Z</time></trkpt><trkpt lat="45.10472970141875" lon="10.046471676560758"><ele>33.14285714285714</ele><time>2026-04-06T05:40:03.999Z</time></trkpt><trkpt lat="45.104707831807275" lon="10.046380978415863"><ele>33.0</ele><time>2026-04-06T05:40:04.999Z</time></trkpt><trkpt lat="45.10468720882359" lon="10.046288471200189"><ele>33.0</ele><time>2026-04-06T05:40:05.999Z</time></trkpt><trkpt lat="45.1046659391618" lon="10.046199850588083"><ele>33.0</ele><time>2026-04-06T05:40:06.999Z</time></trkpt><trkpt lat="45.10464502274063" lon="10.046108204296514"><ele>33.0</ele><time>2026-04-06T05:40:07.999Z</time></trkpt><trkpt lat="45.104624821281874" lon="10.046018583360373"><ele>33.0</ele><time>2026-04-06T05:40:08.999Z</time></trkpt><trkpt lat="45.10460245315148" lon="10.04592918210542"><ele>33.0</ele><time>2026-04-06T05:40:09.999Z</time></trkpt><trkpt lat="45.10458272567764" lon="10.045838549059557"><ele>33.0</ele><time>2026-04-06T05:40:10.999Z</time></trkpt><trkpt lat="45.104562551637926" lon="10.045747292450134"><ele>33.0</ele><time>2026-04-06T05:40:11.999Z</time></trkpt><trkpt lat="45.104543767934956" lon="10.045655023943358"><ele>33.285714285714285</ele><time>2026-04-06T05:40:12.999Z</time></trkpt><trkpt lat="45.10452269998193" lon="10.045565789714868"><ele>33.57142857142857</ele><time>2026-04-06T05:40:13.999Z</time></trkpt><trkpt lat="45.104505252468655" lon="10.045472851534909"><ele>33.85714285714286</ele><time>2026-04-06T05:40:14.999Z</time></trkpt><trkpt lat="45.10448458255127" lon="10.045381892817927"><ele>34.14285714285714</ele><time>2026-04-06T05:40:15.999Z</time></trkpt><trkpt lat="45.104465089812805" lon="10.045293474206611"><ele>34.42857142857143</ele><time>2026-04-06T05:40:16.999Z</time></trkpt><trkpt lat="45.10444007528218" lon="10.045203655949429"><ele>34.714285714285715</ele><time>2026-04-06T05:40:17.999Z</time></trkpt><trkpt lat="45.10442063885217" lon="10.045114764740664"><ele>35.0</ele><time>2026-04-06T05:40:18.999Z</time></trkpt><trkpt lat="45.10440180694682" lon="10.045023352879484"><ele>35.142857142857146</ele><time>2026-04-06T05:40:19.999Z</time></trkpt><trkpt lat="45.104380845725856" lon="10.044933677247132"><ele>35.285714285714285</ele><time>2026-04-06T05:40:20.999Z</time></trkpt><trkpt lat="45.10436009256131" lon="10.044847093928436"><ele>35.42857142857143</ele><time>2026-04-06T05:40:21.999Z</time></trkpt><trkpt lat="45.10434103484839" lon="10.044757156901701"><ele>35.57142857142857</ele><time>2026-04-06T05:40:22.999Z</time></trkpt><trkpt lat="45.10432314791686" lon="10.044668320222815"><ele>35.714285714285715</ele><time>2026-04-06T05:40:23.999Z</time></trkpt><trkpt lat="45.10430303421859" lon="10.044579976168954"><ele>35.85714285714286</ele><time>2026-04-06T05:40:24.999Z</time></trkpt><trkpt lat="45.104282742532845" lon="10.04449299202136"><ele>36.0</ele><time>2026-04-06T05:40:25.999Z</time></trkpt><trkpt lat="45.10426257602541" lon="10.044404231993"><ele>36.0</ele><time>2026-04-06T05:40:26.999Z</time></trkpt><trkpt lat="45.10424391989168" lon="10.044316572475932"><ele>36.0</ele><time>2026-04-06T05:40:27.999Z</time></trkpt><trkpt lat="45.104221875968" lon="10.044226604368747"><ele>36.0</ele><time>2026-04-06T05:40:28.999Z</time></trkpt><trkpt lat="45.104198283375105" lon="10.044142767592161"><ele>36.0</ele><time>2026-04-06T05:40:29.999Z</time></trkpt><trkpt lat="45.10417333963757" lon="10.044056082189558"><ele>36.0</ele><time>2026-04-06T05:40:30.999Z</time></trkpt><trkpt lat="45.104118284426704" lon="10.043893456469291"><ele>36.0</ele><time>2026-04-06T05:40:33Z</time></trkpt><trkpt lat="45.104060502167535" lon="10.04374018905407"><ele>36.0</ele><time>2026-04-06T05:40:35Z</time></trkpt><trkpt lat="45.10400339339442" lon="10.043606094121161"><ele>36.0</ele><time>2026-04-06T05:40:37Z</time></trkpt><trkpt lat="45.10395130204382" lon="10.043482115949192"><ele>36.0</ele><time>2026-04-06T05:40:39Z</time></trkpt><trkpt lat="45.10393216951222" lon="10.04334152197979"><ele>36.0</ele><time>2026-04-06T05:40:41Z</time></trkpt><trkpt lat="45.10390325233171" lon="10.043230250842685"><ele>36.0</ele><time>2026-04-06T05:40:43Z</time></trkpt><trkpt lat="45.10400335108592" lon="10.04315112279193"><ele>36.0</ele><time>2026-04-06T05:40:44Z</time></trkpt><trkpt lat="45.10407174313375" lon="10.043057659502914"><ele>36.0</ele><time>2026-04-06T05:40:46Z</time></trkpt><trkpt lat="45.104139537099" lon="10.042942411747095"><ele>36.0</ele><time>2026-04-06T05:40:48Z</time></trkpt><trkpt lat="45.10420347961973" lon="10.0428159299974"><ele>36.0</ele><time>2026-04-06T05:40:50Z</time></trkpt><trkpt lat="45.10427184660009" lon="10.042689961682125"><ele>36.0</ele><time>2026-04-06T05:40:52Z</time></trkpt><trkpt lat="45.10434751554721" lon="10.04257656144671"><ele>36.166666666666664</ele><time>2026-04-06T05:40:54Z</time></trkpt><trkpt lat="45.10442439969629" lon="10.04244797632671"><ele>36.333333333333336</ele><time>2026-04-06T05:40:56Z</time></trkpt><trkpt lat="45.104464514141625" lon="10.04237725253404"><ele>36.5</ele><time>2026-04-06T05:40:57Z</time></trkpt><trkpt lat="45.10450854657697" lon="10.042306443805062"><ele>36.66666666666667</ele><time>2026-04-06T05:40:58Z</time></trkpt><trkpt lat="45.10455158960949" lon="10.042232391656881"><ele>36.833333333333336</ele><time>2026-04-06T05:40:59Z</time></trkpt><trkpt lat="45.10459253300052" lon="10.042159435272966"><ele>37.0</ele><time>2026-04-06T05:41:00Z</time></trkpt><trkpt lat="45.104635883841134" lon="10.042085368660244"><ele>37.0</ele><time>2026-04-06T05:41:01Z</time></trkpt><trkpt lat="45.10467975162636" lon="10.042013175562568"><ele>37.0</ele><time>2026-04-06T05:41:02Z</time></trkpt><trkpt lat="45.10472109721706" lon="10.041939435747777"><ele>37.0</ele><time>2026-04-06T05:41:03Z</time></trkpt><trkpt lat="45.10476178187531" lon="10.041866027738976"><ele>37.0</ele><time>2026-04-06T05:41:04Z</time></trkpt><trkpt lat="45.104801564634904" lon="10.041790361232719"><ele>37.0</ele><time>2026-04-06T05:41:05Z</time></trkpt><trkpt lat="45.10483926541857" lon="10.041718570282981"><ele>37.0</ele><time>2026-04-06T05:41:06Z</time></trkpt><trkpt lat="45.10488123375658" lon="10.0416481842226"><ele>37.0</ele><time>2026-04-06T05:41:07Z</time></trkpt><trkpt lat="45.10495779213626" lon="10.041523749796962"><ele>37.2</ele><time>2026-04-06T05:41:09Z</time></trkpt><trkpt lat="45.105020649359155" lon="10.04140809076424"><ele>37.400000000000006</ele><time>2026-04-06T05:41:11Z</time></trkpt><trkpt lat="45.105080683193" lon="10.041294139705244"><ele>37.599999999999994</ele><time>2026-04-06T05:41:13Z</time></trkpt><trkpt lat="45.10515406687693" lon="10.041183736302688"><ele>37.8</ele><time>2026-04-06T05:41:15Z</time></trkpt><trkpt lat="45.105221125743824" lon="10.041087352100991"><ele>38.0</ele><time>2026-04-06T05:41:17Z</time></trkpt><trkpt lat="45.10513697179353" lon="10.040949759214419"><ele>38.0</ele><time>2026-04-06T05:41:21Z</time></trkpt><trkpt lat="45.10507509525885" lon="10.040917368321898"><ele>38.0</ele><time>2026-04-06T05:41:25Z</time></trkpt><trkpt lat="45.10499438955974" lon="10.040892681527938"><ele>38.0</ele><time>2026-04-06T05:41:30Z</time></trkpt><trkpt lat="45.10490309778097" lon="10.040862082000798"><ele>38.0</ele><time>2026-04-06T05:41:33Z</time></trkpt><trkpt lat="45.104818478960404" lon="10.040820538836632"><ele>38.0</ele><time>2026-04-06T05:41:35Z</time></trkpt><trkpt lat="45.104716394699444" lon="10.040781232581086"><ele>38.0</ele><time>2026-04-06T05:41:36.999Z</time></trkpt><trkpt lat="45.10460880258094" lon="10.040737335798179"><ele>38.199999999999996</ele><time>2026-04-06T05:41:38.999Z</time></trkpt><trkpt lat="45.10449726595935" lon="10.04070058156783"><ele>38.4</ele><time>2026-04-06T05:41:40.999Z</time></trkpt><trkpt lat="45.104433044558505" lon="10.040681993786418"><ele>38.599999999999994</ele><time>2026-04-06T05:41:41.999Z</time></trkpt><trkpt lat="45.1043194539273" lon="10.040645112215072"><ele>38.8</ele><time>2026-04-06T05:41:43.999Z</time></trkpt><trkpt lat="45.10425752581551" lon="10.040625121978524"><ele>39.0</ele><time>2026-04-06T05:41:44.999Z</time></trkpt><trkpt lat="45.104142500490596" lon="10.040582017966079"><ele>38.5</ele><time>2026-04-06T05:41:46.999Z</time></trkpt><trkpt lat="45.10401985334326" lon="10.040538896592253"><ele>38.0</ele><time>2026-04-06T05:41:48.999Z</time></trkpt><trkpt lat="45.103901167002256" lon="10.040496432465488"><ele>37.5</ele><time>2026-04-06T05:41:50.999Z</time></trkpt><trkpt lat="45.10378132535011" lon="10.040453100147522"><ele>37.0</ele><time>2026-04-06T05:41:52.999Z</time></trkpt><trkpt lat="45.10366159863155" lon="10.040406624182301"><ele>37.0</ele><time>2026-04-06T05:41:54.999Z</time></trkpt><trkpt lat="45.103540602267664" lon="10.040366334916474"><ele>37.0</ele><time>2026-04-06T05:41:56.999Z</time></trkpt><trkpt lat="45.10341702569013" lon="10.040324058563003"><ele>37.0</ele><time>2026-04-06T05:41:58.999Z</time></trkpt><trkpt lat="45.103354416478886" lon="10.04030486858828"><ele>37.0</ele><time>2026-04-06T05:41:59.999Z</time></trkpt><trkpt lat="45.103235279480344" lon="10.040263622343407"><ele>37.0</ele><time>2026-04-06T05:42:01.999Z</time></trkpt><trkpt lat="45.10311688881475" lon="10.040217082001945"><ele>36.6</ele><time>2026-04-06T05:42:03.999Z</time></trkpt><trkpt lat="45.10299871078243" lon="10.040167583599134"><ele>36.2</ele><time>2026-04-06T05:42:05.999Z</time></trkpt><trkpt lat="45.1028778616178" lon="10.04011333398904"><ele>35.8</ele><time>2026-04-06T05:42:07.999Z</time></trkpt><trkpt lat="45.10275635011538" lon="10.0400639862293"><ele>35.4</ele><time>2026-04-06T05:42:09.999Z</time></trkpt><trkpt lat="45.102696842387786" lon="10.04003271405884"><ele>35.0</ele><time>2026-04-06T05:42:10.999Z</time></trkpt><trkpt lat="45.10263389677769" lon="10.040005433888265"><ele>35.0</ele><time>2026-04-06T05:42:11.999Z</time></trkpt><trkpt lat="45.10256973060887" lon="10.03997716832521"><ele>35.0</ele><time>2026-04-06T05:42:12.999Z</time></trkpt><trkpt lat="45.10250696667649" lon="10.03994613990732"><ele>35.0</ele><time>2026-04-06T05:42:13.999Z</time></trkpt><trkpt lat="45.102443948374926" lon="10.039916860709075"><ele>35.0</ele><time>2026-04-06T05:42:14.999Z</time></trkpt><trkpt lat="45.10237879044118" lon="10.039886912068571"><ele>35.0</ele><time>2026-04-06T05:42:15.999Z</time></trkpt><trkpt lat="45.102315324639605" lon="10.039859796112841"><ele>35.0</ele><time>2026-04-06T05:42:16.999Z</time></trkpt><trkpt lat="45.10225430854095" lon="10.0398263991855"><ele>35.0</ele><time>2026-04-06T05:42:17.999Z</time></trkpt><trkpt lat="45.10218910364505" lon="10.039798099071701"><ele>35.166666666666664</ele><time>2026-04-06T05:42:18.999Z</time></trkpt><trkpt lat="45.10212200629651" lon="10.039775592397444"><ele>35.33333333333333</ele><time>2026-04-06T05:42:19.999Z</time></trkpt><trkpt lat="45.10200302747711" lon="10.03970254528768"><ele>35.5</ele><time>2026-04-06T05:42:21.999Z</time></trkpt><trkpt lat="45.10193971198841" lon="10.03968208284748"><ele>35.666666666666664</ele><time>2026-04-06T05:42:22.999Z</time></trkpt><trkpt lat="45.101879020001356" lon="10.039649740268178"><ele>35.833333333333336</ele><time>2026-04-06T05:42:23.999Z</time></trkpt><trkpt lat="45.10182271957575" lon="10.039606119566592"><ele>36.0</ele><time>2026-04-06T05:42:24.999Z</time></trkpt><trkpt lat="45.10176461268274" lon="10.03956879412559"><ele>36.0</ele><time>2026-04-06T05:42:25.999Z</time></trkpt><trkpt lat="45.101649168738746" lon="10.039489629841489"><ele>36.0</ele><time>2026-04-06T05:42:27.999Z</time></trkpt><trkpt lat="45.10159158514079" lon="10.039450732210717"><ele>36.0</ele><time>2026-04-06T05:42:28.999Z</time></trkpt><trkpt lat="45.101530352088815" lon="10.039417326157414"><ele>36.0</ele><time>2026-04-06T05:42:29.999Z</time></trkpt><trkpt lat="45.10147069756822" lon="10.03938560168067"><ele>36.0</ele><time>2026-04-06T05:42:30.999Z</time></trkpt><trkpt lat="45.10140781515401" lon="10.039347996950957"><ele>36.0</ele><time>2026-04-06T05:42:31.999Z</time></trkpt><trkpt lat="45.1013518603325" lon="10.039304046524979"><ele>36.142857142857146</ele><time>2026-04-06T05:42:32.999Z</time></trkpt><trkpt lat="45.1012923001617" lon="10.039266449907261"><ele>36.285714285714285</ele><time>2026-04-06T05:42:33.999Z</time></trkpt><trkpt lat="45.1012347564692" lon="10.039226481590354"><ele>36.42857142857143</ele><time>2026-04-06T05:42:34.999Z</time></trkpt><trkpt lat="45.10117450932144" lon="10.03919097486397"><ele>36.57142857142857</ele><time>2026-04-06T05:42:35.999Z</time></trkpt><trkpt lat="45.101116349538536" lon="10.039152487770384"><ele>36.714285714285715</ele><time>2026-04-06T05:42:37Z</time></trkpt><trkpt lat="45.10105480138646" lon="10.039123876042348"><ele>36.85714285714286</ele><time>2026-04-06T05:42:38Z</time></trkpt><trkpt lat="45.10099517997675" lon="10.039089564157047"><ele>37.0</ele><time>2026-04-06T05:42:39Z</time></trkpt><trkpt lat="45.100936212046456" lon="10.039054080390953"><ele>37.0</ele><time>2026-04-06T05:42:40Z</time></trkpt><trkpt lat="45.1008285958006" lon="10.038977118965091"><ele>37.0</ele><time>2026-04-06T05:42:42Z</time></trkpt><trkpt lat="45.10077073270263" lon="10.038940681055612"><ele>37.0</ele><time>2026-04-06T05:42:43Z</time></trkpt><trkpt lat="45.100655742945534" lon="10.038871520954057"><ele>37.0</ele><time>2026-04-06T05:42:45Z</time></trkpt><trkpt lat="45.100543359911384" lon="10.038798738906365"><ele>37.0</ele><time>2026-04-06T05:42:47Z</time></trkpt><trkpt lat="45.10042814860036" lon="10.038732954431595"><ele>37.2</ele><time>2026-04-06T05:42:49Z</time></trkpt><trkpt lat="45.10032286046753" lon="10.03866255230988"><ele>37.400000000000006</ele><time>2026-04-06T05:42:51Z</time></trkpt><trkpt lat="45.10022337083496" lon="10.03859243855039"><ele>37.599999999999994</ele><time>2026-04-06T05:42:53Z</time></trkpt><trkpt lat="45.10011600008745" lon="10.038505881790748"><ele>37.8</ele><time>2026-04-06T05:42:55Z</time></trkpt><trkpt lat="45.10005605899199" lon="10.038474175923948"><ele>38.0</ele><time>2026-04-06T05:42:56Z</time></trkpt><trkpt lat="45.099999879974135" lon="10.038422996307316"><ele>38.0</ele><time>2026-04-06T05:42:57Z</time></trkpt><trkpt lat="45.0999405528253" lon="10.038378117460633"><ele>38.0</ele><time>2026-04-06T05:42:58Z</time></trkpt><trkpt lat="45.0998828902111" lon="10.03832722439293"><ele>38.0</ele><time>2026-04-06T05:42:59Z</time></trkpt><trkpt lat="45.09982609600537" lon="10.03827762089119"><ele>38.0</ele><time>2026-04-06T05:43:00Z</time></trkpt><trkpt lat="45.099768990161024" lon="10.038227584056367"><ele>38.0</ele><time>2026-04-06T05:43:01Z</time></trkpt><trkpt lat="45.09971315155701" lon="10.038179333221132"><ele>38.0</ele><time>2026-04-06T05:43:02Z</time></trkpt><trkpt lat="45.09965709312113" lon="10.038129800512426"><ele>38.0</ele><time>2026-04-06T05:43:03Z</time></trkpt><trkpt lat="45.09959736606224" lon="10.038080020469351"><ele>37.714285714285715</ele><time>2026-04-06T05:43:04Z</time></trkpt><trkpt lat="45.09954149509136" lon="10.038033540197594"><ele>37.42857142857143</ele><time>2026-04-06T05:43:05Z</time></trkpt><trkpt lat="45.099481860593976" lon="10.037982642280182"><ele>37.142857142857146</ele><time>2026-04-06T05:43:06Z</time></trkpt><trkpt lat="45.099423949413705" lon="10.037923681162438"><ele>36.85714285714286</ele><time>2026-04-06T05:43:07Z</time></trkpt><trkpt lat="45.09936923539507" lon="10.037875409080018"><ele>36.57142857142857</ele><time>2026-04-06T05:43:08Z</time></trkpt><trkpt lat="45.09931429888099" lon="10.037825376004193"><ele>36.28571428571429</ele><time>2026-04-06T05:43:09Z</time></trkpt><trkpt lat="45.09925596358685" lon="10.037776740399012"><ele>36.0</ele><time>2026-04-06T05:43:10Z</time></trkpt><trkpt lat="45.09920110615089" lon="10.037725593356768"><ele>36.00000000000001</ele><time>2026-04-06T05:43:11Z</time></trkpt><trkpt lat="45.09914626898863" lon="10.037670752099379"><ele>36.0</ele><time>2026-04-06T05:43:12Z</time></trkpt><trkpt lat="45.09909602405168" lon="10.037615076091377"><ele>36.0</ele><time>2026-04-06T05:43:13Z</time></trkpt><trkpt lat="45.09904441732699" lon="10.037554331173165"><ele>36.0</ele><time>2026-04-06T05:43:14Z</time></trkpt><trkpt lat="45.09899331453901" lon="10.037493042634939"><ele>36.0</ele><time>2026-04-06T05:43:15Z</time></trkpt><trkpt lat="45.09894202051389" lon="10.037432162908821"><ele>36.00000000000001</ele><time>2026-04-06T05:43:16Z</time></trkpt><trkpt lat="45.09888907089941" lon="10.037373014773326"><ele>36.0</ele><time>2026-04-06T05:43:17Z</time></trkpt><trkpt lat="45.0988369327363" lon="10.03731371349141"><ele>35.714285714285715</ele><time>2026-04-06T05:43:18Z</time></trkpt><trkpt lat="45.09878554575876" lon="10.037254381302567"><ele>35.42857142857143</ele><time>2026-04-06T05:43:19Z</time></trkpt><trkpt lat="45.098733944480415" lon="10.037192203043483"><ele>35.14285714285714</ele><time>2026-04-06T05:43:20Z</time></trkpt><trkpt lat="45.09868520524758" lon="10.037131323301375"><ele>34.85714285714286</ele><time>2026-04-06T05:43:21Z</time></trkpt><trkpt lat="45.09863393434157" lon="10.037071508669142"><ele>34.57142857142857</ele><time>2026-04-06T05:43:22Z</time></trkpt><trkpt lat="45.098583279663515" lon="10.037014151148037"><ele>34.285714285714285</ele><time>2026-04-06T05:43:23Z</time></trkpt><trkpt lat="45.098528851595" lon="10.036958384967383"><ele>34.0</ele><time>2026-04-06T05:43:24Z</time></trkpt><trkpt lat="45.09847634846475" lon="10.036899128297131"><ele>34.0</ele><time>2026-04-06T05:43:25Z</time></trkpt><trkpt lat="45.09842453170107" lon="10.036841982197554"><ele>34.0</ele><time>2026-04-06T05:43:26Z</time></trkpt><trkpt lat="45.09836995521168" lon="10.036782240034755"><ele>34.0</ele><time>2026-04-06T05:43:27Z</time></trkpt><trkpt lat="45.09831465588613" lon="10.036730992303449"><ele>34.0</ele><time>2026-04-06T05:43:28Z</time></trkpt><trkpt lat="45.09825869388017" lon="10.036689755160115"><ele>34.0</ele><time>2026-04-06T05:43:29Z</time></trkpt><trkpt lat="45.09820170492794" lon="10.036647439862074"><ele>34.0</ele><time>2026-04-06T05:43:30Z</time></trkpt><trkpt lat="45.098087369969775" lon="10.036577098913115"><ele>34.8</ele><time>2026-04-06T05:43:32Z</time></trkpt><trkpt lat="45.097974694621406" lon="10.036504139204643"><ele>35.599999999999994</ele><time>2026-04-06T05:43:34Z</time></trkpt><trkpt lat="45.09786376524966" lon="10.036436743206972"><ele>36.4</ele><time>2026-04-06T05:43:36Z</time></trkpt><trkpt lat="45.097764049836904" lon="10.036336742241042"><ele>37.199999999999996</ele><time>2026-04-06T05:43:38Z</time></trkpt><trkpt lat="45.0977140773101" lon="10.036277930673714"><ele>38.0</ele><time>2026-04-06T05:43:39Z</time></trkpt><trkpt lat="45.097625735100976" lon="10.03615675939101"><ele>38.0</ele><time>2026-04-06T05:43:40.999Z</time></trkpt><trkpt lat="45.097581030270476" lon="10.036092473886242"><ele>38.0</ele><time>2026-04-06T05:43:41.999Z</time></trkpt><trkpt lat="45.09749086926266" lon="10.035966571934898"><ele>38.0</ele><time>2026-04-06T05:43:43.999Z</time></trkpt><trkpt lat="45.097444532048925" lon="10.035899012472923"><ele>38.0</ele><time>2026-04-06T05:43:44.999Z</time></trkpt><trkpt lat="45.097363240422055" lon="10.035766041956597"><ele>38.0</ele><time>2026-04-06T05:43:46.999Z</time></trkpt><trkpt lat="45.09732366432512" lon="10.035691365239625"><ele>38.0</ele><time>2026-04-06T05:43:47.999Z</time></trkpt><trkpt lat="45.09725464755416" lon="10.035550702023496"><ele>37.4</ele><time>2026-04-06T05:43:49.999Z</time></trkpt><trkpt lat="45.0971938873692" lon="10.035412967747323"><ele>36.8</ele><time>2026-04-06T05:43:51.999Z</time></trkpt><trkpt lat="45.097138332724946" lon="10.035284001855997"><ele>36.2</ele><time>2026-04-06T05:43:53.999Z</time></trkpt><trkpt lat="45.097090581187345" lon="10.035163253199478"><ele>35.6</ele><time>2026-04-06T05:43:55.999Z</time></trkpt><trkpt lat="45.09705723266948" lon="10.035069578593896"><ele>35.0</ele><time>2026-04-06T05:43:57.999Z</time></trkpt><trkpt lat="45.09715528596185" lon="10.034971978991942"><ele>35.2</ele><time>2026-04-06T05:44:01.999Z</time></trkpt><trkpt lat="45.09724479789371" lon="10.034965436118586"><ele>35.4</ele><time>2026-04-06T05:44:03.999Z</time></trkpt><trkpt lat="45.09734348103355" lon="10.03494891311756"><ele>35.6</ele><time>2026-04-06T05:44:05.999Z</time></trkpt><trkpt lat="45.09744119114534" lon="10.034943128010676"><ele>35.8</ele><time>2026-04-06T05:44:07.999Z</time></trkpt><trkpt lat="45.09755042004385" lon="10.034929026480532"><ele>36.0</ele><time>2026-04-06T05:44:09.999Z</time></trkpt><trkpt lat="45.097663705429696" lon="10.034917995658796"><ele>36.0</ele><time>2026-04-06T05:44:11.999Z</time></trkpt><trkpt lat="45.09777828217637" lon="10.03490631722332"><ele>36.0</ele><time>2026-04-06T05:44:13.999Z</time></trkpt><trkpt lat="45.097890625877085" lon="10.034865982437086"><ele>36.0</ele><time>2026-04-06T05:44:15.999Z</time></trkpt><trkpt lat="45.0980062054334" lon="10.034851760479244"><ele>36.0</ele><time>2026-04-06T05:44:17.999Z</time></trkpt><trkpt lat="45.09812501655108" lon="10.034864710364522"><ele>36.0</ele><time>2026-04-06T05:44:19.999Z</time></trkpt><trkpt lat="45.0982455853286" lon="10.034846699315143"><ele>36.0</ele><time>2026-04-06T05:44:21.999Z</time></trkpt><trkpt lat="45.09836376340289" lon="10.034832525096771"><ele>36.0</ele><time>2026-04-06T05:44:23.999Z</time></trkpt><trkpt lat="45.098483102080316" lon="10.03481495638963"><ele>36.0</ele><time>2026-04-06T05:44:25.999Z</time></trkpt><trkpt lat="45.09860331589572" lon="10.03479085532344"><ele>35.25</ele><time>2026-04-06T05:44:27.999Z</time></trkpt><trkpt lat="45.098726921877365" lon="10.034769231508605"><ele>34.5</ele><time>2026-04-06T05:44:29.999Z</time></trkpt><trkpt lat="45.09884900479394" lon="10.03474820233421"><ele>33.75</ele><time>2026-04-06T05:44:31.999Z</time></trkpt><trkpt lat="45.09896882814605" lon="10.034729319640263"><ele>33.0</ele><time>2026-04-06T05:44:33.999Z</time></trkpt><trkpt lat="45.09908909339212" lon="10.034706182297564"><ele>32.5</ele><time>2026-04-06T05:44:35.999Z</time></trkpt><trkpt lat="45.09921080050493" lon="10.034689954307348"><ele>32.0</ele><time>2026-04-06T05:44:37.999Z</time></trkpt><trkpt lat="45.09933229128697" lon="10.034672631073212"><ele>31.5</ele><time>2026-04-06T05:44:39.999Z</time></trkpt><trkpt lat="45.09945579841089" lon="10.034654537159902"><ele>31.0</ele><time>2026-04-06T05:44:41.998Z</time></trkpt><trkpt lat="45.09957620892767" lon="10.034636432917996"><ele>31.0</ele><time>2026-04-06T05:44:44Z</time></trkpt><trkpt lat="45.09969657524879" lon="10.03461665142357"><ele>31.0</ele><time>2026-04-06T05:44:46Z</time></trkpt><trkpt lat="45.099813737553234" lon="10.034572717025691"><ele>31.0</ele><time>2026-04-06T05:44:48Z</time></trkpt><trkpt lat="45.09992616347045" lon="10.03449497910518"><ele>31.0</ele><time>2026-04-06T05:44:50Z</time></trkpt><trkpt lat="45.10004001528089" lon="10.034423621964823"><ele>31.25</ele><time>2026-04-06T05:44:52Z</time></trkpt><trkpt lat="45.10009825569814" lon="10.034386802037558"><ele>31.5</ele><time>2026-04-06T05:44:53Z</time></trkpt><trkpt lat="45.10015819183855" lon="10.03435081848257"><ele>31.75</ele><time>2026-04-06T05:44:54Z</time></trkpt><trkpt lat="45.10021553938068" lon="10.034313102977434"><ele>32.0</ele><time>2026-04-06T05:44:55Z</time></trkpt><trkpt lat="45.10027458235885" lon="10.034276274927286"><ele>32.25</ele><time>2026-04-06T05:44:56Z</time></trkpt><trkpt lat="45.100333267776755" lon="10.034242365168677"><ele>32.5</ele><time>2026-04-06T05:44:57Z</time></trkpt><trkpt lat="45.10039316533236" lon="10.034206861095837"><ele>32.75</ele><time>2026-04-06T05:44:58Z</time></trkpt><trkpt lat="45.10045130822032" lon="10.034169698229782"><ele>33.0</ele><time>2026-04-06T05:44:59Z</time></trkpt><trkpt lat="45.10051089664636" lon="10.034133689302323"><ele>33.0</ele><time>2026-04-06T05:45:00Z</time></trkpt><trkpt lat="45.10056939927955" lon="10.034095659120702"><ele>33.0</ele><time>2026-04-06T05:45:01Z</time></trkpt><trkpt lat="45.1006844092897" lon="10.0340221059484"><ele>33.0</ele><time>2026-04-06T05:45:03Z</time></trkpt><trkpt lat="45.10079988676054" lon="10.033951503107126"><ele>33.0</ele><time>2026-04-06T05:45:05Z</time></trkpt><trkpt lat="45.100858553992936" lon="10.033914299110334"><ele>33.0</ele><time>2026-04-06T05:45:06Z</time></trkpt><trkpt lat="45.10097200034509" lon="10.03384160479543"><ele>33.0</ele><time>2026-04-06T05:45:08Z</time></trkpt><trkpt lat="45.10108691148011" lon="10.033771722821275"><ele>33.0</ele><time>2026-04-06T05:45:10Z</time></trkpt><trkpt lat="45.10114491752971" lon="10.03373554539581"><ele>33.0</ele><time>2026-04-06T05:45:11Z</time></trkpt><trkpt lat="45.10125987805103" lon="10.033663858199583"><ele>33.0</ele><time>2026-04-06T05:45:13Z</time></trkpt><trkpt lat="45.1013184890356" lon="10.03362790661605"><ele>33.0</ele><time>2026-04-06T05:45:14Z</time></trkpt><trkpt lat="45.101432554571325" lon="10.033556374410912"><ele>33.0</ele><time>2026-04-06T05:45:16Z</time></trkpt><trkpt lat="45.10154832889095" lon="10.033485977277794"><ele>33.0</ele><time>2026-04-06T05:45:18Z</time></trkpt><trkpt lat="45.101664574586884" lon="10.033416782502506"><ele>33.0</ele><time>2026-04-06T05:45:20Z</time></trkpt><trkpt lat="45.10172293725921" lon="10.033380773439289"><ele>33.0</ele><time>2026-04-06T05:45:21Z</time></trkpt><trkpt lat="45.101837907280334" lon="10.033311680737743"><ele>33.0</ele><time>2026-04-06T05:45:23Z</time></trkpt><trkpt lat="45.10189630614084" lon="10.033275802710696"><ele>33.0</ele><time>2026-04-06T05:45:24Z</time></trkpt><trkpt lat="45.102010607497405" lon="10.033202799266938"><ele>33.0</ele><time>2026-04-06T05:45:26Z</time></trkpt><trkpt lat="45.102068900404745" lon="10.03316547059121"><ele>33.0</ele><time>2026-04-06T05:45:27Z</time></trkpt><trkpt lat="45.10212511614131" lon="10.033122915150088"><ele>33.0</ele><time>2026-04-06T05:45:28Z</time></trkpt><trkpt lat="45.10217864365224" lon="10.033074883435981"><ele>33.0</ele><time>2026-04-06T05:45:29Z</time></trkpt><trkpt lat="45.10223079952991" lon="10.03302387847289"><ele>33.0</ele><time>2026-04-06T05:45:30Z</time></trkpt><trkpt lat="45.10228203806008" lon="10.032969481537574"><ele>33.0</ele><time>2026-04-06T05:45:31Z</time></trkpt><trkpt lat="45.102330136120706" lon="10.032911392470188"><ele>33.0</ele><time>2026-04-06T05:45:32Z</time></trkpt><trkpt lat="45.1023763284073" lon="10.032847583878246"><ele>33.0</ele><time>2026-04-06T05:45:33Z</time></trkpt><trkpt lat="45.102421223277226" lon="10.032780258427914"><ele>33.0</ele><time>2026-04-06T05:45:34Z</time></trkpt><trkpt lat="45.10250649075915" lon="10.032644532297233"><ele>33.0</ele><time>2026-04-06T05:45:36Z</time></trkpt><trkpt lat="45.10259164027178" lon="10.03251247924275"><ele>33.0</ele><time>2026-04-06T05:45:38Z</time></trkpt><trkpt lat="45.10263342072083" lon="10.032445597938294"><ele>33.0</ele><time>2026-04-06T05:45:39Z</time></trkpt><trkpt lat="45.10268689174005" lon="10.032393475698223"><ele>33.14285714285714</ele><time>2026-04-06T05:45:40Z</time></trkpt><trkpt lat="45.10272921814947" lon="10.032326881544915"><ele>33.285714285714285</ele><time>2026-04-06T05:45:41Z</time></trkpt><trkpt lat="45.1027601816697" lon="10.03224543732764"><ele>33.42857142857143</ele><time>2026-04-06T05:45:42Z</time></trkpt><trkpt lat="45.10281371369318" lon="10.032193597477413"><ele>33.57142857142857</ele><time>2026-04-06T05:45:43Z</time></trkpt><trkpt lat="45.10285567200565" lon="10.032126880176342"><ele>33.714285714285715</ele><time>2026-04-06T05:45:44Z</time></trkpt><trkpt lat="45.1028974629945" lon="10.032060170395086"><ele>33.857142857142854</ele><time>2026-04-06T05:45:44.999Z</time></trkpt><trkpt lat="45.102973818980395" lon="10.0319163311145"><ele>34.0</ele><time>2026-04-06T05:45:46.999Z</time></trkpt><trkpt lat="45.103009960462344" lon="10.031843292798357"><ele>34.0</ele><time>2026-04-06T05:45:47.999Z</time></trkpt><trkpt lat="45.10304693477353" lon="10.031770261285464"><ele>34.0</ele><time>2026-04-06T05:45:48.999Z</time></trkpt><trkpt lat="45.10313009208732" lon="10.03163228216127"><ele>34.0</ele><time>2026-04-06T05:45:50.999Z</time></trkpt><trkpt lat="45.10317239820705" lon="10.031564493988226"><ele>34.0</ele><time>2026-04-06T05:45:51.999Z</time></trkpt><trkpt lat="45.10320382981749" lon="10.031479251214947"><ele>34.0</ele><time>2026-04-06T05:45:52.999Z</time></trkpt><trkpt lat="45.10324813081723" lon="10.031405626465114"><ele>34.0</ele><time>2026-04-06T05:45:53.999Z</time></trkpt><trkpt lat="45.10329140826176" lon="10.031329268340897"><ele>34.285714285714285</ele><time>2026-04-06T05:45:54.999Z</time></trkpt><trkpt lat="45.103336175114194" lon="10.0312516720568"><ele>34.57142857142857</ele><time>2026-04-06T05:45:55.999Z</time></trkpt><trkpt lat="45.10338101022388" lon="10.031174792665613"><ele>34.85714285714286</ele><time>2026-04-06T05:45:56.999Z</time></trkpt><trkpt lat="45.10342503197819" lon="10.0310928662257"><ele>35.14285714285714</ele><time>2026-04-06T05:45:57.999Z</time></trkpt><trkpt lat="45.10346997593838" lon="10.031009163794437"><ele>35.42857142857143</ele><time>2026-04-06T05:45:58.999Z</time></trkpt><trkpt lat="45.10353290072939" lon="10.030941576375474"><ele>35.714285714285715</ele><time>2026-04-06T05:45:59.999Z</time></trkpt><trkpt lat="45.1035836566508" lon="10.030866685235102"><ele>36.0</ele><time>2026-04-06T05:46:00.999Z</time></trkpt><trkpt lat="45.103641744251554" lon="10.030801592842602"><ele>36.666666666666664</ele><time>2026-04-06T05:46:01.999Z</time></trkpt><trkpt lat="45.10370609090775" lon="10.030747709080433"><ele>37.333333333333336</ele><time>2026-04-06T05:46:02.999Z</time></trkpt><trkpt lat="45.103777504139096" lon="10.030691635847242"><ele>38.0</ele><time>2026-04-06T05:46:03.999Z</time></trkpt><trkpt lat="45.103845613386746" lon="10.030637227460387"><ele>38.66666666666667</ele><time>2026-04-06T05:46:04.999Z</time></trkpt><trkpt lat="45.1039101012401" lon="10.030584819941248"><ele>39.333333333333336</ele><time>2026-04-06T05:46:05.999Z</time></trkpt><trkpt lat="45.10397588065095" lon="10.03052912422636"><ele>40.0</ele><time>2026-04-06T05:46:06.999Z</time></trkpt><trkpt lat="45.1040395367064" lon="10.030465148292945"><ele>39.714285714285715</ele><time>2026-04-06T05:46:07.999Z</time></trkpt><trkpt lat="45.10410014792794" lon="10.030397097365272"><ele>39.42857142857143</ele><time>2026-04-06T05:46:08.999Z</time></trkpt><trkpt lat="45.10414812765657" lon="10.03033602946192"><ele>39.14285714285714</ele><time>2026-04-06T05:46:09.999Z</time></trkpt><trkpt lat="45.10419932723152" lon="10.03026936243647"><ele>38.85714285714286</ele><time>2026-04-06T05:46:10.999Z</time></trkpt><trkpt lat="45.10424299819723" lon="10.03020481369436"><ele>38.57142857142858</ele><time>2026-04-06T05:46:11.999Z</time></trkpt><trkpt lat="45.10426631309301" lon="10.03011897969164"><ele>38.285714285714285</ele><time>2026-04-06T05:46:12.999Z</time></trkpt><trkpt lat="45.10427252800313" lon="10.030016497388585"><ele>38.0</ele><time>2026-04-06T05:46:13.999Z</time></trkpt><trkpt lat="45.10427739279042" lon="10.02991905951775"><ele>38.0</ele><time>2026-04-06T05:46:14.999Z</time></trkpt><trkpt lat="45.10427248670553" lon="10.029827301636798"><ele>38.0</ele><time>2026-04-06T05:46:15.999Z</time></trkpt><trkpt lat="45.10426897317632" lon="10.0297372751106"><ele>38.0</ele><time>2026-04-06T05:46:16.999Z</time></trkpt><trkpt lat="45.104267605280256" lon="10.02964606765454"><ele>38.0</ele><time>2026-04-06T05:46:17.999Z</time></trkpt><trkpt lat="45.10426782866843" lon="10.0294684719137"><ele>38.0</ele><time>2026-04-06T05:46:19.999Z</time></trkpt><trkpt lat="45.10431037328032" lon="10.029317586887194"><ele>38.0</ele><time>2026-04-06T05:46:21.999Z</time></trkpt><trkpt lat="45.104347019036595" lon="10.029166789714502"><ele>37.75</ele><time>2026-04-06T05:46:23.999Z</time></trkpt><trkpt lat="45.104366450769916" lon="10.029015280093672"><ele>37.5</ele><time>2026-04-06T05:46:25.999Z</time></trkpt><trkpt lat="45.10443709251598" lon="10.028890479307996"><ele>37.25</ele><time>2026-04-06T05:46:27.999Z</time></trkpt><trkpt lat="45.10453117449111" lon="10.028802344034"><ele>37.0</ele><time>2026-04-06T05:46:29.999Z</time></trkpt><trkpt lat="45.10465134620565" lon="10.028769636990692"><ele>37.0</ele><time>2026-04-06T05:46:31.999Z</time></trkpt><trkpt lat="45.104755146772156" lon="10.028683124501566"><ele>37.0</ele><time>2026-04-06T05:46:33.999Z</time></trkpt><trkpt lat="45.10481136474637" lon="10.02863892269764"><ele>37.0</ele><time>2026-04-06T05:46:34.999Z</time></trkpt><trkpt lat="45.104866912362475" lon="10.02859626049367"><ele>37.0</ele><time>2026-04-06T05:46:35.999Z</time></trkpt><trkpt lat="45.10497582975557" lon="10.028516631665958"><ele>37.0</ele><time>2026-04-06T05:46:37.999Z</time></trkpt><trkpt lat="45.10503310578975" lon="10.028478651126289"><ele>37.0</ele><time>2026-04-06T05:46:38.999Z</time></trkpt><trkpt lat="45.105074576066386" lon="10.02839335520571"><ele>36.6</ele><time>2026-04-06T05:46:39.999Z</time></trkpt><trkpt lat="45.10513559690033" lon="10.02836412583262"><ele>36.2</ele><time>2026-04-06T05:46:40.999Z</time></trkpt><trkpt lat="45.105265012154476" lon="10.028344713931675"><ele>35.8</ele><time>2026-04-06T05:46:42.999Z</time></trkpt><trkpt lat="45.10532567218589" lon="10.02831218047161"><ele>35.4</ele><time>2026-04-06T05:46:43.999Z</time></trkpt><trkpt lat="45.10544460713498" lon="10.028248392712765"><ele>35.0</ele><time>2026-04-06T05:46:45.999Z</time></trkpt><trkpt lat="45.105505969121474" lon="10.028215482737222"><ele>34.75</ele><time>2026-04-06T05:46:46.999Z</time></trkpt><trkpt lat="45.105565760642556" lon="10.028183415044628"><ele>34.5</ele><time>2026-04-06T05:46:47.999Z</time></trkpt><trkpt lat="45.10562569526759" lon="10.028152329285117"><ele>34.25</ele><time>2026-04-06T05:46:49Z</time></trkpt><trkpt lat="45.105685831888515" lon="10.028121602943749"><ele>34.0</ele><time>2026-04-06T05:46:50Z</time></trkpt><trkpt lat="45.10574594409677" lon="10.02809273003928"><ele>33.75</ele><time>2026-04-06T05:46:51Z</time></trkpt><trkpt lat="45.105806532069344" lon="10.028063725192085"><ele>33.5</ele><time>2026-04-06T05:46:52Z</time></trkpt><trkpt lat="45.1058675073593" lon="10.028037787069604"><ele>33.25</ele><time>2026-04-06T05:46:53Z</time></trkpt><trkpt lat="45.10592866198766" lon="10.028014369385819"><ele>33.0</ele><time>2026-04-06T05:46:54Z</time></trkpt><trkpt lat="45.106051498364494" lon="10.02798606619067"><ele>33.0</ele><time>2026-04-06T05:46:56Z</time></trkpt><trkpt lat="45.10617435596927" lon="10.027979390833902"><ele>33.0</ele><time>2026-04-06T05:46:58Z</time></trkpt><trkpt lat="45.10623953077296" lon="10.027981362445848"><ele>33.0</ele><time>2026-04-06T05:46:59Z</time></trkpt><trkpt lat="45.10630401939366" lon="10.027983313300009"><ele>33.0</ele><time>2026-04-06T05:47:00Z</time></trkpt><trkpt lat="45.10636748814054" lon="10.027985567160018"><ele>33.0</ele><time>2026-04-06T05:47:01Z</time></trkpt><trkpt lat="45.106431987631964" lon="10.027988541893787"><ele>33.0</ele><time>2026-04-06T05:47:02Z</time></trkpt><trkpt lat="45.10649612768366" lon="10.027991500051847"><ele>33.0</ele><time>2026-04-06T05:47:03Z</time></trkpt><trkpt lat="45.1065607314374" lon="10.027994479601206"><ele>33.285714285714285</ele><time>2026-04-06T05:47:04Z</time></trkpt><trkpt lat="45.10662525848931" lon="10.027997455594809"><ele>33.57142857142857</ele><time>2026-04-06T05:47:05Z</time></trkpt><trkpt lat="45.10668866414544" lon="10.028000229812857"><ele>33.85714285714286</ele><time>2026-04-06T05:47:06Z</time></trkpt><trkpt lat="45.10675257227634" lon="10.028002728406328"><ele>34.14285714285714</ele><time>2026-04-06T05:47:07Z</time></trkpt><trkpt lat="45.10681801341454" lon="10.0280052869472"><ele>34.42857142857143</ele><time>2026-04-06T05:47:08Z</time></trkpt><trkpt lat="45.106883884361686" lon="10.028007862274917"><ele>34.714285714285715</ele><time>2026-04-06T05:47:09Z</time></trkpt><trkpt lat="45.106950213567885" lon="10.02801045552239"><ele>35.0</ele><time>2026-04-06T05:47:10Z</time></trkpt><trkpt lat="45.10701533306202" lon="10.028013001484782"><ele>35.0</ele><time>2026-04-06T05:47:11Z</time></trkpt><trkpt lat="45.107081835936775" lon="10.028015586121358"><ele>35.0</ele><time>2026-04-06T05:47:12Z</time></trkpt><trkpt lat="45.10714684981535" lon="10.028017703773108"><ele>35.0</ele><time>2026-04-06T05:47:13Z</time></trkpt><trkpt lat="45.10721372868065" lon="10.02801988217099"><ele>35.0</ele><time>2026-04-06T05:47:14Z</time></trkpt><trkpt lat="45.107279085108914" lon="10.028022010979925"><ele>35.0</ele><time>2026-04-06T05:47:15Z</time></trkpt><trkpt lat="45.10734515909374" lon="10.028024163161643"><ele>35.0</ele><time>2026-04-06T05:47:16Z</time></trkpt><trkpt lat="45.107411210410866" lon="10.028026294018469"><ele>35.0</ele><time>2026-04-06T05:47:17Z</time></trkpt><trkpt lat="45.10747518414787" lon="10.028027997086737"><ele>34.57142857142857</ele><time>2026-04-06T05:47:18Z</time></trkpt><trkpt lat="45.10754115996667" lon="10.02802975345161"><ele>34.14285714285714</ele><time>2026-04-06T05:47:19Z</time></trkpt><trkpt lat="45.107605854988776" lon="10.028031475720363"><ele>33.714285714285715</ele><time>2026-04-06T05:47:20Z</time></trkpt><trkpt lat="45.10767121577544" lon="10.028033215713055"><ele>33.285714285714285</ele><time>2026-04-06T05:47:21Z</time></trkpt><trkpt lat="45.10773645729322" lon="10.028034952530323"><ele>32.857142857142854</ele><time>2026-04-06T05:47:22Z</time></trkpt><trkpt lat="45.107801145243" lon="10.02803667461132"><ele>32.42857142857143</ele><time>2026-04-06T05:47:23Z</time></trkpt><trkpt lat="45.10786567577076" lon="10.0280383925019"><ele>32.0</ele><time>2026-04-06T05:47:24Z</time></trkpt><trkpt lat="45.107930370333335" lon="10.028040114758255"><ele>32.0</ele><time>2026-04-06T05:47:25Z</time></trkpt><trkpt lat="45.10799656561173" lon="10.0280418769657"><ele>31.999999999999996</ele><time>2026-04-06T05:47:26Z</time></trkpt><trkpt lat="45.10806133041816" lon="10.028043601092529"><ele>32.0</ele><time>2026-04-06T05:47:27Z</time></trkpt><trkpt lat="45.10812786190096" lon="10.028045175849698"><ele>32.0</ele><time>2026-04-06T05:47:28Z</time></trkpt><trkpt lat="45.108192126993636" lon="10.028045971512624"><ele>31.999999999999996</ele><time>2026-04-06T05:47:29Z</time></trkpt><trkpt lat="45.108258508277636" lon="10.028045110956752"><ele>32.0</ele><time>2026-04-06T05:47:30Z</time></trkpt><trkpt lat="45.10832389990908" lon="10.028042959414336"><ele>32.0</ele><time>2026-04-06T05:47:31Z</time></trkpt><trkpt lat="45.10839083771597" lon="10.028038650627867"><ele>32.14285714285714</ele><time>2026-04-06T05:47:32Z</time></trkpt><trkpt lat="45.10845733164492" lon="10.028027824363901"><ele>32.285714285714285</ele><time>2026-04-06T05:47:33Z</time></trkpt><trkpt lat="45.1085224141157" lon="10.028013913188765"><ele>32.42857142857143</ele><time>2026-04-06T05:47:34Z</time></trkpt><trkpt lat="45.10858970847361" lon="10.027997641618114"><ele>32.57142857142857</ele><time>2026-04-06T05:47:35Z</time></trkpt><trkpt lat="45.108655250948765" lon="10.027980126702397"><ele>32.714285714285715</ele><time>2026-04-06T05:47:36Z</time></trkpt><trkpt lat="45.108719943606985" lon="10.027960546127302"><ele>32.857142857142854</ele><time>2026-04-06T05:47:37Z</time></trkpt><trkpt lat="45.10878491003222" lon="10.027940882699335"><ele>33.0</ele><time>2026-04-06T05:47:38Z</time></trkpt><trkpt lat="45.10884973443418" lon="10.027920938988215"><ele>33.0</ele><time>2026-04-06T05:47:39Z</time></trkpt><trkpt lat="45.10891272735787" lon="10.02790108288063"><ele>33.0</ele><time>2026-04-06T05:47:40Z</time></trkpt><trkpt lat="45.1089780888792" lon="10.02788048016358"><ele>33.0</ele><time>2026-04-06T05:47:41Z</time></trkpt><trkpt lat="45.10904193353271" lon="10.027859858181674"><ele>33.0</ele><time>2026-04-06T05:47:42Z</time></trkpt><trkpt lat="45.109106162378694" lon="10.0278384071395"><ele>33.0</ele><time>2026-04-06T05:47:43Z</time></trkpt><trkpt lat="45.109170075188146" lon="10.027817061645845"><ele>33.0</ele><time>2026-04-06T05:47:44Z</time></trkpt><trkpt lat="45.1092341483217" lon="10.027795662607017"><ele>33.0</ele><time>2026-04-06T05:47:45Z</time></trkpt><trkpt lat="45.10929835283282" lon="10.027774219692386"><ele>32.857142857142854</ele><time>2026-04-06T05:47:46Z</time></trkpt><trkpt lat="45.109362308912615" lon="10.027752859744105"><ele>32.714285714285715</ele><time>2026-04-06T05:47:47Z</time></trkpt><trkpt lat="45.109426331398126" lon="10.02773147762388"><ele>32.57142857142857</ele><time>2026-04-06T05:47:48Z</time></trkpt><trkpt lat="45.10948954200611" lon="10.027710366651194"><ele>32.42857142857143</ele><time>2026-04-06T05:47:49Z</time></trkpt><trkpt lat="45.10955439909426" lon="10.02768870578788"><ele>32.285714285714285</ele><time>2026-04-06T05:47:49.999Z</time></trkpt><trkpt lat="45.10961959793331" lon="10.02766693079329"><ele>32.14285714285714</ele><time>2026-04-06T05:47:50.999Z</time></trkpt><trkpt lat="45.10968160827867" lon="10.027646220678186"><ele>32.0</ele><time>2026-04-06T05:47:51.999Z</time></trkpt><trkpt lat="45.10974623662133" lon="10.027624636213275"><ele>32.0</ele><time>2026-04-06T05:47:52.999Z</time></trkpt><trkpt lat="45.109810159096284" lon="10.027603182804889"><ele>31.999999999999996</ele><time>2026-04-06T05:47:53.999Z</time></trkpt><trkpt lat="45.10987452545045" lon="10.027581338472189"><ele>32.0</ele><time>2026-04-06T05:47:54.999Z</time></trkpt><trkpt lat="45.10993724364669" lon="10.027560053484812"><ele>32.0</ele><time>2026-04-06T05:47:55.999Z</time></trkpt><trkpt lat="45.110001542745735" lon="10.02753823197609"><ele>31.999999999999996</ele><time>2026-04-06T05:47:56.999Z</time></trkpt><trkpt lat="45.11006517826116" lon="10.027516635674614"><ele>32.0</ele><time>2026-04-06T05:47:57.999Z</time></trkpt><trkpt lat="45.11012979944972" lon="10.027494136065295"><ele>32.0</ele><time>2026-04-06T05:47:58.999Z</time></trkpt><trkpt lat="45.11019259927305" lon="10.027470928124801"><ele>32.14285714285714</ele><time>2026-04-06T05:47:59.999Z</time></trkpt><trkpt lat="45.11025657214667" lon="10.02744728667535"><ele>32.285714285714285</ele><time>2026-04-06T05:48:00.999Z</time></trkpt><trkpt lat="45.110319964359775" lon="10.027423683684479"><ele>32.42857142857143</ele><time>2026-04-06T05:48:01.999Z</time></trkpt><trkpt lat="45.11038328090918" lon="10.027399052084439"><ele>32.57142857142857</ele><time>2026-04-06T05:48:02.999Z</time></trkpt><trkpt lat="45.11044671585408" lon="10.027374374422369"><ele>32.714285714285715</ele><time>2026-04-06T05:48:03.999Z</time></trkpt><trkpt lat="45.11051132662954" lon="10.027349239336143"><ele>32.857142857142854</ele><time>2026-04-06T05:48:04.999Z</time></trkpt><trkpt lat="45.11057504320522" lon="10.027324452109651"><ele>33.0</ele><time>2026-04-06T05:48:05.999Z</time></trkpt><trkpt lat="45.11063885724817" lon="10.027298436859862"><ele>33.0</ele><time>2026-04-06T05:48:06.999Z</time></trkpt><trkpt lat="45.11069745006322" lon="10.027248543010373"><ele>33.0</ele><time>2026-04-06T05:48:07.999Z</time></trkpt><trkpt lat="45.110765147226864" lon="10.027242498120756"><ele>33.0</ele><time>2026-04-06T05:48:08.999Z</time></trkpt><trkpt lat="45.110828876404206" lon="10.027211970285563"><ele>33.0</ele><time>2026-04-06T05:48:09.999Z</time></trkpt><trkpt lat="45.110889212696925" lon="10.027181787564238"><ele>33.0</ele><time>2026-04-06T05:48:10.999Z</time></trkpt><trkpt lat="45.11095165728757" lon="10.027149623038342"><ele>33.0</ele><time>2026-04-06T05:48:11.999Z</time></trkpt><trkpt lat="45.11101207748392" lon="10.027118394262775"><ele>33.0</ele><time>2026-04-06T05:48:12.999Z</time></trkpt><trkpt lat="45.111074637578405" lon="10.027085474489184"><ele>33.285714285714285</ele><time>2026-04-06T05:48:13.999Z</time></trkpt><trkpt lat="45.11113484854563" lon="10.027053790843507"><ele>33.57142857142857</ele><time>2026-04-06T05:48:14.999Z</time></trkpt><trkpt lat="45.11119593984325" lon="10.027021643965858"><ele>33.85714285714286</ele><time>2026-04-06T05:48:15.999Z</time></trkpt><trkpt lat="45.11125724685633" lon="10.026989327331936"><ele>34.14285714285714</ele><time>2026-04-06T05:48:16.999Z</time></trkpt><trkpt lat="45.11131894438299" lon="10.026956134974593"><ele>34.42857142857143</ele><time>2026-04-06T05:48:17.999Z</time></trkpt><trkpt lat="45.1113788739599" lon="10.026923893768334"><ele>34.714285714285715</ele><time>2026-04-06T05:48:18.999Z</time></trkpt><trkpt lat="45.1114388664176" lon="10.026891618724811"><ele>35.0</ele><time>2026-04-06T05:48:19.999Z</time></trkpt><trkpt lat="45.111498901109385" lon="10.026859320958662"><ele>35.0</ele><time>2026-04-06T05:48:20.999Z</time></trkpt><trkpt lat="45.1115580273412" lon="10.026827511926962"><ele>35.0</ele><time>2026-04-06T05:48:21.999Z</time></trkpt><trkpt lat="45.11161823418642" lon="10.026794550620693"><ele>35.0</ele><time>2026-04-06T05:48:22.999Z</time></trkpt><trkpt lat="45.111679031938145" lon="10.026761253624395"><ele>35.0</ele><time>2026-04-06T05:48:23.999Z</time></trkpt><trkpt lat="45.11173921720536" lon="10.026728293871544"><ele>35.0</ele><time>2026-04-06T05:48:24.999Z</time></trkpt><trkpt lat="45.11179950775739" lon="10.026695303497863"><ele>35.0</ele><time>2026-04-06T05:48:25.999Z</time></trkpt><trkpt lat="45.11185948182668" lon="10.026661660959292"><ele>35.0</ele><time>2026-04-06T05:48:26.999Z</time></trkpt><trkpt lat="45.111919379603435" lon="10.026628061227637"><ele>34.57142857142857</ele><time>2026-04-06T05:48:27.999Z</time></trkpt><trkpt lat="45.11197976518413" lon="10.026594187849746"><ele>34.14285714285714</ele><time>2026-04-06T05:48:28.999Z</time></trkpt><trkpt lat="45.112039809334654" lon="10.026560506005953"><ele>33.714285714285715</ele><time>2026-04-06T05:48:29.999Z</time></trkpt><trkpt lat="45.11210025396393" lon="10.026526599500208"><ele>33.285714285714285</ele><time>2026-04-06T05:48:30.999Z</time></trkpt><trkpt lat="45.112160665832036" lon="10.026492711372288"><ele>32.857142857142854</ele><time>2026-04-06T05:48:31.999Z</time></trkpt><trkpt lat="45.11222140681776" lon="10.026458638629888"><ele>32.42857142857143</ele><time>2026-04-06T05:48:32.999Z</time></trkpt><trkpt lat="45.11228171139445" lon="10.026424810703777"><ele>32.0</ele><time>2026-04-06T05:48:33.999Z</time></trkpt><trkpt lat="45.11234148908236" lon="10.026392001021794"><ele>32.0</ele><time>2026-04-06T05:48:34.999Z</time></trkpt><trkpt lat="45.11240262701196" lon="10.02635895582385"><ele>31.999999999999996</ele><time>2026-04-06T05:48:35.999Z</time></trkpt><trkpt lat="45.11246261910767" lon="10.02632652998"><ele>32.0</ele><time>2026-04-06T05:48:36.999Z</time></trkpt><trkpt lat="45.11252387694344" lon="10.026293420010578"><ele>32.0</ele><time>2026-04-06T05:48:37.999Z</time></trkpt><trkpt lat="45.11258367955032" lon="10.0262636339544"><ele>31.999999999999996</ele><time>2026-04-06T05:48:38.999Z</time></trkpt><trkpt lat="45.11264342798346" lon="10.026235115091042"><ele>32.0</ele><time>2026-04-06T05:48:39.999Z</time></trkpt><trkpt lat="45.112704638295995" lon="10.026207946474031"><ele>32.0</ele><time>2026-04-06T05:48:40.999Z</time></trkpt><trkpt lat="45.112826675426156" lon="10.026162153634695"><ele>32.0</ele><time>2026-04-06T05:48:42.999Z</time></trkpt><trkpt lat="45.112890213689525" lon="10.026140129550962"><ele>31.999999999999996</ele><time>2026-04-06T05:48:43.999Z</time></trkpt><trkpt lat="45.11295334059715" lon="10.026118220202948"><ele>32.0</ele><time>2026-04-06T05:48:44.999Z</time></trkpt><trkpt lat="45.113016399578925" lon="10.026096334443595"><ele>32.0</ele><time>2026-04-06T05:48:45.999Z</time></trkpt><trkpt lat="45.11307967897489" lon="10.026075619540848"><ele>31.999999999999996</ele><time>2026-04-06T05:48:46.999Z</time></trkpt><trkpt lat="45.113142289109476" lon="10.026055094583075"><ele>32.0</ele><time>2026-04-06T05:48:47.999Z</time></trkpt><trkpt lat="45.11320456529945" lon="10.026035609769707"><ele>32.0</ele><time>2026-04-06T05:48:48.999Z</time></trkpt><trkpt lat="45.113268227463976" lon="10.02601590621804"><ele>32.166666666666664</ele><time>2026-04-06T05:48:49.999Z</time></trkpt><trkpt lat="45.11333220051145" lon="10.025996106433908"><ele>32.33333333333333</ele><time>2026-04-06T05:48:50.999Z</time></trkpt><trkpt lat="45.11339510291671" lon="10.02597706059149"><ele>32.5</ele><time>2026-04-06T05:48:51.999Z</time></trkpt><trkpt lat="45.113458341776145" lon="10.025958568469004"><ele>32.666666666666664</ele><time>2026-04-06T05:48:52.999Z</time></trkpt><trkpt lat="45.11352280880069" lon="10.025939717214309"><ele>32.833333333333336</ele><time>2026-04-06T05:48:54Z</time></trkpt><trkpt lat="45.1136415937938" lon="10.025901898207948"><ele>33.0</ele><time>2026-04-06T05:48:56Z</time></trkpt><trkpt lat="45.11376012044583" lon="10.025861801482195"><ele>33.0</ele><time>2026-04-06T05:48:58Z</time></trkpt><trkpt lat="45.11382421366545" lon="10.025841644399469"><ele>33.0</ele><time>2026-04-06T05:48:59Z</time></trkpt><trkpt lat="45.11388936044598" lon="10.02582115598258"><ele>33.0</ele><time>2026-04-06T05:49:00Z</time></trkpt><trkpt lat="45.11395393503669" lon="10.02580084750776"><ele>33.0</ele><time>2026-04-06T05:49:01Z</time></trkpt><trkpt lat="45.11401798161383" lon="10.025780705097484"><ele>33.0</ele><time>2026-04-06T05:49:02Z</time></trkpt><trkpt lat="45.11408299582292" lon="10.025760258367136"><ele>33.0</ele><time>2026-04-06T05:49:03Z</time></trkpt><trkpt lat="45.114147255270055" lon="10.025740049005092"><ele>33.0</ele><time>2026-04-06T05:49:04Z</time></trkpt><trkpt lat="45.11421165568982" lon="10.025719795311867"><ele>32.714285714285715</ele><time>2026-04-06T05:49:05Z</time></trkpt><trkpt lat="45.114276928950055" lon="10.025699267115423"><ele>32.42857142857143</ele><time>2026-04-06T05:49:06Z</time></trkpt><trkpt lat="45.11434179248586" lon="10.025678867770994"><ele>32.142857142857146</ele><time>2026-04-06T05:49:07Z</time></trkpt><trkpt lat="45.114407305814765" lon="10.025658264071971"><ele>31.857142857142858</ele><time>2026-04-06T05:49:08Z</time></trkpt><trkpt lat="45.1144712707867" lon="10.025638147320052"><ele>31.571428571428577</ele><time>2026-04-06T05:49:09Z</time></trkpt><trkpt lat="45.11453634410315" lon="10.02561768200448"><ele>31.28571428571429</ele><time>2026-04-06T05:49:10Z</time></trkpt><trkpt lat="45.1146009971199" lon="10.025597348862565"><ele>31.0</ele><time>2026-04-06T05:49:11Z</time></trkpt><trkpt lat="45.114665739837" lon="10.02557570862442"><ele>31.0</ele><time>2026-04-06T05:49:12Z</time></trkpt><trkpt lat="45.114728999127124" lon="10.025553317353962"><ele>31.000000000000004</ele><time>2026-04-06T05:49:13Z</time></trkpt><trkpt lat="45.11479325034512" lon="10.025529860530762"><ele>31.0</ele><time>2026-04-06T05:49:14Z</time></trkpt><trkpt lat="45.11485611188809" lon="10.025506440598308"><ele>31.0</ele><time>2026-04-06T05:49:15Z</time></trkpt><trkpt lat="45.11491942043385" lon="10.025482446403783"><ele>31.000000000000004</ele><time>2026-04-06T05:49:16Z</time></trkpt><trkpt lat="45.114983246073145" lon="10.025457827943319"><ele>31.0</ele><time>2026-04-06T05:49:17Z</time></trkpt><trkpt lat="45.11504700473143" lon="10.025433235322485"><ele>31.0</ele><time>2026-04-06T05:49:18Z</time></trkpt><trkpt lat="45.11511033139769" lon="10.025408809318819"><ele>31.0</ele><time>2026-04-06T05:49:19Z</time></trkpt><trkpt lat="45.11517482048302" lon="10.025383934960999"><ele>31.000000000000004</ele><time>2026-04-06T05:49:20Z</time></trkpt><trkpt lat="45.115237435164964" lon="10.02535978357892"><ele>31.0</ele><time>2026-04-06T05:49:21Z</time></trkpt><trkpt lat="45.115301014848136" lon="10.025335259992175"><ele>31.0</ele><time>2026-04-06T05:49:22Z</time></trkpt><trkpt lat="45.115365238768575" lon="10.02531048790987"><ele>31.000000000000004</ele><time>2026-04-06T05:49:23Z</time></trkpt><trkpt lat="45.11542934157272" lon="10.025285553809162"><ele>31.0</ele><time>2026-04-06T05:49:24Z</time></trkpt><trkpt lat="45.11549336474337" lon="10.025259328350371"><ele>31.0</ele><time>2026-04-06T05:49:25Z</time></trkpt><trkpt lat="45.11555674046055" lon="10.025232055003451"><ele>31.0</ele><time>2026-04-06T05:49:26Z</time></trkpt><trkpt lat="45.11562173625163" lon="10.025201353098234"><ele>31.000000000000004</ele><time>2026-04-06T05:49:27Z</time></trkpt><trkpt lat="45.115686001287806" lon="10.025159746442144"><ele>31.0</ele><time>2026-04-06T05:49:28Z</time></trkpt><trkpt lat="45.11574609180771" lon="10.025109631383197"><ele>31.0</ele><time>2026-04-06T05:49:29Z</time></trkpt><trkpt lat="45.11580232388518" lon="10.025048344626608"><ele>31.000000000000004</ele><time>2026-04-06T05:49:30Z</time></trkpt><trkpt lat="45.1158523096552" lon="10.024975653727699"><ele>31.0</ele><time>2026-04-06T05:49:31Z</time></trkpt><trkpt lat="45.11589750220645" lon="10.024899099560901"><ele>31.0</ele><time>2026-04-06T05:49:32Z</time></trkpt><trkpt lat="45.11593275983944" lon="10.0248089428014"><ele>31.142857142857146</ele><time>2026-04-06T05:49:33Z</time></trkpt><trkpt lat="45.11596727079695" lon="10.02472389341527"><ele>31.28571428571429</ele><time>2026-04-06T05:49:34Z</time></trkpt><trkpt lat="45.11599983546699" lon="10.024639839687074"><ele>31.42857142857143</ele><time>2026-04-06T05:49:35Z</time></trkpt><trkpt lat="45.11603155890275" lon="10.024555043986448"><ele>31.57142857142857</ele><time>2026-04-06T05:49:36Z</time></trkpt><trkpt lat="45.11606322922421" lon="10.02446978860457"><ele>31.71428571428571</ele><time>2026-04-06T05:49:37Z</time></trkpt><trkpt lat="45.11609442710226" lon="10.024385804965029"><ele>31.857142857142854</ele><time>2026-04-06T05:49:38Z</time></trkpt><trkpt lat="45.11612598759056" lon="10.02430084521199"><ele>32.0</ele><time>2026-04-06T05:49:39Z</time></trkpt><trkpt lat="45.11615755040415" lon="10.024215879238373"><ele>32.0</ele><time>2026-04-06T05:49:40Z</time></trkpt><trkpt lat="45.1161889256132" lon="10.024131418212027"><ele>31.999999999999996</ele><time>2026-04-06T05:49:41Z</time></trkpt><trkpt lat="45.11622044529662" lon="10.02404656832431"><ele>32.0</ele><time>2026-04-06T05:49:42Z</time></trkpt><trkpt lat="45.11625113018552" lon="10.023963965638325"><ele>32.0</ele><time>2026-04-06T05:49:43Z</time></trkpt><trkpt lat="45.116282052958276" lon="10.02388072257959"><ele>31.999999999999996</ele><time>2026-04-06T05:49:44Z</time></trkpt><trkpt lat="45.11631332487373" lon="10.023798761273133"><ele>32.0</ele><time>2026-04-06T05:49:45Z</time></trkpt><trkpt lat="45.11634512430478" lon="10.023717695123109"><ele>32.0</ele><time>2026-04-06T05:49:46Z</time></trkpt><trkpt lat="45.116377126197" lon="10.023637981701315"><ele>32.0</ele><time>2026-04-06T05:49:47Z</time></trkpt><trkpt lat="45.11641190674606" lon="10.02355685635355"><ele>31.999999999999996</ele><time>2026-04-06T05:49:48Z</time></trkpt><trkpt lat="45.116447933540016" lon="10.023481548085682"><ele>32.0</ele><time>2026-04-06T05:49:49Z</time></trkpt><trkpt lat="45.116484855978065" lon="10.023404939587582"><ele>32.0</ele><time>2026-04-06T05:49:50Z</time></trkpt><trkpt lat="45.11652324429106" lon="10.023330783228271"><ele>31.999999999999996</ele><time>2026-04-06T05:49:51Z</time></trkpt><trkpt lat="45.116562505326584" lon="10.023257102177162"><ele>32.0</ele><time>2026-04-06T05:49:52Z</time></trkpt><trkpt lat="45.11660302287605" lon="10.023184290848885"><ele>32.0</ele><time>2026-04-06T05:49:53Z</time></trkpt><trkpt lat="45.11664360717233" lon="10.023111359572752"><ele>32.14285714285714</ele><time>2026-04-06T05:49:54Z</time></trkpt><trkpt lat="45.11668421556918" lon="10.02303838498784"><ele>32.285714285714285</ele><time>2026-04-06T05:49:55Z</time></trkpt><trkpt lat="45.11672554338708" lon="10.022964117586628"><ele>32.42857142857143</ele><time>2026-04-06T05:49:55.999Z</time></trkpt><trkpt lat="45.116765995896536" lon="10.022891423144076"><ele>32.57142857142857</ele><time>2026-04-06T05:49:56.999Z</time></trkpt><trkpt lat="45.11680716277654" lon="10.022818794476631"><ele>32.714285714285715</ele><time>2026-04-06T05:49:57.999Z</time></trkpt><trkpt lat="45.11684910299906" lon="10.02274719360772"><ele>32.857142857142854</ele><time>2026-04-06T05:49:58.999Z</time></trkpt><trkpt lat="45.11689254435562" lon="10.022676461746292"><ele>33.0</ele><time>2026-04-06T05:49:59.999Z</time></trkpt><trkpt lat="45.11693778726753" lon="10.022607688930753"><ele>33.0</ele><time>2026-04-06T05:50:00.999Z</time></trkpt><trkpt lat="45.11698512123931" lon="10.022542713797765"><ele>33.0</ele><time>2026-04-06T05:50:01.999Z</time></trkpt><trkpt lat="45.117032940953834" lon="10.022480629107061"><ele>33.0</ele><time>2026-04-06T05:50:02.999Z</time></trkpt><trkpt lat="45.117082654204665" lon="10.022420354704234"><ele>33.0</ele><time>2026-04-06T05:50:03.999Z</time></trkpt><trkpt lat="45.117133351561066" lon="10.022362321120825"><ele>33.0</ele><time>2026-04-06T05:50:04.999Z</time></trkpt><trkpt lat="45.11718475987365" lon="10.022303472860157"><ele>33.0</ele><time>2026-04-06T05:50:05.999Z</time></trkpt><trkpt lat="45.11723641960627" lon="10.022244336883253"><ele>33.0</ele><time>2026-04-06T05:50:06.999Z</time></trkpt><trkpt lat="45.117287509868206" lon="10.02218426299627"><ele>33.0</ele><time>2026-04-06T05:50:07.999Z</time></trkpt><trkpt lat="45.11731986144178" lon="10.022093456122645"><ele>33.0</ele><time>2026-04-06T05:50:08.999Z</time></trkpt><trkpt lat="45.11737354843143" lon="10.02203601270935"><ele>33.0</ele><time>2026-04-06T05:50:09.999Z</time></trkpt><trkpt lat="45.117424142085575" lon="10.021976409507303"><ele>33.0</ele><time>2026-04-06T05:50:10.999Z</time></trkpt><trkpt lat="45.11747650310531" lon="10.02191820960507"><ele>33.0</ele><time>2026-04-06T05:50:11.999Z</time></trkpt><trkpt lat="45.11752629142759" lon="10.021857778369588"><ele>33.0</ele><time>2026-04-06T05:50:12.999Z</time></trkpt><trkpt lat="45.11757622391902" lon="10.021798129202445"><ele>33.0</ele><time>2026-04-06T05:50:13.999Z</time></trkpt><trkpt lat="45.1176259676425" lon="10.021737787688163"><ele>33.0</ele><time>2026-04-06T05:50:14.999Z</time></trkpt><trkpt lat="45.11769337979881" lon="10.021704516730521"><ele>33.0</ele><time>2026-04-06T05:50:15.999Z</time></trkpt><trkpt lat="45.117744333217196" lon="10.02164535147738"><ele>33.0</ele><time>2026-04-06T05:50:16.999Z</time></trkpt><trkpt lat="45.11779497827824" lon="10.021586588419613"><ele>33.0</ele><time>2026-04-06T05:50:17.999Z</time></trkpt><trkpt lat="45.117845756539275" lon="10.021528181252922"><ele>33.0</ele><time>2026-04-06T05:50:18.999Z</time></trkpt><trkpt lat="45.117897525857444" lon="10.021468764216007"><ele>33.0</ele><time>2026-04-06T05:50:19.999Z</time></trkpt><trkpt lat="45.11794755526891" lon="10.021411344085138"><ele>33.0</ele><time>2026-04-06T05:50:20.999Z</time></trkpt><trkpt lat="45.11799793147306" lon="10.021352059549232"><ele>33.0</ele><time>2026-04-06T05:50:21.999Z</time></trkpt><trkpt lat="45.11804861152638" lon="10.021292046844028"><ele>33.0</ele><time>2026-04-06T05:50:22.999Z</time></trkpt><trkpt lat="45.118098902668656" lon="10.021230415932838"><ele>33.0</ele><time>2026-04-06T05:50:23.999Z</time></trkpt><trkpt lat="45.11814842982664" lon="10.021169721302657"><ele>33.0</ele><time>2026-04-06T05:50:24.999Z</time></trkpt><trkpt lat="45.11819816274009" lon="10.021107305226874"><ele>33.0</ele><time>2026-04-06T05:50:25.999Z</time></trkpt><trkpt lat="45.118247298205645" lon="10.021044892337303"><ele>33.0</ele><time>2026-04-06T05:50:26.999Z</time></trkpt><trkpt lat="45.11829633852513" lon="10.020980566290765"><ele>33.0</ele><time>2026-04-06T05:50:27.999Z</time></trkpt><trkpt lat="45.11834431749328" lon="10.020915164110582"><ele>33.0</ele><time>2026-04-06T05:50:28.999Z</time></trkpt><trkpt lat="45.11839095620319" lon="10.020848552933188"><ele>33.0</ele><time>2026-04-06T05:50:29.999Z</time></trkpt><trkpt lat="45.11843783351507" lon="10.020780823087899"><ele>33.0</ele><time>2026-04-06T05:50:30.999Z</time></trkpt><trkpt lat="45.11848366146359" lon="10.020713735170775"><ele>33.0</ele><time>2026-04-06T05:50:31.999Z</time></trkpt><trkpt lat="45.11852992761043" lon="10.020646005786874"><ele>33.0</ele><time>2026-04-06T05:50:32.999Z</time></trkpt><trkpt lat="45.11857503976894" lon="10.020579812723154"><ele>33.0</ele><time>2026-04-06T05:50:33.999Z</time></trkpt><trkpt lat="45.118621265842734" lon="10.020511963668831"><ele>33.0</ele><time>2026-04-06T05:50:34.999Z</time></trkpt><trkpt lat="45.11866564995184" lon="10.020446818168844"><ele>33.0</ele><time>2026-04-06T05:50:35.999Z</time></trkpt><trkpt lat="45.118711605574354" lon="10.020379248637761"><ele>33.0</ele><time>2026-04-06T05:50:36.999Z</time></trkpt><trkpt lat="45.1187574062655" lon="10.020311898276285"><ele>33.0</ele><time>2026-04-06T05:50:37.999Z</time></trkpt><trkpt lat="45.11880314752" lon="10.020244635265865"><ele>33.0</ele><time>2026-04-06T05:50:38.999Z</time></trkpt><trkpt lat="45.11884861152318" lon="10.020177780050538"><ele>33.0</ele><time>2026-04-06T05:50:39.999Z</time></trkpt><trkpt lat="45.118894011989404" lon="10.020111018202122"><ele>33.0</ele><time>2026-04-06T05:50:40.999Z</time></trkpt><trkpt lat="45.118938981360905" lon="10.020044890290094"><ele>33.0</ele><time>2026-04-06T05:50:41.999Z</time></trkpt><trkpt lat="45.11898424656477" lon="10.019977715977497"><ele>33.0</ele><time>2026-04-06T05:50:42.999Z</time></trkpt><trkpt lat="45.11902864430517" lon="10.019910156309471"><ele>33.0</ele><time>2026-04-06T05:50:43.999Z</time></trkpt><trkpt lat="45.11907331813855" lon="10.019841965149231"><ele>33.0</ele><time>2026-04-06T05:50:44.999Z</time></trkpt><trkpt lat="45.11911801282224" lon="10.01977277281753"><ele>33.0</ele><time>2026-04-06T05:50:45.999Z</time></trkpt><trkpt lat="45.119162857909295" lon="10.019702345673737"><ele>33.0</ele><time>2026-04-06T05:50:46.999Z</time></trkpt><trkpt lat="45.11920620621419" lon="10.019631852497472"><ele>33.0</ele><time>2026-04-06T05:50:47.999Z</time></trkpt><trkpt lat="45.11924868333708" lon="10.019556918279886"><ele>33.0</ele><time>2026-04-06T05:50:48.999Z</time></trkpt><trkpt lat="45.11928825155523" lon="10.019482128793767"><ele>33.0</ele><time>2026-04-06T05:50:49.999Z</time></trkpt><trkpt lat="45.11932658396476" lon="10.019403029973562"><ele>33.0</ele><time>2026-04-06T05:50:50.999Z</time></trkpt><trkpt lat="45.119362945082585" lon="10.019325417803076"><ele>33.0</ele><time>2026-04-06T05:50:51.999Z</time></trkpt><trkpt lat="45.119398442253534" lon="10.019244752741095"><ele>33.0</ele><time>2026-04-06T05:50:52.999Z</time></trkpt><trkpt lat="45.1194321382917" lon="10.019163942769257"><ele>33.0</ele><time>2026-04-06T05:50:53.999Z</time></trkpt><trkpt lat="45.11946559326802" lon="10.019082796643177"><ele>33.0</ele><time>2026-04-06T05:50:54.999Z</time></trkpt><trkpt lat="45.11948523323567" lon="10.018990015930846"><ele>33.0</ele><time>2026-04-06T05:50:55.999Z</time></trkpt><trkpt lat="45.11953197207877" lon="10.018921792675812"><ele>32.857142857142854</ele><time>2026-04-06T05:50:56.999Z</time></trkpt><trkpt lat="45.11956544117952" lon="10.018842425750591"><ele>32.714285714285715</ele><time>2026-04-06T05:50:57.999Z</time></trkpt><trkpt lat="45.119598921616934" lon="10.01876327436307"><ele>32.57142857142857</ele><time>2026-04-06T05:50:58.999Z</time></trkpt><trkpt lat="45.11963227317921" lon="10.018684406758657"><ele>32.42857142857143</ele><time>2026-04-06T05:51:00Z</time></trkpt><trkpt lat="45.119666149130325" lon="10.018604299043115"><ele>32.285714285714285</ele><time>2026-04-06T05:51:01Z</time></trkpt><trkpt lat="45.11970031337931" lon="10.018523509658223"><ele>32.14285714285714</ele><time>2026-04-06T05:51:02Z</time></trkpt><trkpt lat="45.11973372746453" lon="10.018444494146381"><ele>32.0</ele><time>2026-04-06T05:51:03Z</time></trkpt><trkpt lat="45.119767199443615" lon="10.018364949899807"><ele>32.285714285714285</ele><time>2026-04-06T05:51:04Z</time></trkpt><trkpt lat="45.11980143255329" lon="10.01828417922308"><ele>32.57142857142857</ele><time>2026-04-06T05:51:05Z</time></trkpt><trkpt lat="45.11983516252136" lon="10.01820570443001"><ele>32.857142857142854</ele><time>2026-04-06T05:51:06Z</time></trkpt><trkpt lat="45.11986954987837" lon="10.018125539635347"><ele>33.14285714285714</ele><time>2026-04-06T05:51:07Z</time></trkpt><trkpt lat="45.11990323957029" lon="10.018046374492794"><ele>33.42857142857143</ele><time>2026-04-06T05:51:08Z</time></trkpt><trkpt lat="45.119937421548336" lon="10.017966052583198"><ele>33.71428571428571</ele><time>2026-04-06T05:51:09Z</time></trkpt><trkpt lat="45.11997126205546" lon="10.017886533039857"><ele>34.0</ele><time>2026-04-06T05:51:10Z</time></trkpt><trkpt lat="45.12000514230904" lon="10.017806920060423"><ele>33.99999999999999</ele><time>2026-04-06T05:51:11Z</time></trkpt><trkpt lat="45.12003910229836" lon="10.017727119712603"><ele>34.0</ele><time>2026-04-06T05:51:12Z</time></trkpt><trkpt lat="45.1200725602312" lon="10.01764869252846"><ele>34.0</ele><time>2026-04-06T05:51:13Z</time></trkpt><trkpt lat="45.12010591941619" lon="10.017570228026942"><ele>34.0</ele><time>2026-04-06T05:51:14Z</time></trkpt><trkpt lat="45.12013920167723" lon="10.017491944375656"><ele>34.0</ele><time>2026-04-06T05:51:15Z</time></trkpt><trkpt lat="45.12017282175686" lon="10.01741286616562"><ele>33.99999999999999</ele><time>2026-04-06T05:51:16Z</time></trkpt><trkpt lat="45.120205971395784" lon="10.017334894464604"><ele>34.0</ele><time>2026-04-06T05:51:17Z</time></trkpt><trkpt lat="45.1202397504065" lon="10.017255475618173"><ele>33.99999999999999</ele><time>2026-04-06T05:51:18Z</time></trkpt><trkpt lat="45.12027277881059" lon="10.017177824831306"><ele>34.0</ele><time>2026-04-06T05:51:19Z</time></trkpt><trkpt lat="45.12030664697497" lon="10.01709819968927"><ele>34.0</ele><time>2026-04-06T05:51:20Z</time></trkpt><trkpt lat="45.12033996133822" lon="10.01701987660992"><ele>34.0</ele><time>2026-04-06T05:51:21Z</time></trkpt><trkpt lat="45.120373560138844" lon="10.01694088480244"><ele>34.0</ele><time>2026-04-06T05:51:22Z</time></trkpt><trkpt lat="45.12040701798435" lon="10.016862534595374"><ele>33.99999999999999</ele><time>2026-04-06T05:51:23Z</time></trkpt><trkpt lat="45.12044126136289" lon="10.016784675071792"><ele>34.0</ele><time>2026-04-06T05:51:24Z</time></trkpt><trkpt lat="45.120475285477106" lon="10.016707314113988"><ele>33.875</ele><time>2026-04-06T05:51:25Z</time></trkpt><trkpt lat="45.120509157535274" lon="10.016630298863207"><ele>33.75</ele><time>2026-04-06T05:51:26Z</time></trkpt><trkpt lat="45.12054343360038" lon="10.016552365052496"><ele>33.625</ele><time>2026-04-06T05:51:27Z</time></trkpt><trkpt lat="45.120577544160334" lon="10.016474807528306"><ele>33.5</ele><time>2026-04-06T05:51:28Z</time></trkpt><trkpt lat="45.12061170462707" lon="10.01639713662687"><ele>33.375</ele><time>2026-04-06T05:51:29Z</time></trkpt><trkpt lat="45.12064724791561" lon="10.016321644942181"><ele>33.25</ele><time>2026-04-06T05:51:30Z</time></trkpt><trkpt lat="45.120684648258" lon="10.016248588325983"><ele>33.125</ele><time>2026-04-06T05:51:31Z</time></trkpt><trkpt lat="45.12072268023155" lon="10.016177487281455"><ele>33.0</ele><time>2026-04-06T05:51:32Z</time></trkpt><trkpt lat="45.120761170951255" lon="10.016106310737884"><ele>33.0</ele><time>2026-04-06T05:51:33Z</time></trkpt><trkpt lat="45.12080014821055" lon="10.016034234490249"><ele>33.0</ele><time>2026-04-06T05:51:34Z</time></trkpt><trkpt lat="45.12083911385661" lon="10.015962179691257"><ele>33.0</ele><time>2026-04-06T05:51:35Z</time></trkpt><trkpt lat="45.120878365739934" lon="10.015889595651542"><ele>33.0</ele><time>2026-04-06T05:51:36Z</time></trkpt><trkpt lat="45.12091734290916" lon="10.015817519547145"><ele>33.0</ele><time>2026-04-06T05:51:37Z</time></trkpt><trkpt lat="45.12095704302101" lon="10.01574410659141"><ele>33.0</ele><time>2026-04-06T05:51:38Z</time></trkpt><trkpt lat="45.12099565780267" lon="10.01567270064342"><ele>33.0</ele><time>2026-04-06T05:51:39Z</time></trkpt><trkpt lat="45.121035326845195" lon="10.015599708090416"><ele>33.42857142857143</ele><time>2026-04-06T05:51:40Z</time></trkpt><trkpt lat="45.12107604682855" lon="10.015525597765643"><ele>33.85714285714286</ele><time>2026-04-06T05:51:41Z</time></trkpt><trkpt lat="45.121115477054005" lon="10.015454603742281"><ele>34.28571428571429</ele><time>2026-04-06T05:51:42Z</time></trkpt><trkpt lat="45.12115573186464" lon="10.015382705337506"><ele>34.714285714285715</ele><time>2026-04-06T05:51:43Z</time></trkpt><trkpt lat="45.121195048168886" lon="10.015312483176753"><ele>35.142857142857146</ele><time>2026-04-06T05:51:44Z</time></trkpt><trkpt lat="45.121235710663576" lon="10.01523985658993"><ele>35.57142857142858</ele><time>2026-04-06T05:51:45Z</time></trkpt><trkpt lat="45.121276518244024" lon="10.015166970886883"><ele>36.0</ele><time>2026-04-06T05:51:46Z</time></trkpt><trkpt lat="45.121317033751076" lon="10.015094606879789"><ele>36.00000000000001</ele><time>2026-04-06T05:51:47Z</time></trkpt><trkpt lat="45.12135675260716" lon="10.015025226033435"><ele>36.0</ele><time>2026-04-06T05:51:48Z</time></trkpt><trkpt lat="45.121397603548225" lon="10.0149543014613"><ele>36.0</ele><time>2026-04-06T05:51:49Z</time></trkpt><trkpt lat="45.121439253064025" lon="10.0148819904556"><ele>36.0</ele><time>2026-04-06T05:51:50Z</time></trkpt><trkpt lat="45.121480853518406" lon="10.014810288736333"><ele>36.0</ele><time>2026-04-06T05:51:51Z</time></trkpt><trkpt lat="45.12152292262338" lon="10.01473899896861"><ele>36.00000000000001</ele><time>2026-04-06T05:51:52Z</time></trkpt><trkpt lat="45.121564823931465" lon="10.014669395267598"><ele>36.0</ele><time>2026-04-06T05:51:53Z</time></trkpt><trkpt lat="45.121607606411615" lon="10.014600028821333"><ele>36.142857142857146</ele><time>2026-04-06T05:51:54Z</time></trkpt><trkpt lat="45.12165042600518" lon="10.014530601612506"><ele>36.285714285714285</ele><time>2026-04-06T05:51:55Z</time></trkpt><trkpt lat="45.12169311032641" lon="10.01446139264895"><ele>36.42857142857143</ele><time>2026-04-06T05:51:56Z</time></trkpt><trkpt lat="45.12173613764207" lon="10.014391628203706"><ele>36.57142857142857</ele><time>2026-04-06T05:51:57Z</time></trkpt><trkpt lat="45.121778870485265" lon="10.014322340957207"><ele>36.714285714285715</ele><time>2026-04-06T05:51:58Z</time></trkpt><trkpt lat="45.12182224393214" lon="10.014252015514849"><ele>36.85714285714286</ele><time>2026-04-06T05:51:59Z</time></trkpt><trkpt lat="45.12186527454881" lon="10.014183557187367"><ele>37.0</ele><time>2026-04-06T05:52:00Z</time></trkpt><trkpt lat="45.12190955921577" lon="10.014114123464193"><ele>36.285714285714285</ele><time>2026-04-06T05:52:01Z</time></trkpt><trkpt lat="45.12195329332544" lon="10.014045554112315"><ele>35.57142857142857</ele><time>2026-04-06T05:52:02Z</time></trkpt><trkpt lat="45.12199762029335" lon="10.013976053964507"><ele>34.857142857142854</ele><time>2026-04-06T05:52:03Z</time></trkpt><trkpt lat="45.12204166821809" lon="10.013904818548193"><ele>34.14285714285714</ele><time>2026-04-06T05:52:03.999Z</time></trkpt><trkpt lat="45.12208503277514" lon="10.013833834036875"><ele>33.42857142857142</ele><time>2026-04-06T05:52:04.999Z</time></trkpt><trkpt lat="45.122128536114346" lon="10.013762622451688"><ele>32.714285714285715</ele><time>2026-04-06T05:52:05.999Z</time></trkpt><trkpt lat="45.12217097302995" lon="10.013693156533657"><ele>32.0</ele><time>2026-04-06T05:52:06.999Z</time></trkpt><trkpt lat="45.12221460919472" lon="10.013622106994005"><ele>32.0</ele><time>2026-04-06T05:52:07.999Z</time></trkpt><trkpt lat="45.12225812644423" lon="10.013552634524123"><ele>31.999999999999996</ele><time>2026-04-06T05:52:08.999Z</time></trkpt><trkpt lat="45.122301208321474" lon="10.013483857092487"><ele>32.0</ele><time>2026-04-06T05:52:09.999Z</time></trkpt><trkpt lat="45.12234504436719" lon="10.013413875696942"><ele>32.0</ele><time>2026-04-06T05:52:10.999Z</time></trkpt><trkpt lat="45.122389104199044" lon="10.013341161496626"><ele>31.999999999999996</ele><time>2026-04-06T05:52:11.999Z</time></trkpt><trkpt lat="45.12243114019925" lon="10.01327031224854"><ele>32.0</ele><time>2026-04-06T05:52:12.999Z</time></trkpt><trkpt lat="45.122473436280444" lon="10.013199024664852"><ele>32.0</ele><time>2026-04-06T05:52:13.999Z</time></trkpt><trkpt lat="45.122514405126864" lon="10.013124810708481"><ele>31.857142857142854</ele><time>2026-04-06T05:52:14.999Z</time></trkpt><trkpt lat="45.122554642273954" lon="10.013046710463495"><ele>31.71428571428571</ele><time>2026-04-06T05:52:15.999Z</time></trkpt><trkpt lat="45.12259153285958" lon="10.012966783436935"><ele>31.57142857142857</ele><time>2026-04-06T05:52:16.999Z</time></trkpt><trkpt lat="45.12262528965742" lon="10.01288682821275"><ele>31.42857142857143</ele><time>2026-04-06T05:52:17.999Z</time></trkpt><trkpt lat="45.12265921700841" lon="10.012806131774717"><ele>31.28571428571429</ele><time>2026-04-06T05:52:18.999Z</time></trkpt><trkpt lat="45.122691870525024" lon="10.012726777548636"><ele>31.142857142857146</ele><time>2026-04-06T05:52:19.999Z</time></trkpt><trkpt lat="45.12271069381423" lon="10.012634410639983"><ele>31.0</ele><time>2026-04-06T05:52:20.999Z</time></trkpt><trkpt lat="45.122757307375565" lon="10.012563334160046"><ele>31.42857142857143</ele><time>2026-04-06T05:52:21.999Z</time></trkpt><trkpt lat="45.12278926840707" lon="10.012480876505437"><ele>31.85714285714286</ele><time>2026-04-06T05:52:22.999Z</time></trkpt><trkpt lat="45.12281932853892" lon="10.012394949748668"><ele>32.285714285714285</ele><time>2026-04-06T05:52:23.999Z</time></trkpt><trkpt lat="45.122848478558794" lon="10.012310551746712"><ele>32.714285714285715</ele><time>2026-04-06T05:52:24.999Z</time></trkpt><trkpt lat="45.122876805868806" lon="10.012224524674759"><ele>33.14285714285714</ele><time>2026-04-06T05:52:25.999Z</time></trkpt><trkpt lat="45.12290476184092" lon="10.012139625302641"><ele>33.57142857142857</ele><time>2026-04-06T05:52:26.999Z</time></trkpt><trkpt lat="45.12293305681016" lon="10.012054245546537"><ele>34.0</ele><time>2026-04-06T05:52:27.999Z</time></trkpt><trkpt lat="45.12296138290186" lon="10.01196955333722"><ele>33.99999999999999</ele><time>2026-04-06T05:52:28.999Z</time></trkpt><trkpt lat="45.12299004203087" lon="10.01188386542647"><ele>34.0</ele><time>2026-04-06T05:52:29.999Z</time></trkpt><trkpt lat="45.1230182410395" lon="10.01179955325099"><ele>34.0</ele><time>2026-04-06T05:52:30.999Z</time></trkpt><trkpt lat="45.123046700365165" lon="10.011714462787111"><ele>34.0</ele><time>2026-04-06T05:52:31.999Z</time></trkpt><trkpt lat="45.12307450557404" lon="10.011631342478502"><ele>34.0</ele><time>2026-04-06T05:52:32.999Z</time></trkpt><trkpt lat="45.123102356324765" lon="10.011548158054646"><ele>33.99999999999999</ele><time>2026-04-06T05:52:33.999Z</time></trkpt><trkpt lat="45.123131073056776" lon="10.01146240841867"><ele>34.0</ele><time>2026-04-06T05:52:34.999Z</time></trkpt><trkpt lat="45.12315876676577" lon="10.011379764747678"><ele>33.99999999999999</ele><time>2026-04-06T05:52:35.999Z</time></trkpt><trkpt lat="45.12318702807204" lon="10.011295427241782"><ele>34.0</ele><time>2026-04-06T05:52:36.999Z</time></trkpt><trkpt lat="45.12321492104917" lon="10.011212188828562"><ele>34.0</ele><time>2026-04-06T05:52:37.999Z</time></trkpt><trkpt lat="45.12324290941816" lon="10.011128665839768"><ele>34.0</ele><time>2026-04-06T05:52:38.999Z</time></trkpt><trkpt lat="45.123270963281485" lon="10.011044947344704"><ele>34.0</ele><time>2026-04-06T05:52:39.999Z</time></trkpt><trkpt lat="45.12329920068272" lon="10.010960681187898"><ele>33.99999999999999</ele><time>2026-04-06T05:52:40.999Z</time></trkpt><trkpt lat="45.12332680341171" lon="10.01087830896753"><ele>34.0</ele><time>2026-04-06T05:52:41.999Z</time></trkpt><trkpt lat="45.12335453358451" lon="10.01079555647816"><ele>34.0</ele><time>2026-04-06T05:52:42.999Z</time></trkpt><trkpt lat="45.123381772546736" lon="10.010714269850164"><ele>34.0</ele><time>2026-04-06T05:52:43.999Z</time></trkpt><trkpt lat="45.123409350693315" lon="10.010631971000533"><ele>34.0</ele><time>2026-04-06T05:52:44.999Z</time></trkpt><trkpt lat="45.12343662456425" lon="10.010550580133431"><ele>34.0</ele><time>2026-04-06T05:52:45.999Z</time></trkpt><trkpt lat="45.12346429061459" lon="10.010468018941875"><ele>34.0</ele><time>2026-04-06T05:52:46.999Z</time></trkpt><trkpt lat="45.12349191121345" lon="10.01038555768645"><ele>34.0</ele><time>2026-04-06T05:52:47.999Z</time></trkpt><trkpt lat="45.12351913639422" lon="10.010303786865416"><ele>34.0</ele><time>2026-04-06T05:52:48.999Z</time></trkpt><trkpt lat="45.123546355999316" lon="10.01022203284811"><ele>34.0</ele><time>2026-04-06T05:52:49.999Z</time></trkpt><trkpt lat="45.12357379625239" lon="10.010139616030271"><ele>34.0</ele><time>2026-04-06T05:52:50.999Z</time></trkpt><trkpt lat="45.12360089105707" lon="10.010058236832393"><ele>34.0</ele><time>2026-04-06T05:52:51.999Z</time></trkpt><trkpt lat="45.123628051530936" lon="10.009976660353638"><ele>34.0</ele><time>2026-04-06T05:52:52.999Z</time></trkpt><trkpt lat="45.123655586114296" lon="10.009894503163117"><ele>34.0</ele><time>2026-04-06T05:52:53.999Z</time></trkpt><trkpt lat="45.12368287906539" lon="10.009813183418336"><ele>34.0</ele><time>2026-04-06T05:52:54.999Z</time></trkpt><trkpt lat="45.12371023329862" lon="10.009731681110697"><ele>34.0</ele><time>2026-04-06T05:52:55.999Z</time></trkpt><trkpt lat="45.12373769802693" lon="10.009649849664381"><ele>34.0</ele><time>2026-04-06T05:52:56.999Z</time></trkpt><trkpt lat="45.12376504886212" lon="10.00956835740426"><ele>34.0</ele><time>2026-04-06T05:52:57.999Z</time></trkpt><trkpt lat="45.123792216378185" lon="10.009487420625007"><ele>34.0</ele><time>2026-04-06T05:52:58.999Z</time></trkpt><trkpt lat="45.123846564680015" lon="10.009325652941275"><ele>34.0</ele><time>2026-04-06T05:53:00.999Z</time></trkpt><trkpt lat="45.12390034501368" lon="10.009163748933322"><ele>34.0</ele><time>2026-04-06T05:53:02.999Z</time></trkpt><trkpt lat="45.123927029924815" lon="10.009082475179266"><ele>34.0</ele><time>2026-04-06T05:53:03.999Z</time></trkpt><trkpt lat="45.1239539454301" lon="10.009000506416257"><ele>34.0</ele><time>2026-04-06T05:53:05Z</time></trkpt><trkpt lat="45.12398056773911" lon="10.008919430468161"><ele>34.0</ele><time>2026-04-06T05:53:06Z</time></trkpt><trkpt lat="45.12400796435077" lon="10.00883672786263"><ele>33.99999999999999</ele><time>2026-04-06T05:53:07Z</time></trkpt><trkpt lat="45.12403661181636" lon="10.008752559789812"><ele>34.0</ele><time>2026-04-06T05:53:08Z</time></trkpt><trkpt lat="45.12406460088658" lon="10.008670325917542"><ele>34.0</ele><time>2026-04-06T05:53:09Z</time></trkpt><trkpt lat="45.12409326244177" lon="10.0085888979537"><ele>34.0</ele><time>2026-04-06T05:53:10Z</time></trkpt><trkpt lat="45.12412150465556" lon="10.008507285663852"><ele>34.0</ele><time>2026-04-06T05:53:11Z</time></trkpt><trkpt lat="45.124149079426154" lon="10.008426428203018"><ele>33.99999999999999</ele><time>2026-04-06T05:53:12Z</time></trkpt><trkpt lat="45.124176594344775" lon="10.008345746253033"><ele>34.0</ele><time>2026-04-06T05:53:13Z</time></trkpt><trkpt lat="45.12422806821471" lon="10.008191172671909"><ele>34.75</ele><time>2026-04-06T05:53:15Z</time></trkpt><trkpt lat="45.124279360843545" lon="10.008036825626673"><ele>35.5</ele><time>2026-04-06T05:53:17Z</time></trkpt><trkpt lat="45.124331818558005" lon="10.00787824957833"><ele>36.25</ele><time>2026-04-06T05:53:19Z</time></trkpt><trkpt lat="45.12438206785895" lon="10.00772350277854"><ele>37.0</ele><time>2026-04-06T05:53:21Z</time></trkpt><trkpt lat="45.12441388838217" lon="10.00756822416767"><ele>37.8</ele><time>2026-04-06T05:53:23Z</time></trkpt><trkpt lat="45.124458480886226" lon="10.007428957775575"><ele>38.6</ele><time>2026-04-06T05:53:25Z</time></trkpt><trkpt lat="45.12450172649718" lon="10.00729824092453"><ele>39.4</ele><time>2026-04-06T05:53:27Z</time></trkpt><trkpt lat="45.12454194531385" lon="10.007175355571988"><ele>40.199999999999996</ele><time>2026-04-06T05:53:29Z</time></trkpt><trkpt lat="45.12457845520052" lon="10.007062754246132"><ele>41.0</ele><time>2026-04-06T05:53:31Z</time></trkpt><trkpt lat="45.12461841946881" lon="10.006982787048527"><ele>41.0</ele><time>2026-04-06T05:53:33Z</time></trkpt><trkpt lat="45.1245141515158" lon="10.006855010364434"><ele>41.0</ele><time>2026-04-06T05:53:35Z</time></trkpt><trkpt lat="45.12442805798523" lon="10.006778728162354"><ele>41.0</ele><time>2026-04-06T05:53:37Z</time></trkpt><trkpt lat="45.1243421416737" lon="10.006698844331586"><ele>41.0</ele><time>2026-04-06T05:53:39Z</time></trkpt><trkpt lat="45.124249191877134" lon="10.006609593492398"><ele>41.0</ele><time>2026-04-06T05:53:41Z</time></trkpt><trkpt lat="45.12416119189547" lon="10.006508360826505"><ele>41.0</ele><time>2026-04-06T05:53:43Z</time></trkpt><trkpt lat="45.12406440939238" lon="10.006413072640408"><ele>41.0</ele><time>2026-04-06T05:53:45Z</time></trkpt><trkpt lat="45.12401265436806" lon="10.006355155491171"><ele>41.0</ele><time>2026-04-06T05:53:46Z</time></trkpt><trkpt lat="45.123964047362655" lon="10.006291747352037"><ele>41.0</ele><time>2026-04-06T05:53:47Z</time></trkpt><trkpt lat="45.123910542279106" lon="10.006238032578365"><ele>41.0</ele><time>2026-04-06T05:53:48Z</time></trkpt><trkpt lat="45.123855784401" lon="10.006181227279926"><ele>41.285714285714285</ele><time>2026-04-06T05:53:49Z</time></trkpt><trkpt lat="45.123802489401285" lon="10.006124292788893"><ele>41.57142857142857</ele><time>2026-04-06T05:53:50Z</time></trkpt><trkpt lat="45.12374699425344" lon="10.006067444234567"><ele>41.85714285714286</ele><time>2026-04-06T05:53:51Z</time></trkpt><trkpt lat="45.12369563953756" lon="10.006008675761954"><ele>42.14285714285714</ele><time>2026-04-06T05:53:52Z</time></trkpt><trkpt lat="45.12364416947536" lon="10.005950015506958"><ele>42.42857142857143</ele><time>2026-04-06T05:53:53Z</time></trkpt><trkpt lat="45.12359324491541" lon="10.005894410593847"><ele>42.714285714285715</ele><time>2026-04-06T05:53:54Z</time></trkpt><trkpt lat="45.123544320508785" lon="10.0058379109459"><ele>43.0</ele><time>2026-04-06T05:53:55Z</time></trkpt><trkpt lat="45.12349278476715" lon="10.00578090137979"><ele>43.0</ele><time>2026-04-06T05:53:56Z</time></trkpt><trkpt lat="45.123442999499325" lon="10.005724664979285"><ele>43.0</ele><time>2026-04-06T05:53:57Z</time></trkpt><trkpt lat="45.12334315226197" lon="10.005617952516822"><ele>43.0</ele><time>2026-04-06T05:53:59Z</time></trkpt><trkpt lat="45.12324976580144" lon="10.005517261090676"><ele>43.0</ele><time>2026-04-06T05:54:01Z</time></trkpt><trkpt lat="45.12319926411123" lon="10.005462302681828"><ele>43.0</ele><time>2026-04-06T05:54:02Z</time></trkpt><trkpt lat="45.123101782119235" lon="10.005358405614945"><ele>42.0</ele><time>2026-04-06T05:54:04Z</time></trkpt><trkpt lat="45.12301118518067" lon="10.005257112298358"><ele>41.0</ele><time>2026-04-06T05:54:06Z</time></trkpt><trkpt lat="45.12297722663435" lon="10.005116776307617"><ele>40.0</ele><time>2026-04-06T05:54:08Z</time></trkpt><trkpt lat="45.12301884777248" lon="10.004995587994864"><ele>39.0</ele><time>2026-04-06T05:54:10Z</time></trkpt><trkpt lat="45.12310267858769" lon="10.004904741150584"><ele>38.0</ele><time>2026-04-06T05:54:11.999Z</time></trkpt><trkpt lat="45.123182443196264" lon="10.004801120680169"><ele>38.199999999999996</ele><time>2026-04-06T05:54:13.999Z</time></trkpt><trkpt lat="45.12326628813412" lon="10.004703397706457"><ele>38.4</ele><time>2026-04-06T05:54:15.999Z</time></trkpt><trkpt lat="45.12334742267917" lon="10.004605374596784"><ele>38.599999999999994</ele><time>2026-04-06T05:54:17.999Z</time></trkpt><trkpt lat="45.123400176826955" lon="10.004553548348069"><ele>38.8</ele><time>2026-04-06T05:54:18.999Z</time></trkpt><trkpt lat="45.12348749320866" lon="10.004451676550582"><ele>39.0</ele><time>2026-04-06T05:54:20.999Z</time></trkpt><trkpt lat="45.123573947136485" lon="10.004346863235925"><ele>39.0</ele><time>2026-04-06T05:54:22.999Z</time></trkpt><trkpt lat="45.1236648577701" lon="10.004245655603473"><ele>39.0</ele><time>2026-04-06T05:54:24.999Z</time></trkpt><trkpt lat="45.12376887062552" lon="10.004164667365878"><ele>39.0</ele><time>2026-04-06T05:54:26.999Z</time></trkpt><trkpt lat="45.12384458892715" lon="10.00403829934756"><ele>39.0</ele><time>2026-04-06T05:54:28.999Z</time></trkpt><trkpt lat="45.12393548924806" lon="10.003935379820419"><ele>38.25</ele><time>2026-04-06T05:54:30.999Z</time></trkpt><trkpt lat="45.1240309720562" lon="10.003838131426384"><ele>37.5</ele><time>2026-04-06T05:54:32.999Z</time></trkpt><trkpt lat="45.12411897674795" lon="10.003731674592016"><ele>36.75</ele><time>2026-04-06T05:54:34.999Z</time></trkpt><trkpt lat="45.12420460473055" lon="10.003627357202923"><ele>36.0</ele><time>2026-04-06T05:54:36.999Z</time></trkpt><trkpt lat="45.12429024459941" lon="10.003514956099524"><ele>36.0</ele><time>2026-04-06T05:54:38.999Z</time></trkpt><trkpt lat="45.124375496329066" lon="10.00339549629769"><ele>36.0</ele><time>2026-04-06T05:54:40.999Z</time></trkpt><trkpt lat="45.12445840916402" lon="10.00327505353231"><ele>36.0</ele><time>2026-04-06T05:54:42.999Z</time></trkpt><trkpt lat="45.12453898741969" lon="10.003142528241423"><ele>36.0</ele><time>2026-04-06T05:54:44.999Z</time></trkpt><trkpt lat="45.12461896811188" lon="10.003012802114691"><ele>35.2</ele><time>2026-04-06T05:54:46.999Z</time></trkpt><trkpt lat="45.12469809816471" lon="10.00288393807072"><ele>34.400000000000006</ele><time>2026-04-06T05:54:48.999Z</time></trkpt><trkpt lat="45.124761880770514" lon="10.002757491478956"><ele>33.6</ele><time>2026-04-06T05:54:50.999Z</time></trkpt><trkpt lat="45.124804346788366" lon="10.002690469706579"><ele>32.800000000000004</ele><time>2026-04-06T05:54:51.999Z</time></trkpt><trkpt lat="45.124847941941226" lon="10.002624780101229"><ele>32.0</ele><time>2026-04-06T05:54:52.999Z</time></trkpt><trkpt lat="45.12493316024837" lon="10.002497394201107"><ele>32.0</ele><time>2026-04-06T05:54:54.999Z</time></trkpt><trkpt lat="45.12501931144166" lon="10.002377728252414"><ele>32.0</ele><time>2026-04-06T05:54:56.999Z</time></trkpt><trkpt lat="45.1251111696617" lon="10.002261385625408"><ele>32.0</ele><time>2026-04-06T05:54:58.999Z</time></trkpt><trkpt lat="45.12520757157927" lon="10.00214488147515"><ele>32.0</ele><time>2026-04-06T05:55:00.999Z</time></trkpt><trkpt lat="45.12531278666291" lon="10.00205045777324"><ele>32.0</ele><time>2026-04-06T05:55:02.999Z</time></trkpt><trkpt lat="45.1254083334616" lon="10.001942684289649"><ele>32.0</ele><time>2026-04-06T05:55:04.999Z</time></trkpt><trkpt lat="45.12550289603735" lon="10.001835945638991"><ele>32.0</ele><time>2026-04-06T05:55:06.999Z</time></trkpt><trkpt lat="45.12559838681086" lon="10.001728108391358"><ele>32.0</ele><time>2026-04-06T05:55:08.999Z</time></trkpt><trkpt lat="45.12569384799786" lon="10.00161951276214"><ele>31.400000000000002</ele><time>2026-04-06T05:55:11Z</time></trkpt><trkpt lat="45.1257874491037" lon="10.001508197325482"><ele>30.800000000000004</ele><time>2026-04-06T05:55:13Z</time></trkpt><trkpt lat="45.12582313613944" lon="10.001434511340742"><ele>30.2</ele><time>2026-04-06T05:55:14Z</time></trkpt><trkpt lat="45.12592107836458" lon="10.00133147992901"><ele>29.6</ele><time>2026-04-06T05:55:16Z</time></trkpt><trkpt lat="45.12601222090118" lon="10.001216094406487"><ele>29.0</ele><time>2026-04-06T05:55:18Z</time></trkpt><trkpt lat="45.126103382629516" lon="10.00110346910469"><ele>29.0</ele><time>2026-04-06T05:55:20Z</time></trkpt><trkpt lat="45.12618811392799" lon="10.000987104636451"><ele>29.0</ele><time>2026-04-06T05:55:22Z</time></trkpt><trkpt lat="45.12627649243276" lon="10.000879762557066"><ele>29.0</ele><time>2026-04-06T05:55:24Z</time></trkpt><trkpt lat="45.12636299788291" lon="10.000768512443486"><ele>29.0</ele><time>2026-04-06T05:55:26Z</time></trkpt><trkpt lat="45.12645087475368" lon="10.00066917870925"><ele>29.0</ele><time>2026-04-06T05:55:28Z</time></trkpt><trkpt lat="45.126539258009835" lon="10.00056172405644"><ele>29.0</ele><time>2026-04-06T05:55:30Z</time></trkpt><trkpt lat="45.126628146889686" lon="10.000460451186864"><ele>29.0</ele><time>2026-04-06T05:55:32Z</time></trkpt><trkpt lat="45.1267233740339" lon="10.000364336106884"><ele>29.0</ele><time>2026-04-06T05:55:34Z</time></trkpt><trkpt lat="45.12681741285985" lon="10.000267723306525"><ele>29.0</ele><time>2026-04-06T05:55:36Z</time></trkpt><trkpt lat="45.12691544640058" lon="10.00017784534929"><ele>29.0</ele><time>2026-04-06T05:55:38Z</time></trkpt><trkpt lat="45.12701411721959" lon="10.000087211262834"><ele>29.0</ele><time>2026-04-06T05:55:40Z</time></trkpt><trkpt lat="45.127111203603384" lon="9.999998377922918"><ele>29.0</ele><time>2026-04-06T05:55:42Z</time></trkpt><trkpt lat="45.12721509096938" lon="9.999919762811476"><ele>29.0</ele><time>2026-04-06T05:55:44Z</time></trkpt><trkpt lat="45.127326940112006" lon="9.999857381967532"><ele>29.0</ele><time>2026-04-06T05:55:46Z</time></trkpt><trkpt lat="45.127439307410214" lon="9.99979599091072"><ele>29.0</ele><time>2026-04-06T05:55:48Z</time></trkpt><trkpt lat="45.12755605751257" lon="9.999765642496964"><ele>29.0</ele><time>2026-04-06T05:55:50Z</time></trkpt><trkpt lat="45.12767590704552" lon="9.999788136334976"><ele>31.5</ele><time>2026-04-06T05:55:52Z</time></trkpt><trkpt lat="45.12778738340221" lon="9.99985171412502"><ele>34.0</ele><time>2026-04-06T05:55:54Z</time></trkpt><trkpt lat="45.1278980420013" lon="9.999929245776384"><ele>36.5</ele><time>2026-04-06T05:55:56Z</time></trkpt><trkpt lat="45.1280087547629" lon="10.000004352754381"><ele>39.0</ele><time>2026-04-06T05:55:58Z</time></trkpt><trkpt lat="45.12812102814687" lon="10.00008181745942"><ele>39.0</ele><time>2026-04-06T05:56:00Z</time></trkpt><trkpt lat="45.128233654517004" lon="10.000160863962718"><ele>39.0</ele><time>2026-04-06T05:56:02Z</time></trkpt><trkpt lat="45.12834360130947" lon="10.00023968698306"><ele>39.0</ele><time>2026-04-06T05:56:04Z</time></trkpt><trkpt lat="45.12840049472123" lon="10.000278802516792"><ele>39.0</ele><time>2026-04-06T05:56:05Z</time></trkpt><trkpt lat="45.128510192682086" lon="10.000356218484121"><ele>39.0</ele><time>2026-04-06T05:56:07Z</time></trkpt><trkpt lat="45.12862107426326" lon="10.000432566294014"><ele>39.0</ele><time>2026-04-06T05:56:09Z</time></trkpt><trkpt lat="45.12873118473241" lon="10.00050553932069"><ele>39.0</ele><time>2026-04-06T05:56:11Z</time></trkpt><trkpt lat="45.128834412597094" lon="10.000583957682066"><ele>39.0</ele><time>2026-04-06T05:56:13Z</time></trkpt><trkpt lat="45.128936684878795" lon="10.000655120541458"><ele>39.0</ele><time>2026-04-06T05:56:14.999Z</time></trkpt><trkpt lat="45.12904166916174" lon="10.000730074038406"><ele>39.0</ele><time>2026-04-06T05:56:16.999Z</time></trkpt><trkpt lat="45.129144168826436" lon="10.000800631417105"><ele>39.0</ele><time>2026-04-06T05:56:18.999Z</time></trkpt><trkpt lat="45.12924392428672" lon="10.000871124562629"><ele>39.0</ele><time>2026-04-06T05:56:20.999Z</time></trkpt><trkpt lat="45.12933918436958" lon="10.000935867804024"><ele>39.0</ele><time>2026-04-06T05:56:22.999Z</time></trkpt><trkpt lat="45.12942861132788" lon="10.001001959146178"><ele>39.0</ele><time>2026-04-06T05:56:24.999Z</time></trkpt><trkpt lat="45.12951650799145" lon="10.001062989619804"><ele>39.0</ele><time>2026-04-06T05:56:26.999Z</time></trkpt><trkpt lat="45.12960070226191" lon="10.001116501253836"><ele>39.0</ele><time>2026-04-06T05:56:28.999Z</time></trkpt><trkpt lat="45.12968008242488" lon="10.001172310227874"><ele>39.0</ele><time>2026-04-06T05:56:30.999Z</time></trkpt><trkpt lat="45.1297574152636" lon="10.00122560515232"><ele>39.0</ele><time>2026-04-06T05:56:32.999Z</time></trkpt><trkpt lat="45.129825067722635" lon="10.001275319322728"><ele>39.0</ele><time>2026-04-06T05:56:34.999Z</time></trkpt><trkpt lat="45.12989071822532" lon="10.0013212914329"><ele>39.0</ele><time>2026-04-06T05:56:36.999Z</time></trkpt><trkpt lat="45.129951695327236" lon="10.001374313104638"><ele>39.166666666666664</ele><time>2026-04-06T05:56:38.999Z</time></trkpt><trkpt lat="45.13001253796194" lon="10.00142711357993"><ele>39.333333333333336</ele><time>2026-04-06T05:56:41.999Z</time></trkpt><trkpt lat="45.13006495655051" lon="10.001336544466385"><ele>39.5</ele><time>2026-04-06T06:02:05Z</time></trkpt><trkpt lat="45.13013436573798" lon="10.00129055117577"><ele>39.66666666666667</ele><time>2026-04-06T06:02:08Z</time></trkpt><trkpt lat="45.13020004409042" lon="10.001198292924135"><ele>39.833333333333336</ele><time>2026-04-06T06:02:11Z</time></trkpt><trkpt lat="45.13023741048326" lon="10.001104733747937"><ele>40.0</ele><time>2026-04-06T06:02:13Z</time></trkpt><trkpt lat="45.13027973880434" lon="10.001007092886034"><ele>40.0</ele><time>2026-04-06T06:02:15Z</time></trkpt><trkpt lat="45.13031818011123" lon="10.000898061510343"><ele>40.0</ele><time>2026-04-06T06:02:17Z</time></trkpt><trkpt lat="45.13035829944879" lon="10.000775652730448"><ele>40.0</ele><time>2026-04-06T06:02:19Z</time></trkpt><trkpt lat="45.130394642767605" lon="10.000651178024247"><ele>40.0</ele><time>2026-04-06T06:02:21Z</time></trkpt><trkpt lat="45.13041886600601" lon="10.000518557504607"><ele>40.0</ele><time>2026-04-06T06:02:22.999Z</time></trkpt><trkpt lat="45.13042653117922" lon="10.000381986387424"><ele>40.2</ele><time>2026-04-06T06:02:24.999Z</time></trkpt><trkpt lat="45.130419602320536" lon="10.000247760841422"><ele>40.4</ele><time>2026-04-06T06:02:26.999Z</time></trkpt><trkpt lat="45.13040748744528" lon="10.000111044757348"><ele>40.599999999999994</ele><time>2026-04-06T06:02:28.999Z</time></trkpt><trkpt lat="45.13040072150464" lon="9.999975305355017"><ele>40.8</ele><time>2026-04-06T06:02:30.999Z</time></trkpt><trkpt lat="45.130385037998934" lon="9.999835938659627"><ele>41.0</ele><time>2026-04-06T06:02:32.999Z</time></trkpt><trkpt lat="45.13037462023111" lon="9.999697023816415"><ele>41.0</ele><time>2026-04-06T06:02:34.999Z</time></trkpt><trkpt lat="45.130359620341814" lon="9.999560048556603"><ele>41.0</ele><time>2026-04-06T06:02:36.999Z</time></trkpt><trkpt lat="45.13034809879451" lon="9.999422366034953"><ele>41.0</ele><time>2026-04-06T06:02:38.999Z</time></trkpt><trkpt lat="45.130331907736085" lon="9.999289437181256"><ele>41.0</ele><time>2026-04-06T06:02:40.999Z</time></trkpt><trkpt lat="45.13031613666208" lon="9.99915468560527"><ele>41.0</ele><time>2026-04-06T06:02:42.999Z</time></trkpt><trkpt lat="45.13030117557557" lon="9.99901867180279"><ele>41.0</ele><time>2026-04-06T06:02:44.999Z</time></trkpt><trkpt lat="45.13028245128956" lon="9.998882349571847"><ele>41.0</ele><time>2026-04-06T06:02:46.999Z</time></trkpt><trkpt lat="45.13026675971697" lon="9.998745889608253"><ele>41.0</ele><time>2026-04-06T06:02:48.999Z</time></trkpt><trkpt lat="45.13025403543312" lon="9.99860859153144"><ele>41.0</ele><time>2026-04-06T06:02:50.999Z</time></trkpt><trkpt lat="45.13023691957966" lon="9.99847095805907"><ele>41.0</ele><time>2026-04-06T06:02:52.999Z</time></trkpt><trkpt lat="45.13022474141029" lon="9.998332703713146"><ele>40.8</ele><time>2026-04-06T06:02:54.999Z</time></trkpt><trkpt lat="45.13020993420408" lon="9.998195163225054"><ele>40.599999999999994</ele><time>2026-04-06T06:02:56.999Z</time></trkpt><trkpt lat="45.130197859338374" lon="9.998057747475514"><ele>40.4</ele><time>2026-04-06T06:02:58.999Z</time></trkpt><trkpt lat="45.130183865369965" lon="9.99792180924868"><ele>40.2</ele><time>2026-04-06T06:03:00.999Z</time></trkpt><trkpt lat="45.13016762412102" lon="9.997782848712776"><ele>40.0</ele><time>2026-04-06T06:03:02.999Z</time></trkpt><trkpt lat="45.130158028278" lon="9.997648868179922"><ele>40.0</ele><time>2026-04-06T06:03:04.999Z</time></trkpt><trkpt lat="45.13019283147566" lon="9.997498117968966"><ele>40.0</ele><time>2026-04-06T06:03:06.999Z</time></trkpt><trkpt lat="45.130178045759536" lon="9.99736066557459"><ele>40.0</ele><time>2026-04-06T06:03:08.999Z</time></trkpt><trkpt lat="45.130163560061575" lon="9.997226002318797"><ele>40.0</ele><time>2026-04-06T06:03:10.999Z</time></trkpt><trkpt lat="45.130149010796295" lon="9.997090747944128"><ele>40.0</ele><time>2026-04-06T06:03:12.999Z</time></trkpt><trkpt lat="45.13006849713464" lon="9.997037383653916"><ele>40.0</ele><time>2026-04-06T06:03:13.999Z</time></trkpt><trkpt lat="45.13005187603657" lon="9.99689273317918"><ele>40.0</ele><time>2026-04-06T06:03:15.999Z</time></trkpt><trkpt lat="45.13003719926977" lon="9.996744706522286"><ele>40.0</ele><time>2026-04-06T06:03:17.999Z</time></trkpt><trkpt lat="45.13002104627496" lon="9.996593517117613"><ele>40.0</ele><time>2026-04-06T06:03:19.999Z</time></trkpt><trkpt lat="45.130003541480235" lon="9.996446219661731"><ele>40.0</ele><time>2026-04-06T06:03:21.999Z</time></trkpt><trkpt lat="45.12995338865777" lon="9.996290285696231"><ele>39.6</ele><time>2026-04-06T06:03:23.999Z</time></trkpt><trkpt lat="45.12990609684684" lon="9.996172045175136"><ele>39.2</ele><time>2026-04-06T06:03:25.998Z</time></trkpt><trkpt lat="45.12986907977724" lon="9.99609352222655"><ele>38.8</ele><time>2026-04-06T06:03:26.998Z</time></trkpt><trkpt lat="45.12979309350069" lon="9.995996385884728"><ele>38.4</ele><time>2026-04-06T06:03:28.998Z</time></trkpt><trkpt lat="45.129709531414036" lon="9.99590942599981"><ele>38.0</ele><time>2026-04-06T06:03:30.998Z</time></trkpt><trkpt lat="45.129630988178064" lon="9.995851856171887"><ele>37.4</ele><time>2026-04-06T06:03:33Z</time></trkpt><trkpt lat="45.129554968076356" lon="9.995803933524549"><ele>36.8</ele><time>2026-04-06T06:03:35Z</time></trkpt><trkpt lat="45.12947264769683" lon="9.995724161088757"><ele>36.2</ele><time>2026-04-06T06:03:37Z</time></trkpt><trkpt lat="45.12938735871618" lon="9.995650422968625"><ele>35.6</ele><time>2026-04-06T06:03:39Z</time></trkpt><trkpt lat="45.12929969121806" lon="9.99557269002709"><ele>35.0</ele><time>2026-04-06T06:03:41Z</time></trkpt><trkpt lat="45.12920353731165" lon="9.995492736952002"><ele>35.0</ele><time>2026-04-06T06:03:43Z</time></trkpt><trkpt lat="45.12911054079785" lon="9.995409943398197"><ele>35.0</ele><time>2026-04-06T06:03:45Z</time></trkpt><trkpt lat="45.1290127977397" lon="9.995327458489157"><ele>35.0</ele><time>2026-04-06T06:03:47Z</time></trkpt><trkpt lat="45.12891723205264" lon="9.995241492749653"><ele>35.0</ele><time>2026-04-06T06:03:49Z</time></trkpt><trkpt lat="45.12884625746646" lon="9.995101011859429"><ele>34.5</ele><time>2026-04-06T06:03:51Z</time></trkpt><trkpt lat="45.128749034662405" lon="9.995017632854061"><ele>34.0</ele><time>2026-04-06T06:03:53Z</time></trkpt><trkpt lat="45.1286530963868" lon="9.99493447719133"><ele>33.5</ele><time>2026-04-06T06:03:55Z</time></trkpt><trkpt lat="45.1285542123626" lon="9.994848559935265"><ele>33.0</ele><time>2026-04-06T06:03:57Z</time></trkpt><trkpt lat="45.12845580097319" lon="9.994763053235244"><ele>31.75</ele><time>2026-04-06T06:03:59Z</time></trkpt><trkpt lat="45.12835885926184" lon="9.994678823540504"><ele>30.5</ele><time>2026-04-06T06:04:01Z</time></trkpt><trkpt lat="45.12825690987608" lon="9.994591004630088"><ele>29.25</ele><time>2026-04-06T06:04:03Z</time></trkpt><trkpt lat="45.12815455290432" lon="9.994502909329867"><ele>28.0</ele><time>2026-04-06T06:04:05Z</time></trkpt><trkpt lat="45.12805416297328" lon="9.994416506949488"><ele>28.0</ele><time>2026-04-06T06:04:07Z</time></trkpt><trkpt lat="45.12795250115354" lon="9.994329129132277"><ele>28.0</ele><time>2026-04-06T06:04:09Z</time></trkpt><trkpt lat="45.127854624402396" lon="9.99424511106972"><ele>28.0</ele><time>2026-04-06T06:04:11Z</time></trkpt><trkpt lat="45.127755289480305" lon="9.99415961010749"><ele>28.0</ele><time>2026-04-06T06:04:13Z</time></trkpt><trkpt lat="45.12765743050947" lon="9.994075216508008"><ele>28.0</ele><time>2026-04-06T06:04:15Z</time></trkpt><trkpt lat="45.127555830379066" lon="9.99398759643586"><ele>28.0</ele><time>2026-04-06T06:04:17Z</time></trkpt><trkpt lat="45.127456455934656" lon="9.993901895878539"><ele>28.0</ele><time>2026-04-06T06:04:19Z</time></trkpt><trkpt lat="45.127353680155835" lon="9.993813261948363"><ele>28.0</ele><time>2026-04-06T06:04:21Z</time></trkpt><trkpt lat="45.12725296118441" lon="9.99372640184724"><ele>30.25</ele><time>2026-04-06T06:04:23Z</time></trkpt><trkpt lat="45.12715228970633" lon="9.993639602802332"><ele>32.5</ele><time>2026-04-06T06:04:25Z</time></trkpt><trkpt lat="45.127050621738505" lon="9.993552261148613"><ele>34.75</ele><time>2026-04-06T06:04:27Z</time></trkpt><trkpt lat="45.12694930985321" lon="9.993465225403883"><ele>37.0</ele><time>2026-04-06T06:04:29Z</time></trkpt><trkpt lat="45.1268530571836" lon="9.99338213783869"><ele>37.5</ele><time>2026-04-06T06:04:30.999Z</time></trkpt><trkpt lat="45.1267486557095" lon="9.993291699174208"><ele>38.0</ele><time>2026-04-06T06:04:32.999Z</time></trkpt><trkpt lat="45.12664575379889" lon="9.99320255949984"><ele>38.5</ele><time>2026-04-06T06:04:34.999Z</time></trkpt><trkpt lat="45.12654503393605" lon="9.993115310178819"><ele>39.0</ele><time>2026-04-06T06:04:36.999Z</time></trkpt><trkpt lat="45.12644142019263" lon="9.993026318246557"><ele>39.0</ele><time>2026-04-06T06:04:38.999Z</time></trkpt><trkpt lat="45.12633816086742" lon="9.99293791649455"><ele>39.0</ele><time>2026-04-06T06:04:40.999Z</time></trkpt><trkpt lat="45.12623680955154" lon="9.99285114828442"><ele>39.0</ele><time>2026-04-06T06:04:42.999Z</time></trkpt><trkpt lat="45.126132789138325" lon="9.992762094961881"><ele>39.0</ele><time>2026-04-06T06:04:44.999Z</time></trkpt><trkpt lat="45.126027914458064" lon="9.992672310340462"><ele>39.0</ele><time>2026-04-06T06:04:46.999Z</time></trkpt><trkpt lat="45.125923504429934" lon="9.992582447247218"><ele>39.0</ele><time>2026-04-06T06:04:48.999Z</time></trkpt><trkpt lat="45.12582124694665" lon="9.992494382756684"><ele>39.0</ele><time>2026-04-06T06:04:50.999Z</time></trkpt><trkpt lat="45.12571785863215" lon="9.99240534431948"><ele>39.0</ele><time>2026-04-06T06:04:52.999Z</time></trkpt><trkpt lat="45.125614882622045" lon="9.992317777340908"><ele>39.5</ele><time>2026-04-06T06:04:54.999Z</time></trkpt><trkpt lat="45.125514536415444" lon="9.992232444880946"><ele>40.0</ele><time>2026-04-06T06:04:56.999Z</time></trkpt><trkpt lat="45.12541193882681" lon="9.99214339309734"><ele>40.5</ele><time>2026-04-06T06:04:58.999Z</time></trkpt><trkpt lat="45.12530940269124" lon="9.992053537277686"><ele>41.0</ele><time>2026-04-06T06:05:00.999Z</time></trkpt><trkpt lat="45.125207561458716" lon="9.991964290394291"><ele>41.0</ele><time>2026-04-06T06:05:02.999Z</time></trkpt><trkpt lat="45.12510523398344" lon="9.991876193331633"><ele>41.0</ele><time>2026-04-06T06:05:04.999Z</time></trkpt><trkpt lat="45.12499981429329" lon="9.991785988818242"><ele>41.0</ele><time>2026-04-06T06:05:06.999Z</time></trkpt><trkpt lat="45.12489563210428" lon="9.991696843247814"><ele>41.0</ele><time>2026-04-06T06:05:08.999Z</time></trkpt><trkpt lat="45.12479357179856" lon="9.991608382708895"><ele>40.5</ele><time>2026-04-06T06:05:10.999Z</time></trkpt><trkpt lat="45.124692221612314" lon="9.99152018202452"><ele>40.0</ele><time>2026-04-06T06:05:12.999Z</time></trkpt><trkpt lat="45.124589766766555" lon="9.991431363434884"><ele>39.5</ele><time>2026-04-06T06:05:14.999Z</time></trkpt><trkpt lat="45.124482723242735" lon="9.99133922285334"><ele>39.0</ele><time>2026-04-06T06:05:16.999Z</time></trkpt><trkpt lat="45.124379422694766" lon="9.991250304140674"><ele>39.0</ele><time>2026-04-06T06:05:18.999Z</time></trkpt><trkpt lat="45.1242761900929" lon="9.991161443898502"><ele>39.0</ele><time>2026-04-06T06:05:20.999Z</time></trkpt><trkpt lat="45.12417169767841" lon="9.991071499242455"><ele>39.0</ele><time>2026-04-06T06:05:22.999Z</time></trkpt><trkpt lat="45.1240700382796" lon="9.990983993205143"><ele>39.0</ele><time>2026-04-06T06:05:24.999Z</time></trkpt><trkpt lat="45.12396956775266" lon="9.990897510498899"><ele>39.25</ele><time>2026-04-06T06:05:26.999Z</time></trkpt><trkpt lat="45.123868137027536" lon="9.99081020127744"><ele>39.5</ele><time>2026-04-06T06:05:28.999Z</time></trkpt><trkpt lat="45.12376591594722" lon="9.990722211695337"><ele>39.75</ele><time>2026-04-06T06:05:30.999Z</time></trkpt><trkpt lat="45.123666600834426" lon="9.990636723565673"><ele>40.0</ele><time>2026-04-06T06:05:32.998Z</time></trkpt><trkpt lat="45.12356948750403" lon="9.99055290055482"><ele>40.0</ele><time>2026-04-06T06:05:34.998Z</time></trkpt><trkpt lat="45.12346717783011" lon="9.990464150377912"><ele>40.0</ele><time>2026-04-06T06:05:36.998Z</time></trkpt><trkpt lat="45.12336453486001" lon="9.990375111036489"><ele>40.0</ele><time>2026-04-06T06:05:39Z</time></trkpt><trkpt lat="45.123262785063595" lon="9.99028684657663"><ele>40.0</ele><time>2026-04-06T06:05:41Z</time></trkpt><trkpt lat="45.12316530309803" lon="9.99020228426553"><ele>40.0</ele><time>2026-04-06T06:05:43Z</time></trkpt><trkpt lat="45.123064310383945" lon="9.990114676512876"><ele>40.0</ele><time>2026-04-06T06:05:45Z</time></trkpt><trkpt lat="45.1229631952643" lon="9.99002696251304"><ele>40.0</ele><time>2026-04-06T06:05:47Z</time></trkpt><trkpt lat="45.12286143858885" lon="9.989939313515967"><ele>40.0</ele><time>2026-04-06T06:05:49Z</time></trkpt><trkpt lat="45.12276223523537" lon="9.989853993417935"><ele>40.0</ele><time>2026-04-06T06:05:51Z</time></trkpt><trkpt lat="45.122661610623574" lon="9.989767451527415"><ele>40.0</ele><time>2026-04-06T06:05:53Z</time></trkpt><trkpt lat="45.12256066539782" lon="9.989680633649064"><ele>40.0</ele><time>2026-04-06T06:05:55Z</time></trkpt><trkpt lat="45.12246136448994" lon="9.989594529055134"><ele>40.0</ele><time>2026-04-06T06:05:57Z</time></trkpt><trkpt lat="45.12236386789454" lon="9.989508258338953"><ele>39.25</ele><time>2026-04-06T06:05:59Z</time></trkpt><trkpt lat="45.12226592113768" lon="9.989424023659716"><ele>38.5</ele><time>2026-04-06T06:06:01Z</time></trkpt><trkpt lat="45.122168495782596" lon="9.98934762774289"><ele>37.75</ele><time>2026-04-06T06:06:03Z</time></trkpt><trkpt lat="45.122071258970145" lon="9.989275537798916"><ele>37.0</ele><time>2026-04-06T06:06:05Z</time></trkpt><trkpt lat="45.12196118500544" lon="9.989206102423026"><ele>36.85714285714286</ele><time>2026-04-06T06:06:07Z</time></trkpt><trkpt lat="45.121846628070486" lon="9.989168781606724"><ele>36.714285714285715</ele><time>2026-04-06T06:06:09Z</time></trkpt><trkpt lat="45.121779176455064" lon="9.989158678035402"><ele>36.57142857142857</ele><time>2026-04-06T06:06:10Z</time></trkpt><trkpt lat="45.12171496555443" lon="9.989155280004201"><ele>36.42857142857143</ele><time>2026-04-06T06:06:11Z</time></trkpt><trkpt lat="45.12164967114414" lon="9.989159254066518"><ele>36.285714285714285</ele><time>2026-04-06T06:06:12Z</time></trkpt><trkpt lat="45.12158218958487" lon="9.989175293356295"><ele>36.142857142857146</ele><time>2026-04-06T06:06:13Z</time></trkpt><trkpt lat="45.12151906018043" lon="9.989198137199706"><ele>36.0</ele><time>2026-04-06T06:06:14Z</time></trkpt><trkpt lat="45.12145317383011" lon="9.989232203895805"><ele>36.0</ele><time>2026-04-06T06:06:15Z</time></trkpt><trkpt lat="45.121393812003554" lon="9.989265738461414"><ele>36.0</ele><time>2026-04-06T06:06:16Z</time></trkpt><trkpt lat="45.12133502632475" lon="9.98930040694745"><ele>36.0</ele><time>2026-04-06T06:06:17Z</time></trkpt><trkpt lat="45.121275853460126" lon="9.989335303779106"><ele>36.0</ele><time>2026-04-06T06:06:18Z</time></trkpt><trkpt lat="45.121159567815475" lon="9.98940489288074"><ele>36.0</ele><time>2026-04-06T06:06:20Z</time></trkpt><trkpt lat="45.12104844178145" lon="9.989472380264159"><ele>36.0</ele><time>2026-04-06T06:06:22Z</time></trkpt><trkpt lat="45.120941917928924" lon="9.989537072662847"><ele>36.0</ele><time>2026-04-06T06:06:24Z</time></trkpt><trkpt lat="45.12086299707279" lon="9.989585001486086"><ele>36.0</ele><time>2026-04-06T06:06:26Z</time></trkpt><trkpt lat="45.12079283849353" lon="9.989627608720502"><ele>36.0</ele><time>2026-04-06T06:06:28Z</time></trkpt><trkpt lat="45.12070178410372" lon="9.989674553097265"><ele>36.0</ele><time>2026-04-06T06:06:30Z</time></trkpt><trkpt lat="45.1205973475425" lon="9.989719310798694"><ele>36.0</ele><time>2026-04-06T06:06:32Z</time></trkpt><trkpt lat="45.12048464766266" lon="9.98978261971392"><ele>36.42857142857143</ele><time>2026-04-06T06:06:34Z</time></trkpt><trkpt lat="45.12042514181102" lon="9.989819202688615"><ele>36.85714285714286</ele><time>2026-04-06T06:06:35Z</time></trkpt><trkpt lat="45.120364610069764" lon="9.989856690625647"><ele>37.28571428571429</ele><time>2026-04-06T06:06:35.999Z</time></trkpt><trkpt lat="45.120304322084365" lon="9.989896363923647"><ele>37.714285714285715</ele><time>2026-04-06T06:06:36.999Z</time></trkpt><trkpt lat="45.12024465941578" lon="9.989933402468587"><ele>38.14285714285714</ele><time>2026-04-06T06:06:37.999Z</time></trkpt><trkpt lat="45.1201815043806" lon="9.989969078010134"><ele>38.57142857142858</ele><time>2026-04-06T06:06:38.999Z</time></trkpt><trkpt lat="45.12011629107084" lon="9.990003968113443"><ele>39.0</ele><time>2026-04-06T06:06:39.999Z</time></trkpt><trkpt lat="45.12005073802014" lon="9.990041661012716"><ele>39.0</ele><time>2026-04-06T06:06:40.999Z</time></trkpt><trkpt lat="45.11998579170309" lon="9.990080528913026"><ele>39.0</ele><time>2026-04-06T06:06:41.999Z</time></trkpt><trkpt lat="45.11991938567668" lon="9.990117980623545"><ele>39.0</ele><time>2026-04-06T06:06:42.999Z</time></trkpt><trkpt lat="45.11985276039462" lon="9.990155181518755"><ele>39.0</ele><time>2026-04-06T06:06:43.999Z</time></trkpt><trkpt lat="45.119785797490906" lon="9.990193636596308"><ele>39.0</ele><time>2026-04-06T06:06:44.999Z</time></trkpt><trkpt lat="45.11971873216537" lon="9.990233602016575"><ele>39.0</ele><time>2026-04-06T06:06:45.999Z</time></trkpt><trkpt lat="45.119651820903755" lon="9.99027471746093"><ele>39.0</ele><time>2026-04-06T06:06:46.999Z</time></trkpt><trkpt lat="45.11958468372478" lon="9.990316909091293"><ele>38.57142857142858</ele><time>2026-04-06T06:06:47.999Z</time></trkpt><trkpt lat="45.11951906782421" lon="9.99035886055477"><ele>38.14285714285714</ele><time>2026-04-06T06:06:48.999Z</time></trkpt><trkpt lat="45.11945184137178" lon="9.990402394263418"><ele>37.714285714285715</ele><time>2026-04-06T06:06:49.999Z</time></trkpt><trkpt lat="45.11938494196432" lon="9.990443429974606"><ele>37.28571428571429</ele><time>2026-04-06T06:06:50.999Z</time></trkpt><trkpt lat="45.11932118710953" lon="9.990483701679818"><ele>36.85714285714286</ele><time>2026-04-06T06:06:51.999Z</time></trkpt><trkpt lat="45.119253581032474" lon="9.99052318569547"><ele>36.42857142857143</ele><time>2026-04-06T06:06:52.999Z</time></trkpt><trkpt lat="45.11918882429513" lon="9.990566566089335"><ele>36.0</ele><time>2026-04-06T06:06:53.999Z</time></trkpt><trkpt lat="45.11912336808552" lon="9.990605447394111"><ele>36.00000000000001</ele><time>2026-04-06T06:06:54.999Z</time></trkpt><trkpt lat="45.11905704390847" lon="9.990639121203472"><ele>36.0</ele><time>2026-04-06T06:06:55.999Z</time></trkpt><trkpt lat="45.11899129114902" lon="9.990677693258663"><ele>36.0</ele><time>2026-04-06T06:06:56.999Z</time></trkpt><trkpt lat="45.11892527291189" lon="9.990717305162844"><ele>36.0</ele><time>2026-04-06T06:06:57.999Z</time></trkpt><trkpt lat="45.11885844403811" lon="9.99075680650362"><ele>36.0</ele><time>2026-04-06T06:06:58.999Z</time></trkpt><trkpt lat="45.118792467843576" lon="9.990797314246473"><ele>36.00000000000001</ele><time>2026-04-06T06:06:59.999Z</time></trkpt><trkpt lat="45.118726356266464" lon="9.990836521210344"><ele>36.0</ele><time>2026-04-06T06:07:00.999Z</time></trkpt><trkpt lat="45.11866036476279" lon="9.99087566080496"><ele>35.714285714285715</ele><time>2026-04-06T06:07:01.999Z</time></trkpt><trkpt lat="45.1185950847455" lon="9.990918087154542"><ele>35.42857142857143</ele><time>2026-04-06T06:07:02.999Z</time></trkpt><trkpt lat="45.118528468957" lon="9.990957736467031"><ele>35.14285714285714</ele><time>2026-04-06T06:07:03.999Z</time></trkpt><trkpt lat="45.11846180827161" lon="9.990998940383752"><ele>34.85714285714286</ele><time>2026-04-06T06:07:04.999Z</time></trkpt><trkpt lat="45.11839464112589" lon="9.991039178459097"><ele>34.57142857142857</ele><time>2026-04-06T06:07:05.999Z</time></trkpt><trkpt lat="45.118328479304296" lon="9.991081343094278"><ele>34.285714285714285</ele><time>2026-04-06T06:07:06.999Z</time></trkpt><trkpt lat="45.118262814003536" lon="9.991120137140896"><ele>34.0</ele><time>2026-04-06T06:07:07.999Z</time></trkpt><trkpt lat="45.11819497511387" lon="9.991158831870305"><ele>34.71428571428571</ele><time>2026-04-06T06:07:08.999Z</time></trkpt><trkpt lat="45.11812803744802" lon="9.991199469634065"><ele>35.42857142857143</ele><time>2026-04-06T06:07:09.999Z</time></trkpt><trkpt lat="45.1180623409884" lon="9.991240694365336"><ele>36.14285714285714</ele><time>2026-04-06T06:07:10.999Z</time></trkpt><trkpt lat="45.11799587299049" lon="9.991282382448883"><ele>36.857142857142854</ele><time>2026-04-06T06:07:11.999Z</time></trkpt><trkpt lat="45.11792942104516" lon="9.991322126072426"><ele>37.57142857142857</ele><time>2026-04-06T06:07:12.999Z</time></trkpt><trkpt lat="45.11786228505209" lon="9.991360401151436"><ele>38.285714285714285</ele><time>2026-04-06T06:07:13.999Z</time></trkpt><trkpt lat="45.11779551395567" lon="9.991397463903503"><ele>39.0</ele><time>2026-04-06T06:07:14.999Z</time></trkpt><trkpt lat="45.11772873625949" lon="9.991436851312574"><ele>39.0</ele><time>2026-04-06T06:07:15.999Z</time></trkpt><trkpt lat="45.11766380569733" lon="9.99147885920456"><ele>39.0</ele><time>2026-04-06T06:07:16.999Z</time></trkpt><trkpt lat="45.11759687428133" lon="9.991516791475446"><ele>39.0</ele><time>2026-04-06T06:07:17.999Z</time></trkpt><trkpt lat="45.11752906008364" lon="9.991555533944178"><ele>39.0</ele><time>2026-04-06T06:07:18.999Z</time></trkpt><trkpt lat="45.11746193571929" lon="9.991597115303842"><ele>39.0</ele><time>2026-04-06T06:07:19.999Z</time></trkpt><trkpt lat="45.11739439469285" lon="9.991636165932816"><ele>39.0</ele><time>2026-04-06T06:07:20.999Z</time></trkpt><trkpt lat="45.11732519555432" lon="9.99167636572645"><ele>39.0</ele><time>2026-04-06T06:07:21.999Z</time></trkpt><trkpt lat="45.11725833684145" lon="9.991717880984384"><ele>39.0</ele><time>2026-04-06T06:07:22.999Z</time></trkpt><trkpt lat="45.11719062996687" lon="9.991759227070993"><ele>39.0</ele><time>2026-04-06T06:07:23.999Z</time></trkpt><trkpt lat="45.117122066753694" lon="9.991799608467398"><ele>39.0</ele><time>2026-04-06T06:07:24.999Z</time></trkpt><trkpt lat="45.11705544739754" lon="9.991842204727899"><ele>39.0</ele><time>2026-04-06T06:07:25.999Z</time></trkpt><trkpt lat="45.11698627953473" lon="9.991880896025027"><ele>39.0</ele><time>2026-04-06T06:07:26.999Z</time></trkpt><trkpt lat="45.11691848057378" lon="9.99192042540573"><ele>39.0</ele><time>2026-04-06T06:07:27.999Z</time></trkpt><trkpt lat="45.11684989250384" lon="9.991962743107228"><ele>39.0</ele><time>2026-04-06T06:07:28.999Z</time></trkpt><trkpt lat="45.116781910655725" lon="9.992006449543506"><ele>39.0</ele><time>2026-04-06T06:07:29.999Z</time></trkpt><trkpt lat="45.11671385588581" lon="9.99204240808557"><ele>39.0</ele><time>2026-04-06T06:07:30.999Z</time></trkpt><trkpt lat="45.1166436695673" lon="9.99208192330295"><ele>39.0</ele><time>2026-04-06T06:07:31.999Z</time></trkpt><trkpt lat="45.116574943222844" lon="9.992124253068468"><ele>39.0</ele><time>2026-04-06T06:07:32.999Z</time></trkpt><trkpt lat="45.11650737165016" lon="9.99216341918351"><ele>39.0</ele><time>2026-04-06T06:07:33.999Z</time></trkpt><trkpt lat="45.11643795377754" lon="9.992205216589864"><ele>39.0</ele><time>2026-04-06T06:07:34.999Z</time></trkpt><trkpt lat="45.11636840272738" lon="9.992246006025157"><ele>39.0</ele><time>2026-04-06T06:07:35.999Z</time></trkpt><trkpt lat="45.1163001876529" lon="9.992286227245794"><ele>39.0</ele><time>2026-04-06T06:07:36.998Z</time></trkpt><trkpt lat="45.11623234452115" lon="9.992325466326982"><ele>39.0</ele><time>2026-04-06T06:07:37.998Z</time></trkpt><trkpt lat="45.11616450082504" lon="9.992368587171251"><ele>39.0</ele><time>2026-04-06T06:07:38.998Z</time></trkpt><trkpt lat="45.11609477872536" lon="9.992408540693017"><ele>39.0</ele><time>2026-04-06T06:07:39.998Z</time></trkpt><trkpt lat="45.11602578416673" lon="9.992450103927863"><ele>39.0</ele><time>2026-04-06T06:07:40.998Z</time></trkpt><trkpt lat="45.11595622182625" lon="9.992489796158635"><ele>39.0</ele><time>2026-04-06T06:07:41.998Z</time></trkpt><trkpt lat="45.11588481727608" lon="9.992531062573027"><ele>39.0</ele><time>2026-04-06T06:07:42.998Z</time></trkpt><trkpt lat="45.11581776417226" lon="9.992572980497966"><ele>39.0</ele><time>2026-04-06T06:07:43.998Z</time></trkpt><trkpt lat="45.11574752565101" lon="9.99261708547492"><ele>39.0</ele><time>2026-04-06T06:07:45Z</time></trkpt><trkpt lat="45.11567605118595" lon="9.99265712512186"><ele>39.0</ele><time>2026-04-06T06:07:46Z</time></trkpt><trkpt lat="45.11560814013619" lon="9.992700870450632"><ele>39.0</ele><time>2026-04-06T06:07:47Z</time></trkpt><trkpt lat="45.1155369021171" lon="9.992741384697391"><ele>39.0</ele><time>2026-04-06T06:07:48Z</time></trkpt><trkpt lat="45.11546237922698" lon="9.992784017006615"><ele>39.166666666666664</ele><time>2026-04-06T06:07:49Z</time></trkpt><trkpt lat="45.11539226588467" lon="9.992826074796755"><ele>39.333333333333336</ele><time>2026-04-06T06:07:50Z</time></trkpt><trkpt lat="45.11531530390947" lon="9.992866937819915"><ele>39.5</ele><time>2026-04-06T06:07:51Z</time></trkpt><trkpt lat="45.11524456964179" lon="9.992912410820976"><ele>39.66666666666667</ele><time>2026-04-06T06:07:52Z</time></trkpt><trkpt lat="45.115172934533916" lon="9.992955453097009"><ele>39.833333333333336</ele><time>2026-04-06T06:07:53Z</time></trkpt><trkpt lat="45.11510135404172" lon="9.99300120651962"><ele>40.0</ele><time>2026-04-06T06:07:54Z</time></trkpt><trkpt lat="45.11502943524282" lon="9.993043515218046"><ele>40.0</ele><time>2026-04-06T06:07:55Z</time></trkpt><trkpt lat="45.11495759280875" lon="9.993089508509877"><ele>40.0</ele><time>2026-04-06T06:07:56Z</time></trkpt><trkpt lat="45.11488538131444" lon="9.993132258007732"><ele>40.0</ele><time>2026-04-06T06:07:57Z</time></trkpt><trkpt lat="45.11481332426827" lon="9.993176614724334"><ele>40.0</ele><time>2026-04-06T06:07:58Z</time></trkpt><trkpt lat="45.11474211354027" lon="9.993221817172671"><ele>40.0</ele><time>2026-04-06T06:07:59Z</time></trkpt><trkpt lat="45.114668407726604" lon="9.993263477110863"><ele>40.0</ele><time>2026-04-06T06:08:00Z</time></trkpt><trkpt lat="45.1145966661896" lon="9.993305542302505"><ele>39.833333333333336</ele><time>2026-04-06T06:08:01Z</time></trkpt><trkpt lat="45.1145237724451" lon="9.993348772683058"><ele>39.66666666666667</ele><time>2026-04-06T06:08:02Z</time></trkpt><trkpt lat="45.11445125468818" lon="9.99339080300433"><ele>39.5</ele><time>2026-04-06T06:08:03Z</time></trkpt><trkpt lat="45.114379498570834" lon="9.993434772360125"><ele>39.333333333333336</ele><time>2026-04-06T06:08:04Z</time></trkpt><trkpt lat="45.114306588785226" lon="9.993477796603308"><ele>39.166666666666664</ele><time>2026-04-06T06:08:05Z</time></trkpt><trkpt lat="45.114236233348684" lon="9.993522927516453"><ele>39.0</ele><time>2026-04-06T06:08:06Z</time></trkpt><trkpt lat="45.114162963120016" lon="9.993565961457405"><ele>39.0</ele><time>2026-04-06T06:08:07Z</time></trkpt><trkpt lat="45.1140892881796" lon="9.99360916308136"><ele>39.0</ele><time>2026-04-06T06:08:08Z</time></trkpt><trkpt lat="45.11401528879919" lon="9.993652395972717"><ele>39.0</ele><time>2026-04-06T06:08:09Z</time></trkpt><trkpt lat="45.113942646060394" lon="9.993699574700017"><ele>39.0</ele><time>2026-04-06T06:08:10Z</time></trkpt><trkpt lat="45.113869628962426" lon="9.993746769579534"><ele>39.0</ele><time>2026-04-06T06:08:11Z</time></trkpt><trkpt lat="45.11379705822446" lon="9.99379287630816"><ele>39.0</ele><time>2026-04-06T06:08:12Z</time></trkpt><trkpt lat="45.11372448590486" lon="9.993837980231227"><ele>39.0</ele><time>2026-04-06T06:08:13Z</time></trkpt><trkpt lat="45.11364992665037" lon="9.993878004262026"><ele>39.0</ele><time>2026-04-06T06:08:14Z</time></trkpt><trkpt lat="45.113576576019916" lon="9.993919563692312"><ele>39.0</ele><time>2026-04-06T06:08:15Z</time></trkpt><trkpt lat="45.11349875718025" lon="9.993960638529032"><ele>39.0</ele><time>2026-04-06T06:08:16Z</time></trkpt><trkpt lat="45.1134238909286" lon="9.994004274773895"><ele>39.0</ele><time>2026-04-06T06:08:17Z</time></trkpt><trkpt lat="45.1133493510812" lon="9.994049600280109"><ele>39.0</ele><time>2026-04-06T06:08:18Z</time></trkpt><trkpt lat="45.1132742685407" lon="9.994093944801064"><ele>39.166666666666664</ele><time>2026-04-06T06:08:19Z</time></trkpt><trkpt lat="45.11319956864362" lon="9.994138606314708"><ele>39.333333333333336</ele><time>2026-04-06T06:08:20Z</time></trkpt><trkpt lat="45.113125945338396" lon="9.994184219826566"><ele>39.5</ele><time>2026-04-06T06:08:21Z</time></trkpt><trkpt lat="45.113051052919836" lon="9.994227652500808"><ele>39.66666666666667</ele><time>2026-04-06T06:08:22Z</time></trkpt><trkpt lat="45.11297644932987" lon="9.994272337471584"><ele>39.833333333333336</ele><time>2026-04-06T06:08:23Z</time></trkpt><trkpt lat="45.112902942981265" lon="9.99431647712046"><ele>40.0</ele><time>2026-04-06T06:08:24Z</time></trkpt><trkpt lat="45.11282850391373" lon="9.994362651862017"><ele>40.0</ele><time>2026-04-06T06:08:25Z</time></trkpt><trkpt lat="45.112755661921774" lon="9.994408012472132"><ele>40.0</ele><time>2026-04-06T06:08:26Z</time></trkpt><trkpt lat="45.112681201618344" lon="9.994453173949871"><ele>40.0</ele><time>2026-04-06T06:08:27Z</time></trkpt><trkpt lat="45.11260440072324" lon="9.994495185492935"><ele>40.0</ele><time>2026-04-06T06:08:28Z</time></trkpt><trkpt lat="45.11252975549912" lon="9.99453539604461"><ele>40.0</ele><time>2026-04-06T06:08:29Z</time></trkpt><trkpt lat="45.11245023827774" lon="9.994561760108683"><ele>40.0</ele><time>2026-04-06T06:08:30Z</time></trkpt><trkpt lat="45.112370652623156" lon="9.994574542020494"><ele>39.833333333333336</ele><time>2026-04-06T06:08:31Z</time></trkpt><trkpt lat="45.11229021670462" lon="9.994574563495204"><ele>39.66666666666667</ele><time>2026-04-06T06:08:32Z</time></trkpt><trkpt lat="45.11221136158255" lon="9.994564557152142"><ele>39.5</ele><time>2026-04-06T06:08:33Z</time></trkpt><trkpt lat="45.112131074239656" lon="9.994537242830946"><ele>39.333333333333336</ele><time>2026-04-06T06:08:34Z</time></trkpt><trkpt lat="45.11205677078783" lon="9.994497002115095"><ele>39.166666666666664</ele><time>2026-04-06T06:08:35Z</time></trkpt><trkpt lat="45.111985402816835" lon="9.994445809307011"><ele>39.0</ele><time>2026-04-06T06:08:36Z</time></trkpt><trkpt lat="45.11191826896965" lon="9.994391212820137"><ele>39.0</ele><time>2026-04-06T06:08:37Z</time></trkpt><trkpt lat="45.11185454670641" lon="9.9943268381856"><ele>39.0</ele><time>2026-04-06T06:08:38Z</time></trkpt><trkpt lat="45.111789951315465" lon="9.99425681149349"><ele>39.0</ele><time>2026-04-06T06:08:39Z</time></trkpt><trkpt lat="45.111728728118266" lon="9.994189259538778"><ele>39.0</ele><time>2026-04-06T06:08:39.999Z</time></trkpt><trkpt lat="45.11166689243233" lon="9.994122519656939"><ele>39.0</ele><time>2026-04-06T06:08:40.999Z</time></trkpt><trkpt lat="45.11160481425666" lon="9.99405615134499"><ele>39.0</ele><time>2026-04-06T06:08:41.999Z</time></trkpt><trkpt lat="45.11154286716618" lon="9.9939899118143"><ele>38.666666666666664</ele><time>2026-04-06T06:08:42.999Z</time></trkpt><trkpt lat="45.111481547827196" lon="9.993920644903442"><ele>38.333333333333336</ele><time>2026-04-06T06:08:43.999Z</time></trkpt><trkpt lat="45.11141927425989" lon="9.993851424107495"><ele>38.0</ele><time>2026-04-06T06:08:44.999Z</time></trkpt><trkpt lat="45.111357063776005" lon="9.993785239644899"><ele>37.66666666666667</ele><time>2026-04-06T06:08:45.999Z</time></trkpt><trkpt lat="45.111294165573234" lon="9.993716994979874"><ele>37.333333333333336</ele><time>2026-04-06T06:08:46.999Z</time></trkpt><trkpt lat="45.11123088971422" lon="9.9936518588476"><ele>37.0</ele><time>2026-04-06T06:08:47.999Z</time></trkpt><trkpt lat="45.1111696688027" lon="9.993581948189899"><ele>37.0</ele><time>2026-04-06T06:08:48.999Z</time></trkpt><trkpt lat="45.11110602642844" lon="9.993514948865924"><ele>37.0</ele><time>2026-04-06T06:08:49.999Z</time></trkpt><trkpt lat="45.11104441195719" lon="9.993446306337574"><ele>37.0</ele><time>2026-04-06T06:08:50.999Z</time></trkpt><trkpt lat="45.110982081744794" lon="9.993380064560537"><ele>37.0</ele><time>2026-04-06T06:08:51.999Z</time></trkpt><trkpt lat="45.110918641344746" lon="9.993311771341123"><ele>37.0</ele><time>2026-04-06T06:08:52.999Z</time></trkpt><trkpt lat="45.110856838213984" lon="9.993243020164398"><ele>37.0</ele><time>2026-04-06T06:08:53.999Z</time></trkpt><trkpt lat="45.11079349090372" lon="9.993174649530612"><ele>37.0</ele><time>2026-04-06T06:08:54.999Z</time></trkpt><trkpt lat="45.11073177776211" lon="9.993106815569766"><ele>37.0</ele><time>2026-04-06T06:08:55.999Z</time></trkpt><trkpt lat="45.11067006727925" lon="9.993036628683951"><ele>37.0</ele><time>2026-04-06T06:08:56.999Z</time></trkpt><trkpt lat="45.110608311410914" lon="9.992970274918958"><ele>37.0</ele><time>2026-04-06T06:08:57.999Z</time></trkpt><trkpt lat="45.110546445417974" lon="9.99290292640847"><ele>37.0</ele><time>2026-04-06T06:08:58.999Z</time></trkpt><trkpt lat="45.11048489318294" lon="9.992834581363285"><ele>37.0</ele><time>2026-04-06T06:08:59.999Z</time></trkpt><trkpt lat="45.11042406613053" lon="9.992767306935404"><ele>37.0</ele><time>2026-04-06T06:09:00.999Z</time></trkpt><trkpt lat="45.11036183160751" lon="9.992700054609283"><ele>37.0</ele><time>2026-04-06T06:09:01.999Z</time></trkpt><trkpt lat="45.110301709746444" lon="9.99263233645114"><ele>37.0</ele><time>2026-04-06T06:09:02.999Z</time></trkpt><trkpt lat="45.11024145936676" lon="9.99256462962661"><ele>37.0</ele><time>2026-04-06T06:09:03.999Z</time></trkpt><trkpt lat="45.11018087456395" lon="9.992499759966515"><ele>37.0</ele><time>2026-04-06T06:09:04.999Z</time></trkpt><trkpt lat="45.11012055450135" lon="9.992434568436364"><ele>37.0</ele><time>2026-04-06T06:09:05.999Z</time></trkpt><trkpt lat="45.11006114428787" lon="9.99236817219737"><ele>37.0</ele><time>2026-04-06T06:09:06.999Z</time></trkpt><trkpt lat="45.11000198119248" lon="9.992302929196386"><ele>37.0</ele><time>2026-04-06T06:09:07.999Z</time></trkpt><trkpt lat="45.109944218497766" lon="9.992236267001442"><ele>37.0</ele><time>2026-04-06T06:09:08.999Z</time></trkpt><trkpt lat="45.10988604382345" lon="9.992170524644388"><ele>37.0</ele><time>2026-04-06T06:09:09.999Z</time></trkpt><trkpt lat="45.10982798595929" lon="9.992108754352646"><ele>37.0</ele><time>2026-04-06T06:09:10.999Z</time></trkpt><trkpt lat="45.10976980543524" lon="9.992042145027419"><ele>37.0</ele><time>2026-04-06T06:09:11.999Z</time></trkpt><trkpt lat="45.10971387495099" lon="9.991978592368836"><ele>37.0</ele><time>2026-04-06T06:09:12.999Z</time></trkpt><trkpt lat="45.10965582566376" lon="9.991913159246524"><ele>36.833333333333336</ele><time>2026-04-06T06:09:13.999Z</time></trkpt><trkpt lat="45.109597528206606" lon="9.99184831715677"><ele>36.66666666666667</ele><time>2026-04-06T06:09:14.999Z</time></trkpt><trkpt lat="45.10953863034013" lon="9.991780354185599"><ele>36.5</ele><time>2026-04-06T06:09:15.999Z</time></trkpt><trkpt lat="45.10947869777716" lon="9.991713551144333"><ele>36.333333333333336</ele><time>2026-04-06T06:09:16.999Z</time></trkpt><trkpt lat="45.10941591053402" lon="9.991645138661152"><ele>36.166666666666664</ele><time>2026-04-06T06:09:17.999Z</time></trkpt><trkpt lat="45.109352311332906" lon="9.991575222081577"><ele>36.0</ele><time>2026-04-06T06:09:18.999Z</time></trkpt><trkpt lat="45.10928982191272" lon="9.991504115049858"><ele>36.5</ele><time>2026-04-06T06:09:19.999Z</time></trkpt><trkpt lat="45.10922555489594" lon="9.99143099118231"><ele>37.0</ele><time>2026-04-06T06:09:20.999Z</time></trkpt><trkpt lat="45.10916012363401" lon="9.991355700949406"><ele>37.5</ele><time>2026-04-06T06:09:21.999Z</time></trkpt><trkpt lat="45.10909464014252" lon="9.991280859088738"><ele>38.0</ele><time>2026-04-06T06:09:22.999Z</time></trkpt><trkpt lat="45.10902966048168" lon="9.991203901056723"><ele>38.5</ele><time>2026-04-06T06:09:23.999Z</time></trkpt><trkpt lat="45.10896440498098" lon="9.99112419939862"><ele>39.0</ele><time>2026-04-06T06:09:24.999Z</time></trkpt><trkpt lat="45.10889793406506" lon="9.991047565288214"><ele>39.0</ele><time>2026-04-06T06:09:25.999Z</time></trkpt><trkpt lat="45.10883323548473" lon="9.990970047137395"><ele>39.0</ele><time>2026-04-06T06:09:26.999Z</time></trkpt><trkpt lat="45.108766108929686" lon="9.990894776838095"><ele>39.0</ele><time>2026-04-06T06:09:27.999Z</time></trkpt><trkpt lat="45.10870095241226" lon="9.990818333201744"><ele>39.0</ele><time>2026-04-06T06:09:28.999Z</time></trkpt><trkpt lat="45.108635919748906" lon="9.990742522520161"><ele>39.0</ele><time>2026-04-06T06:09:29.999Z</time></trkpt><trkpt lat="45.108571289383974" lon="9.99066497505258"><ele>39.0</ele><time>2026-04-06T06:09:30.999Z</time></trkpt><trkpt lat="45.10850859601365" lon="9.990590397205555"><ele>39.0</ele><time>2026-04-06T06:09:31.999Z</time></trkpt><trkpt lat="45.10844169273643" lon="9.990516732739643"><ele>39.0</ele><time>2026-04-06T06:09:32.999Z</time></trkpt><trkpt lat="45.10837861867565" lon="9.990442254667425"><ele>39.0</ele><time>2026-04-06T06:09:33.999Z</time></trkpt><trkpt lat="45.108315253992366" lon="9.990370355765844"><ele>39.0</ele><time>2026-04-06T06:09:34.999Z</time></trkpt><trkpt lat="45.108252130425655" lon="9.990296740574077"><ele>39.0</ele><time>2026-04-06T06:09:35.999Z</time></trkpt><trkpt lat="45.10818880363098" lon="9.99022349634728"><ele>39.0</ele><time>2026-04-06T06:09:36.999Z</time></trkpt><trkpt lat="45.10812544125771" lon="9.990155020911812"><ele>39.0</ele><time>2026-04-06T06:09:37.999Z</time></trkpt><trkpt lat="45.10806193623802" lon="9.990083434315077"><ele>39.0</ele><time>2026-04-06T06:09:38.999Z</time></trkpt><trkpt lat="45.10799860048762" lon="9.990011514518534"><ele>39.0</ele><time>2026-04-06T06:09:39.998Z</time></trkpt><trkpt lat="45.10793498881318" lon="9.989937753343971"><ele>39.0</ele><time>2026-04-06T06:09:40.998Z</time></trkpt><trkpt lat="45.10787193769378" lon="9.98986619257345"><ele>39.0</ele><time>2026-04-06T06:09:41.998Z</time></trkpt><trkpt lat="45.10780847978996" lon="9.989792126647465"><ele>39.0</ele><time>2026-04-06T06:09:42.998Z</time></trkpt><trkpt lat="45.107745392201515" lon="9.989717506903576"><ele>38.833333333333336</ele><time>2026-04-06T06:09:43.998Z</time></trkpt><trkpt lat="45.10768251405091" lon="9.989644501258038"><ele>38.666666666666664</ele><time>2026-04-06T06:09:44.998Z</time></trkpt><trkpt lat="45.10761817595485" lon="9.989573997304769"><ele>38.5</ele><time>2026-04-06T06:09:45.998Z</time></trkpt><trkpt lat="45.10755522798583" lon="9.989502426997673"><ele>38.33333333333333</ele><time>2026-04-06T06:09:46.998Z</time></trkpt><trkpt lat="45.10749011525954" lon="9.989430246311013"><ele>38.166666666666664</ele><time>2026-04-06T06:09:47.998Z</time></trkpt><trkpt lat="45.1074246979173" lon="9.989359348896752"><ele>38.0</ele><time>2026-04-06T06:09:48.998Z</time></trkpt><trkpt lat="45.107363083560266" lon="9.989288988725788"><ele>38.33333333333333</ele><time>2026-04-06T06:09:49.998Z</time></trkpt><trkpt lat="45.10730134180013" lon="9.989216256688827"><ele>38.666666666666664</ele><time>2026-04-06T06:09:51Z</time></trkpt><trkpt lat="45.10724040243933" lon="9.989143820957139"><ele>39.0</ele><time>2026-04-06T06:09:52Z</time></trkpt><trkpt lat="45.107175423024536" lon="9.989084259428589"><ele>39.333333333333336</ele><time>2026-04-06T06:09:53Z</time></trkpt><trkpt lat="45.10711317890972" lon="9.989012362700812"><ele>39.66666666666667</ele><time>2026-04-06T06:09:54Z</time></trkpt><trkpt lat="45.10705369961214" lon="9.98894336273053"><ele>40.0</ele><time>2026-04-06T06:09:55Z</time></trkpt><trkpt lat="45.106991970040916" lon="9.988868290495283"><ele>40.16666666666667</ele><time>2026-04-06T06:09:56Z</time></trkpt><trkpt lat="45.10693240372217" lon="9.988794947735665"><ele>40.333333333333336</ele><time>2026-04-06T06:09:57Z</time></trkpt><trkpt lat="45.10686831870932" lon="9.988726808842515"><ele>40.5</ele><time>2026-04-06T06:09:58Z</time></trkpt><trkpt lat="45.10680458776661" lon="9.988656137233935"><ele>40.666666666666664</ele><time>2026-04-06T06:09:59Z</time></trkpt><trkpt lat="45.10674161682987" lon="9.9885842999628"><ele>40.83333333333333</ele><time>2026-04-06T06:10:00Z</time></trkpt><trkpt lat="45.10667799374193" lon="9.988513965725184"><ele>41.0</ele><time>2026-04-06T06:10:01Z</time></trkpt><trkpt lat="45.10661439629874" lon="9.988444064580934"><ele>40.666666666666664</ele><time>2026-04-06T06:10:02Z</time></trkpt><trkpt lat="45.10655073031408" lon="9.988373215725696"><ele>40.33333333333333</ele><time>2026-04-06T06:10:03Z</time></trkpt><trkpt lat="45.10648658263233" lon="9.988303123315193"><ele>40.0</ele><time>2026-04-06T06:10:04Z</time></trkpt><trkpt lat="45.1064243044594" lon="9.988234450747521"><ele>39.666666666666664</ele><time>2026-04-06T06:10:05Z</time></trkpt><trkpt lat="45.10636226473444" lon="9.988162548186054"><ele>39.333333333333336</ele><time>2026-04-06T06:10:06Z</time></trkpt><trkpt lat="45.106299328240624" lon="9.988092967733143"><ele>39.0</ele><time>2026-04-06T06:10:07Z</time></trkpt><trkpt lat="45.10623731398476" lon="9.988025607796335"><ele>39.0</ele><time>2026-04-06T06:10:08Z</time></trkpt><trkpt lat="45.10617276688396" lon="9.98795988289893"><ele>39.0</ele><time>2026-04-06T06:10:09Z</time></trkpt><trkpt lat="45.10610946799945" lon="9.987892886337612"><ele>39.0</ele><time>2026-04-06T06:10:10Z</time></trkpt><trkpt lat="45.106048016588915" lon="9.987823439510166"><ele>39.0</ele><time>2026-04-06T06:10:11Z</time></trkpt><trkpt lat="45.10598679717325" lon="9.987754030905867"><ele>39.0</ele><time>2026-04-06T06:10:12Z</time></trkpt><trkpt lat="45.10592374354757" lon="9.987683740653607"><ele>39.0</ele><time>2026-04-06T06:10:13Z</time></trkpt><trkpt lat="45.10586251999012" lon="9.987614056987452"><ele>39.0</ele><time>2026-04-06T06:10:14Z</time></trkpt><trkpt lat="45.10580018619123" lon="9.987545751722607"><ele>39.0</ele><time>2026-04-06T06:10:15Z</time></trkpt><trkpt lat="45.10573763725959" lon="9.987476435553203"><ele>39.0</ele><time>2026-04-06T06:10:16Z</time></trkpt><trkpt lat="45.10567617032512" lon="9.987406791114594"><ele>39.0</ele><time>2026-04-06T06:10:17Z</time></trkpt><trkpt lat="45.10561585645091" lon="9.987334554469866"><ele>39.0</ele><time>2026-04-06T06:10:18Z</time></trkpt><trkpt lat="45.10555503789057" lon="9.987263101344979"><ele>39.0</ele><time>2026-04-06T06:10:19Z</time></trkpt><trkpt lat="45.10549395451924" lon="9.987190011371046"><ele>38.833333333333336</ele><time>2026-04-06T06:10:20Z</time></trkpt><trkpt lat="45.10543236302644" lon="9.987117738753042"><ele>38.666666666666664</ele><time>2026-04-06T06:10:21Z</time></trkpt><trkpt lat="45.105371926803016" lon="9.987040603007193"><ele>38.5</ele><time>2026-04-06T06:10:22Z</time></trkpt><trkpt lat="45.10531085064951" lon="9.986962920207736"><ele>38.33333333333333</ele><time>2026-04-06T06:10:23Z</time></trkpt><trkpt lat="45.10525077435131" lon="9.986882130262849"><ele>38.166666666666664</ele><time>2026-04-06T06:10:24Z</time></trkpt><trkpt lat="45.105194963644095" lon="9.986798756396936"><ele>38.0</ele><time>2026-04-06T06:10:25Z</time></trkpt><trkpt lat="45.10514090390037" lon="9.986710056804517"><ele>38.0</ele><time>2026-04-06T06:10:26Z</time></trkpt><trkpt lat="45.10509358126497" lon="9.986617623865254"><ele>38.0</ele><time>2026-04-06T06:10:27Z</time></trkpt><trkpt lat="45.10504776242395" lon="9.986520463803256"><ele>38.0</ele><time>2026-04-06T06:10:28Z</time></trkpt><trkpt lat="45.10500642749821" lon="9.986422545301341"><ele>38.0</ele><time>2026-04-06T06:10:29Z</time></trkpt><trkpt lat="45.104966576677164" lon="9.986324901940831"><ele>38.0</ele><time>2026-04-06T06:10:30Z</time></trkpt><trkpt lat="45.10492561941192" lon="9.986228110763856"><ele>38.0</ele><time>2026-04-06T06:10:31Z</time></trkpt><trkpt lat="45.1048825567036" lon="9.98613179735163"><ele>38.0</ele><time>2026-04-06T06:10:32Z</time></trkpt><trkpt lat="45.10484190500247" lon="9.986036688547278"><ele>38.0</ele><time>2026-04-06T06:10:33Z</time></trkpt><trkpt lat="45.10480466386803" lon="9.98594202226467"><ele>38.0</ele><time>2026-04-06T06:10:34Z</time></trkpt><trkpt lat="45.104769189437334" lon="9.985847284502222"><ele>38.0</ele><time>2026-04-06T06:10:35Z</time></trkpt><trkpt lat="45.10472933517522" lon="9.985754302399764"><ele>38.0</ele><time>2026-04-06T06:10:36Z</time></trkpt><trkpt lat="45.10469242829005" lon="9.98566073721156"><ele>38.0</ele><time>2026-04-06T06:10:37Z</time></trkpt><trkpt lat="45.10465270125084" lon="9.985567524910348"><ele>37.857142857142854</ele><time>2026-04-06T06:10:38Z</time></trkpt><trkpt lat="45.10461209589789" lon="9.985477845360261"><ele>37.714285714285715</ele><time>2026-04-06T06:10:39Z</time></trkpt><trkpt lat="45.104574156690454" lon="9.985386171399094"><ele>37.57142857142857</ele><time>2026-04-06T06:10:40Z</time></trkpt><trkpt lat="45.10453486897938" lon="9.985297084881697"><ele>37.42857142857143</ele><time>2026-04-06T06:10:41Z</time></trkpt><trkpt lat="45.10449864882666" lon="9.985206363664378"><ele>37.285714285714285</ele><time>2026-04-06T06:10:42Z</time></trkpt><trkpt lat="45.104460853301106" lon="9.985117813268044"><ele>37.142857142857146</ele><time>2026-04-06T06:10:42.999Z</time></trkpt><trkpt lat="45.10442418638501" lon="9.985028940334075"><ele>37.0</ele><time>2026-04-06T06:10:43.999Z</time></trkpt><trkpt lat="45.104386005075014" lon="9.984942266886758"><ele>37.0</ele><time>2026-04-06T06:10:44.999Z</time></trkpt><trkpt lat="45.10434959335871" lon="9.984853470986124"><ele>37.0</ele><time>2026-04-06T06:10:45.999Z</time></trkpt><trkpt lat="45.10431440812332" lon="9.984766813821532"><ele>37.0</ele><time>2026-04-06T06:10:46.999Z</time></trkpt><trkpt lat="45.104279071833716" lon="9.984677313762901"><ele>37.0</ele><time>2026-04-06T06:10:47.999Z</time></trkpt><trkpt lat="45.10424265393902" lon="9.984588976161898"><ele>37.0</ele><time>2026-04-06T06:10:48.999Z</time></trkpt><trkpt lat="45.104207319227775" lon="9.984501144739605"><ele>37.0</ele><time>2026-04-06T06:10:49.999Z</time></trkpt><trkpt lat="45.10417103789308" lon="9.98441318971269"><ele>37.0</ele><time>2026-04-06T06:10:50.999Z</time></trkpt><trkpt lat="45.10413436106376" lon="9.984324354737966"><ele>37.0</ele><time>2026-04-06T06:10:51.999Z</time></trkpt><trkpt lat="45.10409825361604" lon="9.98423429359635"><ele>37.0</ele><time>2026-04-06T06:10:52.999Z</time></trkpt><trkpt lat="45.104061172557955" lon="9.984144562505229"><ele>37.0</ele><time>2026-04-06T06:10:53.999Z</time></trkpt><trkpt lat="45.10402457778841" lon="9.984054839757079"><ele>37.0</ele><time>2026-04-06T06:10:54.999Z</time></trkpt><trkpt lat="45.10398786823135" lon="9.983964199095222"><ele>37.0</ele><time>2026-04-06T06:10:55.999Z</time></trkpt><trkpt lat="45.10395160018118" lon="9.983877536253438"><ele>37.0</ele><time>2026-04-06T06:10:56.999Z</time></trkpt><trkpt lat="45.10391552536174" lon="9.983787977352543"><ele>37.0</ele><time>2026-04-06T06:10:57.999Z</time></trkpt><trkpt lat="45.103878863638286" lon="9.98369774168884"><ele>37.0</ele><time>2026-04-06T06:10:58.999Z</time></trkpt><trkpt lat="45.10384074336849" lon="9.983608840604733"><ele>37.0</ele><time>2026-04-06T06:10:59.999Z</time></trkpt><trkpt lat="45.10380344119391" lon="9.983517811350572"><ele>37.0</ele><time>2026-04-06T06:11:00.999Z</time></trkpt><trkpt lat="45.10376624360972" lon="9.98342689336486"><ele>37.0</ele><time>2026-04-06T06:11:01.999Z</time></trkpt><trkpt lat="45.103729635328605" lon="9.983336493739843"><ele>37.0</ele><time>2026-04-06T06:11:02.999Z</time></trkpt><trkpt lat="45.103691139938654" lon="9.983245394499075"><ele>37.0</ele><time>2026-04-06T06:11:03.999Z</time></trkpt><trkpt lat="45.1036528420296" lon="9.983155934185254"><ele>37.0</ele><time>2026-04-06T06:11:04.999Z</time></trkpt><trkpt lat="45.10361603030219" lon="9.983065721347943"><ele>37.0</ele><time>2026-04-06T06:11:05.999Z</time></trkpt><trkpt lat="45.10357967490445" lon="9.982972519061187"><ele>37.0</ele><time>2026-04-06T06:11:06.999Z</time></trkpt><trkpt lat="45.10354036325796" lon="9.98288079917621"><ele>37.0</ele><time>2026-04-06T06:11:07.999Z</time></trkpt><trkpt lat="45.10350268451634" lon="9.982790911114224"><ele>37.0</ele><time>2026-04-06T06:11:08.999Z</time></trkpt><trkpt lat="45.103466390423876" lon="9.982695237956039"><ele>37.0</ele><time>2026-04-06T06:11:09.999Z</time></trkpt><trkpt lat="45.1034276906435" lon="9.982604115491322"><ele>37.0</ele><time>2026-04-06T06:11:10.999Z</time></trkpt><trkpt lat="45.10338989891592" lon="9.98251047854645"><ele>36.833333333333336</ele><time>2026-04-06T06:11:11.999Z</time></trkpt><trkpt lat="45.10335299215342" lon="9.982418647550277"><ele>36.66666666666667</ele><time>2026-04-06T06:11:12.999Z</time></trkpt><trkpt lat="45.10331513207055" lon="9.982323200479323"><ele>36.5</ele><time>2026-04-06T06:11:13.999Z</time></trkpt><trkpt lat="45.103276089457076" lon="9.982228263812093"><ele>36.333333333333336</ele><time>2026-04-06T06:11:14.999Z</time></trkpt><trkpt lat="45.103233206080255" lon="9.98213336415791"><ele>36.166666666666664</ele><time>2026-04-06T06:11:15.999Z</time></trkpt><trkpt lat="45.10319254536169" lon="9.98203537457661"><ele>36.0</ele><time>2026-04-06T06:11:16.999Z</time></trkpt><trkpt lat="45.1031493170685" lon="9.98193911678082"><ele>36.5</ele><time>2026-04-06T06:11:17.999Z</time></trkpt><trkpt lat="45.10310383616322" lon="9.981843669633998"><ele>37.0</ele><time>2026-04-06T06:11:18.999Z</time></trkpt><trkpt lat="45.1030559499666" lon="9.981749288244343"><ele>37.5</ele><time>2026-04-06T06:11:19.999Z</time></trkpt><trkpt lat="45.10300525451485" lon="9.981653338958038"><ele>38.0</ele><time>2026-04-06T06:11:20.999Z</time></trkpt><trkpt lat="45.10295276733541" lon="9.981560796909283"><ele>38.5</ele><time>2026-04-06T06:11:21.999Z</time></trkpt><trkpt lat="45.10289575151004" lon="9.981469863289883"><ele>39.0</ele><time>2026-04-06T06:11:22.999Z</time></trkpt><trkpt lat="45.102835806720215" lon="9.98138166836311"><ele>39.166666666666664</ele><time>2026-04-06T06:11:23.999Z</time></trkpt><trkpt lat="45.102774572157045" lon="9.981295253683529"><ele>39.333333333333336</ele><time>2026-04-06T06:11:24.999Z</time></trkpt><trkpt lat="45.10271150878953" lon="9.98121127119792"><ele>39.5</ele><time>2026-04-06T06:11:25.999Z</time></trkpt><trkpt lat="45.10264534981397" lon="9.98112501158477"><ele>39.66666666666667</ele><time>2026-04-06T06:11:26.999Z</time></trkpt><trkpt lat="45.10257894655773" lon="9.981041676541695"><ele>39.833333333333336</ele><time>2026-04-06T06:11:27.999Z</time></trkpt><trkpt lat="45.10250856453816" lon="9.980963402054986"><ele>40.0</ele><time>2026-04-06T06:11:28.999Z</time></trkpt><trkpt lat="45.102437374977065" lon="9.980887022286822"><ele>39.8</ele><time>2026-04-06T06:11:29.999Z</time></trkpt><trkpt lat="45.10236206711702" lon="9.980814008303776"><ele>39.6</ele><time>2026-04-06T06:11:30.999Z</time></trkpt><trkpt lat="45.10228640382051" lon="9.980745582186122"><ele>39.4</ele><time>2026-04-06T06:11:31.999Z</time></trkpt><trkpt lat="45.1022086273017" lon="9.980681054274507"><ele>39.2</ele><time>2026-04-06T06:11:32.999Z</time></trkpt><trkpt lat="45.102129964627466" lon="9.980623133021949"><ele>39.0</ele><time>2026-04-06T06:11:33.999Z</time></trkpt><trkpt lat="45.10204736763821" lon="9.980569000581246"><ele>39.0</ele><time>2026-04-06T06:11:34.999Z</time></trkpt><trkpt lat="45.101964099788496" lon="9.98051708188404"><ele>39.0</ele><time>2026-04-06T06:11:35.999Z</time></trkpt><trkpt lat="45.101877953098445" lon="9.980464943681454"><ele>39.0</ele><time>2026-04-06T06:11:36.999Z</time></trkpt><trkpt lat="45.101791815711856" lon="9.980419625636245"><ele>39.0</ele><time>2026-04-06T06:11:37.999Z</time></trkpt><trkpt lat="45.10170547489671" lon="9.980374480671452"><ele>39.0</ele><time>2026-04-06T06:11:38.999Z</time></trkpt><trkpt lat="45.10161807827586" lon="9.980334441073383"><ele>39.0</ele><time>2026-04-06T06:11:39.999Z</time></trkpt><trkpt lat="45.10153045473562" lon="9.98029416784096"><ele>39.0</ele><time>2026-04-06T06:11:40.999Z</time></trkpt><trkpt lat="45.10144356291697" lon="9.980252583714737"><ele>39.0</ele><time>2026-04-06T06:11:41.998Z</time></trkpt><trkpt lat="45.10135689513574" lon="9.980213505725882"><ele>39.0</ele><time>2026-04-06T06:11:42.998Z</time></trkpt><trkpt lat="45.10126965125026" lon="9.980175322424206"><ele>39.0</ele><time>2026-04-06T06:11:43.998Z</time></trkpt><trkpt lat="45.10118512816069" lon="9.980138283820938"><ele>39.0</ele><time>2026-04-06T06:11:44.998Z</time></trkpt><trkpt lat="45.101101082395054" lon="9.9800988952907"><ele>39.0</ele><time>2026-04-06T06:11:45.998Z</time></trkpt><trkpt lat="45.101016921807194" lon="9.980059779367624"><ele>39.0</ele><time>2026-04-06T06:11:46.998Z</time></trkpt><trkpt lat="45.10093377819211" lon="9.980022389190067"><ele>39.0</ele><time>2026-04-06T06:11:47.998Z</time></trkpt><trkpt lat="45.10084943368497" lon="9.979985729915292"><ele>39.0</ele><time>2026-04-06T06:11:48.998Z</time></trkpt><trkpt lat="45.10076674512628" lon="9.979948398175804"><ele>39.0</ele><time>2026-04-06T06:11:49.998Z</time></trkpt><trkpt lat="45.10068464709251" lon="9.979912084948694"><ele>38.5</ele><time>2026-04-06T06:11:50.998Z</time></trkpt><trkpt lat="45.10060440997135" lon="9.979874366999624"><ele>38.0</ele><time>2026-04-06T06:11:51.998Z</time></trkpt><trkpt lat="45.100523165856686" lon="9.979840234160253"><ele>37.5</ele><time>2026-04-06T06:11:52.998Z</time></trkpt><trkpt lat="45.10044365210151" lon="9.979802117841873"><ele>37.0</ele><time>2026-04-06T06:11:53.998Z</time></trkpt><trkpt lat="45.10036623031048" lon="9.979768881868802"><ele>36.5</ele><time>2026-04-06T06:11:54.998Z</time></trkpt><trkpt lat="45.100288692770185" lon="9.97973425706783"><ele>36.0</ele><time>2026-04-06T06:11:55.998Z</time></trkpt><trkpt lat="45.100209971000616" lon="9.979697099330433"><ele>36.0</ele><time>2026-04-06T06:11:57Z</time></trkpt><trkpt lat="45.10013227925532" lon="9.979663951713617"><ele>36.0</ele><time>2026-04-06T06:11:58Z</time></trkpt><trkpt lat="45.10005517636071" lon="9.979628703013967"><ele>36.0</ele><time>2026-04-06T06:11:59Z</time></trkpt><trkpt lat="45.09997844374082" lon="9.979593872565506"><ele>36.0</ele><time>2026-04-06T06:12:00Z</time></trkpt><trkpt lat="45.09990123948405" lon="9.97956111402975"><ele>36.0</ele><time>2026-04-06T06:12:01Z</time></trkpt><trkpt lat="45.09982594420307" lon="9.979527848377113"><ele>36.0</ele><time>2026-04-06T06:12:02Z</time></trkpt><trkpt lat="45.099749593234705" lon="9.979494438188595"><ele>36.0</ele><time>2026-04-06T06:12:03Z</time></trkpt><trkpt lat="45.09967394055249" lon="9.979464161530105"><ele>36.0</ele><time>2026-04-06T06:12:04Z</time></trkpt><trkpt lat="45.0995989704172" lon="9.979428416333322"><ele>36.0</ele><time>2026-04-06T06:12:05Z</time></trkpt><trkpt lat="45.09952339517898" lon="9.979393525042862"><ele>36.0</ele><time>2026-04-06T06:12:06Z</time></trkpt><trkpt lat="45.09944697662171" lon="9.979358302705112"><ele>36.0</ele><time>2026-04-06T06:12:07Z</time></trkpt><trkpt lat="45.09937245773081" lon="9.979326113598045"><ele>36.0</ele><time>2026-04-06T06:12:08Z</time></trkpt><trkpt lat="45.0992951755995" lon="9.979290473323665"><ele>36.0</ele><time>2026-04-06T06:12:09Z</time></trkpt><trkpt lat="45.099219291288414" lon="9.979254818127286"><ele>36.0</ele><time>2026-04-06T06:12:10Z</time></trkpt><trkpt lat="45.099142802544435" lon="9.979219901919443"><ele>36.0</ele><time>2026-04-06T06:12:11Z</time></trkpt><trkpt lat="45.09906545829717" lon="9.979180503383308"><ele>36.0</ele><time>2026-04-06T06:12:12Z</time></trkpt><trkpt lat="45.09899030701824" lon="9.979138457775932"><ele>36.0</ele><time>2026-04-06T06:12:13Z</time></trkpt><trkpt lat="45.098914704680304" lon="9.97909472124371"><ele>36.0</ele><time>2026-04-06T06:12:14Z</time></trkpt><trkpt lat="45.09884025369737" lon="9.979046572503567"><ele>36.166666666666664</ele><time>2026-04-06T06:12:15Z</time></trkpt><trkpt lat="45.09876614696319" lon="9.978995837957344"><ele>36.333333333333336</ele><time>2026-04-06T06:12:16Z</time></trkpt><trkpt lat="45.0986934343588" lon="9.978940837517182"><ele>36.5</ele><time>2026-04-06T06:12:17Z</time></trkpt><trkpt lat="45.09862216380455" lon="9.978885699469284"><ele>36.66666666666667</ele><time>2026-04-06T06:12:18Z</time></trkpt><trkpt lat="45.09854904370432" lon="9.9788278440084"><ele>36.833333333333336</ele><time>2026-04-06T06:12:19Z</time></trkpt><trkpt lat="45.098480655970576" lon="9.978766156978367"><ele>37.0</ele><time>2026-04-06T06:12:20Z</time></trkpt><trkpt lat="45.098413624012956" lon="9.978698950160062"><ele>37.0</ele><time>2026-04-06T06:12:21Z</time></trkpt><trkpt lat="45.09834802962861" lon="9.978630365804836"><ele>37.0</ele><time>2026-04-06T06:12:22Z</time></trkpt><trkpt lat="45.098285439452056" lon="9.978556444362441"><ele>37.0</ele><time>2026-04-06T06:12:23Z</time></trkpt><trkpt lat="45.09822220167671" lon="9.978480228604319"><ele>37.0</ele><time>2026-04-06T06:12:24Z</time></trkpt><trkpt lat="45.098161679300986" lon="9.978403359431873"><ele>37.0</ele><time>2026-04-06T06:12:25Z</time></trkpt><trkpt lat="45.09810180134315" lon="9.97832676898666"><ele>37.0</ele><time>2026-04-06T06:12:26Z</time></trkpt><trkpt lat="45.098043652143865" lon="9.978245006822943"><ele>37.0</ele><time>2026-04-06T06:12:27Z</time></trkpt><trkpt lat="45.09798773459162" lon="9.978162802267622"><ele>37.0</ele><time>2026-04-06T06:12:28Z</time></trkpt><trkpt lat="45.09793198666599" lon="9.978079070442977"><ele>37.0</ele><time>2026-04-06T06:12:29Z</time></trkpt><trkpt lat="45.09787640497744" lon="9.97799488077788"><ele>37.0</ele><time>2026-04-06T06:12:30Z</time></trkpt><trkpt lat="45.0978203403964" lon="9.97791035391583"><ele>37.0</ele><time>2026-04-06T06:12:31Z</time></trkpt><trkpt lat="45.097764666589555" lon="9.977826227323627"><ele>37.0</ele><time>2026-04-06T06:12:32Z</time></trkpt><trkpt lat="45.09770871624994" lon="9.977742913848504"><ele>37.0</ele><time>2026-04-06T06:12:33Z</time></trkpt><trkpt lat="45.09765437236772" lon="9.977660546082404"><ele>37.0</ele><time>2026-04-06T06:12:34Z</time></trkpt><trkpt lat="45.09759885137515" lon="9.977576333700572"><ele>37.0</ele><time>2026-04-06T06:12:35Z</time></trkpt><trkpt lat="45.09754445786544" lon="9.977494496180993"><ele>37.0</ele><time>2026-04-06T06:12:36Z</time></trkpt><trkpt lat="45.09749016626763" lon="9.977410308677769"><ele>37.0</ele><time>2026-04-06T06:12:37Z</time></trkpt><trkpt lat="45.09743726061831" lon="9.977327554647308"><ele>37.0</ele><time>2026-04-06T06:12:38Z</time></trkpt><trkpt lat="45.09738406328261" lon="9.977243740463145"><ele>37.333333333333336</ele><time>2026-04-06T06:12:39Z</time></trkpt><trkpt lat="45.0973292547517" lon="9.977159235625885"><ele>37.66666666666667</ele><time>2026-04-06T06:12:40Z</time></trkpt><trkpt lat="45.097274642631604" lon="9.977077765215016"><ele>38.0</ele><time>2026-04-06T06:12:41Z</time></trkpt><trkpt lat="45.097221027108134" lon="9.976993528780213"><ele>38.333333333333336</ele><time>2026-04-06T06:12:42Z</time></trkpt><trkpt lat="45.09716557987543" lon="9.976910291906"><ele>38.666666666666664</ele><time>2026-04-06T06:12:43Z</time></trkpt><trkpt lat="45.097111495417025" lon="9.976828153810931"><ele>39.0</ele><time>2026-04-06T06:12:44Z</time></trkpt><trkpt lat="45.097056580197005" lon="9.976745726410416"><ele>38.833333333333336</ele><time>2026-04-06T06:12:45Z</time></trkpt><trkpt lat="45.09700086425099" lon="9.976664328005043"><ele>38.666666666666664</ele><time>2026-04-06T06:12:46Z</time></trkpt><trkpt lat="45.096947162428336" lon="9.976580967384912"><ele>38.5</ele><time>2026-04-06T06:12:46.999Z</time></trkpt><trkpt lat="45.09688974132419" lon="9.976498786095288"><ele>38.33333333333333</ele><time>2026-04-06T06:12:47.999Z</time></trkpt><trkpt lat="45.09683632020701" lon="9.976413450500052"><ele>38.166666666666664</ele><time>2026-04-06T06:12:48.999Z</time></trkpt><trkpt lat="45.096781162176754" lon="9.976328533604326"><ele>38.0</ele><time>2026-04-06T06:12:49.999Z</time></trkpt><trkpt lat="45.09672689386447" lon="9.976243341169223"><ele>38.0</ele><time>2026-04-06T06:12:50.999Z</time></trkpt><trkpt lat="45.09667006855849" lon="9.97616308577365"><ele>38.0</ele><time>2026-04-06T06:12:51.999Z</time></trkpt><trkpt lat="45.09661721673846" lon="9.976074880465749"><ele>38.0</ele><time>2026-04-06T06:12:52.999Z</time></trkpt><trkpt lat="45.096564167692556" lon="9.97599018895691"><ele>38.0</ele><time>2026-04-06T06:12:53.999Z</time></trkpt><trkpt lat="45.09651033329968" lon="9.975905884284487"><ele>38.0</ele><time>2026-04-06T06:12:54.999Z</time></trkpt><trkpt lat="45.096455665657956" lon="9.975823578259181"><ele>38.0</ele><time>2026-04-06T06:12:55.999Z</time></trkpt><trkpt lat="45.09640066570606" lon="9.975740525957663"><ele>38.0</ele><time>2026-04-06T06:12:56.999Z</time></trkpt><trkpt lat="45.09634693691746" lon="9.97565756422627"><ele>38.0</ele><time>2026-04-06T06:12:57.999Z</time></trkpt><trkpt lat="45.09629563361135" lon="9.975570069377154"><ele>38.0</ele><time>2026-04-06T06:12:58.999Z</time></trkpt><trkpt lat="45.09624450236019" lon="9.975485712815695"><ele>38.0</ele><time>2026-04-06T06:12:59.999Z</time></trkpt><trkpt lat="45.09619473224449" lon="9.97539740663536"><ele>38.0</ele><time>2026-04-06T06:13:00.999Z</time></trkpt><trkpt lat="45.09614779228897" lon="9.975307824946716"><ele>38.0</ele><time>2026-04-06T06:13:01.999Z</time></trkpt><trkpt lat="45.0961023795171" lon="9.97521523465516"><ele>38.0</ele><time>2026-04-06T06:13:02.999Z</time></trkpt><trkpt lat="45.096058945052135" lon="9.975120002050229"><ele>38.0</ele><time>2026-04-06T06:13:03.999Z</time></trkpt><trkpt lat="45.09601734110877" lon="9.975022954247573"><ele>38.0</ele><time>2026-04-06T06:13:04.999Z</time></trkpt><trkpt lat="45.09597433559774" lon="9.974927080590525"><ele>38.0</ele><time>2026-04-06T06:13:05.999Z</time></trkpt><trkpt lat="45.09593511369117" lon="9.974828903828367"><ele>38.0</ele><time>2026-04-06T06:13:06.999Z</time></trkpt><trkpt lat="45.09589162676614" lon="9.974732169551514"><ele>38.0</ele><time>2026-04-06T06:13:07.999Z</time></trkpt><trkpt lat="45.0958497905366" lon="9.974636068500198"><ele>38.0</ele><time>2026-04-06T06:13:08.999Z</time></trkpt><trkpt lat="45.09581052286739" lon="9.974537686267382"><ele>38.0</ele><time>2026-04-06T06:13:09.999Z</time></trkpt><trkpt lat="45.095769947454166" lon="9.974441372605007"><ele>38.0</ele><time>2026-04-06T06:13:10.999Z</time></trkpt><trkpt lat="45.09573013143388" lon="9.974344224097221"><ele>38.0</ele><time>2026-04-06T06:13:11.999Z</time></trkpt><trkpt lat="45.09568850163026" lon="9.974246281339415"><ele>38.0</ele><time>2026-04-06T06:13:12.999Z</time></trkpt><trkpt lat="45.09564947807571" lon="9.974149650881335"><ele>38.0</ele><time>2026-04-06T06:13:13.999Z</time></trkpt><trkpt lat="45.095608994931844" lon="9.97405096029767"><ele>38.0</ele><time>2026-04-06T06:13:14.999Z</time></trkpt><trkpt lat="45.095569631237325" lon="9.973953322553346"><ele>38.0</ele><time>2026-04-06T06:13:15.999Z</time></trkpt><trkpt lat="45.09553207962034" lon="9.973854067040197"><ele>38.0</ele><time>2026-04-06T06:13:16.999Z</time></trkpt><trkpt lat="45.09549012918646" lon="9.973756257051162"><ele>38.0</ele><time>2026-04-06T06:13:17.999Z</time></trkpt><trkpt lat="45.09545212404242" lon="9.973658022320528"><ele>38.0</ele><time>2026-04-06T06:13:18.999Z</time></trkpt><trkpt lat="45.095413087333895" lon="9.9735583518806"><ele>38.0</ele><time>2026-04-06T06:13:19.999Z</time></trkpt><trkpt lat="45.095374988068016" lon="9.97345902438733"><ele>38.0</ele><time>2026-04-06T06:13:20.999Z</time></trkpt><trkpt lat="45.09533490858526" lon="9.973358795269132"><ele>38.0</ele><time>2026-04-06T06:13:21.999Z</time></trkpt><trkpt lat="45.095295390280455" lon="9.97325966074647"><ele>38.0</ele><time>2026-04-06T06:13:22.999Z</time></trkpt><trkpt lat="45.09525522890296" lon="9.973160655159788"><ele>38.0</ele><time>2026-04-06T06:13:23.999Z</time></trkpt><trkpt lat="45.095215272067314" lon="9.973060164884625"><ele>38.0</ele><time>2026-04-06T06:13:24.999Z</time></trkpt><trkpt lat="45.09517495140886" lon="9.97296167231815"><ele>38.0</ele><time>2026-04-06T06:13:25.999Z</time></trkpt><trkpt lat="45.09513488181932" lon="9.972861356301653"><ele>37.83333333333333</ele><time>2026-04-06T06:13:26.999Z</time></trkpt><trkpt lat="45.09509565258636" lon="9.972765596660636"><ele>37.666666666666664</ele><time>2026-04-06T06:13:27.999Z</time></trkpt><trkpt lat="45.09505467586906" lon="9.972663419122036"><ele>37.5</ele><time>2026-04-06T06:13:28.999Z</time></trkpt><trkpt lat="45.0950143861781" lon="9.972564483725186"><ele>37.333333333333336</ele><time>2026-04-06T06:13:29.999Z</time></trkpt><trkpt lat="45.09497086284146" lon="9.972465426917964"><ele>37.16666666666667</ele><time>2026-04-06T06:13:30.999Z</time></trkpt><trkpt lat="45.09493281335844" lon="9.97236333045142"><ele>37.0</ele><time>2026-04-06T06:13:31.999Z</time></trkpt><trkpt lat="45.09489405368206" lon="9.97226119534055"><ele>36.66666666666667</ele><time>2026-04-06T06:13:32.999Z</time></trkpt><trkpt lat="45.09485502684192" lon="9.972162956376662"><ele>36.333333333333336</ele><time>2026-04-06T06:13:33.999Z</time></trkpt><trkpt lat="45.09481454853509" lon="9.972062855234933"><ele>36.0</ele><time>2026-04-06T06:13:34.999Z</time></trkpt><trkpt lat="45.09477324146652" lon="9.971962645052788"><ele>35.666666666666664</ele><time>2026-04-06T06:13:35.999Z</time></trkpt><trkpt lat="45.094733171221534" lon="9.971865112718083"><ele>35.33333333333333</ele><time>2026-04-06T06:13:36.999Z</time></trkpt><trkpt lat="45.09469419391744" lon="9.971765601809258"><ele>35.0</ele><time>2026-04-06T06:13:37.999Z</time></trkpt><trkpt lat="45.094654468581396" lon="9.971666555676792"><ele>35.0</ele><time>2026-04-06T06:13:38.999Z</time></trkpt><trkpt lat="45.09461379300196" lon="9.971567020502812"><ele>35.0</ele><time>2026-04-06T06:13:39.999Z</time></trkpt><trkpt lat="45.09457376504025" lon="9.971466296619568"><ele>35.0</ele><time>2026-04-06T06:13:40.999Z</time></trkpt><trkpt lat="45.09453344319708" lon="9.971365454853109"><ele>35.0</ele><time>2026-04-06T06:13:41.999Z</time></trkpt><trkpt lat="45.09449436916821" lon="9.97126474594004"><ele>35.0</ele><time>2026-04-06T06:13:42.999Z</time></trkpt><trkpt lat="45.09445399405884" lon="9.971164035150426"><ele>35.0</ele><time>2026-04-06T06:13:43.999Z</time></trkpt><trkpt lat="45.094413782073204" lon="9.97106306501619"><ele>35.0</ele><time>2026-04-06T06:13:44.999Z</time></trkpt><trkpt lat="45.094373004492944" lon="9.970961377331914"><ele>35.0</ele><time>2026-04-06T06:13:45.998Z</time></trkpt><trkpt lat="45.094333353821135" lon="9.970860886727932"><ele>35.0</ele><time>2026-04-06T06:13:46.998Z</time></trkpt><trkpt lat="45.094293397157045" lon="9.970758851082362"><ele>35.0</ele><time>2026-04-06T06:13:47.998Z</time></trkpt><trkpt lat="45.09425378863124" lon="9.970655712255313"><ele>35.0</ele><time>2026-04-06T06:13:48.998Z</time></trkpt><trkpt lat="45.094214285968135" lon="9.970553850214184"><ele>35.0</ele><time>2026-04-06T06:13:49.998Z</time></trkpt><trkpt lat="45.09417560696806" lon="9.970452735066548"><ele>35.0</ele><time>2026-04-06T06:13:50.998Z</time></trkpt><trkpt lat="45.09413625253376" lon="9.970351686329794"><ele>35.0</ele><time>2026-04-06T06:13:51.998Z</time></trkpt><trkpt lat="45.094097370447116" lon="9.97024985247282"><ele>35.0</ele><time>2026-04-06T06:13:52.998Z</time></trkpt><trkpt lat="45.094059149886654" lon="9.970149190184204"><ele>35.0</ele><time>2026-04-06T06:13:53.998Z</time></trkpt><trkpt lat="45.09401909252147" lon="9.970045781055102"><ele>35.0</ele><time>2026-04-06T06:13:54.998Z</time></trkpt><trkpt lat="45.093980173713966" lon="9.96994450157827"><ele>35.0</ele><time>2026-04-06T06:13:55.998Z</time></trkpt><trkpt lat="45.093940574507954" lon="9.969843816556347"><ele>35.0</ele><time>2026-04-06T06:13:56.998Z</time></trkpt><trkpt lat="45.09390125971736" lon="9.969741656354033"><ele>35.0</ele><time>2026-04-06T06:13:57.998Z</time></trkpt><trkpt lat="45.093862000872264" lon="9.969640803231176"><ele>35.0</ele><time>2026-04-06T06:13:58.998Z</time></trkpt><trkpt lat="45.09382243188418" lon="9.969538243491165"><ele>35.0</ele><time>2026-04-06T06:13:59.998Z</time></trkpt><trkpt lat="45.0937846301815" lon="9.969435310605693"><ele>35.0</ele><time>2026-04-06T06:14:00.998Z</time></trkpt><trkpt lat="45.09374456088895" lon="9.969334379261262"><ele>35.0</ele><time>2026-04-06T06:14:01.998Z</time></trkpt><trkpt lat="45.09370525168634" lon="9.969232698000143"><ele>35.33333333333333</ele><time>2026-04-06T06:14:03Z</time></trkpt><trkpt lat="45.09366662139935" lon="9.969132433845168"><ele>35.666666666666664</ele><time>2026-04-06T06:14:04Z</time></trkpt><trkpt lat="45.09362786664709" lon="9.96903056403107"><ele>36.0</ele><time>2026-04-06T06:14:05Z</time></trkpt><trkpt lat="45.09358837001973" lon="9.968929548947552"><ele>36.333333333333336</ele><time>2026-04-06T06:14:06Z</time></trkpt><trkpt lat="45.09355091154647" lon="9.968828388070031"><ele>36.66666666666667</ele><time>2026-04-06T06:14:07Z</time></trkpt><trkpt lat="45.09351165323923" lon="9.968728006235574"><ele>37.0</ele><time>2026-04-06T06:14:08Z</time></trkpt><trkpt lat="45.093471957671746" lon="9.968626496083674"><ele>37.0</ele><time>2026-04-06T06:14:09Z</time></trkpt><trkpt lat="45.0934326809626" lon="9.968526184995063"><ele>37.0</ele><time>2026-04-06T06:14:10Z</time></trkpt><trkpt lat="45.09339345425243" lon="9.968424096120364"><ele>37.0</ele><time>2026-04-06T06:14:11Z</time></trkpt><trkpt lat="45.093353957196534" lon="9.968324063430138"><ele>37.0</ele><time>2026-04-06T06:14:12Z</time></trkpt><trkpt lat="45.0933153629371" lon="9.968224252523243"><ele>37.0</ele><time>2026-04-06T06:14:13Z</time></trkpt><trkpt lat="45.09327773999477" lon="9.968124559859046"><ele>37.0</ele><time>2026-04-06T06:14:14Z</time></trkpt><trkpt lat="45.09323759444673" lon="9.968024238385233"><ele>37.0</ele><time>2026-04-06T06:14:15Z</time></trkpt><trkpt lat="45.09319803368972" lon="9.967921550703053"><ele>37.0</ele><time>2026-04-06T06:14:16Z</time></trkpt><trkpt lat="45.093159998904355" lon="9.967821426321565"><ele>37.0</ele><time>2026-04-06T06:14:17Z</time></trkpt><trkpt lat="45.093120949997044" lon="9.967719492037304"><ele>37.0</ele><time>2026-04-06T06:14:18Z</time></trkpt><trkpt lat="45.093080906259694" lon="9.967618458405715"><ele>37.0</ele><time>2026-04-06T06:14:19Z</time></trkpt><trkpt lat="45.0930425633572" lon="9.967517293376737"><ele>37.0</ele><time>2026-04-06T06:14:20Z</time></trkpt><trkpt lat="45.093004663041455" lon="9.967416458792853"><ele>37.0</ele><time>2026-04-06T06:14:21Z</time></trkpt><trkpt lat="45.09296385642757" lon="9.96731722030598"><ele>37.0</ele><time>2026-04-06T06:14:22Z</time></trkpt><trkpt lat="45.09292545044551" lon="9.967216590637694"><ele>37.0</ele><time>2026-04-06T06:14:23Z</time></trkpt><trkpt lat="45.09288674917922" lon="9.967113548272115"><ele>37.0</ele><time>2026-04-06T06:14:24Z</time></trkpt><trkpt lat="45.09284857519778" lon="9.967012589259456"><ele>37.0</ele><time>2026-04-06T06:14:25Z</time></trkpt><trkpt lat="45.09281012048093" lon="9.966911128851647"><ele>37.0</ele><time>2026-04-06T06:14:26Z</time></trkpt><trkpt lat="45.09277200209307" lon="9.966810976380415"><ele>37.0</ele><time>2026-04-06T06:14:27Z</time></trkpt><trkpt lat="45.09273525533023" lon="9.966710463047033"><ele>37.0</ele><time>2026-04-06T06:14:28Z</time></trkpt><trkpt lat="45.09269782759915" lon="9.966610910312038"><ele>37.0</ele><time>2026-04-06T06:14:29Z</time></trkpt><trkpt lat="45.09266173785155" lon="9.96651214653807"><ele>37.0</ele><time>2026-04-06T06:14:30Z</time></trkpt><trkpt lat="45.09262865796497" lon="9.966409784133674"><ele>37.0</ele><time>2026-04-06T06:14:31Z</time></trkpt><trkpt lat="45.09259506790852" lon="9.966306664036589"><ele>37.0</ele><time>2026-04-06T06:14:32Z</time></trkpt><trkpt lat="45.09256694588568" lon="9.96620194833418"><ele>37.16666666666667</ele><time>2026-04-06T06:14:33Z</time></trkpt><trkpt lat="45.092538656096366" lon="9.966094917026346"><ele>37.333333333333336</ele><time>2026-04-06T06:14:34Z</time></trkpt><trkpt lat="45.092511696344125" lon="9.96598912009822"><ele>37.5</ele><time>2026-04-06T06:14:35Z</time></trkpt><trkpt lat="45.09248637876671" lon="9.965880859413689"><ele>37.666666666666664</ele><time>2026-04-06T06:14:36Z</time></trkpt><trkpt lat="45.09246229430808" lon="9.965771862911959"><ele>37.83333333333333</ele><time>2026-04-06T06:14:37Z</time></trkpt><trkpt lat="45.09243734749666" lon="9.965664046778487"><ele>38.0</ele><time>2026-04-06T06:14:38Z</time></trkpt><trkpt lat="45.09241712101154" lon="9.965555251217427"><ele>37.83333333333333</ele><time>2026-04-06T06:14:39Z</time></trkpt><trkpt lat="45.09239575699647" lon="9.965444812668832"><ele>37.666666666666664</ele><time>2026-04-06T06:14:40Z</time></trkpt><trkpt lat="45.09237828253903" lon="9.965335468617935"><ele>37.5</ele><time>2026-04-06T06:14:41Z</time></trkpt><trkpt lat="45.09235727204017" lon="9.965226650267685"><ele>37.333333333333336</ele><time>2026-04-06T06:14:42Z</time></trkpt><trkpt lat="45.09233680513328" lon="9.965119272537358"><ele>37.16666666666667</ele><time>2026-04-06T06:14:43Z</time></trkpt><trkpt lat="45.09231952691981" lon="9.96500889790065"><ele>37.0</ele><time>2026-04-06T06:14:44Z</time></trkpt><trkpt lat="45.09231904380547" lon="9.964895315941236"><ele>37.0</ele><time>2026-04-06T06:14:45Z</time></trkpt><trkpt lat="45.09230666375695" lon="9.964783846042092"><ele>37.0</ele><time>2026-04-06T06:14:46Z</time></trkpt><trkpt lat="45.09229561904991" lon="9.964673810074284"><ele>37.0</ele><time>2026-04-06T06:14:47Z</time></trkpt><trkpt lat="45.09228462592645" lon="9.964560666866548"><ele>37.0</ele><time>2026-04-06T06:14:48Z</time></trkpt><trkpt lat="45.09227225177103" lon="9.964449250211212"><ele>37.0</ele><time>2026-04-06T06:14:48.999Z</time></trkpt><trkpt lat="45.09225991261136" lon="9.964338148625856"><ele>37.0</ele><time>2026-04-06T06:14:49.999Z</time></trkpt><trkpt lat="45.092247816853444" lon="9.96422923840844"><ele>37.2</ele><time>2026-04-06T06:14:50.999Z</time></trkpt><trkpt lat="45.09223590686286" lon="9.964122002707361"><ele>37.400000000000006</ele><time>2026-04-06T06:14:51.999Z</time></trkpt><trkpt lat="45.092227764956505" lon="9.964027876435695"><ele>37.599999999999994</ele><time>2026-04-06T06:14:52.999Z</time></trkpt><trkpt lat="45.0920629609905" lon="9.9640087525351"><ele>37.8</ele><time>2026-04-06T06:14:53.999Z</time></trkpt><trkpt lat="45.09198533840318" lon="9.963955735259635"><ele>38.0</ele><time>2026-04-06T06:14:54.999Z</time></trkpt><trkpt lat="45.09190019208796" lon="9.96393524200529"><ele>38.0</ele><time>2026-04-06T06:14:55.999Z</time></trkpt><trkpt lat="45.09182206054928" lon="9.963909459663617"><ele>38.0</ele><time>2026-04-06T06:14:56.999Z</time></trkpt><trkpt lat="45.09174856886353" lon="9.96387369190311"><ele>38.0</ele><time>2026-04-06T06:14:57.999Z</time></trkpt><trkpt lat="45.09167962040687" lon="9.963825651955867"><ele>38.0</ele><time>2026-04-06T06:14:58.999Z</time></trkpt><trkpt lat="45.0916186523297" lon="9.96376244896205"><ele>38.0</ele><time>2026-04-06T06:14:59.999Z</time></trkpt><trkpt lat="45.09156681758723" lon="9.963682932123012"><ele>38.0</ele><time>2026-04-06T06:15:00.999Z</time></trkpt><trkpt lat="45.09152436137097" lon="9.963598250795268"><ele>37.857142857142854</ele><time>2026-04-06T06:15:01.999Z</time></trkpt><trkpt lat="45.09148390997683" lon="9.963511478666247"><ele>37.714285714285715</ele><time>2026-04-06T06:15:02.999Z</time></trkpt><trkpt lat="45.091439288809454" lon="9.96343095541904"><ele>37.57142857142857</ele><time>2026-04-06T06:15:03.999Z</time></trkpt><trkpt lat="45.091389610569834" lon="9.963357728911273"><ele>37.42857142857143</ele><time>2026-04-06T06:15:04.999Z</time></trkpt><trkpt lat="45.09133568503957" lon="9.963292831927031"><ele>37.285714285714285</ele><time>2026-04-06T06:15:05.999Z</time></trkpt><trkpt lat="45.091279359249775" lon="9.963230109183144"><ele>37.142857142857146</ele><time>2026-04-06T06:15:06.999Z</time></trkpt><trkpt lat="45.09122095296576" lon="9.963171767986918"><ele>37.0</ele><time>2026-04-06T06:15:07.999Z</time></trkpt><trkpt lat="45.09116393888967" lon="9.963114888213417"><ele>37.0</ele><time>2026-04-06T06:15:08.999Z</time></trkpt><trkpt lat="45.09110906693095" lon="9.963057614821254"><ele>37.0</ele><time>2026-04-06T06:15:09.999Z</time></trkpt><trkpt lat="45.09105275823432" lon="9.962999107386022"><ele>37.0</ele><time>2026-04-06T06:15:10.999Z</time></trkpt><trkpt lat="45.090995593428026" lon="9.962943941871478"><ele>37.0</ele><time>2026-04-06T06:15:11.999Z</time></trkpt><trkpt lat="45.090937017504984" lon="9.96288757175682"><ele>37.0</ele><time>2026-04-06T06:15:12.999Z</time></trkpt><trkpt lat="45.09087970128498" lon="9.962830073411428"><ele>37.0</ele><time>2026-04-06T06:15:13.999Z</time></trkpt><trkpt lat="45.09082300256675" lon="9.962768845831434"><ele>37.0</ele><time>2026-04-06T06:15:14.999Z</time></trkpt><trkpt lat="45.09076418313479" lon="9.96271009678231"><ele>37.0</ele><time>2026-04-06T06:15:15.999Z</time></trkpt><trkpt lat="45.09070389614447" lon="9.96265082142463"><ele>37.0</ele><time>2026-04-06T06:15:16.999Z</time></trkpt><trkpt lat="45.090642886307634" lon="9.962592070047286"><ele>37.0</ele><time>2026-04-06T06:15:17.999Z</time></trkpt><trkpt lat="45.09057889586152" lon="9.962532452968825"><ele>37.0</ele><time>2026-04-06T06:15:18.999Z</time></trkpt><trkpt lat="45.09051569466664" lon="9.96246841646491"><ele>37.0</ele><time>2026-04-06T06:15:19.999Z</time></trkpt><trkpt lat="45.0904472097699" lon="9.962402693730537"><ele>37.0</ele><time>2026-04-06T06:15:20.999Z</time></trkpt><trkpt lat="45.090373314198075" lon="9.962338345654857"><ele>37.0</ele><time>2026-04-06T06:15:21.999Z</time></trkpt><trkpt lat="45.0902999568242" lon="9.962264821977676"><ele>37.0</ele><time>2026-04-06T06:15:22.999Z</time></trkpt><trkpt lat="45.09022895479825" lon="9.962197501444429"><ele>37.0</ele><time>2026-04-06T06:15:23.999Z</time></trkpt><trkpt lat="45.09015598639892" lon="9.962129875275313"><ele>37.0</ele><time>2026-04-06T06:15:24.999Z</time></trkpt><trkpt lat="45.09008723471995" lon="9.962068034190107"><ele>37.0</ele><time>2026-04-06T06:15:25.999Z</time></trkpt><trkpt lat="45.09001697584994" lon="9.962008014246631"><ele>37.0</ele><time>2026-04-06T06:15:26.999Z</time></trkpt><trkpt lat="45.08994778246324" lon="9.961950485208149"><ele>36.833333333333336</ele><time>2026-04-06T06:15:27.999Z</time></trkpt><trkpt lat="45.08987649507681" lon="9.961894587021334"><ele>36.66666666666667</ele><time>2026-04-06T06:15:28.999Z</time></trkpt><trkpt lat="45.08980209563273" lon="9.96184486822054"><ele>36.5</ele><time>2026-04-06T06:15:29.999Z</time></trkpt><trkpt lat="45.089725968559094" lon="9.961796817158016"><ele>36.333333333333336</ele><time>2026-04-06T06:15:30.999Z</time></trkpt><trkpt lat="45.089651234118726" lon="9.96175736200904"><ele>36.166666666666664</ele><time>2026-04-06T06:15:31.999Z</time></trkpt><trkpt lat="45.0895740712683" lon="9.961715840769111"><ele>36.0</ele><time>2026-04-06T06:15:32.999Z</time></trkpt><trkpt lat="45.089499519102894" lon="9.961683781057651"><ele>36.0</ele><time>2026-04-06T06:15:33.999Z</time></trkpt><trkpt lat="45.08942362738395" lon="9.961657750889387"><ele>36.0</ele><time>2026-04-06T06:15:34.999Z</time></trkpt><trkpt lat="45.089349201526446" lon="9.961643239493807"><ele>36.0</ele><time>2026-04-06T06:15:35.999Z</time></trkpt><trkpt lat="45.08927304098726" lon="9.961627349220365"><ele>36.0</ele><time>2026-04-06T06:15:36.999Z</time></trkpt><trkpt lat="45.08919735026856" lon="9.961618052633261"><ele>36.0</ele><time>2026-04-06T06:15:37.999Z</time></trkpt><trkpt lat="45.08911891208592" lon="9.961611882541511"><ele>36.0</ele><time>2026-04-06T06:15:38.999Z</time></trkpt><trkpt lat="45.089040224636456" lon="9.961607515968579"><ele>36.0</ele><time>2026-04-06T06:15:39.999Z</time></trkpt><trkpt lat="45.088959476642046" lon="9.961607014525429"><ele>36.0</ele><time>2026-04-06T06:15:40.999Z</time></trkpt><trkpt lat="45.088880390998185" lon="9.961601932319367"><ele>36.0</ele><time>2026-04-06T06:15:41.999Z</time></trkpt><trkpt lat="45.08880044997898" lon="9.96159717087087"><ele>36.0</ele><time>2026-04-06T06:15:42.999Z</time></trkpt><trkpt lat="45.08872163279718" lon="9.96158977848937"><ele>36.0</ele><time>2026-04-06T06:15:43.999Z</time></trkpt><trkpt lat="45.08864308686562" lon="9.961586300272963"><ele>36.0</ele><time>2026-04-06T06:15:44.999Z</time></trkpt><trkpt lat="45.088567247683365" lon="9.961581589574374"><ele>36.0</ele><time>2026-04-06T06:15:45.999Z</time></trkpt><trkpt lat="45.08848980995348" lon="9.961574064026744"><ele>36.0</ele><time>2026-04-06T06:15:46.999Z</time></trkpt><trkpt lat="45.08841284992206" lon="9.96156796563101"><ele>36.0</ele><time>2026-04-06T06:15:47.998Z</time></trkpt><trkpt lat="45.088335662900136" lon="9.961557330917481"><ele>36.0</ele><time>2026-04-06T06:15:48.998Z</time></trkpt><trkpt lat="45.08825871823327" lon="9.961547413458726"><ele>36.0</ele><time>2026-04-06T06:15:49.998Z</time></trkpt><trkpt lat="45.088180997223425" lon="9.961536158352974"><ele>36.0</ele><time>2026-04-06T06:15:50.998Z</time></trkpt><trkpt lat="45.08810273324378" lon="9.961525500542699"><ele>36.333333333333336</ele><time>2026-04-06T06:15:51.998Z</time></trkpt><trkpt lat="45.088024065854185" lon="9.96151309328911"><ele>36.666666666666664</ele><time>2026-04-06T06:15:52.998Z</time></trkpt><trkpt lat="45.08794493764572" lon="9.961502026860273"><ele>37.0</ele><time>2026-04-06T06:15:53.998Z</time></trkpt><trkpt lat="45.08786611683865" lon="9.961492179561272"><ele>37.33333333333333</ele><time>2026-04-06T06:15:54.998Z</time></trkpt><trkpt lat="45.08778796153958" lon="9.96147921449093"><ele>37.666666666666664</ele><time>2026-04-06T06:15:55.998Z</time></trkpt><trkpt lat="45.08771005092434" lon="9.961465162435003"><ele>38.0</ele><time>2026-04-06T06:15:56.998Z</time></trkpt><trkpt lat="45.087632179573454" lon="9.961444495830442"><ele>38.0</ele><time>2026-04-06T06:15:57.998Z</time></trkpt><trkpt lat="45.087554781867574" lon="9.96142643339575"><ele>38.0</ele><time>2026-04-06T06:15:58.998Z</time></trkpt><trkpt lat="45.08747639110156" lon="9.961409893096755"><ele>38.0</ele><time>2026-04-06T06:15:59.998Z</time></trkpt><trkpt lat="45.08739899176773" lon="9.961390560752697"><ele>38.0</ele><time>2026-04-06T06:16:00.998Z</time></trkpt><trkpt lat="45.08732081354763" lon="9.961374122632254"><ele>38.0</ele><time>2026-04-06T06:16:01.998Z</time></trkpt><trkpt lat="45.08724358018167" lon="9.96135376527465"><ele>38.0</ele><time>2026-04-06T06:16:02.998Z</time></trkpt><trkpt lat="45.087165666300656" lon="9.961335250333343"><ele>37.83333333333333</ele><time>2026-04-06T06:16:03.998Z</time></trkpt><trkpt lat="45.08708637256508" lon="9.961320839243552"><ele>37.666666666666664</ele><time>2026-04-06T06:16:04.998Z</time></trkpt><trkpt lat="45.08700542599129" lon="9.961309290894413"><ele>37.5</ele><time>2026-04-06T06:16:05.998Z</time></trkpt><trkpt lat="45.086924421376764" lon="9.96130265226847"><ele>37.333333333333336</ele><time>2026-04-06T06:16:06.998Z</time></trkpt><trkpt lat="45.08684146849868" lon="9.961290694141722"><ele>37.16666666666667</ele><time>2026-04-06T06:16:07.998Z</time></trkpt><trkpt lat="45.08675995168919" lon="9.961289969312624"><ele>37.0</ele><time>2026-04-06T06:16:09Z</time></trkpt><trkpt lat="45.08667676871505" lon="9.961291033049886"><ele>37.0</ele><time>2026-04-06T06:16:10Z</time></trkpt><trkpt lat="45.08659236082407" lon="9.961288306369433"><ele>37.0</ele><time>2026-04-06T06:16:11Z</time></trkpt><trkpt lat="45.08650823593152" lon="9.961284942867339"><ele>37.0</ele><time>2026-04-06T06:16:12Z</time></trkpt><trkpt lat="45.086427101043384" lon="9.961285938086041"><ele>37.0</ele><time>2026-04-06T06:16:13Z</time></trkpt><trkpt lat="45.08634613575066" lon="9.961286301395592"><ele>37.0</ele><time>2026-04-06T06:16:14Z</time></trkpt><trkpt lat="45.08626746551725" lon="9.961286732539445"><ele>37.0</ele><time>2026-04-06T06:16:15Z</time></trkpt><trkpt lat="45.086186939356544" lon="9.961289369372492"><ele>37.0</ele><time>2026-04-06T06:16:16Z</time></trkpt><trkpt lat="45.086107369219846" lon="9.961291412623495"><ele>37.0</ele><time>2026-04-06T06:16:17Z</time></trkpt><trkpt lat="45.08602874709724" lon="9.961296261570459"><ele>37.0</ele><time>2026-04-06T06:16:18Z</time></trkpt><trkpt lat="45.08594828652146" lon="9.961303411949507"><ele>37.0</ele><time>2026-04-06T06:16:19Z</time></trkpt><trkpt lat="45.085867727450875" lon="9.961317986162777"><ele>37.0</ele><time>2026-04-06T06:16:20Z</time></trkpt><trkpt lat="45.08578792327289" lon="9.961332213015499"><ele>37.0</ele><time>2026-04-06T06:16:21Z</time></trkpt><trkpt lat="45.085706436989604" lon="9.961359331624953"><ele>37.16666666666667</ele><time>2026-04-06T06:16:22Z</time></trkpt><trkpt lat="45.085628679468016" lon="9.961386349815676"><ele>37.333333333333336</ele><time>2026-04-06T06:16:23Z</time></trkpt><trkpt lat="45.085552740762395" lon="9.961417415428926"><ele>37.5</ele><time>2026-04-06T06:16:24Z</time></trkpt><trkpt lat="45.085473211828074" lon="9.961449973396633"><ele>37.666666666666664</ele><time>2026-04-06T06:16:25Z</time></trkpt><trkpt lat="45.085396419562365" lon="9.961476893151998"><ele>37.83333333333333</ele><time>2026-04-06T06:16:26Z</time></trkpt><trkpt lat="45.08531668104946" lon="9.961505382881072"><ele>38.0</ele><time>2026-04-06T06:16:27Z</time></trkpt><trkpt lat="45.085235973697266" lon="9.961529736174311"><ele>38.0</ele><time>2026-04-06T06:16:28Z</time></trkpt><trkpt lat="45.08515549255624" lon="9.961557850093927"><ele>38.0</ele><time>2026-04-06T06:16:29Z</time></trkpt><trkpt lat="45.085075760109106" lon="9.961581763901396"><ele>38.0</ele><time>2026-04-06T06:16:30Z</time></trkpt><trkpt lat="45.084996195903194" lon="9.961610507437717"><ele>38.0</ele><time>2026-04-06T06:16:31Z</time></trkpt><trkpt lat="45.08491714063833" lon="9.961640915093897"><ele>38.0</ele><time>2026-04-06T06:16:32Z</time></trkpt><trkpt lat="45.08483891858311" lon="9.961673042458347"><ele>38.0</ele><time>2026-04-06T06:16:33Z</time></trkpt><trkpt lat="45.084758926119974" lon="9.96170037439119"><ele>37.83333333333333</ele><time>2026-04-06T06:16:34Z</time></trkpt><trkpt lat="45.084680334016845" lon="9.961729976421628"><ele>37.666666666666664</ele><time>2026-04-06T06:16:35Z</time></trkpt><trkpt lat="45.08460036626357" lon="9.96175505350105"><ele>37.5</ele><time>2026-04-06T06:16:36Z</time></trkpt><trkpt lat="45.084523873151916" lon="9.96177896479289"><ele>37.333333333333336</ele><time>2026-04-06T06:16:37Z</time></trkpt><trkpt lat="45.08444670687219" lon="9.961806083825829"><ele>37.16666666666667</ele><time>2026-04-06T06:16:38Z</time></trkpt><trkpt lat="45.08437036033413" lon="9.961835021534963"><ele>37.0</ele><time>2026-04-06T06:16:39Z</time></trkpt><trkpt lat="45.084296718647906" lon="9.961870208469987"><ele>37.0</ele><time>2026-04-06T06:16:40Z</time></trkpt><trkpt lat="45.08422282183794" lon="9.961904262792947"><ele>37.0</ele><time>2026-04-06T06:16:41Z</time></trkpt><trkpt lat="45.08414748265695" lon="9.961938441403461"><ele>37.0</ele><time>2026-04-06T06:16:42Z</time></trkpt><trkpt lat="45.084074467159624" lon="9.961978892121202"><ele>37.0</ele><time>2026-04-06T06:16:43Z</time></trkpt><trkpt lat="45.08400575537141" lon="9.962023227240532"><ele>37.0</ele><time>2026-04-06T06:16:44Z</time></trkpt><trkpt lat="45.08393818936917" lon="9.962067216803078"><ele>37.0</ele><time>2026-04-06T06:16:45Z</time></trkpt><trkpt lat="45.083869433391186" lon="9.962113122680229"><ele>37.285714285714285</ele><time>2026-04-06T06:16:46Z</time></trkpt><trkpt lat="45.08380338431649" lon="9.962163422656491"><ele>37.57142857142857</ele><time>2026-04-06T06:16:47Z</time></trkpt><trkpt lat="45.083737259828474" lon="9.962212996108372"><ele>37.85714285714286</ele><time>2026-04-06T06:16:48Z</time></trkpt><trkpt lat="45.083671477149274" lon="9.962266140849803"><ele>38.14285714285714</ele><time>2026-04-06T06:16:49Z</time></trkpt><trkpt lat="45.08360781396489" lon="9.96232106038408"><ele>38.42857142857142</ele><time>2026-04-06T06:16:50Z</time></trkpt><trkpt lat="45.08354450958985" lon="9.962376032275145"><ele>38.714285714285715</ele><time>2026-04-06T06:16:51Z</time></trkpt><trkpt lat="45.08348091692738" lon="9.96243265408573"><ele>39.0</ele><time>2026-04-06T06:16:51.999Z</time></trkpt><trkpt lat="45.08342161899407" lon="9.962489056184946"><ele>38.85714285714286</ele><time>2026-04-06T06:16:52.999Z</time></trkpt><trkpt lat="45.08336103769461" lon="9.962546420888712"><ele>38.71428571428571</ele><time>2026-04-06T06:16:53.999Z</time></trkpt><trkpt lat="45.08330152036156" lon="9.96260017962565"><ele>38.57142857142857</ele><time>2026-04-06T06:16:54.999Z</time></trkpt><trkpt lat="45.083239681115" lon="9.962654129638805"><ele>38.42857142857143</ele><time>2026-04-06T06:16:55.999Z</time></trkpt><trkpt lat="45.08317852594784" lon="9.962706746981903"><ele>38.28571428571429</ele><time>2026-04-06T06:16:56.999Z</time></trkpt><trkpt lat="45.083119087963205" lon="9.96276177931985"><ele>38.14285714285714</ele><time>2026-04-06T06:16:57.999Z</time></trkpt><trkpt lat="45.08305795322604" lon="9.96281455649532"><ele>38.0</ele><time>2026-04-06T06:16:58.999Z</time></trkpt><trkpt lat="45.08299656537412" lon="9.962866757002239"><ele>38.285714285714285</ele><time>2026-04-06T06:16:59.999Z</time></trkpt><trkpt lat="45.082935357893206" lon="9.962918881338132"><ele>38.57142857142858</ele><time>2026-04-06T06:17:00.999Z</time></trkpt><trkpt lat="45.08287501865086" lon="9.962972465233511"><ele>38.85714285714286</ele><time>2026-04-06T06:17:01.999Z</time></trkpt><trkpt lat="45.08281460728746" lon="9.963024350263444"><ele>39.14285714285714</ele><time>2026-04-06T06:17:02.999Z</time></trkpt><trkpt lat="45.0827533938691" lon="9.96307635864403"><ele>39.42857142857143</ele><time>2026-04-06T06:17:03.999Z</time></trkpt><trkpt lat="45.08269270680208" lon="9.963126933549484"><ele>39.714285714285715</ele><time>2026-04-06T06:17:04.999Z</time></trkpt><trkpt lat="45.082632332065145" lon="9.963181757360694"><ele>40.0</ele><time>2026-04-06T06:17:05.999Z</time></trkpt><trkpt lat="45.08257569828096" lon="9.963238568436907"><ele>40.0</ele><time>2026-04-06T06:17:06.999Z</time></trkpt><trkpt lat="45.08251478371036" lon="9.963289450570306"><ele>40.0</ele><time>2026-04-06T06:17:07.999Z</time></trkpt><trkpt lat="45.08245367781312" lon="9.963344723241853"><ele>40.0</ele><time>2026-04-06T06:17:08.999Z</time></trkpt><trkpt lat="45.08239472903918" lon="9.96339569924727"><ele>40.0</ele><time>2026-04-06T06:17:09.999Z</time></trkpt><trkpt lat="45.0823335934006" lon="9.963450028915558"><ele>40.0</ele><time>2026-04-06T06:17:10.999Z</time></trkpt><trkpt lat="45.08227734009347" lon="9.963503971471004"><ele>40.0</ele><time>2026-04-06T06:17:11.999Z</time></trkpt><trkpt lat="45.08221471563104" lon="9.963556206286245"><ele>40.0</ele><time>2026-04-06T06:17:12.999Z</time></trkpt><trkpt lat="45.082156093979734" lon="9.963609872854876"><ele>39.833333333333336</ele><time>2026-04-06T06:17:13.999Z</time></trkpt><trkpt lat="45.08209592925466" lon="9.963661284926207"><ele>39.66666666666667</ele><time>2026-04-06T06:17:14.999Z</time></trkpt><trkpt lat="45.08203337880645" lon="9.963710478944202"><ele>39.5</ele><time>2026-04-06T06:17:15.999Z</time></trkpt><trkpt lat="45.0819678011775" lon="9.96376319996117"><ele>39.333333333333336</ele><time>2026-04-06T06:17:16.999Z</time></trkpt><trkpt lat="45.081897148775525" lon="9.963809087873141"><ele>39.166666666666664</ele><time>2026-04-06T06:17:17.999Z</time></trkpt><trkpt lat="45.081822983527786" lon="9.963848297887225"><ele>39.0</ele><time>2026-04-06T06:17:18.999Z</time></trkpt><trkpt lat="45.08174498724828" lon="9.963878478083835"><ele>39.0</ele><time>2026-04-06T06:17:19.999Z</time></trkpt><trkpt lat="45.08166570112216" lon="9.963903031739815"><ele>39.0</ele><time>2026-04-06T06:17:20.999Z</time></trkpt><trkpt lat="45.081583272210715" lon="9.963917724578318"><ele>39.0</ele><time>2026-04-06T06:17:21.999Z</time></trkpt><trkpt lat="45.081499639464546" lon="9.963934116645214"><ele>39.0</ele><time>2026-04-06T06:17:22.999Z</time></trkpt><trkpt lat="45.08141497244048" lon="9.9639506852601"><ele>39.0</ele><time>2026-04-06T06:17:23.999Z</time></trkpt><trkpt lat="45.08133045177888" lon="9.963966568084262"><ele>39.0</ele><time>2026-04-06T06:17:24.999Z</time></trkpt><trkpt lat="45.0812442897176" lon="9.963980516318621"><ele>39.0</ele><time>2026-04-06T06:17:25.999Z</time></trkpt><trkpt lat="45.08115776871656" lon="9.963995265676335"><ele>39.0</ele><time>2026-04-06T06:17:26.999Z</time></trkpt><trkpt lat="45.08107129950842" lon="9.964011071816909"><ele>39.0</ele><time>2026-04-06T06:17:27.999Z</time></trkpt><trkpt lat="45.080983474156746" lon="9.964028075127858"><ele>39.0</ele><time>2026-04-06T06:17:28.999Z</time></trkpt><trkpt lat="45.080895303725725" lon="9.964047116179296"><ele>39.0</ele><time>2026-04-06T06:17:29.999Z</time></trkpt><trkpt lat="45.080806456022934" lon="9.964065467799946"><ele>39.0</ele><time>2026-04-06T06:17:30.999Z</time></trkpt><trkpt lat="45.08071822339413" lon="9.964084754650232"><ele>38.6</ele><time>2026-04-06T06:17:31.999Z</time></trkpt><trkpt lat="45.080627258252754" lon="9.964101342008602"><ele>38.2</ele><time>2026-04-06T06:17:32.999Z</time></trkpt><trkpt lat="45.080537228423324" lon="9.96411879723836"><ele>37.800000000000004</ele><time>2026-04-06T06:17:33.999Z</time></trkpt><trkpt lat="45.080445626743966" lon="9.964137291968674"><ele>37.4</ele><time>2026-04-06T06:17:34.999Z</time></trkpt><trkpt lat="45.0803542819961" lon="9.964155556333413"><ele>37.0</ele><time>2026-04-06T06:17:35.999Z</time></trkpt><trkpt lat="45.08026510098543" lon="9.964170658641446"><ele>37.0</ele><time>2026-04-06T06:17:36.999Z</time></trkpt><trkpt lat="45.080173375496" lon="9.964173174339411"><ele>37.0</ele><time>2026-04-06T06:17:37.999Z</time></trkpt><trkpt lat="45.08008516824692" lon="9.96415883499079"><ele>37.0</ele><time>2026-04-06T06:17:38.999Z</time></trkpt><trkpt lat="45.079998774318284" lon="9.964140248448688"><ele>37.0</ele><time>2026-04-06T06:17:39.999Z</time></trkpt><trkpt lat="45.07991572981365" lon="9.964105649386338"><ele>37.0</ele><time>2026-04-06T06:17:40.999Z</time></trkpt><trkpt lat="45.079835291449875" lon="9.96406247168626"><ele>37.0</ele><time>2026-04-06T06:17:41.999Z</time></trkpt><trkpt lat="45.079758602446724" lon="9.964010915452251"><ele>36.833333333333336</ele><time>2026-04-06T06:17:42.999Z</time></trkpt><trkpt lat="45.079686616626816" lon="9.963947672490384"><ele>36.66666666666667</ele><time>2026-04-06T06:17:43.999Z</time></trkpt><trkpt lat="45.07961626109928" lon="9.963878540414223"><ele>36.5</ele><time>2026-04-06T06:17:44.999Z</time></trkpt><trkpt lat="45.07954611656232" lon="9.9638111330655"><ele>36.333333333333336</ele><time>2026-04-06T06:17:45.999Z</time></trkpt><trkpt lat="45.07947836578904" lon="9.963745187753497"><ele>36.166666666666664</ele><time>2026-04-06T06:17:46.999Z</time></trkpt><trkpt lat="45.07941015832916" lon="9.963679977876465"><ele>36.0</ele><time>2026-04-06T06:17:47.999Z</time></trkpt><trkpt lat="45.07934151797882" lon="9.96361302010231"><ele>36.0</ele><time>2026-04-06T06:17:48.999Z</time></trkpt><trkpt lat="45.07927262256769" lon="9.963549056893111"><ele>36.0</ele><time>2026-04-06T06:17:49.999Z</time></trkpt><trkpt lat="45.079205184202785" lon="9.963484097771186"><ele>36.0</ele><time>2026-04-06T06:17:50.999Z</time></trkpt><trkpt lat="45.079137907296406" lon="9.96341685067795"><ele>36.0</ele><time>2026-04-06T06:17:51.998Z</time></trkpt><trkpt lat="45.079069645451256" lon="9.963350998117757"><ele>36.0</ele><time>2026-04-06T06:17:52.998Z</time></trkpt><trkpt lat="45.07899955144769" lon="9.96328411022435"><ele>36.0</ele><time>2026-04-06T06:17:53.998Z</time></trkpt><trkpt lat="45.07893112633242" lon="9.96321771950831"><ele>36.0</ele><time>2026-04-06T06:17:54.998Z</time></trkpt><trkpt lat="45.07886089927339" lon="9.963151325490534"><ele>36.0</ele><time>2026-04-06T06:17:55.998Z</time></trkpt><trkpt lat="45.078789885699315" lon="9.963086862015643"><ele>36.0</ele><time>2026-04-06T06:17:56.998Z</time></trkpt><trkpt lat="45.07871526404251" lon="9.963024177325792"><ele>36.0</ele><time>2026-04-06T06:17:57.998Z</time></trkpt><trkpt lat="45.07863740985599" lon="9.962969023987126"><ele>36.0</ele><time>2026-04-06T06:17:58.998Z</time></trkpt><trkpt lat="45.07856032620129" lon="9.962920292339287"><ele>36.0</ele><time>2026-04-06T06:17:59.998Z</time></trkpt><trkpt lat="45.078481882557256" lon="9.962880791774609"><ele>36.0</ele><time>2026-04-06T06:18:00.998Z</time></trkpt><trkpt lat="45.078403183176505" lon="9.962849231524366"><ele>36.0</ele><time>2026-04-06T06:18:01.998Z</time></trkpt><trkpt lat="45.07832470689206" lon="9.962816177309188"><ele>36.0</ele><time>2026-04-06T06:18:02.998Z</time></trkpt><trkpt lat="45.07824716818533" lon="9.962782221388682"><ele>36.0</ele><time>2026-04-06T06:18:03.998Z</time></trkpt><trkpt lat="45.07816922145656" lon="9.96274818184254"><ele>36.0</ele><time>2026-04-06T06:18:04.998Z</time></trkpt><trkpt lat="45.07809081407714" lon="9.962717744765595"><ele>36.0</ele><time>2026-04-06T06:18:05.998Z</time></trkpt><trkpt lat="45.07801292880305" lon="9.962685746903801"><ele>36.166666666666664</ele><time>2026-04-06T06:18:06.998Z</time></trkpt><trkpt lat="45.07793482902127" lon="9.962648591510892"><ele>36.333333333333336</ele><time>2026-04-06T06:18:07.998Z</time></trkpt><trkpt lat="45.077856148006" lon="9.962613681519347"><ele>36.5</ele><time>2026-04-06T06:18:08.998Z</time></trkpt><trkpt lat="45.07777697955076" lon="9.962580721665619"><ele>36.66666666666667</ele><time>2026-04-06T06:18:09.998Z</time></trkpt><trkpt lat="45.0776988082413" lon="9.962548160102807"><ele>36.833333333333336</ele><time>2026-04-06T06:18:10.998Z</time></trkpt><trkpt lat="45.077621337484274" lon="9.962514000271854"><ele>37.0</ele><time>2026-04-06T06:18:11.998Z</time></trkpt><trkpt lat="45.07754318260518" lon="9.962486276472877"><ele>37.0</ele><time>2026-04-06T06:18:12.998Z</time></trkpt><trkpt lat="45.077465924893694" lon="9.96245747382086"><ele>37.0</ele><time>2026-04-06T06:18:14Z</time></trkpt><trkpt lat="45.077392086142275" lon="9.962425700569115"><ele>37.0</ele><time>2026-04-06T06:18:15Z</time></trkpt><trkpt lat="45.07731742215721" lon="9.962395262210853"><ele>37.0</ele><time>2026-04-06T06:18:16Z</time></trkpt><trkpt lat="45.07724214881882" lon="9.962358807561989"><ele>37.0</ele><time>2026-04-06T06:18:17Z</time></trkpt><trkpt lat="45.07716776216783" lon="9.962322830163457"><ele>37.0</ele><time>2026-04-06T06:18:18Z</time></trkpt><trkpt lat="45.07709325399928" lon="9.962288391086135"><ele>37.16666666666667</ele><time>2026-04-06T06:18:19Z</time></trkpt><trkpt lat="45.07701739789628" lon="9.962252429482245"><ele>37.333333333333336</ele><time>2026-04-06T06:18:20Z</time></trkpt><trkpt lat="45.07694204038338" lon="9.962214167098814"><ele>37.5</ele><time>2026-04-06T06:18:21Z</time></trkpt><trkpt lat="45.07686896250825" lon="9.962174271460889"><ele>37.666666666666664</ele><time>2026-04-06T06:18:22Z</time></trkpt><trkpt lat="45.0767943442961" lon="9.962129935135408"><ele>37.83333333333333</ele><time>2026-04-06T06:18:23Z</time></trkpt><trkpt lat="45.076722179196146" lon="9.962083790761591"><ele>38.0</ele><time>2026-04-06T06:18:24Z</time></trkpt><trkpt lat="45.0766514247505" lon="9.96203181160954"><ele>38.0</ele><time>2026-04-06T06:18:25Z</time></trkpt><trkpt lat="45.076583132101774" lon="9.961977079698723"><ele>38.0</ele><time>2026-04-06T06:18:26Z</time></trkpt><trkpt lat="45.07651523133724" lon="9.961918590623505"><ele>38.0</ele><time>2026-04-06T06:18:27Z</time></trkpt><trkpt lat="45.07644810785136" lon="9.961865532365477"><ele>38.0</ele><time>2026-04-06T06:18:28Z</time></trkpt><trkpt lat="45.076379633519636" lon="9.961813029019787"><ele>38.0</ele><time>2026-04-06T06:18:29Z</time></trkpt><trkpt lat="45.076314957087924" lon="9.961759856152343"><ele>38.0</ele><time>2026-04-06T06:18:30Z</time></trkpt><trkpt lat="45.07625164397659" lon="9.961700495810344"><ele>38.0</ele><time>2026-04-06T06:18:31Z</time></trkpt><trkpt lat="45.07618927504908" lon="9.961633572929614"><ele>38.0</ele><time>2026-04-06T06:18:32Z</time></trkpt><trkpt lat="45.07612738230779" lon="9.961562887105643"><ele>38.0</ele><time>2026-04-06T06:18:33Z</time></trkpt><trkpt lat="45.07607285506187" lon="9.961490595007575"><ele>38.0</ele><time>2026-04-06T06:18:34Z</time></trkpt><trkpt lat="45.07601808740246" lon="9.961409615543904"><ele>38.0</ele><time>2026-04-06T06:18:35Z</time></trkpt><trkpt lat="45.075964066176105" lon="9.961326215807503"><ele>38.0</ele><time>2026-04-06T06:18:36Z</time></trkpt><trkpt lat="45.075910997588586" lon="9.961244045598713"><ele>38.0</ele><time>2026-04-06T06:18:37Z</time></trkpt><trkpt lat="45.075849370324" lon="9.961165768926143"><ele>38.0</ele><time>2026-04-06T06:18:38Z</time></trkpt><trkpt lat="45.0758044422646" lon="9.961076566831554"><ele>38.0</ele><time>2026-04-06T06:18:39Z</time></trkpt><trkpt lat="45.075754005456766" lon="9.960989381844227"><ele>38.0</ele><time>2026-04-06T06:18:40Z</time></trkpt><trkpt lat="45.07570651656884" lon="9.960903953675345"><ele>38.0</ele><time>2026-04-06T06:18:41Z</time></trkpt><trkpt lat="45.07565857750737" lon="9.960819140138137"><ele>38.0</ele><time>2026-04-06T06:18:42Z</time></trkpt><trkpt lat="45.07561185196193" lon="9.960732667175233"><ele>38.166666666666664</ele><time>2026-04-06T06:18:43Z</time></trkpt><trkpt lat="45.075564387558465" lon="9.960645458294247"><ele>38.33333333333333</ele><time>2026-04-06T06:18:44Z</time></trkpt><trkpt lat="45.07551826006731" lon="9.960556680360963"><ele>38.5</ele><time>2026-04-06T06:18:45Z</time></trkpt><trkpt lat="45.07547304128198" lon="9.960465004576697"><ele>38.666666666666664</ele><time>2026-04-06T06:18:46Z</time></trkpt><trkpt lat="45.0754312838054" lon="9.960372972193321"><ele>38.833333333333336</ele><time>2026-04-06T06:18:47Z</time></trkpt><trkpt lat="45.075383433142036" lon="9.96028231518016"><ele>39.0</ele><time>2026-04-06T06:18:48Z</time></trkpt><trkpt lat="45.07533847526206" lon="9.960189103468991"><ele>39.0</ele><time>2026-04-06T06:18:49Z</time></trkpt><trkpt lat="45.075296114930644" lon="9.960095129789071"><ele>39.0</ele><time>2026-04-06T06:18:50Z</time></trkpt><trkpt lat="45.07525387611878" lon="9.959999746965712"><ele>39.0</ele><time>2026-04-06T06:18:51Z</time></trkpt><trkpt lat="45.07521706745486" lon="9.959902741830408"><ele>39.0</ele><time>2026-04-06T06:18:52Z</time></trkpt><trkpt lat="45.075176459429585" lon="9.959806162474274"><ele>39.0</ele><time>2026-04-06T06:18:53Z</time></trkpt><trkpt lat="45.075139638765656" lon="9.959710969834735"><ele>39.0</ele><time>2026-04-06T06:18:54Z</time></trkpt><trkpt lat="45.07510276426851" lon="9.959615552260882"><ele>39.0</ele><time>2026-04-06T06:18:55Z</time></trkpt><trkpt lat="45.07506838421689" lon="9.959515585370463"><ele>39.0</ele><time>2026-04-06T06:18:55.999Z</time></trkpt><trkpt lat="45.0750355971978" lon="9.959413559420549"><ele>39.0</ele><time>2026-04-06T06:18:56.999Z</time></trkpt><trkpt lat="45.074999843065264" lon="9.959311467175134"><ele>39.0</ele><time>2026-04-06T06:18:57.999Z</time></trkpt><trkpt lat="45.074963817165774" lon="9.959210247466766"><ele>39.0</ele><time>2026-04-06T06:18:58.999Z</time></trkpt><trkpt lat="45.074929662465735" lon="9.959105520971336"><ele>39.0</ele><time>2026-04-06T06:18:59.999Z</time></trkpt><trkpt lat="45.07489382176974" lon="9.95900304455351"><ele>38.833333333333336</ele><time>2026-04-06T06:19:00.999Z</time></trkpt><trkpt lat="45.07485671783636" lon="9.958899765361538"><ele>38.666666666666664</ele><time>2026-04-06T06:19:01.999Z</time></trkpt><trkpt lat="45.074817569207354" lon="9.958802369534414"><ele>38.5</ele><time>2026-04-06T06:19:02.999Z</time></trkpt><trkpt lat="45.07478123432537" lon="9.958703222974915"><ele>38.33333333333333</ele><time>2026-04-06T06:19:03.999Z</time></trkpt><trkpt lat="45.07474301321216" lon="9.958604882273253"><ele>38.166666666666664</ele><time>2026-04-06T06:19:04.999Z</time></trkpt><trkpt lat="45.074700522781015" lon="9.958509824559199"><ele>38.0</ele><time>2026-04-06T06:19:05.999Z</time></trkpt><trkpt lat="45.07466211995444" lon="9.958414372546574"><ele>38.0</ele><time>2026-04-06T06:19:06.999Z</time></trkpt><trkpt lat="45.074622578818264" lon="9.958324528340368"><ele>38.0</ele><time>2026-04-06T06:19:07.999Z</time></trkpt><trkpt lat="45.074578292207114" lon="9.958236189751547"><ele>38.0</ele><time>2026-04-06T06:19:08.999Z</time></trkpt><trkpt lat="45.074535245032585" lon="9.95814830489109"><ele>38.0</ele><time>2026-04-06T06:19:09.999Z</time></trkpt><trkpt lat="45.07449041016376" lon="9.958061751658606"><ele>38.0</ele><time>2026-04-06T06:19:10.999Z</time></trkpt><trkpt lat="45.074445199366714" lon="9.957972942884258"><ele>38.0</ele><time>2026-04-06T06:19:11.999Z</time></trkpt><trkpt lat="45.07439946137988" lon="9.957886204170645"><ele>38.0</ele><time>2026-04-06T06:19:12.999Z</time></trkpt><trkpt lat="45.0743517187089" lon="9.957799945188155"><ele>38.0</ele><time>2026-04-06T06:19:13.999Z</time></trkpt><trkpt lat="45.0743033236054" lon="9.957715419889817"><ele>38.0</ele><time>2026-04-06T06:19:14.999Z</time></trkpt><trkpt lat="45.074248837547046" lon="9.957636494704184"><ele>38.0</ele><time>2026-04-06T06:19:15.999Z</time></trkpt><trkpt lat="45.074193049428395" lon="9.957559042549455"><ele>38.0</ele><time>2026-04-06T06:19:16.999Z</time></trkpt><trkpt lat="45.07413320760088" lon="9.957485597153545"><ele>38.0</ele><time>2026-04-06T06:19:17.999Z</time></trkpt><trkpt lat="45.07407481527892" lon="9.957409366542587"><ele>37.666666666666664</ele><time>2026-04-06T06:19:18.999Z</time></trkpt><trkpt lat="45.07401290007617" lon="9.957336229511448"><ele>37.33333333333333</ele><time>2026-04-06T06:19:19.999Z</time></trkpt><trkpt lat="45.07394941549138" lon="9.957264329972567"><ele>37.0</ele><time>2026-04-06T06:19:20.999Z</time></trkpt><trkpt lat="45.07388655776557" lon="9.957193484391471"><ele>36.666666666666664</ele><time>2026-04-06T06:19:21.999Z</time></trkpt><trkpt lat="45.07382094753703" lon="9.957123481963405"><ele>36.333333333333336</ele><time>2026-04-06T06:19:22.999Z</time></trkpt><trkpt lat="45.07375505493654" lon="9.95705083577005"><ele>36.0</ele><time>2026-04-06T06:19:23.999Z</time></trkpt><trkpt lat="45.07369123531522" lon="9.956981586664572"><ele>36.0</ele><time>2026-04-06T06:19:24.999Z</time></trkpt><trkpt lat="45.073628405092876" lon="9.956911151709793"><ele>36.0</ele><time>2026-04-06T06:19:25.999Z</time></trkpt><trkpt lat="45.07356688932549" lon="9.95684167971087"><ele>36.0</ele><time>2026-04-06T06:19:26.999Z</time></trkpt><trkpt lat="45.073506255462945" lon="9.95677206488149"><ele>36.0</ele><time>2026-04-06T06:19:27.999Z</time></trkpt><trkpt lat="45.073445150690794" lon="9.956703735164298"><ele>36.0</ele><time>2026-04-06T06:19:28.999Z</time></trkpt><trkpt lat="45.07338364021195" lon="9.956636426227682"><ele>36.0</ele><time>2026-04-06T06:19:29.999Z</time></trkpt><trkpt lat="45.07332427003444" lon="9.956569419652027"><ele>35.833333333333336</ele><time>2026-04-06T06:19:30.999Z</time></trkpt><trkpt lat="45.073265934846155" lon="9.956500451723707"><ele>35.666666666666664</ele><time>2026-04-06T06:19:31.999Z</time></trkpt><trkpt lat="45.07320730722772" lon="9.956430518187322"><ele>35.5</ele><time>2026-04-06T06:19:32.999Z</time></trkpt><trkpt lat="45.073147440359676" lon="9.95636180963903"><ele>35.33333333333333</ele><time>2026-04-06T06:19:33.999Z</time></trkpt><trkpt lat="45.07308710744252" lon="9.956294385331143"><ele>35.166666666666664</ele><time>2026-04-06T06:19:34.999Z</time></trkpt><trkpt lat="45.07302673747453" lon="9.956226842222025"><ele>35.0</ele><time>2026-04-06T06:19:35.999Z</time></trkpt><trkpt lat="45.07296891650519" lon="9.95615307263139"><ele>35.0</ele><time>2026-04-06T06:19:36.999Z</time></trkpt><trkpt lat="45.072910336752244" lon="9.95608363179876"><ele>35.0</ele><time>2026-04-06T06:19:37.999Z</time></trkpt><trkpt lat="45.072850904978196" lon="9.956014714265793"><ele>35.0</ele><time>2026-04-06T06:19:38.999Z</time></trkpt><trkpt lat="45.07279197762139" lon="9.955942674356981"><ele>35.0</ele><time>2026-04-06T06:19:39.999Z</time></trkpt><trkpt lat="45.07273675990493" lon="9.955865390160008"><ele>35.0</ele><time>2026-04-06T06:19:40.999Z</time></trkpt><trkpt lat="45.07267629273488" lon="9.955791040660685"><ele>35.0</ele><time>2026-04-06T06:19:41.999Z</time></trkpt><trkpt lat="45.07261566726715" lon="9.955722357859415"><ele>35.0</ele><time>2026-04-06T06:19:42.999Z</time></trkpt><trkpt lat="45.07255286874099" lon="9.955655867657471"><ele>35.0</ele><time>2026-04-06T06:19:43.999Z</time></trkpt><trkpt lat="45.07249039880907" lon="9.955589409680698"><ele>35.0</ele><time>2026-04-06T06:19:44.999Z</time></trkpt><trkpt lat="45.07242807305764" lon="9.955516766522178"><ele>35.0</ele><time>2026-04-06T06:19:45.999Z</time></trkpt><trkpt lat="45.07236874923837" lon="9.955446377914788"><ele>35.0</ele><time>2026-04-06T06:19:46.999Z</time></trkpt><trkpt lat="45.07230774326323" lon="9.955378939214961"><ele>35.0</ele><time>2026-04-06T06:19:47.999Z</time></trkpt><trkpt lat="45.07224690697899" lon="9.955306689105262"><ele>35.0</ele><time>2026-04-06T06:19:48.999Z</time></trkpt><trkpt lat="45.07218674232139" lon="9.955237225765803"><ele>35.0</ele><time>2026-04-06T06:19:49.999Z</time></trkpt><trkpt lat="45.072126041506976" lon="9.955165477650942"><ele>35.0</ele><time>2026-04-06T06:19:50.999Z</time></trkpt><trkpt lat="45.072064763703644" lon="9.955096391678367"><ele>35.0</ele><time>2026-04-06T06:19:51.999Z</time></trkpt><trkpt lat="45.072003805898106" lon="9.955026721355178"><ele>35.0</ele><time>2026-04-06T06:19:52.999Z</time></trkpt><trkpt lat="45.071944038033315" lon="9.954957137890759"><ele>35.0</ele><time>2026-04-06T06:19:53.999Z</time></trkpt><trkpt lat="45.07188451286974" lon="9.954884768951835"><ele>34.83333333333333</ele><time>2026-04-06T06:19:54.999Z</time></trkpt><trkpt lat="45.071825463315" lon="9.954813617255459"><ele>34.666666666666664</ele><time>2026-04-06T06:19:55.998Z</time></trkpt><trkpt lat="45.07176626884287" lon="9.954743040141024"><ele>34.5</ele><time>2026-04-06T06:19:56.998Z</time></trkpt><trkpt lat="45.07170569336597" lon="9.9546743169312"><ele>34.333333333333336</ele><time>2026-04-06T06:19:57.998Z</time></trkpt><trkpt lat="45.07164562757794" lon="9.954607199064359"><ele>34.16666666666667</ele><time>2026-04-06T06:19:58.998Z</time></trkpt><trkpt lat="45.07158556320116" lon="9.95453767401099"><ele>34.0</ele><time>2026-04-06T06:19:59.998Z</time></trkpt><trkpt lat="45.07152626332026" lon="9.95446535640315"><ele>34.5</ele><time>2026-04-06T06:20:00.998Z</time></trkpt><trkpt lat="45.0714655748073" lon="9.95439563762965"><ele>35.0</ele><time>2026-04-06T06:20:01.998Z</time></trkpt><trkpt lat="45.07140535335483" lon="9.954323072302543"><ele>35.5</ele><time>2026-04-06T06:20:02.998Z</time></trkpt><trkpt lat="45.07134538661895" lon="9.954253056753943"><ele>36.0</ele><time>2026-04-06T06:20:03.998Z</time></trkpt><trkpt lat="45.071283948141186" lon="9.954183658994628"><ele>36.5</ele><time>2026-04-06T06:20:04.998Z</time></trkpt><trkpt lat="45.07122299867575" lon="9.954111736393848"><ele>37.0</ele><time>2026-04-06T06:20:05.998Z</time></trkpt><trkpt lat="45.07116229125831" lon="9.954039182218137"><ele>37.16666666666667</ele><time>2026-04-06T06:20:06.998Z</time></trkpt><trkpt lat="45.071102708215555" lon="9.953967962802063"><ele>37.333333333333336</ele><time>2026-04-06T06:20:07.998Z</time></trkpt><trkpt lat="45.071042147148766" lon="9.953897940485906"><ele>37.5</ele><time>2026-04-06T06:20:08.998Z</time></trkpt><trkpt lat="45.07098181946797" lon="9.953831114694001"><ele>37.666666666666664</ele><time>2026-04-06T06:20:09.998Z</time></trkpt><trkpt lat="45.070921230725105" lon="9.953764597123111"><ele>37.83333333333333</ele><time>2026-04-06T06:20:10.998Z</time></trkpt><trkpt lat="45.07086360120845" lon="9.953696036916453"><ele>38.0</ele><time>2026-04-06T06:20:11.998Z</time></trkpt><trkpt lat="45.07080533109888" lon="9.953628488338582"><ele>37.83333333333333</ele><time>2026-04-06T06:20:12.998Z</time></trkpt><trkpt lat="45.070746262518824" lon="9.953565423987042"><ele>37.666666666666664</ele><time>2026-04-06T06:20:13.998Z</time></trkpt><trkpt lat="45.07068971417528" lon="9.953494861411382"><ele>37.5</ele><time>2026-04-06T06:20:14.998Z</time></trkpt><trkpt lat="45.0706319056268" lon="9.953425600144373"><ele>37.333333333333336</ele><time>2026-04-06T06:20:15.998Z</time></trkpt><trkpt lat="45.07057069380832" lon="9.95336103987585"><ele>37.16666666666667</ele><time>2026-04-06T06:20:16.998Z</time></trkpt><trkpt lat="45.070512124219796" lon="9.95329312676282"><ele>37.0</ele><time>2026-04-06T06:20:17.998Z</time></trkpt><trkpt lat="45.07045358562186" lon="9.953222325124194"><ele>37.0</ele><time>2026-04-06T06:20:19Z</time></trkpt><trkpt lat="45.07039584638806" lon="9.95315091042164"><ele>37.0</ele><time>2026-04-06T06:20:20Z</time></trkpt><trkpt lat="45.07033711141375" lon="9.953080687103759"><ele>37.0</ele><time>2026-04-06T06:20:21Z</time></trkpt><trkpt lat="45.07027874900351" lon="9.95301047312897"><ele>37.0</ele><time>2026-04-06T06:20:22Z</time></trkpt><trkpt lat="45.07022001182591" lon="9.95293971545205"><ele>37.0</ele><time>2026-04-06T06:20:23Z</time></trkpt><trkpt lat="45.07016082241166" lon="9.95286943522496"><ele>37.0</ele><time>2026-04-06T06:20:24Z</time></trkpt><trkpt lat="45.070099498903645" lon="9.952802629013581"><ele>37.0</ele><time>2026-04-06T06:20:25Z</time></trkpt><trkpt lat="45.07003821730771" lon="9.952731544559574"><ele>37.0</ele><time>2026-04-06T06:20:26Z</time></trkpt><trkpt lat="45.06997898494205" lon="9.95265766951519"><ele>37.0</ele><time>2026-04-06T06:20:27Z</time></trkpt><trkpt lat="45.0699175035793" lon="9.952583046073473"><ele>37.0</ele><time>2026-04-06T06:20:28Z</time></trkpt><trkpt lat="45.069856030788685" lon="9.952512248771889"><ele>37.0</ele><time>2026-04-06T06:20:29Z</time></trkpt><trkpt lat="45.06979335937258" lon="9.95244115684759"><ele>37.0</ele><time>2026-04-06T06:20:30Z</time></trkpt><trkpt lat="45.06973168532813" lon="9.952369524267489"><ele>37.0</ele><time>2026-04-06T06:20:31Z</time></trkpt><trkpt lat="45.06967060857178" lon="9.952297711775639"><ele>37.0</ele><time>2026-04-06T06:20:32Z</time></trkpt><trkpt lat="45.069610145849424" lon="9.952226064208888"><ele>37.0</ele><time>2026-04-06T06:20:33Z</time></trkpt><trkpt lat="45.069549027492755" lon="9.952155223279485"><ele>37.0</ele><time>2026-04-06T06:20:34Z</time></trkpt><trkpt lat="45.06948931444376" lon="9.952085428012685"><ele>37.0</ele><time>2026-04-06T06:20:35Z</time></trkpt><trkpt lat="45.06942844113057" lon="9.952017041009995"><ele>37.0</ele><time>2026-04-06T06:20:36Z</time></trkpt><trkpt lat="45.06936953057074" lon="9.95194474584137"><ele>37.0</ele><time>2026-04-06T06:20:37Z</time></trkpt><trkpt lat="45.069309503764266" lon="9.951874780722287"><ele>37.0</ele><time>2026-04-06T06:20:38Z</time></trkpt><trkpt lat="45.06924911721617" lon="9.95180454632134"><ele>37.0</ele><time>2026-04-06T06:20:39Z</time></trkpt><trkpt lat="45.06918994512797" lon="9.951732568814606"><ele>37.0</ele><time>2026-04-06T06:20:40Z</time></trkpt><trkpt lat="45.06913109116959" lon="9.951663263837725"><ele>37.0</ele><time>2026-04-06T06:20:41Z</time></trkpt><trkpt lat="45.06907044303314" lon="9.95159563304849"><ele>37.0</ele><time>2026-04-06T06:20:42Z</time></trkpt><trkpt lat="45.06901095159052" lon="9.951528219843837"><ele>36.5</ele><time>2026-04-06T06:20:43Z</time></trkpt><trkpt lat="45.068952069607306" lon="9.951458177812867"><ele>36.0</ele><time>2026-04-06T06:20:44Z</time></trkpt><trkpt lat="45.06889465270272" lon="9.951387098994921"><ele>35.5</ele><time>2026-04-06T06:20:45Z</time></trkpt><trkpt lat="45.068835187056536" lon="9.951320060418949"><ele>35.0</ele><time>2026-04-06T06:20:46Z</time></trkpt><trkpt lat="45.06877743966275" lon="9.951246768587229"><ele>34.5</ele><time>2026-04-06T06:20:47Z</time></trkpt><trkpt lat="45.06872298514366" lon="9.951169653471549"><ele>34.0</ele><time>2026-04-06T06:20:48Z</time></trkpt><trkpt lat="45.068665170536256" lon="9.95109768967904"><ele>34.0</ele><time>2026-04-06T06:20:49Z</time></trkpt><trkpt lat="45.06860976172714" lon="9.951019247498346"><ele>34.0</ele><time>2026-04-06T06:20:50Z</time></trkpt><trkpt lat="45.06854757579047" lon="9.950950910528459"><ele>34.0</ele><time>2026-04-06T06:20:51Z</time></trkpt><trkpt lat="45.068488233366054" lon="9.950883046299525"><ele>34.0</ele><time>2026-04-06T06:20:52Z</time></trkpt><trkpt lat="45.06842755277268" lon="9.950812942177096"><ele>34.0</ele><time>2026-04-06T06:20:53Z</time></trkpt><trkpt lat="45.06836926316919" lon="9.9507416041164"><ele>34.0</ele><time>2026-04-06T06:20:54Z</time></trkpt><trkpt lat="45.06830766141511" lon="9.95067085983671"><ele>34.333333333333336</ele><time>2026-04-06T06:20:55Z</time></trkpt><trkpt lat="45.06824613658924" lon="9.950604373846387"><ele>34.66666666666667</ele><time>2026-04-06T06:20:56Z</time></trkpt><trkpt lat="45.06818207896346" lon="9.9505437196324"><ele>35.0</ele><time>2026-04-06T06:20:57Z</time></trkpt><trkpt lat="45.06811504866399" lon="9.950484374479768"><ele>35.333333333333336</ele><time>2026-04-06T06:20:58Z</time></trkpt><trkpt lat="45.068049482217525" lon="9.95042347799974"><ele>35.666666666666664</ele><time>2026-04-06T06:20:59Z</time></trkpt><trkpt lat="45.06797928191595" lon="9.95036680909022"><ele>36.0</ele><time>2026-04-06T06:21:00Z</time></trkpt><trkpt lat="45.06790965745422" lon="9.950311374217948"><ele>36.0</ele><time>2026-04-06T06:21:01Z</time></trkpt><trkpt lat="45.067838025987434" lon="9.95025424321502"><ele>36.0</ele><time>2026-04-06T06:21:01.999Z</time></trkpt><trkpt lat="45.067765806625935" lon="9.950200354909075"><ele>36.0</ele><time>2026-04-06T06:21:02.999Z</time></trkpt><trkpt lat="45.06769033045612" lon="9.950153375942227"><ele>36.0</ele><time>2026-04-06T06:21:03.999Z</time></trkpt><trkpt lat="45.067614727730195" lon="9.95010912871124"><ele>36.0</ele><time>2026-04-06T06:21:04.999Z</time></trkpt><trkpt lat="45.067543401623205" lon="9.950062921369499"><ele>36.0</ele><time>2026-04-06T06:21:05.999Z</time></trkpt><trkpt lat="45.067469588308484" lon="9.950013897608839"><ele>36.5</ele><time>2026-04-06T06:21:06.999Z</time></trkpt><trkpt lat="45.06739383288436" lon="9.949970378254266"><ele>37.0</ele><time>2026-04-06T06:21:07.999Z</time></trkpt><trkpt lat="45.06731899864572" lon="9.949925390548106"><ele>37.5</ele><time>2026-04-06T06:21:08.999Z</time></trkpt><trkpt lat="45.067246886103185" lon="9.949878733631488"><ele>38.0</ele><time>2026-04-06T06:21:09.999Z</time></trkpt><trkpt lat="45.067171374027886" lon="9.949832308274145"><ele>38.5</ele><time>2026-04-06T06:21:10.999Z</time></trkpt><trkpt lat="45.067093944815404" lon="9.94978135325169"><ele>39.0</ele><time>2026-04-06T06:21:11.999Z</time></trkpt><trkpt lat="45.06701789500469" lon="9.949734860618998"><ele>39.0</ele><time>2026-04-06T06:21:12.999Z</time></trkpt><trkpt lat="45.06694316481147" lon="9.949685508781963"><ele>39.0</ele><time>2026-04-06T06:21:13.999Z</time></trkpt><trkpt lat="45.06686941591814" lon="9.949634445542006"><ele>39.0</ele><time>2026-04-06T06:21:14.999Z</time></trkpt><trkpt lat="45.06678977592954" lon="9.949586437384363"><ele>39.0</ele><time>2026-04-06T06:21:15.999Z</time></trkpt><trkpt lat="45.06671678588321" lon="9.949540045998733"><ele>39.0</ele><time>2026-04-06T06:21:16.999Z</time></trkpt><trkpt lat="45.066641099327185" lon="9.949490614973008"><ele>39.0</ele><time>2026-04-06T06:21:17.999Z</time></trkpt><trkpt lat="45.066564373243445" lon="9.949447612405953"><ele>39.0</ele><time>2026-04-06T06:21:18.999Z</time></trkpt><trkpt lat="45.066492701937136" lon="9.949398847856706"><ele>39.0</ele><time>2026-04-06T06:21:19.999Z</time></trkpt><trkpt lat="45.06641677425211" lon="9.94934962288079"><ele>39.0</ele><time>2026-04-06T06:21:20.999Z</time></trkpt><trkpt lat="45.066343496264864" lon="9.949308879698382"><ele>39.0</ele><time>2026-04-06T06:21:21.999Z</time></trkpt><trkpt lat="45.06627267179859" lon="9.949263584176403"><ele>39.0</ele><time>2026-04-06T06:21:22.999Z</time></trkpt><trkpt lat="45.06619610184659" lon="9.94921961186127"><ele>39.0</ele><time>2026-04-06T06:21:23.999Z</time></trkpt><trkpt lat="45.06612854796104" lon="9.94918478898865"><ele>39.142857142857146</ele><time>2026-04-06T06:21:24.999Z</time></trkpt><trkpt lat="45.06605899053106" lon="9.949147762927197"><ele>39.285714285714285</ele><time>2026-04-06T06:21:25.999Z</time></trkpt><trkpt lat="45.06599043627277" lon="9.949108139816232"><ele>39.42857142857143</ele><time>2026-04-06T06:21:26.999Z</time></trkpt><trkpt lat="45.06592166670102" lon="9.949071568964099"><ele>39.57142857142857</ele><time>2026-04-06T06:21:27.999Z</time></trkpt><trkpt lat="45.06585899664231" lon="9.949037205783185"><ele>39.714285714285715</ele><time>2026-04-06T06:21:28.999Z</time></trkpt><trkpt lat="45.065792600130756" lon="9.94900138151991"><ele>39.857142857142854</ele><time>2026-04-06T06:21:29.999Z</time></trkpt><trkpt lat="45.065726270647225" lon="9.948964680792518"><ele>40.0</ele><time>2026-04-06T06:21:30.999Z</time></trkpt><trkpt lat="45.065658927153144" lon="9.948930181095477"><ele>40.0</ele><time>2026-04-06T06:21:31.999Z</time></trkpt><trkpt lat="45.065591161676444" lon="9.948893808181747"><ele>40.0</ele><time>2026-04-06T06:21:32.999Z</time></trkpt><trkpt lat="45.065523028706195" lon="9.948862137433238"><ele>40.0</ele><time>2026-04-06T06:21:33.999Z</time></trkpt><trkpt lat="45.06545315198284" lon="9.948827433781517"><ele>40.0</ele><time>2026-04-06T06:21:34.999Z</time></trkpt><trkpt lat="45.065382614399155" lon="9.948794376162066"><ele>40.0</ele><time>2026-04-06T06:21:35.999Z</time></trkpt><trkpt lat="45.065314293357424" lon="9.948762076032292"><ele>40.0</ele><time>2026-04-06T06:21:36.999Z</time></trkpt><trkpt lat="45.06524399304299" lon="9.948726681539867"><ele>40.0</ele><time>2026-04-06T06:21:37.999Z</time></trkpt><trkpt lat="45.06517443810067" lon="9.948693232186052"><ele>40.0</ele><time>2026-04-06T06:21:38.999Z</time></trkpt><trkpt lat="45.065104534829906" lon="9.94865818658991"><ele>40.0</ele><time>2026-04-06T06:21:39.999Z</time></trkpt><trkpt lat="45.06503584107285" lon="9.948624994287607"><ele>40.0</ele><time>2026-04-06T06:21:40.999Z</time></trkpt><trkpt lat="45.064966506037635" lon="9.948593137429562"><ele>40.0</ele><time>2026-04-06T06:21:41.999Z</time></trkpt><trkpt lat="45.06489950923277" lon="9.948564599022465"><ele>40.0</ele><time>2026-04-06T06:21:42.999Z</time></trkpt><trkpt lat="45.0648325437403" lon="9.948528504130138"><ele>40.0</ele><time>2026-04-06T06:21:43.999Z</time></trkpt><trkpt lat="45.06476594460645" lon="9.948497000913619"><ele>40.0</ele><time>2026-04-06T06:21:44.999Z</time></trkpt><trkpt lat="45.06470010341202" lon="9.948466189464806"><ele>40.0</ele><time>2026-04-06T06:21:45.999Z</time></trkpt><trkpt lat="45.06463678551449" lon="9.948435392804331"><ele>40.0</ele><time>2026-04-06T06:21:46.999Z</time></trkpt><trkpt lat="45.06457232795286" lon="9.948406575030234"><ele>40.0</ele><time>2026-04-06T06:21:47.999Z</time></trkpt><trkpt lat="45.064508538293005" lon="9.9483791962467"><ele>40.0</ele><time>2026-04-06T06:21:48.999Z</time></trkpt><trkpt lat="45.06444624477168" lon="9.948349622717034"><ele>40.0</ele><time>2026-04-06T06:21:49.999Z</time></trkpt><trkpt lat="45.064384656240904" lon="9.9483211182534"><ele>40.0</ele><time>2026-04-06T06:21:50.999Z</time></trkpt><trkpt lat="45.06432188207913" lon="9.948291813628334"><ele>40.0</ele><time>2026-04-06T06:21:51.999Z</time></trkpt><trkpt lat="45.06425879960876" lon="9.948261955517458"><ele>40.0</ele><time>2026-04-06T06:21:52.999Z</time></trkpt><trkpt lat="45.06419758852746" lon="9.948233699812945"><ele>40.0</ele><time>2026-04-06T06:21:53.999Z</time></trkpt><trkpt lat="45.06413379702985" lon="9.948202808197136"><ele>40.0</ele><time>2026-04-06T06:21:54.999Z</time></trkpt><trkpt lat="45.06407241661216" lon="9.948175597618816"><ele>40.0</ele><time>2026-04-06T06:21:55.999Z</time></trkpt><trkpt lat="45.064006268395886" lon="9.948141703712801"><ele>40.0</ele><time>2026-04-06T06:21:56.999Z</time></trkpt><trkpt lat="45.063942712432116" lon="9.94811204659764"><ele>40.0</ele><time>2026-04-06T06:21:57.999Z</time></trkpt><trkpt lat="45.063876640806285" lon="9.948080957826836"><ele>40.0</ele><time>2026-04-06T06:21:58.999Z</time></trkpt><trkpt lat="45.06381194564042" lon="9.948051056035874"><ele>40.14285714285714</ele><time>2026-04-06T06:21:59.999Z</time></trkpt><trkpt lat="45.06374433423147" lon="9.948021526709933"><ele>40.285714285714285</ele><time>2026-04-06T06:22:00.999Z</time></trkpt><trkpt lat="45.06367989157519" lon="9.947991869077914"><ele>40.42857142857143</ele><time>2026-04-06T06:22:01.998Z</time></trkpt><trkpt lat="45.06361306628047" lon="9.947961686390913"><ele>40.57142857142857</ele><time>2026-04-06T06:22:02.998Z</time></trkpt><trkpt lat="45.06354666567705" lon="9.94793429523463"><ele>40.714285714285715</ele><time>2026-04-06T06:22:03.998Z</time></trkpt><trkpt lat="45.063478235094514" lon="9.94789889069171"><ele>40.857142857142854</ele><time>2026-04-06T06:22:04.998Z</time></trkpt><trkpt lat="45.06341000453938" lon="9.947870093214185"><ele>41.0</ele><time>2026-04-06T06:22:05.998Z</time></trkpt><trkpt lat="45.06334249419179" lon="9.947843424270518"><ele>40.99999999999999</ele><time>2026-04-06T06:22:06.998Z</time></trkpt><trkpt lat="45.06327565437023" lon="9.947815729502226"><ele>41.0</ele><time>2026-04-06T06:22:07.998Z</time></trkpt><trkpt lat="45.06320809920987" lon="9.94778493918806"><ele>41.0</ele><time>2026-04-06T06:22:08.998Z</time></trkpt><trkpt lat="45.06314227187555" lon="9.94776024067085"><ele>41.0</ele><time>2026-04-06T06:22:09.998Z</time></trkpt><trkpt lat="45.06307441197377" lon="9.947736732419582"><ele>41.0</ele><time>2026-04-06T06:22:10.998Z</time></trkpt><trkpt lat="45.0630082939321" lon="9.947712586288324"><ele>40.99999999999999</ele><time>2026-04-06T06:22:11.998Z</time></trkpt><trkpt lat="45.06294089586605" lon="9.947689529815225"><ele>41.0</ele><time>2026-04-06T06:22:12.998Z</time></trkpt><trkpt lat="45.06287250924579" lon="9.947664683981863"><ele>40.99999999999999</ele><time>2026-04-06T06:22:13.998Z</time></trkpt><trkpt lat="45.062803157840825" lon="9.94763892432454"><ele>41.0</ele><time>2026-04-06T06:22:14.998Z</time></trkpt><trkpt lat="45.062733434405125" lon="9.947610972482103"><ele>41.0</ele><time>2026-04-06T06:22:15.998Z</time></trkpt><trkpt lat="45.06266084432328" lon="9.947587832587235"><ele>41.0</ele><time>2026-04-06T06:22:16.998Z</time></trkpt><trkpt lat="45.062588860343006" lon="9.947562572008172"><ele>41.0</ele><time>2026-04-06T06:22:17.998Z</time></trkpt><trkpt lat="45.06251842455319" lon="9.947533267759699"><ele>40.99999999999999</ele><time>2026-04-06T06:22:18.998Z</time></trkpt><trkpt lat="45.062444124810625" lon="9.947512983582373"><ele>41.0</ele><time>2026-04-06T06:22:19.998Z</time></trkpt><trkpt lat="45.06237146654509" lon="9.94748937359528"><ele>40.33333333333333</ele><time>2026-04-06T06:22:20.998Z</time></trkpt><trkpt lat="45.06229563472403" lon="9.947464871195505"><ele>39.666666666666664</ele><time>2026-04-06T06:22:21.998Z</time></trkpt><trkpt lat="45.06221901779216" lon="9.947435478973224"><ele>39.0</ele><time>2026-04-06T06:22:22.998Z</time></trkpt><trkpt lat="45.062142241631356" lon="9.947401844810706"><ele>38.333333333333336</ele><time>2026-04-06T06:22:23.998Z</time></trkpt><trkpt lat="45.06206513909695" lon="9.947370040675532"><ele>37.66666666666667</ele><time>2026-04-06T06:22:25Z</time></trkpt><trkpt lat="45.06198736618804" lon="9.947337523327814"><ele>37.0</ele><time>2026-04-06T06:22:26Z</time></trkpt><trkpt lat="45.06191000378583" lon="9.947301068326087"><ele>37.0</ele><time>2026-04-06T06:22:27Z</time></trkpt><trkpt lat="45.06183153505014" lon="9.947265159467165"><ele>37.0</ele><time>2026-04-06T06:22:28Z</time></trkpt><trkpt lat="45.061753718244745" lon="9.947229507397177"><ele>37.0</ele><time>2026-04-06T06:22:29Z</time></trkpt><trkpt lat="45.06167508780375" lon="9.947192498741042"><ele>37.0</ele><time>2026-04-06T06:22:30Z</time></trkpt><trkpt lat="45.06159683730977" lon="9.947156327417018"><ele>37.0</ele><time>2026-04-06T06:22:31Z</time></trkpt><trkpt lat="45.061516299205095" lon="9.947118914791476"><ele>37.0</ele><time>2026-04-06T06:22:32Z</time></trkpt><trkpt lat="45.061439653379296" lon="9.947082526728789"><ele>36.833333333333336</ele><time>2026-04-06T06:22:33Z</time></trkpt><trkpt lat="45.061362704765095" lon="9.947043108348488"><ele>36.66666666666667</ele><time>2026-04-06T06:22:34Z</time></trkpt><trkpt lat="45.0612858148598" lon="9.947004785032172"><ele>36.5</ele><time>2026-04-06T06:22:35Z</time></trkpt><trkpt lat="45.06120880662003" lon="9.94696793338443"><ele>36.333333333333336</ele><time>2026-04-06T06:22:36Z</time></trkpt><trkpt lat="45.06113013687229" lon="9.94693112523183"><ele>36.166666666666664</ele><time>2026-04-06T06:22:37Z</time></trkpt><trkpt lat="45.06105150125963" lon="9.946891412028446"><ele>36.0</ele><time>2026-04-06T06:22:38Z</time></trkpt><trkpt lat="45.060972912213835" lon="9.946851828342364"><ele>36.0</ele><time>2026-04-06T06:22:39Z</time></trkpt><trkpt lat="45.06089356951392" lon="9.94681526619271"><ele>36.0</ele><time>2026-04-06T06:22:40Z</time></trkpt><trkpt lat="45.060815427794985" lon="9.946777721159062"><ele>36.0</ele><time>2026-04-06T06:22:41Z</time></trkpt><trkpt lat="45.06073723377564" lon="9.946739467535997"><ele>36.0</ele><time>2026-04-06T06:22:42Z</time></trkpt><trkpt lat="45.060659697528806" lon="9.946703974228472"><ele>36.0</ele><time>2026-04-06T06:22:43Z</time></trkpt><trkpt lat="45.06058088228796" lon="9.94666760886108"><ele>36.0</ele><time>2026-04-06T06:22:44Z</time></trkpt><trkpt lat="45.060501714867" lon="9.946631292384044"><ele>36.0</ele><time>2026-04-06T06:22:45Z</time></trkpt><trkpt lat="45.06042235201111" lon="9.946596079948138"><ele>36.0</ele><time>2026-04-06T06:22:46Z</time></trkpt><trkpt lat="45.06034325475613" lon="9.946561480043426"><ele>36.0</ele><time>2026-04-06T06:22:47Z</time></trkpt><trkpt lat="45.06026311213947" lon="9.946523634871806"><ele>36.0</ele><time>2026-04-06T06:22:48Z</time></trkpt><trkpt lat="45.06018408204712" lon="9.946491223834956"><ele>36.0</ele><time>2026-04-06T06:22:49Z</time></trkpt><trkpt lat="45.060102454789664" lon="9.946458161274126"><ele>36.0</ele><time>2026-04-06T06:22:50Z</time></trkpt><trkpt lat="45.060021061535195" lon="9.946426978252594"><ele>36.166666666666664</ele><time>2026-04-06T06:22:51Z</time></trkpt><trkpt lat="45.0599384025555" lon="9.94639784192583"><ele>36.333333333333336</ele><time>2026-04-06T06:22:52Z</time></trkpt><trkpt lat="45.059856938100204" lon="9.94636684468824"><ele>36.5</ele><time>2026-04-06T06:22:53Z</time></trkpt><trkpt lat="45.05977406255155" lon="9.946338009122028"><ele>36.66666666666667</ele><time>2026-04-06T06:22:54Z</time></trkpt><trkpt lat="45.05968967221712" lon="9.946312103919272"><ele>36.833333333333336</ele><time>2026-04-06T06:22:55Z</time></trkpt><trkpt lat="45.059604732592355" lon="9.946286971233267"><ele>37.0</ele><time>2026-04-06T06:22:56Z</time></trkpt><trkpt lat="45.0595192998931" lon="9.946262982916037"><ele>37.0</ele><time>2026-04-06T06:22:57Z</time></trkpt><trkpt lat="45.05943252892455" lon="9.946243823683325"><ele>37.0</ele><time>2026-04-06T06:22:58Z</time></trkpt><trkpt lat="45.05934546993265" lon="9.946223911083568"><ele>37.0</ele><time>2026-04-06T06:22:59Z</time></trkpt><trkpt lat="45.05925812631865" lon="9.946205164541166"><ele>37.0</ele><time>2026-04-06T06:23:00Z</time></trkpt><trkpt lat="45.05917073445575" lon="9.946187620145801"><ele>37.0</ele><time>2026-04-06T06:23:01Z</time></trkpt><trkpt lat="45.059085937562905" lon="9.946171509409824"><ele>37.0</ele><time>2026-04-06T06:23:02Z</time></trkpt><trkpt lat="45.05900230234768" lon="9.946158218608815"><ele>37.0</ele><time>2026-04-06T06:23:03Z</time></trkpt><trkpt lat="45.05891985135937" lon="9.946146325480033"><ele>37.0</ele><time>2026-04-06T06:23:03.999Z</time></trkpt><trkpt lat="45.058837673506666" lon="9.946133490766039"><ele>37.0</ele><time>2026-04-06T06:23:04.999Z</time></trkpt><trkpt lat="45.05875636412863" lon="9.946123394990174"><ele>37.0</ele><time>2026-04-06T06:23:05.999Z</time></trkpt><trkpt lat="45.05867605597645" lon="9.946114371364315"><ele>37.0</ele><time>2026-04-06T06:23:06.999Z</time></trkpt><trkpt lat="45.05859728236826" lon="9.946108856464551"><ele>37.0</ele><time>2026-04-06T06:23:07.999Z</time></trkpt><trkpt lat="45.05851764687378" lon="9.946103514290165"><ele>37.0</ele><time>2026-04-06T06:23:08.999Z</time></trkpt><trkpt lat="45.05843677702017" lon="9.94609803058009"><ele>37.0</ele><time>2026-04-06T06:23:09.999Z</time></trkpt><trkpt lat="45.058356325958535" lon="9.946094565700298"><ele>37.0</ele><time>2026-04-06T06:23:10.999Z</time></trkpt><trkpt lat="45.05827400624732" lon="9.946095757974629"><ele>37.0</ele><time>2026-04-06T06:23:11.999Z</time></trkpt><trkpt lat="45.058190152170425" lon="9.946094464403634"><ele>37.0</ele><time>2026-04-06T06:23:12.999Z</time></trkpt><trkpt lat="45.05810769443725" lon="9.946097568995404"><ele>37.0</ele><time>2026-04-06T06:23:13.999Z</time></trkpt><trkpt lat="45.05802655259987" lon="9.946106818035696"><ele>36.833333333333336</ele><time>2026-04-06T06:23:14.999Z</time></trkpt><trkpt lat="45.05794520400949" lon="9.946113246893558"><ele>36.66666666666667</ele><time>2026-04-06T06:23:15.999Z</time></trkpt><trkpt lat="45.057864239879734" lon="9.946117194805057"><ele>36.5</ele><time>2026-04-06T06:23:16.999Z</time></trkpt><trkpt lat="45.0577855476686" lon="9.946121922593747"><ele>36.333333333333336</ele><time>2026-04-06T06:23:17.999Z</time></trkpt><trkpt lat="45.057707519882776" lon="9.946127325412691"><ele>36.166666666666664</ele><time>2026-04-06T06:23:18.999Z</time></trkpt><trkpt lat="45.05763208704833" lon="9.946135339271986"><ele>36.0</ele><time>2026-04-06T06:23:19.999Z</time></trkpt><trkpt lat="45.05755465097303" lon="9.94614172486859"><ele>36.0</ele><time>2026-04-06T06:23:20.999Z</time></trkpt><trkpt lat="45.057475766062865" lon="9.946141310877934"><ele>36.0</ele><time>2026-04-06T06:23:21.999Z</time></trkpt><trkpt lat="45.057397535280295" lon="9.946144518835288"><ele>36.0</ele><time>2026-04-06T06:23:22.999Z</time></trkpt><trkpt lat="45.05731981704401" lon="9.946147224483932"><ele>36.0</ele><time>2026-04-06T06:23:23.999Z</time></trkpt><trkpt lat="45.05724320486569" lon="9.94615286522122"><ele>36.0</ele><time>2026-04-06T06:23:24.999Z</time></trkpt><trkpt lat="45.057166264931396" lon="9.946156083731006"><ele>36.0</ele><time>2026-04-06T06:23:25.999Z</time></trkpt><trkpt lat="45.05708785900561" lon="9.946159629367312"><ele>36.00000000000001</ele><time>2026-04-06T06:23:26.999Z</time></trkpt><trkpt lat="45.05701043661726" lon="9.946158538138212"><ele>36.0</ele><time>2026-04-06T06:23:27.999Z</time></trkpt><trkpt lat="45.05693464210397" lon="9.946160351725872"><ele>36.0</ele><time>2026-04-06T06:23:28.999Z</time></trkpt><trkpt lat="45.056859586003206" lon="9.94615950285205"><ele>36.0</ele><time>2026-04-06T06:23:29.999Z</time></trkpt><trkpt lat="45.056783341975255" lon="9.946154009929154"><ele>36.0</ele><time>2026-04-06T06:23:30.999Z</time></trkpt><trkpt lat="45.05671124600397" lon="9.946145270543822"><ele>36.00000000000001</ele><time>2026-04-06T06:23:31.999Z</time></trkpt><trkpt lat="45.0566402271063" lon="9.94613911454567"><ele>36.0</ele><time>2026-04-06T06:23:32.999Z</time></trkpt><trkpt lat="45.05656879765512" lon="9.946130066542624"><ele>36.28571428571429</ele><time>2026-04-06T06:23:33.999Z</time></trkpt><trkpt lat="45.056499145331856" lon="9.946122586297326"><ele>36.57142857142857</ele><time>2026-04-06T06:23:34.999Z</time></trkpt><trkpt lat="45.05642986627283" lon="9.946105945677475"><ele>36.85714285714286</ele><time>2026-04-06T06:23:35.999Z</time></trkpt><trkpt lat="45.05635965375709" lon="9.94609173805432"><ele>37.142857142857146</ele><time>2026-04-06T06:23:36.999Z</time></trkpt><trkpt lat="45.05629200855807" lon="9.946078876762572"><ele>37.42857142857143</ele><time>2026-04-06T06:23:37.999Z</time></trkpt><trkpt lat="45.056222876585785" lon="9.946059090706324"><ele>37.714285714285715</ele><time>2026-04-06T06:23:38.999Z</time></trkpt><trkpt lat="45.056151446282044" lon="9.946037517199162"><ele>38.0</ele><time>2026-04-06T06:23:39.999Z</time></trkpt><trkpt lat="45.0560827327309" lon="9.946012131041636"><ele>38.0</ele><time>2026-04-06T06:23:40.999Z</time></trkpt><trkpt lat="45.056011627885624" lon="9.945987401311093"><ele>38.0</ele><time>2026-04-06T06:23:41.999Z</time></trkpt><trkpt lat="45.05594226347233" lon="9.945964326029744"><ele>38.0</ele><time>2026-04-06T06:23:42.999Z</time></trkpt><trkpt lat="45.05587222384935" lon="9.945936674193796"><ele>38.0</ele><time>2026-04-06T06:23:43.999Z</time></trkpt><trkpt lat="45.05580573774849" lon="9.945909591485169"><ele>38.0</ele><time>2026-04-06T06:23:44.999Z</time></trkpt><trkpt lat="45.055735068083735" lon="9.94588218047533"><ele>38.0</ele><time>2026-04-06T06:23:45.999Z</time></trkpt><trkpt lat="45.05566275981821" lon="9.945849711683588"><ele>38.0</ele><time>2026-04-06T06:23:46.999Z</time></trkpt><trkpt lat="45.05558977503913" lon="9.945818797843492"><ele>38.0</ele><time>2026-04-06T06:23:47.999Z</time></trkpt><trkpt lat="45.055516829423446" lon="9.94578056921268"><ele>38.0</ele><time>2026-04-06T06:23:48.999Z</time></trkpt><trkpt lat="45.055441949144964" lon="9.945740827850253"><ele>38.0</ele><time>2026-04-06T06:23:49.999Z</time></trkpt><trkpt lat="45.0553642058073" lon="9.945699888784576"><ele>38.0</ele><time>2026-04-06T06:23:50.999Z</time></trkpt><trkpt lat="45.05528717093042" lon="9.945657789416245"><ele>38.0</ele><time>2026-04-06T06:23:51.999Z</time></trkpt><trkpt lat="45.05520861875634" lon="9.945613743980129"><ele>38.0</ele><time>2026-04-06T06:23:52.999Z</time></trkpt><trkpt lat="45.05513204444571" lon="9.945571224579135"><ele>38.0</ele><time>2026-04-06T06:23:53.999Z</time></trkpt><trkpt lat="45.055052611625555" lon="9.945528085457243"><ele>38.0</ele><time>2026-04-06T06:23:54.999Z</time></trkpt><trkpt lat="45.054974051152534" lon="9.945486754763015"><ele>38.0</ele><time>2026-04-06T06:23:55.999Z</time></trkpt><trkpt lat="45.05489628494417" lon="9.945445953426447"><ele>38.0</ele><time>2026-04-06T06:23:56.999Z</time></trkpt><trkpt lat="45.05481642956042" lon="9.945403653604112"><ele>38.0</ele><time>2026-04-06T06:23:57.999Z</time></trkpt><trkpt lat="45.0547386513065" lon="9.945360898554762"><ele>38.0</ele><time>2026-04-06T06:23:58.999Z</time></trkpt><trkpt lat="45.0546609540872" lon="9.945316221335453"><ele>37.83333333333333</ele><time>2026-04-06T06:23:59.999Z</time></trkpt><trkpt lat="45.05458366785058" lon="9.945275484492198"><ele>37.666666666666664</ele><time>2026-04-06T06:24:00.999Z</time></trkpt><trkpt lat="45.054506801375226" lon="9.945236718479414"><ele>37.5</ele><time>2026-04-06T06:24:01.999Z</time></trkpt><trkpt lat="45.054429405253565" lon="9.945195819932563"><ele>37.333333333333336</ele><time>2026-04-06T06:24:02.998Z</time></trkpt><trkpt lat="45.05435350274495" lon="9.945155630760812"><ele>37.16666666666667</ele><time>2026-04-06T06:24:03.998Z</time></trkpt><trkpt lat="45.05427631964523" lon="9.945114092303328"><ele>37.0</ele><time>2026-04-06T06:24:04.998Z</time></trkpt><trkpt lat="45.05420087051506" lon="9.945073181452678"><ele>37.0</ele><time>2026-04-06T06:24:05.998Z</time></trkpt><trkpt lat="45.0541242157176" lon="9.94503034210458"><ele>37.0</ele><time>2026-04-06T06:24:06.998Z</time></trkpt><trkpt lat="45.054046304574825" lon="9.944987404252064"><ele>37.0</ele><time>2026-04-06T06:24:07.998Z</time></trkpt><trkpt lat="45.05396983415366" lon="9.944943168373303"><ele>37.0</ele><time>2026-04-06T06:24:08.998Z</time></trkpt><trkpt lat="45.05389221950947" lon="9.94490333159568"><ele>37.0</ele><time>2026-04-06T06:24:09.998Z</time></trkpt><trkpt lat="45.053815642241105" lon="9.94486104533615"><ele>37.0</ele><time>2026-04-06T06:24:10.998Z</time></trkpt><trkpt lat="45.05374041269667" lon="9.944819485258984"><ele>37.16666666666667</ele><time>2026-04-06T06:24:11.998Z</time></trkpt><trkpt lat="45.05366639006028" lon="9.944779265462333"><ele>37.333333333333336</ele><time>2026-04-06T06:24:12.998Z</time></trkpt><trkpt lat="45.0535939812443" lon="9.944740029903747"><ele>37.5</ele><time>2026-04-06T06:24:13.998Z</time></trkpt><trkpt lat="45.053520611643506" lon="9.944700426356047"><ele>37.666666666666664</ele><time>2026-04-06T06:24:14.998Z</time></trkpt><trkpt lat="45.05344531952824" lon="9.944654916326169"><ele>37.83333333333333</ele><time>2026-04-06T06:24:15.998Z</time></trkpt><trkpt lat="45.05336842019314" lon="9.944613066806049"><ele>38.0</ele><time>2026-04-06T06:24:16.998Z</time></trkpt><trkpt lat="45.05329192771318" lon="9.944572270937824"><ele>38.0</ele><time>2026-04-06T06:24:17.998Z</time></trkpt><trkpt lat="45.05321675984639" lon="9.944530615819493"><ele>38.0</ele><time>2026-04-06T06:24:18.998Z</time></trkpt><trkpt lat="45.05314256870229" lon="9.94449200674989"><ele>38.0</ele><time>2026-04-06T06:24:19.998Z</time></trkpt><trkpt lat="45.05306850534223" lon="9.944451325319568"><ele>38.0</ele><time>2026-04-06T06:24:20.998Z</time></trkpt><trkpt lat="45.05299719211824" lon="9.944411985884498"><ele>38.0</ele><time>2026-04-06T06:24:21.998Z</time></trkpt><trkpt lat="45.05292382495231" lon="9.944370944312379"><ele>38.0</ele><time>2026-04-06T06:24:22.998Z</time></trkpt><trkpt lat="45.05285048229243" lon="9.944330001819232"><ele>38.0</ele><time>2026-04-06T06:24:23.998Z</time></trkpt><trkpt lat="45.05277558470268" lon="9.944291776416202"><ele>38.0</ele><time>2026-04-06T06:24:24.998Z</time></trkpt><trkpt lat="45.052702428311925" lon="9.944251299925543"><ele>38.0</ele><time>2026-04-06T06:24:25.998Z</time></trkpt><trkpt lat="45.052627695353024" lon="9.944211246059464"><ele>38.0</ele><time>2026-04-06T06:24:26.998Z</time></trkpt><trkpt lat="45.05255331043869" lon="9.944169104730582"><ele>38.0</ele><time>2026-04-06T06:24:27.998Z</time></trkpt><trkpt lat="45.05247815813673" lon="9.94412886285072"><ele>38.0</ele><time>2026-04-06T06:24:28.998Z</time></trkpt><trkpt lat="45.05240467722296" lon="9.944087827633005"><ele>38.0</ele><time>2026-04-06T06:24:29.998Z</time></trkpt><trkpt lat="45.052330355263614" lon="9.944048074206545"><ele>38.0</ele><time>2026-04-06T06:24:31Z</time></trkpt><trkpt lat="45.052257363287694" lon="9.944011098418892"><ele>38.0</ele><time>2026-04-06T06:24:32Z</time></trkpt><trkpt lat="45.052184475694055" lon="9.943969904392276"><ele>38.0</ele><time>2026-04-06T06:24:33Z</time></trkpt><trkpt lat="45.05211173452266" lon="9.94392828344681"><ele>38.0</ele><time>2026-04-06T06:24:34Z</time></trkpt><trkpt lat="45.05203858599291" lon="9.943887773678991"><ele>38.0</ele><time>2026-04-06T06:24:35Z</time></trkpt><trkpt lat="45.05196627376201" lon="9.943847470490473"><ele>38.0</ele><time>2026-04-06T06:24:36Z</time></trkpt><trkpt lat="45.05189294663096" lon="9.943808506247205"><ele>38.0</ele><time>2026-04-06T06:24:37Z</time></trkpt><trkpt lat="45.05182053125064" lon="9.943770170010943"><ele>38.0</ele><time>2026-04-06T06:24:38Z</time></trkpt><trkpt lat="45.05174800441417" lon="9.943733641812276"><ele>38.0</ele><time>2026-04-06T06:24:39Z</time></trkpt><trkpt lat="45.05167610186541" lon="9.943694478989885"><ele>38.0</ele><time>2026-04-06T06:24:40Z</time></trkpt><trkpt lat="45.051604516463996" lon="9.94365409222995"><ele>38.0</ele><time>2026-04-06T06:24:41Z</time></trkpt><trkpt lat="45.051532013087076" lon="9.94361749335509"><ele>37.83333333333333</ele><time>2026-04-06T06:24:42Z</time></trkpt><trkpt lat="45.05145921537395" lon="9.943578823233864"><ele>37.666666666666664</ele><time>2026-04-06T06:24:43Z</time></trkpt><trkpt lat="45.051386560178464" lon="9.943550562161235"><ele>37.5</ele><time>2026-04-06T06:24:44Z</time></trkpt><trkpt lat="45.05131331188685" lon="9.943513499384327"><ele>37.333333333333336</ele><time>2026-04-06T06:24:45Z</time></trkpt><trkpt lat="45.05123812227766" lon="9.943479271028181"><ele>37.16666666666667</ele><time>2026-04-06T06:24:46Z</time></trkpt><trkpt lat="45.05116176378568" lon="9.943457345468003"><ele>37.0</ele><time>2026-04-06T06:24:47Z</time></trkpt><trkpt lat="45.05108326765576" lon="9.943435025162286"><ele>37.0</ele><time>2026-04-06T06:24:48Z</time></trkpt><trkpt lat="45.051007427405786" lon="9.94341402700508"><ele>37.0</ele><time>2026-04-06T06:24:49Z</time></trkpt><trkpt lat="45.050929405227265" lon="9.94339185410678"><ele>37.0</ele><time>2026-04-06T06:24:50Z</time></trkpt><trkpt lat="45.05085093836771" lon="9.94337535500458"><ele>37.0</ele><time>2026-04-06T06:24:51Z</time></trkpt><trkpt lat="45.050773387339305" lon="9.943361216060454"><ele>37.0</ele><time>2026-04-06T06:24:52Z</time></trkpt><trkpt lat="45.050692451839375" lon="9.943347054171003"><ele>37.0</ele><time>2026-04-06T06:24:53Z</time></trkpt><trkpt lat="45.05061280310242" lon="9.943335155433424"><ele>37.16666666666667</ele><time>2026-04-06T06:24:54Z</time></trkpt><trkpt lat="45.05053304183327" lon="9.94332653000529"><ele>37.333333333333336</ele><time>2026-04-06T06:24:55Z</time></trkpt><trkpt lat="45.05045305627311" lon="9.94331864059166"><ele>37.5</ele><time>2026-04-06T06:24:56Z</time></trkpt><trkpt lat="45.05037559471806" lon="9.943310589087625"><ele>37.666666666666664</ele><time>2026-04-06T06:24:57Z</time></trkpt><trkpt lat="45.05029418262189" lon="9.943306235069258"><ele>37.83333333333333</ele><time>2026-04-06T06:24:58Z</time></trkpt><trkpt lat="45.050216364197745" lon="9.943301593936502"><ele>38.0</ele><time>2026-04-06T06:24:59Z</time></trkpt><trkpt lat="45.05013665881043" lon="9.943297619304019"><ele>38.0</ele><time>2026-04-06T06:25:00Z</time></trkpt><trkpt lat="45.05005723762186" lon="9.943294048425122"><ele>38.0</ele><time>2026-04-06T06:25:01Z</time></trkpt><trkpt lat="45.049977750833776" lon="9.943288616039753"><ele>38.0</ele><time>2026-04-06T06:25:02Z</time></trkpt><trkpt lat="45.04989931174526" lon="9.943290079323111"><ele>38.0</ele><time>2026-04-06T06:25:03Z</time></trkpt><trkpt lat="45.049821578726785" lon="9.943286261199873"><ele>38.0</ele><time>2026-04-06T06:25:04Z</time></trkpt><trkpt lat="45.04974277591732" lon="9.9432813061601"><ele>38.0</ele><time>2026-04-06T06:25:05Z</time></trkpt><trkpt lat="45.04966568766416" lon="9.943277268569922"><ele>37.83333333333333</ele><time>2026-04-06T06:25:06Z</time></trkpt><trkpt lat="45.04958743149796" lon="9.943274951909759"><ele>37.666666666666664</ele><time>2026-04-06T06:25:07Z</time></trkpt><trkpt lat="45.04951043032965" lon="9.943270984963931"><ele>37.5</ele><time>2026-04-06T06:25:08Z</time></trkpt><trkpt lat="45.04943346637885" lon="9.943267776772323"><ele>37.333333333333336</ele><time>2026-04-06T06:25:08.999Z</time></trkpt><trkpt lat="45.049354674875616" lon="9.943265064229646"><ele>37.16666666666667</ele><time>2026-04-06T06:25:09.999Z</time></trkpt><trkpt lat="45.049277467175635" lon="9.94326024190133"><ele>37.0</ele><time>2026-04-06T06:25:10.999Z</time></trkpt><trkpt lat="45.0491991077499" lon="9.943256628934662"><ele>37.0</ele><time>2026-04-06T06:25:11.999Z</time></trkpt><trkpt lat="45.04912128838369" lon="9.94325546536152"><ele>37.0</ele><time>2026-04-06T06:25:12.999Z</time></trkpt><trkpt lat="45.04904351539039" lon="9.943253923797746"><ele>37.0</ele><time>2026-04-06T06:25:13.999Z</time></trkpt><trkpt lat="45.0489657552438" lon="9.943249478374092"><ele>37.0</ele><time>2026-04-06T06:25:14.999Z</time></trkpt><trkpt lat="45.04888839169907" lon="9.943245086746888"><ele>37.0</ele><time>2026-04-06T06:25:15.999Z</time></trkpt><trkpt lat="45.04881038127713" lon="9.94324254361878"><ele>37.0</ele><time>2026-04-06T06:25:16.999Z</time></trkpt><trkpt lat="45.04873260534517" lon="9.943238888229157"><ele>37.0</ele><time>2026-04-06T06:25:17.999Z</time></trkpt><trkpt lat="45.0486545740361" lon="9.943236876796115"><ele>37.0</ele><time>2026-04-06T06:25:18.999Z</time></trkpt><trkpt lat="45.04857731633575" lon="9.943233645758697"><ele>37.0</ele><time>2026-04-06T06:25:19.999Z</time></trkpt><trkpt lat="45.048499502761665" lon="9.943231444755936"><ele>37.0</ele><time>2026-04-06T06:25:20.999Z</time></trkpt><trkpt lat="45.04842208992709" lon="9.943226628845306"><ele>37.0</ele><time>2026-04-06T06:25:21.999Z</time></trkpt><trkpt lat="45.04834444279138" lon="9.943223714783931"><ele>37.0</ele><time>2026-04-06T06:25:22.999Z</time></trkpt><trkpt lat="45.048267461415044" lon="9.943219215783394"><ele>37.16666666666667</ele><time>2026-04-06T06:25:23.999Z</time></trkpt><trkpt lat="45.048190019599396" lon="9.943216430351626"><ele>37.333333333333336</ele><time>2026-04-06T06:25:24.999Z</time></trkpt><trkpt lat="45.04811247958501" lon="9.94321338356919"><ele>37.5</ele><time>2026-04-06T06:25:25.999Z</time></trkpt><trkpt lat="45.048035633433216" lon="9.94321166146956"><ele>37.666666666666664</ele><time>2026-04-06T06:25:26.999Z</time></trkpt><trkpt lat="45.047958838893884" lon="9.943209818507185"><ele>37.83333333333333</ele><time>2026-04-06T06:25:27.999Z</time></trkpt><trkpt lat="45.047881910288304" lon="9.943206096257004"><ele>38.0</ele><time>2026-04-06T06:25:28.999Z</time></trkpt><trkpt lat="45.04780413485142" lon="9.943202947166176"><ele>38.0</ele><time>2026-04-06T06:25:29.999Z</time></trkpt><trkpt lat="45.04772744799774" lon="9.94320075723174"><ele>38.0</ele><time>2026-04-06T06:25:30.999Z</time></trkpt><trkpt lat="45.04764981832274" lon="9.943198161891615"><ele>38.0</ele><time>2026-04-06T06:25:31.999Z</time></trkpt><trkpt lat="45.04757383386592" lon="9.943194279920808"><ele>38.0</ele><time>2026-04-06T06:25:32.999Z</time></trkpt><trkpt lat="45.04749705137247" lon="9.94319191681308"><ele>38.0</ele><time>2026-04-06T06:25:33.999Z</time></trkpt><trkpt lat="45.047420151621736" lon="9.943187552277978"><ele>38.0</ele><time>2026-04-06T06:25:34.999Z</time></trkpt><trkpt lat="45.04734231328687" lon="9.943185810335953"><ele>38.0</ele><time>2026-04-06T06:25:35.999Z</time></trkpt><trkpt lat="45.04726508064498" lon="9.943183437939156"><ele>38.0</ele><time>2026-04-06T06:25:36.999Z</time></trkpt><trkpt lat="45.04718808284883" lon="9.943179942192282"><ele>38.0</ele><time>2026-04-06T06:25:37.999Z</time></trkpt><trkpt lat="45.047111281614704" lon="9.943176492650938"><ele>38.0</ele><time>2026-04-06T06:25:38.999Z</time></trkpt><trkpt lat="45.04703362784002" lon="9.943172202910803"><ele>38.0</ele><time>2026-04-06T06:25:39.999Z</time></trkpt><trkpt lat="45.0469568950854" lon="9.94317028125011"><ele>38.0</ele><time>2026-04-06T06:25:40.999Z</time></trkpt><trkpt lat="45.04688068577921" lon="9.943168174252465"><ele>38.0</ele><time>2026-04-06T06:25:41.999Z</time></trkpt><trkpt lat="45.04680413539651" lon="9.943166622607505"><ele>38.0</ele><time>2026-04-06T06:25:42.999Z</time></trkpt><trkpt lat="45.04672598837917" lon="9.943161405744299"><ele>38.0</ele><time>2026-04-06T06:25:43.999Z</time></trkpt><trkpt lat="45.04664832240638" lon="9.943159421983257"><ele>38.0</ele><time>2026-04-06T06:25:44.999Z</time></trkpt><trkpt lat="45.04657132761024" lon="9.943154530246566"><ele>38.0</ele><time>2026-04-06T06:25:45.999Z</time></trkpt><trkpt lat="45.0464938083823" lon="9.943152478271445"><ele>38.0</ele><time>2026-04-06T06:25:46.999Z</time></trkpt><trkpt lat="45.046416127760274" lon="9.943148901101377"><ele>38.0</ele><time>2026-04-06T06:25:47.999Z</time></trkpt><trkpt lat="45.04633791327917" lon="9.943146524083378"><ele>38.0</ele><time>2026-04-06T06:25:48.999Z</time></trkpt><trkpt lat="45.04625906644696" lon="9.943143819572857"><ele>38.0</ele><time>2026-04-06T06:25:49.999Z</time></trkpt><trkpt lat="45.046179687348946" lon="9.943143909536401"><ele>38.0</ele><time>2026-04-06T06:25:50.999Z</time></trkpt><trkpt lat="45.04610220677203" lon="9.943140726748657"><ele>38.0</ele><time>2026-04-06T06:25:51.999Z</time></trkpt><trkpt lat="45.046024249873724" lon="9.94313861269783"><ele>38.0</ele><time>2026-04-06T06:25:52.999Z</time></trkpt><trkpt lat="45.045946710763275" lon="9.943137291298957"><ele>38.0</ele><time>2026-04-06T06:25:53.999Z</time></trkpt><trkpt lat="45.045868889365984" lon="9.943135476765933"><ele>38.0</ele><time>2026-04-06T06:25:54.999Z</time></trkpt><trkpt lat="45.04579143920054" lon="9.943133063031977"><ele>38.0</ele><time>2026-04-06T06:25:55.999Z</time></trkpt><trkpt lat="45.04571368014336" lon="9.943127656910743"><ele>38.0</ele><time>2026-04-06T06:25:56.999Z</time></trkpt><trkpt lat="45.04563628320714" lon="9.943123300863029"><ele>38.0</ele><time>2026-04-06T06:25:57.999Z</time></trkpt><trkpt lat="45.04555952973842" lon="9.943120112464593"><ele>38.0</ele><time>2026-04-06T06:25:58.999Z</time></trkpt><trkpt lat="45.045482455929644" lon="9.943116416356307"><ele>38.0</ele><time>2026-04-06T06:25:59.999Z</time></trkpt><trkpt lat="45.045406536921284" lon="9.943114692648537"><ele>38.0</ele><time>2026-04-06T06:26:00.999Z</time></trkpt><trkpt lat="45.04533040924082" lon="9.943112291768303"><ele>38.0</ele><time>2026-04-06T06:26:01.999Z</time></trkpt><trkpt lat="45.04525424524477" lon="9.943106740541815"><ele>38.0</ele><time>2026-04-06T06:26:02.999Z</time></trkpt><trkpt lat="45.04517699122009" lon="9.943109568677038"><ele>38.0</ele><time>2026-04-06T06:26:03.999Z</time></trkpt><trkpt lat="45.045099439798314" lon="9.94310557063528"><ele>38.0</ele><time>2026-04-06T06:26:04.999Z</time></trkpt><trkpt lat="45.04502014391031" lon="9.943097250939664"><ele>38.33333333333333</ele><time>2026-04-06T06:26:05.999Z</time></trkpt><trkpt lat="45.044940767990816" lon="9.943097823177078"><ele>38.666666666666664</ele><time>2026-04-06T06:26:06.999Z</time></trkpt><trkpt lat="45.04486369134961" lon="9.943095184324347"><ele>39.0</ele><time>2026-04-06T06:26:07.999Z</time></trkpt><trkpt lat="45.04478585001577" lon="9.943093222421181"><ele>39.333333333333336</ele><time>2026-04-06T06:26:08.998Z</time></trkpt><trkpt lat="45.04470744566" lon="9.943090884311706"><ele>39.66666666666667</ele><time>2026-04-06T06:26:09.998Z</time></trkpt><trkpt lat="45.044628984353906" lon="9.94308628292857"><ele>40.0</ele><time>2026-04-06T06:26:10.998Z</time></trkpt><trkpt lat="45.044550120693806" lon="9.943080813896115"><ele>40.0</ele><time>2026-04-06T06:26:11.998Z</time></trkpt><trkpt lat="45.04447155145019" lon="9.943078294039534"><ele>40.0</ele><time>2026-04-06T06:26:12.998Z</time></trkpt><trkpt lat="45.04439475038332" lon="9.943075685353083"><ele>40.0</ele><time>2026-04-06T06:26:13.998Z</time></trkpt><trkpt lat="45.044317096761" lon="9.943072639201933"><ele>40.0</ele><time>2026-04-06T06:26:14.998Z</time></trkpt><trkpt lat="45.04423961521995" lon="9.943067883641689"><ele>40.0</ele><time>2026-04-06T06:26:15.998Z</time></trkpt><trkpt lat="45.04416131371853" lon="9.943061393228385"><ele>40.0</ele><time>2026-04-06T06:26:16.998Z</time></trkpt><trkpt lat="45.04408306954896" lon="9.943057154720801"><ele>39.833333333333336</ele><time>2026-04-06T06:26:17.998Z</time></trkpt><trkpt lat="45.04400604651998" lon="9.943053061512327"><ele>39.66666666666667</ele><time>2026-04-06T06:26:18.998Z</time></trkpt><trkpt lat="45.04392741391772" lon="9.943051213815865"><ele>39.5</ele><time>2026-04-06T06:26:19.998Z</time></trkpt><trkpt lat="45.04385194430829" lon="9.943049866844781"><ele>39.333333333333336</ele><time>2026-04-06T06:26:20.998Z</time></trkpt><trkpt lat="45.04377430203612" lon="9.94304618816008"><ele>39.166666666666664</ele><time>2026-04-06T06:26:21.998Z</time></trkpt><trkpt lat="45.043698196610926" lon="9.943042851680024"><ele>39.0</ele><time>2026-04-06T06:26:22.998Z</time></trkpt><trkpt lat="45.0436196670767" lon="9.943037874334253"><ele>39.0</ele><time>2026-04-06T06:26:23.998Z</time></trkpt><trkpt lat="45.0435429055686" lon="9.943038908409353"><ele>39.0</ele><time>2026-04-06T06:26:24.998Z</time></trkpt><trkpt lat="45.04346440752188" lon="9.943043710786439"><ele>39.0</ele><time>2026-04-06T06:26:25.998Z</time></trkpt><trkpt lat="45.04338665702748" lon="9.943040491904155"><ele>39.0</ele><time>2026-04-06T06:26:26.998Z</time></trkpt><trkpt lat="45.043308439577714" lon="9.943030460100047"><ele>39.0</ele><time>2026-04-06T06:26:27.998Z</time></trkpt><trkpt lat="45.04323103077053" lon="9.943025821849902"><ele>39.0</ele><time>2026-04-06T06:26:28.998Z</time></trkpt><trkpt lat="45.043153531678556" lon="9.943022726120253"><ele>39.0</ele><time>2026-04-06T06:26:29.998Z</time></trkpt><trkpt lat="45.043076355162476" lon="9.943022071807139"><ele>39.0</ele><time>2026-04-06T06:26:30.998Z</time></trkpt><trkpt lat="45.042999680386124" lon="9.94301832873717"><ele>39.0</ele><time>2026-04-06T06:26:31.998Z</time></trkpt><trkpt lat="45.04292184188084" lon="9.943014623214804"><ele>39.0</ele><time>2026-04-06T06:26:32.998Z</time></trkpt><trkpt lat="45.04284462305038" lon="9.943011075948114"><ele>39.0</ele><time>2026-04-06T06:26:33.998Z</time></trkpt><trkpt lat="45.0427667608189" lon="9.94300846495876"><ele>39.0</ele><time>2026-04-06T06:26:34.998Z</time></trkpt><trkpt lat="45.04268891550765" lon="9.943010097777625"><ele>39.0</ele><time>2026-04-06T06:26:35.998Z</time></trkpt><trkpt lat="45.04261084617787" lon="9.943010917168504"><ele>39.0</ele><time>2026-04-06T06:26:37Z</time></trkpt><trkpt lat="45.04253153009438" lon="9.943007942575946"><ele>39.0</ele><time>2026-04-06T06:26:38Z</time></trkpt><trkpt lat="45.04245314412838" lon="9.942998956561405"><ele>39.0</ele><time>2026-04-06T06:26:39Z</time></trkpt><trkpt lat="45.04237465984823" lon="9.942994223535566"><ele>39.0</ele><time>2026-04-06T06:26:40Z</time></trkpt><trkpt lat="45.04229889030925" lon="9.94299261360286"><ele>39.0</ele><time>2026-04-06T06:26:41Z</time></trkpt><trkpt lat="45.04222183423371" lon="9.942990654163063"><ele>39.0</ele><time>2026-04-06T06:26:42Z</time></trkpt><trkpt lat="45.042144256343164" lon="9.942985887044275"><ele>39.0</ele><time>2026-04-06T06:26:43Z</time></trkpt><trkpt lat="45.042067331893065" lon="9.942982844871837"><ele>39.0</ele><time>2026-04-06T06:26:44Z</time></trkpt><trkpt lat="45.04199026627789" lon="9.942982573601961"><ele>39.0</ele><time>2026-04-06T06:26:45Z</time></trkpt><trkpt lat="45.04191447796342" lon="9.942981352495275"><ele>39.0</ele><time>2026-04-06T06:26:46Z</time></trkpt><trkpt lat="45.04183716057625" lon="9.942979390696022"><ele>39.0</ele><time>2026-04-06T06:26:47Z</time></trkpt><trkpt lat="45.04176049255136" lon="9.942975073332464"><ele>39.0</ele><time>2026-04-06T06:26:48Z</time></trkpt><trkpt lat="45.04168353616807" lon="9.942966118846899"><ele>39.0</ele><time>2026-04-06T06:26:49Z</time></trkpt><trkpt lat="45.04160716948504" lon="9.942962692716806"><ele>39.0</ele><time>2026-04-06T06:26:50Z</time></trkpt><trkpt lat="45.04153192180629" lon="9.942962709726137"><ele>39.0</ele><time>2026-04-06T06:26:51Z</time></trkpt><trkpt lat="45.041457052530454" lon="9.942960310867798"><ele>39.0</ele><time>2026-04-06T06:26:52Z</time></trkpt><trkpt lat="45.04138362780062" lon="9.942959179801367"><ele>39.0</ele><time>2026-04-06T06:26:53Z</time></trkpt><trkpt lat="45.0413120880258" lon="9.942959643723887"><ele>39.0</ele><time>2026-04-06T06:26:54Z</time></trkpt><trkpt lat="45.04124126815378" lon="9.942959802557239"><ele>39.0</ele><time>2026-04-06T06:26:55Z</time></trkpt><trkpt lat="45.04117146569267" lon="9.942958447171856"><ele>39.0</ele><time>2026-04-06T06:26:56Z</time></trkpt><trkpt lat="45.0410995041034" lon="9.942954341862936"><ele>39.0</ele><time>2026-04-06T06:26:57Z</time></trkpt><trkpt lat="45.041023421852756" lon="9.942950411877597"><ele>39.0</ele><time>2026-04-06T06:26:58Z</time></trkpt><trkpt lat="45.04094484129281" lon="9.942947105410374"><ele>39.0</ele><time>2026-04-06T06:26:59Z</time></trkpt><trkpt lat="45.04086937722859" lon="9.942945976656695"><ele>39.0</ele><time>2026-04-06T06:27:00Z</time></trkpt><trkpt lat="45.0407931222363" lon="9.942943892032062"><ele>39.0</ele><time>2026-04-06T06:27:01Z</time></trkpt><trkpt lat="45.04071544992386" lon="9.942939947293656"><ele>39.0</ele><time>2026-04-06T06:27:02Z</time></trkpt><trkpt lat="45.04063791346709" lon="9.942937481741978"><ele>39.0</ele><time>2026-04-06T06:27:03Z</time></trkpt><trkpt lat="45.04055816378121" lon="9.942934835122337"><ele>39.0</ele><time>2026-04-06T06:27:04Z</time></trkpt><trkpt lat="45.04047858639685" lon="9.942932383723276"><ele>39.0</ele><time>2026-04-06T06:27:05Z</time></trkpt><trkpt lat="45.040398218388106" lon="9.942928531852159"><ele>39.0</ele><time>2026-04-06T06:27:06Z</time></trkpt><trkpt lat="45.04031950087585" lon="9.94292610360889"><ele>39.0</ele><time>2026-04-06T06:27:07Z</time></trkpt><trkpt lat="45.040241459337345" lon="9.942924175827493"><ele>39.0</ele><time>2026-04-06T06:27:08Z</time></trkpt><trkpt lat="45.04016287152971" lon="9.942918886871432"><ele>39.0</ele><time>2026-04-06T06:27:09Z</time></trkpt><trkpt lat="45.040085396883796" lon="9.94291631272141"><ele>39.0</ele><time>2026-04-06T06:27:10Z</time></trkpt><trkpt lat="45.04000621830768" lon="9.942910164247525"><ele>39.0</ele><time>2026-04-06T06:27:11Z</time></trkpt><trkpt lat="45.03992619473243" lon="9.942906390607364"><ele>39.0</ele><time>2026-04-06T06:27:12Z</time></trkpt><trkpt lat="45.0398453716528" lon="9.942902888711327"><ele>39.0</ele><time>2026-04-06T06:27:13Z</time></trkpt><trkpt lat="45.03976402294863" lon="9.94289881889772"><ele>39.166666666666664</ele><time>2026-04-06T06:27:13.999Z</time></trkpt><trkpt lat="45.039685883803465" lon="9.94289518194489"><ele>39.333333333333336</ele><time>2026-04-06T06:27:14.999Z</time></trkpt><trkpt lat="45.03960618338743" lon="9.942892653823193"><ele>39.5</ele><time>2026-04-06T06:27:15.999Z</time></trkpt><trkpt lat="45.03952752057675" lon="9.9428906908147"><ele>39.66666666666667</ele><time>2026-04-06T06:27:16.999Z</time></trkpt><trkpt lat="45.039449998734874" lon="9.942884601895651"><ele>39.833333333333336</ele><time>2026-04-06T06:27:17.999Z</time></trkpt><trkpt lat="45.03937093250594" lon="9.942883441431817"><ele>40.0</ele><time>2026-04-06T06:27:18.999Z</time></trkpt><trkpt lat="45.03929223854172" lon="9.942885101393136"><ele>40.0</ele><time>2026-04-06T06:27:19.999Z</time></trkpt><trkpt lat="45.03921584745113" lon="9.942883365029209"><ele>40.0</ele><time>2026-04-06T06:27:20.999Z</time></trkpt><trkpt lat="45.039141517610894" lon="9.942882714380715"><ele>40.0</ele><time>2026-04-06T06:27:21.999Z</time></trkpt><trkpt lat="45.03906728521443" lon="9.942879133216444"><ele>40.0</ele><time>2026-04-06T06:27:22.999Z</time></trkpt><trkpt lat="45.03899572192284" lon="9.942872114735987"><ele>40.0</ele><time>2026-04-06T06:27:23.999Z</time></trkpt><trkpt lat="45.03892404236286" lon="9.94286845922735"><ele>40.0</ele><time>2026-04-06T06:27:24.999Z</time></trkpt><trkpt lat="45.03885324532912" lon="9.942864263563877"><ele>40.0</ele><time>2026-04-06T06:27:25.999Z</time></trkpt><trkpt lat="45.03878112694408" lon="9.942866434559045"><ele>40.16666666666667</ele><time>2026-04-06T06:27:26.999Z</time></trkpt><trkpt lat="45.03870414910002" lon="9.94286193726244"><ele>40.333333333333336</ele><time>2026-04-06T06:27:27.999Z</time></trkpt><trkpt lat="45.03862616415248" lon="9.942857868618766"><ele>40.5</ele><time>2026-04-06T06:27:28.999Z</time></trkpt><trkpt lat="45.03854890594555" lon="9.942854035599751"><ele>40.666666666666664</ele><time>2026-04-06T06:27:29.999Z</time></trkpt><trkpt lat="45.03847004462576" lon="9.94285236644508"><ele>40.83333333333333</ele><time>2026-04-06T06:27:30.999Z</time></trkpt><trkpt lat="45.03839274314885" lon="9.942848689043126"><ele>41.0</ele><time>2026-04-06T06:27:31.999Z</time></trkpt><trkpt lat="45.03831512666075" lon="9.942845963869384"><ele>41.0</ele><time>2026-04-06T06:27:32.999Z</time></trkpt><trkpt lat="45.038237014569376" lon="9.942842476241387"><ele>41.0</ele><time>2026-04-06T06:27:33.999Z</time></trkpt><trkpt lat="45.0381564235063" lon="9.942837102521937"><ele>41.0</ele><time>2026-04-06T06:27:34.999Z</time></trkpt><trkpt lat="45.03807533400943" lon="9.942835747674286"><ele>41.0</ele><time>2026-04-06T06:27:35.999Z</time></trkpt><trkpt lat="45.0379974010815" lon="9.942835429284575"><ele>41.0</ele><time>2026-04-06T06:27:36.999Z</time></trkpt><trkpt lat="45.0379163845793" lon="9.942836554153203"><ele>41.0</ele><time>2026-04-06T06:27:37.999Z</time></trkpt><trkpt lat="45.03783424243263" lon="9.942833190981435"><ele>41.0</ele><time>2026-04-06T06:27:38.999Z</time></trkpt><trkpt lat="45.03775121871249" lon="9.942826336292475"><ele>41.0</ele><time>2026-04-06T06:27:39.999Z</time></trkpt><trkpt lat="45.03766901645287" lon="9.942821290272603"><ele>41.0</ele><time>2026-04-06T06:27:40.999Z</time></trkpt><trkpt lat="45.0375888072618" lon="9.942817727403096"><ele>41.0</ele><time>2026-04-06T06:27:41.999Z</time></trkpt><trkpt lat="45.03750710564028" lon="9.942813883210453"><ele>41.0</ele><time>2026-04-06T06:27:42.999Z</time></trkpt><trkpt lat="45.03742512440469" lon="9.942810812853436"><ele>41.0</ele><time>2026-04-06T06:27:43.999Z</time></trkpt><trkpt lat="45.03734364655963" lon="9.942808417295295"><ele>40.83333333333333</ele><time>2026-04-06T06:27:44.999Z</time></trkpt><trkpt lat="45.03726063814118" lon="9.942807396966952"><ele>40.666666666666664</ele><time>2026-04-06T06:27:45.999Z</time></trkpt><trkpt lat="45.03717985250091" lon="9.942800257749397"><ele>40.5</ele><time>2026-04-06T06:27:46.999Z</time></trkpt><trkpt lat="45.037098326126674" lon="9.942794650764522"><ele>40.333333333333336</ele><time>2026-04-06T06:27:47.999Z</time></trkpt><trkpt lat="45.03701643100061" lon="9.942789703951853"><ele>40.16666666666667</ele><time>2026-04-06T06:27:48.999Z</time></trkpt><trkpt lat="45.036935890702495" lon="9.942785361725713"><ele>40.0</ele><time>2026-04-06T06:27:49.999Z</time></trkpt><trkpt lat="45.036854076356654" lon="9.942783731145116"><ele>40.0</ele><time>2026-04-06T06:27:50.999Z</time></trkpt><trkpt lat="45.03677436984494" lon="9.942782848363702"><ele>40.0</ele><time>2026-04-06T06:27:51.999Z</time></trkpt><trkpt lat="45.03669391426512" lon="9.942780287452628"><ele>40.0</ele><time>2026-04-06T06:27:52.999Z</time></trkpt><trkpt lat="45.03661395789318" lon="9.942774574071143"><ele>40.0</ele><time>2026-04-06T06:27:53.999Z</time></trkpt><trkpt lat="45.03653333911949" lon="9.942765706621259"><ele>40.0</ele><time>2026-04-06T06:27:54.999Z</time></trkpt><trkpt lat="45.03645294022235" lon="9.94276064480864"><ele>40.0</ele><time>2026-04-06T06:27:55.999Z</time></trkpt><trkpt lat="45.03637156365861" lon="9.942754173851602"><ele>40.333333333333336</ele><time>2026-04-06T06:27:56.999Z</time></trkpt><trkpt lat="45.03629127329666" lon="9.94275064736395"><ele>40.66666666666667</ele><time>2026-04-06T06:27:57.999Z</time></trkpt><trkpt lat="45.03620990388818" lon="9.942746995261661"><ele>41.0</ele><time>2026-04-06T06:27:58.999Z</time></trkpt><trkpt lat="45.03612901706732" lon="9.942745780201292"><ele>41.333333333333336</ele><time>2026-04-06T06:27:59.999Z</time></trkpt><trkpt lat="45.036047314466046" lon="9.942744665704533"><ele>41.666666666666664</ele><time>2026-04-06T06:28:00.999Z</time></trkpt><trkpt lat="45.03596573349619" lon="9.942741066991733"><ele>42.0</ele><time>2026-04-06T06:28:01.999Z</time></trkpt><trkpt lat="45.03588500693518" lon="9.942736843291407"><ele>42.0</ele><time>2026-04-06T06:28:02.999Z</time></trkpt><trkpt lat="45.03580403297718" lon="9.942735359064734"><ele>42.0</ele><time>2026-04-06T06:28:03.999Z</time></trkpt><trkpt lat="45.03572272863123" lon="9.94273363289185"><ele>42.0</ele><time>2026-04-06T06:28:04.999Z</time></trkpt><trkpt lat="45.03564160743596" lon="9.942732662973794"><ele>42.0</ele><time>2026-04-06T06:28:05.999Z</time></trkpt><trkpt lat="45.035560062943674" lon="9.942728987902328"><ele>42.0</ele><time>2026-04-06T06:28:06.999Z</time></trkpt><trkpt lat="45.03547842706179" lon="9.94272477065752"><ele>42.0</ele><time>2026-04-06T06:28:07.999Z</time></trkpt><trkpt lat="45.03539657912348" lon="9.942719254341078"><ele>41.666666666666664</ele><time>2026-04-06T06:28:08.999Z</time></trkpt><trkpt lat="45.03531648161611" lon="9.942716155576631"><ele>41.333333333333336</ele><time>2026-04-06T06:28:09.999Z</time></trkpt><trkpt lat="45.03523605958166" lon="9.942712389119606"><ele>41.0</ele><time>2026-04-06T06:28:10.999Z</time></trkpt><trkpt lat="45.03515504898599" lon="9.942710004745376"><ele>40.66666666666667</ele><time>2026-04-06T06:28:11.999Z</time></trkpt><trkpt lat="45.03507784298677" lon="9.942703976844705"><ele>40.333333333333336</ele><time>2026-04-06T06:28:12.999Z</time></trkpt><trkpt lat="45.03499386321845" lon="9.942700496395606"><ele>40.0</ele><time>2026-04-06T06:28:13.999Z</time></trkpt><trkpt lat="45.03491506748485" lon="9.942699099756506"><ele>40.0</ele><time>2026-04-06T06:28:14.998Z</time></trkpt><trkpt lat="45.03483280924946" lon="9.942690808502055"><ele>40.0</ele><time>2026-04-06T06:28:15.998Z</time></trkpt><trkpt lat="45.034752178057374" lon="9.942688019049546"><ele>40.0</ele><time>2026-04-06T06:28:16.998Z</time></trkpt><trkpt lat="45.03467330137709" lon="9.942684697430463"><ele>40.0</ele><time>2026-04-06T06:28:17.998Z</time></trkpt><trkpt lat="45.034591372662064" lon="9.942675875534732"><ele>40.0</ele><time>2026-04-06T06:28:18.998Z</time></trkpt><trkpt lat="45.03451174108376" lon="9.942672903412793"><ele>40.0</ele><time>2026-04-06T06:28:19.998Z</time></trkpt><trkpt lat="45.03443222192243" lon="9.942668302214438"><ele>40.0</ele><time>2026-04-06T06:28:20.998Z</time></trkpt><trkpt lat="45.03435404482188" lon="9.942663869934211"><ele>40.0</ele><time>2026-04-06T06:28:21.998Z</time></trkpt><trkpt lat="45.03427585994843" lon="9.94266071279595"><ele>40.0</ele><time>2026-04-06T06:28:22.998Z</time></trkpt><trkpt lat="45.03419666691731" lon="9.942656371901606"><ele>40.0</ele><time>2026-04-06T06:28:23.998Z</time></trkpt><trkpt lat="45.034118211634315" lon="9.942654138453918"><ele>40.0</ele><time>2026-04-06T06:28:24.998Z</time></trkpt><trkpt lat="45.03404205843445" lon="9.942650956654763"><ele>40.0</ele><time>2026-04-06T06:28:25.998Z</time></trkpt><trkpt lat="45.03396538439032" lon="9.942651225732718"><ele>40.0</ele><time>2026-04-06T06:28:26.998Z</time></trkpt><trkpt lat="45.033887847465294" lon="9.942642951825967"><ele>40.0</ele><time>2026-04-06T06:28:27.998Z</time></trkpt><trkpt lat="45.033812108329826" lon="9.942639455400846"><ele>40.0</ele><time>2026-04-06T06:28:28.998Z</time></trkpt><trkpt lat="45.03373464365324" lon="9.9426340892679"><ele>40.0</ele><time>2026-04-06T06:28:29.998Z</time></trkpt><trkpt lat="45.03365701121015" lon="9.942634044485475"><ele>40.0</ele><time>2026-04-06T06:28:30.998Z</time></trkpt><trkpt lat="45.033579019460454" lon="9.942633267476868"><ele>40.0</ele><time>2026-04-06T06:28:31.998Z</time></trkpt><trkpt lat="45.033501763208044" lon="9.942627552576484"><ele>40.0</ele><time>2026-04-06T06:28:32.998Z</time></trkpt><trkpt lat="45.03342738581047" lon="9.942616603868693"><ele>40.0</ele><time>2026-04-06T06:28:33.998Z</time></trkpt><trkpt lat="45.0333565924575" lon="9.942587443787108"><ele>40.0</ele><time>2026-04-06T06:28:34.998Z</time></trkpt><trkpt lat="45.033294626124544" lon="9.942539949440985"><ele>40.0</ele><time>2026-04-06T06:28:35.998Z</time></trkpt><trkpt lat="45.033234733869854" lon="9.94249834035824"><ele>40.0</ele><time>2026-04-06T06:28:36.998Z</time></trkpt><trkpt lat="45.03316563314457" lon="9.942497498670198"><ele>40.0</ele><time>2026-04-06T06:28:37.998Z</time></trkpt><trkpt lat="45.03310554790097" lon="9.9425574015324"><ele>40.0</ele><time>2026-04-06T06:28:38.998Z</time></trkpt><trkpt lat="45.03307943447623" lon="9.94266210379178"><ele>40.16666666666667</ele><time>2026-04-06T06:28:39.998Z</time></trkpt><trkpt lat="45.03311338799904" lon="9.942775036401269"><ele>40.333333333333336</ele><time>2026-04-06T06:28:40.998Z</time></trkpt><trkpt lat="45.03311234880484" lon="9.942885810196383"><ele>40.5</ele><time>2026-04-06T06:28:41.998Z</time></trkpt><trkpt lat="45.03311901688548" lon="9.942995753821227"><ele>40.666666666666664</ele><time>2026-04-06T06:28:43Z</time></trkpt><trkpt lat="45.03310800454102" lon="9.943110566856124"><ele>40.83333333333333</ele><time>2026-04-06T06:28:44Z</time></trkpt><trkpt lat="45.03311776543606" lon="9.943230163399363"><ele>41.0</ele><time>2026-04-06T06:28:45Z</time></trkpt><trkpt lat="45.033065472549055" lon="9.943343058546267"><ele>41.33333333333333</ele><time>2026-04-06T06:28:46Z</time></trkpt><trkpt lat="45.03304557525224" lon="9.94345938918934"><ele>41.666666666666664</ele><time>2026-04-06T06:28:47Z</time></trkpt><trkpt lat="45.033025137362856" lon="9.943580263834729"><ele>42.0</ele><time>2026-04-06T06:28:48Z</time></trkpt><trkpt lat="45.03300792242771" lon="9.943698498898023"><ele>42.333333333333336</ele><time>2026-04-06T06:28:49Z</time></trkpt><trkpt lat="45.03298930206074" lon="9.943819770012079"><ele>42.66666666666667</ele><time>2026-04-06T06:28:50Z</time></trkpt><trkpt lat="45.032968382831214" lon="9.943938746698956"><ele>43.0</ele><time>2026-04-06T06:28:51Z</time></trkpt><trkpt lat="45.03294743958202" lon="9.94405424724626"><ele>43.0</ele><time>2026-04-06T06:28:52Z</time></trkpt><trkpt lat="45.03292891393665" lon="9.944170414023459"><ele>43.0</ele><time>2026-04-06T06:28:53Z</time></trkpt><trkpt lat="45.03290489725918" lon="9.94428416733753"><ele>43.0</ele><time>2026-04-06T06:28:54Z</time></trkpt><trkpt lat="45.032884311014264" lon="9.944397348863424"><ele>43.0</ele><time>2026-04-06T06:28:55Z</time></trkpt><trkpt lat="45.03286366520056" lon="9.944512149514058"><ele>43.0</ele><time>2026-04-06T06:28:56Z</time></trkpt><trkpt lat="45.03283900878508" lon="9.944625740134716"><ele>43.0</ele><time>2026-04-06T06:28:57Z</time></trkpt><trkpt lat="45.032808353757375" lon="9.944733571497038"><ele>43.0</ele><time>2026-04-06T06:28:58Z</time></trkpt><trkpt lat="45.032771262677734" lon="9.944836571527524"><ele>43.0</ele><time>2026-04-06T06:28:59Z</time></trkpt><trkpt lat="45.03271610071114" lon="9.944932641173061"><ele>43.0</ele><time>2026-04-06T06:29:00Z</time></trkpt><trkpt lat="45.03264758894314" lon="9.94500845745687"><ele>43.0</ele><time>2026-04-06T06:29:01Z</time></trkpt><trkpt lat="45.032568426462134" lon="9.945061284093251"><ele>43.0</ele><time>2026-04-06T06:29:02Z</time></trkpt><trkpt lat="45.032481518783534" lon="9.945083840764426"><ele>43.0</ele><time>2026-04-06T06:29:03Z</time></trkpt><trkpt lat="45.03239475953328" lon="9.9450894731566"><ele>43.0</ele><time>2026-04-06T06:29:04Z</time></trkpt><trkpt lat="45.032310574172165" lon="9.945072866771453"><ele>43.0</ele><time>2026-04-06T06:29:05Z</time></trkpt><trkpt lat="45.03224010010413" lon="9.945048069296789"><ele>43.0</ele><time>2026-04-06T06:29:06Z</time></trkpt><trkpt lat="45.03215312139766" lon="9.945007005517178"><ele>43.0</ele><time>2026-04-06T06:29:07Z</time></trkpt><trkpt lat="45.03207332251437" lon="9.944974881945654"><ele>43.0</ele><time>2026-04-06T06:29:08Z</time></trkpt><trkpt lat="45.03199512648967" lon="9.944938731191643"><ele>43.0</ele><time>2026-04-06T06:29:09Z</time></trkpt><trkpt lat="45.03191840759133" lon="9.944907808180602"><ele>43.0</ele><time>2026-04-06T06:29:10Z</time></trkpt><trkpt lat="45.03183769699836" lon="9.94487367155885"><ele>43.0</ele><time>2026-04-06T06:29:11Z</time></trkpt><trkpt lat="45.03175891744395" lon="9.944841989352124"><ele>43.0</ele><time>2026-04-06T06:29:12Z</time></trkpt><trkpt lat="45.03168071472935" lon="9.944810431371744"><ele>43.0</ele><time>2026-04-06T06:29:13Z</time></trkpt><trkpt lat="45.03160022868557" lon="9.94477769035859"><ele>43.0</ele><time>2026-04-06T06:29:14Z</time></trkpt><trkpt lat="45.031522075276236" lon="9.94474528012711"><ele>43.0</ele><time>2026-04-06T06:29:15Z</time></trkpt><trkpt lat="45.031443053772236" lon="9.944709539965057"><ele>43.0</ele><time>2026-04-06T06:29:16Z</time></trkpt><trkpt lat="45.03136364441489" lon="9.944676761963876"><ele>43.0</ele><time>2026-04-06T06:29:17Z</time></trkpt><trkpt lat="45.031285985877005" lon="9.944648362091577"><ele>43.0</ele><time>2026-04-06T06:29:18Z</time></trkpt><trkpt lat="45.031206464946635" lon="9.944615149916633"><ele>43.0</ele><time>2026-04-06T06:29:18.999Z</time></trkpt><trkpt lat="45.03112752230483" lon="9.944586270583176"><ele>43.0</ele><time>2026-04-06T06:29:19.999Z</time></trkpt><trkpt lat="45.0310486135849" lon="9.944555637882038"><ele>43.0</ele><time>2026-04-06T06:29:20.999Z</time></trkpt><trkpt lat="45.03097090941044" lon="9.944523921256181"><ele>43.0</ele><time>2026-04-06T06:29:21.999Z</time></trkpt><trkpt lat="45.03089261631348" lon="9.944490706847125"><ele>43.0</ele><time>2026-04-06T06:29:22.999Z</time></trkpt><trkpt lat="45.03081600657204" lon="9.944460132178362"><ele>43.0</ele><time>2026-04-06T06:29:23.999Z</time></trkpt><trkpt lat="45.030736963320045" lon="9.944429867563823"><ele>43.0</ele><time>2026-04-06T06:29:24.999Z</time></trkpt><trkpt lat="45.030659772551054" lon="9.944400129835437"><ele>43.0</ele><time>2026-04-06T06:29:25.999Z</time></trkpt><trkpt lat="45.03058037662527" lon="9.94436832072437"><ele>43.0</ele><time>2026-04-06T06:29:26.999Z</time></trkpt><trkpt lat="45.030502404421384" lon="9.944339395651589"><ele>43.16666666666667</ele><time>2026-04-06T06:29:27.999Z</time></trkpt><trkpt lat="45.030422744943294" lon="9.944310029641143"><ele>43.333333333333336</ele><time>2026-04-06T06:29:28.999Z</time></trkpt><trkpt lat="45.03034364888536" lon="9.944278112189634"><ele>43.5</ele><time>2026-04-06T06:29:29.999Z</time></trkpt><trkpt lat="45.03026457392341" lon="9.944246016552185"><ele>43.666666666666664</ele><time>2026-04-06T06:29:30.999Z</time></trkpt><trkpt lat="45.03018717732919" lon="9.944213990823789"><ele>43.83333333333333</ele><time>2026-04-06T06:29:31.999Z</time></trkpt><trkpt lat="45.030107406902324" lon="9.944182825118705"><ele>44.0</ele><time>2026-04-06T06:29:32.999Z</time></trkpt><trkpt lat="45.03002828736723" lon="9.944152462929175"><ele>43.666666666666664</ele><time>2026-04-06T06:29:33.999Z</time></trkpt><trkpt lat="45.02994968801981" lon="9.944122980772734"><ele>43.33333333333333</ele><time>2026-04-06T06:29:34.999Z</time></trkpt><trkpt lat="45.02987117157273" lon="9.944092410764148"><ele>43.0</ele><time>2026-04-06T06:29:35.999Z</time></trkpt><trkpt lat="45.029791298403076" lon="9.944059912284454"><ele>42.666666666666664</ele><time>2026-04-06T06:29:36.999Z</time></trkpt><trkpt lat="45.02971234533734" lon="9.944030687750544"><ele>42.333333333333336</ele><time>2026-04-06T06:29:37.999Z</time></trkpt><trkpt lat="45.02963318649654" lon="9.94399737410348"><ele>42.0</ele><time>2026-04-06T06:29:38.999Z</time></trkpt><trkpt lat="45.029555158245984" lon="9.943968262686347"><ele>42.0</ele><time>2026-04-06T06:29:39.999Z</time></trkpt><trkpt lat="45.02947618921533" lon="9.943931938715835"><ele>42.0</ele><time>2026-04-06T06:29:40.999Z</time></trkpt><trkpt lat="45.02939832496988" lon="9.94390467011281"><ele>42.0</ele><time>2026-04-06T06:29:41.999Z</time></trkpt><trkpt lat="45.029320503718225" lon="9.943874383641951"><ele>42.0</ele><time>2026-04-06T06:29:42.999Z</time></trkpt><trkpt lat="45.029243398874726" lon="9.943844513182592"><ele>42.0</ele><time>2026-04-06T06:29:43.999Z</time></trkpt><trkpt lat="45.029165394390766" lon="9.943812116563594"><ele>42.0</ele><time>2026-04-06T06:29:44.999Z</time></trkpt><trkpt lat="45.02908687925314" lon="9.943781667276898"><ele>42.333333333333336</ele><time>2026-04-06T06:29:45.999Z</time></trkpt><trkpt lat="45.02900814329304" lon="9.943748204735567"><ele>42.666666666666664</ele><time>2026-04-06T06:29:46.999Z</time></trkpt><trkpt lat="45.02893076485062" lon="9.943715250586417"><ele>43.0</ele><time>2026-04-06T06:29:47.999Z</time></trkpt><trkpt lat="45.02885166276447" lon="9.943683480623488"><ele>43.33333333333333</ele><time>2026-04-06T06:29:48.999Z</time></trkpt><trkpt lat="45.02877358280376" lon="9.943654535037089"><ele>43.666666666666664</ele><time>2026-04-06T06:29:49.999Z</time></trkpt><trkpt lat="45.02869582198037" lon="9.943624160134355"><ele>44.0</ele><time>2026-04-06T06:29:50.999Z</time></trkpt><trkpt lat="45.02861754079089" lon="9.943595427296295"><ele>44.0</ele><time>2026-04-06T06:29:51.999Z</time></trkpt><trkpt lat="45.02853791598257" lon="9.94356487107349"><ele>44.0</ele><time>2026-04-06T06:29:52.999Z</time></trkpt><trkpt lat="45.0284611012495" lon="9.94353300973596"><ele>44.0</ele><time>2026-04-06T06:29:53.999Z</time></trkpt><trkpt lat="45.02838368510582" lon="9.943503393822814"><ele>44.0</ele><time>2026-04-06T06:29:54.999Z</time></trkpt><trkpt lat="45.028308052030525" lon="9.943472122226039"><ele>44.0</ele><time>2026-04-06T06:29:55.999Z</time></trkpt><trkpt lat="45.02823053921005" lon="9.943441159865909"><ele>44.0</ele><time>2026-04-06T06:29:56.999Z</time></trkpt><trkpt lat="45.02815242699014" lon="9.943414692576127"><ele>43.83333333333333</ele><time>2026-04-06T06:29:57.999Z</time></trkpt><trkpt lat="45.02807345277459" lon="9.943383756035361"><ele>43.666666666666664</ele><time>2026-04-06T06:29:58.999Z</time></trkpt><trkpt lat="45.027997645840195" lon="9.943352211488836"><ele>43.5</ele><time>2026-04-06T06:29:59.999Z</time></trkpt><trkpt lat="45.027919585483744" lon="9.943321779479296"><ele>43.333333333333336</ele><time>2026-04-06T06:30:00.999Z</time></trkpt><trkpt lat="45.027842309520366" lon="9.943293246802039"><ele>43.16666666666667</ele><time>2026-04-06T06:30:01.999Z</time></trkpt><trkpt lat="45.02776636270028" lon="9.94326461029796"><ele>43.0</ele><time>2026-04-06T06:30:02.999Z</time></trkpt><trkpt lat="45.02768951013181" lon="9.94323271850965"><ele>42.66666666666667</ele><time>2026-04-06T06:30:03.999Z</time></trkpt><trkpt lat="45.027613254759366" lon="9.943201007923196"><ele>42.333333333333336</ele><time>2026-04-06T06:30:04.999Z</time></trkpt><trkpt lat="45.02753696062645" lon="9.94316651819264"><ele>42.0</ele><time>2026-04-06T06:30:05.999Z</time></trkpt><trkpt lat="45.027460236260254" lon="9.943133537653486"><ele>41.666666666666664</ele><time>2026-04-06T06:30:06.999Z</time></trkpt><trkpt lat="45.02738239107417" lon="9.94310566500254"><ele>41.33333333333333</ele><time>2026-04-06T06:30:07.999Z</time></trkpt><trkpt lat="45.027304726471925" lon="9.943073707874012"><ele>41.0</ele><time>2026-04-06T06:30:08.999Z</time></trkpt><trkpt lat="45.0272276812762" lon="9.943044302277864"><ele>41.0</ele><time>2026-04-06T06:30:09.999Z</time></trkpt><trkpt lat="45.02714922293865" lon="9.943012740568944"><ele>41.0</ele><time>2026-04-06T06:30:10.999Z</time></trkpt><trkpt lat="45.0270708071953" lon="9.942980018901153"><ele>41.0</ele><time>2026-04-06T06:30:11.999Z</time></trkpt><trkpt lat="45.026992682375564" lon="9.942946863671331"><ele>41.0</ele><time>2026-04-06T06:30:12.999Z</time></trkpt><trkpt lat="45.02691524096347" lon="9.942915396650266"><ele>41.0</ele><time>2026-04-06T06:30:13.999Z</time></trkpt><trkpt lat="45.02683588875518" lon="9.942884209861534"><ele>41.0</ele><time>2026-04-06T06:30:14.999Z</time></trkpt><trkpt lat="45.02675765308931" lon="9.942854645062605"><ele>41.0</ele><time>2026-04-06T06:30:15.999Z</time></trkpt><trkpt lat="45.026679310059635" lon="9.942824427184933"><ele>41.0</ele><time>2026-04-06T06:30:16.999Z</time></trkpt><trkpt lat="45.026602470350625" lon="9.942796930049326"><ele>41.0</ele><time>2026-04-06T06:30:17.999Z</time></trkpt><trkpt lat="45.02652548368278" lon="9.942763881942069"><ele>41.0</ele><time>2026-04-06T06:30:18.998Z</time></trkpt><trkpt lat="45.02644836703557" lon="9.942733126704084"><ele>41.0</ele><time>2026-04-06T06:30:19.998Z</time></trkpt><trkpt lat="45.026372408509154" lon="9.942703267168575"><ele>41.0</ele><time>2026-04-06T06:30:20.998Z</time></trkpt><trkpt lat="45.02629494096844" lon="9.942668655448314"><ele>41.166666666666664</ele><time>2026-04-06T06:30:21.998Z</time></trkpt><trkpt lat="45.026218131410445" lon="9.942640016812442"><ele>41.33333333333333</ele><time>2026-04-06T06:30:22.998Z</time></trkpt><trkpt lat="45.02614062695529" lon="9.942607941244754"><ele>41.5</ele><time>2026-04-06T06:30:23.998Z</time></trkpt><trkpt lat="45.02606280108456" lon="9.942578246811255"><ele>41.666666666666664</ele><time>2026-04-06T06:30:24.998Z</time></trkpt><trkpt lat="45.02598388212518" lon="9.9425451962623"><ele>41.833333333333336</ele><time>2026-04-06T06:30:25.998Z</time></trkpt><trkpt lat="45.02590588676045" lon="9.942511468417758"><ele>42.0</ele><time>2026-04-06T06:30:26.998Z</time></trkpt><trkpt lat="45.02582829403415" lon="9.942479807993898"><ele>42.333333333333336</ele><time>2026-04-06T06:30:27.998Z</time></trkpt><trkpt lat="45.02574924202792" lon="9.942449078484403"><ele>42.666666666666664</ele><time>2026-04-06T06:30:28.998Z</time></trkpt><trkpt lat="45.025669852040856" lon="9.942416853016857"><ele>43.0</ele><time>2026-04-06T06:30:29.998Z</time></trkpt><trkpt lat="45.025590593339864" lon="9.942383585669301"><ele>43.33333333333333</ele><time>2026-04-06T06:30:30.998Z</time></trkpt><trkpt lat="45.02551166185632" lon="9.9423518007258"><ele>43.666666666666664</ele><time>2026-04-06T06:30:31.998Z</time></trkpt><trkpt lat="45.02543263149168" lon="9.942323687735076"><ele>44.0</ele><time>2026-04-06T06:30:32.998Z</time></trkpt><trkpt lat="45.02535474893726" lon="9.942293535981651"><ele>44.0</ele><time>2026-04-06T06:30:33.998Z</time></trkpt><trkpt lat="45.0252763092809" lon="9.942260555168058"><ele>44.0</ele><time>2026-04-06T06:30:34.998Z</time></trkpt><trkpt lat="45.025199107999754" lon="9.942227014253497"><ele>44.0</ele><time>2026-04-06T06:30:35.998Z</time></trkpt><trkpt lat="45.025121878318515" lon="9.94219732762073"><ele>44.0</ele><time>2026-04-06T06:30:36.998Z</time></trkpt><trkpt lat="45.025042372786494" lon="9.94216676742357"><ele>44.0</ele><time>2026-04-06T06:30:37.998Z</time></trkpt><trkpt lat="45.02496400833552" lon="9.942136209860045"><ele>44.0</ele><time>2026-04-06T06:30:38.998Z</time></trkpt><trkpt lat="45.02488419344821" lon="9.942103508309984"><ele>43.666666666666664</ele><time>2026-04-06T06:30:39.998Z</time></trkpt><trkpt lat="45.02480458019218" lon="9.942075104776764"><ele>43.33333333333333</ele><time>2026-04-06T06:30:40.998Z</time></trkpt><trkpt lat="45.024724723989344" lon="9.942053046050328"><ele>43.0</ele><time>2026-04-06T06:30:41.998Z</time></trkpt><trkpt lat="45.0246424225077" lon="9.942035370691007"><ele>42.666666666666664</ele><time>2026-04-06T06:30:42.998Z</time></trkpt><trkpt lat="45.024558651046554" lon="9.94202828228538"><ele>42.333333333333336</ele><time>2026-04-06T06:30:43.998Z</time></trkpt><trkpt lat="45.02447399044601" lon="9.94205132873299"><ele>42.0</ele><time>2026-04-06T06:30:44.998Z</time></trkpt><trkpt lat="45.024389558541586" lon="9.942071622710852"><ele>42.0</ele><time>2026-04-06T06:30:45.998Z</time></trkpt><trkpt lat="45.02430770759039" lon="9.942115376607138"><ele>42.0</ele><time>2026-04-06T06:30:46.998Z</time></trkpt><trkpt lat="45.0242338793915" lon="9.942174318318242"><ele>42.0</ele><time>2026-04-06T06:30:48Z</time></trkpt><trkpt lat="45.02416509856937" lon="9.942242501253267"><ele>42.0</ele><time>2026-04-06T06:30:49Z</time></trkpt><trkpt lat="45.02410388357143" lon="9.942317891024198"><ele>42.0</ele><time>2026-04-06T06:30:50Z</time></trkpt><trkpt lat="45.024046964337565" lon="9.942396692225033"><ele>42.0</ele><time>2026-04-06T06:30:51Z</time></trkpt><trkpt lat="45.02399449413977" lon="9.942477033587313"><ele>42.5</ele><time>2026-04-06T06:30:52Z</time></trkpt><trkpt lat="45.02393665034401" lon="9.942552494922635"><ele>43.0</ele><time>2026-04-06T06:30:53Z</time></trkpt><trkpt lat="45.023875971988176" lon="9.94263155418704"><ele>43.5</ele><time>2026-04-06T06:30:54Z</time></trkpt><trkpt lat="45.02381692412844" lon="9.942715591898077"><ele>44.0</ele><time>2026-04-06T06:30:55Z</time></trkpt><trkpt lat="45.02375798726911" lon="9.942799989494594"><ele>44.5</ele><time>2026-04-06T06:30:56Z</time></trkpt><trkpt lat="45.0236989979026" lon="9.9428857073548"><ele>45.0</ele><time>2026-04-06T06:30:57Z</time></trkpt><trkpt lat="45.023639806965406" lon="9.942968686969238"><ele>45.0</ele><time>2026-04-06T06:30:58Z</time></trkpt><trkpt lat="45.023579878957634" lon="9.943051647904332"><ele>45.0</ele><time>2026-04-06T06:30:59Z</time></trkpt><trkpt lat="45.02351888081133" lon="9.943136736254678"><ele>45.0</ele><time>2026-04-06T06:31:00Z</time></trkpt><trkpt lat="45.02346127059025" lon="9.943224180761812"><ele>45.0</ele><time>2026-04-06T06:31:01Z</time></trkpt><trkpt lat="45.02339829812075" lon="9.943309002070652"><ele>45.0</ele><time>2026-04-06T06:31:02Z</time></trkpt><trkpt lat="45.02333992533823" lon="9.943399086088531"><ele>45.0</ele><time>2026-04-06T06:31:03Z</time></trkpt><trkpt lat="45.02327997784653" lon="9.943483078857145"><ele>44.666666666666664</ele><time>2026-04-06T06:31:04Z</time></trkpt><trkpt lat="45.02322180984763" lon="9.943569924260908"><ele>44.333333333333336</ele><time>2026-04-06T06:31:05Z</time></trkpt><trkpt lat="45.0231627364594" lon="9.943657436084727"><ele>44.0</ele><time>2026-04-06T06:31:06Z</time></trkpt><trkpt lat="45.02310506000251" lon="9.943741223926608"><ele>43.66666666666667</ele><time>2026-04-06T06:31:07Z</time></trkpt><trkpt lat="45.02304852208055" lon="9.943825140170377"><ele>43.333333333333336</ele><time>2026-04-06T06:31:08Z</time></trkpt><trkpt lat="45.02299009820862" lon="9.94390953927871"><ele>43.0</ele><time>2026-04-06T06:31:09Z</time></trkpt><trkpt lat="45.02293384707101" lon="9.94399679055318"><ele>43.0</ele><time>2026-04-06T06:31:10Z</time></trkpt><trkpt lat="45.022875371672285" lon="9.944081272634277"><ele>43.0</ele><time>2026-04-06T06:31:11Z</time></trkpt><trkpt lat="45.02281719189417" lon="9.944167841695243"><ele>43.0</ele><time>2026-04-06T06:31:12Z</time></trkpt><trkpt lat="45.0227603284794" lon="9.94425415215616"><ele>43.0</ele><time>2026-04-06T06:31:13Z</time></trkpt><trkpt lat="45.02270428930448" lon="9.9443438565087"><ele>43.0</ele><time>2026-04-06T06:31:14Z</time></trkpt><trkpt lat="45.02265246216298" lon="9.944434771150382"><ele>43.0</ele><time>2026-04-06T06:31:15Z</time></trkpt><trkpt lat="45.022605067119216" lon="9.94453343929309"><ele>43.0</ele><time>2026-04-06T06:31:16Z</time></trkpt><trkpt lat="45.02256392508849" lon="9.944636856734844"><ele>43.0</ele><time>2026-04-06T06:31:17Z</time></trkpt><trkpt lat="45.02252772144858" lon="9.944745136025935"><ele>43.0</ele><time>2026-04-06T06:31:18Z</time></trkpt><trkpt lat="45.0224937812008" lon="9.944853465946313"><ele>43.0</ele><time>2026-04-06T06:31:19Z</time></trkpt><trkpt lat="45.022461163914244" lon="9.944964209197645"><ele>43.0</ele><time>2026-04-06T06:31:20Z</time></trkpt><trkpt lat="45.022428867345845" lon="9.94507495403656"><ele>43.0</ele><time>2026-04-06T06:31:21Z</time></trkpt><trkpt lat="45.022397947366294" lon="9.945185861935895"><ele>43.16666666666667</ele><time>2026-04-06T06:31:22Z</time></trkpt><trkpt lat="45.02236402629326" lon="9.945295871138375"><ele>43.333333333333336</ele><time>2026-04-06T06:31:23Z</time></trkpt><trkpt lat="45.0223313757683" lon="9.945403204247919"><ele>43.5</ele><time>2026-04-06T06:31:23.999Z</time></trkpt><trkpt lat="45.02229847206616" lon="9.945511411437675"><ele>43.666666666666664</ele><time>2026-04-06T06:31:24.999Z</time></trkpt><trkpt lat="45.02226725705551" lon="9.945622027011318"><ele>43.83333333333333</ele><time>2026-04-06T06:31:25.999Z</time></trkpt><trkpt lat="45.02223436389664" lon="9.945729491950996"><ele>44.0</ele><time>2026-04-06T06:31:26.999Z</time></trkpt><trkpt lat="45.02220170746556" lon="9.945839718334758"><ele>44.166666666666664</ele><time>2026-04-06T06:31:27.999Z</time></trkpt><trkpt lat="45.02217201501697" lon="9.94594870062792"><ele>44.33333333333333</ele><time>2026-04-06T06:31:28.999Z</time></trkpt><trkpt lat="45.0221389506052" lon="9.946053913399927"><ele>44.5</ele><time>2026-04-06T06:31:29.999Z</time></trkpt><trkpt lat="45.02210336218633" lon="9.946162814253324"><ele>44.666666666666664</ele><time>2026-04-06T06:31:30.999Z</time></trkpt><trkpt lat="45.022067780824536" lon="9.946268377322697"><ele>44.833333333333336</ele><time>2026-04-06T06:31:31.999Z</time></trkpt><trkpt lat="45.02203511173485" lon="9.94637542976168"><ele>45.0</ele><time>2026-04-06T06:31:32.999Z</time></trkpt><trkpt lat="45.022002852929575" lon="9.946482506340658"><ele>45.0</ele><time>2026-04-06T06:31:33.999Z</time></trkpt><trkpt lat="45.02197097901038" lon="9.946587975982288"><ele>45.0</ele><time>2026-04-06T06:31:34.999Z</time></trkpt><trkpt lat="45.021938764731736" lon="9.946692254840498"><ele>45.0</ele><time>2026-04-06T06:31:35.999Z</time></trkpt><trkpt lat="45.02190640345041" lon="9.94679694630059"><ele>45.0</ele><time>2026-04-06T06:31:36.999Z</time></trkpt><trkpt lat="45.02187432155697" lon="9.94690129209376"><ele>45.0</ele><time>2026-04-06T06:31:37.999Z</time></trkpt><trkpt lat="45.0218431282152" lon="9.94700411940376"><ele>45.0</ele><time>2026-04-06T06:31:38.999Z</time></trkpt><trkpt lat="45.02181331694681" lon="9.947107866606036"><ele>45.166666666666664</ele><time>2026-04-06T06:31:39.999Z</time></trkpt><trkpt lat="45.02178606814368" lon="9.947212377978083"><ele>45.333333333333336</ele><time>2026-04-06T06:31:40.999Z</time></trkpt><trkpt lat="45.0217578150897" lon="9.94731706827867"><ele>45.5</ele><time>2026-04-06T06:31:41.999Z</time></trkpt><trkpt lat="45.021731289681526" lon="9.947422077666056"><ele>45.66666666666667</ele><time>2026-04-06T06:31:42.999Z</time></trkpt><trkpt lat="45.02170474122642" lon="9.94752549581509"><ele>45.833333333333336</ele><time>2026-04-06T06:31:43.999Z</time></trkpt><trkpt lat="45.02167794501572" lon="9.947629581610483"><ele>46.0</ele><time>2026-04-06T06:31:44.999Z</time></trkpt><trkpt lat="45.02165299000745" lon="9.947735480261105"><ele>46.333333333333336</ele><time>2026-04-06T06:31:45.999Z</time></trkpt><trkpt lat="45.021621548166635" lon="9.947838814776892"><ele>46.66666666666667</ele><time>2026-04-06T06:31:46.999Z</time></trkpt><trkpt lat="45.0215950600583" lon="9.947945033113639"><ele>47.0</ele><time>2026-04-06T06:31:47.999Z</time></trkpt><trkpt lat="45.02156841514171" lon="9.948050130171074"><ele>47.333333333333336</ele><time>2026-04-06T06:31:48.999Z</time></trkpt><trkpt lat="45.02153374597321" lon="9.948151734356259"><ele>47.666666666666664</ele><time>2026-04-06T06:31:49.999Z</time></trkpt><trkpt lat="45.02149510931036" lon="9.948257479870938"><ele>48.0</ele><time>2026-04-06T06:31:50.999Z</time></trkpt><trkpt lat="45.02146779470224" lon="9.948362310022045"><ele>48.833333333333336</ele><time>2026-04-06T06:31:51.999Z</time></trkpt><trkpt lat="45.021432061314684" lon="9.948457221289948"><ele>49.66666666666667</ele><time>2026-04-06T06:31:52.999Z</time></trkpt><trkpt lat="45.021388835709566" lon="9.948543635407123"><ele>50.5</ele><time>2026-04-06T06:31:53.999Z</time></trkpt><trkpt lat="45.021321906431574" lon="9.94858373408232"><ele>51.333333333333336</ele><time>2026-04-06T06:31:54.999Z</time></trkpt><trkpt lat="45.02124560310204" lon="9.948559547740048"><ele>52.16666666666667</ele><time>2026-04-06T06:31:55.999Z</time></trkpt><trkpt lat="45.02116964320397" lon="9.948513902422985"><ele>53.0</ele><time>2026-04-06T06:31:56.999Z</time></trkpt><trkpt lat="45.02110138508668" lon="9.948475675627119"><ele>53.00000000000001</ele><time>2026-04-06T06:31:57.999Z</time></trkpt><trkpt lat="45.0210292401191" lon="9.94844159775654"><ele>53.0</ele><time>2026-04-06T06:31:58.999Z</time></trkpt><trkpt lat="45.02095210060786" lon="9.948418169681355"><ele>53.0</ele><time>2026-04-06T06:31:59.999Z</time></trkpt><trkpt lat="45.02087417424021" lon="9.948405930644286"><ele>53.0</ele><time>2026-04-06T06:32:00.999Z</time></trkpt><trkpt lat="45.020798804089935" lon="9.94839593238681"><ele>53.00000000000001</ele><time>2026-04-06T06:32:01.999Z</time></trkpt><trkpt lat="45.02072037214893" lon="9.94837785540782"><ele>53.0</ele><time>2026-04-06T06:32:02.999Z</time></trkpt><trkpt lat="45.02064389447701" lon="9.948367916690147"><ele>52.16666666666667</ele><time>2026-04-06T06:32:03.999Z</time></trkpt><trkpt lat="45.020564023812895" lon="9.948353709681792"><ele>51.333333333333336</ele><time>2026-04-06T06:32:04.999Z</time></trkpt><trkpt lat="45.020486959577205" lon="9.948341426494798"><ele>50.5</ele><time>2026-04-06T06:32:05.999Z</time></trkpt><trkpt lat="45.02040760024889" lon="9.948331869822729"><ele>49.66666666666667</ele><time>2026-04-06T06:32:06.999Z</time></trkpt><trkpt lat="45.020327670155424" lon="9.948319525977329"><ele>48.833333333333336</ele><time>2026-04-06T06:32:07.999Z</time></trkpt><trkpt lat="45.02024644678159" lon="9.948310962002203"><ele>48.0</ele><time>2026-04-06T06:32:08.999Z</time></trkpt><trkpt lat="45.02016418531171" lon="9.948301544929333"><ele>48.0</ele><time>2026-04-06T06:32:09.999Z</time></trkpt><trkpt lat="45.02008232344754" lon="9.948292706616611"><ele>48.0</ele><time>2026-04-06T06:32:10.999Z</time></trkpt><trkpt lat="45.01999938716358" lon="9.948284463745571"><ele>48.0</ele><time>2026-04-06T06:32:11.999Z</time></trkpt><trkpt lat="45.019916858480066" lon="9.948277121840459"><ele>48.0</ele><time>2026-04-06T06:32:12.999Z</time></trkpt><trkpt lat="45.01983378677497" lon="9.948268568259737"><ele>48.0</ele><time>2026-04-06T06:32:13.999Z</time></trkpt><trkpt lat="45.019752545068926" lon="9.948267637977672"><ele>48.0</ele><time>2026-04-06T06:32:14.999Z</time></trkpt><trkpt lat="45.01967106098046" lon="9.948260236122344"><ele>47.666666666666664</ele><time>2026-04-06T06:32:15.999Z</time></trkpt><trkpt lat="45.019589892198994" lon="9.948256125329605"><ele>47.333333333333336</ele><time>2026-04-06T06:32:16.999Z</time></trkpt><trkpt lat="45.019513778445095" lon="9.948251446764282"><ele>47.0</ele><time>2026-04-06T06:32:17.999Z</time></trkpt><trkpt lat="45.019431579261756" lon="9.948239065901442"><ele>46.66666666666667</ele><time>2026-04-06T06:32:18.999Z</time></trkpt><trkpt lat="45.01935265339492" lon="9.948227811904134"><ele>46.333333333333336</ele><time>2026-04-06T06:32:19.999Z</time></trkpt><trkpt lat="45.019272920073924" lon="9.948212746789542"><ele>46.0</ele><time>2026-04-06T06:32:20.999Z</time></trkpt><trkpt lat="45.019194132519004" lon="9.948205314471238"><ele>46.0</ele><time>2026-04-06T06:32:21.999Z</time></trkpt><trkpt lat="45.01911447085474" lon="9.948190484374516"><ele>46.0</ele><time>2026-04-06T06:32:22.999Z</time></trkpt><trkpt lat="45.01903401426061" lon="9.948178058299883"><ele>46.0</ele><time>2026-04-06T06:32:23.999Z</time></trkpt><trkpt lat="45.0189548713298" lon="9.948167847269282"><ele>46.0</ele><time>2026-04-06T06:32:24.998Z</time></trkpt><trkpt lat="45.018874364514225" lon="9.948154562499095"><ele>46.0</ele><time>2026-04-06T06:32:25.998Z</time></trkpt><trkpt lat="45.01879460661506" lon="9.9481341321492"><ele>46.0</ele><time>2026-04-06T06:32:26.998Z</time></trkpt><trkpt lat="45.01871362699027" lon="9.948106679268331"><ele>46.0</ele><time>2026-04-06T06:32:27.998Z</time></trkpt><trkpt lat="45.01863677094501" lon="9.94806468407324"><ele>46.0</ele><time>2026-04-06T06:32:28.998Z</time></trkpt><trkpt lat="45.01856126597344" lon="9.94801657065785"><ele>46.0</ele><time>2026-04-06T06:32:29.998Z</time></trkpt><trkpt lat="45.0184862363599" lon="9.947960345491769"><ele>46.0</ele><time>2026-04-06T06:32:30.998Z</time></trkpt><trkpt lat="45.01841115463968" lon="9.947909563770525"><ele>46.0</ele><time>2026-04-06T06:32:31.998Z</time></trkpt><trkpt lat="45.018335363631124" lon="9.947862287137896"><ele>46.0</ele><time>2026-04-06T06:32:32.998Z</time></trkpt><trkpt lat="45.01825961470297" lon="9.94781800799188"><ele>46.0</ele><time>2026-04-06T06:32:33.998Z</time></trkpt><trkpt lat="45.01818311265876" lon="9.94777669181152"><ele>46.0</ele><time>2026-04-06T06:32:34.998Z</time></trkpt><trkpt lat="45.01810498436222" lon="9.947744281794282"><ele>46.0</ele><time>2026-04-06T06:32:35.998Z</time></trkpt><trkpt lat="45.0180303980173" lon="9.947703773385546"><ele>46.0</ele><time>2026-04-06T06:32:36.998Z</time></trkpt><trkpt lat="45.017955256008904" lon="9.947667970728928"><ele>46.0</ele><time>2026-04-06T06:32:37.998Z</time></trkpt><trkpt lat="45.0178781945933" lon="9.947630946054964"><ele>46.0</ele><time>2026-04-06T06:32:38.998Z</time></trkpt><trkpt lat="45.01779960396042" lon="9.947597047366509"><ele>46.0</ele><time>2026-04-06T06:32:39.998Z</time></trkpt><trkpt lat="45.017723354392054" lon="9.947565127522774"><ele>46.0</ele><time>2026-04-06T06:32:40.998Z</time></trkpt><trkpt lat="45.0176454501574" lon="9.94753226332117"><ele>46.0</ele><time>2026-04-06T06:32:41.998Z</time></trkpt><trkpt lat="45.01756768868101" lon="9.94750000025766"><ele>46.0</ele><time>2026-04-06T06:32:42.998Z</time></trkpt><trkpt lat="45.01748838282202" lon="9.94747169272733"><ele>46.0</ele><time>2026-04-06T06:32:43.998Z</time></trkpt><trkpt lat="45.01741104795911" lon="9.94744228965142"><ele>46.0</ele><time>2026-04-06T06:32:44.998Z</time></trkpt><trkpt lat="45.01733115630476" lon="9.947412208993574"><ele>45.833333333333336</ele><time>2026-04-06T06:32:45.998Z</time></trkpt><trkpt lat="45.01725248757911" lon="9.94738471929237"><ele>45.66666666666667</ele><time>2026-04-06T06:32:46.998Z</time></trkpt><trkpt lat="45.01717291449832" lon="9.947354104105482"><ele>45.5</ele><time>2026-04-06T06:32:47.998Z</time></trkpt><trkpt lat="45.01709432671537" lon="9.94732370472281"><ele>45.333333333333336</ele><time>2026-04-06T06:32:48.998Z</time></trkpt><trkpt lat="45.01701603575116" lon="9.947296961496555"><ele>45.166666666666664</ele><time>2026-04-06T06:32:49.998Z</time></trkpt><trkpt lat="45.01693498073626" lon="9.947264818530085"><ele>45.0</ele><time>2026-04-06T06:32:50.998Z</time></trkpt><trkpt lat="45.01685661175399" lon="9.947234460455126"><ele>45.0</ele><time>2026-04-06T06:32:51.998Z</time></trkpt><trkpt lat="45.01677959768037" lon="9.947199470474882"><ele>45.0</ele><time>2026-04-06T06:32:53Z</time></trkpt><trkpt lat="45.016702660443094" lon="9.947162211012582"><ele>45.0</ele><time>2026-04-06T06:32:54Z</time></trkpt><trkpt lat="45.016625783023215" lon="9.9471275500106"><ele>45.0</ele><time>2026-04-06T06:32:55Z</time></trkpt><trkpt lat="45.01655027837734" lon="9.947088735406998"><ele>45.0</ele><time>2026-04-06T06:32:56Z</time></trkpt><trkpt lat="45.01647576416955" lon="9.947050195395565"><ele>45.0</ele><time>2026-04-06T06:32:57Z</time></trkpt><trkpt lat="45.01640087763579" lon="9.947003291132436"><ele>45.0</ele><time>2026-04-06T06:32:58Z</time></trkpt><trkpt lat="45.01632630207766" lon="9.946955397901878"><ele>45.0</ele><time>2026-04-06T06:32:59Z</time></trkpt><trkpt lat="45.01625301557393" lon="9.94690276909245"><ele>45.0</ele><time>2026-04-06T06:33:00Z</time></trkpt><trkpt lat="45.01618165629958" lon="9.946849967987271"><ele>45.0</ele><time>2026-04-06T06:33:01Z</time></trkpt><trkpt lat="45.01610887693413" lon="9.946797535874717"><ele>45.0</ele><time>2026-04-06T06:33:02Z</time></trkpt><trkpt lat="45.01603680251487" lon="9.946745707849646"><ele>45.0</ele><time>2026-04-06T06:33:03Z</time></trkpt><trkpt lat="45.015966032532084" lon="9.946687605130705"><ele>45.0</ele><time>2026-04-06T06:33:04Z</time></trkpt><trkpt lat="45.01589738885399" lon="9.946633061343043"><ele>45.0</ele><time>2026-04-06T06:33:05Z</time></trkpt><trkpt lat="45.01582686700382" lon="9.946577881113235"><ele>45.0</ele><time>2026-04-06T06:33:06Z</time></trkpt><trkpt lat="45.015756908426305" lon="9.946521202462078"><ele>45.0</ele><time>2026-04-06T06:33:07Z</time></trkpt><trkpt lat="45.01568730643358" lon="9.946466682987722"><ele>45.0</ele><time>2026-04-06T06:33:08Z</time></trkpt><trkpt lat="45.01561705783678" lon="9.946410380892951"><ele>45.0</ele><time>2026-04-06T06:33:09Z</time></trkpt><trkpt lat="45.01554626980668" lon="9.946356062044096"><ele>45.166666666666664</ele><time>2026-04-06T06:33:10Z</time></trkpt><trkpt lat="45.01547600192142" lon="9.946297542386251"><ele>45.333333333333336</ele><time>2026-04-06T06:33:11Z</time></trkpt><trkpt lat="45.01540540893722" lon="9.946240173267407"><ele>45.5</ele><time>2026-04-06T06:33:12Z</time></trkpt><trkpt lat="45.01533363679861" lon="9.94618228792778"><ele>45.66666666666667</ele><time>2026-04-06T06:33:13Z</time></trkpt><trkpt lat="45.015262061946174" lon="9.94612458122632"><ele>45.833333333333336</ele><time>2026-04-06T06:33:14Z</time></trkpt><trkpt lat="45.01519024684005" lon="9.94606489427538"><ele>46.0</ele><time>2026-04-06T06:33:15Z</time></trkpt><trkpt lat="45.0151204215021" lon="9.946003424412794"><ele>46.0</ele><time>2026-04-06T06:33:16Z</time></trkpt><trkpt lat="45.01505428629601" lon="9.945937482982638"><ele>46.0</ele><time>2026-04-06T06:33:17Z</time></trkpt><trkpt lat="45.0149848481295" lon="9.945876220153828"><ele>46.0</ele><time>2026-04-06T06:33:18Z</time></trkpt><trkpt lat="45.01491345022123" lon="9.945819396363373"><ele>46.0</ele><time>2026-04-06T06:33:19Z</time></trkpt><trkpt lat="45.014842132923" lon="9.945762025071936"><ele>46.0</ele><time>2026-04-06T06:33:20Z</time></trkpt><trkpt lat="45.01477001756447" lon="9.945702159532082"><ele>46.0</ele><time>2026-04-06T06:33:21Z</time></trkpt><trkpt lat="45.01470011054407" lon="9.94564461798295"><ele>45.66666666666667</ele><time>2026-04-06T06:33:22Z</time></trkpt><trkpt lat="45.01462925254781" lon="9.9455852614105"><ele>45.333333333333336</ele><time>2026-04-06T06:33:23Z</time></trkpt><trkpt lat="45.01455863456102" lon="9.94552576564436"><ele>45.0</ele><time>2026-04-06T06:33:24Z</time></trkpt><trkpt lat="45.014489108603456" lon="9.94546814274306"><ele>44.666666666666664</ele><time>2026-04-06T06:33:25Z</time></trkpt><trkpt lat="45.01441770730518" lon="9.94541124294542"><ele>44.33333333333333</ele><time>2026-04-06T06:33:26Z</time></trkpt><trkpt lat="45.01434715471563" lon="9.945355104199875"><ele>44.0</ele><time>2026-04-06T06:33:27Z</time></trkpt><trkpt lat="45.014277423840625" lon="9.94529659985045"><ele>44.0</ele><time>2026-04-06T06:33:28Z</time></trkpt><trkpt lat="45.014206794586606" lon="9.945241033807239"><ele>44.0</ele><time>2026-04-06T06:33:28.999Z</time></trkpt><trkpt lat="45.01413604309975" lon="9.945183889029563"><ele>44.0</ele><time>2026-04-06T06:33:29.999Z</time></trkpt><trkpt lat="45.01406585149689" lon="9.945128289749364"><ele>44.0</ele><time>2026-04-06T06:33:30.999Z</time></trkpt><trkpt lat="45.01399545591546" lon="9.94507188193101"><ele>44.0</ele><time>2026-04-06T06:33:31.999Z</time></trkpt><trkpt lat="45.01392600688435" lon="9.945017359439483"><ele>44.0</ele><time>2026-04-06T06:33:32.999Z</time></trkpt><trkpt lat="45.013855601381586" lon="9.944961182334191"><ele>44.0</ele><time>2026-04-06T06:33:33.999Z</time></trkpt><trkpt lat="45.01378449611056" lon="9.944906243813348"><ele>44.0</ele><time>2026-04-06T06:33:34.999Z</time></trkpt><trkpt lat="45.01371408016653" lon="9.944850124556366"><ele>44.0</ele><time>2026-04-06T06:33:35.999Z</time></trkpt><trkpt lat="45.01364378335937" lon="9.944793663254883"><ele>44.0</ele><time>2026-04-06T06:33:36.999Z</time></trkpt><trkpt lat="45.013573412748734" lon="9.944742963385657"><ele>44.0</ele><time>2026-04-06T06:33:37.999Z</time></trkpt><trkpt lat="45.01350053057482" lon="9.944694980662147"><ele>44.0</ele><time>2026-04-06T06:33:38.999Z</time></trkpt><trkpt lat="45.01342768119406" lon="9.944643975842395"><ele>44.0</ele><time>2026-04-06T06:33:39.999Z</time></trkpt><trkpt lat="45.013354842656724" lon="9.944598024653626"><ele>44.0</ele><time>2026-04-06T06:33:40.999Z</time></trkpt><trkpt lat="45.01328196996209" lon="9.944549231694609"><ele>44.0</ele><time>2026-04-06T06:33:41.999Z</time></trkpt><trkpt lat="45.01320767868366" lon="9.944505390945574"><ele>44.0</ele><time>2026-04-06T06:33:42.999Z</time></trkpt><trkpt lat="45.0131334484082" lon="9.94446493023246"><ele>44.0</ele><time>2026-04-06T06:33:43.999Z</time></trkpt><trkpt lat="45.013056853470694" lon="9.944424095878636"><ele>44.0</ele><time>2026-04-06T06:33:44.999Z</time></trkpt><trkpt lat="45.01297929932423" lon="9.944391269095757"><ele>44.0</ele><time>2026-04-06T06:33:45.999Z</time></trkpt><trkpt lat="45.01289941365694" lon="9.944364311295754"><ele>44.0</ele><time>2026-04-06T06:33:46.999Z</time></trkpt><trkpt lat="45.01281869793756" lon="9.944338982187102"><ele>44.0</ele><time>2026-04-06T06:33:47.999Z</time></trkpt><trkpt lat="45.0127366894456" lon="9.944316815858668"><ele>44.0</ele><time>2026-04-06T06:33:48.999Z</time></trkpt><trkpt lat="45.012655439938065" lon="9.944292695321298"><ele>44.0</ele><time>2026-04-06T06:33:49.999Z</time></trkpt><trkpt lat="45.01257454897199" lon="9.94427365512781"><ele>44.0</ele><time>2026-04-06T06:33:50.999Z</time></trkpt><trkpt lat="45.01249212717877" lon="9.94425358391347"><ele>44.0</ele><time>2026-04-06T06:33:51.999Z</time></trkpt><trkpt lat="45.01241123829587" lon="9.944231000523096"><ele>44.0</ele><time>2026-04-06T06:33:52.999Z</time></trkpt><trkpt lat="45.01233045600772" lon="9.944209826299332"><ele>44.0</ele><time>2026-04-06T06:33:53.999Z</time></trkpt><trkpt lat="45.01225069848335" lon="9.94419085517876"><ele>44.0</ele><time>2026-04-06T06:33:54.999Z</time></trkpt><trkpt lat="45.0121706025869" lon="9.944173574793947"><ele>44.0</ele><time>2026-04-06T06:33:55.999Z</time></trkpt><trkpt lat="45.012091968807596" lon="9.944153853135234"><ele>44.0</ele><time>2026-04-06T06:33:56.999Z</time></trkpt><trkpt lat="45.01201387039432" lon="9.944133874971547"><ele>44.33333333333333</ele><time>2026-04-06T06:33:57.999Z</time></trkpt><trkpt lat="45.01193472092425" lon="9.944110859123844"><ele>44.666666666666664</ele><time>2026-04-06T06:33:58.999Z</time></trkpt><trkpt lat="45.011856617834795" lon="9.944089373542656"><ele>45.0</ele><time>2026-04-06T06:33:59.999Z</time></trkpt><trkpt lat="45.01177685844415" lon="9.944066836591569"><ele>45.333333333333336</ele><time>2026-04-06T06:34:00.999Z</time></trkpt><trkpt lat="45.01169909024694" lon="9.94404676595343"><ele>45.66666666666667</ele><time>2026-04-06T06:34:01.999Z</time></trkpt><trkpt lat="45.01162213474639" lon="9.944020388338467"><ele>46.0</ele><time>2026-04-06T06:34:02.999Z</time></trkpt><trkpt lat="45.011543682700754" lon="9.943996833511312"><ele>46.0</ele><time>2026-04-06T06:34:03.999Z</time></trkpt><trkpt lat="45.01146657454145" lon="9.943970926588559"><ele>46.0</ele><time>2026-04-06T06:34:04.999Z</time></trkpt><trkpt lat="45.01138939607938" lon="9.94394877878395"><ele>46.0</ele><time>2026-04-06T06:34:05.999Z</time></trkpt><trkpt lat="45.01131316398228" lon="9.943921863516524"><ele>46.0</ele><time>2026-04-06T06:34:06.999Z</time></trkpt><trkpt lat="45.0112354373136" lon="9.94390050866057"><ele>46.0</ele><time>2026-04-06T06:34:07.999Z</time></trkpt><trkpt lat="45.011158262939176" lon="9.943873540319853"><ele>46.0</ele><time>2026-04-06T06:34:08.999Z</time></trkpt><trkpt lat="45.01107828733706" lon="9.94385265860653"><ele>46.0</ele><time>2026-04-06T06:34:09.999Z</time></trkpt><trkpt lat="45.0110008042809" lon="9.943825296821474"><ele>46.0</ele><time>2026-04-06T06:34:10.999Z</time></trkpt><trkpt lat="45.010921428923055" lon="9.943799911699424"><ele>46.0</ele><time>2026-04-06T06:34:11.999Z</time></trkpt><trkpt lat="45.010843127855956" lon="9.943775440210723"><ele>46.0</ele><time>2026-04-06T06:34:12.999Z</time></trkpt><trkpt lat="45.010762769898236" lon="9.94374932610928"><ele>46.0</ele><time>2026-04-06T06:34:13.999Z</time></trkpt><trkpt lat="45.01068264299802" lon="9.94372532663007"><ele>46.0</ele><time>2026-04-06T06:34:14.999Z</time></trkpt><trkpt lat="45.01060344670262" lon="9.94370045873502"><ele>46.0</ele><time>2026-04-06T06:34:15.999Z</time></trkpt><trkpt lat="45.01052477665563" lon="9.9436734294848"><ele>46.0</ele><time>2026-04-06T06:34:16.999Z</time></trkpt><trkpt lat="45.01044579470517" lon="9.94364909537614"><ele>46.0</ele><time>2026-04-06T06:34:17.999Z</time></trkpt><trkpt lat="45.01036700579261" lon="9.94362273160489"><ele>46.0</ele><time>2026-04-06T06:34:18.999Z</time></trkpt><trkpt lat="45.01028896817846" lon="9.943598755702533"><ele>46.0</ele><time>2026-04-06T06:34:19.999Z</time></trkpt><trkpt lat="45.01020968467044" lon="9.943572545101262"><ele>46.0</ele><time>2026-04-06T06:34:20.999Z</time></trkpt><trkpt lat="45.01013167566512" lon="9.943546860502684"><ele>46.0</ele><time>2026-04-06T06:34:21.999Z</time></trkpt><trkpt lat="45.01005384363957" lon="9.943516530936824"><ele>46.0</ele><time>2026-04-06T06:34:22.999Z</time></trkpt><trkpt lat="45.00997703787362" lon="9.943488303458578"><ele>46.0</ele><time>2026-04-06T06:34:23.999Z</time></trkpt><trkpt lat="45.009898010989964" lon="9.943458120593304"><ele>46.0</ele><time>2026-04-06T06:34:24.999Z</time></trkpt><trkpt lat="45.00981956375743" lon="9.943432015330409"><ele>46.0</ele><time>2026-04-06T06:34:25.999Z</time></trkpt><trkpt lat="45.009740896075705" lon="9.943404299390902"><ele>46.0</ele><time>2026-04-06T06:34:26.999Z</time></trkpt><trkpt lat="45.00966121717034" lon="9.943373183713478"><ele>45.833333333333336</ele><time>2026-04-06T06:34:27.999Z</time></trkpt><trkpt lat="45.009584370779066" lon="9.943341037365583"><ele>45.66666666666667</ele><time>2026-04-06T06:34:28.998Z</time></trkpt><trkpt lat="45.0095051042703" lon="9.943309142583711"><ele>45.5</ele><time>2026-04-06T06:34:29.998Z</time></trkpt><trkpt lat="45.00942514550654" lon="9.943278873604378"><ele>45.333333333333336</ele><time>2026-04-06T06:34:30.998Z</time></trkpt><trkpt lat="45.00934705521132" lon="9.943251869090576"><ele>45.166666666666664</ele><time>2026-04-06T06:34:31.998Z</time></trkpt><trkpt lat="45.009266056256884" lon="9.94322304443696"><ele>45.0</ele><time>2026-04-06T06:34:32.998Z</time></trkpt><trkpt lat="45.00918630005998" lon="9.943189681158099"><ele>44.833333333333336</ele><time>2026-04-06T06:34:33.998Z</time></trkpt><trkpt lat="45.00910707495103" lon="9.943157887570669"><ele>44.666666666666664</ele><time>2026-04-06T06:34:34.998Z</time></trkpt><trkpt lat="45.00902784886015" lon="9.94312775520218"><ele>44.5</ele><time>2026-04-06T06:34:35.998Z</time></trkpt><trkpt lat="45.00894905043733" lon="9.94309876070327"><ele>44.33333333333333</ele><time>2026-04-06T06:34:36.998Z</time></trkpt><trkpt lat="45.00886958230171" lon="9.94307170775694"><ele>44.166666666666664</ele><time>2026-04-06T06:34:37.998Z</time></trkpt><trkpt lat="45.00879082791501" lon="9.943045597081538"><ele>44.0</ele><time>2026-04-06T06:34:38.998Z</time></trkpt><trkpt lat="45.008714212219395" lon="9.943016168767858"><ele>44.0</ele><time>2026-04-06T06:34:39.998Z</time></trkpt><trkpt lat="45.008637235773925" lon="9.942988464714313"><ele>44.0</ele><time>2026-04-06T06:34:40.998Z</time></trkpt><trkpt lat="45.008559928968616" lon="9.942959201445808"><ele>44.0</ele><time>2026-04-06T06:34:41.998Z</time></trkpt><trkpt lat="45.00848429399889" lon="9.94293274249987"><ele>44.0</ele><time>2026-04-06T06:34:42.998Z</time></trkpt><trkpt lat="45.008409447978586" lon="9.942905155328582"><ele>44.0</ele><time>2026-04-06T06:34:43.998Z</time></trkpt><trkpt lat="45.00833276994034" lon="9.942872153028508"><ele>44.0</ele><time>2026-04-06T06:34:44.998Z</time></trkpt><trkpt lat="45.00825580258038" lon="9.942842445477348"><ele>44.5</ele><time>2026-04-06T06:34:45.998Z</time></trkpt><trkpt lat="45.008181108706175" lon="9.942813945058063"><ele>45.0</ele><time>2026-04-06T06:34:46.998Z</time></trkpt><trkpt lat="45.00810409865062" lon="9.942785239178944"><ele>45.5</ele><time>2026-04-06T06:34:47.998Z</time></trkpt><trkpt lat="45.008026018318674" lon="9.942755193879952"><ele>46.0</ele><time>2026-04-06T06:34:48.998Z</time></trkpt><trkpt lat="45.00794922698096" lon="9.942722969797202"><ele>46.5</ele><time>2026-04-06T06:34:49.998Z</time></trkpt><trkpt lat="45.00787104717396" lon="9.94269532046384"><ele>47.0</ele><time>2026-04-06T06:34:50.998Z</time></trkpt><trkpt lat="45.00779344103223" lon="9.942666431576546"><ele>47.0</ele><time>2026-04-06T06:34:51.998Z</time></trkpt><trkpt lat="45.00771449200884" lon="9.9426407819019"><ele>47.0</ele><time>2026-04-06T06:34:52.998Z</time></trkpt><trkpt lat="45.00763660746263" lon="9.942610204774615"><ele>47.0</ele><time>2026-04-06T06:34:53.998Z</time></trkpt><trkpt lat="45.00756055474032" lon="9.942581780201548"><ele>47.0</ele><time>2026-04-06T06:34:54.998Z</time></trkpt><trkpt lat="45.007483649658184" lon="9.942554959958471"><ele>47.0</ele><time>2026-04-06T06:34:55.998Z</time></trkpt><trkpt lat="45.0074069457119" lon="9.942523374950348"><ele>47.0</ele><time>2026-04-06T06:34:56.998Z</time></trkpt><trkpt lat="45.007328977360736" lon="9.942496752862382"><ele>47.166666666666664</ele><time>2026-04-06T06:34:57.998Z</time></trkpt><trkpt lat="45.007250604687485" lon="9.942463811910057"><ele>47.33333333333333</ele><time>2026-04-06T06:34:59Z</time></trkpt><trkpt lat="45.00717189982814" lon="9.942434378387507"><ele>47.5</ele><time>2026-04-06T06:35:00Z</time></trkpt><trkpt lat="45.00709387204759" lon="9.942401708859629"><ele>47.666666666666664</ele><time>2026-04-06T06:35:01Z</time></trkpt><trkpt lat="45.00701515455379" lon="9.942370472648143"><ele>47.833333333333336</ele><time>2026-04-06T06:35:02Z</time></trkpt><trkpt lat="45.00693638861032" lon="9.942341897620802"><ele>48.0</ele><time>2026-04-06T06:35:03Z</time></trkpt><trkpt lat="45.00685632944304" lon="9.942314445282493"><ele>48.0</ele><time>2026-04-06T06:35:04Z</time></trkpt><trkpt lat="45.0067768195566" lon="9.942283561963492"><ele>48.0</ele><time>2026-04-06T06:35:05Z</time></trkpt><trkpt lat="45.00669839501561" lon="9.942255411383224"><ele>48.0</ele><time>2026-04-06T06:35:06Z</time></trkpt><trkpt lat="45.00661817930409" lon="9.942224824674568"><ele>48.0</ele><time>2026-04-06T06:35:07Z</time></trkpt><trkpt lat="45.00654038052901" lon="9.942193807230234"><ele>48.0</ele><time>2026-04-06T06:35:08Z</time></trkpt><trkpt lat="45.006461782967484" lon="9.942161149729644"><ele>48.0</ele><time>2026-04-06T06:35:09Z</time></trkpt><trkpt lat="45.00638523174336" lon="9.942131219149518"><ele>48.166666666666664</ele><time>2026-04-06T06:35:10Z</time></trkpt><trkpt lat="45.00630578288501" lon="9.94209241315658"><ele>48.33333333333333</ele><time>2026-04-06T06:35:11Z</time></trkpt><trkpt lat="45.00623030350162" lon="9.942044545511877"><ele>48.5</ele><time>2026-04-06T06:35:12Z</time></trkpt><trkpt lat="45.006159521199876" lon="9.941990485168576"><ele>48.666666666666664</ele><time>2026-04-06T06:35:13Z</time></trkpt><trkpt lat="45.006089830769874" lon="9.941931453462944"><ele>48.83333333333333</ele><time>2026-04-06T06:35:14Z</time></trkpt><trkpt lat="45.0060242513273" lon="9.94186967428452"><ele>49.0</ele><time>2026-04-06T06:35:15Z</time></trkpt><trkpt lat="45.0059611462155" lon="9.94180306960896"><ele>48.99999999999999</ele><time>2026-04-06T06:35:16Z</time></trkpt><trkpt lat="45.00590111633138" lon="9.941734193914865"><ele>49.0</ele><time>2026-04-06T06:35:17Z</time></trkpt><trkpt lat="45.00584295882787" lon="9.941664957915146"><ele>49.0</ele><time>2026-04-06T06:35:18Z</time></trkpt><trkpt lat="45.00578663854412" lon="9.94159530249949"><ele>49.0</ele><time>2026-04-06T06:35:19Z</time></trkpt><trkpt lat="45.005730001343565" lon="9.94152497309638"><ele>48.99999999999999</ele><time>2026-04-06T06:35:20Z</time></trkpt><trkpt lat="45.005671336849666" lon="9.941453573715078"><ele>49.0</ele><time>2026-04-06T06:35:21Z</time></trkpt><trkpt lat="45.00561134398567" lon="9.941380893646217"><ele>48.99999999999999</ele><time>2026-04-06T06:35:22Z</time></trkpt><trkpt lat="45.00555167871517" lon="9.941308944745805"><ele>49.0</ele><time>2026-04-06T06:35:23Z</time></trkpt><trkpt lat="45.005492270893406" lon="9.941237194791807"><ele>49.0</ele><time>2026-04-06T06:35:24Z</time></trkpt><trkpt lat="45.00543250265874" lon="9.941164326216716"><ele>49.0</ele><time>2026-04-06T06:35:25Z</time></trkpt><trkpt lat="45.00537349604736" lon="9.941091854694976"><ele>48.99999999999999</ele><time>2026-04-06T06:35:26Z</time></trkpt><trkpt lat="45.00531335179991" lon="9.941020141244636"><ele>49.0</ele><time>2026-04-06T06:35:27Z</time></trkpt><trkpt lat="45.00525195223734" lon="9.940948197514734"><ele>48.83333333333333</ele><time>2026-04-06T06:35:28Z</time></trkpt><trkpt lat="45.00519265463075" lon="9.940877638634095"><ele>48.666666666666664</ele><time>2026-04-06T06:35:29Z</time></trkpt><trkpt lat="45.00513528161344" lon="9.940804187852432"><ele>48.5</ele><time>2026-04-06T06:35:30Z</time></trkpt><trkpt lat="45.00507585542688" lon="9.940732804404288"><ele>48.33333333333333</ele><time>2026-04-06T06:35:31Z</time></trkpt><trkpt lat="45.005016045475564" lon="9.94066208034552"><ele>48.166666666666664</ele><time>2026-04-06T06:35:32Z</time></trkpt><trkpt lat="45.004956176018396" lon="9.940589461649427"><ele>48.0</ele><time>2026-04-06T06:35:32.999Z</time></trkpt><trkpt lat="45.004897841733744" lon="9.940514958781906"><ele>48.0</ele><time>2026-04-06T06:35:33.999Z</time></trkpt><trkpt lat="45.00483776673569" lon="9.940442540530842"><ele>48.0</ele><time>2026-04-06T06:35:34.999Z</time></trkpt><trkpt lat="45.00477779013337" lon="9.940368857897711"><ele>48.0</ele><time>2026-04-06T06:35:35.999Z</time></trkpt><trkpt lat="45.00471772671806" lon="9.940296608774302"><ele>48.0</ele><time>2026-04-06T06:35:36.999Z</time></trkpt><trkpt lat="45.004657645594556" lon="9.940223511742493"><ele>48.0</ele><time>2026-04-06T06:35:37.999Z</time></trkpt><trkpt lat="45.00459644786147" lon="9.940152190849572"><ele>48.0</ele><time>2026-04-06T06:35:38.999Z</time></trkpt><trkpt lat="45.00453575842552" lon="9.940079551565049"><ele>48.0</ele><time>2026-04-06T06:35:39.999Z</time></trkpt><trkpt lat="45.00447482567613" lon="9.940006275196078"><ele>48.0</ele><time>2026-04-06T06:35:40.999Z</time></trkpt><trkpt lat="45.004412753302155" lon="9.939932925039102"><ele>48.0</ele><time>2026-04-06T06:35:41.999Z</time></trkpt><trkpt lat="45.00435152196019" lon="9.939860553406222"><ele>48.0</ele><time>2026-04-06T06:35:42.999Z</time></trkpt><trkpt lat="45.0042900273443" lon="9.939787982611348"><ele>48.0</ele><time>2026-04-06T06:35:43.999Z</time></trkpt><trkpt lat="45.00422854633252" lon="9.939712803609156"><ele>48.0</ele><time>2026-04-06T06:35:44.999Z</time></trkpt><trkpt lat="45.00416673497889" lon="9.939640963969415"><ele>47.833333333333336</ele><time>2026-04-06T06:35:45.999Z</time></trkpt><trkpt lat="45.00410452626231" lon="9.939567213454545"><ele>47.666666666666664</ele><time>2026-04-06T06:35:46.999Z</time></trkpt><trkpt lat="45.004041949275056" lon="9.939495077659553"><ele>47.5</ele><time>2026-04-06T06:35:47.999Z</time></trkpt><trkpt lat="45.00398067453523" lon="9.939420234731008"><ele>47.33333333333333</ele><time>2026-04-06T06:35:48.999Z</time></trkpt><trkpt lat="45.003918439053486" lon="9.939347097008172"><ele>47.166666666666664</ele><time>2026-04-06T06:35:49.999Z</time></trkpt><trkpt lat="45.003855106452306" lon="9.939273241564978"><ele>47.0</ele><time>2026-04-06T06:35:50.999Z</time></trkpt><trkpt lat="45.003792350282495" lon="9.9392027182956"><ele>47.0</ele><time>2026-04-06T06:35:51.999Z</time></trkpt><trkpt lat="45.00372670115456" lon="9.939132513788284"><ele>47.0</ele><time>2026-04-06T06:35:52.999Z</time></trkpt><trkpt lat="45.003663458395955" lon="9.939062625450548"><ele>47.0</ele><time>2026-04-06T06:35:53.999Z</time></trkpt><trkpt lat="45.003597941306474" lon="9.938993682861414"><ele>47.0</ele><time>2026-04-06T06:35:54.999Z</time></trkpt><trkpt lat="45.00352830721085" lon="9.938931889883378"><ele>47.0</ele><time>2026-04-06T06:35:55.999Z</time></trkpt><trkpt lat="45.00346141948109" lon="9.938866745819569"><ele>47.0</ele><time>2026-04-06T06:35:56.999Z</time></trkpt><trkpt lat="45.00339290472702" lon="9.938800277755693"><ele>47.5</ele><time>2026-04-06T06:35:57.999Z</time></trkpt><trkpt lat="45.00332573009995" lon="9.938733372845235"><ele>48.0</ele><time>2026-04-06T06:35:58.999Z</time></trkpt><trkpt lat="45.003257248331444" lon="9.938668989670955"><ele>48.5</ele><time>2026-04-06T06:35:59.999Z</time></trkpt><trkpt lat="45.003186444260756" lon="9.938610237562203"><ele>49.0</ele><time>2026-04-06T06:36:00.999Z</time></trkpt><trkpt lat="45.00311731004826" lon="9.938550535025476"><ele>49.50000000000001</ele><time>2026-04-06T06:36:01.999Z</time></trkpt><trkpt lat="45.003046846634476" lon="9.938492880900775"><ele>50.0</ele><time>2026-04-06T06:36:02.999Z</time></trkpt><trkpt lat="45.00297785622267" lon="9.938432651021843"><ele>50.333333333333336</ele><time>2026-04-06T06:36:03.999Z</time></trkpt><trkpt lat="45.002908879467746" lon="9.938372999318887"><ele>50.66666666666667</ele><time>2026-04-06T06:36:04.999Z</time></trkpt><trkpt lat="45.00283948518196" lon="9.938313303769222"><ele>51.0</ele><time>2026-04-06T06:36:05.999Z</time></trkpt><trkpt lat="45.00277028757035" lon="9.938253897138418"><ele>51.33333333333333</ele><time>2026-04-06T06:36:06.999Z</time></trkpt><trkpt lat="45.002701963141384" lon="9.938192093433955"><ele>51.666666666666664</ele><time>2026-04-06T06:36:07.999Z</time></trkpt><trkpt lat="45.002632704158856" lon="9.938130625913713"><ele>52.0</ele><time>2026-04-06T06:36:08.999Z</time></trkpt><trkpt lat="45.002565705222395" lon="9.938066527516384"><ele>51.99999999999999</ele><time>2026-04-06T06:36:09.999Z</time></trkpt><trkpt lat="45.0024982591966" lon="9.938002171025447"><ele>52.0</ele><time>2026-04-06T06:36:10.999Z</time></trkpt><trkpt lat="45.00243272411383" lon="9.937938899255217"><ele>52.0</ele><time>2026-04-06T06:36:11.999Z</time></trkpt><trkpt lat="45.00236816036168" lon="9.937874575350687"><ele>52.0</ele><time>2026-04-06T06:36:12.999Z</time></trkpt><trkpt lat="45.00230178800935" lon="9.93781547619362"><ele>51.99999999999999</ele><time>2026-04-06T06:36:13.999Z</time></trkpt><trkpt lat="45.002235231193154" lon="9.937753621620045"><ele>52.0</ele><time>2026-04-06T06:36:14.999Z</time></trkpt><trkpt lat="45.00216848541643" lon="9.937690522892618"><ele>51.49999999999999</ele><time>2026-04-06T06:36:15.999Z</time></trkpt><trkpt lat="45.00210298344727" lon="9.93762991795161"><ele>51.0</ele><time>2026-04-06T06:36:16.999Z</time></trkpt><trkpt lat="45.00203722192179" lon="9.93756864850096"><ele>50.5</ele><time>2026-04-06T06:36:17.999Z</time></trkpt><trkpt lat="45.00197126936865" lon="9.93750382037159"><ele>50.0</ele><time>2026-04-06T06:36:18.999Z</time></trkpt><trkpt lat="45.0019046026311" lon="9.937441766583559"><ele>49.49999999999999</ele><time>2026-04-06T06:36:19.999Z</time></trkpt><trkpt lat="45.0018369067063" lon="9.93737827999773"><ele>49.0</ele><time>2026-04-06T06:36:20.999Z</time></trkpt><trkpt lat="45.00176840607351" lon="9.937317944828246"><ele>48.99999999999999</ele><time>2026-04-06T06:36:21.999Z</time></trkpt><trkpt lat="45.001701832451175" lon="9.93725296309641"><ele>49.0</ele><time>2026-04-06T06:36:22.999Z</time></trkpt><trkpt lat="45.00163546595958" lon="9.937187404887426"><ele>49.0</ele><time>2026-04-06T06:36:23.999Z</time></trkpt><trkpt lat="45.0015681162027" lon="9.937124146249753"><ele>49.0</ele><time>2026-04-06T06:36:24.999Z</time></trkpt><trkpt lat="45.0015012642353" lon="9.937058925240711"><ele>48.99999999999999</ele><time>2026-04-06T06:36:25.999Z</time></trkpt><trkpt lat="45.0014343214524" lon="9.936991571543524"><ele>49.0</ele><time>2026-04-06T06:36:26.999Z</time></trkpt><trkpt lat="45.00136809284498" lon="9.936929501710518"><ele>48.99999999999999</ele><time>2026-04-06T06:36:27.999Z</time></trkpt><trkpt lat="45.00129914882726" lon="9.93686840398157"><ele>49.0</ele><time>2026-04-06T06:36:28.999Z</time></trkpt><trkpt lat="45.00123228921334" lon="9.936807530472"><ele>49.0</ele><time>2026-04-06T06:36:29.999Z</time></trkpt><trkpt lat="45.00116629038463" lon="9.936742273245793"><ele>49.0</ele><time>2026-04-06T06:36:30.999Z</time></trkpt><trkpt lat="45.00109915999781" lon="9.936678677787963"><ele>48.99999999999999</ele><time>2026-04-06T06:36:31.999Z</time></trkpt><trkpt lat="45.00103457014668" lon="9.936613834310952"><ele>49.0</ele><time>2026-04-06T06:36:32.998Z</time></trkpt><trkpt lat="45.00096654853025" lon="9.936549184135236"><ele>48.83333333333333</ele><time>2026-04-06T06:36:33.998Z</time></trkpt><trkpt lat="45.00089773591508" lon="9.93648314222924"><ele>48.666666666666664</ele><time>2026-04-06T06:36:34.998Z</time></trkpt><trkpt lat="45.00082890916106" lon="9.936423615253798"><ele>48.5</ele><time>2026-04-06T06:36:35.998Z</time></trkpt><trkpt lat="45.00076268781255" lon="9.93635829916976"><ele>48.33333333333333</ele><time>2026-04-06T06:36:36.998Z</time></trkpt><trkpt lat="45.00069621756333" lon="9.936296795506987"><ele>48.166666666666664</ele><time>2026-04-06T06:36:37.998Z</time></trkpt><trkpt lat="45.000628737446064" lon="9.936236549806758"><ele>48.0</ele><time>2026-04-06T06:36:38.998Z</time></trkpt><trkpt lat="45.00056031669529" lon="9.936180190621075"><ele>47.833333333333336</ele><time>2026-04-06T06:36:39.998Z</time></trkpt><trkpt lat="45.000489398492" lon="9.936123836035701"><ele>47.666666666666664</ele><time>2026-04-06T06:36:40.998Z</time></trkpt><trkpt lat="45.00041884188607" lon="9.936072660011813"><ele>47.5</ele><time>2026-04-06T06:36:41.998Z</time></trkpt><trkpt lat="45.00034747241148" lon="9.936024015120857"><ele>47.33333333333333</ele><time>2026-04-06T06:36:42.998Z</time></trkpt><trkpt lat="45.000276390728246" lon="9.935974959782543"><ele>47.166666666666664</ele><time>2026-04-06T06:36:43.998Z</time></trkpt><trkpt lat="45.000204270239266" lon="9.935921536312211"><ele>47.0</ele><time>2026-04-06T06:36:44.998Z</time></trkpt><trkpt lat="45.00013282882366" lon="9.935867839475168"><ele>47.0</ele><time>2026-04-06T06:36:45.998Z</time></trkpt><trkpt lat="45.000060015470766" lon="9.935816624218054"><ele>47.0</ele><time>2026-04-06T06:36:46.998Z</time></trkpt><trkpt lat="44.999986221034234" lon="9.935766385250318"><ele>47.0</ele><time>2026-04-06T06:36:47.998Z</time></trkpt><trkpt lat="44.99991458050874" lon="9.935718913854245"><ele>47.0</ele><time>2026-04-06T06:36:48.998Z</time></trkpt><trkpt lat="44.999840747988735" lon="9.93566736609872"><ele>47.0</ele><time>2026-04-06T06:36:49.998Z</time></trkpt><trkpt lat="44.99977039827269" lon="9.935617699886656"><ele>47.0</ele><time>2026-04-06T06:36:50.998Z</time></trkpt><trkpt lat="44.99969779192549" lon="9.935566187351807"><ele>47.0</ele><time>2026-04-06T06:36:51.998Z</time></trkpt><trkpt lat="44.99962528895489" lon="9.935516271660381"><ele>47.0</ele><time>2026-04-06T06:36:52.998Z</time></trkpt><trkpt lat="44.99955438839151" lon="9.935466242604637"><ele>47.0</ele><time>2026-04-06T06:36:53.998Z</time></trkpt><trkpt lat="44.99948149520931" lon="9.935416028614986"><ele>47.0</ele><time>2026-04-06T06:36:54.998Z</time></trkpt><trkpt lat="44.99940982552558" lon="9.935370120018995"><ele>47.0</ele><time>2026-04-06T06:36:55.998Z</time></trkpt><trkpt lat="44.99933698947909" lon="9.935323861547959"><ele>47.0</ele><time>2026-04-06T06:36:56.998Z</time></trkpt><trkpt lat="44.999262315139184" lon="9.935283280827568"><ele>47.0</ele><time>2026-04-06T06:36:57.998Z</time></trkpt><trkpt lat="44.999189656100356" lon="9.93524224046428"><ele>47.0</ele><time>2026-04-06T06:36:58.998Z</time></trkpt><trkpt lat="44.99911429018353" lon="9.935203415079748"><ele>47.0</ele><time>2026-04-06T06:36:59.998Z</time></trkpt><trkpt lat="44.99903931928537" lon="9.9351663849497"><ele>47.0</ele><time>2026-04-06T06:37:00.998Z</time></trkpt><trkpt lat="44.998963603524125" lon="9.935134665516166"><ele>47.0</ele><time>2026-04-06T06:37:01.998Z</time></trkpt><trkpt lat="44.99888866066818" lon="9.935098355052075"><ele>47.0</ele><time>2026-04-06T06:37:02.998Z</time></trkpt><trkpt lat="44.99881642576219" lon="9.935050080091102"><ele>47.5</ele><time>2026-04-06T06:37:03.998Z</time></trkpt><trkpt lat="44.99874865270176" lon="9.93499092842513"><ele>48.0</ele><time>2026-04-06T06:37:05Z</time></trkpt><trkpt lat="44.99869352527881" lon="9.934908847880804"><ele>48.5</ele><time>2026-04-06T06:37:06Z</time></trkpt><trkpt lat="44.99866328539065" lon="9.934800092843899"><ele>49.0</ele><time>2026-04-06T06:37:07Z</time></trkpt><trkpt lat="44.99864706086292" lon="9.934684748897945"><ele>49.50000000000001</ele><time>2026-04-06T06:37:08Z</time></trkpt><trkpt lat="44.998643506248314" lon="9.934570800380747"><ele>50.0</ele><time>2026-04-06T06:37:09Z</time></trkpt><trkpt lat="44.99865225949155" lon="9.93445774109511"><ele>50.00000000000001</ele><time>2026-04-06T06:37:10Z</time></trkpt><trkpt lat="44.99867138186028" lon="9.934345724791921"><ele>50.0</ele><time>2026-04-06T06:37:11Z</time></trkpt><trkpt lat="44.998693169036535" lon="9.934236827180037"><ele>50.0</ele><time>2026-04-06T06:37:12Z</time></trkpt><trkpt lat="44.99871327117637" lon="9.934127159787113"><ele>50.0</ele><time>2026-04-06T06:37:13Z</time></trkpt><trkpt lat="44.99873537953353" lon="9.93401854308558"><ele>50.00000000000001</ele><time>2026-04-06T06:37:14Z</time></trkpt><trkpt lat="44.99875630790067" lon="9.933906821033046"><ele>50.0</ele><time>2026-04-06T06:37:15Z</time></trkpt><trkpt lat="44.998773890713636" lon="9.933793503694204"><ele>49.833333333333336</ele><time>2026-04-06T06:37:16Z</time></trkpt><trkpt lat="44.99879632701071" lon="9.933680716557035"><ele>49.66666666666667</ele><time>2026-04-06T06:37:17Z</time></trkpt><trkpt lat="44.998818240644525" lon="9.93356801603461"><ele>49.5</ele><time>2026-04-06T06:37:18Z</time></trkpt><trkpt lat="44.99883909219249" lon="9.933454863797955"><ele>49.33333333333333</ele><time>2026-04-06T06:37:19Z</time></trkpt><trkpt lat="44.9988570268605" lon="9.933345652309228"><ele>49.166666666666664</ele><time>2026-04-06T06:37:20Z</time></trkpt><trkpt lat="44.998877447654024" lon="9.9332319179765"><ele>49.0</ele><time>2026-04-06T06:37:21Z</time></trkpt><trkpt lat="44.99889589153142" lon="9.933123299548724"><ele>48.99999999999999</ele><time>2026-04-06T06:37:22Z</time></trkpt><trkpt lat="44.99891915337062" lon="9.933013246118298"><ele>49.0</ele><time>2026-04-06T06:37:23Z</time></trkpt><trkpt lat="44.99893721846505" lon="9.932906536862124"><ele>49.0</ele><time>2026-04-06T06:37:24Z</time></trkpt><trkpt lat="44.998952279496606" lon="9.932798084416598"><ele>49.0</ele><time>2026-04-06T06:37:25Z</time></trkpt><trkpt lat="44.99896038075077" lon="9.932690651010436"><ele>48.99999999999999</ele><time>2026-04-06T06:37:26Z</time></trkpt><trkpt lat="44.99895652027747" lon="9.932580244906962"><ele>49.0</ele><time>2026-04-06T06:37:27Z</time></trkpt><trkpt lat="44.9989194990068" lon="9.932483870379253"><ele>48.99999999999999</ele><time>2026-04-06T06:37:28Z</time></trkpt><trkpt lat="44.99885259468963" lon="9.932418646351742"><ele>49.0</ele><time>2026-04-06T06:37:29Z</time></trkpt><trkpt lat="44.9987764794286" lon="9.9323830346228"><ele>49.0</ele><time>2026-04-06T06:37:30Z</time></trkpt><trkpt lat="44.9986990831198" lon="9.932356891411578"><ele>49.0</ele><time>2026-04-06T06:37:31Z</time></trkpt><trkpt lat="44.99862260738132" lon="9.93233225633292"><ele>48.99999999999999</ele><time>2026-04-06T06:37:32Z</time></trkpt><trkpt lat="44.99854608666932" lon="9.932302175471575"><ele>49.0</ele><time>2026-04-06T06:37:33Z</time></trkpt><trkpt lat="44.9984695341188" lon="9.932269631273371"><ele>48.99999999999999</ele><time>2026-04-06T06:37:34Z</time></trkpt><trkpt lat="44.998394125117315" lon="9.932239661861503"><ele>49.0</ele><time>2026-04-06T06:37:35Z</time></trkpt><trkpt lat="44.9983176988904" lon="9.9322078745247"><ele>49.0</ele><time>2026-04-06T06:37:36Z</time></trkpt><trkpt lat="44.9982432090863" lon="9.932174124580952"><ele>49.0</ele><time>2026-04-06T06:37:37Z</time></trkpt><trkpt lat="44.99816834721741" lon="9.932142020707957"><ele>48.99999999999999</ele><time>2026-04-06T06:37:38Z</time></trkpt><trkpt lat="44.9980922236891" lon="9.932112160929409"><ele>49.0</ele><time>2026-04-06T06:37:38.999Z</time></trkpt><trkpt lat="44.99801604360911" lon="9.932083098262886"><ele>49.666666666666664</ele><time>2026-04-06T06:37:39.999Z</time></trkpt><trkpt lat="44.99793984902719" lon="9.932053213152484"><ele>50.33333333333333</ele><time>2026-04-06T06:37:40.999Z</time></trkpt><trkpt lat="44.99786381445992" lon="9.93202075213982"><ele>51.0</ele><time>2026-04-06T06:37:41.999Z</time></trkpt><trkpt lat="44.99778743047464" lon="9.931991722793251"><ele>51.66666666666667</ele><time>2026-04-06T06:37:42.999Z</time></trkpt><trkpt lat="44.99771491189905" lon="9.931963381654853"><ele>52.333333333333336</ele><time>2026-04-06T06:37:43.999Z</time></trkpt><trkpt lat="44.997642307313704" lon="9.931934756393353"><ele>53.0</ele><time>2026-04-06T06:37:44.999Z</time></trkpt><trkpt lat="44.997574346937995" lon="9.931902221352766"><ele>53.00000000000001</ele><time>2026-04-06T06:37:45.999Z</time></trkpt><trkpt lat="44.997502114085954" lon="9.931873305899206"><ele>53.0</ele><time>2026-04-06T06:37:46.999Z</time></trkpt><trkpt lat="44.99742928928041" lon="9.931842928376202"><ele>53.0</ele><time>2026-04-06T06:37:47.999Z</time></trkpt><trkpt lat="44.99735630680331" lon="9.931814564974923"><ele>53.0</ele><time>2026-04-06T06:37:48.999Z</time></trkpt><trkpt lat="44.99728180820543" lon="9.931779734420392"><ele>53.00000000000001</ele><time>2026-04-06T06:37:49.999Z</time></trkpt><trkpt lat="44.99721010020021" lon="9.931751417264826"><ele>53.0</ele><time>2026-04-06T06:37:50.999Z</time></trkpt><trkpt lat="44.997135147521" lon="9.931717956027224"><ele>53.16666666666667</ele><time>2026-04-06T06:37:51.999Z</time></trkpt><trkpt lat="44.99706281064112" lon="9.931691825985133"><ele>53.333333333333336</ele><time>2026-04-06T06:37:52.999Z</time></trkpt><trkpt lat="44.996989546215005" lon="9.931661678875235"><ele>53.5</ele><time>2026-04-06T06:37:53.999Z</time></trkpt><trkpt lat="44.996914939981345" lon="9.9316316650879"><ele>53.66666666666667</ele><time>2026-04-06T06:37:54.999Z</time></trkpt><trkpt lat="44.99684544973291" lon="9.931603856085271"><ele>53.833333333333336</ele><time>2026-04-06T06:37:55.999Z</time></trkpt><trkpt lat="44.99677435646314" lon="9.931570309489294"><ele>54.0</ele><time>2026-04-06T06:37:56.999Z</time></trkpt><trkpt lat="44.996701819742775" lon="9.931539411426455"><ele>54.0</ele><time>2026-04-06T06:37:57.999Z</time></trkpt><trkpt lat="44.996629108035314" lon="9.931507546649916"><ele>54.0</ele><time>2026-04-06T06:37:58.999Z</time></trkpt><trkpt lat="44.99655443564945" lon="9.931473628643579"><ele>54.0</ele><time>2026-04-06T06:37:59.999Z</time></trkpt><trkpt lat="44.99647999879661" lon="9.931447432028719"><ele>54.0</ele><time>2026-04-06T06:38:00.999Z</time></trkpt><trkpt lat="44.99640969948173" lon="9.93142073652209"><ele>54.0</ele><time>2026-04-06T06:38:01.999Z</time></trkpt><trkpt lat="44.99634103585735" lon="9.931393418738958"><ele>54.0</ele><time>2026-04-06T06:38:02.999Z</time></trkpt><trkpt lat="44.99627103450615" lon="9.93136554230194"><ele>54.0</ele><time>2026-04-06T06:38:03.999Z</time></trkpt><trkpt lat="44.996202802354475" lon="9.93133871038818"><ele>54.0</ele><time>2026-04-06T06:38:04.999Z</time></trkpt><trkpt lat="44.996135201179754" lon="9.931308946733719"><ele>54.0</ele><time>2026-04-06T06:38:05.999Z</time></trkpt><trkpt lat="44.99606609420692" lon="9.93128182688705"><ele>54.0</ele><time>2026-04-06T06:38:06.999Z</time></trkpt><trkpt lat="44.99599769866681" lon="9.931254935208585"><ele>54.0</ele><time>2026-04-06T06:38:07.999Z</time></trkpt><trkpt lat="44.99592970563743" lon="9.931234814701854"><ele>54.0</ele><time>2026-04-06T06:38:08.999Z</time></trkpt><trkpt lat="44.99586068465848" lon="9.93120896805792"><ele>54.0</ele><time>2026-04-06T06:38:09.999Z</time></trkpt><trkpt lat="44.995790553363676" lon="9.931181344579928"><ele>54.0</ele><time>2026-04-06T06:38:10.999Z</time></trkpt><trkpt lat="44.99571994310871" lon="9.931155634179605"><ele>54.285714285714285</ele><time>2026-04-06T06:38:11.999Z</time></trkpt><trkpt lat="44.995650013061955" lon="9.9311247670572"><ele>54.57142857142857</ele><time>2026-04-06T06:38:12.999Z</time></trkpt><trkpt lat="44.99558026720265" lon="9.931096143091647"><ele>54.85714285714286</ele><time>2026-04-06T06:38:13.999Z</time></trkpt><trkpt lat="44.99551486135496" lon="9.931070524109911"><ele>55.14285714285714</ele><time>2026-04-06T06:38:14.999Z</time></trkpt><trkpt lat="44.9954445474531" lon="9.931036768935714"><ele>55.42857142857143</ele><time>2026-04-06T06:38:15.999Z</time></trkpt><trkpt lat="44.9953764251276" lon="9.931011625609269"><ele>55.714285714285715</ele><time>2026-04-06T06:38:16.999Z</time></trkpt><trkpt lat="44.99530375959377" lon="9.930982279077414"><ele>56.0</ele><time>2026-04-06T06:38:17.999Z</time></trkpt><trkpt lat="44.99523798569872" lon="9.930950397725939"><ele>56.0</ele><time>2026-04-06T06:38:18.999Z</time></trkpt><trkpt lat="44.99516932841197" lon="9.930924473923689"><ele>56.0</ele><time>2026-04-06T06:38:19.999Z</time></trkpt><trkpt lat="44.99509940761507" lon="9.93089436361353"><ele>56.0</ele><time>2026-04-06T06:38:20.999Z</time></trkpt><trkpt lat="44.99503014314523" lon="9.930866372918794"><ele>56.0</ele><time>2026-04-06T06:38:21.999Z</time></trkpt><trkpt lat="44.994956977861136" lon="9.930840349891232"><ele>56.0</ele><time>2026-04-06T06:38:22.999Z</time></trkpt><trkpt lat="44.994883280082284" lon="9.93081351054943"><ele>56.0</ele><time>2026-04-06T06:38:23.999Z</time></trkpt><trkpt lat="44.994809862779285" lon="9.930779258943554"><ele>56.0</ele><time>2026-04-06T06:38:24.999Z</time></trkpt><trkpt lat="44.99473707203248" lon="9.930750861839119"><ele>55.857142857142854</ele><time>2026-04-06T06:38:25.999Z</time></trkpt><trkpt lat="44.994665956208166" lon="9.930724583963427"><ele>55.714285714285715</ele><time>2026-04-06T06:38:26.999Z</time></trkpt><trkpt lat="44.994593466482144" lon="9.930698351227857"><ele>55.57142857142857</ele><time>2026-04-06T06:38:27.999Z</time></trkpt><trkpt lat="44.9945205751524" lon="9.930667889062532"><ele>55.42857142857143</ele><time>2026-04-06T06:38:28.999Z</time></trkpt><trkpt lat="44.99444709222731" lon="9.930639998258329"><ele>55.285714285714285</ele><time>2026-04-06T06:38:29.999Z</time></trkpt><trkpt lat="44.99437595434204" lon="9.930609798645525"><ele>55.14285714285714</ele><time>2026-04-06T06:38:30.999Z</time></trkpt><trkpt lat="44.99430570885345" lon="9.930583654137424"><ele>55.0</ele><time>2026-04-06T06:38:31.999Z</time></trkpt><trkpt lat="44.99423295247006" lon="9.930558629712912"><ele>55.14285714285714</ele><time>2026-04-06T06:38:32.999Z</time></trkpt><trkpt lat="44.994163202757186" lon="9.93053133842588"><ele>55.285714285714285</ele><time>2026-04-06T06:38:33.999Z</time></trkpt><trkpt lat="44.9940926078588" lon="9.930501831461624"><ele>55.42857142857143</ele><time>2026-04-06T06:38:34.999Z</time></trkpt><trkpt lat="44.994026906733986" lon="9.93047469769655"><ele>55.57142857142857</ele><time>2026-04-06T06:38:35.999Z</time></trkpt><trkpt lat="44.993962307205635" lon="9.930441697830728"><ele>55.714285714285715</ele><time>2026-04-06T06:38:36.999Z</time></trkpt><trkpt lat="44.99389946792047" lon="9.93039859522676"><ele>55.857142857142854</ele><time>2026-04-06T06:38:37.998Z</time></trkpt><trkpt lat="44.99384229771438" lon="9.930344516001695"><ele>56.0</ele><time>2026-04-06T06:38:38.998Z</time></trkpt><trkpt lat="44.993789618079106" lon="9.930275378710844"><ele>56.0</ele><time>2026-04-06T06:38:39.998Z</time></trkpt><trkpt lat="44.993730368083874" lon="9.93022493506418"><ele>56.0</ele><time>2026-04-06T06:38:40.998Z</time></trkpt><trkpt lat="44.99365641485924" lon="9.930213617212855"><ele>56.0</ele><time>2026-04-06T06:38:41.998Z</time></trkpt><trkpt lat="44.993579608004694" lon="9.930230358418337"><ele>56.0</ele><time>2026-04-06T06:38:42.998Z</time></trkpt><trkpt lat="44.993506358729526" lon="9.930254033166344"><ele>56.0</ele><time>2026-04-06T06:38:43.998Z</time></trkpt><trkpt lat="44.99343222476024" lon="9.930246837905264"><ele>56.0</ele><time>2026-04-06T06:38:44.998Z</time></trkpt><trkpt lat="44.99335937753784" lon="9.930214227209904"><ele>56.0</ele><time>2026-04-06T06:38:45.998Z</time></trkpt><trkpt lat="44.993288766355654" lon="9.930186488498377"><ele>55.714285714285715</ele><time>2026-04-06T06:38:46.998Z</time></trkpt><trkpt lat="44.99321676945392" lon="9.930162525196225"><ele>55.42857142857143</ele><time>2026-04-06T06:38:47.998Z</time></trkpt><trkpt lat="44.993146725782886" lon="9.930134253446543"><ele>55.14285714285714</ele><time>2026-04-06T06:38:48.998Z</time></trkpt><trkpt lat="44.99307877241299" lon="9.930106391816397"><ele>54.85714285714286</ele><time>2026-04-06T06:38:49.998Z</time></trkpt><trkpt lat="44.993009914100355" lon="9.930077623337706"><ele>54.57142857142857</ele><time>2026-04-06T06:38:50.998Z</time></trkpt><trkpt lat="44.99294370449247" lon="9.930050033593881"><ele>54.285714285714285</ele><time>2026-04-06T06:38:51.998Z</time></trkpt><trkpt lat="44.99287646335331" lon="9.930023402073873"><ele>54.0</ele><time>2026-04-06T06:38:52.998Z</time></trkpt><trkpt lat="44.99280771752285" lon="9.930003824445963"><ele>54.0</ele><time>2026-04-06T06:38:53.998Z</time></trkpt><trkpt lat="44.9927380541519" lon="9.929974516806258"><ele>54.0</ele><time>2026-04-06T06:38:54.998Z</time></trkpt><trkpt lat="44.992669509321985" lon="9.92994122709281"><ele>54.0</ele><time>2026-04-06T06:38:55.998Z</time></trkpt><trkpt lat="44.992605618755995" lon="9.929919206636649"><ele>54.0</ele><time>2026-04-06T06:38:56.998Z</time></trkpt><trkpt lat="44.992493132914746" lon="9.929874385177948"><ele>54.0</ele><time>2026-04-06T06:38:58.998Z</time></trkpt><trkpt lat="44.99239861650994" lon="9.929862336515011"><ele>54.0</ele><time>2026-04-06T06:39:00.998Z</time></trkpt><trkpt lat="44.99231847074627" lon="9.929980558856778"><ele>53.833333333333336</ele><time>2026-04-06T06:39:02.998Z</time></trkpt><trkpt lat="44.99231250530354" lon="9.93009036026349"><ele>53.66666666666667</ele><time>2026-04-06T06:39:03.998Z</time></trkpt><trkpt lat="44.99231851069092" lon="9.930206641352592"><ele>53.5</ele><time>2026-04-06T06:39:04.998Z</time></trkpt><trkpt lat="44.992329795286864" lon="9.930321869924413"><ele>53.333333333333336</ele><time>2026-04-06T06:39:05.998Z</time></trkpt><trkpt lat="44.99233534599201" lon="9.93044482204803"><ele>53.16666666666667</ele><time>2026-04-06T06:39:06.998Z</time></trkpt><trkpt lat="44.992335620271554" lon="9.930568125602253"><ele>53.0</ele><time>2026-04-06T06:39:07.998Z</time></trkpt><trkpt lat="44.99233670214405" lon="9.930694337374526"><ele>53.0</ele><time>2026-04-06T06:39:08.998Z</time></trkpt><trkpt lat="44.992342305898326" lon="9.930819023132324"><ele>53.0</ele><time>2026-04-06T06:39:09.998Z</time></trkpt><trkpt lat="44.99235058391485" lon="9.930945205580569"><ele>53.0</ele><time>2026-04-06T06:39:11Z</time></trkpt><trkpt lat="44.99234739884156" lon="9.931070568000484"><ele>53.0</ele><time>2026-04-06T06:39:12Z</time></trkpt><trkpt lat="44.99233387464368" lon="9.931198263591595"><ele>53.0</ele><time>2026-04-06T06:39:13Z</time></trkpt><trkpt lat="44.99233156806188" lon="9.931327736869372"><ele>53.16666666666667</ele><time>2026-04-06T06:39:14Z</time></trkpt><trkpt lat="44.992339465963276" lon="9.931456643569739"><ele>53.333333333333336</ele><time>2026-04-06T06:39:15Z</time></trkpt><trkpt lat="44.99234057522532" lon="9.93158260811962"><ele>53.5</ele><time>2026-04-06T06:39:16Z</time></trkpt><trkpt lat="44.992345097562406" lon="9.931709570077034"><ele>53.66666666666667</ele><time>2026-04-06T06:39:17Z</time></trkpt><trkpt lat="44.99234784215132" lon="9.931835913384019"><ele>53.833333333333336</ele><time>2026-04-06T06:39:18Z</time></trkpt><trkpt lat="44.99235027550905" lon="9.931957245050027"><ele>54.0</ele><time>2026-04-06T06:39:19Z</time></trkpt><trkpt lat="44.99235303677293" lon="9.93207413161326"><ele>54.0</ele><time>2026-04-06T06:39:20Z</time></trkpt><trkpt lat="44.99235491528422" lon="9.932181384866148"><ele>54.0</ele><time>2026-04-06T06:39:21Z</time></trkpt><trkpt lat="44.99231276238985" lon="9.93227206343229"><ele>54.0</ele><time>2026-04-06T06:39:22Z</time></trkpt><trkpt lat="44.99222691928513" lon="9.932314848372302"><ele>54.0</ele><time>2026-04-06T06:39:23Z</time></trkpt><trkpt lat="44.99214220858313" lon="9.932258809090454"><ele>54.0</ele><time>2026-04-06T06:39:24Z</time></trkpt><trkpt lat="44.99204863262885" lon="9.932248407149817"><ele>54.0</ele><time>2026-04-06T06:39:25Z</time></trkpt><trkpt lat="44.991967094469594" lon="9.932218436411409"><ele>54.0</ele><time>2026-04-06T06:39:26Z</time></trkpt><trkpt lat="44.99188190255308" lon="9.932183196548273"><ele>54.0</ele><time>2026-04-06T06:39:27Z</time></trkpt><trkpt lat="44.991800270394045" lon="9.932150381839039"><ele>54.0</ele><time>2026-04-06T06:39:28Z</time></trkpt><trkpt lat="44.99172131083251" lon="9.93212097424778"><ele>54.0</ele><time>2026-04-06T06:39:29Z</time></trkpt><trkpt lat="44.99162882264282" lon="9.932086471568088"><ele>54.0</ele><time>2026-04-06T06:39:30Z</time></trkpt><trkpt lat="44.99154624313792" lon="9.932044707906359"><ele>54.0</ele><time>2026-04-06T06:39:31Z</time></trkpt><trkpt lat="44.99146288798225" lon="9.932001977230975"><ele>54.0</ele><time>2026-04-06T06:39:32Z</time></trkpt><trkpt lat="44.99138039024347" lon="9.9319557990535"><ele>54.0</ele><time>2026-04-06T06:39:33Z</time></trkpt><trkpt lat="44.99129632745834" lon="9.931909139576526"><ele>54.0</ele><time>2026-04-06T06:39:34Z</time></trkpt><trkpt lat="44.99121201620739" lon="9.931863965341408"><ele>54.0</ele><time>2026-04-06T06:39:35Z</time></trkpt><trkpt lat="44.99113010183038" lon="9.931816102177148"><ele>54.0</ele><time>2026-04-06T06:39:36Z</time></trkpt><trkpt lat="44.99104790882903" lon="9.93176458461745"><ele>54.0</ele><time>2026-04-06T06:39:37Z</time></trkpt><trkpt lat="44.99096650122214" lon="9.93171501028358"><ele>54.0</ele><time>2026-04-06T06:39:38Z</time></trkpt><trkpt lat="44.990883537211054" lon="9.93166545460931"><ele>54.0</ele><time>2026-04-06T06:39:39Z</time></trkpt><trkpt lat="44.99080242915936" lon="9.93161591441368"><ele>54.0</ele><time>2026-04-06T06:39:40Z</time></trkpt><trkpt lat="44.99072065011049" lon="9.931566183609585"><ele>54.0</ele><time>2026-04-06T06:39:41Z</time></trkpt><trkpt lat="44.99064154828163" lon="9.931513569726084"><ele>54.0</ele><time>2026-04-06T06:39:42Z</time></trkpt><trkpt lat="44.990560419280285" lon="9.931459872391505"><ele>54.0</ele><time>2026-04-06T06:39:43Z</time></trkpt><trkpt lat="44.99047643389959" lon="9.931416511044445"><ele>54.0</ele><time>2026-04-06T06:39:43.999Z</time></trkpt><trkpt lat="44.99039728219351" lon="9.931365701976723"><ele>54.0</ele><time>2026-04-06T06:39:44.999Z</time></trkpt><trkpt lat="44.990318886903225" lon="9.931315835812462"><ele>54.0</ele><time>2026-04-06T06:39:45.999Z</time></trkpt><trkpt lat="44.99023729705895" lon="9.93127782768082"><ele>54.0</ele><time>2026-04-06T06:39:46.999Z</time></trkpt><trkpt lat="44.99015603136405" lon="9.931236233649527"><ele>54.0</ele><time>2026-04-06T06:39:47.999Z</time></trkpt><trkpt lat="44.99007745385648" lon="9.93119146726314"><ele>54.0</ele><time>2026-04-06T06:39:48.999Z</time></trkpt><trkpt lat="44.989999415547466" lon="9.93115337844889"><ele>53.833333333333336</ele><time>2026-04-06T06:39:49.999Z</time></trkpt><trkpt lat="44.98991564557708" lon="9.931111830479454"><ele>53.66666666666667</ele><time>2026-04-06T06:39:50.999Z</time></trkpt><trkpt lat="44.9898364167627" lon="9.93107491170891"><ele>53.5</ele><time>2026-04-06T06:39:51.999Z</time></trkpt><trkpt lat="44.98975431406338" lon="9.93103485111271"><ele>53.333333333333336</ele><time>2026-04-06T06:39:52.999Z</time></trkpt><trkpt lat="44.98967397037387" lon="9.930991081705956"><ele>53.16666666666667</ele><time>2026-04-06T06:39:53.999Z</time></trkpt><trkpt lat="44.989589975109695" lon="9.930958966271465"><ele>53.0</ele><time>2026-04-06T06:39:54.999Z</time></trkpt><trkpt lat="44.989508491252224" lon="9.930929301825085"><ele>53.00000000000001</ele><time>2026-04-06T06:39:55.999Z</time></trkpt><trkpt lat="44.98942126479008" lon="9.930910404856387"><ele>53.0</ele><time>2026-04-06T06:39:56.999Z</time></trkpt><trkpt lat="44.98933436283613" lon="9.930891925764394"><ele>53.0</ele><time>2026-04-06T06:39:57.999Z</time></trkpt><trkpt lat="44.989254958818485" lon="9.930877140383256"><ele>53.0</ele><time>2026-04-06T06:39:58.999Z</time></trkpt><trkpt lat="44.98917034540948" lon="9.930854798571742"><ele>53.00000000000001</ele><time>2026-04-06T06:39:59.999Z</time></trkpt><trkpt lat="44.98908441705094" lon="9.930839322395588"><ele>53.0</ele><time>2026-04-06T06:40:00.999Z</time></trkpt><trkpt lat="44.98900193992554" lon="9.930824413157007"><ele>53.00000000000001</ele><time>2026-04-06T06:40:01.999Z</time></trkpt><trkpt lat="44.98891713725948" lon="9.930803926342948"><ele>53.0</ele><time>2026-04-06T06:40:02.999Z</time></trkpt><trkpt lat="44.98883682374001" lon="9.93079469981462"><ele>53.0</ele><time>2026-04-06T06:40:03.999Z</time></trkpt><trkpt lat="44.98875413989572" lon="9.930772446391027"><ele>53.0</ele><time>2026-04-06T06:40:04.999Z</time></trkpt><trkpt lat="44.9886724445265" lon="9.930754481644312"><ele>53.00000000000001</ele><time>2026-04-06T06:40:05.999Z</time></trkpt><trkpt lat="44.98859091341226" lon="9.93073960626899"><ele>53.0</ele><time>2026-04-06T06:40:06.999Z</time></trkpt><trkpt lat="44.988508486247355" lon="9.930714112672261"><ele>53.00000000000001</ele><time>2026-04-06T06:40:07.999Z</time></trkpt><trkpt lat="44.98842465218501" lon="9.930698051951142"><ele>53.0</ele><time>2026-04-06T06:40:08.999Z</time></trkpt><trkpt lat="44.98834808318618" lon="9.930685097753285"><ele>53.0</ele><time>2026-04-06T06:40:09.999Z</time></trkpt><trkpt lat="44.98826980432079" lon="9.930669697894913"><ele>53.0</ele><time>2026-04-06T06:40:10.999Z</time></trkpt><trkpt lat="44.98819422605001" lon="9.93066214552607"><ele>53.00000000000001</ele><time>2026-04-06T06:40:11.999Z</time></trkpt><trkpt lat="44.98812273669289" lon="9.930645924449754"><ele>53.0</ele><time>2026-04-06T06:40:12.999Z</time></trkpt><trkpt lat="44.988049981220605" lon="9.930639223196719"><ele>53.16666666666667</ele><time>2026-04-06T06:40:13.999Z</time></trkpt><trkpt lat="44.9879799623398" lon="9.930635155378353"><ele>53.333333333333336</ele><time>2026-04-06T06:40:14.999Z</time></trkpt><trkpt lat="44.9879127557902" lon="9.930631008528431"><ele>53.5</ele><time>2026-04-06T06:40:15.999Z</time></trkpt><trkpt lat="44.98784667694964" lon="9.930630141956788"><ele>53.66666666666667</ele><time>2026-04-06T06:40:16.999Z</time></trkpt><trkpt lat="44.98772180378181" lon="9.930632500083336"><ele>53.833333333333336</ele><time>2026-04-06T06:40:18.999Z</time></trkpt><trkpt lat="44.98761119798235" lon="9.930660582895301"><ele>54.0</ele><time>2026-04-06T06:40:20.999Z</time></trkpt><trkpt lat="44.987547623496205" lon="9.930785503424925"><ele>54.0</ele><time>2026-04-06T06:41:21Z</time></trkpt><trkpt lat="44.98752870794288" lon="9.930890221737103"><ele>54.00000000000001</ele><time>2026-04-06T06:41:23Z</time></trkpt><trkpt lat="44.98752075725893" lon="9.931014999990627"><ele>54.00000000000001</ele><time>2026-04-06T06:41:25Z</time></trkpt><trkpt lat="44.987506243524294" lon="9.931159469045905"><ele>54.0</ele><time>2026-04-06T06:41:27Z</time></trkpt><trkpt lat="44.98748646870837" lon="9.931314284989915"><ele>54.0</ele><time>2026-04-06T06:41:29Z</time></trkpt><trkpt lat="44.98747551138931" lon="9.931484506127902"><ele>53.800000000000004</ele><time>2026-04-06T06:41:31Z</time></trkpt><trkpt lat="44.98745790486301" lon="9.931657856917193"><ele>53.60000000000001</ele><time>2026-04-06T06:41:33Z</time></trkpt><trkpt lat="44.98744510322652" lon="9.931820366130827"><ele>53.4</ele><time>2026-04-06T06:41:35Z</time></trkpt><trkpt lat="44.98743335493141" lon="9.931969873455396"><ele>53.2</ele><time>2026-04-06T06:41:37Z</time></trkpt><trkpt lat="44.98741881476598" lon="9.93211240086088"><ele>53.0</ele><time>2026-04-06T06:41:39Z</time></trkpt><trkpt lat="44.987398015063974" lon="9.932242480045739"><ele>53.0</ele><time>2026-04-06T06:41:41Z</time></trkpt><trkpt lat="44.98734553840416" lon="9.93234269721977"><ele>53.0</ele><time>2026-04-06T06:41:43Z</time></trkpt><trkpt lat="44.98726918124922" lon="9.932391606351013"><ele>53.0</ele><time>2026-04-06T06:41:45Z</time></trkpt><trkpt lat="44.98719824945167" lon="9.932412600874578"><ele>53.0</ele><time>2026-04-06T06:41:46.999Z</time></trkpt><trkpt lat="44.98712876312175" lon="9.932422653436797"><ele>53.0</ele><time>2026-04-06T06:41:48.999Z</time></trkpt><trkpt lat="44.98706183410206" lon="9.932434669039012"><ele>53.0</ele><time>2026-04-06T06:41:50.999Z</time></trkpt><trkpt lat="44.986995965245086" lon="9.93245101954864"><ele>53.0</ele><time>2026-04-06T06:41:52.999Z</time></trkpt><trkpt lat="44.986925590383144" lon="9.932458847689423"><ele>53.0</ele><time>2026-04-06T06:41:54.999Z</time></trkpt><trkpt lat="44.98685877657108" lon="9.932488995380808"><ele>53.0</ele><time>2026-04-06T06:41:56.999Z</time></trkpt><trkpt lat="44.986785352280215" lon="9.93249608765139"><ele>53.0</ele><time>2026-04-06T06:41:58.999Z</time></trkpt><trkpt lat="44.986710329587275" lon="9.932504514384934"><ele>53.0</ele><time>2026-04-06T06:42:00.999Z</time></trkpt><trkpt lat="44.98663643809365" lon="9.93251866711952"><ele>53.0</ele><time>2026-04-06T06:42:02.999Z</time></trkpt><trkpt lat="44.9865646620189" lon="9.932546923722935"><ele>53.0</ele><time>2026-04-06T06:42:04.999Z</time></trkpt><trkpt lat="44.98649751421323" lon="9.932595625414175"><ele>53.0</ele><time>2026-04-06T06:42:06.999Z</time></trkpt><trkpt lat="44.9864406075674" lon="9.932647124830076"><ele>53.0</ele><time>2026-04-06T06:42:08.999Z</time></trkpt><trkpt lat="44.98638177222585" lon="9.932698881463024"><ele>53.0</ele><time>2026-04-06T06:42:10.999Z</time></trkpt><trkpt lat="44.98632305949429" lon="9.932763563761482"><ele>53.0</ele><time>2026-04-06T06:42:12.999Z</time></trkpt><trkpt lat="44.98627189260078" lon="9.932841375809794"><ele>53.0</ele><time>2026-04-06T06:42:14.999Z</time></trkpt><trkpt lat="44.98621972562311" lon="9.93292104727519"><ele>53.0</ele><time>2026-04-06T06:42:16.999Z</time></trkpt><trkpt lat="44.98617062111828" lon="9.933006001556569"><ele>53.0</ele><time>2026-04-06T06:42:18.999Z</time></trkpt><trkpt lat="44.986122888234235" lon="9.93308533146276"><ele>53.0</ele><time>2026-04-06T06:42:20.999Z</time></trkpt><trkpt lat="44.98607243299912" lon="9.93316084725068"><ele>53.0</ele><time>2026-04-06T06:42:22.999Z</time></trkpt><trkpt lat="44.98601042101267" lon="9.933234306032857"><ele>53.0</ele><time>2026-04-06T06:42:24.999Z</time></trkpt><trkpt lat="44.98593515169078" lon="9.933299830598548"><ele>53.0</ele><time>2026-04-06T06:42:26.999Z</time></trkpt><trkpt lat="44.98584931790196" lon="9.933360782153411"><ele>53.0</ele><time>2026-04-06T06:42:28.999Z</time></trkpt><trkpt lat="44.98575875676348" lon="9.933415515459952"><ele>53.0</ele><time>2026-04-06T06:42:30.999Z</time></trkpt><trkpt lat="44.98566114686463" lon="9.933461796022792"><ele>53.5</ele><time>2026-04-06T06:42:32.999Z</time></trkpt><trkpt lat="44.98555824065217" lon="9.933524159299422"><ele>54.0</ele><time>2026-04-06T06:42:34.999Z</time></trkpt><trkpt lat="44.98544893461759" lon="9.93358731068733"><ele>54.5</ele><time>2026-04-06T06:42:36.999Z</time></trkpt><trkpt lat="44.98534008586442" lon="9.93365154989595"><ele>55.0</ele><time>2026-04-06T06:42:38.999Z</time></trkpt><trkpt lat="44.98522459523024" lon="9.93370887526009"><ele>54.99999999999999</ele><time>2026-04-06T06:42:40.999Z</time></trkpt><trkpt lat="44.98510968322848" lon="9.933774375612867"><ele>55.0</ele><time>2026-04-06T06:42:42.999Z</time></trkpt><trkpt lat="44.98499094351962" lon="9.933829933936746"><ele>55.0</ele><time>2026-04-06T06:42:44.999Z</time></trkpt><trkpt lat="44.98493016927654" lon="9.933855335202352"><ele>55.0</ele><time>2026-04-06T06:42:45.998Z</time></trkpt><trkpt lat="44.98486661912659" lon="9.933880731662711"><ele>54.99999999999999</ele><time>2026-04-06T06:42:46.998Z</time></trkpt><trkpt lat="44.98480441172878" lon="9.933904807588366"><ele>55.0</ele><time>2026-04-06T06:42:47.998Z</time></trkpt><trkpt lat="44.98474220224284" lon="9.933926103418807"><ele>54.99999999999999</ele><time>2026-04-06T06:42:48.998Z</time></trkpt><trkpt lat="44.98467599200832" lon="9.93395225147034"><ele>55.0</ele><time>2026-04-06T06:42:49.998Z</time></trkpt><trkpt lat="44.98461135159956" lon="9.933973170821954"><ele>55.0</ele><time>2026-04-06T06:42:50.998Z</time></trkpt><trkpt lat="44.98454650110806" lon="9.93399692073008"><ele>55.0</ele><time>2026-04-06T06:42:51.998Z</time></trkpt><trkpt lat="44.984482316302476" lon="9.934017195907373"><ele>55.0</ele><time>2026-04-06T06:42:52.998Z</time></trkpt><trkpt lat="44.984417723906354" lon="9.93403516279456"><ele>54.99999999999999</ele><time>2026-04-06T06:42:53.998Z</time></trkpt><trkpt lat="44.984352444605804" lon="9.934059668407802"><ele>55.0</ele><time>2026-04-06T06:42:54.998Z</time></trkpt><trkpt lat="44.98428717981669" lon="9.934083138449788"><ele>54.99999999999999</ele><time>2026-04-06T06:42:55.998Z</time></trkpt><trkpt lat="44.984222040557334" lon="9.93410308684231"><ele>55.0</ele><time>2026-04-06T06:42:56.998Z</time></trkpt><trkpt lat="44.984154589125886" lon="9.93412036016841"><ele>55.0</ele><time>2026-04-06T06:42:57.998Z</time></trkpt><trkpt lat="44.98408846293579" lon="9.934136630177333"><ele>55.0</ele><time>2026-04-06T06:42:58.998Z</time></trkpt><trkpt lat="44.98402079448901" lon="9.934155339138023"><ele>55.0</ele><time>2026-04-06T06:42:59.998Z</time></trkpt><trkpt lat="44.98395378519998" lon="9.934173994061723"><ele>54.99999999999999</ele><time>2026-04-06T06:43:00.998Z</time></trkpt><trkpt lat="44.983886291054716" lon="9.934190618813926"><ele>55.0</ele><time>2026-04-06T06:43:01.998Z</time></trkpt><trkpt lat="44.983820480638634" lon="9.934211474224517"><ele>54.57142857142857</ele><time>2026-04-06T06:43:02.998Z</time></trkpt><trkpt lat="44.98375434122289" lon="9.934231821641392"><ele>54.14285714285714</ele><time>2026-04-06T06:43:03.998Z</time></trkpt><trkpt lat="44.983686464515436" lon="9.93425119155741"><ele>53.71428571428571</ele><time>2026-04-06T06:43:04.998Z</time></trkpt><trkpt lat="44.98361992907395" lon="9.934273643751071"><ele>53.285714285714285</ele><time>2026-04-06T06:43:05.998Z</time></trkpt><trkpt lat="44.98355386485468" lon="9.934297026040163"><ele>52.85714285714286</ele><time>2026-04-06T06:43:06.998Z</time></trkpt><trkpt lat="44.9834881867244" lon="9.93431983903846"><ele>52.42857142857142</ele><time>2026-04-06T06:43:07.998Z</time></trkpt><trkpt lat="44.98342110220756" lon="9.934339225006955"><ele>52.0</ele><time>2026-04-06T06:43:08.998Z</time></trkpt><trkpt lat="44.98335455056987" lon="9.934360633633215"><ele>52.14285714285714</ele><time>2026-04-06T06:43:09.998Z</time></trkpt><trkpt lat="44.983288747012324" lon="9.934381810863766"><ele>52.28571428571429</ele><time>2026-04-06T06:43:10.998Z</time></trkpt><trkpt lat="44.983222573909515" lon="9.934404378554385"><ele>52.42857142857143</ele><time>2026-04-06T06:43:11.998Z</time></trkpt><trkpt lat="44.983155754237664" lon="9.934427129719925"><ele>52.57142857142857</ele><time>2026-04-06T06:43:12.998Z</time></trkpt><trkpt lat="44.983091650360336" lon="9.934451633426875"><ele>52.71428571428571</ele><time>2026-04-06T06:43:13.998Z</time></trkpt><trkpt lat="44.98302500873646" lon="9.93447699595311"><ele>52.85714285714286</ele><time>2026-04-06T06:43:14.998Z</time></trkpt><trkpt lat="44.98295846707828" lon="9.93450508374512"><ele>53.0</ele><time>2026-04-06T06:43:15.998Z</time></trkpt><trkpt lat="44.982893415491034" lon="9.934533056030737"><ele>53.0</ele><time>2026-04-06T06:43:16.998Z</time></trkpt><trkpt lat="44.982827136127305" lon="9.934558650216088"><ele>53.0</ele><time>2026-04-06T06:43:17.998Z</time></trkpt><trkpt lat="44.98276224972975" lon="9.93458576449288"><ele>53.0</ele><time>2026-04-06T06:43:18.998Z</time></trkpt><trkpt lat="44.982696226502775" lon="9.934614387717698"><ele>53.0</ele><time>2026-04-06T06:43:19.998Z</time></trkpt><trkpt lat="44.98263228891192" lon="9.93464742953462"><ele>53.0</ele><time>2026-04-06T06:43:20.998Z</time></trkpt><trkpt lat="44.982567993450076" lon="9.934679425354435"><ele>53.0</ele><time>2026-04-06T06:43:22Z</time></trkpt><trkpt lat="44.982502801403015" lon="9.934705003584234"><ele>53.0</ele><time>2026-04-06T06:43:23Z</time></trkpt><trkpt lat="44.982437325304375" lon="9.934734968713952"><ele>52.714285714285715</ele><time>2026-04-06T06:43:24Z</time></trkpt><trkpt lat="44.98237095945977" lon="9.934764496203913"><ele>52.42857142857142</ele><time>2026-04-06T06:43:25Z</time></trkpt><trkpt lat="44.98230498042803" lon="9.934794106009628"><ele>52.14285714285714</ele><time>2026-04-06T06:43:26Z</time></trkpt><trkpt lat="44.98223782149996" lon="9.934825096062514"><ele>51.85714285714286</ele><time>2026-04-06T06:43:27Z</time></trkpt><trkpt lat="44.98217105474458" lon="9.93485352179162"><ele>51.57142857142857</ele><time>2026-04-06T06:43:28Z</time></trkpt><trkpt lat="44.982103492986894" lon="9.934882703822405"><ele>51.285714285714285</ele><time>2026-04-06T06:43:29Z</time></trkpt><trkpt lat="44.98203424749554" lon="9.9349103174798"><ele>51.0</ele><time>2026-04-06T06:43:30Z</time></trkpt><trkpt lat="44.98196783472303" lon="9.934940996957069"><ele>51.0</ele><time>2026-04-06T06:43:31Z</time></trkpt><trkpt lat="44.981899228687375" lon="9.934969239669924"><ele>51.0</ele><time>2026-04-06T06:43:32Z</time></trkpt><trkpt lat="44.98183340773423" lon="9.93499890710338"><ele>51.0</ele><time>2026-04-06T06:43:33Z</time></trkpt><trkpt lat="44.98176469386376" lon="9.935025100323504"><ele>51.0</ele><time>2026-04-06T06:43:34Z</time></trkpt><trkpt lat="44.98169601130573" lon="9.935049306994229"><ele>51.0</ele><time>2026-04-06T06:43:35Z</time></trkpt><trkpt lat="44.98162730389398" lon="9.935072941392754"><ele>51.0</ele><time>2026-04-06T06:43:36Z</time></trkpt><trkpt lat="44.981558946283585" lon="9.935101079531737"><ele>51.0</ele><time>2026-04-06T06:43:37Z</time></trkpt><trkpt lat="44.981487902642925" lon="9.93512418638874"><ele>51.142857142857146</ele><time>2026-04-06T06:43:38Z</time></trkpt><trkpt lat="44.981417952619125" lon="9.935141510466694"><ele>51.28571428571429</ele><time>2026-04-06T06:43:39Z</time></trkpt><trkpt lat="44.981347426761054" lon="9.935158185679002"><ele>51.42857142857143</ele><time>2026-04-06T06:43:40Z</time></trkpt><trkpt lat="44.98127766739026" lon="9.935166021382223"><ele>51.57142857142857</ele><time>2026-04-06T06:43:41Z</time></trkpt><trkpt lat="44.98120659601842" lon="9.935171049395684"><ele>51.714285714285715</ele><time>2026-04-06T06:43:42Z</time></trkpt><trkpt lat="44.98113662537351" lon="9.935168236945607"><ele>51.857142857142854</ele><time>2026-04-06T06:43:43Z</time></trkpt><trkpt lat="44.9810653986443" lon="9.935163026606823"><ele>52.0</ele><time>2026-04-06T06:43:44Z</time></trkpt><trkpt lat="44.9809930302867" lon="9.935154693793422"><ele>52.0</ele><time>2026-04-06T06:43:45Z</time></trkpt><trkpt lat="44.980921328712064" lon="9.935145662066962"><ele>52.0</ele><time>2026-04-06T06:43:46Z</time></trkpt><trkpt lat="44.98085024971595" lon="9.93513841608779"><ele>52.0</ele><time>2026-04-06T06:43:47Z</time></trkpt><trkpt lat="44.98077879766151" lon="9.935129066226933"><ele>52.0</ele><time>2026-04-06T06:43:48Z</time></trkpt><trkpt lat="44.98070801974798" lon="9.935120410226205"><ele>52.0</ele><time>2026-04-06T06:43:49Z</time></trkpt><trkpt lat="44.98063708226547" lon="9.93510816714848"><ele>52.0</ele><time>2026-04-06T06:43:50Z</time></trkpt><trkpt lat="44.98056716021305" lon="9.93509685610287"><ele>52.0</ele><time>2026-04-06T06:43:51Z</time></trkpt><trkpt lat="44.98049840015661" lon="9.935086451459487"><ele>52.42857142857142</ele><time>2026-04-06T06:43:51.999Z</time></trkpt><trkpt lat="44.980428063823915" lon="9.935077664044524"><ele>52.85714285714286</ele><time>2026-04-06T06:43:52.999Z</time></trkpt><trkpt lat="44.98035947003631" lon="9.935062704553031"><ele>53.285714285714285</ele><time>2026-04-06T06:43:53.999Z</time></trkpt><trkpt lat="44.980291116763624" lon="9.935048704383043"><ele>53.71428571428571</ele><time>2026-04-06T06:43:54.999Z</time></trkpt><trkpt lat="44.98022257696382" lon="9.935036160315692"><ele>54.14285714285714</ele><time>2026-04-06T06:43:55.999Z</time></trkpt><trkpt lat="44.98015488938616" lon="9.935022029562157"><ele>54.57142857142857</ele><time>2026-04-06T06:43:56.999Z</time></trkpt><trkpt lat="44.980086789175544" lon="9.935007134194985"><ele>55.0</ele><time>2026-04-06T06:43:57.999Z</time></trkpt><trkpt lat="44.98001941082462" lon="9.934992641763193"><ele>54.99999999999999</ele><time>2026-04-06T06:43:58.999Z</time></trkpt><trkpt lat="44.97994975635015" lon="9.93497814400441"><ele>55.0</ele><time>2026-04-06T06:43:59.999Z</time></trkpt><trkpt lat="44.97988170783443" lon="9.9349629588445"><ele>55.0</ele><time>2026-04-06T06:44:00.999Z</time></trkpt><trkpt lat="44.979813603631676" lon="9.93494561401995"><ele>55.0</ele><time>2026-04-06T06:44:01.999Z</time></trkpt><trkpt lat="44.979746658802696" lon="9.93492914031518"><ele>55.0</ele><time>2026-04-06T06:44:02.999Z</time></trkpt><trkpt lat="44.979677265559694" lon="9.934910503320346"><ele>54.99999999999999</ele><time>2026-04-06T06:44:03.999Z</time></trkpt><trkpt lat="44.97960889559369" lon="9.934891465706727"><ele>55.0</ele><time>2026-04-06T06:44:04.999Z</time></trkpt><trkpt lat="44.979541571234016" lon="9.934874300282864"><ele>54.99999999999999</ele><time>2026-04-06T06:44:05.999Z</time></trkpt><trkpt lat="44.97946888199741" lon="9.934848725793078"><ele>55.0</ele><time>2026-04-06T06:44:06.999Z</time></trkpt><trkpt lat="44.97939729019321" lon="9.934827493792849"><ele>55.0</ele><time>2026-04-06T06:44:07.999Z</time></trkpt><trkpt lat="44.97932653189376" lon="9.934810058430239"><ele>55.0</ele><time>2026-04-06T06:44:08.999Z</time></trkpt><trkpt lat="44.9792526427286" lon="9.934786893111712"><ele>55.0</ele><time>2026-04-06T06:44:09.999Z</time></trkpt><trkpt lat="44.97918105194359" lon="9.93477047026294"><ele>54.99999999999999</ele><time>2026-04-06T06:44:10.999Z</time></trkpt><trkpt lat="44.979106147443744" lon="9.934747944651392"><ele>55.0</ele><time>2026-04-06T06:44:11.999Z</time></trkpt><trkpt lat="44.979032754505376" lon="9.93473443550344"><ele>54.99999999999999</ele><time>2026-04-06T06:44:12.999Z</time></trkpt><trkpt lat="44.978956358146924" lon="9.934714297835745"><ele>55.0</ele><time>2026-04-06T06:44:13.999Z</time></trkpt><trkpt lat="44.978882240171195" lon="9.934694030534354"><ele>55.0</ele><time>2026-04-06T06:44:14.999Z</time></trkpt><trkpt lat="44.97880649904779" lon="9.934667648823952"><ele>55.0</ele><time>2026-04-06T06:44:15.999Z</time></trkpt><trkpt lat="44.97873140594832" lon="9.934643985889346"><ele>54.99999999999999</ele><time>2026-04-06T06:44:16.999Z</time></trkpt><trkpt lat="44.97865676316857" lon="9.934625801654802"><ele>55.0</ele><time>2026-04-06T06:44:17.999Z</time></trkpt><trkpt lat="44.978584401441815" lon="9.934605491129265"><ele>54.99999999999999</ele><time>2026-04-06T06:44:18.999Z</time></trkpt><trkpt lat="44.97851257632779" lon="9.934586961337335"><ele>55.0</ele><time>2026-04-06T06:44:19.999Z</time></trkpt><trkpt lat="44.97844150308889" lon="9.934566185240586"><ele>55.0</ele><time>2026-04-06T06:44:20.999Z</time></trkpt><trkpt lat="44.978371679883" lon="9.934543538237644"><ele>55.0</ele><time>2026-04-06T06:44:21.999Z</time></trkpt><trkpt lat="44.97830173820208" lon="9.934523065740878"><ele>55.0</ele><time>2026-04-06T06:44:22.999Z</time></trkpt><trkpt lat="44.97823213641904" lon="9.934503100878931"><ele>54.99999999999999</ele><time>2026-04-06T06:44:23.999Z</time></trkpt><trkpt lat="44.97816230044384" lon="9.934481975046229"><ele>55.0</ele><time>2026-04-06T06:44:24.999Z</time></trkpt><trkpt lat="44.97809195856619" lon="9.93445938073737"><ele>54.42857142857142</ele><time>2026-04-06T06:44:25.999Z</time></trkpt><trkpt lat="44.978021388577986" lon="9.934436601758568"><ele>53.857142857142854</ele><time>2026-04-06T06:44:26.999Z</time></trkpt><trkpt lat="44.9779498048136" lon="9.934414249268409"><ele>53.285714285714285</ele><time>2026-04-06T06:44:27.999Z</time></trkpt><trkpt lat="44.977880069988196" lon="9.934389870685237"><ele>52.71428571428571</ele><time>2026-04-06T06:44:28.999Z</time></trkpt><trkpt lat="44.97780755043366" lon="9.93436982533922"><ele>52.142857142857146</ele><time>2026-04-06T06:44:29.999Z</time></trkpt><trkpt lat="44.977737804112415" lon="9.93434800421033"><ele>51.57142857142857</ele><time>2026-04-06T06:44:30.999Z</time></trkpt><trkpt lat="44.97766686896385" lon="9.934329085432925"><ele>51.0</ele><time>2026-04-06T06:44:31.999Z</time></trkpt><trkpt lat="44.977596761926094" lon="9.934305982032852"><ele>51.0</ele><time>2026-04-06T06:44:32.999Z</time></trkpt><trkpt lat="44.97752514835265" lon="9.934283796844706"><ele>51.0</ele><time>2026-04-06T06:44:33.999Z</time></trkpt><trkpt lat="44.97745430371465" lon="9.934262121390587"><ele>51.0</ele><time>2026-04-06T06:44:34.999Z</time></trkpt><trkpt lat="44.977383274954995" lon="9.934241297198584"><ele>51.0</ele><time>2026-04-06T06:44:35.999Z</time></trkpt><trkpt lat="44.977312334690964" lon="9.93422228071502"><ele>51.0</ele><time>2026-04-06T06:44:36.999Z</time></trkpt><trkpt lat="44.97724183968142" lon="9.934200531177432"><ele>51.0</ele><time>2026-04-06T06:44:37.999Z</time></trkpt><trkpt lat="44.9771704811603" lon="9.934177903624507"><ele>51.0</ele><time>2026-04-06T06:44:38.999Z</time></trkpt><trkpt lat="44.977099179245336" lon="9.934156249016986"><ele>51.57142857142857</ele><time>2026-04-06T06:44:39.999Z</time></trkpt><trkpt lat="44.97702970148977" lon="9.934140088232335"><ele>52.142857142857146</ele><time>2026-04-06T06:44:40.999Z</time></trkpt><trkpt lat="44.97695748191343" lon="9.934114604885186"><ele>52.71428571428571</ele><time>2026-04-06T06:44:41.999Z</time></trkpt><trkpt lat="44.97688575505214" lon="9.934095130301934"><ele>53.285714285714285</ele><time>2026-04-06T06:44:42.999Z</time></trkpt><trkpt lat="44.97681537418737" lon="9.934076153736736"><ele>53.857142857142854</ele><time>2026-04-06T06:44:43.999Z</time></trkpt><trkpt lat="44.97674681865573" lon="9.934055571725962"><ele>54.42857142857142</ele><time>2026-04-06T06:44:44.999Z</time></trkpt><trkpt lat="44.97667412928069" lon="9.934034777139738"><ele>55.0</ele><time>2026-04-06T06:44:45.999Z</time></trkpt><trkpt lat="44.976604249744994" lon="9.934009493910464"><ele>54.99999999999999</ele><time>2026-04-06T06:44:46.999Z</time></trkpt><trkpt lat="44.97653585861784" lon="9.934000929951607"><ele>55.0</ele><time>2026-04-06T06:44:47.999Z</time></trkpt><trkpt lat="44.976464117405754" lon="9.933973972518759"><ele>55.0</ele><time>2026-04-06T06:44:48.999Z</time></trkpt><trkpt lat="44.976394700120764" lon="9.933950716912602"><ele>55.0</ele><time>2026-04-06T06:44:49.998Z</time></trkpt><trkpt lat="44.9763251754267" lon="9.933927473546241"><ele>55.0</ele><time>2026-04-06T06:44:50.998Z</time></trkpt><trkpt lat="44.97625605177782" lon="9.933907285747871"><ele>54.99999999999999</ele><time>2026-04-06T06:44:51.998Z</time></trkpt><trkpt lat="44.97618409475658" lon="9.933885950250659"><ele>55.0</ele><time>2026-04-06T06:44:52.998Z</time></trkpt><trkpt lat="44.97611703605937" lon="9.93386682644131"><ele>54.99999999999999</ele><time>2026-04-06T06:44:53.998Z</time></trkpt><trkpt lat="44.97604571713128" lon="9.93384337421895"><ele>55.0</ele><time>2026-04-06T06:44:54.998Z</time></trkpt><trkpt lat="44.975977679841165" lon="9.933830293276205"><ele>55.0</ele><time>2026-04-06T06:44:55.998Z</time></trkpt><trkpt lat="44.975907002625945" lon="9.933807123751246"><ele>55.0</ele><time>2026-04-06T06:44:56.998Z</time></trkpt><trkpt lat="44.97583638451015" lon="9.933781359357052"><ele>55.0</ele><time>2026-04-06T06:44:57.998Z</time></trkpt><trkpt lat="44.97576927003653" lon="9.933763110299342"><ele>54.99999999999999</ele><time>2026-04-06T06:44:58.998Z</time></trkpt><trkpt lat="44.975697617387134" lon="9.933742563925419"><ele>55.0</ele><time>2026-04-06T06:44:59.998Z</time></trkpt><trkpt lat="44.97562865972143" lon="9.933721218530218"><ele>54.71428571428571</ele><time>2026-04-06T06:45:00.998Z</time></trkpt><trkpt lat="44.97556006385013" lon="9.93369438748716"><ele>54.42857142857143</ele><time>2026-04-06T06:45:01.998Z</time></trkpt><trkpt lat="44.97548972524969" lon="9.933666334954246"><ele>54.14285714285714</ele><time>2026-04-06T06:45:02.998Z</time></trkpt><trkpt lat="44.97542048039894" lon="9.933644891068589"><ele>53.857142857142854</ele><time>2026-04-06T06:45:03.998Z</time></trkpt><trkpt lat="44.97534768893771" lon="9.93362414001428"><ele>53.57142857142857</ele><time>2026-04-06T06:45:04.998Z</time></trkpt><trkpt lat="44.97527869201977" lon="9.933600743887325"><ele>53.285714285714285</ele><time>2026-04-06T06:45:05.998Z</time></trkpt><trkpt lat="44.975207038978546" lon="9.933585810584198"><ele>53.0</ele><time>2026-04-06T06:45:06.998Z</time></trkpt><trkpt lat="44.97513925404777" lon="9.933560241881704"><ele>53.0</ele><time>2026-04-06T06:45:07.998Z</time></trkpt><trkpt lat="44.975070649001545" lon="9.933541006860537"><ele>53.0</ele><time>2026-04-06T06:45:08.998Z</time></trkpt><trkpt lat="44.975001871740645" lon="9.933517233435358"><ele>53.0</ele><time>2026-04-06T06:45:09.998Z</time></trkpt><trkpt lat="44.974933306187424" lon="9.933501537887263"><ele>53.0</ele><time>2026-04-06T06:45:10.998Z</time></trkpt><trkpt lat="44.97486534894709" lon="9.9334740887153"><ele>53.0</ele><time>2026-04-06T06:45:11.998Z</time></trkpt><trkpt lat="44.97479873112059" lon="9.933452861394699"><ele>53.0</ele><time>2026-04-06T06:45:12.998Z</time></trkpt><trkpt lat="44.97472736924011" lon="9.933435217859005"><ele>53.0</ele><time>2026-04-06T06:45:13.998Z</time></trkpt><trkpt lat="44.974656036580356" lon="9.93341108545788"><ele>53.0</ele><time>2026-04-06T06:45:14.998Z</time></trkpt><trkpt lat="44.97458789666187" lon="9.933394097586561"><ele>53.0</ele><time>2026-04-06T06:45:15.998Z</time></trkpt><trkpt lat="44.97451777508272" lon="9.93337189054073"><ele>53.0</ele><time>2026-04-06T06:45:16.998Z</time></trkpt><trkpt lat="44.97445020501975" lon="9.933350431649664"><ele>53.0</ele><time>2026-04-06T06:45:17.998Z</time></trkpt><trkpt lat="44.97438089693209" lon="9.93332894192336"><ele>53.0</ele><time>2026-04-06T06:45:18.998Z</time></trkpt><trkpt lat="44.9743107424381" lon="9.933307903713608"><ele>53.0</ele><time>2026-04-06T06:45:19.998Z</time></trkpt><trkpt lat="44.9742424813281" lon="9.933290528297253"><ele>53.0</ele><time>2026-04-06T06:45:20.998Z</time></trkpt><trkpt lat="44.97417346601448" lon="9.933266739542711"><ele>53.285714285714285</ele><time>2026-04-06T06:45:21.998Z</time></trkpt><trkpt lat="44.974105808571736" lon="9.933246576905296"><ele>53.57142857142857</ele><time>2026-04-06T06:45:22.998Z</time></trkpt><trkpt lat="44.974036448944666" lon="9.93322561194985"><ele>53.857142857142854</ele><time>2026-04-06T06:45:23.998Z</time></trkpt><trkpt lat="44.97396819022313" lon="9.933204187805579"><ele>54.14285714285714</ele><time>2026-04-06T06:45:24.998Z</time></trkpt><trkpt lat="44.97390021174783" lon="9.933183463378597"><ele>54.42857142857143</ele><time>2026-04-06T06:45:25.998Z</time></trkpt><trkpt lat="44.97383158804073" lon="9.933160970720403"><ele>54.71428571428571</ele><time>2026-04-06T06:45:26.998Z</time></trkpt><trkpt lat="44.97376182342813" lon="9.933146175782165"><ele>55.0</ele><time>2026-04-06T06:45:28Z</time></trkpt><trkpt lat="44.973697385484556" lon="9.93313061556426"><ele>54.99999999999999</ele><time>2026-04-06T06:45:29Z</time></trkpt><trkpt lat="44.97357556317998" lon="9.933088193216676"><ele>55.0</ele><time>2026-04-06T06:45:31Z</time></trkpt><trkpt lat="44.97351193023641" lon="9.933071846429554"><ele>55.0</ele><time>2026-04-06T06:45:32Z</time></trkpt><trkpt lat="44.97344834016732" lon="9.93305407272134"><ele>55.0</ele><time>2026-04-06T06:45:33Z</time></trkpt><trkpt lat="44.97338192442197" lon="9.933032166551074"><ele>54.99999999999999</ele><time>2026-04-06T06:45:34Z</time></trkpt><trkpt lat="44.97331569507731" lon="9.933013416285"><ele>55.0</ele><time>2026-04-06T06:45:35Z</time></trkpt><trkpt lat="44.97325074889004" lon="9.932995951790081"><ele>54.99999999999999</ele><time>2026-04-06T06:45:36Z</time></trkpt><trkpt lat="44.973185299858805" lon="9.932975745509081"><ele>55.0</ele><time>2026-04-06T06:45:37Z</time></trkpt><trkpt lat="44.97311967905194" lon="9.932957390621045"><ele>55.0</ele><time>2026-04-06T06:45:38Z</time></trkpt><trkpt lat="44.97305444850158" lon="9.932937764341766"><ele>55.0</ele><time>2026-04-06T06:45:39Z</time></trkpt><trkpt lat="44.97298986296902" lon="9.93291537351078"><ele>55.0</ele><time>2026-04-06T06:45:40Z</time></trkpt><trkpt lat="44.97292448210981" lon="9.932894724384811"><ele>54.99999999999999</ele><time>2026-04-06T06:45:41Z</time></trkpt><trkpt lat="44.97286150772792" lon="9.932873635085622"><ele>55.0</ele><time>2026-04-06T06:45:42Z</time></trkpt><trkpt lat="44.97279551281537" lon="9.932855554281145"><ele>54.99999999999999</ele><time>2026-04-06T06:45:43Z</time></trkpt><trkpt lat="44.972729726221985" lon="9.932838189003844"><ele>55.0</ele><time>2026-04-06T06:45:44Z</time></trkpt><trkpt lat="44.972663526676804" lon="9.932819116820626"><ele>55.0</ele><time>2026-04-06T06:45:45Z</time></trkpt><trkpt lat="44.97259846648957" lon="9.932798411622128"><ele>55.0</ele><time>2026-04-06T06:45:46Z</time></trkpt><trkpt lat="44.972533289486385" lon="9.93277820940346"><ele>55.0</ele><time>2026-04-06T06:45:47Z</time></trkpt><trkpt lat="44.972467451132005" lon="9.93276047846155"><ele>54.99999999999999</ele><time>2026-04-06T06:45:48Z</time></trkpt><trkpt lat="44.97240215739887" lon="9.932740526159042"><ele>55.0</ele><time>2026-04-06T06:45:49Z</time></trkpt><trkpt lat="44.9723358538033" lon="9.93271816278549"><ele>55.14285714285714</ele><time>2026-04-06T06:45:50Z</time></trkpt><trkpt lat="44.972271551986296" lon="9.932697958854478"><ele>55.285714285714285</ele><time>2026-04-06T06:45:51Z</time></trkpt><trkpt lat="44.97220466384148" lon="9.93268071508005"><ele>55.42857142857143</ele><time>2026-04-06T06:45:52Z</time></trkpt><trkpt lat="44.97213917989471" lon="9.932660154188612"><ele>55.57142857142857</ele><time>2026-04-06T06:45:53Z</time></trkpt><trkpt lat="44.9720724075012" lon="9.932639440047284"><ele>55.714285714285715</ele><time>2026-04-06T06:45:54Z</time></trkpt><trkpt lat="44.972007060866204" lon="9.932617357434745"><ele>55.857142857142854</ele><time>2026-04-06T06:45:55Z</time></trkpt><trkpt lat="44.97193988773645" lon="9.9325970261844"><ele>56.0</ele><time>2026-04-06T06:45:55.999Z</time></trkpt><trkpt lat="44.97187288593867" lon="9.932574495199335"><ele>56.0</ele><time>2026-04-06T06:45:56.999Z</time></trkpt><trkpt lat="44.97180497167139" lon="9.932556548468254"><ele>56.0</ele><time>2026-04-06T06:45:57.999Z</time></trkpt><trkpt lat="44.97173717220799" lon="9.93253502755557"><ele>56.0</ele><time>2026-04-06T06:45:58.999Z</time></trkpt><trkpt lat="44.97166835144379" lon="9.932520729506557"><ele>56.0</ele><time>2026-04-06T06:45:59.999Z</time></trkpt><trkpt lat="44.97159765264309" lon="9.93250002086555"><ele>56.0</ele><time>2026-04-06T06:46:00.999Z</time></trkpt><trkpt lat="44.97153055886603" lon="9.9324791580034"><ele>56.0</ele><time>2026-04-06T06:46:01.999Z</time></trkpt><trkpt lat="44.971461152173426" lon="9.932458818335359"><ele>56.0</ele><time>2026-04-06T06:46:02.999Z</time></trkpt><trkpt lat="44.9713908531676" lon="9.932436595560608"><ele>55.714285714285715</ele><time>2026-04-06T06:46:03.999Z</time></trkpt><trkpt lat="44.971321662182184" lon="9.932413563141818"><ele>55.42857142857143</ele><time>2026-04-06T06:46:04.999Z</time></trkpt><trkpt lat="44.97125257430712" lon="9.932388989430864"><ele>55.14285714285714</ele><time>2026-04-06T06:46:05.999Z</time></trkpt><trkpt lat="44.97118433157223" lon="9.93236267604548"><ele>54.85714285714286</ele><time>2026-04-06T06:46:06.999Z</time></trkpt><trkpt lat="44.97111488290639" lon="9.932344758179008"><ele>54.57142857142857</ele><time>2026-04-06T06:46:07.999Z</time></trkpt><trkpt lat="44.97104582172278" lon="9.932321506656416"><ele>54.285714285714285</ele><time>2026-04-06T06:46:08.999Z</time></trkpt><trkpt lat="44.97097623266279" lon="9.932298012532918"><ele>54.0</ele><time>2026-04-06T06:46:09.999Z</time></trkpt><trkpt lat="44.97090932178273" lon="9.932276859867242"><ele>54.0</ele><time>2026-04-06T06:46:10.999Z</time></trkpt><trkpt lat="44.9708416687612" lon="9.932256774102674"><ele>54.0</ele><time>2026-04-06T06:46:11.999Z</time></trkpt><trkpt lat="44.97077259703464" lon="9.932240994466166"><ele>54.0</ele><time>2026-04-06T06:46:12.999Z</time></trkpt><trkpt lat="44.97070499034351" lon="9.932220603578706"><ele>54.0</ele><time>2026-04-06T06:46:13.999Z</time></trkpt><trkpt lat="44.97063664651285" lon="9.932200283787036"><ele>54.0</ele><time>2026-04-06T06:46:14.999Z</time></trkpt><trkpt lat="44.970567140434405" lon="9.932179946739165"><ele>54.0</ele><time>2026-04-06T06:46:15.999Z</time></trkpt><trkpt lat="44.97049788632073" lon="9.932161599635632"><ele>54.0</ele><time>2026-04-06T06:46:16.999Z</time></trkpt><trkpt lat="44.97043038258874" lon="9.932142374026267"><ele>54.0</ele><time>2026-04-06T06:46:17.999Z</time></trkpt><trkpt lat="44.97036255329994" lon="9.932122735044688"><ele>54.0</ele><time>2026-04-06T06:46:18.999Z</time></trkpt><trkpt lat="44.970293864702825" lon="9.932095274356826"><ele>54.0</ele><time>2026-04-06T06:46:19.999Z</time></trkpt><trkpt lat="44.970224867759384" lon="9.932076305186419"><ele>54.0</ele><time>2026-04-06T06:46:20.999Z</time></trkpt><trkpt lat="44.97015765704364" lon="9.932055489116346"><ele>54.0</ele><time>2026-04-06T06:46:21.999Z</time></trkpt><trkpt lat="44.970087918671055" lon="9.932035711492835"><ele>54.0</ele><time>2026-04-06T06:46:22.999Z</time></trkpt><trkpt lat="44.970020801262635" lon="9.932012077260456"><ele>54.0</ele><time>2026-04-06T06:46:23.999Z</time></trkpt><trkpt lat="44.96995080948813" lon="9.931992486353224"><ele>54.285714285714285</ele><time>2026-04-06T06:46:24.999Z</time></trkpt><trkpt lat="44.96988336818843" lon="9.931971091054265"><ele>54.57142857142857</ele><time>2026-04-06T06:46:25.999Z</time></trkpt><trkpt lat="44.96981518546331" lon="9.931953518270369"><ele>54.85714285714286</ele><time>2026-04-06T06:46:26.999Z</time></trkpt><trkpt lat="44.96974546695862" lon="9.931934433971707"><ele>55.14285714285714</ele><time>2026-04-06T06:46:27.999Z</time></trkpt><trkpt lat="44.96967813860885" lon="9.93191465954246"><ele>55.42857142857143</ele><time>2026-04-06T06:46:28.999Z</time></trkpt><trkpt lat="44.9696116321148" lon="9.931895519193791"><ele>55.714285714285715</ele><time>2026-04-06T06:46:29.999Z</time></trkpt><trkpt lat="44.969543676131885" lon="9.931874865286344"><ele>56.0</ele><time>2026-04-06T06:46:30.999Z</time></trkpt><trkpt lat="44.96947578512721" lon="9.93185327344832"><ele>56.0</ele><time>2026-04-06T06:46:31.999Z</time></trkpt><trkpt lat="44.9694093048077" lon="9.931837665820186"><ele>56.0</ele><time>2026-04-06T06:46:32.999Z</time></trkpt><trkpt lat="44.96934072298174" lon="9.931812355772431"><ele>56.0</ele><time>2026-04-06T06:46:33.999Z</time></trkpt><trkpt lat="44.969272921105464" lon="9.93179516236196"><ele>56.0</ele><time>2026-04-06T06:46:34.999Z</time></trkpt><trkpt lat="44.96920819707904" lon="9.931776624384355"><ele>56.0</ele><time>2026-04-06T06:46:35.999Z</time></trkpt><trkpt lat="44.969140462091104" lon="9.931758318412372"><ele>56.0</ele><time>2026-04-06T06:46:36.999Z</time></trkpt><trkpt lat="44.96907321843649" lon="9.931738543440702"><ele>56.0</ele><time>2026-04-06T06:46:37.999Z</time></trkpt><trkpt lat="44.96900646686597" lon="9.931717402260437"><ele>56.14285714285714</ele><time>2026-04-06T06:46:38.999Z</time></trkpt><trkpt lat="44.968938521668306" lon="9.931697131045691"><ele>56.285714285714285</ele><time>2026-04-06T06:46:39.999Z</time></trkpt><trkpt lat="44.968868373834034" lon="9.931677654908551"><ele>56.42857142857143</ele><time>2026-04-06T06:46:40.999Z</time></trkpt><trkpt lat="44.96880036385517" lon="9.931658836422997"><ele>56.57142857142857</ele><time>2026-04-06T06:46:41.999Z</time></trkpt><trkpt lat="44.96873365238651" lon="9.93163564016139"><ele>56.71428571428571</ele><time>2026-04-06T06:46:42.999Z</time></trkpt><trkpt lat="44.96866731832766" lon="9.93161217538915"><ele>56.857142857142854</ele><time>2026-04-06T06:46:43.999Z</time></trkpt><trkpt lat="44.96860066340088" lon="9.931589162570202"><ele>57.0</ele><time>2026-04-06T06:46:44.999Z</time></trkpt><trkpt lat="44.96853550459278" lon="9.931562634690316"><ele>57.0</ele><time>2026-04-06T06:46:45.999Z</time></trkpt><trkpt lat="44.96847251664722" lon="9.931527630133619"><ele>56.99999999999999</ele><time>2026-04-06T06:46:46.999Z</time></trkpt><trkpt lat="44.96840563001563" lon="9.931494957752536"><ele>57.0</ele><time>2026-04-06T06:46:47.999Z</time></trkpt><trkpt lat="44.9683400124505" lon="9.931464227405982"><ele>57.0</ele><time>2026-04-06T06:46:48.999Z</time></trkpt><trkpt lat="44.96827203871762" lon="9.931431762550401"><ele>56.99999999999999</ele><time>2026-04-06T06:46:49.999Z</time></trkpt><trkpt lat="44.96820722498308" lon="9.931398396784841"><ele>57.0</ele><time>2026-04-06T06:46:50.999Z</time></trkpt><trkpt lat="44.96814094368756" lon="9.931363511023877"><ele>57.0</ele><time>2026-04-06T06:46:51.999Z</time></trkpt><trkpt lat="44.96807474767711" lon="9.93133240445224"><ele>57.57142857142857</ele><time>2026-04-06T06:46:52.999Z</time></trkpt><trkpt lat="44.96800892500857" lon="9.931301803867717"><ele>58.14285714285714</ele><time>2026-04-06T06:46:53.998Z</time></trkpt><trkpt lat="44.96794240902279" lon="9.93127005485188"><ele>58.71428571428571</ele><time>2026-04-06T06:46:54.998Z</time></trkpt><trkpt lat="44.96787721155302" lon="9.931234048999514"><ele>59.28571428571428</ele><time>2026-04-06T06:46:55.998Z</time></trkpt><trkpt lat="44.96780711491004" lon="9.931199468752194"><ele>59.857142857142854</ele><time>2026-04-06T06:46:56.998Z</time></trkpt><trkpt lat="44.96773461651057" lon="9.93116539598482"><ele>60.428571428571416</ele><time>2026-04-06T06:46:57.998Z</time></trkpt><trkpt lat="44.96765989552335" lon="9.931123983309329"><ele>60.99999999999999</ele><time>2026-04-06T06:46:58.998Z</time></trkpt><trkpt lat="44.96758420913244" lon="9.9310869897107"><ele>60.83333333333333</ele><time>2026-04-06T06:46:59.998Z</time></trkpt><trkpt lat="44.96750623415855" lon="9.931048044439907"><ele>60.666666666666664</ele><time>2026-04-06T06:47:00.998Z</time></trkpt><trkpt lat="44.96742728410273" lon="9.931013544196663"><ele>60.5</ele><time>2026-04-06T06:47:01.998Z</time></trkpt><trkpt lat="44.9673478175539" lon="9.930973096433657"><ele>60.33333333333333</ele><time>2026-04-06T06:47:02.998Z</time></trkpt><trkpt lat="44.96726963443337" lon="9.930929662437844"><ele>60.166666666666664</ele><time>2026-04-06T06:47:03.998Z</time></trkpt><trkpt lat="44.967190636296586" lon="9.930889845084923"><ele>60.0</ele><time>2026-04-06T06:47:04.998Z</time></trkpt><trkpt lat="44.96711036474761" lon="9.930847938533647"><ele>60.166666666666664</ele><time>2026-04-06T06:47:05.998Z</time></trkpt><trkpt lat="44.96703339560429" lon="9.930803725536203"><ele>60.33333333333333</ele><time>2026-04-06T06:47:06.998Z</time></trkpt><trkpt lat="44.966957539350375" lon="9.930753784804526"><ele>60.5</ele><time>2026-04-06T06:47:07.998Z</time></trkpt><trkpt lat="44.966880247181855" lon="9.930700390209202"><ele>60.666666666666664</ele><time>2026-04-06T06:47:08.998Z</time></trkpt><trkpt lat="44.96680473083" lon="9.930651248093922"><ele>60.83333333333333</ele><time>2026-04-06T06:47:09.998Z</time></trkpt><trkpt lat="44.96673042051135" lon="9.930593952995313"><ele>61.0</ele><time>2026-04-06T06:47:10.998Z</time></trkpt><trkpt lat="44.9666535414859" lon="9.930542998970036"><ele>60.99999999999999</ele><time>2026-04-06T06:47:11.998Z</time></trkpt><trkpt lat="44.96657670506133" lon="9.930488592518405"><ele>61.0</ele><time>2026-04-06T06:47:12.998Z</time></trkpt><trkpt lat="44.96650031047368" lon="9.930438172855924"><ele>61.0</ele><time>2026-04-06T06:47:13.998Z</time></trkpt><trkpt lat="44.96642437567416" lon="9.930381276648442"><ele>61.0</ele><time>2026-04-06T06:47:14.998Z</time></trkpt><trkpt lat="44.966347883478704" lon="9.930328533215167"><ele>60.99999999999999</ele><time>2026-04-06T06:47:15.998Z</time></trkpt><trkpt lat="44.96627070050175" lon="9.930272182640934"><ele>61.0</ele><time>2026-04-06T06:47:16.998Z</time></trkpt><trkpt lat="44.96619426973045" lon="9.930221304186762"><ele>60.99999999999999</ele><time>2026-04-06T06:47:17.998Z</time></trkpt><trkpt lat="44.9661201709886" lon="9.930164665285895"><ele>61.0</ele><time>2026-04-06T06:47:18.998Z</time></trkpt><trkpt lat="44.96604530096753" lon="9.930110717631306"><ele>61.0</ele><time>2026-04-06T06:47:19.998Z</time></trkpt><trkpt lat="44.96596858076385" lon="9.930059816425368"><ele>61.0</ele><time>2026-04-06T06:47:20.998Z</time></trkpt><trkpt lat="44.96589182377527" lon="9.930008635406988"><ele>60.99999999999999</ele><time>2026-04-06T06:47:21.998Z</time></trkpt><trkpt lat="44.96582140259377" lon="9.92993372209097"><ele>61.0</ele><time>2026-04-06T06:47:22.998Z</time></trkpt><trkpt lat="44.96574608648604" lon="9.929881226451354"><ele>60.83333333333333</ele><time>2026-04-06T06:47:23.998Z</time></trkpt><trkpt lat="44.96567014304904" lon="9.929828293556671"><ele>60.666666666666664</ele><time>2026-04-06T06:47:24.998Z</time></trkpt><trkpt lat="44.96559350437887" lon="9.929774876063247"><ele>60.5</ele><time>2026-04-06T06:47:25.998Z</time></trkpt><trkpt lat="44.96551610003444" lon="9.929720924798474"><ele>60.33333333333333</ele><time>2026-04-06T06:47:26.998Z</time></trkpt><trkpt lat="44.965437783812106" lon="9.92966633807049"><ele>60.166666666666664</ele><time>2026-04-06T06:47:27.998Z</time></trkpt><trkpt lat="44.96536163687995" lon="9.92961326331297"><ele>60.0</ele><time>2026-04-06T06:47:28.998Z</time></trkpt><trkpt lat="44.96527763526806" lon="9.929580241142558"><ele>60.0</ele><time>2026-04-06T06:47:29.998Z</time></trkpt><trkpt lat="44.96520985043913" lon="9.929507467480848"><ele>60.0</ele><time>2026-04-06T06:47:30.998Z</time></trkpt><trkpt lat="44.9651316151666" lon="9.92945293709519"><ele>60.0</ele><time>2026-04-06T06:47:31.998Z</time></trkpt><trkpt lat="44.965055487858315" lon="9.929399876045121"><ele>60.0</ele><time>2026-04-06T06:47:32.998Z</time></trkpt><trkpt lat="44.96497888159381" lon="9.929346481264908"><ele>60.0</ele><time>2026-04-06T06:47:34Z</time></trkpt><trkpt lat="44.964903091333056" lon="9.929293655173959"><ele>60.0</ele><time>2026-04-06T06:47:35Z</time></trkpt><trkpt lat="44.96482683617381" lon="9.929240504800559"><ele>60.333333333333336</ele><time>2026-04-06T06:47:36Z</time></trkpt><trkpt lat="44.96475162450977" lon="9.929189548746818"><ele>60.66666666666667</ele><time>2026-04-06T06:47:37Z</time></trkpt><trkpt lat="44.96466760601072" lon="9.92915862367753"><ele>61.0</ele><time>2026-04-06T06:47:38Z</time></trkpt><trkpt lat="44.964592894925886" lon="9.929105502458691"><ele>61.333333333333336</ele><time>2026-04-06T06:47:39Z</time></trkpt><trkpt lat="44.96451812616503" lon="9.929043823889673"><ele>61.66666666666667</ele><time>2026-04-06T06:47:40Z</time></trkpt><trkpt lat="44.96444573615499" lon="9.928987957031683"><ele>62.0</ele><time>2026-04-06T06:47:41Z</time></trkpt><trkpt lat="44.964379397029695" lon="9.928919436796125"><ele>62.00000000000001</ele><time>2026-04-06T06:47:42Z</time></trkpt><trkpt lat="44.96433071704908" lon="9.928817049257198"><ele>62.0</ele><time>2026-04-06T06:47:43Z</time></trkpt><trkpt lat="44.96428698592451" lon="9.928715782762408"><ele>62.0</ele><time>2026-04-06T06:47:44Z</time></trkpt><trkpt lat="44.96425221197468" lon="9.92860526276192"><ele>62.0</ele><time>2026-04-06T06:47:45Z</time></trkpt><trkpt lat="44.964218972896546" lon="9.92849319970401"><ele>62.00000000000001</ele><time>2026-04-06T06:47:46Z</time></trkpt><trkpt lat="44.96418442527992" lon="9.928381829758717"><ele>62.0</ele><time>2026-04-06T06:47:47Z</time></trkpt><trkpt lat="44.96414922276639" lon="9.928270681079468"><ele>61.66666666666667</ele><time>2026-04-06T06:47:48Z</time></trkpt><trkpt lat="44.96410554268218" lon="9.928164305604772"><ele>61.333333333333336</ele><time>2026-04-06T06:47:49Z</time></trkpt><trkpt lat="44.96403867139837" lon="9.92807745395181"><ele>61.0</ele><time>2026-04-06T06:47:50Z</time></trkpt><trkpt lat="44.96398923697171" lon="9.92797501665665"><ele>60.66666666666667</ele><time>2026-04-06T06:47:51Z</time></trkpt><trkpt lat="44.96391028473569" lon="9.927917458865114"><ele>60.333333333333336</ele><time>2026-04-06T06:47:52Z</time></trkpt><trkpt lat="44.9638362462678" lon="9.927861142189803"><ele>60.0</ele><time>2026-04-06T06:47:53Z</time></trkpt><trkpt lat="44.96376112468006" lon="9.927806548542922"><ele>60.0</ele><time>2026-04-06T06:47:54Z</time></trkpt><trkpt lat="44.96368598241363" lon="9.927755334496414"><ele>60.0</ele><time>2026-04-06T06:47:55Z</time></trkpt><trkpt lat="44.96361262200199" lon="9.927699066222976"><ele>60.0</ele><time>2026-04-06T06:47:56Z</time></trkpt><trkpt lat="44.96354826308878" lon="9.927623643601642"><ele>60.0</ele><time>2026-04-06T06:47:57Z</time></trkpt><trkpt lat="44.963468283353095" lon="9.927584191493814"><ele>60.0</ele><time>2026-04-06T06:47:58Z</time></trkpt><trkpt lat="44.96339747471699" lon="9.927515891127129"><ele>60.0</ele><time>2026-04-06T06:47:59Z</time></trkpt><trkpt lat="44.96334188703222" lon="9.92742764175898"><ele>59.833333333333336</ele><time>2026-04-06T06:47:59.999Z</time></trkpt><trkpt lat="44.96327980010284" lon="9.927353200608346"><ele>59.66666666666667</ele><time>2026-04-06T06:48:00.999Z</time></trkpt><trkpt lat="44.96320523182825" lon="9.927292012442077"><ele>59.5</ele><time>2026-04-06T06:48:01.999Z</time></trkpt><trkpt lat="44.963144416808134" lon="9.927211972218098"><ele>59.333333333333336</ele><time>2026-04-06T06:48:02.999Z</time></trkpt><trkpt lat="44.96308383601214" lon="9.92713177123919"><ele>59.16666666666667</ele><time>2026-04-06T06:48:03.999Z</time></trkpt><trkpt lat="44.96302116274552" lon="9.927053727967241"><ele>59.0</ele><time>2026-04-06T06:48:04.999Z</time></trkpt><trkpt lat="44.962960544565114" lon="9.926972241507436"><ele>59.00000000000001</ele><time>2026-04-06T06:48:05.999Z</time></trkpt><trkpt lat="44.962897388386466" lon="9.926891038551709"><ele>59.0</ele><time>2026-04-06T06:48:06.999Z</time></trkpt><trkpt lat="44.9628457311194" lon="9.926793358294201"><ele>59.0</ele><time>2026-04-06T06:48:07.999Z</time></trkpt><trkpt lat="44.962784222777415" lon="9.92671542545717"><ele>59.0</ele><time>2026-04-06T06:48:08.999Z</time></trkpt><trkpt lat="44.9627251199868" lon="9.926639509383438"><ele>59.00000000000001</ele><time>2026-04-06T06:48:09.999Z</time></trkpt><trkpt lat="44.962655290645145" lon="9.92657559700298"><ele>59.0</ele><time>2026-04-06T06:48:10.999Z</time></trkpt><trkpt lat="44.962616201232805" lon="9.926472337804976"><ele>58.833333333333336</ele><time>2026-04-06T06:48:11.999Z</time></trkpt><trkpt lat="44.9625881218356" lon="9.926369950744991"><ele>58.66666666666667</ele><time>2026-04-06T06:48:12.999Z</time></trkpt><trkpt lat="44.962587917740215" lon="9.926260297945685"><ele>58.5</ele><time>2026-04-06T06:48:13.999Z</time></trkpt><trkpt lat="44.96259104684321" lon="9.926146212904982"><ele>58.33333333333333</ele><time>2026-04-06T06:48:14.999Z</time></trkpt><trkpt lat="44.96257277134488" lon="9.926031499444399"><ele>58.166666666666664</ele><time>2026-04-06T06:48:15.999Z</time></trkpt><trkpt lat="44.96255159970618" lon="9.925919838982026"><ele>58.0</ele><time>2026-04-06T06:48:16.999Z</time></trkpt><trkpt lat="44.96251435806777" lon="9.92581842465406"><ele>58.33333333333333</ele><time>2026-04-06T06:48:17.999Z</time></trkpt><trkpt lat="44.962483913036635" lon="9.92571048414218"><ele>58.666666666666664</ele><time>2026-04-06T06:48:18.999Z</time></trkpt><trkpt lat="44.96244355599841" lon="9.92560993884711"><ele>59.0</ele><time>2026-04-06T06:48:19.999Z</time></trkpt><trkpt lat="44.96239646884915" lon="9.925506956201552"><ele>59.33333333333333</ele><time>2026-04-06T06:48:20.999Z</time></trkpt><trkpt lat="44.96233688599432" lon="9.925416232324809"><ele>59.666666666666664</ele><time>2026-04-06T06:48:21.999Z</time></trkpt><trkpt lat="44.962262071341904" lon="9.925354775923585"><ele>60.0</ele><time>2026-04-06T06:48:22.999Z</time></trkpt><trkpt lat="44.96218770105916" lon="9.925293277350685"><ele>60.0</ele><time>2026-04-06T06:48:23.999Z</time></trkpt><trkpt lat="44.96211268584181" lon="9.92523459593408"><ele>60.0</ele><time>2026-04-06T06:48:24.999Z</time></trkpt><trkpt lat="44.96204288379872" lon="9.925159145617116"><ele>60.0</ele><time>2026-04-06T06:48:25.999Z</time></trkpt><trkpt lat="44.96196569022988" lon="9.9251053848102"><ele>60.0</ele><time>2026-04-06T06:48:26.999Z</time></trkpt><trkpt lat="44.96188726988786" lon="9.925053456156235"><ele>60.0</ele><time>2026-04-06T06:48:27.999Z</time></trkpt><trkpt lat="44.96180925041152" lon="9.925003314460767"><ele>60.0</ele><time>2026-04-06T06:48:28.999Z</time></trkpt><trkpt lat="44.961733254407726" lon="9.924956870464422"><ele>60.333333333333336</ele><time>2026-04-06T06:48:29.999Z</time></trkpt><trkpt lat="44.96165418492894" lon="9.924908548250487"><ele>60.66666666666667</ele><time>2026-04-06T06:48:30.999Z</time></trkpt><trkpt lat="44.96157624172106" lon="9.924860279238134"><ele>61.0</ele><time>2026-04-06T06:48:31.999Z</time></trkpt><trkpt lat="44.96149414058831" lon="9.924832211707553"><ele>61.333333333333336</ele><time>2026-04-06T06:48:32.999Z</time></trkpt><trkpt lat="44.961418661318234" lon="9.924782261642108"><ele>61.66666666666667</ele><time>2026-04-06T06:48:33.999Z</time></trkpt><trkpt lat="44.96134102865069" lon="9.924730678866057"><ele>62.0</ele><time>2026-04-06T06:48:34.999Z</time></trkpt><trkpt lat="44.96126411168729" lon="9.92468358486159"><ele>62.00000000000001</ele><time>2026-04-06T06:48:35.999Z</time></trkpt><trkpt lat="44.96118805966003" lon="9.924633249974322"><ele>62.0</ele><time>2026-04-06T06:48:36.999Z</time></trkpt><trkpt lat="44.961109861574144" lon="9.924587508531774"><ele>62.0</ele><time>2026-04-06T06:48:37.999Z</time></trkpt><trkpt lat="44.96103394557855" lon="9.92454051490531"><ele>62.0</ele><time>2026-04-06T06:48:38.999Z</time></trkpt><trkpt lat="44.960956536683284" lon="9.924489137395783"><ele>62.00000000000001</ele><time>2026-04-06T06:48:39.999Z</time></trkpt><trkpt lat="44.9608768123692" lon="9.924439551463403"><ele>62.0</ele><time>2026-04-06T06:48:40.999Z</time></trkpt><trkpt lat="44.96079862011334" lon="9.924390434128613"><ele>61.833333333333336</ele><time>2026-04-06T06:48:41.999Z</time></trkpt><trkpt lat="44.96071740221627" lon="9.924348960437147"><ele>61.66666666666667</ele><time>2026-04-06T06:48:42.999Z</time></trkpt><trkpt lat="44.96063861880542" lon="9.92429810178885"><ele>61.5</ele><time>2026-04-06T06:48:43.999Z</time></trkpt><trkpt lat="44.96056224375156" lon="9.924250243388956"><ele>61.33333333333333</ele><time>2026-04-06T06:48:44.999Z</time></trkpt><trkpt lat="44.960484270999544" lon="9.924202807856277"><ele>61.166666666666664</ele><time>2026-04-06T06:48:45.999Z</time></trkpt><trkpt lat="44.960405883274184" lon="9.924158132148868"><ele>61.0</ele><time>2026-04-06T06:48:46.999Z</time></trkpt><trkpt lat="44.9603283025466" lon="9.924110500391631"><ele>60.83333333333333</ele><time>2026-04-06T06:48:47.999Z</time></trkpt><trkpt lat="44.960251313308" lon="9.924064256884755"><ele>60.666666666666664</ele><time>2026-04-06T06:48:48.999Z</time></trkpt><trkpt lat="44.9601745694783" lon="9.924014767688323"><ele>60.5</ele><time>2026-04-06T06:48:49.999Z</time></trkpt><trkpt lat="44.96009765526665" lon="9.92396747175752"><ele>60.33333333333333</ele><time>2026-04-06T06:48:50.999Z</time></trkpt><trkpt lat="44.960021063207414" lon="9.923915102927225"><ele>60.166666666666664</ele><time>2026-04-06T06:48:51.999Z</time></trkpt><trkpt lat="44.95994413301376" lon="9.92386708012894"><ele>60.0</ele><time>2026-04-06T06:48:52.999Z</time></trkpt><trkpt lat="44.95986881991991" lon="9.92381572431014"><ele>60.0</ele><time>2026-04-06T06:48:53.999Z</time></trkpt><trkpt lat="44.95979194635946" lon="9.92376239752497"><ele>60.0</ele><time>2026-04-06T06:48:54.999Z</time></trkpt><trkpt lat="44.95971624059743" lon="9.923714322710614"><ele>60.0</ele><time>2026-04-06T06:48:55.999Z</time></trkpt><trkpt lat="44.95963843407288" lon="9.923665070610076"><ele>60.0</ele><time>2026-04-06T06:48:56.998Z</time></trkpt><trkpt lat="44.95956709542179" lon="9.923594910731518"><ele>60.0</ele><time>2026-04-06T06:48:57.998Z</time></trkpt><trkpt lat="44.95948555060047" lon="9.923561617086971"><ele>60.0</ele><time>2026-04-06T06:48:58.998Z</time></trkpt><trkpt lat="44.959407774605744" lon="9.923505745228756"><ele>60.0</ele><time>2026-04-06T06:48:59.998Z</time></trkpt><trkpt lat="44.959335384554215" lon="9.923445163592893"><ele>60.0</ele><time>2026-04-06T06:49:00.998Z</time></trkpt><trkpt lat="44.95926212706579" lon="9.92338653802423"><ele>60.0</ele><time>2026-04-06T06:49:01.998Z</time></trkpt><trkpt lat="44.959195586872646" lon="9.92331270894185"><ele>60.0</ele><time>2026-04-06T06:49:02.998Z</time></trkpt><trkpt lat="44.959113478825564" lon="9.92327205079964"><ele>60.0</ele><time>2026-04-06T06:49:03.998Z</time></trkpt><trkpt lat="44.95904089817596" lon="9.92320751647805"><ele>60.0</ele><time>2026-04-06T06:49:04.998Z</time></trkpt><trkpt lat="44.95896785173073" lon="9.923143654505768"><ele>60.5</ele><time>2026-04-06T06:49:05.998Z</time></trkpt><trkpt lat="44.95889530295183" lon="9.923080987529023"><ele>61.0</ele><time>2026-04-06T06:49:06.998Z</time></trkpt><trkpt lat="44.95882646421765" lon="9.923015988098594"><ele>61.5</ele><time>2026-04-06T06:49:07.998Z</time></trkpt><trkpt lat="44.958757298142615" lon="9.9229494439211"><ele>62.0</ele><time>2026-04-06T06:49:08.998Z</time></trkpt><trkpt lat="44.958689997293654" lon="9.922879794208265"><ele>62.5</ele><time>2026-04-06T06:49:09.998Z</time></trkpt><trkpt lat="44.95862087149577" lon="9.92281264393568"><ele>63.0</ele><time>2026-04-06T06:49:10.998Z</time></trkpt><trkpt lat="44.95855521344102" lon="9.92273699651514"><ele>63.0</ele><time>2026-04-06T06:49:11.998Z</time></trkpt><trkpt lat="44.9584852162861" lon="9.92266709613908"><ele>63.0</ele><time>2026-04-06T06:49:12.998Z</time></trkpt><trkpt lat="44.95841977563907" lon="9.922591510969106"><ele>63.0</ele><time>2026-04-06T06:49:13.998Z</time></trkpt><trkpt lat="44.95835666514359" lon="9.92252282072207"><ele>63.0</ele><time>2026-04-06T06:49:14.998Z</time></trkpt><trkpt lat="44.95829053625962" lon="9.922457188589513"><ele>63.0</ele><time>2026-04-06T06:49:15.998Z</time></trkpt><trkpt lat="44.95822500691223" lon="9.92238614496885"><ele>63.0</ele><time>2026-04-06T06:49:16.998Z</time></trkpt><trkpt lat="44.958161336925784" lon="9.922321612098136"><ele>62.833333333333336</ele><time>2026-04-06T06:49:17.998Z</time></trkpt><trkpt lat="44.95809470439354" lon="9.922255098035423"><ele>62.66666666666667</ele><time>2026-04-06T06:49:18.998Z</time></trkpt><trkpt lat="44.958025868406416" lon="9.922202711040498"><ele>62.5</ele><time>2026-04-06T06:49:19.998Z</time></trkpt><trkpt lat="44.957960896571436" lon="9.922139748575374"><ele>62.333333333333336</ele><time>2026-04-06T06:49:20.998Z</time></trkpt><trkpt lat="44.957892427146675" lon="9.92208224133368"><ele>62.16666666666667</ele><time>2026-04-06T06:49:21.998Z</time></trkpt><trkpt lat="44.95782669659879" lon="9.92202581621209"><ele>62.0</ele><time>2026-04-06T06:49:22.998Z</time></trkpt><trkpt lat="44.957751498626195" lon="9.921972964644292"><ele>62.00000000000001</ele><time>2026-04-06T06:49:23.998Z</time></trkpt><trkpt lat="44.95767906688028" lon="9.921912765301567"><ele>62.0</ele><time>2026-04-06T06:49:24.998Z</time></trkpt><trkpt lat="44.95760535588104" lon="9.921857307832937"><ele>62.0</ele><time>2026-04-06T06:49:25.998Z</time></trkpt><trkpt lat="44.95752825395854" lon="9.921794163660923"><ele>62.0</ele><time>2026-04-06T06:49:26.998Z</time></trkpt><trkpt lat="44.95745726543816" lon="9.921731261391553"><ele>62.00000000000001</ele><time>2026-04-06T06:49:27.998Z</time></trkpt><trkpt lat="44.95738995189917" lon="9.921670422565517"><ele>62.0</ele><time>2026-04-06T06:49:28.998Z</time></trkpt><trkpt lat="44.95731846823407" lon="9.921598242278174"><ele>62.50000000000001</ele><time>2026-04-06T06:49:29.998Z</time></trkpt><trkpt lat="44.95725424765326" lon="9.921558227533154"><ele>63.0</ele><time>2026-04-06T06:49:30.998Z</time></trkpt><trkpt lat="44.957194206745854" lon="9.921459871767649"><ele>63.5</ele><time>2026-04-06T06:49:31.998Z</time></trkpt><trkpt lat="44.957097781408464" lon="9.921326692731997"><ele>64.0</ele><time>2026-04-06T06:49:33.998Z</time></trkpt><trkpt lat="44.957052307488844" lon="9.921261569827408"><ele>64.5</ele><time>2026-04-06T06:49:34.998Z</time></trkpt><trkpt lat="44.957004291300336" lon="9.921193578222818"><ele>65.0</ele><time>2026-04-06T06:49:35.998Z</time></trkpt><trkpt lat="44.956925480397814" lon="9.92106594802409"><ele>65.0</ele><time>2026-04-06T06:49:37.998Z</time></trkpt><trkpt lat="44.95684331969534" lon="9.92094399227164"><ele>65.0</ele><time>2026-04-06T06:49:40Z</time></trkpt><trkpt lat="44.95676309617639" lon="9.920830292121817"><ele>65.0</ele><time>2026-04-06T06:49:42Z</time></trkpt><trkpt lat="44.95668474437204" lon="9.920729021143016"><ele>65.0</ele><time>2026-04-06T06:49:44Z</time></trkpt><trkpt lat="44.95659372708216" lon="9.920624207756063"><ele>64.4</ele><time>2026-04-06T06:49:46Z</time></trkpt><trkpt lat="44.95649227015528" lon="9.92053188881743"><ele>63.8</ele><time>2026-04-06T06:49:48Z</time></trkpt><trkpt lat="44.956383667760754" lon="9.920433217707439"><ele>63.2</ele><time>2026-04-06T06:49:50Z</time></trkpt><trkpt lat="44.956328559408874" lon="9.920385040123133"><ele>62.6</ele><time>2026-04-06T06:49:51Z</time></trkpt><trkpt lat="44.95626827304856" lon="9.92033786702912"><ele>62.0</ele><time>2026-04-06T06:49:52Z</time></trkpt><trkpt lat="44.9562075557637" lon="9.920285985363707"><ele>62.00000000000001</ele><time>2026-04-06T06:49:53Z</time></trkpt><trkpt lat="44.95614954257412" lon="9.92023363982078"><ele>62.0</ele><time>2026-04-06T06:49:54Z</time></trkpt><trkpt lat="44.956086561871444" lon="9.920180415445829"><ele>62.0</ele><time>2026-04-06T06:49:55Z</time></trkpt><trkpt lat="44.95602225487698" lon="9.92012776556529"><ele>62.0</ele><time>2026-04-06T06:49:56Z</time></trkpt><trkpt lat="44.955957278185075" lon="9.920063106938544"><ele>62.00000000000001</ele><time>2026-04-06T06:49:57Z</time></trkpt><trkpt lat="44.95589048268673" lon="9.920003290226335"><ele>62.0</ele><time>2026-04-06T06:49:58Z</time></trkpt><trkpt lat="44.95582078629123" lon="9.919936481187"><ele>62.400000000000006</ele><time>2026-04-06T06:49:59Z</time></trkpt><trkpt lat="44.95575212966108" lon="9.919868545693676"><ele>62.800000000000004</ele><time>2026-04-06T06:50:00Z</time></trkpt><trkpt lat="44.955681737708666" lon="9.919787589148845"><ele>63.2</ele><time>2026-04-06T06:50:01Z</time></trkpt><trkpt lat="44.95561034162384" lon="9.919703994470282"><ele>63.6</ele><time>2026-04-06T06:50:02Z</time></trkpt><trkpt lat="44.955536704771" lon="9.919618451460043"><ele>64.0</ele><time>2026-04-06T06:50:02.999Z</time></trkpt><trkpt lat="44.95546278217639" lon="9.919531720527864"><ele>64.0</ele><time>2026-04-06T06:50:03.999Z</time></trkpt><trkpt lat="44.95538611077927" lon="9.919442393266547"><ele>64.0</ele><time>2026-04-06T06:50:04.999Z</time></trkpt><trkpt lat="44.95531242373577" lon="9.919349250047892"><ele>64.0</ele><time>2026-04-06T06:50:05.999Z</time></trkpt><trkpt lat="44.95523805624812" lon="9.919255999735833"><ele>64.0</ele><time>2026-04-06T06:50:06.999Z</time></trkpt><trkpt lat="44.95516655780773" lon="9.919158035542397"><ele>64.0</ele><time>2026-04-06T06:50:07.999Z</time></trkpt><trkpt lat="44.95510061908809" lon="9.91905838277724"><ele>64.2</ele><time>2026-04-06T06:50:08.999Z</time></trkpt><trkpt lat="44.9550394881048" lon="9.918960425725082"><ele>64.4</ele><time>2026-04-06T06:50:09.999Z</time></trkpt><trkpt lat="44.95497911618103" lon="9.91886505705324"><ele>64.6</ele><time>2026-04-06T06:50:10.999Z</time></trkpt><trkpt lat="44.95491701944863" lon="9.91877103295611"><ele>64.8</ele><time>2026-04-06T06:50:11.999Z</time></trkpt><trkpt lat="44.95485259970029" lon="9.918671046490275"><ele>65.0</ele><time>2026-04-06T06:50:12.999Z</time></trkpt><trkpt lat="44.95479146570247" lon="9.918575772180716"><ele>65.0</ele><time>2026-04-06T06:50:13.999Z</time></trkpt><trkpt lat="44.954731640257194" lon="9.918478647515693"><ele>65.0</ele><time>2026-04-06T06:50:14.999Z</time></trkpt><trkpt lat="44.95467326970841" lon="9.918383188562403"><ele>65.0</ele><time>2026-04-06T06:50:15.999Z</time></trkpt><trkpt lat="44.95461132826099" lon="9.918289573040903"><ele>65.0</ele><time>2026-04-06T06:50:16.999Z</time></trkpt><trkpt lat="44.95455013468951" lon="9.918193640061196"><ele>65.0</ele><time>2026-04-06T06:50:17.999Z</time></trkpt><trkpt lat="44.95448921478446" lon="9.918097101985657"><ele>65.2</ele><time>2026-04-06T06:50:18.999Z</time></trkpt><trkpt lat="44.95442694154882" lon="9.918002856427941"><ele>65.4</ele><time>2026-04-06T06:50:19.999Z</time></trkpt><trkpt lat="44.954363097284336" lon="9.917907247530243"><ele>65.6</ele><time>2026-04-06T06:50:20.999Z</time></trkpt><trkpt lat="44.95430148860072" lon="9.91780671624331"><ele>65.8</ele><time>2026-04-06T06:50:21.999Z</time></trkpt><trkpt lat="44.954240435985945" lon="9.917713322893864"><ele>66.0</ele><time>2026-04-06T06:50:22.999Z</time></trkpt><trkpt lat="44.95417975874034" lon="9.917620063650752"><ele>65.66666666666667</ele><time>2026-04-06T06:50:23.999Z</time></trkpt><trkpt lat="44.95411886768244" lon="9.917526279684113"><ele>65.33333333333333</ele><time>2026-04-06T06:50:24.999Z</time></trkpt><trkpt lat="44.9540582608188" lon="9.91743292416179"><ele>65.0</ele><time>2026-04-06T06:50:25.999Z</time></trkpt><trkpt lat="44.954000226986324" lon="9.917341349521552"><ele>64.66666666666666</ele><time>2026-04-06T06:50:26.999Z</time></trkpt><trkpt lat="44.95394146502196" lon="9.91724815302791"><ele>64.33333333333333</ele><time>2026-04-06T06:50:27.999Z</time></trkpt><trkpt lat="44.95388620379555" lon="9.917154856630962"><ele>64.0</ele><time>2026-04-06T06:50:28.999Z</time></trkpt><trkpt lat="44.95383377818439" lon="9.91705865203076"><ele>63.99999999999999</ele><time>2026-04-06T06:50:29.999Z</time></trkpt><trkpt lat="44.953781404358836" lon="9.916960061157534"><ele>64.0</ele><time>2026-04-06T06:50:30.999Z</time></trkpt><trkpt lat="44.953726140345736" lon="9.91686534303463"><ele>64.0</ele><time>2026-04-06T06:50:31.999Z</time></trkpt><trkpt lat="44.95366881840878" lon="9.916771142511204"><ele>64.0</ele><time>2026-04-06T06:50:32.999Z</time></trkpt><trkpt lat="44.95360753086322" lon="9.916681559211373"><ele>63.99999999999999</ele><time>2026-04-06T06:50:33.999Z</time></trkpt><trkpt lat="44.95354715050213" lon="9.916590707939"><ele>64.0</ele><time>2026-04-06T06:50:34.999Z</time></trkpt><trkpt lat="44.95348424398098" lon="9.916499119687012"><ele>63.99999999999999</ele><time>2026-04-06T06:50:35.999Z</time></trkpt><trkpt lat="44.95342238006457" lon="9.916408161578632"><ele>64.0</ele><time>2026-04-06T06:50:36.999Z</time></trkpt><trkpt lat="44.95335966175775" lon="9.916316621641185"><ele>64.0</ele><time>2026-04-06T06:50:37.999Z</time></trkpt><trkpt lat="44.953298369921974" lon="9.916223308614763"><ele>64.0</ele><time>2026-04-06T06:50:38.999Z</time></trkpt><trkpt lat="44.95323636331815" lon="9.916132573538759"><ele>63.99999999999999</ele><time>2026-04-06T06:50:39.999Z</time></trkpt><trkpt lat="44.95317444753886" lon="9.916039187217699"><ele>64.0</ele><time>2026-04-06T06:50:40.999Z</time></trkpt><trkpt lat="44.95311594380427" lon="9.915942769251476"><ele>64.5</ele><time>2026-04-06T06:50:41.999Z</time></trkpt><trkpt lat="44.95306147443248" lon="9.915840862402305"><ele>65.0</ele><time>2026-04-06T06:50:42.999Z</time></trkpt><trkpt lat="44.95301028148226" lon="9.915738084507026"><ele>65.5</ele><time>2026-04-06T06:50:43.999Z</time></trkpt><trkpt lat="44.952961638379264" lon="9.91563639752555"><ele>66.0</ele><time>2026-04-06T06:50:44.999Z</time></trkpt><trkpt lat="44.952923911894196" lon="9.915523939214944"><ele>66.5</ele><time>2026-04-06T06:50:45.999Z</time></trkpt><trkpt lat="44.95287220038563" lon="9.915422737523427"><ele>67.0</ele><time>2026-04-06T06:50:46.999Z</time></trkpt><trkpt lat="44.95281991392914" lon="9.915322805594545"><ele>67.0</ele><time>2026-04-06T06:50:47.999Z</time></trkpt><trkpt lat="44.9527664229765" lon="9.915225732094159"><ele>67.0</ele><time>2026-04-06T06:50:48.999Z</time></trkpt><trkpt lat="44.95269808233257" lon="9.915145022128025"><ele>67.0</ele><time>2026-04-06T06:50:49.999Z</time></trkpt><trkpt lat="44.9526395862428" lon="9.915052062405957"><ele>67.0</ele><time>2026-04-06T06:50:50.999Z</time></trkpt><trkpt lat="44.95257927500597" lon="9.914956946984116"><ele>67.0</ele><time>2026-04-06T06:50:51.999Z</time></trkpt><trkpt lat="44.95251916971051" lon="9.914861738916887"><ele>67.0</ele><time>2026-04-06T06:50:52.999Z</time></trkpt><trkpt lat="44.952465148554126" lon="9.914765598954522"><ele>67.0</ele><time>2026-04-06T06:50:53.999Z</time></trkpt><trkpt lat="44.952407921990414" lon="9.914670170663648"><ele>67.0</ele><time>2026-04-06T06:50:54.999Z</time></trkpt><trkpt lat="44.95234954925975" lon="9.914576713337677"><ele>67.0</ele><time>2026-04-06T06:50:55.999Z</time></trkpt><trkpt lat="44.952290919146776" lon="9.914480299559575"><ele>67.0</ele><time>2026-04-06T06:50:56.999Z</time></trkpt><trkpt lat="44.95223107252228" lon="9.914384809879756"><ele>67.0</ele><time>2026-04-06T06:50:57.999Z</time></trkpt><trkpt lat="44.95216801503248" lon="9.914294031337619"><ele>67.0</ele><time>2026-04-06T06:50:58.999Z</time></trkpt><trkpt lat="44.95210492566123" lon="9.914204241732442"><ele>67.0</ele><time>2026-04-06T06:50:59.998Z</time></trkpt><trkpt lat="44.952032105466685" lon="9.914128275008911"><ele>67.0</ele><time>2026-04-06T06:51:00.998Z</time></trkpt><trkpt lat="44.95195552782292" lon="9.91405923374143"><ele>67.0</ele><time>2026-04-06T06:51:01.998Z</time></trkpt><trkpt lat="44.95187915227524" lon="9.913997968776496"><ele>67.0</ele><time>2026-04-06T06:51:02.998Z</time></trkpt><trkpt lat="44.95180258684836" lon="9.91393907008607"><ele>67.0</ele><time>2026-04-06T06:51:03.998Z</time></trkpt><trkpt lat="44.95172460527252" lon="9.913882265415234"><ele>67.0</ele><time>2026-04-06T06:51:04.998Z</time></trkpt><trkpt lat="44.951646710918716" lon="9.913823248399396"><ele>67.0</ele><time>2026-04-06T06:51:05.998Z</time></trkpt><trkpt lat="44.95156622268092" lon="9.913762603060139"><ele>67.0</ele><time>2026-04-06T06:51:06.998Z</time></trkpt><trkpt lat="44.951487875465546" lon="9.913704015708204"><ele>67.0</ele><time>2026-04-06T06:51:07.998Z</time></trkpt><trkpt lat="44.951407867440984" lon="9.91365022809881"><ele>67.0</ele><time>2026-04-06T06:51:08.998Z</time></trkpt><trkpt lat="44.95132616475581" lon="9.91359628867879"><ele>67.0</ele><time>2026-04-06T06:51:09.998Z</time></trkpt><trkpt lat="44.95124370545297" lon="9.913549926068535"><ele>67.0</ele><time>2026-04-06T06:51:10.998Z</time></trkpt><trkpt lat="44.95116056464577" lon="9.913499128299133"><ele>67.0</ele><time>2026-04-06T06:51:11.998Z</time></trkpt><trkpt lat="44.95107758305911" lon="9.913450244013703"><ele>67.0</ele><time>2026-04-06T06:51:12.998Z</time></trkpt><trkpt lat="44.95099490952573" lon="9.913401732725108"><ele>67.0</ele><time>2026-04-06T06:51:13.998Z</time></trkpt><trkpt lat="44.95091077461263" lon="9.913356376850222"><ele>67.0</ele><time>2026-04-06T06:51:14.998Z</time></trkpt><trkpt lat="44.95082832940287" lon="9.9133122670327"><ele>67.0</ele><time>2026-04-06T06:51:15.998Z</time></trkpt><trkpt lat="44.950744889785916" lon="9.913265085123498"><ele>67.0</ele><time>2026-04-06T06:51:16.998Z</time></trkpt><trkpt lat="44.950660089777855" lon="9.913223071280601"><ele>67.16666666666666</ele><time>2026-04-06T06:51:17.998Z</time></trkpt><trkpt lat="44.95057634679288" lon="9.913180045828588"><ele>67.33333333333333</ele><time>2026-04-06T06:51:18.998Z</time></trkpt><trkpt lat="44.950492922247115" lon="9.913134726899438"><ele>67.5</ele><time>2026-04-06T06:51:19.998Z</time></trkpt><trkpt lat="44.95041006552545" lon="9.913088879880409"><ele>67.66666666666667</ele><time>2026-04-06T06:51:20.998Z</time></trkpt><trkpt lat="44.950328883978926" lon="9.913036022541007"><ele>67.83333333333334</ele><time>2026-04-06T06:51:21.998Z</time></trkpt><trkpt lat="44.95024852870931" lon="9.912982020899998"><ele>68.0</ele><time>2026-04-06T06:51:22.998Z</time></trkpt><trkpt lat="44.95017273213813" lon="9.91291921096114"><ele>68.0</ele><time>2026-04-06T06:51:23.998Z</time></trkpt><trkpt lat="44.950100282404" lon="9.91284486055169"><ele>68.0</ele><time>2026-04-06T06:51:24.998Z</time></trkpt><trkpt lat="44.95003589957609" lon="9.91276267457297"><ele>68.0</ele><time>2026-04-06T06:51:25.998Z</time></trkpt><trkpt lat="44.949971792495454" lon="9.912672836416895"><ele>68.0</ele><time>2026-04-06T06:51:26.998Z</time></trkpt><trkpt lat="44.9499169633597" lon="9.912578837917042"><ele>68.0</ele><time>2026-04-06T06:51:27.998Z</time></trkpt><trkpt lat="44.949860222914985" lon="9.91247829380907"><ele>68.0</ele><time>2026-04-06T06:51:28.998Z</time></trkpt><trkpt lat="44.949812018507885" lon="9.91237693762385"><ele>68.0</ele><time>2026-04-06T06:51:29.998Z</time></trkpt><trkpt lat="44.949763376208324" lon="9.912271576615623"><ele>68.0</ele><time>2026-04-06T06:51:30.998Z</time></trkpt><trkpt lat="44.94972074296893" lon="9.912164717749041"><ele>68.0</ele><time>2026-04-06T06:51:31.998Z</time></trkpt><trkpt lat="44.94967813277877" lon="9.912054440034407"><ele>68.0</ele><time>2026-04-06T06:51:32.998Z</time></trkpt><trkpt lat="44.94964241729935" lon="9.911943625988314"><ele>68.0</ele><time>2026-04-06T06:51:33.998Z</time></trkpt><trkpt lat="44.949606887160414" lon="9.91183738427336"><ele>68.0</ele><time>2026-04-06T06:51:34.998Z</time></trkpt><trkpt lat="44.94956850289589" lon="9.91173335877083"><ele>68.0</ele><time>2026-04-06T06:51:35.998Z</time></trkpt><trkpt lat="44.94952683804981" lon="9.91163547714263"><ele>68.0</ele><time>2026-04-06T06:51:36.998Z</time></trkpt><trkpt lat="44.94948328252935" lon="9.91154091970697"><ele>68.0</ele><time>2026-04-06T06:51:37.998Z</time></trkpt><trkpt lat="44.949435317250305" lon="9.911455277530484"><ele>68.0</ele><time>2026-04-06T06:51:38.998Z</time></trkpt><trkpt lat="44.94938951910428" lon="9.911366522547961"><ele>68.0</ele><time>2026-04-06T06:51:39.998Z</time></trkpt><trkpt lat="44.949343254084724" lon="9.911283477888832"><ele>68.0</ele><time>2026-04-06T06:51:40.998Z</time></trkpt><trkpt lat="44.949293940596114" lon="9.911206423835734"><ele>68.0</ele><time>2026-04-06T06:51:41.998Z</time></trkpt><trkpt lat="44.949239510053324" lon="9.911132267812103"><ele>68.0</ele><time>2026-04-06T06:51:42.998Z</time></trkpt><trkpt lat="44.949180497522484" lon="9.911062952128727"><ele>68.0</ele><time>2026-04-06T06:51:43.998Z</time></trkpt><trkpt lat="44.94911602853033" lon="9.911005065939293"><ele>68.0</ele><time>2026-04-06T06:51:44.998Z</time></trkpt><trkpt lat="44.94904673252282" lon="9.910957084262982"><ele>68.0</ele><time>2026-04-06T06:51:46Z</time></trkpt><trkpt lat="44.94897335237184" lon="9.910916592208252"><ele>68.0</ele><time>2026-04-06T06:51:47Z</time></trkpt><trkpt lat="44.948897879365425" lon="9.910889370091468"><ele>68.33333333333334</ele><time>2026-04-06T06:51:48Z</time></trkpt><trkpt lat="44.948821571488395" lon="9.91087310396297"><ele>68.66666666666667</ele><time>2026-04-06T06:51:49Z</time></trkpt><trkpt lat="44.94874372427692" lon="9.910858704020704"><ele>69.0</ele><time>2026-04-06T06:51:50Z</time></trkpt><trkpt lat="44.94866603997435" lon="9.910852752940793"><ele>69.33333333333333</ele><time>2026-04-06T06:51:51Z</time></trkpt><trkpt lat="44.94859074839013" lon="9.9108484895898"><ele>69.66666666666666</ele><time>2026-04-06T06:51:52Z</time></trkpt><trkpt lat="44.948515809833104" lon="9.910845029591655"><ele>70.0</ele><time>2026-04-06T06:51:53Z</time></trkpt><trkpt lat="44.948443111720245" lon="9.910841573727167"><ele>70.0</ele><time>2026-04-06T06:51:54Z</time></trkpt><trkpt lat="44.948370059503986" lon="9.910838141886277"><ele>70.0</ele><time>2026-04-06T06:51:55Z</time></trkpt><trkpt lat="44.94829580044176" lon="9.910832042958257"><ele>70.0</ele><time>2026-04-06T06:51:56Z</time></trkpt><trkpt lat="44.94822026514275" lon="9.910822073887687"><ele>70.0</ele><time>2026-04-06T06:51:57Z</time></trkpt><trkpt lat="44.94814299373573" lon="9.91081685528299"><ele>70.0</ele><time>2026-04-06T06:51:58Z</time></trkpt><trkpt lat="44.94806822762127" lon="9.910803269778762"><ele>70.0</ele><time>2026-04-06T06:51:59Z</time></trkpt><trkpt lat="44.9479940477126" lon="9.91079083867491"><ele>70.0</ele><time>2026-04-06T06:52:00Z</time></trkpt><trkpt lat="44.94792022256822" lon="9.910778584161216"><ele>70.0</ele><time>2026-04-06T06:52:01Z</time></trkpt><trkpt lat="44.9478443926787" lon="9.910763187809343"><ele>70.0</ele><time>2026-04-06T06:52:02Z</time></trkpt><trkpt lat="44.947769073242085" lon="9.910739923944233"><ele>70.0</ele><time>2026-04-06T06:52:03Z</time></trkpt><trkpt lat="44.947696125180954" lon="9.910707658697149"><ele>70.0</ele><time>2026-04-06T06:52:04Z</time></trkpt><trkpt lat="44.94762287186763" lon="9.910673956319934"><ele>70.0</ele><time>2026-04-06T06:52:05Z</time></trkpt><trkpt lat="44.947552665889674" lon="9.91063400950583"><ele>69.83333333333333</ele><time>2026-04-06T06:52:06Z</time></trkpt><trkpt lat="44.94748533298747" lon="9.910591539501645"><ele>69.66666666666666</ele><time>2026-04-06T06:52:07Z</time></trkpt><trkpt lat="44.947418603158866" lon="9.91054808230776"><ele>69.5</ele><time>2026-04-06T06:52:08Z</time></trkpt><trkpt lat="44.94734373762255" lon="9.910517304187586"><ele>69.33333333333333</ele><time>2026-04-06T06:52:08.999Z</time></trkpt><trkpt lat="44.947266777884764" lon="9.910493836745124"><ele>69.16666666666667</ele><time>2026-04-06T06:52:09.999Z</time></trkpt><trkpt lat="44.94718750192346" lon="9.910478313214712"><ele>69.0</ele><time>2026-04-06T06:52:10.999Z</time></trkpt><trkpt lat="44.94710975875736" lon="9.910472432695565"><ele>69.0</ele><time>2026-04-06T06:52:11.999Z</time></trkpt><trkpt lat="44.947032317681575" lon="9.910472695551416"><ele>69.0</ele><time>2026-04-06T06:52:12.999Z</time></trkpt><trkpt lat="44.94695511442523" lon="9.910474098674499"><ele>69.0</ele><time>2026-04-06T06:52:13.999Z</time></trkpt><trkpt lat="44.94687767116281" lon="9.910491084969848"><ele>69.0</ele><time>2026-04-06T06:52:14.999Z</time></trkpt><trkpt lat="44.94680428561858" lon="9.910528323625027"><ele>69.0</ele><time>2026-04-06T06:52:15.999Z</time></trkpt><trkpt lat="44.94673832749135" lon="9.910592747466454"><ele>69.0</ele><time>2026-04-06T06:52:16.999Z</time></trkpt><trkpt lat="44.94668437238451" lon="9.910680701720075"><ele>69.0</ele><time>2026-04-06T06:52:17.999Z</time></trkpt><trkpt lat="44.946639887195836" lon="9.910779869711638"><ele>69.0</ele><time>2026-04-06T06:52:18.999Z</time></trkpt><trkpt lat="44.946600388071126" lon="9.91088067668455"><ele>69.0</ele><time>2026-04-06T06:52:19.999Z</time></trkpt><trkpt lat="44.946564969496734" lon="9.910982637688278"><ele>69.0</ele><time>2026-04-06T06:52:20.999Z</time></trkpt><trkpt lat="44.94653049912246" lon="9.911084495162191"><ele>69.0</ele><time>2026-04-06T06:52:21.999Z</time></trkpt><trkpt lat="44.94648946437479" lon="9.911183450812079"><ele>69.0</ele><time>2026-04-06T06:52:22.999Z</time></trkpt><trkpt lat="44.946452807620055" lon="9.91128182632874"><ele>69.16666666666667</ele><time>2026-04-06T06:52:23.999Z</time></trkpt><trkpt lat="44.946416140789836" lon="9.91137536218835"><ele>69.33333333333333</ele><time>2026-04-06T06:52:24.999Z</time></trkpt><trkpt lat="44.946375892941056" lon="9.91146674747624"><ele>69.5</ele><time>2026-04-06T06:52:25.999Z</time></trkpt><trkpt lat="44.94632514891211" lon="9.91155031982959"><ele>69.66666666666666</ele><time>2026-04-06T06:52:26.999Z</time></trkpt><trkpt lat="44.9462639831283" lon="9.911622183022692"><ele>69.83333333333333</ele><time>2026-04-06T06:52:27.999Z</time></trkpt><trkpt lat="44.946191782593814" lon="9.91167370722117"><ele>70.0</ele><time>2026-04-06T06:52:28.999Z</time></trkpt><trkpt lat="44.946110868114744" lon="9.91170086875065"><ele>70.0</ele><time>2026-04-06T06:52:29.999Z</time></trkpt><trkpt lat="44.94602971120016" lon="9.911656726773042"><ele>70.0</ele><time>2026-04-06T06:52:30.999Z</time></trkpt><trkpt lat="44.9459449741563" lon="9.911646776384195"><ele>70.0</ele><time>2026-04-06T06:52:31.999Z</time></trkpt><trkpt lat="44.9458674092772" lon="9.911609233679382"><ele>70.0</ele><time>2026-04-06T06:52:32.999Z</time></trkpt><trkpt lat="44.945787792129885" lon="9.911578399944908"><ele>70.0</ele><time>2026-04-06T06:52:33.999Z</time></trkpt><trkpt lat="44.945708689574886" lon="9.91155372004151"><ele>70.0</ele><time>2026-04-06T06:52:34.999Z</time></trkpt><trkpt lat="44.94562717262844" lon="9.911529260872225"><ele>69.83333333333333</ele><time>2026-04-06T06:52:35.999Z</time></trkpt><trkpt lat="44.94554770163486" lon="9.911506391767032"><ele>69.66666666666666</ele><time>2026-04-06T06:52:36.999Z</time></trkpt><trkpt lat="44.94547044770617" lon="9.911483696242689"><ele>69.5</ele><time>2026-04-06T06:52:37.999Z</time></trkpt><trkpt lat="44.94539387005173" lon="9.911468102453945"><ele>69.33333333333333</ele><time>2026-04-06T06:52:38.999Z</time></trkpt><trkpt lat="44.9453145613524" lon="9.911462758282958"><ele>69.16666666666667</ele><time>2026-04-06T06:52:39.999Z</time></trkpt><trkpt lat="44.9452361019657" lon="9.911469553851074"><ele>69.0</ele><time>2026-04-06T06:52:40.999Z</time></trkpt><trkpt lat="44.94515683162857" lon="9.91148239487823"><ele>69.0</ele><time>2026-04-06T06:52:41.999Z</time></trkpt><trkpt lat="44.945077413288836" lon="9.911500530479206"><ele>69.0</ele><time>2026-04-06T06:52:42.999Z</time></trkpt><trkpt lat="44.94499855159061" lon="9.911513896745237"><ele>69.0</ele><time>2026-04-06T06:52:43.999Z</time></trkpt><trkpt lat="44.94491920833731" lon="9.911529900174662"><ele>69.0</ele><time>2026-04-06T06:52:44.999Z</time></trkpt><trkpt lat="44.94483855625713" lon="9.911538569703572"><ele>69.0</ele><time>2026-04-06T06:52:45.999Z</time></trkpt><trkpt lat="44.944760716841664" lon="9.911551518396353"><ele>69.0</ele><time>2026-04-06T06:52:46.999Z</time></trkpt><trkpt lat="44.94468091824654" lon="9.911559608787345"><ele>69.33333333333333</ele><time>2026-04-06T06:52:47.999Z</time></trkpt><trkpt lat="44.944602218551836" lon="9.911562213225082"><ele>69.66666666666667</ele><time>2026-04-06T06:52:48.999Z</time></trkpt><trkpt lat="44.94452240576389" lon="9.911565083935868"><ele>70.0</ele><time>2026-04-06T06:52:49.999Z</time></trkpt><trkpt lat="44.94444395115921" lon="9.91156529976821"><ele>70.33333333333334</ele><time>2026-04-06T06:52:50.999Z</time></trkpt><trkpt lat="44.94436478893025" lon="9.911569874737173"><ele>70.66666666666667</ele><time>2026-04-06T06:52:51.999Z</time></trkpt><trkpt lat="44.94428852456347" lon="9.911565353035595"><ele>71.0</ele><time>2026-04-06T06:52:52.999Z</time></trkpt><trkpt lat="44.94421174154775" lon="9.911549429541157"><ele>71.0</ele><time>2026-04-06T06:52:53.999Z</time></trkpt><trkpt lat="44.944137806894844" lon="9.911522931615371"><ele>71.0</ele><time>2026-04-06T06:52:54.999Z</time></trkpt><trkpt lat="44.944068900785226" lon="9.911477964718175"><ele>71.0</ele><time>2026-04-06T06:52:55.999Z</time></trkpt><trkpt lat="44.9440048293723" lon="9.911423365534135"><ele>71.0</ele><time>2026-04-06T06:52:56.999Z</time></trkpt><trkpt lat="44.943939189982515" lon="9.911370543490168"><ele>71.0</ele><time>2026-04-06T06:52:57.999Z</time></trkpt><trkpt lat="44.94387421619397" lon="9.911317786110281"><ele>71.0</ele><time>2026-04-06T06:52:58.999Z</time></trkpt><trkpt lat="44.943805742670335" lon="9.911266651577597"><ele>71.0</ele><time>2026-04-06T06:52:59.999Z</time></trkpt><trkpt lat="44.94373911133126" lon="9.911213016869862"><ele>71.0</ele><time>2026-04-06T06:53:00.999Z</time></trkpt><trkpt lat="44.94367103928082" lon="9.91116273817055"><ele>71.0</ele><time>2026-04-06T06:53:01.999Z</time></trkpt><trkpt lat="44.943602653977365" lon="9.911110255595961"><ele>71.0</ele><time>2026-04-06T06:53:02.999Z</time></trkpt><trkpt lat="44.943533424510335" lon="9.91106046338079"><ele>71.0</ele><time>2026-04-06T06:53:03.999Z</time></trkpt><trkpt lat="44.94346561464021" lon="9.91101286420593"><ele>71.0</ele><time>2026-04-06T06:53:04.999Z</time></trkpt><trkpt lat="44.94339723215703" lon="9.910962846405274"><ele>70.5</ele><time>2026-04-06T06:53:05.999Z</time></trkpt><trkpt lat="44.94332712071905" lon="9.91091851243926"><ele>70.0</ele><time>2026-04-06T06:53:06.998Z</time></trkpt><trkpt lat="44.9432601499846" lon="9.910870609472756"><ele>69.5</ele><time>2026-04-06T06:53:07.998Z</time></trkpt><trkpt lat="44.94319222705006" lon="9.910822533851707"><ele>69.0</ele><time>2026-04-06T06:53:08.998Z</time></trkpt><trkpt lat="44.94312604702398" lon="9.910776634675727"><ele>68.5</ele><time>2026-04-06T06:53:09.998Z</time></trkpt><trkpt lat="44.94305776251625" lon="9.910725535874523"><ele>68.0</ele><time>2026-04-06T06:53:10.998Z</time></trkpt><trkpt lat="44.942989686155244" lon="9.910676838153655"><ele>68.0</ele><time>2026-04-06T06:53:11.998Z</time></trkpt><trkpt lat="44.94291905657545" lon="9.910628095242089"><ele>68.0</ele><time>2026-04-06T06:53:12.998Z</time></trkpt><trkpt lat="44.94284982869326" lon="9.910582955173545"><ele>68.0</ele><time>2026-04-06T06:53:13.998Z</time></trkpt><trkpt lat="44.942777523573895" lon="9.910539540036964"><ele>68.0</ele><time>2026-04-06T06:53:14.998Z</time></trkpt><trkpt lat="44.9427059911677" lon="9.910495527308196"><ele>68.0</ele><time>2026-04-06T06:53:15.998Z</time></trkpt><trkpt lat="44.94263164838634" lon="9.910458152044953"><ele>68.0</ele><time>2026-04-06T06:53:16.998Z</time></trkpt><trkpt lat="44.94255750423325" lon="9.910424134535367"><ele>68.33333333333334</ele><time>2026-04-06T06:53:17.998Z</time></trkpt><trkpt lat="44.942481567138614" lon="9.910398013878119"><ele>68.66666666666667</ele><time>2026-04-06T06:53:18.998Z</time></trkpt><trkpt lat="44.942403332841515" lon="9.910379242352027"><ele>69.0</ele><time>2026-04-06T06:53:19.998Z</time></trkpt><trkpt lat="44.94232784780741" lon="9.910360125884713"><ele>69.33333333333333</ele><time>2026-04-06T06:53:20.998Z</time></trkpt><trkpt lat="44.94225198808642" lon="9.910346207763375"><ele>69.66666666666666</ele><time>2026-04-06T06:53:21.998Z</time></trkpt><trkpt lat="44.94217667335986" lon="9.910336179752658"><ele>70.0</ele><time>2026-04-06T06:53:22.998Z</time></trkpt><trkpt lat="44.942101803978545" lon="9.910324039112421"><ele>70.0</ele><time>2026-04-06T06:53:23.998Z</time></trkpt><trkpt lat="44.942027543540995" lon="9.910314090355273"><ele>70.0</ele><time>2026-04-06T06:53:24.998Z</time></trkpt><trkpt lat="44.941951757375634" lon="9.91030455293031"><ele>70.0</ele><time>2026-04-06T06:53:25.998Z</time></trkpt><trkpt lat="44.94187525064622" lon="9.91029159664129"><ele>70.0</ele><time>2026-04-06T06:53:26.998Z</time></trkpt><trkpt lat="44.941799143114295" lon="9.910287844315935"><ele>70.0</ele><time>2026-04-06T06:53:27.998Z</time></trkpt><trkpt lat="44.941720834285675" lon="9.910283721743635"><ele>70.0</ele><time>2026-04-06T06:53:28.998Z</time></trkpt><trkpt lat="44.9416448903113" lon="9.910278685741245"><ele>69.83333333333333</ele><time>2026-04-06T06:53:29.998Z</time></trkpt><trkpt lat="44.941567269428326" lon="9.910275290472285"><ele>69.66666666666666</ele><time>2026-04-06T06:53:30.998Z</time></trkpt><trkpt lat="44.94148887714838" lon="9.910270339008369"><ele>69.5</ele><time>2026-04-06T06:53:31.998Z</time></trkpt><trkpt lat="44.94141131699853" lon="9.910266108783345"><ele>69.33333333333333</ele><time>2026-04-06T06:53:32.998Z</time></trkpt><trkpt lat="44.94133347969239" lon="9.91026725896742"><ele>69.16666666666667</ele><time>2026-04-06T06:53:33.998Z</time></trkpt><trkpt lat="44.94125443911778" lon="9.910265334114706"><ele>69.0</ele><time>2026-04-06T06:53:34.998Z</time></trkpt><trkpt lat="44.94117467799848" lon="9.910271703237322"><ele>69.0</ele><time>2026-04-06T06:53:35.998Z</time></trkpt><trkpt lat="44.94109657066664" lon="9.910277019609383"><ele>69.0</ele><time>2026-04-06T06:53:36.998Z</time></trkpt><trkpt lat="44.94101648447952" lon="9.910286330824992"><ele>69.0</ele><time>2026-04-06T06:53:37.998Z</time></trkpt><trkpt lat="44.940937001449285" lon="9.910301853553198"><ele>69.0</ele><time>2026-04-06T06:53:38.998Z</time></trkpt><trkpt lat="44.94085972613478" lon="9.910315506016936"><ele>69.0</ele><time>2026-04-06T06:53:39.998Z</time></trkpt><trkpt lat="44.9407813734083" lon="9.91032567156083"><ele>69.0</ele><time>2026-04-06T06:53:40.998Z</time></trkpt><trkpt lat="44.94070386383346" lon="9.910336220284552"><ele>69.33333333333333</ele><time>2026-04-06T06:53:41.998Z</time></trkpt><trkpt lat="44.940625663270644" lon="9.910349569171967"><ele>69.66666666666667</ele><time>2026-04-06T06:53:42.998Z</time></trkpt><trkpt lat="44.94054873031437" lon="9.910360573157988"><ele>70.0</ele><time>2026-04-06T06:53:43.998Z</time></trkpt><trkpt lat="44.94047049931508" lon="9.910373893171215"><ele>70.33333333333334</ele><time>2026-04-06T06:53:44.998Z</time></trkpt><trkpt lat="44.94039323924239" lon="9.910387471839618"><ele>70.66666666666667</ele><time>2026-04-06T06:53:45.998Z</time></trkpt><trkpt lat="44.94031519100697" lon="9.910397778807514"><ele>71.0</ele><time>2026-04-06T06:53:46.998Z</time></trkpt><trkpt lat="44.940236398220186" lon="9.910409478624072"><ele>71.0</ele><time>2026-04-06T06:53:47.998Z</time></trkpt><trkpt lat="44.94015889794564" lon="9.91041867472789"><ele>71.0</ele><time>2026-04-06T06:53:48.998Z</time></trkpt><trkpt lat="44.940081689843865" lon="9.910427567073619"><ele>71.0</ele><time>2026-04-06T06:53:49.998Z</time></trkpt><trkpt lat="44.940005297464" lon="9.910439495906136"><ele>71.0</ele><time>2026-04-06T06:53:50.998Z</time></trkpt><trkpt lat="44.939926774707644" lon="9.910447347937241"><ele>71.0</ele><time>2026-04-06T06:53:52Z</time></trkpt><trkpt lat="44.93985182730142" lon="9.91045547541578"><ele>71.0</ele><time>2026-04-06T06:53:53Z</time></trkpt><trkpt lat="44.939776933134524" lon="9.910463915696452"><ele>71.33333333333334</ele><time>2026-04-06T06:53:54Z</time></trkpt><trkpt lat="44.93969963978753" lon="9.910471551055581"><ele>71.66666666666667</ele><time>2026-04-06T06:53:55Z</time></trkpt><trkpt lat="44.93962262081329" lon="9.910474500369983"><ele>72.0</ele><time>2026-04-06T06:53:56Z</time></trkpt><trkpt lat="44.939545403374346" lon="9.910473929223865"><ele>72.33333333333333</ele><time>2026-04-06T06:53:57Z</time></trkpt><trkpt lat="44.93946834581312" lon="9.910469114276475"><ele>72.66666666666666</ele><time>2026-04-06T06:53:58Z</time></trkpt><trkpt lat="44.939392959993086" lon="9.91045661319242"><ele>73.0</ele><time>2026-04-06T06:53:59Z</time></trkpt><trkpt lat="44.93931521838018" lon="9.910436552300794"><ele>73.0</ele><time>2026-04-06T06:54:00Z</time></trkpt><trkpt lat="44.9392366282006" lon="9.91041696828858"><ele>73.0</ele><time>2026-04-06T06:54:01Z</time></trkpt><trkpt lat="44.93916342244532" lon="9.910391012679439"><ele>73.0</ele><time>2026-04-06T06:54:02Z</time></trkpt><trkpt lat="44.939090164526455" lon="9.910354531402971"><ele>73.0</ele><time>2026-04-06T06:54:03Z</time></trkpt><trkpt lat="44.93901594373353" lon="9.910319280591745"><ele>73.0</ele><time>2026-04-06T06:54:04Z</time></trkpt><trkpt lat="44.93894170671043" lon="9.910282569354587"><ele>73.0</ele><time>2026-04-06T06:54:05Z</time></trkpt><trkpt lat="44.938867649195004" lon="9.91024581334435"><ele>73.0</ele><time>2026-04-06T06:54:06Z</time></trkpt><trkpt lat="44.93879272166704" lon="9.910210479990269"><ele>73.0</ele><time>2026-04-06T06:54:07Z</time></trkpt><trkpt lat="44.93871816665971" lon="9.910176542162056"><ele>73.0</ele><time>2026-04-06T06:54:08Z</time></trkpt><trkpt lat="44.93864251806432" lon="9.910147967113566"><ele>73.0</ele><time>2026-04-06T06:54:09Z</time></trkpt><trkpt lat="44.938565955534195" lon="9.910119945421554"><ele>73.0</ele><time>2026-04-06T06:54:10Z</time></trkpt><trkpt lat="44.93849173768844" lon="9.910092597203242"><ele>73.0</ele><time>2026-04-06T06:54:11Z</time></trkpt><trkpt lat="44.93841506239481" lon="9.910068868514662"><ele>73.0</ele><time>2026-04-06T06:54:12Z</time></trkpt><trkpt lat="44.93833992268734" lon="9.910053841636985"><ele>73.0</ele><time>2026-04-06T06:54:12.999Z</time></trkpt><trkpt lat="44.93826452116043" lon="9.91003752104318"><ele>73.0</ele><time>2026-04-06T06:54:13.999Z</time></trkpt><trkpt lat="44.938188418101404" lon="9.910022213547222"><ele>73.0</ele><time>2026-04-06T06:54:14.999Z</time></trkpt><trkpt lat="44.93811324136793" lon="9.910001063356985"><ele>73.0</ele><time>2026-04-06T06:54:15.999Z</time></trkpt><trkpt lat="44.93803697990437" lon="9.909983008160582"><ele>73.0</ele><time>2026-04-06T06:54:16.999Z</time></trkpt><trkpt lat="44.93796113803137" lon="9.909964994312583"><ele>73.0</ele><time>2026-04-06T06:54:17.999Z</time></trkpt><trkpt lat="44.93788433741167" lon="9.909948187853274"><ele>73.0</ele><time>2026-04-06T06:54:18.999Z</time></trkpt><trkpt lat="44.93780909332126" lon="9.909927747432649"><ele>73.0</ele><time>2026-04-06T06:54:19.999Z</time></trkpt><trkpt lat="44.937736251197414" lon="9.90990712337249"><ele>73.0</ele><time>2026-04-06T06:54:20.999Z</time></trkpt><trkpt lat="44.93766449607536" lon="9.909886882141832"><ele>73.0</ele><time>2026-04-06T06:54:21.999Z</time></trkpt><trkpt lat="44.93759572726383" lon="9.909862730277505"><ele>73.0</ele><time>2026-04-06T06:54:22.999Z</time></trkpt><trkpt lat="44.9375302274311" lon="9.909843590708434"><ele>73.0</ele><time>2026-04-06T06:54:23.999Z</time></trkpt><trkpt lat="44.93747033765249" lon="9.90981618927808"><ele>73.0</ele><time>2026-04-06T06:54:24.999Z</time></trkpt><trkpt lat="44.937408096310584" lon="9.909793006575208"><ele>73.0</ele><time>2026-04-06T06:54:25.999Z</time></trkpt><trkpt lat="44.93733860821803" lon="9.909765103043068"><ele>73.0</ele><time>2026-04-06T06:54:26.999Z</time></trkpt><trkpt lat="44.937268964786014" lon="9.909732647637213"><ele>73.0</ele><time>2026-04-06T06:54:27.999Z</time></trkpt><trkpt lat="44.937195939305816" lon="9.909701207440039"><ele>73.0</ele><time>2026-04-06T06:54:28.999Z</time></trkpt><trkpt lat="44.93712361138872" lon="9.909676046134077"><ele>73.0</ele><time>2026-04-06T06:54:29.999Z</time></trkpt><trkpt lat="44.93705073945347" lon="9.90964900191825"><ele>73.0</ele><time>2026-04-06T06:54:30.999Z</time></trkpt><trkpt lat="44.93697466125303" lon="9.909622286358923"><ele>73.0</ele><time>2026-04-06T06:54:31.999Z</time></trkpt><trkpt lat="44.93689972130058" lon="9.90959744423084"><ele>73.0</ele><time>2026-04-06T06:54:32.999Z</time></trkpt><trkpt lat="44.93682498118532" lon="9.909570558581297"><ele>73.0</ele><time>2026-04-06T06:54:33.999Z</time></trkpt><trkpt lat="44.936749574365166" lon="9.909544367382335"><ele>73.0</ele><time>2026-04-06T06:54:34.999Z</time></trkpt><trkpt lat="44.93667382006171" lon="9.909521774223649"><ele>73.0</ele><time>2026-04-06T06:54:35.999Z</time></trkpt><trkpt lat="44.936596177385425" lon="9.909507013010627"><ele>73.0</ele><time>2026-04-06T06:54:36.999Z</time></trkpt><trkpt lat="44.936519018258096" lon="9.909492856648928"><ele>73.16666666666666</ele><time>2026-04-06T06:54:37.999Z</time></trkpt><trkpt lat="44.936443368640944" lon="9.909484644074324"><ele>73.33333333333333</ele><time>2026-04-06T06:54:38.999Z</time></trkpt><trkpt lat="44.93636742928257" lon="9.909482682868875"><ele>73.5</ele><time>2026-04-06T06:54:39.999Z</time></trkpt><trkpt lat="44.93629089464773" lon="9.909477921831362"><ele>73.66666666666667</ele><time>2026-04-06T06:54:40.999Z</time></trkpt><trkpt lat="44.93621539716141" lon="9.909473493008921"><ele>73.83333333333334</ele><time>2026-04-06T06:54:41.999Z</time></trkpt><trkpt lat="44.936139434912484" lon="9.90947164765723"><ele>74.0</ele><time>2026-04-06T06:54:42.999Z</time></trkpt><trkpt lat="44.93606386768708" lon="9.909473264669819"><ele>74.0</ele><time>2026-04-06T06:54:43.999Z</time></trkpt><trkpt lat="44.935987570823045" lon="9.90946075440994"><ele>74.0</ele><time>2026-04-06T06:54:44.999Z</time></trkpt><trkpt lat="44.935914056684474" lon="9.909453095863174"><ele>74.0</ele><time>2026-04-06T06:54:45.999Z</time></trkpt><trkpt lat="44.93584073529621" lon="9.909447260876714"><ele>74.0</ele><time>2026-04-06T06:54:46.999Z</time></trkpt><trkpt lat="44.93577086790233" lon="9.90943775020215"><ele>74.0</ele><time>2026-04-06T06:54:47.999Z</time></trkpt><trkpt lat="44.93570233103432" lon="9.909430228583776"><ele>74.0</ele><time>2026-04-06T06:54:48.999Z</time></trkpt><trkpt lat="44.935635805989676" lon="9.909423116989984"><ele>74.0</ele><time>2026-04-06T06:54:49.999Z</time></trkpt><trkpt lat="44.9355706918872" lon="9.90942051229388"><ele>74.0</ele><time>2026-04-06T06:54:50.999Z</time></trkpt><trkpt lat="44.93544226920829" lon="9.909406021992957"><ele>74.0</ele><time>2026-04-06T06:54:52.999Z</time></trkpt><trkpt lat="44.93537758024988" lon="9.909394185634461"><ele>74.0</ele><time>2026-04-06T06:54:53.999Z</time></trkpt><trkpt lat="44.93531130942417" lon="9.909383166625245"><ele>74.0</ele><time>2026-04-06T06:54:54.999Z</time></trkpt><trkpt lat="44.93524613347922" lon="9.909371976369304"><ele>74.0</ele><time>2026-04-06T06:54:55.999Z</time></trkpt><trkpt lat="44.9351716210552" lon="9.909337466870065"><ele>74.0</ele><time>2026-04-06T06:54:56.999Z</time></trkpt><trkpt lat="44.93510212195503" lon="9.909313505393715"><ele>74.14285714285714</ele><time>2026-04-06T06:54:57.999Z</time></trkpt><trkpt lat="44.93503166303259" lon="9.90929046457869"><ele>74.28571428571428</ele><time>2026-04-06T06:54:58.999Z</time></trkpt><trkpt lat="44.9349611673992" lon="9.909265427412075"><ele>74.42857142857142</ele><time>2026-04-06T06:54:59.999Z</time></trkpt><trkpt lat="44.93489007978372" lon="9.909241063585718"><ele>74.57142857142857</ele><time>2026-04-06T06:55:00.999Z</time></trkpt><trkpt lat="44.93482063577456" lon="9.909219945712286"><ele>74.71428571428571</ele><time>2026-04-06T06:55:01.999Z</time></trkpt><trkpt lat="44.93474901609473" lon="9.909195615724363"><ele>74.85714285714285</ele><time>2026-04-06T06:55:02.999Z</time></trkpt><trkpt lat="44.93467269485434" lon="9.909168509753258"><ele>75.0</ele><time>2026-04-06T06:55:03.999Z</time></trkpt><trkpt lat="44.93459559695602" lon="9.909142638683154"><ele>75.16666666666667</ele><time>2026-04-06T06:55:04.999Z</time></trkpt><trkpt lat="44.93451629711435" lon="9.909112860949936"><ele>75.33333333333333</ele><time>2026-04-06T06:55:05.999Z</time></trkpt><trkpt lat="44.934435135348416" lon="9.90908396601925"><ele>75.5</ele><time>2026-04-06T06:55:06.999Z</time></trkpt><trkpt lat="44.93435304346885" lon="9.909057372687519"><ele>75.66666666666666</ele><time>2026-04-06T06:55:07.999Z</time></trkpt><trkpt lat="44.934269139925824" lon="9.90903141823495"><ele>75.83333333333333</ele><time>2026-04-06T06:55:08.999Z</time></trkpt><trkpt lat="44.93418498970122" lon="9.908998775429586"><ele>76.0</ele><time>2026-04-06T06:55:09.999Z</time></trkpt><trkpt lat="44.93410021049321" lon="9.90895666165316"><ele>76.0</ele><time>2026-04-06T06:55:10.998Z</time></trkpt><trkpt lat="44.9340170237982" lon="9.908905497418383"><ele>76.0</ele><time>2026-04-06T06:55:11.998Z</time></trkpt><trkpt lat="44.93393675377558" lon="9.90885033990609"><ele>76.0</ele><time>2026-04-06T06:55:12.998Z</time></trkpt><trkpt lat="44.93385962719512" lon="9.908792338149327"><ele>76.0</ele><time>2026-04-06T06:55:13.998Z</time></trkpt><trkpt lat="44.93378378511278" lon="9.908725543039846"><ele>76.0</ele><time>2026-04-06T06:55:14.998Z</time></trkpt><trkpt lat="44.93371194139851" lon="9.908669958890094"><ele>76.0</ele><time>2026-04-06T06:55:15.998Z</time></trkpt><trkpt lat="44.93363458260674" lon="9.908619011774297"><ele>76.0</ele><time>2026-04-06T06:55:16.998Z</time></trkpt><trkpt lat="44.933570903735756" lon="9.908557569933793"><ele>76.0</ele><time>2026-04-06T06:55:17.998Z</time></trkpt><trkpt lat="44.933500994011375" lon="9.908485830258527"><ele>76.0</ele><time>2026-04-06T06:55:18.998Z</time></trkpt><trkpt lat="44.93343943753436" lon="9.90842579527307"><ele>76.0</ele><time>2026-04-06T06:55:19.998Z</time></trkpt><trkpt lat="44.933371740510225" lon="9.908365622775342"><ele>76.0</ele><time>2026-04-06T06:55:20.998Z</time></trkpt><trkpt lat="44.93331029048969" lon="9.908306642001252"><ele>76.0</ele><time>2026-04-06T06:55:21.998Z</time></trkpt><trkpt lat="44.93324710449691" lon="9.908250124765843"><ele>76.16666666666666</ele><time>2026-04-06T06:55:22.998Z</time></trkpt><trkpt lat="44.93318613924394" lon="9.908200452399207"><ele>76.33333333333333</ele><time>2026-04-06T06:55:23.998Z</time></trkpt><trkpt lat="44.93312911858246" lon="9.908149242213828"><ele>76.5</ele><time>2026-04-06T06:55:24.998Z</time></trkpt><trkpt lat="44.933076524292225" lon="9.908099951149559"><ele>76.66666666666667</ele><time>2026-04-06T06:55:25.998Z</time></trkpt><trkpt lat="44.93297366800733" lon="9.908008194581711"><ele>76.83333333333334</ele><time>2026-04-06T06:55:27.998Z</time></trkpt><trkpt lat="44.93287616885605" lon="9.907926732390179"><ele>77.0</ele><time>2026-04-06T06:55:29.998Z</time></trkpt><trkpt lat="44.93278554836354" lon="9.907841929178364"><ele>77.0</ele><time>2026-04-06T06:55:31.998Z</time></trkpt><trkpt lat="44.93269252707971" lon="9.907758019398692"><ele>77.0</ele><time>2026-04-06T06:55:33.998Z</time></trkpt><trkpt lat="44.932590908443444" lon="9.907669510963226"><ele>77.0</ele><time>2026-04-06T06:55:35.998Z</time></trkpt><trkpt lat="44.93249127123531" lon="9.907579149021128"><ele>77.0</ele><time>2026-04-06T06:55:37.998Z</time></trkpt><trkpt lat="44.932401940315735" lon="9.907480577793596"><ele>77.5</ele><time>2026-04-06T06:55:39.998Z</time></trkpt><trkpt lat="44.93232427594864" lon="9.907358412705149"><ele>78.0</ele><time>2026-04-06T06:55:41.998Z</time></trkpt><trkpt lat="44.93224655744083" lon="9.90723075286331"><ele>78.5</ele><time>2026-04-06T06:55:43.998Z</time></trkpt><trkpt lat="44.93217359948317" lon="9.907103562182899"><ele>79.0</ele><time>2026-04-06T06:55:45.998Z</time></trkpt><trkpt lat="44.9321037698608" lon="9.906981727101575"><ele>79.0</ele><time>2026-04-06T06:55:47.998Z</time></trkpt><trkpt lat="44.932031519002734" lon="9.906856112292521"><ele>79.0</ele><time>2026-04-06T06:55:49.998Z</time></trkpt><trkpt lat="44.93195768935092" lon="9.9067310866502"><ele>79.0</ele><time>2026-04-06T06:55:51.998Z</time></trkpt><trkpt lat="44.931903089242226" lon="9.906609908185732"><ele>79.0</ele><time>2026-04-06T06:55:53.998Z</time></trkpt><trkpt lat="44.93184969098543" lon="9.906501098874458"><ele>79.0</ele><time>2026-04-06T06:55:55.998Z</time></trkpt><trkpt lat="44.93179602779826" lon="9.906411822943738"><ele>79.0</ele><time>2026-04-06T06:55:58Z</time></trkpt><trkpt lat="44.931755984262914" lon="9.906336126157912"><ele>79.0</ele><time>2026-04-06T06:56:00Z</time></trkpt><trkpt lat="44.93175085066471" lon="9.906226014234331"><ele>79.0</ele><time>2026-04-06T06:56:03Z</time></trkpt><trkpt lat="44.931813387805974" lon="9.906106726288504"><ele>79.0</ele><time>2026-04-06T06:56:05Z</time></trkpt><trkpt lat="44.93189514407126" lon="9.905980235421195"><ele>79.0</ele><time>2026-04-06T06:56:07Z</time></trkpt><trkpt lat="44.93193212523939" lon="9.905903677865114"><ele>79.0</ele><time>2026-04-06T06:56:08Z</time></trkpt><trkpt lat="44.93196793513653" lon="9.905824932919103"><ele>79.14285714285715</ele><time>2026-04-06T06:56:09Z</time></trkpt><trkpt lat="44.932006810633716" lon="9.905744285079495"><ele>79.28571428571429</ele><time>2026-04-06T06:56:10Z</time></trkpt><trkpt lat="44.93204844825294" lon="9.905661569343055"><ele>79.42857142857143</ele><time>2026-04-06T06:56:11Z</time></trkpt><trkpt lat="44.93209175576778" lon="9.905575907942776"><ele>79.57142857142858</ele><time>2026-04-06T06:56:12Z</time></trkpt><trkpt lat="44.932138387752865" lon="9.905491522907528"><ele>79.71428571428572</ele><time>2026-04-06T06:56:13Z</time></trkpt><trkpt lat="44.93218408779229" lon="9.905410853021596"><ele>79.85714285714286</ele><time>2026-04-06T06:56:14Z</time></trkpt><trkpt lat="44.932231242487646" lon="9.905330577517828"><ele>80.0</ele><time>2026-04-06T06:56:15Z</time></trkpt><trkpt lat="44.93227770858506" lon="9.905251540832154"><ele>80.0</ele><time>2026-04-06T06:56:16Z</time></trkpt><trkpt lat="44.93232277700871" lon="9.905170543935466"><ele>80.0</ele><time>2026-04-06T06:56:16.999Z</time></trkpt><trkpt lat="44.93236686507006" lon="9.905095489641514"><ele>80.0</ele><time>2026-04-06T06:56:17.999Z</time></trkpt><trkpt lat="44.932439817476485" lon="9.904972052684748"><ele>80.0</ele><time>2026-04-06T06:56:19.999Z</time></trkpt><trkpt lat="44.93251200655019" lon="9.904841119352726"><ele>80.0</ele><time>2026-04-06T06:56:21.999Z</time></trkpt><trkpt lat="44.9325763697474" lon="9.904704527751425"><ele>79.8</ele><time>2026-04-06T06:56:23.999Z</time></trkpt><trkpt lat="44.932632696452345" lon="9.904606107216958"><ele>79.6</ele><time>2026-04-06T06:56:25.999Z</time></trkpt><trkpt lat="44.93252457408419" lon="9.90441795705001"><ele>79.4</ele><time>2026-04-06T06:56:27.999Z</time></trkpt><trkpt lat="44.93246922699473" lon="9.90436962792416"><ele>79.2</ele><time>2026-04-06T06:56:28.999Z</time></trkpt><trkpt lat="44.93240499351547" lon="9.904318547658997"><ele>79.0</ele><time>2026-04-06T06:56:29.999Z</time></trkpt><trkpt lat="44.93233973691431" lon="9.904272642646761"><ele>79.00000000000001</ele><time>2026-04-06T06:56:30.999Z</time></trkpt><trkpt lat="44.93227566272574" lon="9.904228558323956"><ele>79.0</ele><time>2026-04-06T06:56:31.999Z</time></trkpt><trkpt lat="44.93221114814834" lon="9.90417535567727"><ele>79.0</ele><time>2026-04-06T06:56:32.999Z</time></trkpt><trkpt lat="44.93214808266843" lon="9.904125730651081"><ele>79.0</ele><time>2026-04-06T06:56:33.999Z</time></trkpt><trkpt lat="44.93208282627432" lon="9.904070805209205"><ele>79.0</ele><time>2026-04-06T06:56:34.999Z</time></trkpt><trkpt lat="44.93201504275191" lon="9.904013956672445"><ele>79.00000000000001</ele><time>2026-04-06T06:56:35.999Z</time></trkpt><trkpt lat="44.931953409612454" lon="9.903951006869653"><ele>79.0</ele><time>2026-04-06T06:56:36.999Z</time></trkpt><trkpt lat="44.93188966103535" lon="9.903886809631432"><ele>79.0</ele><time>2026-04-06T06:56:37.999Z</time></trkpt><trkpt lat="44.93182459947672" lon="9.90382122622041"><ele>79.0</ele><time>2026-04-06T06:56:38.999Z</time></trkpt><trkpt lat="44.931757620796425" lon="9.903759644305175"><ele>79.0</ele><time>2026-04-06T06:56:39.999Z</time></trkpt><trkpt lat="44.93169166649159" lon="9.90370019006947"><ele>79.0</ele><time>2026-04-06T06:56:40.999Z</time></trkpt><trkpt lat="44.93162255388469" lon="9.903642920945746"><ele>79.0</ele><time>2026-04-06T06:56:41.999Z</time></trkpt><trkpt lat="44.93155810763764" lon="9.903583782734234"><ele>79.0</ele><time>2026-04-06T06:56:42.999Z</time></trkpt><trkpt lat="44.9314915808963" lon="9.903529716359165"><ele>79.14285714285715</ele><time>2026-04-06T06:56:43.999Z</time></trkpt><trkpt lat="44.93142805494923" lon="9.903478145300838"><ele>79.28571428571429</ele><time>2026-04-06T06:56:44.999Z</time></trkpt><trkpt lat="44.93136628121178" lon="9.903421606643608"><ele>79.42857142857143</ele><time>2026-04-06T06:56:45.999Z</time></trkpt><trkpt lat="44.931303265749136" lon="9.903371828318821"><ele>79.57142857142858</ele><time>2026-04-06T06:56:46.999Z</time></trkpt><trkpt lat="44.93124045348265" lon="9.903331467653514"><ele>79.71428571428572</ele><time>2026-04-06T06:56:47.999Z</time></trkpt><trkpt lat="44.93117836732985" lon="9.903287863752942"><ele>79.85714285714286</ele><time>2026-04-06T06:56:48.999Z</time></trkpt><trkpt lat="44.931116032045765" lon="9.903244928236006"><ele>80.0</ele><time>2026-04-06T06:56:49.999Z</time></trkpt><trkpt lat="44.93105496381115" lon="9.903202688105551"><ele>80.0</ele><time>2026-04-06T06:56:50.999Z</time></trkpt><trkpt lat="44.93098959977874" lon="9.90316431148217"><ele>80.0</ele><time>2026-04-06T06:56:51.999Z</time></trkpt><trkpt lat="44.93092504964624" lon="9.903118666143849"><ele>80.0</ele><time>2026-04-06T06:56:52.999Z</time></trkpt><trkpt lat="44.93086142390796" lon="9.903069656349095"><ele>80.0</ele><time>2026-04-06T06:56:53.999Z</time></trkpt><trkpt lat="44.93079779941499" lon="9.903024170538366"><ele>80.0</ele><time>2026-04-06T06:56:54.999Z</time></trkpt><trkpt lat="44.93073033949597" lon="9.902983885771205"><ele>80.0</ele><time>2026-04-06T06:56:55.999Z</time></trkpt><trkpt lat="44.930661538779326" lon="9.902948180872789"><ele>80.0</ele><time>2026-04-06T06:56:56.999Z</time></trkpt><trkpt lat="44.9305932619244" lon="9.902916613358668"><ele>79.85714285714286</ele><time>2026-04-06T06:56:57.999Z</time></trkpt><trkpt lat="44.93052319374986" lon="9.90288889967823"><ele>79.71428571428572</ele><time>2026-04-06T06:56:58.999Z</time></trkpt><trkpt lat="44.930452452080694" lon="9.902863274256257"><ele>79.57142857142858</ele><time>2026-04-06T06:56:59.999Z</time></trkpt><trkpt lat="44.930381541990485" lon="9.902837170440135"><ele>79.42857142857143</ele><time>2026-04-06T06:57:00.999Z</time></trkpt><trkpt lat="44.93030984988314" lon="9.902810126128779"><ele>79.28571428571429</ele><time>2026-04-06T06:57:01.999Z</time></trkpt><trkpt lat="44.93023918569978" lon="9.902782774863507"><ele>79.14285714285715</ele><time>2026-04-06T06:57:02.999Z</time></trkpt><trkpt lat="44.9301669424135" lon="9.902758627351462"><ele>79.0</ele><time>2026-04-06T06:57:03.999Z</time></trkpt><trkpt lat="44.93009705136194" lon="9.90273311145113"><ele>78.71428571428572</ele><time>2026-04-06T06:57:04.999Z</time></trkpt><trkpt lat="44.930024412353745" lon="9.902704248472206"><ele>78.42857142857143</ele><time>2026-04-06T06:57:05.999Z</time></trkpt><trkpt lat="44.92995334499742" lon="9.902681838400115"><ele>78.14285714285714</ele><time>2026-04-06T06:57:06.999Z</time></trkpt><trkpt lat="44.92988281691382" lon="9.902656196030785"><ele>77.85714285714286</ele><time>2026-04-06T06:57:07.999Z</time></trkpt><trkpt lat="44.92981221686369" lon="9.902628422648533"><ele>77.57142857142857</ele><time>2026-04-06T06:57:08.999Z</time></trkpt><trkpt lat="44.92974054315881" lon="9.902601094410889"><ele>77.28571428571429</ele><time>2026-04-06T06:57:09.999Z</time></trkpt><trkpt lat="44.929669621477906" lon="9.902578411929865"><ele>77.0</ele><time>2026-04-06T06:57:10.999Z</time></trkpt><trkpt lat="44.929598031131945" lon="9.902555761144573"><ele>77.0</ele><time>2026-04-06T06:57:11.999Z</time></trkpt><trkpt lat="44.92953004634798" lon="9.902528797753325"><ele>77.0</ele><time>2026-04-06T06:57:12.999Z</time></trkpt><trkpt lat="44.9294624572918" lon="9.90250176510022"><ele>77.0</ele><time>2026-04-06T06:57:13.998Z</time></trkpt><trkpt lat="44.92939831210687" lon="9.902475835257414"><ele>77.0</ele><time>2026-04-06T06:57:14.998Z</time></trkpt><trkpt lat="44.9293353794016" lon="9.902448297322032"><ele>77.0</ele><time>2026-04-06T06:57:15.998Z</time></trkpt><trkpt lat="44.92922279294711" lon="9.90239786043993"><ele>77.0</ele><time>2026-04-06T06:57:17.998Z</time></trkpt><trkpt lat="44.92913311917452" lon="9.902320201760617"><ele>77.33333333333334</ele><time>2026-04-06T06:57:19.998Z</time></trkpt><trkpt lat="44.92908993100142" lon="9.902180727007407"><ele>77.66666666666667</ele><time>2026-04-06T06:57:21.998Z</time></trkpt><trkpt lat="44.92910900060917" lon="9.902006807127089"><ele>78.0</ele><time>2026-04-06T06:57:23.998Z</time></trkpt><trkpt lat="44.92913944846007" lon="9.901912808343031"><ele>78.33333333333333</ele><time>2026-04-06T06:57:24.998Z</time></trkpt><trkpt lat="44.9291630113061" lon="9.901818256112069"><ele>78.66666666666666</ele><time>2026-04-06T06:57:25.998Z</time></trkpt><trkpt lat="44.929183547238864" lon="9.901724137374417"><ele>79.0</ele><time>2026-04-06T06:57:26.998Z</time></trkpt><trkpt lat="44.92920493553179" lon="9.90162667530994"><ele>79.00000000000001</ele><time>2026-04-06T06:57:27.998Z</time></trkpt><trkpt lat="44.929225629069954" lon="9.901532572101416"><ele>79.0</ele><time>2026-04-06T06:57:28.998Z</time></trkpt><trkpt lat="44.929247227402705" lon="9.901436572492752"><ele>79.0</ele><time>2026-04-06T06:57:29.998Z</time></trkpt><trkpt lat="44.929270607995775" lon="9.901341858111126"><ele>79.0</ele><time>2026-04-06T06:57:30.998Z</time></trkpt><trkpt lat="44.92929366022229" lon="9.901242518256497"><ele>79.0</ele><time>2026-04-06T06:57:31.998Z</time></trkpt><trkpt lat="44.92931659140586" lon="9.9011458787492"><ele>79.00000000000001</ele><time>2026-04-06T06:57:32.998Z</time></trkpt><trkpt lat="44.929338757922224" lon="9.901047172914293"><ele>79.0</ele><time>2026-04-06T06:57:33.998Z</time></trkpt><trkpt lat="44.92936295393131" lon="9.900947165408747"><ele>79.00000000000001</ele><time>2026-04-06T06:57:34.998Z</time></trkpt><trkpt lat="44.9293880618703" lon="9.90084885928954"><ele>79.0</ele><time>2026-04-06T06:57:35.998Z</time></trkpt><trkpt lat="44.929410852085006" lon="9.900747587582895"><ele>79.0</ele><time>2026-04-06T06:57:36.998Z</time></trkpt><trkpt lat="44.9294320851984" lon="9.900646854651496"><ele>79.0</ele><time>2026-04-06T06:57:37.998Z</time></trkpt><trkpt lat="44.92945505645855" lon="9.900547786633457"><ele>79.0</ele><time>2026-04-06T06:57:38.998Z</time></trkpt><trkpt lat="44.92947911892399" lon="9.9004478493205"><ele>79.00000000000001</ele><time>2026-04-06T06:57:39.998Z</time></trkpt><trkpt lat="44.92949775541582" lon="9.900347509565595"><ele>79.0</ele><time>2026-04-06T06:57:40.998Z</time></trkpt><trkpt lat="44.929517753291464" lon="9.900248058080289"><ele>79.00000000000001</ele><time>2026-04-06T06:57:41.998Z</time></trkpt><trkpt lat="44.92953900054416" lon="9.900151084715045"><ele>79.0</ele><time>2026-04-06T06:57:42.998Z</time></trkpt><trkpt lat="44.9295590870363" lon="9.900055147227144"><ele>79.0</ele><time>2026-04-06T06:57:43.998Z</time></trkpt><trkpt lat="44.92957958722883" lon="9.899960873387235"><ele>79.0</ele><time>2026-04-06T06:57:44.998Z</time></trkpt><trkpt lat="44.929598914138985" lon="9.899864965663893"><ele>79.0</ele><time>2026-04-06T06:57:45.998Z</time></trkpt><trkpt lat="44.92962011932556" lon="9.899767417860451"><ele>79.00000000000001</ele><time>2026-04-06T06:57:46.998Z</time></trkpt><trkpt lat="44.92964150969818" lon="9.899666476324912"><ele>79.0</ele><time>2026-04-06T06:57:47.998Z</time></trkpt><trkpt lat="44.929664980652184" lon="9.899559273120527"><ele>79.0</ele><time>2026-04-06T06:57:48.998Z</time></trkpt><trkpt lat="44.92968874534814" lon="9.899453900810055"><ele>79.0</ele><time>2026-04-06T06:57:49.998Z</time></trkpt><trkpt lat="44.92971499250202" lon="9.899345988785543"><ele>79.0</ele><time>2026-04-06T06:57:50.998Z</time></trkpt><trkpt lat="44.929739383618134" lon="9.899240804226338"><ele>79.0</ele><time>2026-04-06T06:57:51.998Z</time></trkpt><trkpt lat="44.92976235380677" lon="9.899135532584461"><ele>79.0</ele><time>2026-04-06T06:57:52.998Z</time></trkpt><trkpt lat="44.92978443055753" lon="9.899029133823456"><ele>79.0</ele><time>2026-04-06T06:57:53.998Z</time></trkpt><trkpt lat="44.92980780359606" lon="9.898922787838906"><ele>79.16666666666666</ele><time>2026-04-06T06:57:54.998Z</time></trkpt><trkpt lat="44.92983041131791" lon="9.898816422137465"><ele>79.33333333333333</ele><time>2026-04-06T06:57:55.998Z</time></trkpt><trkpt lat="44.92985312339564" lon="9.898709989463555"><ele>79.5</ele><time>2026-04-06T06:57:56.998Z</time></trkpt><trkpt lat="44.9298769710002" lon="9.898605368816233"><ele>79.66666666666667</ele><time>2026-04-06T06:57:57.998Z</time></trkpt><trkpt lat="44.92990392311424" lon="9.898499265939675"><ele>79.83333333333334</ele><time>2026-04-06T06:57:58.998Z</time></trkpt><trkpt lat="44.929930193623726" lon="9.898394266603425"><ele>80.0</ele><time>2026-04-06T06:57:59.998Z</time></trkpt><trkpt lat="44.929954906698065" lon="9.898287182761175"><ele>79.5</ele><time>2026-04-06T06:58:00.998Z</time></trkpt><trkpt lat="44.92997917818866" lon="9.8981812472285"><ele>79.0</ele><time>2026-04-06T06:58:01.998Z</time></trkpt><trkpt lat="44.930002585264646" lon="9.898074634974208"><ele>78.5</ele><time>2026-04-06T06:58:02.998Z</time></trkpt><trkpt lat="44.93002384161903" lon="9.897970511560208"><ele>78.0</ele><time>2026-04-06T06:58:04Z</time></trkpt><trkpt lat="44.930049106354986" lon="9.897866900604786"><ele>77.5</ele><time>2026-04-06T06:58:05Z</time></trkpt><trkpt lat="44.930073522951055" lon="9.897760034650023"><ele>77.0</ele><time>2026-04-06T06:58:06Z</time></trkpt><trkpt lat="44.93009882688691" lon="9.897657493586665"><ele>76.33333333333334</ele><time>2026-04-06T06:58:07Z</time></trkpt><trkpt lat="44.930121057837454" lon="9.897552727458395"><ele>75.66666666666667</ele><time>2026-04-06T06:58:08Z</time></trkpt><trkpt lat="44.93014518904862" lon="9.897449198089355"><ele>75.0</ele><time>2026-04-06T06:58:08.999Z</time></trkpt><trkpt lat="44.930167269169345" lon="9.897343397869113"><ele>74.33333333333333</ele><time>2026-04-06T06:58:09.999Z</time></trkpt><trkpt lat="44.93019249038805" lon="9.897240166124396"><ele>73.66666666666666</ele><time>2026-04-06T06:58:11Z</time></trkpt><trkpt lat="44.93021456210648" lon="9.897138518971015"><ele>73.0</ele><time>2026-04-06T06:58:11.999Z</time></trkpt><trkpt lat="44.930236953727906" lon="9.897036502189433"><ele>73.0</ele><time>2026-04-06T06:58:13Z</time></trkpt><trkpt lat="44.930262748588895" lon="9.896935857255242"><ele>73.0</ele><time>2026-04-06T06:58:14Z</time></trkpt><trkpt lat="44.93028344046435" lon="9.896832589464008"><ele>73.0</ele><time>2026-04-06T06:58:15Z</time></trkpt><trkpt lat="44.93030642585127" lon="9.89672784167649"><ele>73.0</ele><time>2026-04-06T06:58:16Z</time></trkpt><trkpt lat="44.93033110070194" lon="9.896625249632459"><ele>73.0</ele><time>2026-04-06T06:58:17Z</time></trkpt><trkpt lat="44.930354539748116" lon="9.896522310497355"><ele>73.0</ele><time>2026-04-06T06:58:18Z</time></trkpt><trkpt lat="44.93037574794959" lon="9.896422897578873"><ele>73.42857142857143</ele><time>2026-04-06T06:58:19Z</time></trkpt><trkpt lat="44.93039930996595" lon="9.896325065201896"><ele>73.85714285714286</ele><time>2026-04-06T06:58:19.999Z</time></trkpt><trkpt lat="44.93041330519583" lon="9.89622833847032"><ele>74.28571428571428</ele><time>2026-04-06T06:58:20.999Z</time></trkpt><trkpt lat="44.93042973798983" lon="9.896125061038497"><ele>74.71428571428572</ele><time>2026-04-06T06:58:21.999Z</time></trkpt><trkpt lat="44.93044182082858" lon="9.896020146244636"><ele>75.14285714285715</ele><time>2026-04-06T06:58:22.999Z</time></trkpt><trkpt lat="44.930449169273665" lon="9.8959156055328"><ele>75.57142857142857</ele><time>2026-04-06T06:58:23.999Z</time></trkpt><trkpt lat="44.93045376679908" lon="9.89580916417887"><ele>76.0</ele><time>2026-04-06T06:58:24.999Z</time></trkpt><trkpt lat="44.93045046213319" lon="9.89570612296827"><ele>76.28571428571428</ele><time>2026-04-06T06:58:25.999Z</time></trkpt><trkpt lat="44.930446375557594" lon="9.89560312493127"><ele>76.57142857142858</ele><time>2026-04-06T06:58:26.999Z</time></trkpt><trkpt lat="44.93044028866978" lon="9.895502707272742"><ele>76.85714285714286</ele><time>2026-04-06T06:58:27.999Z</time></trkpt><trkpt lat="44.930433192761434" lon="9.895403680859676"><ele>77.14285714285714</ele><time>2026-04-06T06:58:28.999Z</time></trkpt><trkpt lat="44.93043204780574" lon="9.895304891364447"><ele>77.42857142857142</ele><time>2026-04-06T06:58:29.999Z</time></trkpt><trkpt lat="44.93043719175072" lon="9.895203270588032"><ele>77.71428571428572</ele><time>2026-04-06T06:58:30.999Z</time></trkpt><trkpt lat="44.9304425657359" lon="9.895102192086942"><ele>78.0</ele><time>2026-04-06T06:58:31.999Z</time></trkpt><trkpt lat="44.93045563725044" lon="9.894995610796306"><ele>78.0</ele><time>2026-04-06T06:58:32.999Z</time></trkpt><trkpt lat="44.93046864267483" lon="9.894892349538004"><ele>78.0</ele><time>2026-04-06T06:58:33.999Z</time></trkpt><trkpt lat="44.9304881561055" lon="9.894785931489714"><ele>78.0</ele><time>2026-04-06T06:58:34.999Z</time></trkpt><trkpt lat="44.930511833893625" lon="9.894681229760613"><ele>78.0</ele><time>2026-04-06T06:58:35.999Z</time></trkpt><trkpt lat="44.93053513419006" lon="9.894576507760826"><ele>78.0</ele><time>2026-04-06T06:58:36.999Z</time></trkpt><trkpt lat="44.93056050624181" lon="9.894473667195617"><ele>78.0</ele><time>2026-04-06T06:58:37.999Z</time></trkpt><trkpt lat="44.93058576035149" lon="9.894373452678144"><ele>78.0</ele><time>2026-04-06T06:58:38.999Z</time></trkpt><trkpt lat="44.930609193998706" lon="9.894271231250299"><ele>78.0</ele><time>2026-04-06T06:58:39.999Z</time></trkpt><trkpt lat="44.930631368498" lon="9.89417065640789"><ele>78.0</ele><time>2026-04-06T06:58:40.999Z</time></trkpt><trkpt lat="44.93065751986566" lon="9.894075085580418"><ele>78.0</ele><time>2026-04-06T06:58:41.999Z</time></trkpt><trkpt lat="44.930682622548254" lon="9.893977066437847"><ele>78.0</ele><time>2026-04-06T06:58:42.999Z</time></trkpt><trkpt lat="44.93070561375126" lon="9.893882382757115"><ele>78.0</ele><time>2026-04-06T06:58:43.999Z</time></trkpt><trkpt lat="44.93072898133705" lon="9.89378996995997"><ele>78.0</ele><time>2026-04-06T06:58:44.999Z</time></trkpt><trkpt lat="44.93075041567325" lon="9.893701159931792"><ele>78.0</ele><time>2026-04-06T06:58:45.999Z</time></trkpt><trkpt lat="44.930771643250445" lon="9.893614472026488"><ele>78.0</ele><time>2026-04-06T06:58:46.999Z</time></trkpt><trkpt lat="44.93079388512231" lon="9.89352975167215"><ele>78.0</ele><time>2026-04-06T06:58:47.999Z</time></trkpt><trkpt lat="44.930815348856456" lon="9.893439512287971"><ele>78.0</ele><time>2026-04-06T06:58:48.999Z</time></trkpt><trkpt lat="44.93084031140208" lon="9.893345586649179"><ele>78.0</ele><time>2026-04-06T06:58:49.999Z</time></trkpt><trkpt lat="44.930863876530125" lon="9.893250250197053"><ele>78.0</ele><time>2026-04-06T06:58:50.999Z</time></trkpt><trkpt lat="44.93088699405148" lon="9.89315234247625"><ele>78.0</ele><time>2026-04-06T06:58:51.999Z</time></trkpt><trkpt lat="44.930910595285454" lon="9.89305271822891"><ele>78.14285714285715</ele><time>2026-04-06T06:58:52.999Z</time></trkpt><trkpt lat="44.93093436685555" lon="9.89295579989819"><ele>78.28571428571428</ele><time>2026-04-06T06:58:53.999Z</time></trkpt><trkpt lat="44.93095707285705" lon="9.892857406797827"><ele>78.42857142857143</ele><time>2026-04-06T06:58:54.999Z</time></trkpt><trkpt lat="44.930975905583026" lon="9.892755091153639"><ele>78.57142857142858</ele><time>2026-04-06T06:58:55.999Z</time></trkpt><trkpt lat="44.93099206089546" lon="9.892650614234201"><ele>78.71428571428572</ele><time>2026-04-06T06:58:56.999Z</time></trkpt><trkpt lat="44.93100557282601" lon="9.892546792592901"><ele>78.85714285714286</ele><time>2026-04-06T06:58:57.999Z</time></trkpt><trkpt lat="44.9310129511212" lon="9.892443902964335"><ele>79.0</ele><time>2026-04-06T06:58:58.999Z</time></trkpt><trkpt lat="44.93101219386784" lon="9.892334339741804"><ele>79.28571428571429</ele><time>2026-04-06T06:58:59.999Z</time></trkpt><trkpt lat="44.93100930203392" lon="9.89223237710675"><ele>79.57142857142857</ele><time>2026-04-06T06:59:00.999Z</time></trkpt><trkpt lat="44.931000059812206" lon="9.892128538067206"><ele>79.85714285714286</ele><time>2026-04-06T06:59:01.999Z</time></trkpt><trkpt lat="44.93098922432063" lon="9.892028206363571"><ele>80.14285714285714</ele><time>2026-04-06T06:59:02.999Z</time></trkpt><trkpt lat="44.930972983777316" lon="9.891934176058262"><ele>80.42857142857143</ele><time>2026-04-06T06:59:03.999Z</time></trkpt><trkpt lat="44.930955150479264" lon="9.891839803834955"><ele>80.71428571428572</ele><time>2026-04-06T06:59:04.999Z</time></trkpt><trkpt lat="44.93093534118469" lon="9.891749473816976"><ele>81.0</ele><time>2026-04-06T06:59:05.999Z</time></trkpt><trkpt lat="44.930912477687535" lon="9.891656547205198"><ele>81.14285714285714</ele><time>2026-04-06T06:59:06.999Z</time></trkpt><trkpt lat="44.93088964380535" lon="9.891565665455596"><ele>81.28571428571428</ele><time>2026-04-06T06:59:07.999Z</time></trkpt><trkpt lat="44.93086625014348" lon="9.891472938190683"><ele>81.42857142857142</ele><time>2026-04-06T06:59:08.999Z</time></trkpt><trkpt lat="44.93084062947989" lon="9.891384275225446"><ele>81.57142857142857</ele><time>2026-04-06T06:59:09.999Z</time></trkpt><trkpt lat="44.93081222996385" lon="9.891291894456963"><ele>81.71428571428571</ele><time>2026-04-06T06:59:10.999Z</time></trkpt><trkpt lat="44.930784546353756" lon="9.891199684144066"><ele>81.85714285714285</ele><time>2026-04-06T06:59:11.999Z</time></trkpt><trkpt lat="44.93075505249093" lon="9.891107835682192"><ele>82.0</ele><time>2026-04-06T06:59:12.999Z</time></trkpt><trkpt lat="44.93072463909552" lon="9.891016970385023"><ele>81.99999999999999</ele><time>2026-04-06T06:59:13.999Z</time></trkpt><trkpt lat="44.930692083498606" lon="9.890926047438727"><ele>82.0</ele><time>2026-04-06T06:59:14.999Z</time></trkpt><trkpt lat="44.930652125461435" lon="9.890839917861348"><ele>82.0</ele><time>2026-04-06T06:59:15.999Z</time></trkpt><trkpt lat="44.93061439486103" lon="9.890751679152887"><ele>82.0</ele><time>2026-04-06T06:59:16.999Z</time></trkpt><trkpt lat="44.93057621527652" lon="9.890662723768232"><ele>82.0</ele><time>2026-04-06T06:59:17.999Z</time></trkpt><trkpt lat="44.93052914405337" lon="9.89058145048929"><ele>81.99999999999999</ele><time>2026-04-06T06:59:18.999Z</time></trkpt><trkpt lat="44.93048330736875" lon="9.890501701740884"><ele>82.0</ele><time>2026-04-06T06:59:19.998Z</time></trkpt><trkpt lat="44.93043462342919" lon="9.890423216807598"><ele>81.85714285714285</ele><time>2026-04-06T06:59:20.998Z</time></trkpt><trkpt lat="44.93038586160161" lon="9.890354229034406"><ele>81.71428571428571</ele><time>2026-04-06T06:59:21.998Z</time></trkpt><trkpt lat="44.930337980292066" lon="9.890285309607687"><ele>81.57142857142857</ele><time>2026-04-06T06:59:22.998Z</time></trkpt><trkpt lat="44.930288032955296" lon="9.890217647352937"><ele>81.42857142857142</ele><time>2026-04-06T06:59:23.998Z</time></trkpt><trkpt lat="44.930235458058306" lon="9.890148374873734"><ele>81.28571428571428</ele><time>2026-04-06T06:59:24.998Z</time></trkpt><trkpt lat="44.93018373091884" lon="9.890074727325773"><ele>81.14285714285714</ele><time>2026-04-06T06:59:25.998Z</time></trkpt><trkpt lat="44.930135003170726" lon="9.889999978145884"><ele>81.0</ele><time>2026-04-06T06:59:26.998Z</time></trkpt><trkpt lat="44.93008281467521" lon="9.889929121440364"><ele>81.28571428571429</ele><time>2026-04-06T06:59:27.998Z</time></trkpt><trkpt lat="44.930029737661386" lon="9.889859036929323"><ele>81.57142857142857</ele><time>2026-04-06T06:59:28.998Z</time></trkpt><trkpt lat="44.929979219586805" lon="9.889787786453729"><ele>81.85714285714286</ele><time>2026-04-06T06:59:29.998Z</time></trkpt><trkpt lat="44.92992718315087" lon="9.889714452700902"><ele>82.14285714285714</ele><time>2026-04-06T06:59:30.998Z</time></trkpt><trkpt lat="44.92987528178956" lon="9.889643409506665"><ele>82.42857142857143</ele><time>2026-04-06T06:59:31.998Z</time></trkpt><trkpt lat="44.92982440670476" lon="9.889568984836382"><ele>82.71428571428571</ele><time>2026-04-06T06:59:32.998Z</time></trkpt><trkpt lat="44.92977084778324" lon="9.88949722481259"><ele>83.0</ele><time>2026-04-06T06:59:33.998Z</time></trkpt><trkpt lat="44.92971637053944" lon="9.889423644990902"><ele>83.0</ele><time>2026-04-06T06:59:34.998Z</time></trkpt><trkpt lat="44.92966192992096" lon="9.8893516342462"><ele>83.0</ele><time>2026-04-06T06:59:35.998Z</time></trkpt><trkpt lat="44.92960527694752" lon="9.889278573915027"><ele>83.0</ele><time>2026-04-06T06:59:36.998Z</time></trkpt><trkpt lat="44.929549024671395" lon="9.889205536283002"><ele>83.0</ele><time>2026-04-06T06:59:37.998Z</time></trkpt><trkpt lat="44.929494379388515" lon="9.889128526272188"><ele>83.0</ele><time>2026-04-06T06:59:38.998Z</time></trkpt><trkpt lat="44.929439607552794" lon="9.889051452721082"><ele>83.0</ele><time>2026-04-06T06:59:39.998Z</time></trkpt><trkpt lat="44.92938624118207" lon="9.88897239903999"><ele>82.83333333333334</ele><time>2026-04-06T06:59:40.998Z</time></trkpt><trkpt lat="44.929330560930026" lon="9.888895681893455"><ele>82.66666666666667</ele><time>2026-04-06T06:59:41.998Z</time></trkpt><trkpt lat="44.929275357130265" lon="9.888818385788891"><ele>82.5</ele><time>2026-04-06T06:59:42.998Z</time></trkpt><trkpt lat="44.929219406087704" lon="9.888740054715656"><ele>82.33333333333333</ele><time>2026-04-06T06:59:43.998Z</time></trkpt><trkpt lat="44.92916248073933" lon="9.888662284542079"><ele>82.16666666666666</ele><time>2026-04-06T06:59:44.998Z</time></trkpt><trkpt lat="44.92910562872882" lon="9.888585891663926"><ele>82.0</ele><time>2026-04-06T06:59:45.998Z</time></trkpt><trkpt lat="44.9290504869256" lon="9.88850569713092"><ele>82.0</ele><time>2026-04-06T06:59:46.998Z</time></trkpt><trkpt lat="44.928993633194246" lon="9.888427187154754"><ele>82.0</ele><time>2026-04-06T06:59:47.998Z</time></trkpt><trkpt lat="44.928937550522924" lon="9.88835027519184"><ele>82.0</ele><time>2026-04-06T06:59:48.998Z</time></trkpt><trkpt lat="44.92888014948931" lon="9.888270518782114"><ele>82.0</ele><time>2026-04-06T06:59:49.998Z</time></trkpt><trkpt lat="44.92882396966892" lon="9.888193904144732"><ele>82.0</ele><time>2026-04-06T06:59:50.998Z</time></trkpt><trkpt lat="44.9287675281008" lon="9.888119065425593"><ele>82.0</ele><time>2026-04-06T06:59:51.998Z</time></trkpt><trkpt lat="44.928713023123784" lon="9.888041017854139"><ele>82.0</ele><time>2026-04-06T06:59:52.998Z</time></trkpt><trkpt lat="44.928647551198" lon="9.88794443898547"><ele>82.0</ele><time>2026-04-06T06:59:53.998Z</time></trkpt><trkpt lat="44.928576162328554" lon="9.887850975937683"><ele>82.0</ele><time>2026-04-06T06:59:54.998Z</time></trkpt><trkpt lat="44.928501540929645" lon="9.887754617505664"><ele>82.0</ele><time>2026-04-06T06:59:55.998Z</time></trkpt><trkpt lat="44.92842330789657" lon="9.88766373102602"><ele>82.0</ele><time>2026-04-06T06:59:56.998Z</time></trkpt><trkpt lat="44.92835464609652" lon="9.887597063705869"><ele>82.0</ele><time>2026-04-06T06:59:57.998Z</time></trkpt><trkpt lat="44.92829717039681" lon="9.887505230370667"><ele>82.0</ele><time>2026-04-06T06:59:58.998Z</time></trkpt><trkpt lat="44.92823771748816" lon="9.887432158794002"><ele>82.0</ele><time>2026-04-06T06:59:59.998Z</time></trkpt><trkpt lat="44.92820378103598" lon="9.887346733859468"><ele>82.0</ele><time>2026-04-06T07:00:01.998Z</time></trkpt><trkpt lat="44.92810847293124" lon="9.88724729423986"><ele>82.0</ele><time>2026-04-06T07:00:03.998Z</time></trkpt><trkpt lat="44.92805313117602" lon="9.887184408590544"><ele>82.0</ele><time>2026-04-06T07:00:04.998Z</time></trkpt><trkpt lat="44.92799768397309" lon="9.887129433365459"><ele>81.99999999999999</ele><time>2026-04-06T07:00:05.998Z</time></trkpt><trkpt lat="44.92794075867137" lon="9.887078372333464"><ele>82.0</ele><time>2026-04-06T07:00:06.998Z</time></trkpt><trkpt lat="44.927883321977106" lon="9.887028903172784"><ele>82.0</ele><time>2026-04-06T07:00:07.998Z</time></trkpt><trkpt lat="44.92782466417303" lon="9.88698205217447"><ele>82.0</ele><time>2026-04-06T07:00:08.998Z</time></trkpt><trkpt lat="44.9277629429889" lon="9.886938425834838"><ele>82.0</ele><time>2026-04-06T07:00:10Z</time></trkpt><trkpt lat="44.92770155449459" lon="9.886894213685478"><ele>81.99999999999999</ele><time>2026-04-06T07:00:11Z</time></trkpt><trkpt lat="44.9276376136157" lon="9.886856793830773"><ele>82.0</ele><time>2026-04-06T07:00:12Z</time></trkpt><trkpt lat="44.92757314681071" lon="9.886821084292457"><ele>81.99999999999999</ele><time>2026-04-06T07:00:13Z</time></trkpt><trkpt lat="44.92750995345738" lon="9.886788902242536"><ele>82.0</ele><time>2026-04-06T07:00:14Z</time></trkpt><trkpt lat="44.927444859884304" lon="9.886758381240108"><ele>82.0</ele><time>2026-04-06T07:00:15Z</time></trkpt><trkpt lat="44.927381029623625" lon="9.886723941350677"><ele>82.0</ele><time>2026-04-06T07:00:16Z</time></trkpt><trkpt lat="44.9273133047798" lon="9.886697738825237"><ele>82.0</ele><time>2026-04-06T07:00:17Z</time></trkpt><trkpt lat="44.9272465899754" lon="9.886679374737803"><ele>81.99999999999999</ele><time>2026-04-06T07:00:18Z</time></trkpt><trkpt lat="44.92717806172957" lon="9.886663313792548"><ele>82.0</ele><time>2026-04-06T07:00:19Z</time></trkpt><trkpt lat="44.9271103382556" lon="9.886645604845326"><ele>81.99999999999999</ele><time>2026-04-06T07:00:20Z</time></trkpt><trkpt lat="44.927041253901045" lon="9.886626104730722"><ele>82.0</ele><time>2026-04-06T07:00:21Z</time></trkpt><trkpt lat="44.92697033554447" lon="9.886611577772866"><ele>82.0</ele><time>2026-04-06T07:00:22Z</time></trkpt><trkpt lat="44.926900199630836" lon="9.886602733874438"><ele>82.0</ele><time>2026-04-06T07:00:23Z</time></trkpt><trkpt lat="44.92682856018787" lon="9.886593434248455"><ele>82.0</ele><time>2026-04-06T07:00:24Z</time></trkpt><trkpt lat="44.92675763413512" lon="9.886590773378627"><ele>81.99999999999999</ele><time>2026-04-06T07:00:25Z</time></trkpt><trkpt lat="44.92668629475628" lon="9.886587700765121"><ele>82.0</ele><time>2026-04-06T07:00:26Z</time></trkpt><trkpt lat="44.92661568324851" lon="9.886581186646438"><ele>82.42857142857142</ele><time>2026-04-06T07:00:26.999Z</time></trkpt><trkpt lat="44.9265454100412" lon="9.886580002802335"><ele>82.85714285714286</ele><time>2026-04-06T07:00:27.999Z</time></trkpt><trkpt lat="44.92647660623007" lon="9.886574610803825"><ele>83.28571428571428</ele><time>2026-04-06T07:00:28.999Z</time></trkpt><trkpt lat="44.92640745826885" lon="9.886573586015393"><ele>83.71428571428571</ele><time>2026-04-06T07:00:29.999Z</time></trkpt><trkpt lat="44.926336641971794" lon="9.88656881900922"><ele>84.14285714285714</ele><time>2026-04-06T07:00:30.999Z</time></trkpt><trkpt lat="44.92626630320653" lon="9.88656362208314"><ele>84.57142857142857</ele><time>2026-04-06T07:00:31.999Z</time></trkpt><trkpt lat="44.926193574959285" lon="9.886561574333044"><ele>85.0</ele><time>2026-04-06T07:00:32.999Z</time></trkpt><trkpt lat="44.92612216671659" lon="9.886553769432817"><ele>85.0</ele><time>2026-04-06T07:00:33.999Z</time></trkpt><trkpt lat="44.92605369923947" lon="9.886548384268986"><ele>85.0</ele><time>2026-04-06T07:00:34.999Z</time></trkpt><trkpt lat="44.92598032086877" lon="9.886544429545443"><ele>85.0</ele><time>2026-04-06T07:00:35.999Z</time></trkpt><trkpt lat="44.925911631935996" lon="9.886538227718418"><ele>85.0</ele><time>2026-04-06T07:00:36.999Z</time></trkpt><trkpt lat="44.92584169416131" lon="9.886535221227083"><ele>85.0</ele><time>2026-04-06T07:00:37.999Z</time></trkpt><trkpt lat="44.92576971915736" lon="9.886532811323331"><ele>85.0</ele><time>2026-04-06T07:00:38.999Z</time></trkpt><trkpt lat="44.925701405403494" lon="9.886529087965451"><ele>85.0</ele><time>2026-04-06T07:00:39.999Z</time></trkpt><trkpt lat="44.92563218758358" lon="9.886528496951534"><ele>85.14285714285715</ele><time>2026-04-06T07:00:40.999Z</time></trkpt><trkpt lat="44.92556354408733" lon="9.886524775825638"><ele>85.28571428571428</ele><time>2026-04-06T07:00:41.999Z</time></trkpt><trkpt lat="44.92549403539602" lon="9.886521822617917"><ele>85.42857142857143</ele><time>2026-04-06T07:00:42.999Z</time></trkpt><trkpt lat="44.92542435809232" lon="9.886517977104553"><ele>85.57142857142858</ele><time>2026-04-06T07:00:43.999Z</time></trkpt><trkpt lat="44.925351977057524" lon="9.886512443329613"><ele>85.71428571428572</ele><time>2026-04-06T07:00:44.999Z</time></trkpt><trkpt lat="44.92528138637534" lon="9.886512233744103"><ele>85.85714285714286</ele><time>2026-04-06T07:00:45.999Z</time></trkpt><trkpt lat="44.925209348823614" lon="9.886506974482636"><ele>86.0</ele><time>2026-04-06T07:00:46.999Z</time></trkpt><trkpt lat="44.925137010926285" lon="9.886503885884252"><ele>86.00000000000001</ele><time>2026-04-06T07:00:47.999Z</time></trkpt><trkpt lat="44.925064776458726" lon="9.886500485257685"><ele>86.0</ele><time>2026-04-06T07:00:48.999Z</time></trkpt><trkpt lat="44.92499186778927" lon="9.88649434927678"><ele>86.0</ele><time>2026-04-06T07:00:49.999Z</time></trkpt><trkpt lat="44.924922600856" lon="9.886491353593986"><ele>86.0</ele><time>2026-04-06T07:00:50.999Z</time></trkpt><trkpt lat="44.92484733455584" lon="9.88648833883967"><ele>86.0</ele><time>2026-04-06T07:00:51.999Z</time></trkpt><trkpt lat="44.924775368766156" lon="9.886484806171953"><ele>86.00000000000001</ele><time>2026-04-06T07:00:52.999Z</time></trkpt><trkpt lat="44.924701949071014" lon="9.886477739735367"><ele>86.0</ele><time>2026-04-06T07:00:53.999Z</time></trkpt><trkpt lat="44.92463145144582" lon="9.886469661358237"><ele>86.00000000000001</ele><time>2026-04-06T07:00:54.999Z</time></trkpt><trkpt lat="44.924560934596265" lon="9.88646339609589"><ele>86.0</ele><time>2026-04-06T07:00:55.999Z</time></trkpt><trkpt lat="44.924493566251726" lon="9.886458642625774"><ele>86.0</ele><time>2026-04-06T07:00:56.999Z</time></trkpt><trkpt lat="44.92442413751055" lon="9.886449153573569"><ele>86.0</ele><time>2026-04-06T07:00:57.999Z</time></trkpt><trkpt lat="44.92435369660716" lon="9.886437312239611"><ele>86.0</ele><time>2026-04-06T07:00:58.999Z</time></trkpt><trkpt lat="44.92428364477412" lon="9.886426392364221"><ele>86.00000000000001</ele><time>2026-04-06T07:00:59.999Z</time></trkpt><trkpt lat="44.924213477286465" lon="9.886412867310781"><ele>86.0</ele><time>2026-04-06T07:01:00.999Z</time></trkpt><trkpt lat="44.92414119873901" lon="9.886401703865008"><ele>86.14285714285715</ele><time>2026-04-06T07:01:01.999Z</time></trkpt><trkpt lat="44.92407127810533" lon="9.886387310641178"><ele>86.28571428571429</ele><time>2026-04-06T07:01:02.999Z</time></trkpt><trkpt lat="44.92399968981786" lon="9.886373546112871"><ele>86.42857142857143</ele><time>2026-04-06T07:01:03.999Z</time></trkpt><trkpt lat="44.92393007541156" lon="9.886355133989067"><ele>86.57142857142858</ele><time>2026-04-06T07:01:04.999Z</time></trkpt><trkpt lat="44.92385980277666" lon="9.886339812789853"><ele>86.71428571428572</ele><time>2026-04-06T07:01:05.999Z</time></trkpt><trkpt lat="44.923789771259116" lon="9.886320862903387"><ele>86.85714285714286</ele><time>2026-04-06T07:01:06.999Z</time></trkpt><trkpt lat="44.92372041383914" lon="9.886302610114138"><ele>87.0</ele><time>2026-04-06T07:01:07.999Z</time></trkpt><trkpt lat="44.923650983715405" lon="9.886283986139906"><ele>87.0</ele><time>2026-04-06T07:01:08.999Z</time></trkpt><trkpt lat="44.923582374368806" lon="9.88626498567346"><ele>87.0</ele><time>2026-04-06T07:01:09.999Z</time></trkpt><trkpt lat="44.92351361550283" lon="9.886246267805056"><ele>87.0</ele><time>2026-04-06T07:01:10.999Z</time></trkpt><trkpt lat="44.923443732320955" lon="9.886224405266793"><ele>87.0</ele><time>2026-04-06T07:01:11.999Z</time></trkpt><trkpt lat="44.92337262102116" lon="9.88620262938185"><ele>87.0</ele><time>2026-04-06T07:01:12.999Z</time></trkpt><trkpt lat="44.923300633663054" lon="9.886181552885231"><ele>87.0</ele><time>2026-04-06T07:01:13.999Z</time></trkpt><trkpt lat="44.923231310313106" lon="9.886158676923872"><ele>87.0</ele><time>2026-04-06T07:01:14.999Z</time></trkpt><trkpt lat="44.92316009133542" lon="9.88613528807565"><ele>87.0</ele><time>2026-04-06T07:01:15.999Z</time></trkpt><trkpt lat="44.92309091320281" lon="9.886110509777538"><ele>87.0</ele><time>2026-04-06T07:01:16.999Z</time></trkpt><trkpt lat="44.923018752472586" lon="9.886083844200613"><ele>87.0</ele><time>2026-04-06T07:01:17.999Z</time></trkpt><trkpt lat="44.922950051715276" lon="9.886053918716907"><ele>87.0</ele><time>2026-04-06T07:01:18.999Z</time></trkpt><trkpt lat="44.92287972209497" lon="9.886031152197722"><ele>87.0</ele><time>2026-04-06T07:01:19.999Z</time></trkpt><trkpt lat="44.92280850978049" lon="9.88600121789246"><ele>87.0</ele><time>2026-04-06T07:01:20.999Z</time></trkpt><trkpt lat="44.92274047381446" lon="9.88597509767596"><ele>87.0</ele><time>2026-04-06T07:01:21.999Z</time></trkpt><trkpt lat="44.9226704167798" lon="9.885948670038067"><ele>87.0</ele><time>2026-04-06T07:01:22.999Z</time></trkpt><trkpt lat="44.92260181456279" lon="9.885921877884432"><ele>87.0</ele><time>2026-04-06T07:01:23.998Z</time></trkpt><trkpt lat="44.92253271649821" lon="9.885900562000888"><ele>87.0</ele><time>2026-04-06T07:01:24.998Z</time></trkpt><trkpt lat="44.92246430002655" lon="9.885869824928912"><ele>87.0</ele><time>2026-04-06T07:01:25.998Z</time></trkpt><trkpt lat="44.922393848251104" lon="9.88584784344703"><ele>87.0</ele><time>2026-04-06T07:01:26.998Z</time></trkpt><trkpt lat="44.922326005698565" lon="9.885820832392637"><ele>87.0</ele><time>2026-04-06T07:01:27.998Z</time></trkpt><trkpt lat="44.922258668148835" lon="9.885798857943996"><ele>87.0</ele><time>2026-04-06T07:01:28.998Z</time></trkpt><trkpt lat="44.92219389612609" lon="9.885761952923852"><ele>87.33333333333333</ele><time>2026-04-06T07:01:29.998Z</time></trkpt><trkpt lat="44.92213257197146" lon="9.885733474443313"><ele>87.66666666666667</ele><time>2026-04-06T07:01:30.998Z</time></trkpt><trkpt lat="44.922076454925495" lon="9.885690574208134"><ele>88.0</ele><time>2026-04-06T07:01:31.998Z</time></trkpt><trkpt lat="44.92202106570611" lon="9.885640762215873"><ele>88.33333333333334</ele><time>2026-04-06T07:01:32.998Z</time></trkpt><trkpt lat="44.921925127710885" lon="9.885506294424667"><ele>88.66666666666667</ele><time>2026-04-06T07:01:34.998Z</time></trkpt><trkpt lat="44.921851664658504" lon="9.885468084115189"><ele>89.0</ele><time>2026-04-06T07:01:35.998Z</time></trkpt><trkpt lat="44.921777215606056" lon="9.885440760572997"><ele>89.0</ele><time>2026-04-06T07:01:36.998Z</time></trkpt><trkpt lat="44.921699329797754" lon="9.885434527528341"><ele>89.0</ele><time>2026-04-06T07:01:37.998Z</time></trkpt><trkpt lat="44.921638888273" lon="9.885337809951569"><ele>89.0</ele><time>2026-04-06T07:01:38.998Z</time></trkpt><trkpt lat="44.92158029142118" lon="9.88526491112908"><ele>89.0</ele><time>2026-04-06T07:01:39.998Z</time></trkpt><trkpt lat="44.921519632222484" lon="9.885189313832102"><ele>89.0</ele><time>2026-04-06T07:01:40.998Z</time></trkpt><trkpt lat="44.921458818032534" lon="9.885111976230432"><ele>89.0</ele><time>2026-04-06T07:01:41.998Z</time></trkpt><trkpt lat="44.921400096682426" lon="9.885035320191033"><ele>89.16666666666667</ele><time>2026-04-06T07:01:42.998Z</time></trkpt><trkpt lat="44.92134578199125" lon="9.88495615516812"><ele>89.33333333333334</ele><time>2026-04-06T07:01:43.998Z</time></trkpt><trkpt lat="44.921292798036" lon="9.884874930320919"><ele>89.5</ele><time>2026-04-06T07:01:44.998Z</time></trkpt><trkpt lat="44.92123949902607" lon="9.884798421525922"><ele>89.66666666666667</ele><time>2026-04-06T07:01:45.998Z</time></trkpt><trkpt lat="44.92118781818438" lon="9.8847243628517"><ele>89.83333333333333</ele><time>2026-04-06T07:01:46.998Z</time></trkpt><trkpt lat="44.9211321638453" lon="9.884650865206316"><ele>90.0</ele><time>2026-04-06T07:01:47.998Z</time></trkpt><trkpt lat="44.9210818791625" lon="9.88457489922873"><ele>90.0</ele><time>2026-04-06T07:01:48.998Z</time></trkpt><trkpt lat="44.92103356814969" lon="9.884503776499288"><ele>90.0</ele><time>2026-04-06T07:01:49.998Z</time></trkpt><trkpt lat="44.92098183561717" lon="9.884428295195566"><ele>90.0</ele><time>2026-04-06T07:01:50.998Z</time></trkpt><trkpt lat="44.92092918869845" lon="9.884357200317032"><ele>90.0</ele><time>2026-04-06T07:01:51.998Z</time></trkpt><trkpt lat="44.92087817997854" lon="9.884278212937053"><ele>90.0</ele><time>2026-04-06T07:01:52.998Z</time></trkpt><trkpt lat="44.92082843019631" lon="9.884203381281013"><ele>90.0</ele><time>2026-04-06T07:01:53.998Z</time></trkpt><trkpt lat="44.9207795411626" lon="9.884132064240895"><ele>90.0</ele><time>2026-04-06T07:01:54.998Z</time></trkpt><trkpt lat="44.920731432771895" lon="9.884068065156644"><ele>89.85714285714285</ele><time>2026-04-06T07:01:55.998Z</time></trkpt><trkpt lat="44.920684600439806" lon="9.883994671462393"><ele>89.71428571428572</ele><time>2026-04-06T07:01:56.998Z</time></trkpt><trkpt lat="44.920628090943296" lon="9.883916875826204"><ele>89.57142857142857</ele><time>2026-04-06T07:01:57.998Z</time></trkpt><trkpt lat="44.92057577695383" lon="9.883840174940065"><ele>89.42857142857142</ele><time>2026-04-06T07:01:58.998Z</time></trkpt><trkpt lat="44.92052366247586" lon="9.883766910816316"><ele>89.28571428571428</ele><time>2026-04-06T07:01:59.998Z</time></trkpt><trkpt lat="44.92047236677142" lon="9.88369379574795"><ele>89.14285714285714</ele><time>2026-04-06T07:02:00.998Z</time></trkpt><trkpt lat="44.92041825971562" lon="9.883619203445347"><ele>89.0</ele><time>2026-04-06T07:02:01.998Z</time></trkpt><trkpt lat="44.92036609863229" lon="9.88354536088153"><ele>88.99999999999999</ele><time>2026-04-06T07:02:02.998Z</time></trkpt><trkpt lat="44.920312718005626" lon="9.88347148581485"><ele>89.0</ele><time>2026-04-06T07:02:03.998Z</time></trkpt><trkpt lat="44.92025944937728" lon="9.883396379919098"><ele>89.0</ele><time>2026-04-06T07:02:04.998Z</time></trkpt><trkpt lat="44.92020835582747" lon="9.883320550882058"><ele>89.0</ele><time>2026-04-06T07:02:05.998Z</time></trkpt><trkpt lat="44.92015453293292" lon="9.883248916233713"><ele>89.0</ele><time>2026-04-06T07:02:06.998Z</time></trkpt><trkpt lat="44.920099566507325" lon="9.883175604386585"><ele>88.99999999999999</ele><time>2026-04-06T07:02:07.998Z</time></trkpt><trkpt lat="44.92004796782831" lon="9.883102595133444"><ele>89.0</ele><time>2026-04-06T07:02:08.998Z</time></trkpt><trkpt lat="44.919995154815105" lon="9.88302815032468"><ele>88.99999999999999</ele><time>2026-04-06T07:02:09.998Z</time></trkpt><trkpt lat="44.919945336693694" lon="9.88295695150909"><ele>89.0</ele><time>2026-04-06T07:02:10.998Z</time></trkpt><trkpt lat="44.91989503660828" lon="9.882888574377114"><ele>89.0</ele><time>2026-04-06T07:02:11.998Z</time></trkpt><trkpt lat="44.919845627221044" lon="9.88282120427227"><ele>89.0</ele><time>2026-04-06T07:02:12.998Z</time></trkpt><trkpt lat="44.91979616991573" lon="9.882752411477956"><ele>89.0</ele><time>2026-04-06T07:02:13.998Z</time></trkpt><trkpt lat="44.919744792512766" lon="9.882680965111728"><ele>88.99999999999999</ele><time>2026-04-06T07:02:14.998Z</time></trkpt><trkpt lat="44.91969315972581" lon="9.882610027169987"><ele>89.0</ele><time>2026-04-06T07:02:16Z</time></trkpt><trkpt lat="44.91964144602076" lon="9.88253631886898"><ele>88.85714285714285</ele><time>2026-04-06T07:02:17Z</time></trkpt><trkpt lat="44.91959014133461" lon="9.882462160592922"><ele>88.71428571428571</ele><time>2026-04-06T07:02:18Z</time></trkpt><trkpt lat="44.91953848103947" lon="9.882386249977506"><ele>88.57142857142857</ele><time>2026-04-06T07:02:19Z</time></trkpt><trkpt lat="44.919488751055994" lon="9.882308295183536"><ele>88.42857142857142</ele><time>2026-04-06T07:02:20Z</time></trkpt><trkpt lat="44.91944071442133" lon="9.882228731878179"><ele>88.28571428571428</ele><time>2026-04-06T07:02:21Z</time></trkpt><trkpt lat="44.91940135813209" lon="9.88214362936529"><ele>88.14285714285714</ele><time>2026-04-06T07:02:22Z</time></trkpt><trkpt lat="44.91936380897312" lon="9.882061645459405"><ele>88.0</ele><time>2026-04-06T07:02:23Z</time></trkpt><trkpt lat="44.91932619159284" lon="9.881981652654545"><ele>88.0</ele><time>2026-04-06T07:02:24Z</time></trkpt><trkpt lat="44.91928878030893" lon="9.881902594296625"><ele>88.0</ele><time>2026-04-06T07:02:25Z</time></trkpt><trkpt lat="44.91924026013367" lon="9.881839653166802"><ele>88.0</ele><time>2026-04-06T07:02:26Z</time></trkpt><trkpt lat="44.91918317141026" lon="9.881793387135394"><ele>88.0</ele><time>2026-04-06T07:02:27Z</time></trkpt><trkpt lat="44.91905687794556" lon="9.881784470586005"><ele>88.0</ele><time>2026-04-06T07:02:29Z</time></trkpt><trkpt lat="44.918984603535414" lon="9.88177990096457"><ele>88.0</ele><time>2026-04-06T07:02:30Z</time></trkpt><trkpt lat="44.9189169594768" lon="9.88174785770785"><ele>88.28571428571429</ele><time>2026-04-06T07:02:30.999Z</time></trkpt><trkpt lat="44.91885431404896" lon="9.881691791023615"><ele>88.57142857142857</ele><time>2026-04-06T07:02:31.999Z</time></trkpt><trkpt lat="44.91879869097608" lon="9.881625006780396"><ele>88.85714285714286</ele><time>2026-04-06T07:02:32.999Z</time></trkpt><trkpt lat="44.91874443854246" lon="9.88155560324497"><ele>89.14285714285714</ele><time>2026-04-06T07:02:33.999Z</time></trkpt><trkpt lat="44.9186881805107" lon="9.88148667268694"><ele>89.42857142857143</ele><time>2026-04-06T07:02:34.999Z</time></trkpt><trkpt lat="44.91863013167518" lon="9.881418257408486"><ele>89.71428571428571</ele><time>2026-04-06T07:02:35.999Z</time></trkpt><trkpt lat="44.91857226210667" lon="9.881348875743186"><ele>90.0</ele><time>2026-04-06T07:02:36.999Z</time></trkpt><trkpt lat="44.91851606157811" lon="9.881281788062681"><ele>90.0</ele><time>2026-04-06T07:02:37.999Z</time></trkpt><trkpt lat="44.91846020113705" lon="9.881215185551126"><ele>90.0</ele><time>2026-04-06T07:02:38.999Z</time></trkpt><trkpt lat="44.91840172773544" lon="9.88115544837558"><ele>90.0</ele><time>2026-04-06T07:02:39.999Z</time></trkpt><trkpt lat="44.91834385840188" lon="9.881093361954804"><ele>90.0</ele><time>2026-04-06T07:02:40.999Z</time></trkpt><trkpt lat="44.91829169868259" lon="9.88102948501404"><ele>90.0</ele><time>2026-04-06T07:02:41.999Z</time></trkpt><trkpt lat="44.918239898042806" lon="9.880968829366505"><ele>90.0</ele><time>2026-04-06T07:02:42.999Z</time></trkpt><trkpt lat="44.918190876930794" lon="9.880911333979075"><ele>90.0</ele><time>2026-04-06T07:02:43.999Z</time></trkpt><trkpt lat="44.91809356526074" lon="9.880805513822212"><ele>90.5</ele><time>2026-04-06T07:02:45.999Z</time></trkpt><trkpt lat="44.91804315613064" lon="9.880751524752993"><ele>91.0</ele><time>2026-04-06T07:02:46.999Z</time></trkpt><trkpt lat="44.91794676042783" lon="9.880638708314782"><ele>91.5</ele><time>2026-04-06T07:02:48.999Z</time></trkpt><trkpt lat="44.917894114499504" lon="9.88057888767353"><ele>92.0</ele><time>2026-04-06T07:02:49.999Z</time></trkpt><trkpt lat="44.9178408187494" lon="9.880516305652138"><ele>92.5</ele><time>2026-04-06T07:02:50.999Z</time></trkpt><trkpt lat="44.91778579972438" lon="9.880456402077174"><ele>93.0</ele><time>2026-04-06T07:02:51.999Z</time></trkpt><trkpt lat="44.91772954677226" lon="9.880392909452778"><ele>93.00000000000001</ele><time>2026-04-06T07:02:52.999Z</time></trkpt><trkpt lat="44.917675110509684" lon="9.880327367942163"><ele>93.0</ele><time>2026-04-06T07:02:53.999Z</time></trkpt><trkpt lat="44.91761697079088" lon="9.880265028689326"><ele>93.0</ele><time>2026-04-06T07:02:54.999Z</time></trkpt><trkpt lat="44.917559459851844" lon="9.8802033573115"><ele>93.0</ele><time>2026-04-06T07:02:55.999Z</time></trkpt><trkpt lat="44.917499950155936" lon="9.88014155491715"><ele>93.0</ele><time>2026-04-06T07:02:56.999Z</time></trkpt><trkpt lat="44.91744858336383" lon="9.880075610032234"><ele>93.00000000000001</ele><time>2026-04-06T07:02:57.999Z</time></trkpt><trkpt lat="44.917388530319386" lon="9.8800066670423"><ele>93.0</ele><time>2026-04-06T07:02:58.999Z</time></trkpt><trkpt lat="44.91733079926025" lon="9.879941795190243"><ele>92.85714285714286</ele><time>2026-04-06T07:02:59.999Z</time></trkpt><trkpt lat="44.91727221560759" lon="9.879876556496518"><ele>92.71428571428572</ele><time>2026-04-06T07:03:00.999Z</time></trkpt><trkpt lat="44.917215601865756" lon="9.879811739469993"><ele>92.57142857142858</ele><time>2026-04-06T07:03:01.999Z</time></trkpt><trkpt lat="44.917158802890164" lon="9.879744082111817"><ele>92.42857142857143</ele><time>2026-04-06T07:03:02.999Z</time></trkpt><trkpt lat="44.91710115541034" lon="9.879676538267885"><ele>92.28571428571428</ele><time>2026-04-06T07:03:03.999Z</time></trkpt><trkpt lat="44.917043743545385" lon="9.879609354490153"><ele>92.14285714285715</ele><time>2026-04-06T07:03:04.999Z</time></trkpt><trkpt lat="44.91698656969331" lon="9.879545278849951"><ele>92.0</ele><time>2026-04-06T07:03:05.999Z</time></trkpt><trkpt lat="44.91692614935551" lon="9.879482324675866"><ele>92.0</ele><time>2026-04-06T07:03:06.999Z</time></trkpt><trkpt lat="44.91686276648218" lon="9.879424079474921"><ele>92.0</ele><time>2026-04-06T07:03:07.999Z</time></trkpt><trkpt lat="44.91679747496101" lon="9.879375594521646"><ele>92.0</ele><time>2026-04-06T07:03:08.999Z</time></trkpt><trkpt lat="44.9167251459833" lon="9.879332688348716"><ele>92.0</ele><time>2026-04-06T07:03:09.999Z</time></trkpt><trkpt lat="44.916651712238064" lon="9.879308790441724"><ele>92.0</ele><time>2026-04-06T07:03:10.999Z</time></trkpt><trkpt lat="44.91657533989289" lon="9.879291711468886"><ele>92.0</ele><time>2026-04-06T07:03:11.999Z</time></trkpt><trkpt lat="44.916500790315894" lon="9.87929083723917"><ele>92.0</ele><time>2026-04-06T07:03:12.999Z</time></trkpt><trkpt lat="44.916426387838044" lon="9.879291187544668"><ele>92.0</ele><time>2026-04-06T07:03:13.999Z</time></trkpt><trkpt lat="44.91635362225073" lon="9.879289954993705"><ele>92.0</ele><time>2026-04-06T07:03:14.999Z</time></trkpt><trkpt lat="44.916280475919756" lon="9.879281919717513"><ele>92.0</ele><time>2026-04-06T07:03:15.999Z</time></trkpt><trkpt lat="44.91620971009342" lon="9.879275959375883"><ele>92.0</ele><time>2026-04-06T07:03:16.999Z</time></trkpt><trkpt lat="44.916140147929774" lon="9.879273267644765"><ele>92.0</ele><time>2026-04-06T07:03:17.999Z</time></trkpt><trkpt lat="44.916074013144886" lon="9.879273285138353"><ele>92.0</ele><time>2026-04-06T07:03:18.999Z</time></trkpt><trkpt lat="44.91600713438115" lon="9.879274784620113"><ele>92.0</ele><time>2026-04-06T07:03:19.999Z</time></trkpt><trkpt lat="44.91593892777346" lon="9.879280027085343"><ele>92.0</ele><time>2026-04-06T07:03:20.999Z</time></trkpt><trkpt lat="44.91587101670085" lon="9.879278781159305"><ele>92.0</ele><time>2026-04-06T07:03:21.999Z</time></trkpt><trkpt lat="44.91580544786699" lon="9.87927729122732"><ele>92.0</ele><time>2026-04-06T07:03:23Z</time></trkpt><trkpt lat="44.91574166951254" lon="9.87927847313826"><ele>92.0</ele><time>2026-04-06T07:03:24Z</time></trkpt><trkpt lat="44.91567551109626" lon="9.879279271462035"><ele>92.0</ele><time>2026-04-06T07:03:25Z</time></trkpt><trkpt lat="44.91560596198171" lon="9.879280442612092"><ele>92.0</ele><time>2026-04-06T07:03:26Z</time></trkpt><trkpt lat="44.91553470856204" lon="9.879285474784483"><ele>91.85714285714286</ele><time>2026-04-06T07:03:27Z</time></trkpt><trkpt lat="44.91546521946358" lon="9.879283869851456"><ele>91.71428571428571</ele><time>2026-04-06T07:03:27.999Z</time></trkpt><trkpt lat="44.91539366190729" lon="9.879284427948914"><ele>91.57142857142857</ele><time>2026-04-06T07:03:28.999Z</time></trkpt><trkpt lat="44.91532161529238" lon="9.879285040440477"><ele>91.42857142857143</ele><time>2026-04-06T07:03:29.999Z</time></trkpt><trkpt lat="44.91524819462168" lon="9.879258636097704"><ele>91.28571428571428</ele><time>2026-04-06T07:03:30.999Z</time></trkpt><trkpt lat="44.91517263109028" lon="9.879257257703314"><ele>91.14285714285714</ele><time>2026-04-06T07:03:31.999Z</time></trkpt><trkpt lat="44.915095549403496" lon="9.879256025325065"><ele>91.0</ele><time>2026-04-06T07:03:32.999Z</time></trkpt><trkpt lat="44.915019438367196" lon="9.879254808467435"><ele>91.33333333333333</ele><time>2026-04-06T07:03:33.999Z</time></trkpt><trkpt lat="44.914941480937706" lon="9.879253562090321"><ele>91.66666666666666</ele><time>2026-04-06T07:03:34.999Z</time></trkpt><trkpt lat="44.914861665358124" lon="9.879252455989043"><ele>92.0</ele><time>2026-04-06T07:03:35.999Z</time></trkpt><trkpt lat="44.91478350523728" lon="9.879251643544702"><ele>92.33333333333333</ele><time>2026-04-06T07:03:36.999Z</time></trkpt><trkpt lat="44.91470322123838" lon="9.879250809024157"><ele>92.66666666666667</ele><time>2026-04-06T07:03:37.999Z</time></trkpt><trkpt lat="44.914623593485956" lon="9.879249981325433"><ele>93.0</ele><time>2026-04-06T07:03:38.999Z</time></trkpt><trkpt lat="44.91454320580662" lon="9.879249145726687"><ele>93.0</ele><time>2026-04-06T07:03:39.999Z</time></trkpt><trkpt lat="44.914462748897336" lon="9.879270791718744"><ele>93.0</ele><time>2026-04-06T07:03:40.999Z</time></trkpt><trkpt lat="44.91438410821372" lon="9.879270803377267"><ele>93.0</ele><time>2026-04-06T07:03:41.999Z</time></trkpt><trkpt lat="44.91430457007816" lon="9.879268771005545"><ele>93.0</ele><time>2026-04-06T07:03:42.999Z</time></trkpt><trkpt lat="44.91422543383096" lon="9.879268025577968"><ele>93.0</ele><time>2026-04-06T07:03:43.999Z</time></trkpt><trkpt lat="44.914144792368276" lon="9.87926649689664"><ele>93.0</ele><time>2026-04-06T07:03:44.999Z</time></trkpt><trkpt lat="44.914069234027686" lon="9.879263652197976"><ele>92.85714285714286</ele><time>2026-04-06T07:03:45.999Z</time></trkpt><trkpt lat="44.9139926988143" lon="9.879259668535935"><ele>92.71428571428572</ele><time>2026-04-06T07:03:46.999Z</time></trkpt><trkpt lat="44.91391812699899" lon="9.87925945316548"><ele>92.57142857142858</ele><time>2026-04-06T07:03:47.999Z</time></trkpt><trkpt lat="44.91384490257418" lon="9.879261430390304"><ele>92.42857142857143</ele><time>2026-04-06T07:03:48.999Z</time></trkpt><trkpt lat="44.913774169665444" lon="9.879260559510646"><ele>92.28571428571428</ele><time>2026-04-06T07:03:49.999Z</time></trkpt><trkpt lat="44.91369830411404" lon="9.879257843481723"><ele>92.14285714285715</ele><time>2026-04-06T07:03:50.999Z</time></trkpt><trkpt lat="44.91362392137777" lon="9.879256187669"><ele>92.0</ele><time>2026-04-06T07:03:51.999Z</time></trkpt><trkpt lat="44.91354833024275" lon="9.879253281369412"><ele>92.0</ele><time>2026-04-06T07:03:52.999Z</time></trkpt><trkpt lat="44.91347702840528" lon="9.879252315229472"><ele>92.0</ele><time>2026-04-06T07:03:53.999Z</time></trkpt><trkpt lat="44.913403974808325" lon="9.879251290504387"><ele>92.0</ele><time>2026-04-06T07:03:54.999Z</time></trkpt><trkpt lat="44.91333104461016" lon="9.879249094798144"><ele>92.0</ele><time>2026-04-06T07:03:55.999Z</time></trkpt><trkpt lat="44.91325726580768" lon="9.879246322318316"><ele>92.0</ele><time>2026-04-06T07:03:56.999Z</time></trkpt><trkpt lat="44.913180638408974" lon="9.879246381424329"><ele>92.0</ele><time>2026-04-06T07:03:57.999Z</time></trkpt><trkpt lat="44.91310606372595" lon="9.879246956590668"><ele>92.0</ele><time>2026-04-06T07:03:58.999Z</time></trkpt><trkpt lat="44.91302940962256" lon="9.879245454143334"><ele>92.14285714285715</ele><time>2026-04-06T07:03:59.999Z</time></trkpt><trkpt lat="44.912954867460186" lon="9.879246833223174"><ele>92.28571428571428</ele><time>2026-04-06T07:04:00.999Z</time></trkpt><trkpt lat="44.91288213847876" lon="9.879250438554347"><ele>92.42857142857143</ele><time>2026-04-06T07:04:01.999Z</time></trkpt><trkpt lat="44.91280767859013" lon="9.87924607475872"><ele>92.57142857142858</ele><time>2026-04-06T07:04:02.999Z</time></trkpt><trkpt lat="44.91273344943479" lon="9.879243388622458"><ele>92.71428571428572</ele><time>2026-04-06T07:04:03.999Z</time></trkpt><trkpt lat="44.91266025009892" lon="9.879242734205858"><ele>92.85714285714286</ele><time>2026-04-06T07:04:04.999Z</time></trkpt><trkpt lat="44.912588168082486" lon="9.879243428736146"><ele>93.0</ele><time>2026-04-06T07:04:05.999Z</time></trkpt><trkpt lat="44.912516769658744" lon="9.879241973151862"><ele>93.28571428571429</ele><time>2026-04-06T07:04:06.999Z</time></trkpt><trkpt lat="44.91244727175427" lon="9.879242341158012"><ele>93.57142857142857</ele><time>2026-04-06T07:04:07.999Z</time></trkpt><trkpt lat="44.91237497299905" lon="9.879240072933243"><ele>93.85714285714286</ele><time>2026-04-06T07:04:08.999Z</time></trkpt><trkpt lat="44.912299538535024" lon="9.879236938667418"><ele>94.14285714285714</ele><time>2026-04-06T07:04:09.999Z</time></trkpt><trkpt lat="44.91222538870082" lon="9.879235930029736"><ele>94.42857142857143</ele><time>2026-04-06T07:04:10.999Z</time></trkpt><trkpt lat="44.91215200775049" lon="9.87923464897076"><ele>94.71428571428572</ele><time>2026-04-06T07:04:11.999Z</time></trkpt><trkpt lat="44.91208054843949" lon="9.879234461506995"><ele>95.0</ele><time>2026-04-06T07:04:12.999Z</time></trkpt><trkpt lat="44.9120076688936" lon="9.879232915635747"><ele>95.0</ele><time>2026-04-06T07:04:13.999Z</time></trkpt><trkpt lat="44.91193347720004" lon="9.879229867656552"><ele>95.0</ele><time>2026-04-06T07:04:14.999Z</time></trkpt><trkpt lat="44.91185759155831" lon="9.879227396063817"><ele>95.0</ele><time>2026-04-06T07:04:15.999Z</time></trkpt><trkpt lat="44.9117843548035" lon="9.879225919787439"><ele>95.0</ele><time>2026-04-06T07:04:16.999Z</time></trkpt><trkpt lat="44.91171193063759" lon="9.879224914053873"><ele>95.0</ele><time>2026-04-06T07:04:17.999Z</time></trkpt><trkpt lat="44.91164073888515" lon="9.879229314950036"><ele>95.0</ele><time>2026-04-06T07:04:18.999Z</time></trkpt><trkpt lat="44.91156739567595" lon="9.879232983364629"><ele>95.0</ele><time>2026-04-06T07:04:19.999Z</time></trkpt><trkpt lat="44.911494830159825" lon="9.879230733948143"><ele>94.85714285714286</ele><time>2026-04-06T07:04:20.999Z</time></trkpt><trkpt lat="44.91142292795436" lon="9.879226652312632"><ele>94.71428571428572</ele><time>2026-04-06T07:04:22.001Z</time></trkpt><trkpt lat="44.911352351844876" lon="9.87922355835947"><ele>94.57142857142857</ele><time>2026-04-06T07:04:23.001Z</time></trkpt><trkpt lat="44.91128397633643" lon="9.879222733674824"><ele>94.42857142857143</ele><time>2026-04-06T07:04:24.001Z</time></trkpt><trkpt lat="44.911212282553365" lon="9.879223477668123"><ele>94.28571428571428</ele><time>2026-04-06T07:04:25.001Z</time></trkpt><trkpt lat="44.91114005810724" lon="9.879226138166969"><ele>94.14285714285714</ele><time>2026-04-06T07:04:26.001Z</time></trkpt><trkpt lat="44.91106686161738" lon="9.87922446411067"><ele>94.0</ele><time>2026-04-06T07:04:27.001Z</time></trkpt><trkpt lat="44.910993631804125" lon="9.87922418909471"><ele>94.0</ele><time>2026-04-06T07:04:28.001Z</time></trkpt><trkpt lat="44.91091930645441" lon="9.879220295281415"><ele>94.0</ele><time>2026-04-06T07:04:29.001Z</time></trkpt><trkpt lat="44.91084508950594" lon="9.879220789439739"><ele>94.0</ele><time>2026-04-06T07:04:30.001Z</time></trkpt><trkpt lat="44.910772232456" lon="9.879219420261592"><ele>94.0</ele><time>2026-04-06T07:04:31.001Z</time></trkpt><trkpt lat="44.91069808897491" lon="9.879216188603296"><ele>94.0</ele><time>2026-04-06T07:04:32.001Z</time></trkpt><trkpt lat="44.91062555869029" lon="9.879215947548245"><ele>94.0</ele><time>2026-04-06T07:04:33.001Z</time></trkpt><trkpt lat="44.91055428075054" lon="9.879213543792423"><ele>94.0</ele><time>2026-04-06T07:04:34.001Z</time></trkpt><trkpt lat="44.91048330338097" lon="9.879213551192526"><ele>94.42857142857143</ele><time>2026-04-06T07:04:35.001Z</time></trkpt><trkpt lat="44.910410445625374" lon="9.879212879401932"><ele>94.85714285714286</ele><time>2026-04-06T07:04:36Z</time></trkpt><trkpt lat="44.91033865805857" lon="9.879213545571373"><ele>95.28571428571428</ele><time>2026-04-06T07:04:37Z</time></trkpt><trkpt lat="44.91026515056563" lon="9.879212333327908"><ele>95.71428571428572</ele><time>2026-04-06T07:04:38Z</time></trkpt><trkpt lat="44.910192516253716" lon="9.879210675247895"><ele>96.14285714285715</ele><time>2026-04-06T07:04:39Z</time></trkpt><trkpt lat="44.910120735370356" lon="9.879210210741169"><ele>96.57142857142857</ele><time>2026-04-06T07:04:40Z</time></trkpt><trkpt lat="44.910048517695905" lon="9.879206982760854"><ele>97.0</ele><time>2026-04-06T07:04:41Z</time></trkpt><trkpt lat="44.9099793832095" lon="9.879203966231"><ele>97.0</ele><time>2026-04-06T07:04:42Z</time></trkpt><trkpt lat="44.9099100641341" lon="9.879201491408853"><ele>97.0</ele><time>2026-04-06T07:04:43Z</time></trkpt><trkpt lat="44.90983912866433" lon="9.879199157728532"><ele>97.0</ele><time>2026-04-06T07:04:44Z</time></trkpt><trkpt lat="44.90976758466752" lon="9.87919402661625"><ele>97.0</ele><time>2026-04-06T07:04:45Z</time></trkpt><trkpt lat="44.90969611439857" lon="9.879190141970858"><ele>97.0</ele><time>2026-04-06T07:04:46Z</time></trkpt><trkpt lat="44.909624697299975" lon="9.879183296571153"><ele>97.0</ele><time>2026-04-06T07:04:47Z</time></trkpt><trkpt lat="44.909555614166926" lon="9.879180694278443"><ele>97.0</ele><time>2026-04-06T07:04:48Z</time></trkpt><trkpt lat="44.909484113440264" lon="9.879174524332687"><ele>97.0</ele><time>2026-04-06T07:04:49Z</time></trkpt><trkpt lat="44.90941445144615" lon="9.879166345816861"><ele>97.0</ele><time>2026-04-06T07:04:50Z</time></trkpt><trkpt lat="44.90934273367182" lon="9.879161067215232"><ele>97.0</ele><time>2026-04-06T07:04:51Z</time></trkpt><trkpt lat="44.909267162032364" lon="9.879149019565661"><ele>97.0</ele><time>2026-04-06T07:04:52Z</time></trkpt><trkpt lat="44.90919623769631" lon="9.879143826479902"><ele>97.0</ele><time>2026-04-06T07:04:53Z</time></trkpt><trkpt lat="44.909122847549746" lon="9.87913537685096"><ele>97.0</ele><time>2026-04-06T07:04:54Z</time></trkpt><trkpt lat="44.90904977962549" lon="9.879133790050892"><ele>97.0</ele><time>2026-04-06T07:04:55Z</time></trkpt><trkpt lat="44.90897694583422" lon="9.879136389116976"><ele>97.0</ele><time>2026-04-06T07:04:56Z</time></trkpt><trkpt lat="44.90890688061104" lon="9.879129502962098"><ele>97.0</ele><time>2026-04-06T07:04:57Z</time></trkpt><trkpt lat="44.90883829585105" lon="9.879127215505843"><ele>97.0</ele><time>2026-04-06T07:04:58Z</time></trkpt><trkpt lat="44.908770687994185" lon="9.879121951536858"><ele>97.0</ele><time>2026-04-06T07:04:59Z</time></trkpt><trkpt lat="44.90870577117349" lon="9.879112619289163"><ele>97.0</ele><time>2026-04-06T07:05:00Z</time></trkpt><trkpt lat="44.90863926020829" lon="9.87910696392611"><ele>97.0</ele><time>2026-04-06T07:05:01Z</time></trkpt><trkpt lat="44.90857345288335" lon="9.879103265123591"><ele>97.0</ele><time>2026-04-06T07:05:02Z</time></trkpt><trkpt lat="44.908508099390886" lon="9.879097385430153"><ele>97.0</ele><time>2026-04-06T07:05:03Z</time></trkpt><trkpt lat="44.908440931746014" lon="9.87909169143525"><ele>97.0</ele><time>2026-04-06T07:05:04Z</time></trkpt><trkpt lat="44.908371985489595" lon="9.879082795589548"><ele>97.0</ele><time>2026-04-06T07:05:05Z</time></trkpt><trkpt lat="44.90830186838356" lon="9.879077482582417"><ele>97.0</ele><time>2026-04-06T07:05:06Z</time></trkpt><trkpt lat="44.90822928760736" lon="9.879074996282487"><ele>97.0</ele><time>2026-04-06T07:05:07Z</time></trkpt><trkpt lat="44.90815881148367" lon="9.879071568475323"><ele>97.0</ele><time>2026-04-06T07:05:08Z</time></trkpt><trkpt lat="44.90808503808088" lon="9.879065867483334"><ele>97.0</ele><time>2026-04-06T07:05:09Z</time></trkpt><trkpt lat="44.90801172830553" lon="9.879066870243909"><ele>97.0</ele><time>2026-04-06T07:05:10Z</time></trkpt><trkpt lat="44.90793845064288" lon="9.879059991683317"><ele>97.0</ele><time>2026-04-06T07:05:11Z</time></trkpt><trkpt lat="44.907865720194366" lon="9.879055641253416"><ele>97.0</ele><time>2026-04-06T07:05:12Z</time></trkpt><trkpt lat="44.907793617671096" lon="9.879050166459175"><ele>97.0</ele><time>2026-04-06T07:05:13Z</time></trkpt><trkpt lat="44.90772263714177" lon="9.879042160829275"><ele>97.0</ele><time>2026-04-06T07:05:14Z</time></trkpt><trkpt lat="44.90765104375331" lon="9.879035598083345"><ele>97.0</ele><time>2026-04-06T07:05:15Z</time></trkpt><trkpt lat="44.90758016927282" lon="9.879031754613871"><ele>97.0</ele><time>2026-04-06T07:05:16Z</time></trkpt><trkpt lat="44.90750871182613" lon="9.879026716505265"><ele>97.57142857142857</ele><time>2026-04-06T07:05:17Z</time></trkpt><trkpt lat="44.907434982370745" lon="9.879022799312528"><ele>98.14285714285715</ele><time>2026-04-06T07:05:18Z</time></trkpt><trkpt lat="44.90736104866837" lon="9.879022855189078"><ele>98.71428571428572</ele><time>2026-04-06T07:05:19Z</time></trkpt><trkpt lat="44.90728855452679" lon="9.879016189897929"><ele>99.28571428571428</ele><time>2026-04-06T07:05:20Z</time></trkpt><trkpt lat="44.90721593752006" lon="9.8790095505649"><ele>99.85714285714286</ele><time>2026-04-06T07:05:21Z</time></trkpt><trkpt lat="44.907143608398705" lon="9.879005566390154"><ele>100.42857142857143</ele><time>2026-04-06T07:05:22Z</time></trkpt><trkpt lat="44.90707050775487" lon="9.878998665309089"><ele>101.0</ele><time>2026-04-06T07:05:23Z</time></trkpt><trkpt lat="44.90699992502676" lon="9.878982807160734"><ele>101.0</ele><time>2026-04-06T07:05:24Z</time></trkpt><trkpt lat="44.90692833399349" lon="9.878960328778744"><ele>101.0</ele><time>2026-04-06T07:05:25Z</time></trkpt><trkpt lat="44.90686253681914" lon="9.878924340441532"><ele>101.0</ele><time>2026-04-06T07:05:26Z</time></trkpt><trkpt lat="44.90680104422618" lon="9.878867266772085"><ele>101.0</ele><time>2026-04-06T07:05:27Z</time></trkpt><trkpt lat="44.90674479346176" lon="9.878803967511722"><ele>101.0</ele><time>2026-04-06T07:05:28Z</time></trkpt><trkpt lat="44.906693198865156" lon="9.878733027444682"><ele>101.0</ele><time>2026-04-06T07:05:29Z</time></trkpt><trkpt lat="44.906643557173666" lon="9.87865971917805"><ele>101.0</ele><time>2026-04-06T07:05:30Z</time></trkpt><trkpt lat="44.906593085464706" lon="9.87858321842955"><ele>101.0</ele><time>2026-04-06T07:05:31Z</time></trkpt><trkpt lat="44.9065449232289" lon="9.878507430826497"><ele>101.0</ele><time>2026-04-06T07:05:32Z</time></trkpt><trkpt lat="44.90649625520116" lon="9.878431639283134"><ele>101.0</ele><time>2026-04-06T07:05:32.999Z</time></trkpt><trkpt lat="44.90644727891932" lon="9.878356280675485"><ele>101.0</ele><time>2026-04-06T07:05:33.999Z</time></trkpt><trkpt lat="44.90639829253044" lon="9.878278268757187"><ele>101.0</ele><time>2026-04-06T07:05:34.999Z</time></trkpt><trkpt lat="44.90635079743343" lon="9.878203555527916"><ele>101.0</ele><time>2026-04-06T07:05:35.999Z</time></trkpt><trkpt lat="44.90629989408915" lon="9.878127556322095"><ele>101.0</ele><time>2026-04-06T07:05:36.999Z</time></trkpt><trkpt lat="44.90625228298237" lon="9.878053505506427"><ele>101.0</ele><time>2026-04-06T07:05:37.999Z</time></trkpt><trkpt lat="44.90620338935249" lon="9.877977977517034"><ele>101.0</ele><time>2026-04-06T07:05:38.999Z</time></trkpt><trkpt lat="44.90615531759318" lon="9.87790303617103"><ele>101.0</ele><time>2026-04-06T07:05:39.999Z</time></trkpt><trkpt lat="44.90610746986349" lon="9.877828459595499"><ele>101.0</ele><time>2026-04-06T07:05:40.999Z</time></trkpt><trkpt lat="44.90605856685018" lon="9.877753551156395"><ele>101.0</ele><time>2026-04-06T07:05:41.999Z</time></trkpt><trkpt lat="44.9060102649573" lon="9.877681414271994"><ele>101.0</ele><time>2026-04-06T07:05:42.999Z</time></trkpt><trkpt lat="44.90596365117378" lon="9.877606803439697"><ele>101.0</ele><time>2026-04-06T07:05:43.999Z</time></trkpt><trkpt lat="44.90593109497343" lon="9.877512956212868"><ele>101.28571428571428</ele><time>2026-04-06T07:05:44.999Z</time></trkpt><trkpt lat="44.9058826555558" lon="9.877438103582518"><ele>101.57142857142857</ele><time>2026-04-06T07:05:45.999Z</time></trkpt><trkpt lat="44.905834873016836" lon="9.877364721308684"><ele>101.85714285714286</ele><time>2026-04-06T07:05:46.999Z</time></trkpt><trkpt lat="44.90577207586295" lon="9.877310638224424"><ele>102.14285714285714</ele><time>2026-04-06T07:05:47.999Z</time></trkpt><trkpt lat="44.90572252581306" lon="9.8772374127615"><ele>102.42857142857143</ele><time>2026-04-06T07:05:48.999Z</time></trkpt><trkpt lat="44.90567699673804" lon="9.87716416818284"><ele>102.71428571428571</ele><time>2026-04-06T07:05:49.999Z</time></trkpt><trkpt lat="44.905631551272506" lon="9.87709608451556"><ele>103.0</ele><time>2026-04-06T07:05:50.999Z</time></trkpt><trkpt lat="44.905590733860336" lon="9.877020623910662"><ele>102.99999999999999</ele><time>2026-04-06T07:05:51.999Z</time></trkpt><trkpt lat="44.905559127555605" lon="9.876939645858382"><ele>103.0</ele><time>2026-04-06T07:05:52.999Z</time></trkpt><trkpt lat="44.90553511533894" lon="9.876853327103664"><ele>103.0</ele><time>2026-04-06T07:05:53.999Z</time></trkpt><trkpt lat="44.9055105946394" lon="9.87676321062354"><ele>103.0</ele><time>2026-04-06T07:05:54.999Z</time></trkpt><trkpt lat="44.905489803425155" lon="9.876667781191063"><ele>103.0</ele><time>2026-04-06T07:05:55.999Z</time></trkpt><trkpt lat="44.90547299721396" lon="9.876571380111367"><ele>102.99999999999999</ele><time>2026-04-06T07:05:56.999Z</time></trkpt><trkpt lat="44.905461601718414" lon="9.876472181561658"><ele>103.0</ele><time>2026-04-06T07:05:57.999Z</time></trkpt><trkpt lat="44.905448004139366" lon="9.87637241379299"><ele>102.85714285714285</ele><time>2026-04-06T07:05:58.999Z</time></trkpt><trkpt lat="44.905432321016875" lon="9.876276839797718"><ele>102.71428571428571</ele><time>2026-04-06T07:05:59.999Z</time></trkpt><trkpt lat="44.90541475373648" lon="9.876182587256087"><ele>102.57142857142857</ele><time>2026-04-06T07:06:00.999Z</time></trkpt><trkpt lat="44.90540101173368" lon="9.876089451558432"><ele>102.42857142857142</ele><time>2026-04-06T07:06:01.999Z</time></trkpt><trkpt lat="44.905406628456" lon="9.875988184114801"><ele>102.28571428571429</ele><time>2026-04-06T07:06:02.999Z</time></trkpt><trkpt lat="44.90539194129377" lon="9.87589608339424"><ele>102.14285714285714</ele><time>2026-04-06T07:06:03.999Z</time></trkpt><trkpt lat="44.905377166765" lon="9.875803434775996"><ele>102.0</ele><time>2026-04-06T07:06:04.999Z</time></trkpt><trkpt lat="44.90536177710242" lon="9.87570692877387"><ele>102.0</ele><time>2026-04-06T07:06:05.999Z</time></trkpt><trkpt lat="44.90534623407863" lon="9.875609529387567"><ele>102.0</ele><time>2026-04-06T07:06:06.999Z</time></trkpt><trkpt lat="44.90532895236987" lon="9.87550756306966"><ele>102.0</ele><time>2026-04-06T07:06:07.999Z</time></trkpt><trkpt lat="44.905311870125026" lon="9.87540677352546"><ele>102.0</ele><time>2026-04-06T07:06:08.999Z</time></trkpt><trkpt lat="44.90529465037978" lon="9.875305172740495"><ele>102.0</ele><time>2026-04-06T07:06:09.999Z</time></trkpt><trkpt lat="44.90527706117181" lon="9.875201392091308"><ele>102.0</ele><time>2026-04-06T07:06:10.999Z</time></trkpt><trkpt lat="44.905259354716236" lon="9.875096919535233"><ele>102.0</ele><time>2026-04-06T07:06:11.999Z</time></trkpt><trkpt lat="44.90524147117244" lon="9.874991402157884"><ele>101.83333333333333</ele><time>2026-04-06T07:06:12.999Z</time></trkpt><trkpt lat="44.90522340382551" lon="9.874884800231689"><ele>101.66666666666666</ele><time>2026-04-06T07:06:13.999Z</time></trkpt><trkpt lat="44.90520493737958" lon="9.874775843667765"><ele>101.5</ele><time>2026-04-06T07:06:14.999Z</time></trkpt><trkpt lat="44.90518605832636" lon="9.874664452551427"><ele>101.33333333333333</ele><time>2026-04-06T07:06:15.999Z</time></trkpt><trkpt lat="44.90516738485783" lon="9.874554274403067"><ele>101.16666666666666</ele><time>2026-04-06T07:06:16.999Z</time></trkpt><trkpt lat="44.90514899429808" lon="9.874445765546735"><ele>101.0</ele><time>2026-04-06T07:06:17.999Z</time></trkpt><trkpt lat="44.90513090181259" lon="9.874337556178547"><ele>100.99999999999999</ele><time>2026-04-06T07:06:18.999Z</time></trkpt><trkpt lat="44.90511296841267" lon="9.874229999873785"><ele>101.0</ele><time>2026-04-06T07:06:19.999Z</time></trkpt><trkpt lat="44.905094835385" lon="9.874121246298975"><ele>101.0</ele><time>2026-04-06T07:06:20.999Z</time></trkpt><trkpt lat="44.9050768083331" lon="9.874013128336484"><ele>101.0</ele><time>2026-04-06T07:06:21.999Z</time></trkpt><trkpt lat="44.90505890361584" lon="9.87390574405587"><ele>100.99999999999999</ele><time>2026-04-06T07:06:22.999Z</time></trkpt><trkpt lat="44.905040901874166" lon="9.873797777889198"><ele>101.0</ele><time>2026-04-06T07:06:23.999Z</time></trkpt><trkpt lat="44.90502251617559" lon="9.873687508882393"><ele>100.83333333333333</ele><time>2026-04-06T07:06:24.999Z</time></trkpt><trkpt lat="44.90500394658464" lon="9.873576137051574"><ele>100.66666666666666</ele><time>2026-04-06T07:06:25.999Z</time></trkpt><trkpt lat="44.90498517211679" lon="9.873463536378708"><ele>100.5</ele><time>2026-04-06T07:06:26.999Z</time></trkpt><trkpt lat="44.90496618759862" lon="9.873349675915799"><ele>100.33333333333334</ele><time>2026-04-06T07:06:28Z</time></trkpt><trkpt lat="44.90494759671216" lon="9.873238176386062"><ele>100.16666666666667</ele><time>2026-04-06T07:06:29.001Z</time></trkpt><trkpt lat="44.90492831804307" lon="9.8731221107077"><ele>100.0</ele><time>2026-04-06T07:06:30Z</time></trkpt><trkpt lat="44.904909183221626" lon="9.873006758236851"><ele>99.83333333333334</ele><time>2026-04-06T07:06:31Z</time></trkpt><trkpt lat="44.90489037252215" lon="9.872893359738075"><ele>99.66666666666667</ele><time>2026-04-06T07:06:32.001Z</time></trkpt><trkpt lat="44.90487175343899" lon="9.872781116377517"><ele>99.5</ele><time>2026-04-06T07:06:33Z</time></trkpt><trkpt lat="44.90485310380625" lon="9.87266868898915"><ele>99.33333333333334</ele><time>2026-04-06T07:06:34Z</time></trkpt><trkpt lat="44.9048344439449" lon="9.872556199672585"><ele>99.16666666666667</ele><time>2026-04-06T07:06:35.001Z</time></trkpt><trkpt lat="44.904816045001745" lon="9.872445283386762"><ele>99.0</ele><time>2026-04-06T07:06:36Z</time></trkpt><trkpt lat="44.904797498519024" lon="9.872333477765517"><ele>99.0</ele><time>2026-04-06T07:06:37Z</time></trkpt><trkpt lat="44.90477926767443" lon="9.87222357479672"><ele>99.0</ele><time>2026-04-06T07:06:38.001Z</time></trkpt><trkpt lat="44.90476100117225" lon="9.87211345693587"><ele>99.0</ele><time>2026-04-06T07:06:39Z</time></trkpt><trkpt lat="44.90474222826073" lon="9.872000286218839"><ele>99.0</ele><time>2026-04-06T07:06:40Z</time></trkpt><trkpt lat="44.90472369879152" lon="9.871888583086381"><ele>99.0</ele><time>2026-04-06T07:06:41.001Z</time></trkpt><trkpt lat="44.90470443053411" lon="9.871772426310095"><ele>99.0</ele><time>2026-04-06T07:06:42Z</time></trkpt><trkpt lat="44.90468521241058" lon="9.871658022403258"><ele>98.66666666666667</ele><time>2026-04-06T07:06:43Z</time></trkpt><trkpt lat="44.9046657624265" lon="9.871542338305586"><ele>98.33333333333334</ele><time>2026-04-06T07:06:44Z</time></trkpt><trkpt lat="44.90464619747329" lon="9.871425970394546"><ele>98.0</ele><time>2026-04-06T07:06:45Z</time></trkpt><trkpt lat="44.90462667537533" lon="9.871309857370834"><ele>97.66666666666667</ele><time>2026-04-06T07:06:46Z</time></trkpt><trkpt lat="44.90460685543581" lon="9.871191972813968"><ele>97.33333333333334</ele><time>2026-04-06T07:06:47Z</time></trkpt><trkpt lat="44.90458740699041" lon="9.871076297852111"><ele>97.0</ele><time>2026-04-06T07:06:48Z</time></trkpt><trkpt lat="44.904568415050456" lon="9.870960362792324"><ele>96.66666666666667</ele><time>2026-04-06T07:06:49Z</time></trkpt><trkpt lat="44.904549351493095" lon="9.870843825342567"><ele>96.33333333333334</ele><time>2026-04-06T07:06:50Z</time></trkpt><trkpt lat="44.90453060361132" lon="9.870729217647746"><ele>96.0</ele><time>2026-04-06T07:06:51Z</time></trkpt><trkpt lat="44.90451186198468" lon="9.870614648161533"><ele>95.66666666666667</ele><time>2026-04-06T07:06:52Z</time></trkpt><trkpt lat="44.904492728528055" lon="9.870499180307354"><ele>95.33333333333334</ele><time>2026-04-06T07:06:53Z</time></trkpt><trkpt lat="44.904472319832365" lon="9.870381410875511"><ele>95.0</ele><time>2026-04-06T07:06:54Z</time></trkpt><trkpt lat="44.90445164209092" lon="9.870262088843523"><ele>95.0</ele><time>2026-04-06T07:06:55Z</time></trkpt><trkpt lat="44.90443291378082" lon="9.870145514492703"><ele>95.0</ele><time>2026-04-06T07:06:56Z</time></trkpt><trkpt lat="44.90441453739277" lon="9.870026354445455"><ele>95.0</ele><time>2026-04-06T07:06:57Z</time></trkpt><trkpt lat="44.90439582392003" lon="9.86990500875714"><ele>95.0</ele><time>2026-04-06T07:06:58Z</time></trkpt><trkpt lat="44.90437748903606" lon="9.869786117925825"><ele>95.0</ele><time>2026-04-06T07:06:59Z</time></trkpt><trkpt lat="44.90435909839137" lon="9.869666865547865"><ele>95.0</ele><time>2026-04-06T07:07:00Z</time></trkpt><trkpt lat="44.90434079498863" lon="9.8695481789499"><ele>95.16666666666667</ele><time>2026-04-06T07:07:01Z</time></trkpt><trkpt lat="44.9043204388348" lon="9.869430134638444"><ele>95.33333333333334</ele><time>2026-04-06T07:07:02Z</time></trkpt><trkpt lat="44.904290732408434" lon="9.86931035678933"><ele>95.5</ele><time>2026-04-06T07:07:03Z</time></trkpt><trkpt lat="44.90425272974202" lon="9.869198442767711"><ele>95.66666666666667</ele><time>2026-04-06T07:07:04Z</time></trkpt><trkpt lat="44.904191543584375" lon="9.869101649178088"><ele>95.83333333333333</ele><time>2026-04-06T07:07:05Z</time></trkpt><trkpt lat="44.90413259566753" lon="9.869018166806905"><ele>96.0</ele><time>2026-04-06T07:07:06Z</time></trkpt><trkpt lat="44.90407647237933" lon="9.86894007680183"><ele>96.16666666666667</ele><time>2026-04-06T07:07:07Z</time></trkpt><trkpt lat="44.90402096041546" lon="9.868862774010493"><ele>96.33333333333334</ele><time>2026-04-06T07:07:08Z</time></trkpt><trkpt lat="44.903966098347624" lon="9.868785625337779"><ele>96.5</ele><time>2026-04-06T07:07:09Z</time></trkpt><trkpt lat="44.90391213486983" lon="9.86870974028217"><ele>96.66666666666667</ele><time>2026-04-06T07:07:10Z</time></trkpt><trkpt lat="44.903857852368546" lon="9.868633406611972"><ele>96.83333333333334</ele><time>2026-04-06T07:07:11Z</time></trkpt><trkpt lat="44.90380228964681" lon="9.86855527266034"><ele>97.0</ele><time>2026-04-06T07:07:12Z</time></trkpt><trkpt lat="44.90374784728834" lon="9.868478714195042"><ele>97.00000000000001</ele><time>2026-04-06T07:07:13Z</time></trkpt><trkpt lat="44.903693197266335" lon="9.868401863692668"><ele>97.0</ele><time>2026-04-06T07:07:14Z</time></trkpt><trkpt lat="44.903638571206365" lon="9.868325046897038"><ele>97.0</ele><time>2026-04-06T07:07:15Z</time></trkpt><trkpt lat="44.903584411074995" lon="9.868248885294552"><ele>97.0</ele><time>2026-04-06T07:07:16Z</time></trkpt><trkpt lat="44.90352899199407" lon="9.868170953791996"><ele>97.00000000000001</ele><time>2026-04-06T07:07:17Z</time></trkpt><trkpt lat="44.90347490110086" lon="9.868094415768523"><ele>97.0</ele><time>2026-04-06T07:07:18Z</time></trkpt><trkpt lat="44.903420805000366" lon="9.868018042523182"><ele>97.00000000000001</ele><time>2026-04-06T07:07:19Z</time></trkpt><trkpt lat="44.90336561072726" lon="9.867940118893072"><ele>97.0</ele><time>2026-04-06T07:07:20Z</time></trkpt><trkpt lat="44.903308994017934" lon="9.867860187057866"><ele>97.0</ele><time>2026-04-06T07:07:21Z</time></trkpt><trkpt lat="44.90325166368118" lon="9.86778032475112"><ele>97.0</ele><time>2026-04-06T07:07:22Z</time></trkpt><trkpt lat="44.903193627648434" lon="9.867700717801078"><ele>97.00000000000001</ele><time>2026-04-06T07:07:23Z</time></trkpt><trkpt lat="44.90313401681787" lon="9.867620451804259"><ele>97.0</ele><time>2026-04-06T07:07:24Z</time></trkpt><trkpt lat="44.90307426231583" lon="9.86754059196248"><ele>96.83333333333334</ele><time>2026-04-06T07:07:25Z</time></trkpt><trkpt lat="44.903013099712204" lon="9.867459728921146"><ele>96.66666666666667</ele><time>2026-04-06T07:07:26Z</time></trkpt><trkpt lat="44.90295265673648" lon="9.86737987879232"><ele>96.5</ele><time>2026-04-06T07:07:27Z</time></trkpt><trkpt lat="44.902891566379196" lon="9.867299173416649"><ele>96.33333333333334</ele><time>2026-04-06T07:07:28Z</time></trkpt><trkpt lat="44.902830859554314" lon="9.867218974718334"><ele>96.16666666666667</ele><time>2026-04-06T07:07:29Z</time></trkpt><trkpt lat="44.90276947224904" lon="9.867137877052821"><ele>96.0</ele><time>2026-04-06T07:07:30Z</time></trkpt><trkpt lat="44.902707369938135" lon="9.86705680309323"><ele>96.0</ele><time>2026-04-06T07:07:31Z</time></trkpt><trkpt lat="44.90264600905693" lon="9.866978378126467"><ele>96.0</ele><time>2026-04-06T07:07:32Z</time></trkpt><trkpt lat="44.902575242367725" lon="9.866915033186373"><ele>96.0</ele><time>2026-04-06T07:07:33Z</time></trkpt><trkpt lat="44.90251455663769" lon="9.866835910198994"><ele>96.0</ele><time>2026-04-06T07:07:34Z</time></trkpt><trkpt lat="44.9024572784384" lon="9.866759967515273"><ele>96.0</ele><time>2026-04-06T07:07:35Z</time></trkpt><trkpt lat="44.902402082746256" lon="9.866686996512994"><ele>96.0</ele><time>2026-04-06T07:07:36Z</time></trkpt><trkpt lat="44.90234939598362" lon="9.866614440392947"><ele>95.71428571428571</ele><time>2026-04-06T07:07:37Z</time></trkpt><trkpt lat="44.90229896595449" lon="9.866542989057036"><ele>95.42857142857143</ele><time>2026-04-06T07:07:37.999Z</time></trkpt><trkpt lat="44.9022507480539" lon="9.86647060452754"><ele>95.14285714285714</ele><time>2026-04-06T07:07:38.999Z</time></trkpt><trkpt lat="44.90220249007399" lon="9.866400570576376"><ele>94.85714285714286</ele><time>2026-04-06T07:07:39.999Z</time></trkpt><trkpt lat="44.90215740841165" lon="9.866324153897539"><ele>94.57142857142857</ele><time>2026-04-06T07:07:40.999Z</time></trkpt><trkpt lat="44.90211647873078" lon="9.866241855191952"><ele>94.28571428571428</ele><time>2026-04-06T07:07:41.999Z</time></trkpt><trkpt lat="44.902077225958756" lon="9.86615258756351"><ele>94.0</ele><time>2026-04-06T07:07:42.999Z</time></trkpt><trkpt lat="44.90206421094805" lon="9.866050766087467"><ele>94.0</ele><time>2026-04-06T07:07:43.999Z</time></trkpt><trkpt lat="44.90203989249771" lon="9.865957126781936"><ele>94.0</ele><time>2026-04-06T07:07:44.999Z</time></trkpt><trkpt lat="44.902016054312014" lon="9.865862922339607"><ele>94.0</ele><time>2026-04-06T07:07:45.999Z</time></trkpt><trkpt lat="44.90198076123862" lon="9.865774496935224"><ele>94.0</ele><time>2026-04-06T07:07:46.999Z</time></trkpt><trkpt lat="44.90195880050878" lon="9.865679470457454"><ele>94.0</ele><time>2026-04-06T07:07:47.999Z</time></trkpt><trkpt lat="44.90193018832413" lon="9.865589081686187"><ele>94.0</ele><time>2026-04-06T07:07:48.999Z</time></trkpt><trkpt lat="44.90191875202201" lon="9.865488992274813"><ele>94.0</ele><time>2026-04-06T07:07:49.999Z</time></trkpt><trkpt lat="44.901875148684475" lon="9.86540925282264"><ele>94.0</ele><time>2026-04-06T07:07:50.999Z</time></trkpt><trkpt lat="44.901847519563724" lon="9.865326327073381"><ele>94.0</ele><time>2026-04-06T07:07:51.999Z</time></trkpt><trkpt lat="44.90181312705519" lon="9.865201030684679"><ele>94.0</ele><time>2026-04-06T07:07:53.999Z</time></trkpt><trkpt lat="44.90175449122062" lon="9.865107883468198"><ele>94.0</ele><time>2026-04-06T07:07:55.999Z</time></trkpt><trkpt lat="44.901687337074456" lon="9.865009215043981"><ele>94.0</ele><time>2026-04-06T07:07:57.999Z</time></trkpt><trkpt lat="44.90161244433402" lon="9.864902809440661"><ele>94.57142857142857</ele><time>2026-04-06T07:07:59.999Z</time></trkpt><trkpt lat="44.90155061921905" lon="9.864848534691157"><ele>95.14285714285714</ele><time>2026-04-06T07:08:00.999Z</time></trkpt><trkpt lat="44.901488140044414" lon="9.864813959748505"><ele>95.71428571428572</ele><time>2026-04-06T07:08:01.999Z</time></trkpt><trkpt lat="44.9014239742495" lon="9.864776164816343"><ele>96.28571428571428</ele><time>2026-04-06T07:08:02.999Z</time></trkpt><trkpt lat="44.90135707345456" lon="9.864730787601083"><ele>96.85714285714286</ele><time>2026-04-06T07:08:03.999Z</time></trkpt><trkpt lat="44.90128816771345" lon="9.864686251589834"><ele>97.42857142857143</ele><time>2026-04-06T07:08:04.999Z</time></trkpt><trkpt lat="44.901219808826376" lon="9.86463458526365"><ele>98.0</ele><time>2026-04-06T07:08:05.999Z</time></trkpt><trkpt lat="44.90115108025034" lon="9.864578706423805"><ele>97.99999999999999</ele><time>2026-04-06T07:08:06.999Z</time></trkpt><trkpt lat="44.90108346678662" lon="9.864526519284745"><ele>98.0</ele><time>2026-04-06T07:08:07.999Z</time></trkpt><trkpt lat="44.90101144730259" lon="9.864462754465977"><ele>98.0</ele><time>2026-04-06T07:08:08.999Z</time></trkpt><trkpt lat="44.90094592766116" lon="9.864399775531378"><ele>98.0</ele><time>2026-04-06T07:08:09.999Z</time></trkpt><trkpt lat="44.90088968303467" lon="9.864319491924258"><ele>97.99999999999999</ele><time>2026-04-06T07:08:10.999Z</time></trkpt><trkpt lat="44.900821968561345" lon="9.8642539000119"><ele>98.0</ele><time>2026-04-06T07:08:11.999Z</time></trkpt><trkpt lat="44.90074507898515" lon="9.864207308457086"><ele>97.49999999999999</ele><time>2026-04-06T07:08:12.999Z</time></trkpt><trkpt lat="44.900677576619785" lon="9.864140690499557"><ele>97.0</ele><time>2026-04-06T07:08:13.999Z</time></trkpt><trkpt lat="44.9006093462526" lon="9.864076135453073"><ele>96.5</ele><time>2026-04-06T07:08:14.999Z</time></trkpt><trkpt lat="44.90054870437009" lon="9.863994259368567"><ele>96.0</ele><time>2026-04-06T07:08:15.999Z</time></trkpt><trkpt lat="44.900482232338334" lon="9.863931558135842"><ele>95.5</ele><time>2026-04-06T07:08:16.999Z</time></trkpt><trkpt lat="44.900416469409315" lon="9.863869525783214"><ele>95.0</ele><time>2026-04-06T07:08:17.999Z</time></trkpt><trkpt lat="44.900351420729436" lon="9.863808167159792"><ele>95.0</ele><time>2026-04-06T07:08:18.999Z</time></trkpt><trkpt lat="44.900288020049175" lon="9.863748943695382"><ele>95.0</ele><time>2026-04-06T07:08:19.999Z</time></trkpt><trkpt lat="44.90021478065404" lon="9.8637110332332"><ele>95.0</ele><time>2026-04-06T07:08:20.999Z</time></trkpt><trkpt lat="44.90015402437012" lon="9.863652400643801"><ele>95.0</ele><time>2026-04-06T07:08:21.999Z</time></trkpt><trkpt lat="44.900094548450824" lon="9.863596461691516"><ele>95.0</ele><time>2026-04-06T07:08:22.999Z</time></trkpt><trkpt lat="44.90003503040935" lon="9.863538261123445"><ele>95.0</ele><time>2026-04-06T07:08:23.999Z</time></trkpt><trkpt lat="44.89997791424019" lon="9.8634736209198"><ele>95.0</ele><time>2026-04-06T07:08:24.999Z</time></trkpt><trkpt lat="44.89992506621909" lon="9.863398311319479"><ele>95.0</ele><time>2026-04-06T07:08:25.999Z</time></trkpt><trkpt lat="44.89988017681916" lon="9.863312778904874"><ele>95.0</ele><time>2026-04-06T07:08:26.999Z</time></trkpt><trkpt lat="44.89983179838786" lon="9.863228860901092"><ele>95.0</ele><time>2026-04-06T07:08:27.999Z</time></trkpt><trkpt lat="44.899774023812135" lon="9.863159611445058"><ele>95.0</ele><time>2026-04-06T07:08:28.999Z</time></trkpt><trkpt lat="44.899712103449026" lon="9.863098253807959"><ele>95.0</ele><time>2026-04-06T07:08:29.999Z</time></trkpt><trkpt lat="44.899644312866954" lon="9.86305280168914"><ele>95.0</ele><time>2026-04-06T07:08:30.999Z</time></trkpt><trkpt lat="44.8995781443782" lon="9.863006354858264"><ele>95.0</ele><time>2026-04-06T07:08:31.999Z</time></trkpt><trkpt lat="44.899511018617666" lon="9.86296183844949"><ele>95.0</ele><time>2026-04-06T07:08:33Z</time></trkpt><trkpt lat="44.899446619573375" lon="9.862915452652222"><ele>95.0</ele><time>2026-04-06T07:08:34Z</time></trkpt><trkpt lat="44.89937811038823" lon="9.862872481577703"><ele>95.0</ele><time>2026-04-06T07:08:35Z</time></trkpt><trkpt lat="44.8993110443043" lon="9.862830215676624"><ele>95.0</ele><time>2026-04-06T07:08:36Z</time></trkpt><trkpt lat="44.899243911934256" lon="9.862788061945281"><ele>95.0</ele><time>2026-04-06T07:08:37Z</time></trkpt><trkpt lat="44.89917711912509" lon="9.862744260027217"><ele>95.0</ele><time>2026-04-06T07:08:38Z</time></trkpt><trkpt lat="44.899109997508546" lon="9.862701384745616"><ele>95.42857142857143</ele><time>2026-04-06T07:08:39Z</time></trkpt><trkpt lat="44.899041115072514" lon="9.86265727118507"><ele>95.85714285714286</ele><time>2026-04-06T07:08:40Z</time></trkpt><trkpt lat="44.89897537727412" lon="9.862611800952163"><ele>96.28571428571428</ele><time>2026-04-06T07:08:41Z</time></trkpt><trkpt lat="44.89890687587777" lon="9.862566337549337"><ele>96.71428571428572</ele><time>2026-04-06T07:08:42Z</time></trkpt><trkpt lat="44.89884154532373" lon="9.862519521056422"><ele>97.14285714285714</ele><time>2026-04-06T07:08:43Z</time></trkpt><trkpt lat="44.898774460921075" lon="9.862474588424435"><ele>97.57142857142857</ele><time>2026-04-06T07:08:44Z</time></trkpt><trkpt lat="44.89871038007868" lon="9.862427561277462"><ele>98.0</ele><time>2026-04-06T07:08:45Z</time></trkpt><trkpt lat="44.89864371580798" lon="9.862387226902731"><ele>98.0</ele><time>2026-04-06T07:08:46Z</time></trkpt><trkpt lat="44.89857912874552" lon="9.86234230888653"><ele>98.0</ele><time>2026-04-06T07:08:47Z</time></trkpt><trkpt lat="44.8985134203109" lon="9.862300680338327"><ele>98.0</ele><time>2026-04-06T07:08:48Z</time></trkpt><trkpt lat="44.898444794906624" lon="9.862264991732026"><ele>98.0</ele><time>2026-04-06T07:08:49Z</time></trkpt><trkpt lat="44.89837828177077" lon="9.862233804247"><ele>98.0</ele><time>2026-04-06T07:08:50Z</time></trkpt><trkpt lat="44.898310966947996" lon="9.862211838584912"><ele>98.0</ele><time>2026-04-06T07:08:51Z</time></trkpt><trkpt lat="44.898239163614434" lon="9.86219337686569"><ele>98.0</ele><time>2026-04-06T07:08:52Z</time></trkpt><trkpt lat="44.89817163650007" lon="9.862180207671267"><ele>98.14285714285714</ele><time>2026-04-06T07:08:53Z</time></trkpt><trkpt lat="44.89810223009515" lon="9.862169090816508"><ele>98.28571428571428</ele><time>2026-04-06T07:08:54Z</time></trkpt><trkpt lat="44.89803282329354" lon="9.862159341945915"><ele>98.42857142857143</ele><time>2026-04-06T07:08:55Z</time></trkpt><trkpt lat="44.89796366055545" lon="9.862147899728846"><ele>98.57142857142857</ele><time>2026-04-06T07:08:56Z</time></trkpt><trkpt lat="44.89789720931964" lon="9.86213563305029"><ele>98.71428571428571</ele><time>2026-04-06T07:08:57Z</time></trkpt><trkpt lat="44.897830236502955" lon="9.862114233515051"><ele>98.85714285714286</ele><time>2026-04-06T07:08:58Z</time></trkpt><trkpt lat="44.89776671718319" lon="9.862079524954176"><ele>99.0</ele><time>2026-04-06T07:08:59Z</time></trkpt><trkpt lat="44.897716726674815" lon="9.862023849629853"><ele>99.0</ele><time>2026-04-06T07:09:00Z</time></trkpt><trkpt lat="44.89765751244246" lon="9.861866144661379"><ele>99.0</ele><time>2026-04-06T07:09:02Z</time></trkpt><trkpt lat="44.89765601738553" lon="9.8617708923849"><ele>99.0</ele><time>2026-04-06T07:09:03Z</time></trkpt><trkpt lat="44.897660768779275" lon="9.861671493053194"><ele>99.0</ele><time>2026-04-06T07:09:04Z</time></trkpt><trkpt lat="44.897663574676294" lon="9.861579128278413"><ele>99.0</ele><time>2026-04-06T07:09:05Z</time></trkpt><trkpt lat="44.897668034864694" lon="9.861486709752901"><ele>99.0</ele><time>2026-04-06T07:09:06Z</time></trkpt><trkpt lat="44.897667722715" lon="9.861394332299096"><ele>98.71428571428572</ele><time>2026-04-06T07:09:07Z</time></trkpt><trkpt lat="44.89765884520633" lon="9.861300693643841"><ele>98.42857142857142</ele><time>2026-04-06T07:09:08Z</time></trkpt><trkpt lat="44.89763534096792" lon="9.861209674666508"><ele>98.14285714285714</ele><time>2026-04-06T07:09:09Z</time></trkpt><trkpt lat="44.897591159245565" lon="9.861132694403715"><ele>97.85714285714286</ele><time>2026-04-06T07:09:10Z</time></trkpt><trkpt lat="44.8975316841467" lon="9.86107338781713"><ele>97.57142857142858</ele><time>2026-04-06T07:09:11Z</time></trkpt><trkpt lat="44.89746616618506" lon="9.86102905816416"><ele>97.28571428571428</ele><time>2026-04-06T07:09:12Z</time></trkpt><trkpt lat="44.89739782934672" lon="9.860997641547039"><ele>97.0</ele><time>2026-04-06T07:09:13Z</time></trkpt><trkpt lat="44.89733027636551" lon="9.86097203021769"><ele>97.42857142857143</ele><time>2026-04-06T07:09:14Z</time></trkpt><trkpt lat="44.89726130801364" lon="9.860945914028155"><ele>97.85714285714286</ele><time>2026-04-06T07:09:15Z</time></trkpt><trkpt lat="44.89719235665536" lon="9.860915713048204"><ele>98.28571428571429</ele><time>2026-04-06T07:09:16Z</time></trkpt><trkpt lat="44.8971240348373" lon="9.860883397949658"><ele>98.71428571428572</ele><time>2026-04-06T07:09:17Z</time></trkpt><trkpt lat="44.89705600823548" lon="9.860853089159045"><ele>99.14285714285714</ele><time>2026-04-06T07:09:18Z</time></trkpt><trkpt lat="44.89698781294096" lon="9.860823634410027"><ele>99.57142857142858</ele><time>2026-04-06T07:09:19Z</time></trkpt><trkpt lat="44.89691925024379" lon="9.860793421630905"><ele>100.0</ele><time>2026-04-06T07:09:20Z</time></trkpt><trkpt lat="44.896851242108696" lon="9.860760726380656"><ele>100.00000000000001</ele><time>2026-04-06T07:09:21Z</time></trkpt><trkpt lat="44.896782697187554" lon="9.860729550390303"><ele>100.0</ele><time>2026-04-06T07:09:22Z</time></trkpt><trkpt lat="44.89671226182457" lon="9.86069786292936"><ele>100.0</ele><time>2026-04-06T07:09:23Z</time></trkpt><trkpt lat="44.896644014848256" lon="9.860666247554736"><ele>100.0</ele><time>2026-04-06T07:09:24Z</time></trkpt><trkpt lat="44.896573026089314" lon="9.860635166622389"><ele>100.0</ele><time>2026-04-06T07:09:25Z</time></trkpt><trkpt lat="44.896502488278315" lon="9.860604186495703"><ele>100.00000000000001</ele><time>2026-04-06T07:09:26Z</time></trkpt><trkpt lat="44.89643175916872" lon="9.86057186268104"><ele>100.0</ele><time>2026-04-06T07:09:27Z</time></trkpt><trkpt lat="44.89636145704539" lon="9.860541654632971"><ele>100.28571428571429</ele><time>2026-04-06T07:09:28Z</time></trkpt><trkpt lat="44.89629116602733" lon="9.860511151857533"><ele>100.57142857142857</ele><time>2026-04-06T07:09:29Z</time></trkpt><trkpt lat="44.896223236065595" lon="9.860479674869586"><ele>100.85714285714286</ele><time>2026-04-06T07:09:30Z</time></trkpt><trkpt lat="44.89615326014854" lon="9.860448699334766"><ele>101.14285714285714</ele><time>2026-04-06T07:09:31Z</time></trkpt><trkpt lat="44.89608382134604" lon="9.86042090742019"><ele>101.42857142857143</ele><time>2026-04-06T07:09:32Z</time></trkpt><trkpt lat="44.896015033447554" lon="9.860390068049043"><ele>101.71428571428572</ele><time>2026-04-06T07:09:33Z</time></trkpt><trkpt lat="44.89594477570437" lon="9.86036265389291"><ele>102.0</ele><time>2026-04-06T07:09:34Z</time></trkpt><trkpt lat="44.89587594060527" lon="9.860331146773651"><ele>102.0</ele><time>2026-04-06T07:09:35Z</time></trkpt><trkpt lat="44.89580626197652" lon="9.860298572092113"><ele>102.0</ele><time>2026-04-06T07:09:36Z</time></trkpt><trkpt lat="44.89573715107821" lon="9.8602666328341"><ele>102.0</ele><time>2026-04-06T07:09:37Z</time></trkpt><trkpt lat="44.89566680745429" lon="9.860237852123102"><ele>102.0</ele><time>2026-04-06T07:09:38Z</time></trkpt><trkpt lat="44.89559835529315" lon="9.860206701776153"><ele>102.0</ele><time>2026-04-06T07:09:39Z</time></trkpt><trkpt lat="44.89552927315753" lon="9.860177595333822"><ele>102.0</ele><time>2026-04-06T07:09:39.999Z</time></trkpt><trkpt lat="44.895460611515" lon="9.860147963624003"><ele>102.0</ele><time>2026-04-06T07:09:40.999Z</time></trkpt><trkpt lat="44.89539300938722" lon="9.860117022147454"><ele>102.0</ele><time>2026-04-06T07:09:41.999Z</time></trkpt><trkpt lat="44.89532587551351" lon="9.860086912803581"><ele>102.0</ele><time>2026-04-06T07:09:42.999Z</time></trkpt><trkpt lat="44.89525871678127" lon="9.860057372259641"><ele>102.0</ele><time>2026-04-06T07:09:43.999Z</time></trkpt><trkpt lat="44.895191451993625" lon="9.860024798991356"><ele>102.0</ele><time>2026-04-06T07:09:44.999Z</time></trkpt><trkpt lat="44.89512437569296" lon="9.859996762124938"><ele>102.0</ele><time>2026-04-06T07:09:45.999Z</time></trkpt><trkpt lat="44.89505822147299" lon="9.859969133734545"><ele>102.0</ele><time>2026-04-06T07:09:46.999Z</time></trkpt><trkpt lat="44.894992503743886" lon="9.859941791667874"><ele>102.0</ele><time>2026-04-06T07:09:47.999Z</time></trkpt><trkpt lat="44.894925665688504" lon="9.859911724695086"><ele>102.0</ele><time>2026-04-06T07:09:48.999Z</time></trkpt><trkpt lat="44.89485910619154" lon="9.859879212673007"><ele>102.0</ele><time>2026-04-06T07:09:49.999Z</time></trkpt><trkpt lat="44.89479595749677" lon="9.859842079667574"><ele>102.0</ele><time>2026-04-06T07:09:50.999Z</time></trkpt><trkpt lat="44.89473890241222" lon="9.85978221959246"><ele>102.0</ele><time>2026-04-06T07:09:51.999Z</time></trkpt><trkpt lat="44.89469750582029" lon="9.859699963771098"><ele>102.0</ele><time>2026-04-06T07:09:52.999Z</time></trkpt><trkpt lat="44.894668360323685" lon="9.85960598066629"><ele>102.0</ele><time>2026-04-06T07:09:53.999Z</time></trkpt><trkpt lat="44.894654187646985" lon="9.859507976753948"><ele>102.0</ele><time>2026-04-06T07:09:54.999Z</time></trkpt><trkpt lat="44.89465010602869" lon="9.859410292607688"><ele>102.0</ele><time>2026-04-06T07:09:55.999Z</time></trkpt><trkpt lat="44.89464819476463" lon="9.859311124556715"><ele>102.0</ele><time>2026-04-06T07:09:56.999Z</time></trkpt><trkpt lat="44.89464683169597" lon="9.859213210150552"><ele>102.0</ele><time>2026-04-06T07:09:57.999Z</time></trkpt><trkpt lat="44.89464358735446" lon="9.85911280392194"><ele>102.0</ele><time>2026-04-06T07:09:58.999Z</time></trkpt><trkpt lat="44.89464007416018" lon="9.85901370505025"><ele>102.0</ele><time>2026-04-06T07:09:59.999Z</time></trkpt><trkpt lat="44.89463697833244" lon="9.85891660782446"><ele>102.0</ele><time>2026-04-06T07:10:00.999Z</time></trkpt><trkpt lat="44.89464730673724" lon="9.858817081938247"><ele>102.0</ele><time>2026-04-06T07:10:01.999Z</time></trkpt><trkpt lat="44.89464404590759" lon="9.858722121067443"><ele>102.28571428571429</ele><time>2026-04-06T07:10:02.999Z</time></trkpt><trkpt lat="44.89464074932206" lon="9.858626118806225"><ele>102.57142857142858</ele><time>2026-04-06T07:10:03.999Z</time></trkpt><trkpt lat="44.8946375946991" lon="9.858534250798767"><ele>102.85714285714286</ele><time>2026-04-06T07:10:04.999Z</time></trkpt><trkpt lat="44.894634467410256" lon="9.858443179004434"><ele>103.14285714285714</ele><time>2026-04-06T07:10:05.999Z</time></trkpt><trkpt lat="44.89463139588876" lon="9.858353730951611"><ele>103.42857142857143</ele><time>2026-04-06T07:10:06.999Z</time></trkpt><trkpt lat="44.89462870592163" lon="9.858263174061598"><ele>103.71428571428571</ele><time>2026-04-06T07:10:07.999Z</time></trkpt><trkpt lat="44.89462445783956" lon="9.85809031478951"><ele>104.0</ele><time>2026-04-06T07:10:09.999Z</time></trkpt><trkpt lat="44.89462086159918" lon="9.85791831044583"><ele>104.80000000000001</ele><time>2026-04-06T07:10:11.999Z</time></trkpt><trkpt lat="44.89461722472971" lon="9.857744362897265"><ele>105.60000000000001</ele><time>2026-04-06T07:10:13.999Z</time></trkpt><trkpt lat="44.89461350259303" lon="9.857566337115104"><ele>106.4</ele><time>2026-04-06T07:10:15.999Z</time></trkpt><trkpt lat="44.89458320418641" lon="9.85739178914488"><ele>107.2</ele><time>2026-04-06T07:10:17.999Z</time></trkpt><trkpt lat="44.89458186783149" lon="9.857301368122778"><ele>108.0</ele><time>2026-04-06T07:10:18.999Z</time></trkpt><trkpt lat="44.89457849875906" lon="9.857126297711973"><ele>108.16666666666667</ele><time>2026-04-06T07:10:20.999Z</time></trkpt><trkpt lat="44.89456693233615" lon="9.856947607251534"><ele>108.33333333333334</ele><time>2026-04-06T07:10:22.999Z</time></trkpt><trkpt lat="44.89454605028546" lon="9.856862455734158"><ele>108.5</ele><time>2026-04-06T07:10:23.999Z</time></trkpt><trkpt lat="44.89450985216657" lon="9.856786666773315"><ele>108.66666666666667</ele><time>2026-04-06T07:10:24.999Z</time></trkpt><trkpt lat="44.8944566838598" lon="9.85673059383623"><ele>108.83333333333334</ele><time>2026-04-06T07:10:25.999Z</time></trkpt><trkpt lat="44.89439135513429" lon="9.856694812605046"><ele>109.0</ele><time>2026-04-06T07:10:26.999Z</time></trkpt><trkpt lat="44.894326572013206" lon="9.856670666134566"><ele>109.75</ele><time>2026-04-06T07:10:27.999Z</time></trkpt><trkpt lat="44.89420819882039" lon="9.856614578507113"><ele>110.5</ele><time>2026-04-06T07:10:29.999Z</time></trkpt><trkpt lat="44.89409178865118" lon="9.85655294919823"><ele>111.25</ele><time>2026-04-06T07:10:31.999Z</time></trkpt><trkpt lat="44.893981711768426" lon="9.856484666901059"><ele>112.0</ele><time>2026-04-06T07:10:33.999Z</time></trkpt><trkpt lat="44.89391879948742" lon="9.856338656510099"><ele>112.00000000000001</ele><time>2026-04-06T07:10:35.999Z</time></trkpt><trkpt lat="44.89391701532509" lon="9.856246978286523"><ele>112.0</ele><time>2026-04-06T07:10:36.998Z</time></trkpt><trkpt lat="44.893936248940825" lon="9.856152522557007"><ele>112.0</ele><time>2026-04-06T07:10:37.998Z</time></trkpt><trkpt lat="44.89394783766046" lon="9.856060838190356"><ele>112.0</ele><time>2026-04-06T07:10:39Z</time></trkpt><trkpt lat="44.89396086106829" lon="9.85597019704354"><ele>112.00000000000001</ele><time>2026-04-06T07:10:40Z</time></trkpt><trkpt lat="44.89398082139936" lon="9.855795749074467"><ele>112.0</ele><time>2026-04-06T07:10:42Z</time></trkpt><trkpt lat="44.89399230482414" lon="9.855707734681067"><ele>112.0</ele><time>2026-04-06T07:10:43Z</time></trkpt><trkpt lat="44.894002490686134" lon="9.85561838864554"><ele>112.0</ele><time>2026-04-06T07:10:44Z</time></trkpt><trkpt lat="44.89403802690296" lon="9.855529427413826"><ele>112.0</ele><time>2026-04-06T07:10:45Z</time></trkpt><trkpt lat="44.8940497109" lon="9.855432143349374"><ele>112.0</ele><time>2026-04-06T07:10:46Z</time></trkpt><trkpt lat="44.89406181537169" lon="9.855331358347081"><ele>112.0</ele><time>2026-04-06T07:10:47Z</time></trkpt><trkpt lat="44.894073830018876" lon="9.855231320758723"><ele>112.0</ele><time>2026-04-06T07:10:48Z</time></trkpt><trkpt lat="44.89408633474551" lon="9.85512720326044"><ele>112.0</ele><time>2026-04-06T07:10:49Z</time></trkpt><trkpt lat="44.89409881186355" lon="9.855023315223"><ele>112.00000000000001</ele><time>2026-04-06T07:10:50Z</time></trkpt><trkpt lat="44.89411130405076" lon="9.854919301916608"><ele>112.0</ele><time>2026-04-06T07:10:51Z</time></trkpt><trkpt lat="44.89412377505184" lon="9.854815464773184"><ele>112.0</ele><time>2026-04-06T07:10:52Z</time></trkpt><trkpt lat="44.89413640045443" lon="9.85470841649133"><ele>112.0</ele><time>2026-04-06T07:10:53Z</time></trkpt><trkpt lat="44.89414847332564" lon="9.854601386212703"><ele>112.00000000000001</ele><time>2026-04-06T07:10:54Z</time></trkpt><trkpt lat="44.89416061567236" lon="9.854493739899077"><ele>112.0</ele><time>2026-04-06T07:10:55Z</time></trkpt><trkpt lat="44.89417296219922" lon="9.854384283567805"><ele>111.83333333333334</ele><time>2026-04-06T07:10:56Z</time></trkpt><trkpt lat="44.89418542291635" lon="9.85427381493507"><ele>111.66666666666667</ele><time>2026-04-06T07:10:57Z</time></trkpt><trkpt lat="44.89419782188093" lon="9.854163893399708"><ele>111.5</ele><time>2026-04-06T07:10:58Z</time></trkpt><trkpt lat="44.89421025446008" lon="9.854053674100806"><ele>111.33333333333334</ele><time>2026-04-06T07:10:59Z</time></trkpt><trkpt lat="44.89422336372141" lon="9.853942709455348"><ele>111.16666666666667</ele><time>2026-04-06T07:11:00Z</time></trkpt><trkpt lat="44.894237029362586" lon="9.853829682768245"><ele>111.0</ele><time>2026-04-06T07:11:01Z</time></trkpt><trkpt lat="44.894251011379815" lon="9.853714039505437"><ele>110.66666666666667</ele><time>2026-04-06T07:11:02Z</time></trkpt><trkpt lat="44.89426489462415" lon="9.853599213111732"><ele>110.33333333333334</ele><time>2026-04-06T07:11:03Z</time></trkpt><trkpt lat="44.8942788116198" lon="9.853484108048002"><ele>110.0</ele><time>2026-04-06T07:11:04Z</time></trkpt><trkpt lat="44.89429290342825" lon="9.853367556357256"><ele>109.66666666666667</ele><time>2026-04-06T07:11:05Z</time></trkpt><trkpt lat="44.89430685561867" lon="9.853252566645017"><ele>109.33333333333334</ele><time>2026-04-06T07:11:06Z</time></trkpt><trkpt lat="44.89432078384313" lon="9.853137955972143"><ele>109.0</ele><time>2026-04-06T07:11:07Z</time></trkpt><trkpt lat="44.89433447348234" lon="9.85302530815022"><ele>109.16666666666667</ele><time>2026-04-06T07:11:08Z</time></trkpt><trkpt lat="44.89434812527623" lon="9.852912972024024"><ele>109.33333333333334</ele><time>2026-04-06T07:11:09Z</time></trkpt><trkpt lat="44.894361385875555" lon="9.852799314978192"><ele>109.5</ele><time>2026-04-06T07:11:10Z</time></trkpt><trkpt lat="44.89437432140885" lon="9.85268639373689"><ele>109.66666666666666</ele><time>2026-04-06T07:11:11Z</time></trkpt><trkpt lat="44.894387256567356" lon="9.852573475325665"><ele>109.83333333333333</ele><time>2026-04-06T07:11:12Z</time></trkpt><trkpt lat="44.89440020216622" lon="9.852460466195293"><ele>110.0</ele><time>2026-04-06T07:11:13Z</time></trkpt><trkpt lat="44.894413239216924" lon="9.852346658097762"><ele>109.99999999999999</ele><time>2026-04-06T07:11:14Z</time></trkpt><trkpt lat="44.89442699709713" lon="9.85223405307162"><ele>110.0</ele><time>2026-04-06T07:11:15Z</time></trkpt><trkpt lat="44.89444076556475" lon="9.852123174201818"><ele>110.0</ele><time>2026-04-06T07:11:16Z</time></trkpt><trkpt lat="44.89445398715374" lon="9.852016699513074"><ele>110.0</ele><time>2026-04-06T07:11:17Z</time></trkpt><trkpt lat="44.89446664751276" lon="9.851914744731024"><ele>110.0</ele><time>2026-04-06T07:11:18Z</time></trkpt><trkpt lat="44.89447874634934" lon="9.851817311460538"><ele>109.99999999999999</ele><time>2026-04-06T07:11:19Z</time></trkpt><trkpt lat="44.89449062390576" lon="9.851721660670087"><ele>110.0</ele><time>2026-04-06T07:11:20Z</time></trkpt><trkpt lat="44.89450189532476" lon="9.851630890836981"><ele>110.28571428571428</ele><time>2026-04-06T07:11:21Z</time></trkpt><trkpt lat="44.894513148639724" lon="9.851540267223257"><ele>110.57142857142857</ele><time>2026-04-06T07:11:22Z</time></trkpt><trkpt lat="44.89452406897875" lon="9.851445692625074"><ele>110.85714285714286</ele><time>2026-04-06T07:11:23Z</time></trkpt><trkpt lat="44.89453401515824" lon="9.851351042318786"><ele>111.14285714285714</ele><time>2026-04-06T07:11:24Z</time></trkpt><trkpt lat="44.8945404549651" lon="9.851252402166645"><ele>111.42857142857143</ele><time>2026-04-06T07:11:25Z</time></trkpt><trkpt lat="44.89454397382291" lon="9.851158514263506"><ele>111.71428571428571</ele><time>2026-04-06T07:11:26Z</time></trkpt><trkpt lat="44.894540646194564" lon="9.851064891754705"><ele>112.0</ele><time>2026-04-06T07:11:27Z</time></trkpt><trkpt lat="44.8945074378394" lon="9.850979607543268"><ele>112.16666666666667</ele><time>2026-04-06T07:11:28Z</time></trkpt><trkpt lat="44.894423520994934" lon="9.850848295545218"><ele>112.33333333333334</ele><time>2026-04-06T07:11:30Z</time></trkpt><trkpt lat="44.89435717161078" lon="9.850807601448915"><ele>112.5</ele><time>2026-04-06T07:11:31Z</time></trkpt><trkpt lat="44.89428183034158" lon="9.850796497453933"><ele>112.66666666666666</ele><time>2026-04-06T07:11:32Z</time></trkpt><trkpt lat="44.89421030848967" lon="9.850793155807926"><ele>112.83333333333333</ele><time>2026-04-06T07:11:33Z</time></trkpt><trkpt lat="44.894141649629475" lon="9.850788838029253"><ele>113.0</ele><time>2026-04-06T07:11:34Z</time></trkpt><trkpt lat="44.8940725919145" lon="9.850781893791769"><ele>113.0</ele><time>2026-04-06T07:11:35Z</time></trkpt><trkpt lat="44.89400099287055" lon="9.850771128273466"><ele>113.0</ele><time>2026-04-06T07:11:36Z</time></trkpt><trkpt lat="44.89392910961825" lon="9.850763575470511"><ele>113.0</ele><time>2026-04-06T07:11:37Z</time></trkpt><trkpt lat="44.893858546979665" lon="9.850758135155626"><ele>113.0</ele><time>2026-04-06T07:11:38Z</time></trkpt><trkpt lat="44.89378549132869" lon="9.85075525185666"><ele>113.0</ele><time>2026-04-06T07:11:39Z</time></trkpt><trkpt lat="44.893715284978995" lon="9.85074663316568"><ele>113.0</ele><time>2026-04-06T07:11:40Z</time></trkpt><trkpt lat="44.89364686498862" lon="9.850740561091172"><ele>113.0</ele><time>2026-04-06T07:11:41Z</time></trkpt><trkpt lat="44.893577889353246" lon="9.850728135758645"><ele>113.0</ele><time>2026-04-06T07:11:42Z</time></trkpt><trkpt lat="44.89351311563944" lon="9.850714045711662"><ele>113.0</ele><time>2026-04-06T07:11:43Z</time></trkpt><trkpt lat="44.89345642243327" lon="9.850665625543947"><ele>113.0</ele><time>2026-04-06T07:11:44Z</time></trkpt><trkpt lat="44.893424417155245" lon="9.850576610410656"><ele>113.0</ele><time>2026-04-06T07:11:44.999Z</time></trkpt><trkpt lat="44.89342288636797" lon="9.850468230964395"><ele>113.0</ele><time>2026-04-06T07:11:45.999Z</time></trkpt><trkpt lat="44.89346502474939" lon="9.850361304379016"><ele>113.0</ele><time>2026-04-06T07:11:46.999Z</time></trkpt><trkpt lat="44.89347358280472" lon="9.850255442849878"><ele>113.0</ele><time>2026-04-06T07:11:47.999Z</time></trkpt><trkpt lat="44.893482742371546" lon="9.850146492245043"><ele>112.66666666666666</ele><time>2026-04-06T07:11:48.999Z</time></trkpt><trkpt lat="44.89346909481476" lon="9.850030798731675"><ele>112.33333333333333</ele><time>2026-04-06T07:11:49.999Z</time></trkpt><trkpt lat="44.89347802049411" lon="9.849921667371552"><ele>112.0</ele><time>2026-04-06T07:11:50.999Z</time></trkpt><trkpt lat="44.89348871894162" lon="9.849809356989146"><ele>111.66666666666666</ele><time>2026-04-06T07:11:51.999Z</time></trkpt><trkpt lat="44.89349495132113" lon="9.849706444416716"><ele>111.33333333333333</ele><time>2026-04-06T07:11:52.999Z</time></trkpt><trkpt lat="44.893502435929804" lon="9.849588764087697"><ele>111.0</ele><time>2026-04-06T07:11:53.999Z</time></trkpt><trkpt lat="44.89351499876672" lon="9.84946876019525"><ele>111.0</ele><time>2026-04-06T07:11:54.999Z</time></trkpt><trkpt lat="44.8935242323511" lon="9.849353734446456"><ele>111.0</ele><time>2026-04-06T07:11:55.999Z</time></trkpt><trkpt lat="44.89353457148367" lon="9.84924147017627"><ele>111.0</ele><time>2026-04-06T07:11:56.999Z</time></trkpt><trkpt lat="44.893543847180624" lon="9.849129386341183"><ele>111.0</ele><time>2026-04-06T07:11:57.999Z</time></trkpt><trkpt lat="44.89357938214023" lon="9.849022311133197"><ele>111.0</ele><time>2026-04-06T07:11:58.999Z</time></trkpt><trkpt lat="44.89358954151286" lon="9.848909365998852"><ele>111.0</ele><time>2026-04-06T07:11:59.999Z</time></trkpt><trkpt lat="44.893599800922644" lon="9.848795308668754"><ele>110.5</ele><time>2026-04-06T07:12:00.999Z</time></trkpt><trkpt lat="44.893609776067905" lon="9.848684614509718"><ele>110.0</ele><time>2026-04-06T07:12:01.999Z</time></trkpt><trkpt lat="44.89362000627764" lon="9.848572409164902"><ele>109.5</ele><time>2026-04-06T07:12:02.999Z</time></trkpt><trkpt lat="44.893630309631256" lon="9.848459401540763"><ele>109.0</ele><time>2026-04-06T07:12:03.999Z</time></trkpt><trkpt lat="44.89364052451773" lon="9.848347363759085"><ele>108.5</ele><time>2026-04-06T07:12:04.999Z</time></trkpt><trkpt lat="44.89365058654332" lon="9.848237003197417"><ele>108.0</ele><time>2026-04-06T07:12:05.999Z</time></trkpt><trkpt lat="44.89363536171034" lon="9.848122799113417"><ele>107.83333333333333</ele><time>2026-04-06T07:12:06.999Z</time></trkpt><trkpt lat="44.89364135748371" lon="9.848014410422843"><ele>107.66666666666666</ele><time>2026-04-06T07:12:07.999Z</time></trkpt><trkpt lat="44.893643737740796" lon="9.847905089604817"><ele>107.5</ele><time>2026-04-06T07:12:08.999Z</time></trkpt><trkpt lat="44.8936567894985" lon="9.847790745922337"><ele>107.33333333333333</ele><time>2026-04-06T07:12:09.999Z</time></trkpt><trkpt lat="44.893621805479434" lon="9.847686066408935"><ele>107.16666666666666</ele><time>2026-04-06T07:12:10.999Z</time></trkpt><trkpt lat="44.89358037981526" lon="9.847591144863419"><ele>107.0</ele><time>2026-04-06T07:12:11.999Z</time></trkpt><trkpt lat="44.893545798857545" lon="9.847501757766087"><ele>107.28571428571429</ele><time>2026-04-06T07:12:12.999Z</time></trkpt><trkpt lat="44.89352010943824" lon="9.847408626331182"><ele>107.57142857142857</ele><time>2026-04-06T07:12:13.999Z</time></trkpt><trkpt lat="44.89350289212549" lon="9.84731652547614"><ele>107.85714285714286</ele><time>2026-04-06T07:12:14.999Z</time></trkpt><trkpt lat="44.893492309330725" lon="9.847222897217517"><ele>108.14285714285714</ele><time>2026-04-06T07:12:15.999Z</time></trkpt><trkpt lat="44.89349609742416" lon="9.84712629044721"><ele>108.42857142857143</ele><time>2026-04-06T07:12:16.999Z</time></trkpt><trkpt lat="44.893479532943374" lon="9.8470236289045"><ele>108.71428571428572</ele><time>2026-04-06T07:12:17.999Z</time></trkpt><trkpt lat="44.89349777507372" lon="9.846925452495482"><ele>109.0</ele><time>2026-04-06T07:12:18.999Z</time></trkpt><trkpt lat="44.89351374101415" lon="9.8468248974193"><ele>109.57142857142857</ele><time>2026-04-06T07:12:19.999Z</time></trkpt><trkpt lat="44.89353013197523" lon="9.846723969018377"><ele>110.14285714285714</ele><time>2026-04-06T07:12:20.999Z</time></trkpt><trkpt lat="44.89354689651667" lon="9.8466199705783"><ele>110.71428571428572</ele><time>2026-04-06T07:12:21.999Z</time></trkpt><trkpt lat="44.89356360403168" lon="9.846520514499076"><ele>111.28571428571428</ele><time>2026-04-06T07:12:22.999Z</time></trkpt><trkpt lat="44.8935863001035" lon="9.846420528278152"><ele>111.85714285714285</ele><time>2026-04-06T07:12:23.999Z</time></trkpt><trkpt lat="44.89361030406148" lon="9.846319813153778"><ele>112.42857142857143</ele><time>2026-04-06T07:12:24.999Z</time></trkpt><trkpt lat="44.89363617164146" lon="9.846221038525728"><ele>113.0</ele><time>2026-04-06T07:12:25.999Z</time></trkpt><trkpt lat="44.893663940973006" lon="9.846121422384062"><ele>113.0</ele><time>2026-04-06T07:12:26.999Z</time></trkpt><trkpt lat="44.89369138311044" lon="9.846020716024768"><ele>113.0</ele><time>2026-04-06T07:12:27.999Z</time></trkpt><trkpt lat="44.893716569214256" lon="9.84592126415497"><ele>113.0</ele><time>2026-04-06T07:12:28.999Z</time></trkpt><trkpt lat="44.89374572010953" lon="9.845828632172328"><ele>113.0</ele><time>2026-04-06T07:12:29.999Z</time></trkpt><trkpt lat="44.89377464984752" lon="9.845736315242391"><ele>113.0</ele><time>2026-04-06T07:12:30.999Z</time></trkpt><trkpt lat="44.89380131283861" lon="9.845644802522369"><ele>113.0</ele><time>2026-04-06T07:12:31.999Z</time></trkpt><trkpt lat="44.893832087649564" lon="9.845551820692137"><ele>113.0</ele><time>2026-04-06T07:12:32.999Z</time></trkpt><trkpt lat="44.89386063584642" lon="9.845460320011123"><ele>112.99999999999999</ele><time>2026-04-06T07:12:33.999Z</time></trkpt><trkpt lat="44.89388313141304" lon="9.845362127960996"><ele>113.0</ele><time>2026-04-06T07:12:34.999Z</time></trkpt><trkpt lat="44.89389566315748" lon="9.8452607224496"><ele>113.0</ele><time>2026-04-06T07:12:35.999Z</time></trkpt><trkpt lat="44.89388898379143" lon="9.84516404089576"><ele>113.0</ele><time>2026-04-06T07:12:36.999Z</time></trkpt><trkpt lat="44.893843590540634" lon="9.845064218771356"><ele>112.99999999999999</ele><time>2026-04-06T07:12:37.999Z</time></trkpt><trkpt lat="44.89378158240263" lon="9.845002592766486"><ele>113.0</ele><time>2026-04-06T07:12:38.999Z</time></trkpt><trkpt lat="44.893688563778355" lon="9.844992938759368"><ele>112.99999999999999</ele><time>2026-04-06T07:12:39.999Z</time></trkpt><trkpt lat="44.893608404521686" lon="9.844990938185406"><ele>113.0</ele><time>2026-04-06T07:12:40.999Z</time></trkpt><trkpt lat="44.89353234466156" lon="9.844995640845593"><ele>113.0</ele><time>2026-04-06T07:12:41.998Z</time></trkpt><trkpt lat="44.8934556263536" lon="9.8449943629624"><ele>113.0</ele><time>2026-04-06T07:12:42.998Z</time></trkpt><trkpt lat="44.893378444615195" lon="9.844990705249641"><ele>112.99999999999999</ele><time>2026-04-06T07:12:43.998Z</time></trkpt><trkpt lat="44.89329966764464" lon="9.844987839964535"><ele>113.0</ele><time>2026-04-06T07:12:45Z</time></trkpt><trkpt lat="44.89322362161036" lon="9.844984850429789"><ele>113.16666666666666</ele><time>2026-04-06T07:12:46Z</time></trkpt><trkpt lat="44.89314765234564" lon="9.844981448552584"><ele>113.33333333333333</ele><time>2026-04-06T07:12:47Z</time></trkpt><trkpt lat="44.89307099841179" lon="9.844980460174044"><ele>113.5</ele><time>2026-04-06T07:12:48Z</time></trkpt><trkpt lat="44.892995005963876" lon="9.844984881232143"><ele>113.66666666666666</ele><time>2026-04-06T07:12:49Z</time></trkpt><trkpt lat="44.892920383000295" lon="9.8449924889027"><ele>113.83333333333333</ele><time>2026-04-06T07:12:50Z</time></trkpt><trkpt lat="44.89284628302685" lon="9.844998706420474"><ele>114.0</ele><time>2026-04-06T07:12:51Z</time></trkpt><trkpt lat="44.89277431918679" lon="9.845006375377322"><ele>114.0</ele><time>2026-04-06T07:12:52Z</time></trkpt><trkpt lat="44.89270177777715" lon="9.845013890490057"><ele>113.99999999999999</ele><time>2026-04-06T07:12:53Z</time></trkpt><trkpt lat="44.89262833311095" lon="9.845022868710057"><ele>114.0</ele><time>2026-04-06T07:12:54Z</time></trkpt><trkpt lat="44.892553856492334" lon="9.845034411618418"><ele>114.0</ele><time>2026-04-06T07:12:55Z</time></trkpt><trkpt lat="44.892481301022" lon="9.84505040788247"><ele>113.99999999999999</ele><time>2026-04-06T07:12:56Z</time></trkpt><trkpt lat="44.89240799747993" lon="9.84506683790456"><ele>114.0</ele><time>2026-04-06T07:12:57Z</time></trkpt><trkpt lat="44.892334485470826" lon="9.84508366811961"><ele>114.0</ele><time>2026-04-06T07:12:58Z</time></trkpt><trkpt lat="44.89226098584756" lon="9.845098822681047"><ele>114.14285714285714</ele><time>2026-04-06T07:12:59Z</time></trkpt><trkpt lat="44.892186580471076" lon="9.845111778235614"><ele>114.28571428571428</ele><time>2026-04-06T07:13:00Z</time></trkpt><trkpt lat="44.892113644001434" lon="9.845131318338671"><ele>114.42857142857142</ele><time>2026-04-06T07:13:01Z</time></trkpt><trkpt lat="44.89204055542956" lon="9.84515306177025"><ele>114.57142857142856</ele><time>2026-04-06T07:13:02Z</time></trkpt><trkpt lat="44.89196889888197" lon="9.845182856991"><ele>114.71428571428571</ele><time>2026-04-06T07:13:03Z</time></trkpt><trkpt lat="44.89189663193891" lon="9.845212556550768"><ele>114.85714285714283</ele><time>2026-04-06T07:13:04Z</time></trkpt><trkpt lat="44.89182479236666" lon="9.845238753275899"><ele>114.99999999999999</ele><time>2026-04-06T07:13:05Z</time></trkpt><trkpt lat="44.89175180767177" lon="9.8452657458397"><ele>114.99999999999999</ele><time>2026-04-06T07:13:06Z</time></trkpt><trkpt lat="44.891678992995445" lon="9.845291218553777"><ele>115.0</ele><time>2026-04-06T07:13:07Z</time></trkpt><trkpt lat="44.891605921000924" lon="9.84531805729037"><ele>114.99999999999999</ele><time>2026-04-06T07:13:08Z</time></trkpt><trkpt lat="44.891533697426595" lon="9.845343592171726"><ele>114.99999999999999</ele><time>2026-04-06T07:13:09Z</time></trkpt><trkpt lat="44.89146177618587" lon="9.84536787923188"><ele>115.0</ele><time>2026-04-06T07:13:10Z</time></trkpt><trkpt lat="44.891389958929146" lon="9.845395469722268"><ele>114.99999999999999</ele><time>2026-04-06T07:13:11Z</time></trkpt><trkpt lat="44.8913168219154" lon="9.845421750961677"><ele>114.99999999999999</ele><time>2026-04-06T07:13:12Z</time></trkpt><trkpt lat="44.89124342218882" lon="9.845449369191297"><ele>114.99999999999999</ele><time>2026-04-06T07:13:13Z</time></trkpt><trkpt lat="44.89117213808387" lon="9.845475959205986"><ele>115.0</ele><time>2026-04-06T07:13:14Z</time></trkpt><trkpt lat="44.89110181592619" lon="9.8455074681135"><ele>114.99999999999999</ele><time>2026-04-06T07:13:15Z</time></trkpt><trkpt lat="44.89103135037113" lon="9.845535250635962"><ele>114.99999999999999</ele><time>2026-04-06T07:13:16Z</time></trkpt><trkpt lat="44.89095842212223" lon="9.84556187085468"><ele>115.0</ele><time>2026-04-06T07:13:17Z</time></trkpt><trkpt lat="44.89088692798712" lon="9.845587273328498"><ele>114.99999999999999</ele><time>2026-04-06T07:13:18Z</time></trkpt><trkpt lat="44.890815719908446" lon="9.84561360687717"><ele>114.99999999999999</ele><time>2026-04-06T07:13:19Z</time></trkpt><trkpt lat="44.89074444636875" lon="9.84564210648058"><ele>114.99999999999999</ele><time>2026-04-06T07:13:20Z</time></trkpt><trkpt lat="44.89067421343202" lon="9.845668773042984"><ele>115.0</ele><time>2026-04-06T07:13:21Z</time></trkpt><trkpt lat="44.890601328125776" lon="9.845696886773212"><ele>114.99999999999999</ele><time>2026-04-06T07:13:22Z</time></trkpt><trkpt lat="44.89053040002185" lon="9.845724992841818"><ele>114.99999999999999</ele><time>2026-04-06T07:13:23Z</time></trkpt><trkpt lat="44.89045744796221" lon="9.845747276247408"><ele>115.0</ele><time>2026-04-06T07:13:24Z</time></trkpt><trkpt lat="44.89038554399915" lon="9.845771619942068"><ele>114.99999999999999</ele><time>2026-04-06T07:13:25Z</time></trkpt><trkpt lat="44.89031522789175" lon="9.845798145574753"><ele>114.99999999999999</ele><time>2026-04-06T07:13:26Z</time></trkpt><trkpt lat="44.89024507272648" lon="9.845825209204104"><ele>114.99999999999999</ele><time>2026-04-06T07:13:27Z</time></trkpt><trkpt lat="44.890175705882356" lon="9.845853183416558"><ele>115.0</ele><time>2026-04-06T07:13:28Z</time></trkpt><trkpt lat="44.890105351073295" lon="9.845879267845904"><ele>114.99999999999999</ele><time>2026-04-06T07:13:29Z</time></trkpt><trkpt lat="44.89003617948532" lon="9.845905494070083"><ele>114.99999999999999</ele><time>2026-04-06T07:13:30Z</time></trkpt><trkpt lat="44.88996693017852" lon="9.84593396583306"><ele>115.0</ele><time>2026-04-06T07:13:31Z</time></trkpt><trkpt lat="44.889897876106055" lon="9.845954890998481"><ele>114.99999999999999</ele><time>2026-04-06T07:13:32Z</time></trkpt><trkpt lat="44.889827741689146" lon="9.845981693505538"><ele>114.99999999999999</ele><time>2026-04-06T07:13:33Z</time></trkpt><trkpt lat="44.88975856390737" lon="9.846007321922286"><ele>115.42857142857142</ele><time>2026-04-06T07:13:34Z</time></trkpt><trkpt lat="44.88968757994033" lon="9.846030303617423"><ele>115.85714285714286</ele><time>2026-04-06T07:13:35Z</time></trkpt><trkpt lat="44.889617491251464" lon="9.846057363147258"><ele>116.28571428571428</ele><time>2026-04-06T07:13:36Z</time></trkpt><trkpt lat="44.889546540409484" lon="9.846085155600573"><ele>116.71428571428571</ele><time>2026-04-06T07:13:37Z</time></trkpt><trkpt lat="44.88948031713068" lon="9.846114463790299"><ele>117.14285714285714</ele><time>2026-04-06T07:13:38Z</time></trkpt><trkpt lat="44.88941228379843" lon="9.8461428622778"><ele>117.57142857142857</ele><time>2026-04-06T07:13:39Z</time></trkpt><trkpt lat="44.88934641807455" lon="9.84617159186663"><ele>118.0</ele><time>2026-04-06T07:13:40Z</time></trkpt><trkpt lat="44.88928102318325" lon="9.846199306312908"><ele>118.14285714285714</ele><time>2026-04-06T07:13:41Z</time></trkpt><trkpt lat="44.88921323801503" lon="9.84622448449298"><ele>118.28571428571429</ele><time>2026-04-06T07:13:42Z</time></trkpt><trkpt lat="44.88914268537576" lon="9.846242181317805"><ele>118.42857142857143</ele><time>2026-04-06T07:13:43Z</time></trkpt><trkpt lat="44.88907324516398" lon="9.846256792532417"><ele>118.57142857142857</ele><time>2026-04-06T07:13:44Z</time></trkpt><trkpt lat="44.88900255181006" lon="9.846265083464548"><ele>118.71428571428572</ele><time>2026-04-06T07:13:45Z</time></trkpt><trkpt lat="44.88893160781417" lon="9.846276006635982"><ele>118.85714285714286</ele><time>2026-04-06T07:13:46Z</time></trkpt><trkpt lat="44.88886017102144" lon="9.846281351743746"><ele>119.0</ele><time>2026-04-06T07:13:47Z</time></trkpt><trkpt lat="44.88878869298452" lon="9.846278901565123"><ele>119.0</ele><time>2026-04-06T07:13:48Z</time></trkpt><trkpt lat="44.888716146522576" lon="9.84627028938953"><ele>119.0</ele><time>2026-04-06T07:13:49Z</time></trkpt><trkpt lat="44.88864590639644" lon="9.846266314017951"><ele>119.0</ele><time>2026-04-06T07:13:49.999Z</time></trkpt><trkpt lat="44.888571630621364" lon="9.84625883876434"><ele>119.0</ele><time>2026-04-06T07:13:50.999Z</time></trkpt><trkpt lat="44.88850085263579" lon="9.84625229169639"><ele>119.0</ele><time>2026-04-06T07:13:51.999Z</time></trkpt><trkpt lat="44.88842783123172" lon="9.846251868315553"><ele>119.0</ele><time>2026-04-06T07:13:52.999Z</time></trkpt><trkpt lat="44.88835652843899" lon="9.846249570027085"><ele>119.0</ele><time>2026-04-06T07:13:53.999Z</time></trkpt><trkpt lat="44.888286266810525" lon="9.846244686346163"><ele>119.14285714285714</ele><time>2026-04-06T07:13:54.999Z</time></trkpt><trkpt lat="44.88821540138322" lon="9.846240987118374"><ele>119.28571428571428</ele><time>2026-04-06T07:13:55.999Z</time></trkpt><trkpt lat="44.88814292951236" lon="9.84623082400195"><ele>119.42857142857143</ele><time>2026-04-06T07:13:56.999Z</time></trkpt><trkpt lat="44.8880724015222" lon="9.846213532342668"><ele>119.57142857142857</ele><time>2026-04-06T07:13:57.999Z</time></trkpt><trkpt lat="44.88800108488599" lon="9.846189894286702"><ele>119.71428571428571</ele><time>2026-04-06T07:13:58.999Z</time></trkpt><trkpt lat="44.88793105126364" lon="9.84615624958391"><ele>119.85714285714286</ele><time>2026-04-06T07:13:59.999Z</time></trkpt><trkpt lat="44.887861849127184" lon="9.846122047172871"><ele>120.0</ele><time>2026-04-06T07:14:00.999Z</time></trkpt><trkpt lat="44.887791985832436" lon="9.846090686195463"><ele>120.0</ele><time>2026-04-06T07:14:01.999Z</time></trkpt><trkpt lat="44.88772330066898" lon="9.846056973050237"><ele>120.0</ele><time>2026-04-06T07:14:02.999Z</time></trkpt><trkpt lat="44.88765639183496" lon="9.846023397872516"><ele>120.0</ele><time>2026-04-06T07:14:03.999Z</time></trkpt><trkpt lat="44.88758834410383" lon="9.845996303565302"><ele>120.0</ele><time>2026-04-06T07:14:04.999Z</time></trkpt><trkpt lat="44.88751912996928" lon="9.84597418581105"><ele>120.0</ele><time>2026-04-06T07:14:05.999Z</time></trkpt><trkpt lat="44.88744818471402" lon="9.84596182482136"><ele>120.0</ele><time>2026-04-06T07:14:06.999Z</time></trkpt><trkpt lat="44.88737989792218" lon="9.845951068284311"><ele>120.0</ele><time>2026-04-06T07:14:07.999Z</time></trkpt><trkpt lat="44.887311370789114" lon="9.845939158644116"><ele>119.85714285714286</ele><time>2026-04-06T07:14:08.999Z</time></trkpt><trkpt lat="44.88724514440515" lon="9.84593178593258"><ele>119.71428571428571</ele><time>2026-04-06T07:14:09.999Z</time></trkpt><trkpt lat="44.887179731946546" lon="9.845927751634685"><ele>119.57142857142857</ele><time>2026-04-06T07:14:10.999Z</time></trkpt><trkpt lat="44.88711078817245" lon="9.845924177948618"><ele>119.42857142857143</ele><time>2026-04-06T07:14:11.999Z</time></trkpt><trkpt lat="44.88704414985722" lon="9.845916935359778"><ele>119.28571428571428</ele><time>2026-04-06T07:14:12.999Z</time></trkpt><trkpt lat="44.88697415278587" lon="9.845910083856174"><ele>119.14285714285714</ele><time>2026-04-06T07:14:13.999Z</time></trkpt><trkpt lat="44.88690449896121" lon="9.845911273552604"><ele>119.0</ele><time>2026-04-06T07:14:14.999Z</time></trkpt><trkpt lat="44.886835613878404" lon="9.845928049225005"><ele>118.99999999999999</ele><time>2026-04-06T07:14:15.999Z</time></trkpt><trkpt lat="44.886767230295135" lon="9.8459504341725"><ele>119.0</ele><time>2026-04-06T07:14:16.999Z</time></trkpt><trkpt lat="44.88670240381184" lon="9.845993821226491"><ele>119.0</ele><time>2026-04-06T07:14:17.999Z</time></trkpt><trkpt lat="44.88664819494877" lon="9.846053046989947"><ele>119.0</ele><time>2026-04-06T07:14:18.999Z</time></trkpt><trkpt lat="44.88659946207856" lon="9.846124114324075"><ele>118.99999999999999</ele><time>2026-04-06T07:14:19.999Z</time></trkpt><trkpt lat="44.88655901699867" lon="9.846199722205782"><ele>119.0</ele><time>2026-04-06T07:14:20.999Z</time></trkpt><trkpt lat="44.886488425898825" lon="9.846352839175943"><ele>119.42857142857143</ele><time>2026-04-06T07:14:22.999Z</time></trkpt><trkpt lat="44.88645428067532" lon="9.846430530557976"><ele>119.85714285714286</ele><time>2026-04-06T07:14:23.999Z</time></trkpt><trkpt lat="44.88643014765794" lon="9.846513912634007"><ele>120.28571428571428</ele><time>2026-04-06T07:14:24.999Z</time></trkpt><trkpt lat="44.88640044459645" lon="9.846601787184854"><ele>120.71428571428571</ele><time>2026-04-06T07:14:25.999Z</time></trkpt><trkpt lat="44.8863797942718" lon="9.84668640715898"><ele>121.14285714285714</ele><time>2026-04-06T07:14:26.999Z</time></trkpt><trkpt lat="44.8863593707124" lon="9.846775239099049"><ele>121.57142857142856</ele><time>2026-04-06T07:14:27.999Z</time></trkpt><trkpt lat="44.886338764522556" lon="9.846862660456942"><ele>121.99999999999999</ele><time>2026-04-06T07:14:28.999Z</time></trkpt><trkpt lat="44.8863200467579" lon="9.846958483510626"><ele>121.99999999999999</ele><time>2026-04-06T07:14:29.999Z</time></trkpt><trkpt lat="44.886300735372345" lon="9.847049310555049"><ele>122.0</ele><time>2026-04-06T07:14:30.999Z</time></trkpt><trkpt lat="44.886282067351374" lon="9.847141442320234"><ele>121.99999999999999</ele><time>2026-04-06T07:14:31.999Z</time></trkpt><trkpt lat="44.8862639085302" lon="9.847233871305443"><ele>121.99999999999999</ele><time>2026-04-06T07:14:32.999Z</time></trkpt><trkpt lat="44.88624731015379" lon="9.847324473752215"><ele>122.0</ele><time>2026-04-06T07:14:33.999Z</time></trkpt><trkpt lat="44.88623155368927" lon="9.847415178536712"><ele>121.99999999999999</ele><time>2026-04-06T07:14:34.999Z</time></trkpt><trkpt lat="44.88621645166525" lon="9.847503756703048"><ele>121.99999999999999</ele><time>2026-04-06T07:14:35.999Z</time></trkpt><trkpt lat="44.88619872589091" lon="9.847594664137068"><ele>121.85714285714283</ele><time>2026-04-06T07:14:36.999Z</time></trkpt><trkpt lat="44.88618168688181" lon="9.847685974608474"><ele>121.71428571428571</ele><time>2026-04-06T07:14:37.999Z</time></trkpt><trkpt lat="44.8861737922859" lon="9.847780464621215"><ele>121.57142857142856</ele><time>2026-04-06T07:14:38.999Z</time></trkpt><trkpt lat="44.886167045640605" lon="9.847874418980961"><ele>121.42857142857142</ele><time>2026-04-06T07:14:39.999Z</time></trkpt><trkpt lat="44.88615842783044" lon="9.847973339476093"><ele>121.28571428571428</ele><time>2026-04-06T07:14:40.999Z</time></trkpt><trkpt lat="44.88614707953983" lon="9.848068355995666"><ele>121.14285714285714</ele><time>2026-04-06T07:14:41.999Z</time></trkpt><trkpt lat="44.886141088332444" lon="9.848165010163319"><ele>121.0</ele><time>2026-04-06T07:14:42.999Z</time></trkpt><trkpt lat="44.886133652115696" lon="9.848258738305315"><ele>121.0</ele><time>2026-04-06T07:14:43.999Z</time></trkpt><trkpt lat="44.886130456233545" lon="9.84835674965053"><ele>120.99999999999999</ele><time>2026-04-06T07:14:44.999Z</time></trkpt><trkpt lat="44.886130809342625" lon="9.8484502114603"><ele>121.0</ele><time>2026-04-06T07:14:45.998Z</time></trkpt><trkpt lat="44.886123642888506" lon="9.848547029654938"><ele>121.0</ele><time>2026-04-06T07:14:46.998Z</time></trkpt><trkpt lat="44.88611665080895" lon="9.848640583321957"><ele>120.99999999999999</ele><time>2026-04-06T07:14:47.998Z</time></trkpt><trkpt lat="44.8861096276689" lon="9.848732287925564"><ele>121.0</ele><time>2026-04-06T07:14:48.998Z</time></trkpt><trkpt lat="44.88609620240497" lon="9.848821465833622"><ele>121.0</ele><time>2026-04-06T07:14:49.998Z</time></trkpt><trkpt lat="44.886077683976936" lon="9.84891059506051"><ele>121.16666666666667</ele><time>2026-04-06T07:14:51Z</time></trkpt><trkpt lat="44.88606152792972" lon="9.84899769322234"><ele>121.33333333333334</ele><time>2026-04-06T07:14:52Z</time></trkpt><trkpt lat="44.88604184721506" lon="9.84908558962128"><ele>121.5</ele><time>2026-04-06T07:14:53Z</time></trkpt><trkpt lat="44.8859923248751" lon="9.849250182504909"><ele>121.66666666666666</ele><time>2026-04-06T07:14:55Z</time></trkpt><trkpt lat="44.885934380598286" lon="9.849407387406172"><ele>121.83333333333333</ele><time>2026-04-06T07:14:57Z</time></trkpt><trkpt lat="44.885899051384065" lon="9.849482869595965"><ele>122.0</ele><time>2026-04-06T07:14:58Z</time></trkpt><trkpt lat="44.885823117944426" lon="9.849631131252048"><ele>122.42857142857142</ele><time>2026-04-06T07:15:00Z</time></trkpt><trkpt lat="44.8857878205119" lon="9.84970750064943"><ele>122.85714285714286</ele><time>2026-04-06T07:15:01Z</time></trkpt><trkpt lat="44.885746984542344" lon="9.849780892947475"><ele>123.28571428571428</ele><time>2026-04-06T07:15:02Z</time></trkpt><trkpt lat="44.88570842132505" lon="9.849858226541075"><ele>123.71428571428571</ele><time>2026-04-06T07:15:03Z</time></trkpt><trkpt lat="44.88567163110424" lon="9.849930352384344"><ele>124.14285714285714</ele><time>2026-04-06T07:15:04Z</time></trkpt><trkpt lat="44.88563033660361" lon="9.850005934265885"><ele>124.57142857142857</ele><time>2026-04-06T07:15:05Z</time></trkpt><trkpt lat="44.885591696828456" lon="9.850076406739246"><ele>125.0</ele><time>2026-04-06T07:15:06Z</time></trkpt><trkpt lat="44.885551971118154" lon="9.850154069767477"><ele>125.0</ele><time>2026-04-06T07:15:07Z</time></trkpt><trkpt lat="44.885514178667776" lon="9.850226035703692"><ele>125.0</ele><time>2026-04-06T07:15:08Z</time></trkpt><trkpt lat="44.8854363481396" lon="9.850369442764604"><ele>125.0</ele><time>2026-04-06T07:15:10Z</time></trkpt><trkpt lat="44.8853522215101" lon="9.850500039911559"><ele>125.0</ele><time>2026-04-06T07:15:12Z</time></trkpt><trkpt lat="44.88526211694842" lon="9.85062030371997"><ele>125.0</ele><time>2026-04-06T07:15:14Z</time></trkpt><trkpt lat="44.8851735994132" lon="9.850732271249814"><ele>125.75</ele><time>2026-04-06T07:15:16Z</time></trkpt><trkpt lat="44.885073916501334" lon="9.850817045151192"><ele>126.5</ele><time>2026-04-06T07:15:18Z</time></trkpt><trkpt lat="44.8849710183048" lon="9.850883928498007"><ele>127.25</ele><time>2026-04-06T07:15:20Z</time></trkpt><trkpt lat="44.88486043974193" lon="9.85090784962818"><ele>128.0</ele><time>2026-04-06T07:15:22Z</time></trkpt><trkpt lat="44.88474480649921" lon="9.850888063270821"><ele>128.0</ele><time>2026-04-06T07:15:24Z</time></trkpt><trkpt lat="44.88463416482132" lon="9.850833244334256"><ele>128.0</ele><time>2026-04-06T07:15:26Z</time></trkpt><trkpt lat="44.88452607220559" lon="9.85076144975633"><ele>128.0</ele><time>2026-04-06T07:15:28Z</time></trkpt><trkpt lat="44.8844223308494" lon="9.850687229972714"><ele>128.0</ele><time>2026-04-06T07:15:30Z</time></trkpt><trkpt lat="44.88432385222952" lon="9.85060200175833"><ele>128.6</ele><time>2026-04-06T07:15:32Z</time></trkpt><trkpt lat="44.88422843622035" lon="9.85051539082067"><ele>129.20000000000002</ele><time>2026-04-06T07:15:34Z</time></trkpt><trkpt lat="44.88413547823014" lon="9.850433965120208"><ele>129.8</ele><time>2026-04-06T07:15:36Z</time></trkpt><trkpt lat="44.88405755290293" lon="9.850356990226542"><ele>130.4</ele><time>2026-04-06T07:15:38Z</time></trkpt><trkpt lat="44.88398706142228" lon="9.850285281236852"><ele>131.0</ele><time>2026-04-06T07:15:40Z</time></trkpt><trkpt lat="44.88393147806041" lon="9.850230614520768"><ele>131.0</ele><time>2026-04-06T07:15:42Z</time></trkpt><trkpt lat="44.88386595617167" lon="9.850169592617323"><ele>131.0</ele><time>2026-04-06T07:15:45Z</time></trkpt><trkpt lat="44.88380140396578" lon="9.850095373201377"><ele>131.0</ele><time>2026-04-06T07:15:48Z</time></trkpt><trkpt lat="44.88374738119519" lon="9.850030301450188"><ele>131.0</ele><time>2026-04-06T07:15:50Z</time></trkpt><trkpt lat="44.88366945228901" lon="9.849954043486841"><ele>131.0</ele><time>2026-04-06T07:15:51.999Z</time></trkpt><trkpt lat="44.88357235200606" lon="9.849890288458933"><ele>131.0</ele><time>2026-04-06T07:15:53.999Z</time></trkpt><trkpt lat="44.88347658314775" lon="9.849833879805905"><ele>130.8</ele><time>2026-04-06T07:15:55.999Z</time></trkpt><trkpt lat="44.88339900201564" lon="9.84976037275986"><ele>130.6</ele><time>2026-04-06T07:15:57.999Z</time></trkpt><trkpt lat="44.883323290929695" lon="9.849685293025296"><ele>130.4</ele><time>2026-04-06T07:15:59.999Z</time></trkpt><trkpt lat="44.8832426963372" lon="9.849618184119317"><ele>130.2</ele><time>2026-04-06T07:16:01.999Z</time></trkpt><trkpt lat="44.88316344240773" lon="9.849560261809586"><ele>130.0</ele><time>2026-04-06T07:16:03.999Z</time></trkpt><trkpt lat="44.88307884049423" lon="9.849495930251909"><ele>130.0</ele><time>2026-04-06T07:16:05.999Z</time></trkpt><trkpt lat="44.8829828388012" lon="9.84942725567479"><ele>130.0</ele><time>2026-04-06T07:16:07.999Z</time></trkpt><trkpt lat="44.882885779492625" lon="9.849349533643244"><ele>130.0</ele><time>2026-04-06T07:16:09.999Z</time></trkpt><trkpt lat="44.88279493148913" lon="9.849274135267926"><ele>130.0</ele><time>2026-04-06T07:16:11.999Z</time></trkpt><trkpt lat="44.88269675863219" lon="9.84918260718497"><ele>130.0</ele><time>2026-04-06T07:16:13.999Z</time></trkpt><trkpt lat="44.88260568242941" lon="9.849105559780561"><ele>130.2</ele><time>2026-04-06T07:16:15.999Z</time></trkpt><trkpt lat="44.88251903695619" lon="9.849036961354406"><ele>130.4</ele><time>2026-04-06T07:16:17.999Z</time></trkpt><trkpt lat="44.88243669239451" lon="9.84896356313999"><ele>130.6</ele><time>2026-04-06T07:16:19.999Z</time></trkpt><trkpt lat="44.8823555001655" lon="9.84889351917098"><ele>130.8</ele><time>2026-04-06T07:16:21.999Z</time></trkpt><trkpt lat="44.8822672594219" lon="9.84882024771265"><ele>131.0</ele><time>2026-04-06T07:16:23.999Z</time></trkpt><trkpt lat="44.88217640659325" lon="9.848751900855854"><ele>131.0</ele><time>2026-04-06T07:16:25.999Z</time></trkpt><trkpt lat="44.882082064739585" lon="9.84868692755104"><ele>131.0</ele><time>2026-04-06T07:16:27.999Z</time></trkpt><trkpt lat="44.88198674849456" lon="9.848627712980226"><ele>131.0</ele><time>2026-04-06T07:16:29.999Z</time></trkpt><trkpt lat="44.88188843605874" lon="9.848571686902199"><ele>131.0</ele><time>2026-04-06T07:16:31.999Z</time></trkpt><trkpt lat="44.88179067600215" lon="9.848513644847399"><ele>131.0</ele><time>2026-04-06T07:16:33.999Z</time></trkpt><trkpt lat="44.88169038838521" lon="9.848459011319362"><ele>131.33333333333331</ele><time>2026-04-06T07:16:35.999Z</time></trkpt><trkpt lat="44.881595325684735" lon="9.848403848892579"><ele>131.66666666666666</ele><time>2026-04-06T07:16:37.999Z</time></trkpt><trkpt lat="44.88150147406614" lon="9.8483681312418"><ele>132.0</ele><time>2026-04-06T07:16:39.999Z</time></trkpt><trkpt lat="44.88141153754928" lon="9.848357949070179"><ele>132.33333333333334</ele><time>2026-04-06T07:16:41.999Z</time></trkpt><trkpt lat="44.881333352000944" lon="9.848392857332207"><ele>132.66666666666669</ele><time>2026-04-06T07:16:43.999Z</time></trkpt><trkpt lat="44.881298928853205" lon="9.848489240347766"><ele>133.0</ele><time>2026-04-06T07:16:45.999Z</time></trkpt><trkpt lat="44.88127559175448" lon="9.848597445510334"><ele>133.5</ele><time>2026-04-06T07:16:47.998Z</time></trkpt><trkpt lat="44.88124738995393" lon="9.848711453703494"><ele>134.0</ele><time>2026-04-06T07:16:49.998Z</time></trkpt><trkpt lat="44.88121984058802" lon="9.848829692955327"><ele>134.5</ele><time>2026-04-06T07:16:51.998Z</time></trkpt><trkpt lat="44.88119139289305" lon="9.848942709638834"><ele>135.0</ele><time>2026-04-06T07:16:53.998Z</time></trkpt><trkpt lat="44.88116026818379" lon="9.849047958003036"><ele>135.5</ele><time>2026-04-06T07:16:55.998Z</time></trkpt><trkpt lat="44.88112973143165" lon="9.84915414553552"><ele>136.0</ele><time>2026-04-06T07:16:58Z</time></trkpt><trkpt lat="44.88110480759242" lon="9.84925963018599"><ele>136.57142857142856</ele><time>2026-04-06T07:17:00Z</time></trkpt><trkpt lat="44.88107628538019" lon="9.849356388970428"><ele>137.14285714285714</ele><time>2026-04-06T07:17:02Z</time></trkpt><trkpt lat="44.88105200142421" lon="9.84945386086309"><ele>137.71428571428572</ele><time>2026-04-06T07:17:04Z</time></trkpt><trkpt lat="44.88102762514478" lon="9.849549453683633"><ele>138.28571428571428</ele><time>2026-04-06T07:17:06Z</time></trkpt><trkpt lat="44.8810040611378" lon="9.84963867198093"><ele>138.85714285714286</ele><time>2026-04-06T07:17:08Z</time></trkpt><trkpt lat="44.88097142291243" lon="9.849721400481721"><ele>139.42857142857142</ele><time>2026-04-06T07:17:10Z</time></trkpt><trkpt lat="44.880934865454726" lon="9.849797868932601"><ele>140.0</ele><time>2026-04-06T07:17:12Z</time></trkpt><trkpt lat="44.88086446057357" lon="9.84988780279635"><ele>140.16666666666666</ele><time>2026-04-06T07:17:15Z</time></trkpt><trkpt lat="44.880793721884025" lon="9.849971355267192"><ele>140.33333333333331</ele><time>2026-04-06T07:17:18Z</time></trkpt><trkpt lat="44.88072521012148" lon="9.850048907237834"><ele>140.5</ele><time>2026-04-06T07:17:21Z</time></trkpt><trkpt lat="44.88066077145228" lon="9.850125960933337"><ele>140.66666666666666</ele><time>2026-04-06T07:17:24Z</time></trkpt><trkpt lat="44.88059102366844" lon="9.850202635304917"><ele>140.83333333333334</ele><time>2026-04-06T07:17:27Z</time></trkpt><trkpt lat="44.88052438546011" lon="9.850268792352637"><ele>141.0</ele><time>2026-04-06T07:17:30Z</time></trkpt><trkpt lat="44.880456622727344" lon="9.850336022245799"><ele>141.0</ele><time>2026-04-06T07:17:33Z</time></trkpt><trkpt lat="44.88038748721679" lon="9.850399545400732"><ele>141.0</ele><time>2026-04-06T07:17:36Z</time></trkpt><trkpt lat="44.88032089213358" lon="9.850463309906187"><ele>141.0</ele><time>2026-04-06T07:17:39Z</time></trkpt><trkpt lat="44.88025943578103" lon="9.8505272051226"><ele>141.0</ele><time>2026-04-06T07:17:42Z</time></trkpt><trkpt lat="44.88019563091138" lon="9.850588764363442"><ele>141.0</ele><time>2026-04-06T07:17:45Z</time></trkpt><trkpt lat="44.880130884468336" lon="9.85065302206534"><ele>141.0</ele><time>2026-04-06T07:17:48Z</time></trkpt><trkpt lat="44.8800681500754" lon="9.850715242160085"><ele>143.16666666666666</ele><time>2026-04-06T07:17:51Z</time></trkpt><trkpt lat="44.8800036626319" lon="9.850778174033207"><ele>145.33333333333334</ele><time>2026-04-06T07:17:54Z</time></trkpt><trkpt lat="44.87993181740414" lon="9.850841549756751"><ele>147.5</ele><time>2026-04-06T07:17:56.999Z</time></trkpt><trkpt lat="44.87986414949504" lon="9.850891699637693"><ele>149.66666666666669</ele><time>2026-04-06T07:17:59.999Z</time></trkpt><trkpt lat="44.879774477508455" lon="9.85093724175712"><ele>151.83333333333334</ele><time>2026-04-06T07:18:02.999Z</time></trkpt><trkpt lat="44.879715875358144" lon="9.850972373732034"><ele>154.0</ele><time>2026-04-06T07:18:04.999Z</time></trkpt><trkpt lat="44.87962546601083" lon="9.851022978995884"><ele>154.0</ele><time>2026-04-06T07:18:07.999Z</time></trkpt><trkpt lat="44.879566678833676" lon="9.851066951599195"><ele>154.0</ele><time>2026-04-06T07:18:09.999Z</time></trkpt><trkpt lat="44.87950453256247" lon="9.851116670846118"><ele>154.0</ele><time>2026-04-06T07:18:11.999Z</time></trkpt><trkpt lat="44.87945007804051" lon="9.851177021049217"><ele>154.0</ele><time>2026-04-06T07:18:13.999Z</time></trkpt><trkpt lat="44.87939513869845" lon="9.851240959601892"><ele>154.0</ele><time>2026-04-06T07:18:15.999Z</time></trkpt><trkpt lat="44.87934283953373" lon="9.851303994896533"><ele>154.0</ele><time>2026-04-06T07:18:17.999Z</time></trkpt><trkpt lat="44.879292466012984" lon="9.851367650787136"><ele>154.0</ele><time>2026-04-06T07:18:19.999Z</time></trkpt><trkpt lat="44.879241119123634" lon="9.851424955498485"><ele>155.14285714285714</ele><time>2026-04-06T07:18:21.999Z</time></trkpt><trkpt lat="44.87918883361628" lon="9.85148159547999"><ele>156.28571428571428</ele><time>2026-04-06T07:18:23.999Z</time></trkpt><trkpt lat="44.87913272681129" lon="9.85153436606127"><ele>157.42857142857144</ele><time>2026-04-06T07:18:25.999Z</time></trkpt><trkpt lat="44.87907652228114" lon="9.851585059294777"><ele>158.57142857142856</ele><time>2026-04-06T07:18:27.999Z</time></trkpt><trkpt lat="44.87900926532053" lon="9.851613448143805"><ele>159.71428571428572</ele><time>2026-04-06T07:18:29.999Z</time></trkpt><trkpt lat="44.878938005567676" lon="9.851620087334261"><ele>160.85714285714286</ele><time>2026-04-06T07:18:31.999Z</time></trkpt><trkpt lat="44.87886507737438" lon="9.851600903332477"><ele>162.0</ele><time>2026-04-06T07:18:33.999Z</time></trkpt><trkpt lat="44.87878795218314" lon="9.851563907246867"><ele>162.0</ele><time>2026-04-06T07:18:35.999Z</time></trkpt><trkpt lat="44.8787158831383" lon="9.851532313422942"><ele>162.0</ele><time>2026-04-06T07:18:37.999Z</time></trkpt><trkpt lat="44.8786404663058" lon="9.851497749359433"><ele>162.0</ele><time>2026-04-06T07:18:39.999Z</time></trkpt><trkpt lat="44.87856053041652" lon="9.851467696114597"><ele>162.0</ele><time>2026-04-06T07:18:41.999Z</time></trkpt><trkpt lat="44.87848330512084" lon="9.851439334741311"><ele>162.0</ele><time>2026-04-06T07:18:43.999Z</time></trkpt><trkpt lat="44.8784062924421" lon="9.851414027411824"><ele>162.0</ele><time>2026-04-06T07:18:45.999Z</time></trkpt><trkpt lat="44.87833024641973" lon="9.85139062689359"><ele>162.83333333333334</ele><time>2026-04-06T07:18:47.999Z</time></trkpt><trkpt lat="44.878253056026416" lon="9.851363681958853"><ele>163.66666666666666</ele><time>2026-04-06T07:18:49.999Z</time></trkpt><trkpt lat="44.878177616513895" lon="9.851350715108104"><ele>164.5</ele><time>2026-04-06T07:18:51.999Z</time></trkpt><trkpt lat="44.878099844751546" lon="9.851328687373504"><ele>165.33333333333331</ele><time>2026-04-06T07:18:53.998Z</time></trkpt><trkpt lat="44.87802422762736" lon="9.851313459485688"><ele>166.16666666666666</ele><time>2026-04-06T07:18:55.998Z</time></trkpt><trkpt lat="44.87793900412489" lon="9.851303710744714"><ele>167.0</ele><time>2026-04-06T07:18:57.998Z</time></trkpt><trkpt lat="44.877848188467745" lon="9.851292245887647"><ele>167.0</ele><time>2026-04-06T07:18:59.998Z</time></trkpt><trkpt lat="44.87775318635623" lon="9.851287615605717"><ele>167.0</ele><time>2026-04-06T07:19:01.998Z</time></trkpt><trkpt lat="44.87765143526754" lon="9.851299559567364"><ele>167.0</ele><time>2026-04-06T07:19:04Z</time></trkpt><trkpt lat="44.87754662644132" lon="9.851329661936719"><ele>167.0</ele><time>2026-04-06T07:19:06Z</time></trkpt><trkpt lat="44.87744824417577" lon="9.851399343241809"><ele>167.0</ele><time>2026-04-06T07:19:08Z</time></trkpt><trkpt lat="44.8773542415781" lon="9.851481454557131"><ele>167.39999999999998</ele><time>2026-04-06T07:19:10Z</time></trkpt><trkpt lat="44.877268372448974" lon="9.851560303507865"><ele>167.79999999999998</ele><time>2026-04-06T07:19:12Z</time></trkpt><trkpt lat="44.87718287549106" lon="9.851645079405097"><ele>168.2</ele><time>2026-04-06T07:19:14Z</time></trkpt><trkpt lat="44.87709183292542" lon="9.851731138263283"><ele>168.6</ele><time>2026-04-06T07:19:16Z</time></trkpt><trkpt lat="44.87698868928942" lon="9.85181583023976"><ele>169.0</ele><time>2026-04-06T07:19:18Z</time></trkpt><trkpt lat="44.87688148996223" lon="9.851892697409115"><ele>169.5</ele><time>2026-04-06T07:19:20Z</time></trkpt><trkpt lat="44.87677405705337" lon="9.85197689225036"><ele>170.0</ele><time>2026-04-06T07:19:22Z</time></trkpt><trkpt lat="44.87666736022745" lon="9.852062646260142"><ele>170.5</ele><time>2026-04-06T07:19:24Z</time></trkpt><trkpt lat="44.87655889160447" lon="9.852138182639859"><ele>171.0</ele><time>2026-04-06T07:19:26Z</time></trkpt><trkpt lat="44.876451022941204" lon="9.852217659781164"><ele>171.0</ele><time>2026-04-06T07:19:28Z</time></trkpt><trkpt lat="44.87633817650978" lon="9.852279836564101"><ele>171.0</ele><time>2026-04-06T07:19:30Z</time></trkpt><trkpt lat="44.87622472795403" lon="9.85231159876173"><ele>171.0</ele><time>2026-04-06T07:19:32Z</time></trkpt><trkpt lat="44.87611174396477" lon="9.852350021247304"><ele>171.0</ele><time>2026-04-06T07:19:34Z</time></trkpt><trkpt lat="44.87600376523606" lon="9.85238548137276"><ele>171.20000000000002</ele><time>2026-04-06T07:19:36Z</time></trkpt><trkpt lat="44.87590066998678" lon="9.85242523323465"><ele>171.4</ele><time>2026-04-06T07:19:38Z</time></trkpt><trkpt lat="44.875796976156266" lon="9.852453649951475"><ele>171.6</ele><time>2026-04-06T07:19:40Z</time></trkpt><trkpt lat="44.87569772898958" lon="9.852489835583931"><ele>171.8</ele><time>2026-04-06T07:19:42Z</time></trkpt><trkpt lat="44.87560070328821" lon="9.852529117625297"><ele>172.0</ele><time>2026-04-06T07:19:44Z</time></trkpt><trkpt lat="44.87550545204795" lon="9.852564346426568"><ele>172.0</ele><time>2026-04-06T07:19:46Z</time></trkpt><trkpt lat="44.87541395302366" lon="9.852594776754469"><ele>172.0</ele><time>2026-04-06T07:19:48Z</time></trkpt><trkpt lat="44.875319425106134" lon="9.852628565879373"><ele>172.0</ele><time>2026-04-06T07:19:50Z</time></trkpt><trkpt lat="44.87522563625961" lon="9.852664590988098"><ele>172.0</ele><time>2026-04-06T07:19:52Z</time></trkpt><trkpt lat="44.8751342925941" lon="9.852700517881859"><ele>172.0</ele><time>2026-04-06T07:19:54Z</time></trkpt><trkpt lat="44.87504377739519" lon="9.852738635947382"><ele>173.6</ele><time>2026-04-06T07:19:56Z</time></trkpt><trkpt lat="44.874952082872454" lon="9.852778587166672"><ele>175.2</ele><time>2026-04-06T07:19:58Z</time></trkpt><trkpt lat="44.87486708436917" lon="9.852823611085523"><ele>176.8</ele><time>2026-04-06T07:20:00Z</time></trkpt><trkpt lat="44.87477465383058" lon="9.852866008854718"><ele>178.4</ele><time>2026-04-06T07:20:01.999Z</time></trkpt><trkpt lat="44.87468405739576" lon="9.852925232320539"><ele>180.0</ele><time>2026-04-06T07:20:03.999Z</time></trkpt><trkpt lat="44.87459161210372" lon="9.852976564794538"><ele>180.0</ele><time>2026-04-06T07:20:05.999Z</time></trkpt><trkpt lat="44.874502058960545" lon="9.853036942652906"><ele>180.0</ele><time>2026-04-06T07:20:07.999Z</time></trkpt><trkpt lat="44.8744098194069" lon="9.85310185462855"><ele>180.0</ele><time>2026-04-06T07:20:09.999Z</time></trkpt><trkpt lat="44.87432528660387" lon="9.85317102399846"><ele>180.0</ele><time>2026-04-06T07:20:11.999Z</time></trkpt><trkpt lat="44.8742418666673" lon="9.853250773425362"><ele>180.0</ele><time>2026-04-06T07:20:13.999Z</time></trkpt><trkpt lat="44.87416242991536" lon="9.853332012466515"><ele>179.8</ele><time>2026-04-06T07:20:15.999Z</time></trkpt><trkpt lat="44.87408730855338" lon="9.853420996205253"><ele>179.6</ele><time>2026-04-06T07:20:17.999Z</time></trkpt><trkpt lat="44.874010985366105" lon="9.853514710292528"><ele>179.39999999999998</ele><time>2026-04-06T07:20:19.999Z</time></trkpt><trkpt lat="44.87393274817094" lon="9.853608414192156"><ele>179.2</ele><time>2026-04-06T07:20:21.999Z</time></trkpt><trkpt lat="44.87385959640369" lon="9.853703891414652"><ele>179.0</ele><time>2026-04-06T07:20:23.999Z</time></trkpt><trkpt lat="44.873782103986606" lon="9.853801719032548"><ele>179.6</ele><time>2026-04-06T07:20:25.999Z</time></trkpt><trkpt lat="44.87370499398581" lon="9.853899951611961"><ele>180.2</ele><time>2026-04-06T07:20:27.999Z</time></trkpt><trkpt lat="44.873629907041156" lon="9.853998404490484"><ele>180.79999999999998</ele><time>2026-04-06T07:20:29.999Z</time></trkpt><trkpt lat="44.873552547973055" lon="9.854094781604045"><ele>181.39999999999998</ele><time>2026-04-06T07:20:31.999Z</time></trkpt><trkpt lat="44.873469313775736" lon="9.854191278255293"><ele>182.0</ele><time>2026-04-06T07:20:33.999Z</time></trkpt><trkpt lat="44.87338601010377" lon="9.854284907489514"><ele>182.6</ele><time>2026-04-06T07:20:35.999Z</time></trkpt><trkpt lat="44.87329393255977" lon="9.854366257530259"><ele>183.2</ele><time>2026-04-06T07:20:37.999Z</time></trkpt><trkpt lat="44.87319741593935" lon="9.85444520339962"><ele>183.8</ele><time>2026-04-06T07:20:39.999Z</time></trkpt><trkpt lat="44.873096203984524" lon="9.854510901764655"><ele>184.4</ele><time>2026-04-06T07:20:41.999Z</time></trkpt><trkpt lat="44.8729932696406" lon="9.854566783323552"><ele>185.0</ele><time>2026-04-06T07:20:43.999Z</time></trkpt><trkpt lat="44.87289682086314" lon="9.854623286553487"><ele>185.0</ele><time>2026-04-06T07:20:45.999Z</time></trkpt><trkpt lat="44.87279509519108" lon="9.854675419951732"><ele>185.0</ele><time>2026-04-06T07:20:47.999Z</time></trkpt><trkpt lat="44.87269373795583" lon="9.854733591171472"><ele>185.0</ele><time>2026-04-06T07:20:49.999Z</time></trkpt><trkpt lat="44.87259311769036" lon="9.85478170000452"><ele>185.0</ele><time>2026-04-06T07:20:51.999Z</time></trkpt><trkpt lat="44.87249294858181" lon="9.854840034693295"><ele>185.0</ele><time>2026-04-06T07:20:53.999Z</time></trkpt><trkpt lat="44.872392605465514" lon="9.854896631626403"><ele>185.6</ele><time>2026-04-06T07:20:55.999Z</time></trkpt><trkpt lat="44.87229208513448" lon="9.85494205870408"><ele>186.2</ele><time>2026-04-06T07:20:57.998Z</time></trkpt><trkpt lat="44.87219331006579" lon="9.854995571178415"><ele>186.8</ele><time>2026-04-06T07:20:59.998Z</time></trkpt><trkpt lat="44.87209084475779" lon="9.855045761890631"><ele>187.4</ele><time>2026-04-06T07:21:01.998Z</time></trkpt><trkpt lat="44.871987860235926" lon="9.855087703547738"><ele>188.0</ele><time>2026-04-06T07:21:03.998Z</time></trkpt><trkpt lat="44.87188722495654" lon="9.855125083303339"><ele>188.2</ele><time>2026-04-06T07:21:05.998Z</time></trkpt><trkpt lat="44.87178391751066" lon="9.855149994954601"><ele>188.4</ele><time>2026-04-06T07:21:07.998Z</time></trkpt><trkpt lat="44.87167557727126" lon="9.855169702277111"><ele>188.6</ele><time>2026-04-06T07:21:10Z</time></trkpt><trkpt lat="44.871567377214745" lon="9.855186337826874"><ele>188.79999999999998</ele><time>2026-04-06T07:21:12Z</time></trkpt><trkpt lat="44.871460392933336" lon="9.855202188471678"><ele>189.0</ele><time>2026-04-06T07:21:14Z</time></trkpt><trkpt lat="44.87135721414433" lon="9.855206997228017"><ele>189.79999999999998</ele><time>2026-04-06T07:21:16Z</time></trkpt><trkpt lat="44.87125243651685" lon="9.855209912176381"><ele>190.6</ele><time>2026-04-06T07:21:18Z</time></trkpt><trkpt lat="44.87115190755242" lon="9.855236413193134"><ele>191.4</ele><time>2026-04-06T07:21:20Z</time></trkpt><trkpt lat="44.871047716088206" lon="9.855272662529286"><ele>192.2</ele><time>2026-04-06T07:21:22Z</time></trkpt><trkpt lat="44.87094825014872" lon="9.855306992371093"><ele>193.0</ele><time>2026-04-06T07:21:24Z</time></trkpt><trkpt lat="44.87084262573498" lon="9.855338841493511"><ele>193.2</ele><time>2026-04-06T07:21:26Z</time></trkpt><trkpt lat="44.87074414159348" lon="9.855383096107182"><ele>193.4</ele><time>2026-04-06T07:21:28Z</time></trkpt><trkpt lat="44.87064494010012" lon="9.855413769775339"><ele>193.6</ele><time>2026-04-06T07:21:30Z</time></trkpt><trkpt lat="44.87054227914931" lon="9.85545155789904"><ele>193.79999999999998</ele><time>2026-04-06T07:21:32Z</time></trkpt><trkpt lat="44.87044030165207" lon="9.855483722749286"><ele>194.0</ele><time>2026-04-06T07:21:34Z</time></trkpt><trkpt lat="44.87033809085018" lon="9.855514393113761"><ele>194.0</ele><time>2026-04-06T07:21:36Z</time></trkpt><trkpt lat="44.870237886200336" lon="9.85554906972635"><ele>194.0</ele><time>2026-04-06T07:21:38Z</time></trkpt><trkpt lat="44.870136857498565" lon="9.855581193671384"><ele>194.0</ele><time>2026-04-06T07:21:40Z</time></trkpt><trkpt lat="44.870037881229344" lon="9.855620932208993"><ele>194.0</ele><time>2026-04-06T07:21:42Z</time></trkpt><trkpt lat="44.86993720464432" lon="9.855662432526083"><ele>194.0</ele><time>2026-04-06T07:21:44Z</time></trkpt><trkpt lat="44.86984552522474" lon="9.855709226588429"><ele>194.6</ele><time>2026-04-06T07:21:46Z</time></trkpt><trkpt lat="44.86975063957898" lon="9.855760944607589"><ele>195.2</ele><time>2026-04-06T07:21:48Z</time></trkpt><trkpt lat="44.86965346577707" lon="9.85581621978085"><ele>195.79999999999998</ele><time>2026-04-06T07:21:50Z</time></trkpt><trkpt lat="44.869557674834695" lon="9.855860097386204"><ele>196.39999999999998</ele><time>2026-04-06T07:21:52Z</time></trkpt><trkpt lat="44.8694581089891" lon="9.855910494980662"><ele>197.0</ele><time>2026-04-06T07:21:54Z</time></trkpt><trkpt lat="44.86936321479514" lon="9.85597113413314"><ele>198.2</ele><time>2026-04-06T07:21:56Z</time></trkpt><trkpt lat="44.86927235756081" lon="9.85603132082429"><ele>199.39999999999998</ele><time>2026-04-06T07:21:58Z</time></trkpt><trkpt lat="44.869181268068665" lon="9.85609758308389"><ele>200.60000000000002</ele><time>2026-04-06T07:22:00Z</time></trkpt><trkpt lat="44.869096779073296" lon="9.856175515242292"><ele>201.8</ele><time>2026-04-06T07:22:02Z</time></trkpt><trkpt lat="44.869011395191045" lon="9.856260946884905"><ele>203.0</ele><time>2026-04-06T07:22:04Z</time></trkpt><trkpt lat="44.8689274614177" lon="9.856349730807322"><ele>203.0</ele><time>2026-04-06T07:22:05.999Z</time></trkpt><trkpt lat="44.868840544625066" lon="9.856434793334085"><ele>203.0</ele><time>2026-04-06T07:22:07.999Z</time></trkpt><trkpt lat="44.868751635203814" lon="9.856512345392076"><ele>203.0</ele><time>2026-04-06T07:22:09.999Z</time></trkpt><trkpt lat="44.86865996652911" lon="9.856581430551401"><ele>203.0</ele><time>2026-04-06T07:22:11.999Z</time></trkpt><trkpt lat="44.86856857158148" lon="9.856650762464621"><ele>203.0</ele><time>2026-04-06T07:22:13.999Z</time></trkpt><trkpt lat="44.868479086961464" lon="9.856724296428483"><ele>203.0</ele><time>2026-04-06T07:22:15.999Z</time></trkpt><trkpt lat="44.86838306318492" lon="9.856789235616764"><ele>203.0</ele><time>2026-04-06T07:22:17.999Z</time></trkpt><trkpt lat="44.86829132665256" lon="9.85685591667443"><ele>203.0</ele><time>2026-04-06T07:22:19.999Z</time></trkpt><trkpt lat="44.868201849685136" lon="9.85692526383817"><ele>203.0</ele><time>2026-04-06T07:22:21.999Z</time></trkpt><trkpt lat="44.86810577768465" lon="9.856994039576398"><ele>203.0</ele><time>2026-04-06T07:22:23.999Z</time></trkpt><trkpt lat="44.86801349412853" lon="9.857058901501965"><ele>203.0</ele><time>2026-04-06T07:22:25.999Z</time></trkpt><trkpt lat="44.86791754711017" lon="9.857118200807736"><ele>203.0</ele><time>2026-04-06T07:22:27.999Z</time></trkpt><trkpt lat="44.867817437710954" lon="9.85716478774834"><ele>203.0</ele><time>2026-04-06T07:22:29.999Z</time></trkpt><trkpt lat="44.86771604503513" lon="9.85720508182804"><ele>203.0</ele><time>2026-04-06T07:22:31.999Z</time></trkpt><trkpt lat="44.8676130377951" lon="9.857232186701212"><ele>203.0</ele><time>2026-04-06T07:22:33.999Z</time></trkpt><trkpt lat="44.867512255283636" lon="9.857257603249884"><ele>203.4</ele><time>2026-04-06T07:22:35.999Z</time></trkpt><trkpt lat="44.86740576488553" lon="9.857277987026233"><ele>203.8</ele><time>2026-04-06T07:22:37.999Z</time></trkpt><trkpt lat="44.86730420308766" lon="9.857295170665287"><ele>204.2</ele><time>2026-04-06T07:22:39.999Z</time></trkpt><trkpt lat="44.867201359277" lon="9.85731353400393"><ele>204.6</ele><time>2026-04-06T07:22:41.999Z</time></trkpt><trkpt lat="44.86709345439403" lon="9.857342944472748"><ele>205.0</ele><time>2026-04-06T07:22:43.999Z</time></trkpt><trkpt lat="44.86698981087165" lon="9.857368529145923"><ele>205.0</ele><time>2026-04-06T07:22:45.999Z</time></trkpt><trkpt lat="44.866882636653244" lon="9.857385650155514"><ele>205.0</ele><time>2026-04-06T07:22:47.999Z</time></trkpt><trkpt lat="44.86677973197647" lon="9.857410765640196"><ele>205.0</ele><time>2026-04-06T07:22:49.999Z</time></trkpt><trkpt lat="44.86667045112351" lon="9.857430396580824"><ele>205.0</ele><time>2026-04-06T07:22:51.999Z</time></trkpt><trkpt lat="44.86655934096244" lon="9.8574595921267"><ele>205.0</ele><time>2026-04-06T07:22:53.999Z</time></trkpt><trkpt lat="44.866449330648344" lon="9.857481123434187"><ele>206.2</ele><time>2026-04-06T07:22:55.999Z</time></trkpt><trkpt lat="44.8663441942505" lon="9.857501910028668"><ele>207.4</ele><time>2026-04-06T07:22:57.999Z</time></trkpt><trkpt lat="44.86623778283444" lon="9.857532146184175"><ele>208.60000000000002</ele><time>2026-04-06T07:22:59.999Z</time></trkpt><trkpt lat="44.86613234532838" lon="9.857555929485969"><ele>209.8</ele><time>2026-04-06T07:23:01.998Z</time></trkpt><trkpt lat="44.86602414976346" lon="9.857577950115344"><ele>211.0</ele><time>2026-04-06T07:23:03.998Z</time></trkpt><trkpt lat="44.865915006324514" lon="9.857602315168728"><ele>211.4</ele><time>2026-04-06T07:23:05.998Z</time></trkpt><trkpt lat="44.86580661041174" lon="9.857629513015922"><ele>211.8</ele><time>2026-04-06T07:23:07.998Z</time></trkpt><trkpt lat="44.86570027183021" lon="9.857654032406769"><ele>212.20000000000002</ele><time>2026-04-06T07:23:09.998Z</time></trkpt><trkpt lat="44.8655940902032" lon="9.857677218585932"><ele>212.60000000000002</ele><time>2026-04-06T07:23:11.998Z</time></trkpt><trkpt lat="44.86549586772394" lon="9.857703507782759"><ele>213.0</ele><time>2026-04-06T07:23:13.998Z</time></trkpt><trkpt lat="44.86539305635244" lon="9.857723315511027"><ele>213.0</ele><time>2026-04-06T07:23:16Z</time></trkpt><trkpt lat="44.865291388690466" lon="9.857753859946543"><ele>213.0</ele><time>2026-04-06T07:23:18Z</time></trkpt><trkpt lat="44.865192585071625" lon="9.857779881725426"><ele>213.0</ele><time>2026-04-06T07:23:20Z</time></trkpt><trkpt lat="44.86509518959033" lon="9.857806696565145"><ele>213.0</ele><time>2026-04-06T07:23:22Z</time></trkpt><trkpt lat="44.864988524411636" lon="9.857833337615764"><ele>213.0</ele><time>2026-04-06T07:23:24Z</time></trkpt><trkpt lat="44.864886376414894" lon="9.857854609957586"><ele>214.4</ele><time>2026-04-06T07:23:26Z</time></trkpt><trkpt lat="44.864783094499536" lon="9.857876946476424"><ele>215.8</ele><time>2026-04-06T07:23:28Z</time></trkpt><trkpt lat="44.86468240687631" lon="9.85789791715556"><ele>217.2</ele><time>2026-04-06T07:23:30Z</time></trkpt><trkpt lat="44.864586821030336" lon="9.857924890935582"><ele>218.6</ele><time>2026-04-06T07:23:32Z</time></trkpt><trkpt lat="44.8644923032337" lon="9.857949082423778"><ele>220.0</ele><time>2026-04-06T07:23:34Z</time></trkpt><trkpt lat="44.864397633189355" lon="9.857975550418757"><ele>220.0</ele><time>2026-04-06T07:23:36Z</time></trkpt><trkpt lat="44.86430399385126" lon="9.857991444326831"><ele>220.0</ele><time>2026-04-06T07:23:38Z</time></trkpt><trkpt lat="44.86421167861221" lon="9.858013357760342"><ele>220.0</ele><time>2026-04-06T07:23:40Z</time></trkpt><trkpt lat="44.86412138675056" lon="9.858031018530047"><ele>220.0</ele><time>2026-04-06T07:23:42Z</time></trkpt><trkpt lat="44.86402537869718" lon="9.858041772293122"><ele>220.0</ele><time>2026-04-06T07:23:44Z</time></trkpt><trkpt lat="44.86392865295452" lon="9.858036191213884"><ele>220.6</ele><time>2026-04-06T07:23:46Z</time></trkpt><trkpt lat="44.86383826375827" lon="9.858012607168407"><ele>221.2</ele><time>2026-04-06T07:23:48Z</time></trkpt><trkpt lat="44.8637467989806" lon="9.857984469868615"><ele>221.8</ele><time>2026-04-06T07:23:50Z</time></trkpt><trkpt lat="44.8636440734494" lon="9.85794499901663"><ele>222.4</ele><time>2026-04-06T07:23:52Z</time></trkpt><trkpt lat="44.863550708334586" lon="9.857911332173142"><ele>223.0</ele><time>2026-04-06T07:23:54Z</time></trkpt><trkpt lat="44.86345771828256" lon="9.85788453047712"><ele>224.4</ele><time>2026-04-06T07:23:56Z</time></trkpt><trkpt lat="44.863365677814485" lon="9.857853890565375"><ele>225.8</ele><time>2026-04-06T07:23:58Z</time></trkpt><trkpt lat="44.8632727857548" lon="9.85782276152225"><ele>227.2</ele><time>2026-04-06T07:24:00Z</time></trkpt><trkpt lat="44.86318454515114" lon="9.857793880410828"><ele>228.6</ele><time>2026-04-06T07:24:02Z</time></trkpt><trkpt lat="44.863092634268654" lon="9.857764088860488"><ele>230.0</ele><time>2026-04-06T07:24:04Z</time></trkpt><trkpt lat="44.86300104566086" lon="9.857735249838129"><ele>230.0</ele><time>2026-04-06T07:24:06Z</time></trkpt><trkpt lat="44.86291134564263" lon="9.857706202480767"><ele>230.0</ele><time>2026-04-06T07:24:08Z</time></trkpt><trkpt lat="44.86282426310648" lon="9.857681909053692"><ele>230.0</ele><time>2026-04-06T07:24:09.999Z</time></trkpt><trkpt lat="44.8627307592333" lon="9.857658712907474"><ele>230.0</ele><time>2026-04-06T07:24:11.999Z</time></trkpt><trkpt lat="44.862640268727155" lon="9.857621980874182"><ele>230.0</ele><time>2026-04-06T07:24:13.999Z</time></trkpt><trkpt lat="44.86254665940337" lon="9.857593759022208"><ele>230.6</ele><time>2026-04-06T07:24:15.999Z</time></trkpt><trkpt lat="44.86245188597668" lon="9.857562916237127"><ele>231.2</ele><time>2026-04-06T07:24:17.999Z</time></trkpt><trkpt lat="44.86235943790335" lon="9.857528501448515"><ele>231.8</ele><time>2026-04-06T07:24:19.999Z</time></trkpt><trkpt lat="44.86226420429074" lon="9.857500797527164"><ele>232.4</ele><time>2026-04-06T07:24:21.999Z</time></trkpt><trkpt lat="44.862171934762095" lon="9.857471321586893"><ele>233.0</ele><time>2026-04-06T07:24:23.999Z</time></trkpt><trkpt lat="44.86208486920178" lon="9.857445534668917"><ele>233.0</ele><time>2026-04-06T07:24:25.999Z</time></trkpt><trkpt lat="44.861987740459995" lon="9.857416375537385"><ele>233.0</ele><time>2026-04-06T07:24:27.999Z</time></trkpt><trkpt lat="44.86189820699497" lon="9.85738386025316"><ele>233.0</ele><time>2026-04-06T07:24:29.999Z</time></trkpt><trkpt lat="44.86179787132467" lon="9.857345127408042"><ele>233.0</ele><time>2026-04-06T07:24:31.999Z</time></trkpt><trkpt lat="44.86170189615621" lon="9.857308030870188"><ele>233.0</ele><time>2026-04-06T07:24:33.999Z</time></trkpt><trkpt lat="44.86160091455497" lon="9.857269794964106"><ele>234.0</ele><time>2026-04-06T07:24:35.999Z</time></trkpt><trkpt lat="44.86150736491184" lon="9.857239890660114"><ele>235.0</ele><time>2026-04-06T07:24:37.999Z</time></trkpt><trkpt lat="44.86140824178425" lon="9.8572025666021"><ele>236.0</ele><time>2026-04-06T07:24:39.999Z</time></trkpt><trkpt lat="44.861310071912484" lon="9.85716815852781"><ele>237.0</ele><time>2026-04-06T07:24:41.999Z</time></trkpt><trkpt lat="44.86121740884105" lon="9.857131660787964"><ele>238.0</ele><time>2026-04-06T07:24:43.999Z</time></trkpt><trkpt lat="44.86111686776351" lon="9.857094653666879"><ele>238.0</ele><time>2026-04-06T07:24:45.999Z</time></trkpt><trkpt lat="44.86102011711273" lon="9.857057774820785"><ele>238.0</ele><time>2026-04-06T07:24:47.999Z</time></trkpt><trkpt lat="44.860924506457394" lon="9.85702718115667"><ele>238.0</ele><time>2026-04-06T07:24:49.999Z</time></trkpt><trkpt lat="44.860830868379864" lon="9.856994918304197"><ele>238.0</ele><time>2026-04-06T07:24:51.999Z</time></trkpt><trkpt lat="44.86073322336068" lon="9.856958420428207"><ele>238.0</ele><time>2026-04-06T07:24:53.999Z</time></trkpt><trkpt lat="44.86063855419625" lon="9.856931668893207"><ele>238.2</ele><time>2026-04-06T07:24:55.999Z</time></trkpt><trkpt lat="44.860544520830686" lon="9.856903287614402"><ele>238.4</ele><time>2026-04-06T07:24:57.999Z</time></trkpt><trkpt lat="44.8604520279744" lon="9.856868337269912"><ele>238.59999999999997</ele><time>2026-04-06T07:24:59.999Z</time></trkpt><trkpt lat="44.86035685030193" lon="9.85683848765117"><ele>238.79999999999998</ele><time>2026-04-06T07:25:01.999Z</time></trkpt><trkpt lat="44.860263837790875" lon="9.856807376361518"><ele>239.0</ele><time>2026-04-06T07:25:03.999Z</time></trkpt><trkpt lat="44.86017122761925" lon="9.856775505699458"><ele>239.79999999999998</ele><time>2026-04-06T07:25:05.999Z</time></trkpt><trkpt lat="44.86007964838969" lon="9.856747956781758"><ele>240.59999999999997</ele><time>2026-04-06T07:25:07.998Z</time></trkpt><trkpt lat="44.85998446245361" lon="9.856722338726142"><ele>241.4</ele><time>2026-04-06T07:25:09.998Z</time></trkpt><trkpt lat="44.85989008472783" lon="9.856684937814892"><ele>242.2</ele><time>2026-04-06T07:25:11.998Z</time></trkpt><trkpt lat="44.85979494026666" lon="9.856656993654623"><ele>243.0</ele><time>2026-04-06T07:25:13.998Z</time></trkpt><trkpt lat="44.859703760042166" lon="9.856625247392946"><ele>243.0</ele><time>2026-04-06T07:25:15.998Z</time></trkpt><trkpt lat="44.859606163653254" lon="9.856590290677605"><ele>243.0</ele><time>2026-04-06T07:25:17.998Z</time></trkpt><trkpt lat="44.85950833880772" lon="9.85655710411734"><ele>243.0</ele><time>2026-04-06T07:25:19.998Z</time></trkpt><trkpt lat="44.85941204746748" lon="9.856531207720133"><ele>243.0</ele><time>2026-04-06T07:25:22Z</time></trkpt><trkpt lat="44.859318003446404" lon="9.856498610403094"><ele>243.0</ele><time>2026-04-06T07:25:24Z</time></trkpt><trkpt lat="44.859226624236705" lon="9.856462258201306"><ele>244.60000000000002</ele><time>2026-04-06T07:25:26Z</time></trkpt><trkpt lat="44.85913075393164" lon="9.856430425284286"><ele>246.20000000000002</ele><time>2026-04-06T07:25:28Z</time></trkpt><trkpt lat="44.859033648117375" lon="9.8563973163845"><ele>247.8</ele><time>2026-04-06T07:25:30Z</time></trkpt><trkpt lat="44.85893795363947" lon="9.85636815974752"><ele>249.4</ele><time>2026-04-06T07:25:32Z</time></trkpt><trkpt lat="44.85884402347557" lon="9.856335838588075"><ele>251.0</ele><time>2026-04-06T07:25:34Z</time></trkpt><trkpt lat="44.85874887423412" lon="9.856300792415077"><ele>251.0</ele><time>2026-04-06T07:25:36Z</time></trkpt><trkpt lat="44.858655153940965" lon="9.856274614851033"><ele>251.00000000000003</ele><time>2026-04-06T07:25:38Z</time></trkpt><trkpt lat="44.8585602299526" lon="9.856244247699015"><ele>251.00000000000003</ele><time>2026-04-06T07:25:40Z</time></trkpt><trkpt lat="44.85846628926227" lon="9.856211920286901"><ele>251.0</ele><time>2026-04-06T07:25:42Z</time></trkpt><trkpt lat="44.85836833213565" lon="9.85617486657453"><ele>251.0</ele><time>2026-04-06T07:25:44Z</time></trkpt><trkpt lat="44.85827070749173" lon="9.856141822133173"><ele>251.8</ele><time>2026-04-06T07:25:46Z</time></trkpt><trkpt lat="44.858173948637635" lon="9.856103874738565"><ele>252.60000000000002</ele><time>2026-04-06T07:25:48Z</time></trkpt><trkpt lat="44.858075545693005" lon="9.856062723718834"><ele>253.4</ele><time>2026-04-06T07:25:50Z</time></trkpt><trkpt lat="44.85798362074892" lon="9.856015610513474"><ele>254.2</ele><time>2026-04-06T07:25:52Z</time></trkpt><trkpt lat="44.8578888873289" lon="9.855969493726835"><ele>255.0</ele><time>2026-04-06T07:25:54Z</time></trkpt><trkpt lat="44.857792802031774" lon="9.855915666917541"><ele>255.0</ele><time>2026-04-06T07:25:56Z</time></trkpt><trkpt lat="44.85770157409787" lon="9.855862045157897"><ele>255.0</ele><time>2026-04-06T07:25:58Z</time></trkpt><trkpt lat="44.85760441630402" lon="9.855802168303063"><ele>255.0</ele><time>2026-04-06T07:26:00Z</time></trkpt><trkpt lat="44.857509670511895" lon="9.855747567364997"><ele>255.0</ele><time>2026-04-06T07:26:02Z</time></trkpt><trkpt lat="44.85741174736694" lon="9.855693133392487"><ele>255.0</ele><time>2026-04-06T07:26:04Z</time></trkpt><trkpt lat="44.85730993637465" lon="9.855639155946674"><ele>255.6</ele><time>2026-04-06T07:26:06Z</time></trkpt><trkpt lat="44.85720670033298" lon="9.855592988568135"><ele>256.2</ele><time>2026-04-06T07:26:08Z</time></trkpt><trkpt lat="44.85710415186935" lon="9.855556123361323"><ele>256.8</ele><time>2026-04-06T07:26:10Z</time></trkpt><trkpt lat="44.85700117285508" lon="9.855520003631852"><ele>257.4</ele><time>2026-04-06T07:26:12Z</time></trkpt><trkpt lat="44.856885442198035" lon="9.855498509596432"><ele>258.0</ele><time>2026-04-06T07:26:14Z</time></trkpt><trkpt lat="44.8567700197834" lon="9.855489874512234"><ele>258.75</ele><time>2026-04-06T07:26:15.999Z</time></trkpt><trkpt lat="44.85665402192782" lon="9.855497071375439"><ele>259.5</ele><time>2026-04-06T07:26:17.999Z</time></trkpt><trkpt lat="44.8565397391052" lon="9.855526999308443"><ele>260.25</ele><time>2026-04-06T07:26:19.999Z</time></trkpt><trkpt lat="44.85642827741134" lon="9.855565195436565"><ele>261.0</ele><time>2026-04-06T07:26:21.999Z</time></trkpt><trkpt lat="44.85631736983845" lon="9.85560965297226"><ele>261.0</ele><time>2026-04-06T07:26:23.999Z</time></trkpt><trkpt lat="44.85620557660859" lon="9.855652815132983"><ele>261.0</ele><time>2026-04-06T07:26:25.999Z</time></trkpt><trkpt lat="44.85610032132085" lon="9.855709102087065"><ele>261.0</ele><time>2026-04-06T07:26:27.999Z</time></trkpt><trkpt lat="44.85599316059162" lon="9.85576808464102"><ele>261.0</ele><time>2026-04-06T07:26:29.999Z</time></trkpt><trkpt lat="44.85588497290693" lon="9.855820816661748"><ele>261.6</ele><time>2026-04-06T07:26:31.999Z</time></trkpt><trkpt lat="44.8557777503644" lon="9.855875429071537"><ele>262.20000000000005</ele><time>2026-04-06T07:26:33.999Z</time></trkpt><trkpt lat="44.855678521719206" lon="9.855934604467137"><ele>262.79999999999995</ele><time>2026-04-06T07:26:35.999Z</time></trkpt><trkpt lat="44.85558100524503" lon="9.855993405604274"><ele>263.4</ele><time>2026-04-06T07:26:37.999Z</time></trkpt><trkpt lat="44.85548579455305" lon="9.856050523525314"><ele>264.0</ele><time>2026-04-06T07:26:39.999Z</time></trkpt><trkpt lat="44.855397864751765" lon="9.85610086312389"><ele>264.0</ele><time>2026-04-06T07:26:41.999Z</time></trkpt><trkpt lat="44.85531252283225" lon="9.856154179431893"><ele>264.0</ele><time>2026-04-06T07:26:43.999Z</time></trkpt><trkpt lat="44.85522503628269" lon="9.856209247893982"><ele>264.0</ele><time>2026-04-06T07:26:45.999Z</time></trkpt><trkpt lat="44.85513442083119" lon="9.856254396386749"><ele>264.0</ele><time>2026-04-06T07:26:47.999Z</time></trkpt><trkpt lat="44.855036499201894" lon="9.856285149374749"><ele>264.0</ele><time>2026-04-06T07:26:49.999Z</time></trkpt><trkpt lat="44.854936653564245" lon="9.856322654252265"><ele>265.0</ele><time>2026-04-06T07:26:51.999Z</time></trkpt><trkpt lat="44.85483725555386" lon="9.856355784759964"><ele>266.0</ele><time>2026-04-06T07:26:53.999Z</time></trkpt><trkpt lat="44.854739965157144" lon="9.856380007855902"><ele>267.0</ele><time>2026-04-06T07:26:55.999Z</time></trkpt><trkpt lat="44.85464124785516" lon="9.85639793614364"><ele>268.0</ele><time>2026-04-06T07:26:57.999Z</time></trkpt><trkpt lat="44.85454308579268" lon="9.856410079213438"><ele>269.0</ele><time>2026-04-06T07:26:59.999Z</time></trkpt><trkpt lat="44.8544443615085" lon="9.856428635990458"><ele>269.0</ele><time>2026-04-06T07:27:01.999Z</time></trkpt><trkpt lat="44.85434599265234" lon="9.856430515899842"><ele>269.0</ele><time>2026-04-06T07:27:03.999Z</time></trkpt><trkpt lat="44.85424774192495" lon="9.85643496802023"><ele>269.0</ele><time>2026-04-06T07:27:05.999Z</time></trkpt><trkpt lat="44.854148903248614" lon="9.85642390021295"><ele>269.0</ele><time>2026-04-06T07:27:07.999Z</time></trkpt><trkpt lat="44.85404831493936" lon="9.856419505864672"><ele>269.0</ele><time>2026-04-06T07:27:09.999Z</time></trkpt><trkpt lat="44.85395217211665" lon="9.856416686478164"><ele>269.8</ele><time>2026-04-06T07:27:11.999Z</time></trkpt><trkpt lat="44.85385020938932" lon="9.856396403745302"><ele>270.59999999999997</ele><time>2026-04-06T07:27:13.998Z</time></trkpt><trkpt lat="44.85374840423759" lon="9.85638534631702"><ele>271.4</ele><time>2026-04-06T07:27:15.998Z</time></trkpt><trkpt lat="44.853654815243104" lon="9.856367841235105"><ele>272.2</ele><time>2026-04-06T07:27:17.998Z</time></trkpt><trkpt lat="44.853552996919596" lon="9.856347673570207"><ele>273.0</ele><time>2026-04-06T07:27:19.998Z</time></trkpt><trkpt lat="44.85344845909995" lon="9.856316380495391"><ele>273.4</ele><time>2026-04-06T07:27:21.998Z</time></trkpt><trkpt lat="44.85334313418127" lon="9.856284662932897"><ele>273.8</ele><time>2026-04-06T07:27:23.998Z</time></trkpt><trkpt lat="44.85323841151748" lon="9.856250238149087"><ele>274.2</ele><time>2026-04-06T07:27:25.998Z</time></trkpt><trkpt lat="44.853133331905894" lon="9.856205756784455"><ele>274.6</ele><time>2026-04-06T07:27:28Z</time></trkpt><trkpt lat="44.853026092247866" lon="9.856174336244948"><ele>275.0</ele><time>2026-04-06T07:27:30Z</time></trkpt><trkpt lat="44.852922305473925" lon="9.856139633379673"><ele>275.0</ele><time>2026-04-06T07:27:32Z</time></trkpt><trkpt lat="44.85281573909596" lon="9.856111495123596"><ele>275.0</ele><time>2026-04-06T07:27:34Z</time></trkpt><trkpt lat="44.85270511694355" lon="9.856088715522349"><ele>275.0</ele><time>2026-04-06T07:27:36Z</time></trkpt><trkpt lat="44.85260067850452" lon="9.85607051316917"><ele>275.0</ele><time>2026-04-06T07:27:38Z</time></trkpt><trkpt lat="44.852493755133416" lon="9.85605637835876"><ele>275.0</ele><time>2026-04-06T07:27:40Z</time></trkpt><trkpt lat="44.8523848905517" lon="9.85604131434545"><ele>274.6</ele><time>2026-04-06T07:27:42Z</time></trkpt><trkpt lat="44.852274918628645" lon="9.856025631092999"><ele>274.2</ele><time>2026-04-06T07:27:44Z</time></trkpt><trkpt lat="44.852165515389835" lon="9.856012387429997"><ele>273.8</ele><time>2026-04-06T07:27:46Z</time></trkpt><trkpt lat="44.85205613528671" lon="9.855991637007719"><ele>273.4</ele><time>2026-04-06T07:27:48Z</time></trkpt><trkpt lat="44.85194565239935" lon="9.85596316556244"><ele>273.0</ele><time>2026-04-06T07:27:50Z</time></trkpt><trkpt lat="44.85183542271162" lon="9.85594685238964"><ele>275.0</ele><time>2026-04-06T07:27:52Z</time></trkpt><trkpt lat="44.851728584645464" lon="9.855926447384986"><ele>277.0</ele><time>2026-04-06T07:27:54Z</time></trkpt><trkpt lat="44.85162239562246" lon="9.855907238525502"><ele>279.0</ele><time>2026-04-06T07:27:56Z</time></trkpt><trkpt lat="44.851516117111046" lon="9.855878973992867"><ele>281.0</ele><time>2026-04-06T07:27:58Z</time></trkpt><trkpt lat="44.85140963441222" lon="9.855857004032286"><ele>283.0</ele><time>2026-04-06T07:28:00Z</time></trkpt><trkpt lat="44.85131427738473" lon="9.855838518329627"><ele>283.0</ele><time>2026-04-06T07:28:02Z</time></trkpt><trkpt lat="44.85122092374635" lon="9.855819852016774"><ele>283.0</ele><time>2026-04-06T07:28:04Z</time></trkpt><trkpt lat="44.851126256398736" lon="9.85579183853363"><ele>283.0</ele><time>2026-04-06T07:28:06Z</time></trkpt><trkpt lat="44.85102136591119" lon="9.855779287640717"><ele>283.0</ele><time>2026-04-06T07:28:08Z</time></trkpt><trkpt lat="44.850917832818006" lon="9.855732897801708"><ele>283.0</ele><time>2026-04-06T07:28:10Z</time></trkpt><trkpt lat="44.85084412736611" lon="9.855689307856156"><ele>282.8333333333333</ele><time>2026-04-06T07:28:12Z</time></trkpt><trkpt lat="44.850785458557965" lon="9.855638886854639"><ele>282.66666666666663</ele><time>2026-04-06T07:28:15Z</time></trkpt><trkpt lat="44.85072065153648" lon="9.855684752866605"><ele>282.5</ele><time>2026-04-06T07:28:19.999Z</time></trkpt><trkpt lat="44.85065795768834" lon="9.85573644472572"><ele>282.3333333333333</ele><time>2026-04-06T07:28:25.999Z</time></trkpt><trkpt lat="44.850599144198874" lon="9.85580845291489"><ele>282.1666666666667</ele><time>2026-04-06T07:28:27.999Z</time></trkpt><trkpt lat="44.85052784166381" lon="9.855875205589221"><ele>282.0</ele><time>2026-04-06T07:28:29.999Z</time></trkpt><trkpt lat="44.850458158096075" lon="9.855933629879921"><ele>280.5</ele><time>2026-04-06T07:28:31.999Z</time></trkpt><trkpt lat="44.85040285844343" lon="9.855988133989669"><ele>279.0</ele><time>2026-04-06T07:28:33.999Z</time></trkpt><trkpt lat="44.85034504455023" lon="9.856071709681267"><ele>277.5</ele><time>2026-04-06T07:31:56Z</time></trkpt><trkpt lat="44.85031002538614" lon="9.85615291698649"><ele>276.0</ele><time>2026-04-06T07:31:59Z</time></trkpt><trkpt lat="44.85026213497639" lon="9.856220452364443"><ele>274.5</ele><time>2026-04-06T07:32:02Z</time></trkpt><trkpt lat="44.850201025049024" lon="9.856322415591297"><ele>273.0</ele><time>2026-04-06T07:32:05Z</time></trkpt><trkpt lat="44.85015742450086" lon="9.85640354251097"><ele>273.0</ele><time>2026-04-06T07:32:07Z</time></trkpt><trkpt lat="44.85011419570732" lon="9.856492324269094"><ele>273.0</ele><time>2026-04-06T07:32:09Z</time></trkpt><trkpt lat="44.85006236182547" lon="9.856597524412944"><ele>273.0</ele><time>2026-04-06T07:32:11Z</time></trkpt><trkpt lat="44.85001538778042" lon="9.85672734840149"><ele>273.0</ele><time>2026-04-06T07:32:13Z</time></trkpt><trkpt lat="44.84996457337449" lon="9.856861581945882"><ele>273.0</ele><time>2026-04-06T07:32:15Z</time></trkpt><trkpt lat="44.84991525352671" lon="9.85700120999103"><ele>273.0</ele><time>2026-04-06T07:32:17Z</time></trkpt><trkpt lat="44.84985504041798" lon="9.857144028600601"><ele>273.0</ele><time>2026-04-06T07:32:19Z</time></trkpt><trkpt lat="44.84982703339852" lon="9.857224908379491"><ele>273.0</ele><time>2026-04-06T07:32:20Z</time></trkpt><trkpt lat="44.84979653337405" lon="9.857305818886672"><ele>273.0</ele><time>2026-04-06T07:32:21Z</time></trkpt><trkpt lat="44.84976685934996" lon="9.857389435740378"><ele>273.0</ele><time>2026-04-06T07:32:22Z</time></trkpt><trkpt lat="44.84973529094301" lon="9.857475696328638"><ele>273.0</ele><time>2026-04-06T07:32:23Z</time></trkpt><trkpt lat="44.84970184974856" lon="9.857564558533628"><ele>272.0</ele><time>2026-04-06T07:32:24Z</time></trkpt><trkpt lat="44.849668617065284" lon="9.857651743334145"><ele>271.0</ele><time>2026-04-06T07:32:25Z</time></trkpt><trkpt lat="44.84963519897124" lon="9.857749674414777"><ele>270.0</ele><time>2026-04-06T07:32:26Z</time></trkpt><trkpt lat="44.84959893770266" lon="9.857847041078216"><ele>269.0</ele><time>2026-04-06T07:32:27Z</time></trkpt><trkpt lat="44.84956106202081" lon="9.857945784852998"><ele>268.0</ele><time>2026-04-06T07:32:28Z</time></trkpt><trkpt lat="44.84952651750142" lon="9.858040899607099"><ele>267.0</ele><time>2026-04-06T07:32:28.999Z</time></trkpt><trkpt lat="44.849494194402084" lon="9.85813682812256"><ele>267.0</ele><time>2026-04-06T07:32:29.999Z</time></trkpt><trkpt lat="44.849466182307765" lon="9.858234076814199"><ele>267.0</ele><time>2026-04-06T07:32:30.999Z</time></trkpt><trkpt lat="44.84944327423643" lon="9.858334266983727"><ele>267.0</ele><time>2026-04-06T07:32:31.999Z</time></trkpt><trkpt lat="44.84941833563319" lon="9.858430829528745"><ele>267.0</ele><time>2026-04-06T07:32:32.999Z</time></trkpt><trkpt lat="44.84939682978575" lon="9.858534695584389"><ele>267.0</ele><time>2026-04-06T07:32:33.999Z</time></trkpt><trkpt lat="44.84937931773356" lon="9.858641298395536"><ele>267.0</ele><time>2026-04-06T07:32:34.999Z</time></trkpt><trkpt lat="44.84936937972737" lon="9.858748819386152"><ele>266.3333333333333</ele><time>2026-04-06T07:32:35.999Z</time></trkpt><trkpt lat="44.84936288452576" lon="9.858854510095746"><ele>265.6666666666667</ele><time>2026-04-06T07:32:36.999Z</time></trkpt><trkpt lat="44.84935227538289" lon="9.858962818139938"><ele>265.0</ele><time>2026-04-06T07:32:37.999Z</time></trkpt><trkpt lat="44.849344568403" lon="9.85907609726309"><ele>264.33333333333337</ele><time>2026-04-06T07:32:38.999Z</time></trkpt><trkpt lat="44.849332853620425" lon="9.85918563974669"><ele>263.6666666666667</ele><time>2026-04-06T07:32:39.999Z</time></trkpt><trkpt lat="44.849312870998986" lon="9.859291468101745"><ele>263.0</ele><time>2026-04-06T07:32:40.999Z</time></trkpt><trkpt lat="44.84928467060479" lon="9.85939756655148"><ele>263.0</ele><time>2026-04-06T07:32:41.999Z</time></trkpt><trkpt lat="44.849247939710644" lon="9.859499427150189"><ele>263.0</ele><time>2026-04-06T07:32:42.999Z</time></trkpt><trkpt lat="44.84919902936605" lon="9.859594349279284"><ele>263.0</ele><time>2026-04-06T07:32:43.999Z</time></trkpt><trkpt lat="44.84913995267442" lon="9.859686377726634"><ele>263.0</ele><time>2026-04-06T07:32:44.999Z</time></trkpt><trkpt lat="44.84907448483579" lon="9.859768711103643"><ele>263.0</ele><time>2026-04-06T07:32:45.999Z</time></trkpt><trkpt lat="44.84899900819538" lon="9.859848667279456"><ele>263.0</ele><time>2026-04-06T07:32:46.999Z</time></trkpt><trkpt lat="44.8489198800179" lon="9.859926025011726"><ele>263.0</ele><time>2026-04-06T07:32:47.999Z</time></trkpt><trkpt lat="44.8488399501027" lon="9.860001378628942"><ele>263.0</ele><time>2026-04-06T07:32:48.999Z</time></trkpt><trkpt lat="44.84876260279771" lon="9.860069129003206"><ele>263.0</ele><time>2026-04-06T07:32:49.999Z</time></trkpt><trkpt lat="44.84869036531613" lon="9.860139088280194"><ele>263.0</ele><time>2026-04-06T07:32:50.999Z</time></trkpt><trkpt lat="44.84862784520955" lon="9.860216262510743"><ele>263.0</ele><time>2026-04-06T07:32:51.999Z</time></trkpt><trkpt lat="44.84857466001689" lon="9.860309237911126"><ele>263.0</ele><time>2026-04-06T07:32:52.999Z</time></trkpt><trkpt lat="44.84853003839352" lon="9.860412387833243"><ele>262.2</ele><time>2026-04-06T07:32:53.999Z</time></trkpt><trkpt lat="44.84849838931168" lon="9.860524416111787"><ele>261.4</ele><time>2026-04-06T07:32:54.999Z</time></trkpt><trkpt lat="44.84848277098429" lon="9.86064659512188"><ele>260.59999999999997</ele><time>2026-04-06T07:32:55.999Z</time></trkpt><trkpt lat="44.848481106267734" lon="9.860782105275536"><ele>259.8</ele><time>2026-04-06T07:32:56.999Z</time></trkpt><trkpt lat="44.84848638063537" lon="9.86092097508308"><ele>259.0</ele><time>2026-04-06T07:32:57.999Z</time></trkpt><trkpt lat="44.84849744832704" lon="9.861060388854401"><ele>255.6</ele><time>2026-04-06T07:32:58.999Z</time></trkpt><trkpt lat="44.84851278562364" lon="9.861185090533503"><ele>252.2</ele><time>2026-04-06T07:32:59.999Z</time></trkpt><trkpt lat="44.84853513923385" lon="9.861309183537562"><ele>248.79999999999998</ele><time>2026-04-06T07:33:00.999Z</time></trkpt><trkpt lat="44.848571345255436" lon="9.861445136634126"><ele>245.39999999999998</ele><time>2026-04-06T07:33:01.999Z</time></trkpt><trkpt lat="44.84861346757722" lon="9.861577225086863"><ele>242.0</ele><time>2026-04-06T07:33:02.999Z</time></trkpt><trkpt lat="44.84864682659733" lon="9.861711737815101"><ele>239.6</ele><time>2026-04-06T07:33:03.999Z</time></trkpt><trkpt lat="44.848679546521446" lon="9.86184667110387"><ele>237.2</ele><time>2026-04-06T07:33:04.999Z</time></trkpt><trkpt lat="44.848723393662226" lon="9.86198397721236"><ele>234.8</ele><time>2026-04-06T07:33:05.999Z</time></trkpt><trkpt lat="44.84877027893948" lon="9.862107240539478"><ele>232.4</ele><time>2026-04-06T07:33:06.999Z</time></trkpt><trkpt lat="44.84880659054539" lon="9.86222582564242"><ele>230.0</ele><time>2026-04-06T07:33:07.999Z</time></trkpt><trkpt lat="44.84884855988408" lon="9.862378788156665"><ele>230.0</ele><time>2026-04-06T07:33:08.999Z</time></trkpt><trkpt lat="44.84889357275936" lon="9.86253198091442"><ele>230.0</ele><time>2026-04-06T07:33:09.999Z</time></trkpt><trkpt lat="44.848918504630674" lon="9.86268612423982"><ele>230.0</ele><time>2026-04-06T07:33:10.999Z</time></trkpt><trkpt lat="44.8489641443045" lon="9.862810940859775"><ele>230.0</ele><time>2026-04-06T07:33:11.999Z</time></trkpt><trkpt lat="44.848993493139844" lon="9.862935307663461"><ele>230.0</ele><time>2026-04-06T07:33:12.999Z</time></trkpt><trkpt lat="44.84901991997783" lon="9.863044541901031"><ele>227.8</ele><time>2026-04-06T07:33:13.999Z</time></trkpt><trkpt lat="44.84904000376778" lon="9.863143985180109"><ele>225.6</ele><time>2026-04-06T07:33:14.999Z</time></trkpt><trkpt lat="44.84907517821843" lon="9.86329417705095"><ele>223.39999999999998</ele><time>2026-04-06T07:33:16.999Z</time></trkpt><trkpt lat="44.849093970977485" lon="9.863414954294589"><ele>221.2</ele><time>2026-04-06T07:33:18.999Z</time></trkpt><trkpt lat="44.84922790856289" lon="9.863354454849961"><ele>219.0</ele><time>2026-04-06T07:33:19.999Z</time></trkpt><trkpt lat="44.84928543379969" lon="9.863314179302247"><ele>219.79999999999998</ele><time>2026-04-06T07:33:20.999Z</time></trkpt><trkpt lat="44.849377968014586" lon="9.863232717099883"><ele>220.59999999999997</ele><time>2026-04-06T07:33:22.999Z</time></trkpt><trkpt lat="44.849471151950354" lon="9.86315579942118"><ele>221.4</ele><time>2026-04-06T07:33:24.999Z</time></trkpt><trkpt lat="44.849555063807856" lon="9.863062984533501"><ele>222.2</ele><time>2026-04-06T07:33:26.998Z</time></trkpt><trkpt lat="44.8496364777255" lon="9.862959483789483"><ele>223.0</ele><time>2026-04-06T07:33:28.998Z</time></trkpt><trkpt lat="44.84972419230326" lon="9.862848531553817"><ele>223.0</ele><time>2026-04-06T07:33:30.998Z</time></trkpt><trkpt lat="44.84976692727151" lon="9.862778965199276"><ele>223.0</ele><time>2026-04-06T07:33:31.998Z</time></trkpt><trkpt lat="44.84979768747106" lon="9.862698962755971"><ele>223.0</ele><time>2026-04-06T07:33:32.998Z</time></trkpt><trkpt lat="44.84983027445034" lon="9.862618053282315"><ele>223.0</ele><time>2026-04-06T07:33:33.998Z</time></trkpt><trkpt lat="44.84985843901178" lon="9.862522626468033"><ele>223.0</ele><time>2026-04-06T07:33:34.998Z</time></trkpt><trkpt lat="44.84989123374334" lon="9.862420266983605"><ele>223.0</ele><time>2026-04-06T07:33:35.998Z</time></trkpt><trkpt lat="44.84993266918364" lon="9.8623235892595"><ele>223.0</ele><time>2026-04-06T07:33:36.998Z</time></trkpt><trkpt lat="44.849968953487874" lon="9.862221197526978"><ele>222.33333333333331</ele><time>2026-04-06T07:33:37.998Z</time></trkpt><trkpt lat="44.85000279818732" lon="9.86212188577988"><ele>221.66666666666666</ele><time>2026-04-06T07:33:38.998Z</time></trkpt><trkpt lat="44.85004721148283" lon="9.86203290248679"><ele>221.0</ele><time>2026-04-06T07:33:39.998Z</time></trkpt><trkpt lat="44.850100046908736" lon="9.861948707486237"><ele>220.33333333333331</ele><time>2026-04-06T07:33:40.998Z</time></trkpt><trkpt lat="44.850160924840225" lon="9.861882594937562"><ele>219.66666666666666</ele><time>2026-04-06T07:33:41.998Z</time></trkpt><trkpt lat="44.85022881015651" lon="9.861853989022036"><ele>219.0</ele><time>2026-04-06T07:33:42.998Z</time></trkpt><trkpt lat="44.850302104208076" lon="9.861874821333023"><ele>219.0</ele><time>2026-04-06T07:33:44Z</time></trkpt><trkpt lat="44.850366778180884" lon="9.861927172923389"><ele>219.0</ele><time>2026-04-06T07:33:45Z</time></trkpt><trkpt lat="44.85040243156422" lon="9.862012849144094"><ele>219.0</ele><time>2026-04-06T07:33:46Z</time></trkpt><trkpt lat="44.85041057671793" lon="9.862118622887724"><ele>219.0</ele><time>2026-04-06T07:33:47Z</time></trkpt><trkpt lat="44.850405122966386" lon="9.8622214531273"><ele>219.0</ele><time>2026-04-06T07:33:48Z</time></trkpt><trkpt lat="44.85040693734259" lon="9.862323393161637"><ele>219.0</ele><time>2026-04-06T07:33:49Z</time></trkpt><trkpt lat="44.850420680757026" lon="9.862436699199263"><ele>219.0</ele><time>2026-04-06T07:33:50Z</time></trkpt><trkpt lat="44.850443283101455" lon="9.862548803334278"><ele>217.79999999999998</ele><time>2026-04-06T07:33:51Z</time></trkpt><trkpt lat="44.850490641525546" lon="9.862654647278355"><ele>216.59999999999997</ele><time>2026-04-06T07:33:52Z</time></trkpt><trkpt lat="44.85055206118925" lon="9.862747664148015"><ele>215.4</ele><time>2026-04-06T07:33:53Z</time></trkpt><trkpt lat="44.85061016616299" lon="9.862850469484528"><ele>214.2</ele><time>2026-04-06T07:33:54Z</time></trkpt><trkpt lat="44.85067130583398" lon="9.86296529670959"><ele>213.0</ele><time>2026-04-06T07:33:55Z</time></trkpt><trkpt lat="44.85073150789009" lon="9.863078184403202"><ele>213.0</ele><time>2026-04-06T07:33:56Z</time></trkpt><trkpt lat="44.850782016432326" lon="9.863189204236871"><ele>213.0</ele><time>2026-04-06T07:33:57Z</time></trkpt><trkpt lat="44.85084384001466" lon="9.86331163026457"><ele>213.0</ele><time>2026-04-06T07:33:58Z</time></trkpt><trkpt lat="44.850902547206815" lon="9.863437207997908"><ele>213.0</ele><time>2026-04-06T07:33:59Z</time></trkpt><trkpt lat="44.850949435820205" lon="9.8635675995997"><ele>213.0</ele><time>2026-04-06T07:34:00Z</time></trkpt><trkpt lat="44.85098453556985" lon="9.863702549596749"><ele>213.4</ele><time>2026-04-06T07:34:01Z</time></trkpt><trkpt lat="44.85101220833541" lon="9.863839962220819"><ele>213.8</ele><time>2026-04-06T07:34:02Z</time></trkpt><trkpt lat="44.85103236721046" lon="9.86397740857309"><ele>214.2</ele><time>2026-04-06T07:34:03Z</time></trkpt><trkpt lat="44.85105278121659" lon="9.864126425501416"><ele>214.6</ele><time>2026-04-06T07:34:04Z</time></trkpt><trkpt lat="44.85106777434424" lon="9.864265981601081"><ele>215.0</ele><time>2026-04-06T07:34:05Z</time></trkpt><trkpt lat="44.85108345632603" lon="9.864408585648725"><ele>212.0</ele><time>2026-04-06T07:34:06Z</time></trkpt><trkpt lat="44.8510982526219" lon="9.864551708579711"><ele>209.0</ele><time>2026-04-06T07:34:07Z</time></trkpt><trkpt lat="44.85112547913253" lon="9.864694502499777"><ele>206.0</ele><time>2026-04-06T07:34:08Z</time></trkpt><trkpt lat="44.85117183792194" lon="9.864821553515416"><ele>203.0</ele><time>2026-04-06T07:34:09Z</time></trkpt><trkpt lat="44.85123528059945" lon="9.864955350587145"><ele>200.0</ele><time>2026-04-06T07:34:10Z</time></trkpt><trkpt lat="44.85130967508582" lon="9.86509144636179"><ele>199.25</ele><time>2026-04-06T07:34:11Z</time></trkpt><trkpt lat="44.8513895416193" lon="9.865237515349403"><ele>198.5</ele><time>2026-04-06T07:34:12Z</time></trkpt><trkpt lat="44.85147402145995" lon="9.865373065701858"><ele>197.75</ele><time>2026-04-06T07:34:13Z</time></trkpt><trkpt lat="44.851549030970254" lon="9.865513473685361"><ele>197.0</ele><time>2026-04-06T07:34:14Z</time></trkpt><trkpt lat="44.851637738137974" lon="9.865653224324529"><ele>197.0</ele><time>2026-04-06T07:34:15Z</time></trkpt><trkpt lat="44.85174604173113" lon="9.865764449105292"><ele>197.0</ele><time>2026-04-06T07:34:16Z</time></trkpt><trkpt lat="44.8518676389285" lon="9.865837856601381"><ele>197.0</ele><time>2026-04-06T07:34:17Z</time></trkpt><trkpt lat="44.85199570215199" lon="9.865890306831949"><ele>197.0</ele><time>2026-04-06T07:34:18Z</time></trkpt><trkpt lat="44.85212283229763" lon="9.86593622526702"><ele>194.75</ele><time>2026-04-06T07:34:19Z</time></trkpt><trkpt lat="44.8522418777535" lon="9.86599845452933"><ele>192.5</ele><time>2026-04-06T07:34:20Z</time></trkpt><trkpt lat="44.852355268393794" lon="9.866088607055499"><ele>190.25</ele><time>2026-04-06T07:34:21Z</time></trkpt><trkpt lat="44.85245380469802" lon="9.866225619649487"><ele>188.0</ele><time>2026-04-06T07:34:22Z</time></trkpt><trkpt lat="44.85253011848228" lon="9.866351528594665"><ele>188.0</ele><time>2026-04-06T07:34:23Z</time></trkpt><trkpt lat="44.85260002977484" lon="9.866489673609255"><ele>188.0</ele><time>2026-04-06T07:34:24Z</time></trkpt><trkpt lat="44.8526797098913" lon="9.866619902762421"><ele>188.0</ele><time>2026-04-06T07:34:25Z</time></trkpt><trkpt lat="44.852749222495675" lon="9.866737615561112"><ele>188.0</ele><time>2026-04-06T07:34:26Z</time></trkpt><trkpt lat="44.852827629756426" lon="9.866850627594085"><ele>185.8</ele><time>2026-04-06T07:34:27Z</time></trkpt><trkpt lat="44.85289985310874" lon="9.866965453622973"><ele>183.60000000000002</ele><time>2026-04-06T07:34:28Z</time></trkpt><trkpt lat="44.85297723807386" lon="9.867084084150578"><ele>181.39999999999998</ele><time>2026-04-06T07:34:29Z</time></trkpt><trkpt lat="44.85304420597621" lon="9.867200871129103"><ele>179.2</ele><time>2026-04-06T07:34:30Z</time></trkpt><trkpt lat="44.85311283805023" lon="9.867316046761733"><ele>177.0</ele><time>2026-04-06T07:34:31Z</time></trkpt><trkpt lat="44.85317573231607" lon="9.867418473500695"><ele>177.0</ele><time>2026-04-06T07:34:32Z</time></trkpt><trkpt lat="44.85323852368798" lon="9.867510082651672"><ele>177.0</ele><time>2026-04-06T07:34:33Z</time></trkpt><trkpt lat="44.853303221487366" lon="9.867607422814807"><ele>177.0</ele><time>2026-04-06T07:34:33.999Z</time></trkpt><trkpt lat="44.853370945118265" lon="9.867709112946637"><ele>177.0</ele><time>2026-04-06T07:34:34.999Z</time></trkpt><trkpt lat="44.85343500637324" lon="9.86781253979455"><ele>177.0</ele><time>2026-04-06T07:34:35.999Z</time></trkpt><trkpt lat="44.85350710051478" lon="9.867910450092136"><ele>176.39999999999998</ele><time>2026-04-06T07:34:36.999Z</time></trkpt><trkpt lat="44.85357978937412" lon="9.868011273742546"><ele>175.79999999999998</ele><time>2026-04-06T07:34:37.999Z</time></trkpt><trkpt lat="44.8536485268554" lon="9.868121127417812"><ele>175.2</ele><time>2026-04-06T07:34:38.999Z</time></trkpt><trkpt lat="44.85371966942359" lon="9.86822483848282"><ele>174.6</ele><time>2026-04-06T07:34:39.999Z</time></trkpt><trkpt lat="44.85378246245901" lon="9.868341945242387"><ele>174.0</ele><time>2026-04-06T07:34:40.999Z</time></trkpt><trkpt lat="44.853848550031636" lon="9.86844568832363"><ele>173.33333333333334</ele><time>2026-04-06T07:34:41.999Z</time></trkpt><trkpt lat="44.853903928293896" lon="9.868542728896346"><ele>172.66666666666666</ele><time>2026-04-06T07:34:42.999Z</time></trkpt><trkpt lat="44.85396012616911" lon="9.868641983713392"><ele>172.0</ele><time>2026-04-06T07:34:43.999Z</time></trkpt><trkpt lat="44.85402120892946" lon="9.868740540743154"><ele>171.33333333333331</ele><time>2026-04-06T07:34:44.999Z</time></trkpt><trkpt lat="44.85408290296322" lon="9.868820510980475"><ele>170.66666666666666</ele><time>2026-04-06T07:34:45.999Z</time></trkpt><trkpt lat="44.854156694795925" lon="9.868879590001756"><ele>170.0</ele><time>2026-04-06T07:34:46.999Z</time></trkpt><trkpt lat="44.85423812413802" lon="9.868926036585007"><ele>170.33333333333331</ele><time>2026-04-06T07:34:47.999Z</time></trkpt><trkpt lat="44.85431462067706" lon="9.868975580199953"><ele>170.66666666666666</ele><time>2026-04-06T07:34:48.999Z</time></trkpt><trkpt lat="44.85437784637879" lon="9.869045359093963"><ele>171.0</ele><time>2026-04-06T07:34:49.999Z</time></trkpt><trkpt lat="44.85443900201155" lon="9.869113375015857"><ele>171.33333333333334</ele><time>2026-04-06T07:34:50.999Z</time></trkpt><trkpt lat="44.8545091867607" lon="9.8691956057646"><ele>171.66666666666669</ele><time>2026-04-06T07:34:52.999Z</time></trkpt><trkpt lat="44.85450866815828" lon="9.869299291586595"><ele>172.0</ele><time>2026-04-06T07:34:54.999Z</time></trkpt><trkpt lat="44.854461803614335" lon="9.8693789170144"><ele>171.0</ele><time>2026-04-06T07:34:56.999Z</time></trkpt><trkpt lat="44.854381733386674" lon="9.869475579548903"><ele>170.0</ele><time>2026-04-06T07:34:58.999Z</time></trkpt><trkpt lat="44.85430779505093" lon="9.869573371649782"><ele>169.0</ele><time>2026-04-06T07:35:00.999Z</time></trkpt><trkpt lat="44.85421344770323" lon="9.869677207434547"><ele>168.0</ele><time>2026-04-06T07:35:02.999Z</time></trkpt><trkpt lat="44.854109408755306" lon="9.869759971798954"><ele>167.0</ele><time>2026-04-06T07:35:04.999Z</time></trkpt><trkpt lat="44.8539915906343" lon="9.869793094360755"><ele>166.5</ele><time>2026-04-06T07:35:06.999Z</time></trkpt><trkpt lat="44.85387598250132" lon="9.869831128847931"><ele>166.0</ele><time>2026-04-06T07:35:08.999Z</time></trkpt><trkpt lat="44.85381422804714" lon="9.86986194921617"><ele>165.5</ele><time>2026-04-06T07:35:09.999Z</time></trkpt><trkpt lat="44.8537551770234" lon="9.869899826928672"><ele>165.0</ele><time>2026-04-06T07:35:10.999Z</time></trkpt><trkpt lat="44.85369818308327" lon="9.869947493599929"><ele>164.5</ele><time>2026-04-06T07:35:11.999Z</time></trkpt><trkpt lat="44.853642012577126" lon="9.870005336675622"><ele>164.0</ele><time>2026-04-06T07:35:12.999Z</time></trkpt><trkpt lat="44.85359853598643" lon="9.870084082828695"><ele>163.7142857142857</ele><time>2026-04-06T07:35:13.999Z</time></trkpt><trkpt lat="44.85355298256463" lon="9.870162453742154"><ele>163.42857142857142</ele><time>2026-04-06T07:35:14.999Z</time></trkpt><trkpt lat="44.85351217699091" lon="9.870240531375067"><ele>163.14285714285714</ele><time>2026-04-06T07:35:15.999Z</time></trkpt><trkpt lat="44.85346540174624" lon="9.87030736318462"><ele>162.85714285714283</ele><time>2026-04-06T07:35:16.999Z</time></trkpt><trkpt lat="44.85341746449685" lon="9.870442224159493"><ele>162.57142857142856</ele><time>2026-04-06T07:35:18.999Z</time></trkpt><trkpt lat="44.85337014265542" lon="9.870506613678288"><ele>162.28571428571428</ele><time>2026-04-06T07:35:20.999Z</time></trkpt><trkpt lat="44.85330831623738" lon="9.870461957728649"><ele>162.0</ele><time>2026-04-06T07:35:22.999Z</time></trkpt><trkpt lat="44.8532417159083" lon="9.870385116277594"><ele>162.0</ele><time>2026-04-06T07:35:25.999Z</time></trkpt><trkpt lat="44.853193629872244" lon="9.870307120359996"><ele>162.0</ele><time>2026-04-06T07:35:28.999Z</time></trkpt><trkpt lat="44.85315001447186" lon="9.870241690496272"><ele>162.0</ele><time>2026-04-06T07:35:30.999Z</time></trkpt><trkpt lat="44.8530875136285" lon="9.870172958586682"><ele>162.0</ele><time>2026-04-06T07:35:33.998Z</time></trkpt><trkpt lat="44.853037311137754" lon="9.870089842378782"><ele>162.0</ele><time>2026-04-06T07:35:36.998Z</time></trkpt><trkpt lat="44.85297004889885" lon="9.87007451414522"><ele>162.0</ele><time>2026-04-06T07:35:38.998Z</time></trkpt><trkpt lat="44.85289252032309" lon="9.870074592964633"><ele>162.0</ele><time>2026-04-06T07:35:42.998Z</time></trkpt><trkpt lat="44.8528207982658" lon="9.8700371579823"><ele>162.0</ele><time>2026-04-06T07:35:46.998Z</time></trkpt><trkpt lat="44.8527784479613" lon="9.870120874317697"><ele>162.0</ele><time>2026-04-06T07:35:50Z</time></trkpt><trkpt lat="44.85276500524268" lon="9.870246972932899"><ele>162.0</ele><time>2026-04-06T07:35:53Z</time></trkpt><trkpt lat="44.85277940307796" lon="9.870344518369278"><ele>162.0</ele><time>2026-04-06T07:35:55Z</time></trkpt><trkpt lat="44.85279500631511" lon="9.870437314096948"><ele>162.0</ele><time>2026-04-06T07:35:57Z</time></trkpt><trkpt lat="44.852793328033606" lon="9.870559159203548"><ele>162.0</ele><time>2026-04-06T07:35:59Z</time></trkpt><trkpt lat="44.85276863584178" lon="9.87068867376415"><ele>162.0</ele><time>2026-04-06T07:36:01Z</time></trkpt><trkpt lat="44.85274165092453" lon="9.870778319150379"><ele>162.0</ele><time>2026-04-06T07:36:03Z</time></trkpt><trkpt lat="44.852706086869524" lon="9.870899358171105"><ele>162.0</ele><time>2026-04-06T07:36:06Z</time></trkpt><trkpt lat="44.852691460636734" lon="9.870987644209677"><ele>162.0</ele><time>2026-04-06T07:36:09Z</time></trkpt><trkpt lat="44.85269599340983" lon="9.871076738643088"><ele>162.0</ele><time>2026-04-06T07:36:13Z</time></trkpt><trkpt lat="44.85273403952166" lon="9.871154229412168"><ele>162.0</ele><time>2026-04-06T07:36:41.999Z</time></trkpt><trkpt lat="44.85277981118456" lon="9.87121704556366"><ele>162.0</ele><time>2026-04-06T07:36:49.999Z</time></trkpt><trkpt lat="44.85284573738646" lon="9.871261013206478"><ele>161.57142857142858</ele><time>2026-04-06T07:36:53.999Z</time></trkpt><trkpt lat="44.85290453817233" lon="9.871294995202737"><ele>161.14285714285714</ele><time>2026-04-06T07:36:56.999Z</time></trkpt><trkpt lat="44.85297778196485" lon="9.87135257523275"><ele>160.71428571428572</ele><time>2026-04-06T07:37:00.999Z</time></trkpt><trkpt lat="44.853041171264636" lon="9.871375145545821"><ele>160.28571428571428</ele><time>2026-04-06T07:37:03.999Z</time></trkpt><trkpt lat="44.8531225217799" lon="9.871306200597678"><ele>159.85714285714286</ele><time>2026-04-06T07:40:00.998Z</time></trkpt><trkpt lat="44.853192522818574" lon="9.871292715466621"><ele>159.42857142857142</ele><time>2026-04-06T07:40:19Z</time></trkpt><trkpt lat="44.8532190151271" lon="9.871202204314052"><ele>159.0</ele><time>2026-04-06T07:41:19.999Z</time></trkpt><trkpt lat="44.853277055022886" lon="9.871128064836258"><ele>159.0</ele><time>2026-04-06T07:41:23.999Z</time></trkpt><trkpt lat="44.85320634109434" lon="9.871236838795989"><ele>159.0</ele><time>2026-04-06T07:43:05.999Z</time></trkpt><trkpt lat="44.85313025790898" lon="9.871237780787842"><ele>159.0</ele><time>2026-04-06T07:43:53.998Z</time></trkpt><trkpt lat="44.85306172810849" lon="9.87132357557344"><ele>159.0</ele><time>2026-04-06T07:47:33.999Z</time></trkpt><trkpt lat="44.85311852033417" lon="9.871378007678993"><ele>159.0</ele><time>2026-04-06T07:47:42.999Z</time></trkpt><trkpt lat="44.85317754690985" lon="9.87144509578051"><ele>159.0</ele><time>2026-04-06T07:47:45.999Z</time></trkpt><trkpt lat="44.85315755310302" lon="9.871573713130132"><ele>159.0</ele><time>2026-04-06T07:47:48.999Z</time></trkpt><trkpt lat="44.8531386592557" lon="9.871661972035911"><ele>159.0</ele><time>2026-04-06T07:47:50.999Z</time></trkpt><trkpt lat="44.8531232918316" lon="9.871750156533464"><ele>159.0</ele><time>2026-04-06T07:47:52.999Z</time></trkpt><trkpt lat="44.853100392894014" lon="9.871854728662424"><ele>159.0</ele><time>2026-04-06T07:48:58Z</time></trkpt><trkpt lat="44.85307470864633" lon="9.871964825564262"><ele>159.0</ele><time>2026-04-06T07:49:03Z</time></trkpt><trkpt lat="44.85305234907514" lon="9.872087128583129"><ele>159.0</ele><time>2026-04-06T07:49:06Z</time></trkpt><trkpt lat="44.85302810551926" lon="9.872185535607523"><ele>158.6</ele><time>2026-04-06T07:49:07.999Z</time></trkpt><trkpt lat="44.85301030431691" lon="9.87230043171582"><ele>158.2</ele><time>2026-04-06T07:49:09.999Z</time></trkpt><trkpt lat="44.85299215985326" lon="9.872430112577918"><ele>157.79999999999998</ele><time>2026-04-06T07:49:11.999Z</time></trkpt><trkpt lat="44.852969025982105" lon="9.872553286539572"><ele>157.4</ele><time>2026-04-06T07:49:13.999Z</time></trkpt><trkpt lat="44.85294325855233" lon="9.872686697372393"><ele>157.0</ele><time>2026-04-06T07:49:15.999Z</time></trkpt><trkpt lat="44.852917391490315" lon="9.872825428683289"><ele>156.79999999999998</ele><time>2026-04-06T07:49:17.999Z</time></trkpt><trkpt lat="44.85288856295146" lon="9.87295173907796"><ele>156.6</ele><time>2026-04-06T07:49:19.999Z</time></trkpt><trkpt lat="44.85287386436084" lon="9.873090867105546"><ele>156.39999999999998</ele><time>2026-04-06T07:49:21.999Z</time></trkpt><trkpt lat="44.852852458293874" lon="9.873227402696326"><ele>156.2</ele><time>2026-04-06T07:49:23.999Z</time></trkpt><trkpt lat="44.85277538359665" lon="9.873291104484592"><ele>156.0</ele><time>2026-04-06T07:49:25.999Z</time></trkpt><trkpt lat="44.852682159342756" lon="9.873255714082854"><ele>156.8</ele><time>2026-04-06T07:49:27.999Z</time></trkpt><trkpt lat="44.852590444059274" lon="9.873283326348814"><ele>157.6</ele><time>2026-04-06T07:49:29.999Z</time></trkpt><trkpt lat="44.8525148243427" lon="9.873370851969918"><ele>158.4</ele><time>2026-04-06T07:49:31.999Z</time></trkpt><trkpt lat="44.852451149609465" lon="9.87346530407861"><ele>159.2</ele><time>2026-04-06T07:49:33.999Z</time></trkpt><trkpt lat="44.852377304137434" lon="9.873555382084442"><ele>160.0</ele><time>2026-04-06T07:49:35.999Z</time></trkpt><trkpt lat="44.852316028502834" lon="9.873656265467117"><ele>161.0</ele><time>2026-04-06T07:49:37.999Z</time></trkpt><trkpt lat="44.852244878523315" lon="9.873750664889544"><ele>162.0</ele><time>2026-04-06T07:49:39.999Z</time></trkpt><trkpt lat="44.852178284712714" lon="9.873838576673744"><ele>163.0</ele><time>2026-04-06T07:49:41.999Z</time></trkpt><trkpt lat="44.852109968844154" lon="9.873931235782278"><ele>164.0</ele><time>2026-04-06T07:49:43.999Z</time></trkpt><trkpt lat="44.85204743605357" lon="9.874023360855395"><ele>165.0</ele><time>2026-04-06T07:49:45.999Z</time></trkpt><trkpt lat="44.851986937055244" lon="9.874110280799139"><ele>165.0</ele><time>2026-04-06T07:49:47.999Z</time></trkpt><trkpt lat="44.85192029913288" lon="9.874195784109636"><ele>165.0</ele><time>2026-04-06T07:49:49.999Z</time></trkpt><trkpt lat="44.8518540494028" lon="9.874300155622183"><ele>165.0</ele><time>2026-04-06T07:49:51.999Z</time></trkpt><trkpt lat="44.85178624893421" lon="9.874398320450512"><ele>165.0</ele><time>2026-04-06T07:49:53.999Z</time></trkpt><trkpt lat="44.8517215481095" lon="9.874498266669919"><ele>165.0</ele><time>2026-04-06T07:49:55.999Z</time></trkpt><trkpt lat="44.85165296934141" lon="9.874598161280257"><ele>165.2</ele><time>2026-04-06T07:49:57.999Z</time></trkpt><trkpt lat="44.85158842527669" lon="9.874706276005714"><ele>165.4</ele><time>2026-04-06T07:49:59.998Z</time></trkpt><trkpt lat="44.85151214446189" lon="9.874801783546463"><ele>165.60000000000002</ele><time>2026-04-06T07:50:01.998Z</time></trkpt><trkpt lat="44.85144958476881" lon="9.874898743742436"><ele>165.8</ele><time>2026-04-06T07:50:03.998Z</time></trkpt><trkpt lat="44.8513813771896" lon="9.874999656696152"><ele>166.0</ele><time>2026-04-06T07:50:05.998Z</time></trkpt><trkpt lat="44.85131567029078" lon="9.875097384921304"><ele>166.4</ele><time>2026-04-06T07:50:07.998Z</time></trkpt><trkpt lat="44.85124526742313" lon="9.875188938990854"><ele>166.8</ele><time>2026-04-06T07:50:09.998Z</time></trkpt><trkpt lat="44.85119144462769" lon="9.875301173645822"><ele>167.20000000000002</ele><time>2026-04-06T07:50:11.998Z</time></trkpt><trkpt lat="44.85111020423852" lon="9.875380200313757"><ele>167.60000000000002</ele><time>2026-04-06T07:50:13.998Z</time></trkpt><trkpt lat="44.851044837432624" lon="9.87547693182928"><ele>168.0</ele><time>2026-04-06T07:50:15.998Z</time></trkpt><trkpt lat="44.850974473165635" lon="9.875570221272998"><ele>168.33333333333334</ele><time>2026-04-06T07:50:17.998Z</time></trkpt><trkpt lat="44.850904284383226" lon="9.875657098212688"><ele>168.66666666666666</ele><time>2026-04-06T07:50:19.998Z</time></trkpt><trkpt lat="44.85083207161013" lon="9.87572838324284"><ele>169.0</ele><time>2026-04-06T07:50:21.998Z</time></trkpt><trkpt lat="44.85076189135472" lon="9.875782049418268"><ele>169.33333333333331</ele><time>2026-04-06T07:50:23.998Z</time></trkpt><trkpt lat="44.85068982803098" lon="9.875830426729786"><ele>169.66666666666666</ele><time>2026-04-06T07:50:25.998Z</time></trkpt><trkpt lat="44.85061589713947" lon="9.875885356418696"><ele>170.0</ele><time>2026-04-06T07:50:27.998Z</time></trkpt><trkpt lat="44.85054974720988" lon="9.875953727819647"><ele>170.33333333333331</ele><time>2026-04-06T07:50:29.998Z</time></trkpt><trkpt lat="44.85048678310992" lon="9.876009974259173"><ele>170.66666666666666</ele><time>2026-04-06T07:50:32Z</time></trkpt><trkpt lat="44.850420237023954" lon="9.876066084755742"><ele>171.0</ele><time>2026-04-06T07:50:34Z</time></trkpt><trkpt lat="44.85035265833347" lon="9.876122910073446"><ele>171.33333333333334</ele><time>2026-04-06T07:50:36Z</time></trkpt><trkpt lat="44.85029044967685" lon="9.876189579392896"><ele>171.66666666666669</ele><time>2026-04-06T07:50:38Z</time></trkpt><trkpt lat="44.85022931710495" lon="9.87624505378041"><ele>172.0</ele><time>2026-04-06T07:50:40Z</time></trkpt><trkpt lat="44.850166151718426" lon="9.876304165509179"><ele>172.42857142857144</ele><time>2026-04-06T07:50:42Z</time></trkpt><trkpt lat="44.850108378714346" lon="9.876359109152924"><ele>172.85714285714286</ele><time>2026-04-06T07:50:44Z</time></trkpt><trkpt lat="44.85004887376514" lon="9.87641388318655"><ele>173.28571428571428</ele><time>2026-04-06T07:50:46Z</time></trkpt><trkpt lat="44.849990265628385" lon="9.876470121697796"><ele>173.71428571428572</ele><time>2026-04-06T07:50:48Z</time></trkpt><trkpt lat="44.84993232504285" lon="9.876526034631048"><ele>174.14285714285714</ele><time>2026-04-06T07:50:50Z</time></trkpt><trkpt lat="44.84987577391577" lon="9.876582898554842"><ele>174.57142857142858</ele><time>2026-04-06T07:50:52Z</time></trkpt><trkpt lat="44.84981667504397" lon="9.876637966903772"><ele>175.0</ele><time>2026-04-06T07:50:54Z</time></trkpt><trkpt lat="44.84976004635986" lon="9.876691430320953"><ele>175.0</ele><time>2026-04-06T07:50:56Z</time></trkpt><trkpt lat="44.849700114832316" lon="9.876747984801781"><ele>175.0</ele><time>2026-04-06T07:50:59Z</time></trkpt><trkpt lat="44.84962213208563" lon="9.876823405172791"><ele>175.0</ele><time>2026-04-06T07:51:02Z</time></trkpt><trkpt lat="44.849557151489684" lon="9.876930662340712"><ele>175.0</ele><time>2026-04-06T07:51:04Z</time></trkpt><trkpt lat="44.8494993572476" lon="9.876984868319955"><ele>175.0</ele><time>2026-04-06T07:51:06Z</time></trkpt><trkpt lat="44.84944288701468" lon="9.877039904345082"><ele>175.0</ele><time>2026-04-06T07:51:08Z</time></trkpt><trkpt lat="44.84938688336526" lon="9.877088476617459"><ele>176.57142857142858</ele><time>2026-04-06T07:51:09.999Z</time></trkpt><trkpt lat="44.84933108670178" lon="9.87714035536644"><ele>178.14285714285714</ele><time>2026-04-06T07:51:11.999Z</time></trkpt><trkpt lat="44.849272612872824" lon="9.877189591749895"><ele>179.71428571428572</ele><time>2026-04-06T07:51:13.999Z</time></trkpt><trkpt lat="44.849215247403166" lon="9.877237013162741"><ele>181.28571428571428</ele><time>2026-04-06T07:51:15.999Z</time></trkpt><trkpt lat="44.84914895683699" lon="9.877276549517227"><ele>182.85714285714286</ele><time>2026-04-06T07:51:17.999Z</time></trkpt><trkpt lat="44.84908008881937" lon="9.877304349399619"><ele>184.42857142857144</ele><time>2026-04-06T07:51:19.999Z</time></trkpt><trkpt lat="44.849010134457174" lon="9.877319613137333"><ele>186.0</ele><time>2026-04-06T07:51:21.999Z</time></trkpt><trkpt lat="44.848946263893616" lon="9.877315342539461"><ele>186.83333333333334</ele><time>2026-04-06T07:51:22.999Z</time></trkpt><trkpt lat="44.848880917783234" lon="9.877302201571368"><ele>187.66666666666666</ele><time>2026-04-06T07:51:25.999Z</time></trkpt><trkpt lat="44.84878815482882" lon="9.87729560243778"><ele>188.5</ele><time>2026-04-06T07:51:28.999Z</time></trkpt><trkpt lat="44.84869994856198" lon="9.877283518935036"><ele>189.33333333333331</ele><time>2026-04-06T07:51:31.999Z</time></trkpt><trkpt lat="44.848605815885485" lon="9.877288067562148"><ele>190.16666666666666</ele><time>2026-04-06T07:51:34.999Z</time></trkpt><trkpt lat="44.84853962172458" lon="9.87729315152471"><ele>191.0</ele><time>2026-04-06T07:51:36.999Z</time></trkpt><trkpt lat="44.84844450103439" lon="9.877305679515917"><ele>191.0</ele><time>2026-04-06T07:51:39.999Z</time></trkpt><trkpt lat="44.84835438395839" lon="9.87734609411208"><ele>191.0</ele><time>2026-04-06T07:51:42.999Z</time></trkpt><trkpt lat="44.8482962865341" lon="9.877384717808214"><ele>191.0</ele><time>2026-04-06T07:51:44.999Z</time></trkpt><trkpt lat="44.8482407345663" lon="9.87747444219864"><ele>191.0</ele><time>2026-04-06T07:51:48.999Z</time></trkpt><trkpt lat="44.84818232853923" lon="9.87753505026366"><ele>191.0</ele><time>2026-04-06T07:51:50.999Z</time></trkpt><trkpt lat="44.84813603403804" lon="9.87759938866908"><ele>191.0</ele><time>2026-04-06T07:51:52.999Z</time></trkpt><trkpt lat="44.84808090829764" lon="9.877666896227755"><ele>193.16666666666666</ele><time>2026-04-06T07:51:54.999Z</time></trkpt><trkpt lat="44.848022608642346" lon="9.877720432395536"><ele>195.33333333333331</ele><time>2026-04-06T07:51:56.999Z</time></trkpt><trkpt lat="44.84796686795395" lon="9.877766111858863"><ele>197.5</ele><time>2026-04-06T07:51:58.999Z</time></trkpt><trkpt lat="44.84789977473819" lon="9.877796393710039"><ele>199.66666666666666</ele><time>2026-04-06T07:52:00.999Z</time></trkpt><trkpt lat="44.84780660152545" lon="9.877784534006253"><ele>201.83333333333334</ele><time>2026-04-06T07:52:02.998Z</time></trkpt><trkpt lat="44.84773041063126" lon="9.877738478842577"><ele>204.0</ele><time>2026-04-06T07:52:04.998Z</time></trkpt><trkpt lat="44.84766743817136" lon="9.877659475207405"><ele>202.66666666666666</ele><time>2026-04-06T07:52:07.998Z</time></trkpt><trkpt lat="44.847626891714555" lon="9.87757044757304"><ele>201.33333333333331</ele><time>2026-04-06T07:52:10.998Z</time></trkpt><trkpt lat="44.84754854297976" lon="9.877485679740118"><ele>200.0</ele><time>2026-04-06T07:52:13.998Z</time></trkpt><trkpt lat="44.847484996865134" lon="9.877431585343693"><ele>198.66666666666666</ele><time>2026-04-06T07:52:15.998Z</time></trkpt><trkpt lat="44.84741937155771" lon="9.877406883987938"><ele>197.33333333333331</ele><time>2026-04-06T07:52:17.998Z</time></trkpt><trkpt lat="44.84735472609256" lon="9.877416773088324"><ele>196.0</ele><time>2026-04-06T07:52:19.998Z</time></trkpt><trkpt lat="44.847293952437454" lon="9.877486755999312"><ele>195.99999999999997</ele><time>2026-04-06T07:52:22.998Z</time></trkpt><trkpt lat="44.84727646770528" lon="9.877595381480786"><ele>196.0</ele><time>2026-04-06T07:52:25.998Z</time></trkpt><trkpt lat="44.847297712958365" lon="9.877712780434356"><ele>196.0</ele><time>2026-04-06T07:52:28.998Z</time></trkpt><trkpt lat="44.84734130352731" lon="9.877825438438672"><ele>196.0</ele><time>2026-04-06T07:52:31.998Z</time></trkpt><trkpt lat="44.84738826280851" lon="9.877932994396074"><ele>195.99999999999997</ele><time>2026-04-06T07:52:34.998Z</time></trkpt><trkpt lat="44.84743218175696" lon="9.87803692762604"><ele>196.0</ele><time>2026-04-06T07:52:38Z</time></trkpt><trkpt lat="44.84747967931929" lon="9.878146115389233"><ele>197.57142857142858</ele><time>2026-04-06T07:52:41Z</time></trkpt><trkpt lat="44.84752962244142" lon="9.87825266380135"><ele>199.14285714285714</ele><time>2026-04-06T07:52:44Z</time></trkpt><trkpt lat="44.847580904896994" lon="9.878359056105058"><ele>200.71428571428572</ele><time>2026-04-06T07:52:47Z</time></trkpt><trkpt lat="44.847615362379756" lon="9.878433579747998"><ele>202.28571428571428</ele><time>2026-04-06T07:52:49Z</time></trkpt><trkpt lat="44.847650630914174" lon="9.878507692610503"><ele>203.85714285714286</ele><time>2026-04-06T07:52:51Z</time></trkpt><trkpt lat="44.847685805439966" lon="9.878586283881527"><ele>205.42857142857144</ele><time>2026-04-06T07:52:53Z</time></trkpt><trkpt lat="44.84772565502179" lon="9.878670200008164"><ele>207.0</ele><time>2026-04-06T07:52:56Z</time></trkpt><trkpt lat="44.84772256444811" lon="9.87880397423267"><ele>208.14285714285717</ele><time>2026-04-06T07:52:59Z</time></trkpt><trkpt lat="44.84768930735239" lon="9.878908970170025"><ele>209.28571428571428</ele><time>2026-04-06T07:53:02Z</time></trkpt><trkpt lat="44.84762298426566" lon="9.878909547735972"><ele>210.42857142857144</ele><time>2026-04-06T07:53:06Z</time></trkpt><trkpt lat="44.8475611869418" lon="9.87886870371123"><ele>211.57142857142858</ele><time>2026-04-06T07:53:08Z</time></trkpt><trkpt lat="44.84749240465478" lon="9.878837337586422"><ele>212.71428571428572</ele><time>2026-04-06T07:53:10Z</time></trkpt><trkpt lat="44.84743725447043" lon="9.878790055415065"><ele>213.85714285714286</ele><time>2026-04-06T07:53:12Z</time></trkpt><trkpt lat="44.84735790146593" lon="9.878724451892882"><ele>215.0</ele><time>2026-04-06T07:53:14.999Z</time></trkpt><trkpt lat="44.847278237457246" lon="9.878663863108684"><ele>215.33333333333334</ele><time>2026-04-06T07:53:17.999Z</time></trkpt><trkpt lat="44.84721899496837" lon="9.878622376123907"><ele>215.66666666666669</ele><time>2026-04-06T07:53:19.999Z</time></trkpt><trkpt lat="44.847146628222006" lon="9.878571431403811"><ele>216.0</ele><time>2026-04-06T07:53:22.999Z</time></trkpt><trkpt lat="44.8470904364863" lon="9.878523980350284"><ele>216.33333333333331</ele><time>2026-04-06T07:53:24.999Z</time></trkpt><trkpt lat="44.84701064085583" lon="9.878467666066744"><ele>216.66666666666666</ele><time>2026-04-06T07:53:27.999Z</time></trkpt><trkpt lat="44.84694607045936" lon="9.878418739031973"><ele>217.0</ele><time>2026-04-06T07:53:29.999Z</time></trkpt><trkpt lat="44.84686934424333" lon="9.87835884395905"><ele>217.49999999999997</ele><time>2026-04-06T07:53:32.999Z</time></trkpt><trkpt lat="44.84678703296184" lon="9.878297330028762"><ele>218.0</ele><time>2026-04-06T07:53:35.999Z</time></trkpt><trkpt lat="44.84670612634868" lon="9.87823659828155"><ele>218.5</ele><time>2026-04-06T07:53:38.999Z</time></trkpt><trkpt lat="44.84661947301353" lon="9.87817294699552"><ele>219.0</ele><time>2026-04-06T07:53:41.999Z</time></trkpt><trkpt lat="44.846547549190454" lon="9.87812542537006"><ele>219.49999999999997</ele><time>2026-04-06T07:53:43.999Z</time></trkpt><trkpt lat="44.84648572407678" lon="9.878086927638464"><ele>220.0</ele><time>2026-04-06T07:53:45.999Z</time></trkpt><trkpt lat="44.8464247731275" lon="9.878045378566643"><ele>219.99999999999997</ele><time>2026-04-06T07:53:47.999Z</time></trkpt><trkpt lat="44.846366503774505" lon="9.878009679092"><ele>220.0</ele><time>2026-04-06T07:53:49.999Z</time></trkpt><trkpt lat="44.846301102562215" lon="9.877976772036341"><ele>220.0</ele><time>2026-04-06T07:53:51.999Z</time></trkpt><trkpt lat="44.846214934137386" lon="9.877937408251213"><ele>220.0</ele><time>2026-04-06T07:53:54.999Z</time></trkpt><trkpt lat="44.84613374580241" lon="9.877903508084971"><ele>219.99999999999997</ele><time>2026-04-06T07:53:57.999Z</time></trkpt><trkpt lat="44.84604392982842" lon="9.877867307117397"><ele>220.0</ele><time>2026-04-06T07:54:00.999Z</time></trkpt><trkpt lat="44.84594435708445" lon="9.877835431071244"><ele>221.99999999999997</ele><time>2026-04-06T07:54:03.999Z</time></trkpt><trkpt lat="44.84585927177427" lon="9.877805826852049"><ele>224.0</ele><time>2026-04-06T07:54:06.998Z</time></trkpt><trkpt lat="44.845776639204026" lon="9.877772262519766"><ele>226.0</ele><time>2026-04-06T07:54:09.998Z</time></trkpt><trkpt lat="44.84569502579308" lon="9.877730121209423"><ele>228.0</ele><time>2026-04-06T07:54:12.998Z</time></trkpt><trkpt lat="44.84561417213545" lon="9.877692048499974"><ele>229.99999999999997</ele><time>2026-04-06T07:54:15.998Z</time></trkpt><trkpt lat="44.84553461215331" lon="9.87765655908461"><ele>232.0</ele><time>2026-04-06T07:54:18.998Z</time></trkpt><trkpt lat="44.845454755440706" lon="9.877623741522758"><ele>231.99999999999997</ele><time>2026-04-06T07:54:21.998Z</time></trkpt><trkpt lat="44.84536913406161" lon="9.87760702329902"><ele>232.0</ele><time>2026-04-06T07:54:24.998Z</time></trkpt><trkpt lat="44.84528880663856" lon="9.877633608969074"><ele>232.0</ele><time>2026-04-06T07:54:27.998Z</time></trkpt><trkpt lat="44.84523727395838" lon="9.877724094179472"><ele>232.0</ele><time>2026-04-06T07:54:30.998Z</time></trkpt><trkpt lat="44.8452356774463" lon="9.877835672477765"><ele>231.99999999999997</ele><time>2026-04-06T07:54:33.998Z</time></trkpt><trkpt lat="44.84528128876732" lon="9.877921628705879"><ele>232.0</ele><time>2026-04-06T07:54:36.998Z</time></trkpt><trkpt lat="44.84533973026601" lon="9.877982724884161"><ele>231.99999999999997</ele><time>2026-04-06T07:54:39.998Z</time></trkpt><trkpt lat="44.84541152385997" lon="9.87804325749856"><ele>232.0</ele><time>2026-04-06T07:54:43Z</time></trkpt><trkpt lat="44.84547356769731" lon="9.87812739339224"><ele>232.0</ele><time>2026-04-06T07:54:46Z</time></trkpt><trkpt lat="44.84551597244674" lon="9.878256699692237"><ele>232.0</ele><time>2026-04-06T07:54:48Z</time></trkpt><trkpt lat="44.84546784861539" lon="9.87835906868464"><ele>231.99999999999997</ele><time>2026-04-06T07:54:51Z</time></trkpt><trkpt lat="44.84539374320975" lon="9.878374742072666"><ele>232.0</ele><time>2026-04-06T07:54:54Z</time></trkpt><trkpt lat="44.84531849986857" lon="9.878352329906875"><ele>231.99999999999997</ele><time>2026-04-06T07:54:57Z</time></trkpt><trkpt lat="44.84524127246954" lon="9.87830788037042"><ele>232.0</ele><time>2026-04-06T07:55:00Z</time></trkpt><trkpt lat="44.845175829163615" lon="9.878263091873267"><ele>232.0</ele><time>2026-04-06T07:55:02Z</time></trkpt><trkpt lat="44.845108984419504" lon="9.878217955921468"><ele>232.0</ele><time>2026-04-06T07:55:05Z</time></trkpt><trkpt lat="44.84505171728777" lon="9.878180016825375"><ele>231.99999999999997</ele><time>2026-04-06T07:55:07Z</time></trkpt><trkpt lat="44.84498531164715" lon="9.87811437773334"><ele>232.0</ele><time>2026-04-06T07:55:10Z</time></trkpt><trkpt lat="44.8449237328134" lon="9.878017389521023"><ele>232.16666666666666</ele><time>2026-04-06T07:55:13Z</time></trkpt><trkpt lat="44.84488313992382" lon="9.877929608816213"><ele>232.33333333333331</ele><time>2026-04-06T07:55:14.999Z</time></trkpt><trkpt lat="44.844838848128184" lon="9.87782121726966"><ele>232.5</ele><time>2026-04-06T07:55:17.999Z</time></trkpt><trkpt lat="44.844794676321364" lon="9.877721208566477"><ele>232.66666666666669</ele><time>2026-04-06T07:55:20.999Z</time></trkpt><trkpt lat="44.84475471708109" lon="9.877629532266884"><ele>232.83333333333334</ele><time>2026-04-06T07:55:23.999Z</time></trkpt><trkpt lat="44.844690517452925" lon="9.877519303425762"><ele>233.0</ele><time>2026-04-06T07:55:26.999Z</time></trkpt><trkpt lat="44.84460673701484" lon="9.877441679151207"><ele>233.00000000000003</ele><time>2026-04-06T07:55:29.999Z</time></trkpt><trkpt lat="44.844507752448116" lon="9.877398285127091"><ele>233.0</ele><time>2026-04-06T07:55:32.999Z</time></trkpt><trkpt lat="44.844447153741164" lon="9.87737299351027"><ele>233.0</ele><time>2026-04-06T07:55:34.999Z</time></trkpt><trkpt lat="44.844382226491305" lon="9.877344338556776"><ele>233.0</ele><time>2026-04-06T07:55:36.999Z</time></trkpt><trkpt lat="44.844307773659686" lon="9.877316291801405"><ele>233.00000000000003</ele><time>2026-04-06T07:55:38.999Z</time></trkpt><trkpt lat="44.84424264220386" lon="9.877285792613186"><ele>233.0</ele><time>2026-04-06T07:55:40.999Z</time></trkpt><trkpt lat="44.8441781014836" lon="9.877251520308432"><ele>235.66666666666669</ele><time>2026-04-06T07:55:42.999Z</time></trkpt><trkpt lat="44.84411217733842" lon="9.87721061750417"><ele>238.33333333333334</ele><time>2026-04-06T07:55:44.999Z</time></trkpt><trkpt lat="44.84405070465126" lon="9.877166841143257"><ele>241.0</ele><time>2026-04-06T07:55:46.999Z</time></trkpt><trkpt lat="44.84398164780833" lon="9.877120142037246"><ele>243.66666666666669</ele><time>2026-04-06T07:55:48.999Z</time></trkpt><trkpt lat="44.84391247375944" lon="9.877078439425446"><ele>246.33333333333334</ele><time>2026-04-06T07:55:50.999Z</time></trkpt><trkpt lat="44.84382727941814" lon="9.877016870829577"><ele>249.0</ele><time>2026-04-06T07:55:53.999Z</time></trkpt><trkpt lat="44.84374685725612" lon="9.876976959476949"><ele>249.0</ele><time>2026-04-06T07:55:56.999Z</time></trkpt><trkpt lat="44.84368952415379" lon="9.876935353537693"><ele>248.99999999999997</ele><time>2026-04-06T07:55:58.999Z</time></trkpt><trkpt lat="44.84362736213149" lon="9.87689933278905"><ele>249.0</ele><time>2026-04-06T07:56:00.999Z</time></trkpt><trkpt lat="44.84356966837182" lon="9.876859092923699"><ele>249.0</ele><time>2026-04-06T07:56:02.999Z</time></trkpt><trkpt lat="44.84350871148331" lon="9.876824986381845"><ele>248.99999999999997</ele><time>2026-04-06T07:56:04.999Z</time></trkpt><trkpt lat="44.843447457282046" lon="9.876791452600065"><ele>249.0</ele><time>2026-04-06T07:56:06.998Z</time></trkpt><trkpt lat="44.843385568229515" lon="9.876758619160972"><ele>249.0</ele><time>2026-04-06T07:56:08.998Z</time></trkpt><trkpt lat="44.843309144921" lon="9.876717573219148"><ele>249.6</ele><time>2026-04-06T07:56:11.998Z</time></trkpt><trkpt lat="44.84319806675973" lon="9.876655019038273"><ele>250.2</ele><time>2026-04-06T07:56:14.998Z</time></trkpt><trkpt lat="44.84312027247309" lon="9.87661409261823"><ele>250.79999999999998</ele><time>2026-04-06T07:56:17.998Z</time></trkpt><trkpt lat="44.84301637711146" lon="9.876564615932802"><ele>251.39999999999998</ele><time>2026-04-06T07:56:20.998Z</time></trkpt><trkpt lat="44.8429359737522" lon="9.876526256491513"><ele>252.0</ele><time>2026-04-06T07:56:23.998Z</time></trkpt><trkpt lat="44.84287218586874" lon="9.876494834545719"><ele>252.0</ele><time>2026-04-06T07:56:25.998Z</time></trkpt><trkpt lat="44.842782245007406" lon="9.876447808968317"><ele>252.0</ele><time>2026-04-06T07:56:28.998Z</time></trkpt><trkpt lat="44.84271020202423" lon="9.876412727455532"><ele>252.0</ele><time>2026-04-06T07:56:30.998Z</time></trkpt><trkpt lat="44.842629433965115" lon="9.876359532911449"><ele>252.0</ele><time>2026-04-06T07:56:32.998Z</time></trkpt><trkpt lat="44.84256523236075" lon="9.876327146803641"><ele>252.0</ele><time>2026-04-06T07:56:34.998Z</time></trkpt><trkpt lat="44.842499160742975" lon="9.87630071982374"><ele>252.0</ele><time>2026-04-06T07:56:36.998Z</time></trkpt><trkpt lat="44.842434810145335" lon="9.876270147596351"><ele>253.28571428571428</ele><time>2026-04-06T07:56:38.998Z</time></trkpt><trkpt lat="44.842374398792714" lon="9.876236759386682"><ele>254.57142857142856</ele><time>2026-04-06T07:56:40.998Z</time></trkpt><trkpt lat="44.84231542074169" lon="9.876203493741334"><ele>255.85714285714286</ele><time>2026-04-06T07:56:42.998Z</time></trkpt><trkpt lat="44.84225269398504" lon="9.876173758046097"><ele>257.1428571428571</ele><time>2026-04-06T07:56:44.998Z</time></trkpt><trkpt lat="44.84218499890162" lon="9.87614647916114"><ele>258.42857142857144</ele><time>2026-04-06T07:56:47Z</time></trkpt><trkpt lat="44.842106201418716" lon="9.876119949668865"><ele>259.7142857142857</ele><time>2026-04-06T07:56:49Z</time></trkpt><trkpt lat="44.842035785399794" lon="9.876087231806407"><ele>261.0</ele><time>2026-04-06T07:56:51Z</time></trkpt><trkpt lat="44.84194990557235" lon="9.876044475758999"><ele>261.0</ele><time>2026-04-06T07:56:53Z</time></trkpt><trkpt lat="44.841863492301236" lon="9.87602083651036"><ele>261.0</ele><time>2026-04-06T07:56:56Z</time></trkpt><trkpt lat="44.84179746071475" lon="9.876004931471321"><ele>261.0</ele><time>2026-04-06T07:56:58Z</time></trkpt><trkpt lat="44.841717539886844" lon="9.876003806739591"><ele>261.0</ele><time>2026-04-06T07:57:01Z</time></trkpt><trkpt lat="44.84165074376954" lon="9.87600968872119"><ele>261.0</ele><time>2026-04-06T07:57:03Z</time></trkpt><trkpt lat="44.84158425055912" lon="9.876020751811083"><ele>261.0</ele><time>2026-04-06T07:57:05Z</time></trkpt><trkpt lat="44.841487597766196" lon="9.876039371116113"><ele>259.5</ele><time>2026-04-06T07:57:08Z</time></trkpt><trkpt lat="44.841406357812936" lon="9.876051823300797"><ele>258.0</ele><time>2026-04-06T07:57:10Z</time></trkpt><trkpt lat="44.84133834733787" lon="9.876063355429947"><ele>256.5</ele><time>2026-04-06T07:57:12Z</time></trkpt><trkpt lat="44.84127035614857" lon="9.876072681674026"><ele>255.0</ele><time>2026-04-06T07:57:14Z</time></trkpt><trkpt lat="44.84113277016811" lon="9.876062985122207"><ele>253.5</ele><time>2026-04-06T07:57:16Z</time></trkpt><trkpt lat="44.84106036744119" lon="9.876023336277372"><ele>252.0</ele><time>2026-04-06T07:57:17.999Z</time></trkpt><trkpt lat="44.84099291949175" lon="9.87597071109266"><ele>255.0</ele><time>2026-04-06T07:57:19.999Z</time></trkpt><trkpt lat="44.840934713030094" lon="9.875900888319746"><ele>258.0</ele><time>2026-04-06T07:57:21.999Z</time></trkpt><trkpt lat="44.84087848381896" lon="9.875829943504375"><ele>261.0</ele><time>2026-04-06T07:57:23.999Z</time></trkpt><trkpt lat="44.840822037166745" lon="9.875757423768249"><ele>264.0</ele><time>2026-04-06T07:57:25.999Z</time></trkpt><trkpt lat="44.840765284883574" lon="9.875686232843737"><ele>267.0</ele><time>2026-04-06T07:57:27.999Z</time></trkpt><trkpt lat="44.84071113826582" lon="9.875616518839161"><ele>270.0</ele><time>2026-04-06T07:57:29.999Z</time></trkpt><trkpt lat="44.84066275636542" lon="9.875537400180852"><ele>270.0</ele><time>2026-04-06T07:57:31.999Z</time></trkpt><trkpt lat="44.840628505853765" lon="9.875441492411342"><ele>270.0</ele><time>2026-04-06T07:57:33.999Z</time></trkpt><trkpt lat="44.84057778495476" lon="9.875331967167176"><ele>270.0</ele><time>2026-04-06T07:57:35.999Z</time></trkpt><trkpt lat="44.84054918019256" lon="9.875206841790417"><ele>270.0</ele><time>2026-04-06T07:57:38.999Z</time></trkpt><trkpt lat="44.84052372070055" lon="9.875104008459127"><ele>270.0</ele><time>2026-04-06T07:57:40.999Z</time></trkpt><trkpt lat="44.84048121870129" lon="9.875024154662674"><ele>270.0</ele><time>2026-04-06T07:57:42.999Z</time></trkpt><trkpt lat="44.840417933969064" lon="9.874961429733501"><ele>271.2857142857143</ele><time>2026-04-06T07:57:44.999Z</time></trkpt><trkpt lat="44.84034731007437" lon="9.874918580919685"><ele>272.57142857142856</ele><time>2026-04-06T07:57:46.999Z</time></trkpt><trkpt lat="44.8402796620804" lon="9.87488416970153"><ele>273.85714285714283</ele><time>2026-04-06T07:57:48.999Z</time></trkpt><trkpt lat="44.840210534928005" lon="9.874851529508158"><ele>275.1428571428571</ele><time>2026-04-06T07:57:50.999Z</time></trkpt><trkpt lat="44.84013972650631" lon="9.874815209818378"><ele>276.42857142857144</ele><time>2026-04-06T07:57:52.999Z</time></trkpt><trkpt lat="44.840068068833745" lon="9.874788164195104"><ele>277.71428571428567</ele><time>2026-04-06T07:57:54.999Z</time></trkpt><trkpt lat="44.83999766756744" lon="9.874757705645553"><ele>279.0</ele><time>2026-04-06T07:57:56.999Z</time></trkpt><trkpt lat="44.839928854879886" lon="9.87472118293022"><ele>279.0</ele><time>2026-04-06T07:57:58.999Z</time></trkpt><trkpt lat="44.83986330899036" lon="9.874685421661734"><ele>279.0</ele><time>2026-04-06T07:58:00.999Z</time></trkpt><trkpt lat="44.83979611482303" lon="9.874647551608222"><ele>279.0</ele><time>2026-04-06T07:58:02.999Z</time></trkpt><trkpt lat="44.83972436403153" lon="9.874605202472774"><ele>279.0</ele><time>2026-04-06T07:58:04.999Z</time></trkpt><trkpt lat="44.83965784460402" lon="9.87455709277447"><ele>279.0</ele><time>2026-04-06T07:58:06.999Z</time></trkpt><trkpt lat="44.83959186343112" lon="9.87449538509811"><ele>279.0</ele><time>2026-04-06T07:58:08.998Z</time></trkpt><trkpt lat="44.83951958466192" lon="9.874409223628104"><ele>279.0</ele><time>2026-04-06T07:58:10.998Z</time></trkpt><trkpt lat="44.83946317729381" lon="9.874326985538227"><ele>279.0</ele><time>2026-04-06T07:58:12.998Z</time></trkpt><trkpt lat="44.83941683822412" lon="9.87422804204315"><ele>279.0</ele><time>2026-04-06T07:58:14.998Z</time></trkpt><trkpt lat="44.839373568611215" lon="9.874132048612246"><ele>279.0</ele><time>2026-04-06T07:58:16.998Z</time></trkpt><trkpt lat="44.83930338243576" lon="9.874033719682656"><ele>279.0</ele><time>2026-04-06T07:58:19.998Z</time></trkpt><trkpt lat="44.83922919775027" lon="9.873988324606682"><ele>279.0</ele><time>2026-04-06T07:58:21.998Z</time></trkpt><trkpt lat="44.8391480348448" lon="9.873989299922842"><ele>279.2</ele><time>2026-04-06T07:58:23.998Z</time></trkpt><trkpt lat="44.83906391798512" lon="9.874020415527248"><ele>279.4</ele><time>2026-04-06T07:58:25.998Z</time></trkpt><trkpt lat="44.838975826482525" lon="9.874069953154644"><ele>279.6</ele><time>2026-04-06T07:58:27.998Z</time></trkpt><trkpt lat="44.83888861790583" lon="9.874127162502715"><ele>279.8</ele><time>2026-04-06T07:58:29.998Z</time></trkpt><trkpt lat="44.83881440327451" lon="9.874163923137868"><ele>280.0</ele><time>2026-04-06T07:58:30.998Z</time></trkpt><trkpt lat="44.83870402367365" lon="9.874217816287159"><ele>280.0</ele><time>2026-04-06T07:58:32.998Z</time></trkpt><trkpt lat="44.83858280004734" lon="9.874242475472768"><ele>280.0</ele><time>2026-04-06T07:58:34.998Z</time></trkpt><trkpt lat="44.838519057308744" lon="9.874241066620382"><ele>280.0</ele><time>2026-04-06T07:58:35.998Z</time></trkpt><trkpt lat="44.83839466917487" lon="9.874223851419305"><ele>280.0</ele><time>2026-04-06T07:58:37.998Z</time></trkpt><trkpt lat="44.838328967969574" lon="9.874212142123623"><ele>280.0</ele><time>2026-04-06T07:58:38.998Z</time></trkpt><trkpt lat="44.83826146661356" lon="9.874201056007072"><ele>280.0</ele><time>2026-04-06T07:58:39.998Z</time></trkpt><trkpt lat="44.838195796774" lon="9.874188370182383"><ele>279.0</ele><time>2026-04-06T07:58:40.998Z</time></trkpt><trkpt lat="44.8380696758713" lon="9.874163878533077"><ele>278.0</ele><time>2026-04-06T07:58:42.998Z</time></trkpt><trkpt lat="44.83800479555698" lon="9.87415283730502"><ele>277.0</ele><time>2026-04-06T07:58:43.998Z</time></trkpt><trkpt lat="44.83794161293865" lon="9.874142213268929"><ele>276.0</ele><time>2026-04-06T07:58:44.998Z</time></trkpt><trkpt lat="44.83781682695746" lon="9.874134594203046"><ele>275.0</ele><time>2026-04-06T07:58:46.998Z</time></trkpt><trkpt lat="44.8376960316158" lon="9.874134411506015"><ele>274.5</ele><time>2026-04-06T07:58:48.998Z</time></trkpt><trkpt lat="44.83757256599958" lon="9.874150052949583"><ele>274.0</ele><time>2026-04-06T07:58:50.998Z</time></trkpt><trkpt lat="44.83745216980561" lon="9.874169558160656"><ele>273.5</ele><time>2026-04-06T07:58:53Z</time></trkpt><trkpt lat="44.83733191757095" lon="9.87416969838292"><ele>273.0</ele><time>2026-04-06T07:58:55Z</time></trkpt><trkpt lat="44.83721652412043" lon="9.874099436616632"><ele>273.0</ele><time>2026-04-06T07:58:57Z</time></trkpt><trkpt lat="44.83712380835016" lon="9.87400085788092"><ele>273.0</ele><time>2026-04-06T07:58:59Z</time></trkpt><trkpt lat="44.83704242067786" lon="9.873893520489633"><ele>273.0</ele><time>2026-04-06T07:59:01Z</time></trkpt><trkpt lat="44.8369468924062" lon="9.87382452246317"><ele>273.0</ele><time>2026-04-06T07:59:03Z</time></trkpt><trkpt lat="44.83684236695238" lon="9.87383768026464"><ele>273.0</ele><time>2026-04-06T07:59:05Z</time></trkpt><trkpt lat="44.83674187130408" lon="9.87390180076269"><ele>275.0</ele><time>2026-04-06T07:59:07Z</time></trkpt><trkpt lat="44.83664411179141" lon="9.87396560459736"><ele>277.0</ele><time>2026-04-06T07:59:09Z</time></trkpt><trkpt lat="44.83654732953701" lon="9.87402893387694"><ele>279.0</ele><time>2026-04-06T07:59:11Z</time></trkpt><trkpt lat="44.83645182557587" lon="9.874094303964993"><ele>281.0</ele><time>2026-04-06T07:59:13Z</time></trkpt><trkpt lat="44.83635872584737" lon="9.874156389258717"><ele>283.0</ele><time>2026-04-06T07:59:15Z</time></trkpt><trkpt lat="44.83625859797578" lon="9.87421936810705"><ele>281.8</ele><time>2026-04-06T07:59:17Z</time></trkpt><trkpt lat="44.83616458484263" lon="9.874277815400454"><ele>280.6</ele><time>2026-04-06T07:59:19Z</time></trkpt><trkpt lat="44.8360709829536" lon="9.874340079989913"><ele>279.4</ele><time>2026-04-06T07:59:20.999Z</time></trkpt><trkpt lat="44.83597632880448" lon="9.874407721775933"><ele>278.2</ele><time>2026-04-06T07:59:22.999Z</time></trkpt><trkpt lat="44.83588772793513" lon="9.874483907844846"><ele>277.0</ele><time>2026-04-06T07:59:24.999Z</time></trkpt><trkpt lat="44.83579746555111" lon="9.874564018385492"><ele>277.0</ele><time>2026-04-06T07:59:26.999Z</time></trkpt><trkpt lat="44.835707251203814" lon="9.874640343165638"><ele>277.0</ele><time>2026-04-06T07:59:28.999Z</time></trkpt><trkpt lat="44.83561918140249" lon="9.87471844530754"><ele>277.0</ele><time>2026-04-06T07:59:30.999Z</time></trkpt><trkpt lat="44.83553330032364" lon="9.874796845029838"><ele>277.0</ele><time>2026-04-06T07:59:32.999Z</time></trkpt><trkpt lat="44.83544331418078" lon="9.874874987744459"><ele>277.0</ele><time>2026-04-06T07:59:34.999Z</time></trkpt><trkpt lat="44.83535223720066" lon="9.874955677563396"><ele>277.0</ele><time>2026-04-06T07:59:36.999Z</time></trkpt><trkpt lat="44.83527084835766" lon="9.875043803653899"><ele>277.0</ele><time>2026-04-06T07:59:38.999Z</time></trkpt><trkpt lat="44.835194233417454" lon="9.875141762326573"><ele>277.0</ele><time>2026-04-06T07:59:40.999Z</time></trkpt><trkpt lat="44.835125217081824" lon="9.875248638002661"><ele>277.0</ele><time>2026-04-06T07:59:42.999Z</time></trkpt><trkpt lat="44.83506356185801" lon="9.875373907043413"><ele>277.0</ele><time>2026-04-06T07:59:44.999Z</time></trkpt><trkpt lat="44.835018279253795" lon="9.875511757390163"><ele>278.6</ele><time>2026-04-06T07:59:46.999Z</time></trkpt><trkpt lat="44.83497708099877" lon="9.875659287074466"><ele>280.2</ele><time>2026-04-06T07:59:48.999Z</time></trkpt><trkpt lat="44.83493936190195" lon="9.875800392207582"><ele>281.8</ele><time>2026-04-06T07:59:50.999Z</time></trkpt><trkpt lat="44.83490521195564" lon="9.87593878090794"><ele>283.4</ele><time>2026-04-06T07:59:52.999Z</time></trkpt><trkpt lat="44.834884473054515" lon="9.876075536222594"><ele>285.0</ele><time>2026-04-06T07:59:54.999Z</time></trkpt><trkpt lat="44.83487543965204" lon="9.876218687808787"><ele>285.0</ele><time>2026-04-06T07:59:56.999Z</time></trkpt><trkpt lat="44.83486631755111" lon="9.876365684081891"><ele>285.0</ele><time>2026-04-06T07:59:58.999Z</time></trkpt><trkpt lat="44.83486262788143" lon="9.876509705887747"><ele>285.0</ele><time>2026-04-06T08:00:00.999Z</time></trkpt><trkpt lat="44.83486666598714" lon="9.876653006181508"><ele>285.0</ele><time>2026-04-06T08:00:02.999Z</time></trkpt><trkpt lat="44.83487433218992" lon="9.876797813071951"><ele>285.0</ele><time>2026-04-06T08:00:04.999Z</time></trkpt><trkpt lat="44.834894603792264" lon="9.87694005537887"><ele>284.4</ele><time>2026-04-06T08:00:06.999Z</time></trkpt><trkpt lat="44.83492524581102" lon="9.877080232771592"><ele>283.8</ele><time>2026-04-06T08:00:08.999Z</time></trkpt><trkpt lat="44.834966858685554" lon="9.87721770898165"><ele>283.2</ele><time>2026-04-06T08:00:10.999Z</time></trkpt><trkpt lat="44.835011077703705" lon="9.877350858009345"><ele>282.6</ele><time>2026-04-06T08:00:12.998Z</time></trkpt><trkpt lat="44.83506176218914" lon="9.877491121094568"><ele>282.0</ele><time>2026-04-06T08:00:14.998Z</time></trkpt><trkpt lat="44.8351110158516" lon="9.87762862532671"><ele>282.0</ele><time>2026-04-06T08:00:16.998Z</time></trkpt><trkpt lat="44.835157068703296" lon="9.877763382463264"><ele>282.0</ele><time>2026-04-06T08:00:18.998Z</time></trkpt><trkpt lat="44.835199337594645" lon="9.877899062458827"><ele>282.0</ele><time>2026-04-06T08:00:20.998Z</time></trkpt><trkpt lat="44.83518366441011" lon="9.878035534728024"><ele>282.0</ele><time>2026-04-06T08:00:22.998Z</time></trkpt><trkpt lat="44.83509636610313" lon="9.87810353386216"><ele>282.0</ele><time>2026-04-06T08:00:24.998Z</time></trkpt><trkpt lat="44.83499212265558" lon="9.87806802993007"><ele>282.0</ele><time>2026-04-06T08:00:26.998Z</time></trkpt><trkpt lat="44.83489244667645" lon="9.878007891820346"><ele>282.0</ele><time>2026-04-06T08:00:28.998Z</time></trkpt><trkpt lat="44.83478443318703" lon="9.877948928180464"><ele>282.0</ele><time>2026-04-06T08:00:30.998Z</time></trkpt><trkpt lat="44.83467276443431" lon="9.877884774607313"><ele>282.0</ele><time>2026-04-06T08:00:32.998Z</time></trkpt><trkpt lat="44.834611930243796" lon="9.877853326280588"><ele>282.0</ele><time>2026-04-06T08:00:33.998Z</time></trkpt><trkpt lat="44.83455186061795" lon="9.877824641076975"><ele>282.0</ele><time>2026-04-06T08:00:34.998Z</time></trkpt><trkpt lat="44.834488788938636" lon="9.877798091980134"><ele>282.0</ele><time>2026-04-06T08:00:35.998Z</time></trkpt><trkpt lat="44.8344305970269" lon="9.877762623231389"><ele>282.0</ele><time>2026-04-06T08:00:36.998Z</time></trkpt><trkpt lat="44.83436485872988" lon="9.877747502401316"><ele>282.0</ele><time>2026-04-06T08:00:37.998Z</time></trkpt><trkpt lat="44.834302362993746" lon="9.877728130498431"><ele>282.0</ele><time>2026-04-06T08:00:38.998Z</time></trkpt><trkpt lat="44.83423635595066" lon="9.877713125865354"><ele>282.0</ele><time>2026-04-06T08:00:39.998Z</time></trkpt><trkpt lat="44.8341664202372" lon="9.877699355338553"><ele>282.0</ele><time>2026-04-06T08:00:40.998Z</time></trkpt><trkpt lat="44.834095701312236" lon="9.87769186251634"><ele>281.2857142857143</ele><time>2026-04-06T08:00:41.998Z</time></trkpt><trkpt lat="44.83402252833388" lon="9.877691037708791"><ele>280.57142857142856</ele><time>2026-04-06T08:00:42.998Z</time></trkpt><trkpt lat="44.833948879334905" lon="9.877696217460972"><ele>279.85714285714283</ele><time>2026-04-06T08:00:43.998Z</time></trkpt><trkpt lat="44.83387576729705" lon="9.87771787216366"><ele>279.1428571428571</ele><time>2026-04-06T08:00:44.998Z</time></trkpt><trkpt lat="44.83380402842703" lon="9.87774622012962"><ele>278.4285714285714</ele><time>2026-04-06T08:00:45.998Z</time></trkpt><trkpt lat="44.833731828707066" lon="9.877776445714488"><ele>277.7142857142857</ele><time>2026-04-06T08:00:46.998Z</time></trkpt><trkpt lat="44.83366161633611" lon="9.877815718234894"><ele>277.0</ele><time>2026-04-06T08:00:47.998Z</time></trkpt><trkpt lat="44.83359756158907" lon="9.877873378826918"><ele>277.0</ele><time>2026-04-06T08:00:48.998Z</time></trkpt><trkpt lat="44.833540765990875" lon="9.877949482007304"><ele>277.0</ele><time>2026-04-06T08:00:49.998Z</time></trkpt><trkpt lat="44.8334936581744" lon="9.878039032384361"><ele>277.0</ele><time>2026-04-06T08:00:50.998Z</time></trkpt><trkpt lat="44.83345823618261" lon="9.878134485995314"><ele>277.0</ele><time>2026-04-06T08:00:51.998Z</time></trkpt><trkpt lat="44.833430690168676" lon="9.878232174567508"><ele>277.0</ele><time>2026-04-06T08:00:52.998Z</time></trkpt><trkpt lat="44.8334093876656" lon="9.878325622655936"><ele>277.0</ele><time>2026-04-06T08:00:53.998Z</time></trkpt><trkpt lat="44.833392639797914" lon="9.87841407062547"><ele>277.0</ele><time>2026-04-06T08:00:54.998Z</time></trkpt><trkpt lat="44.833377459360975" lon="9.878500301365474"><ele>277.0</ele><time>2026-04-06T08:00:55.998Z</time></trkpt><trkpt lat="44.833346902838485" lon="9.87865105542631"><ele>277.0</ele><time>2026-04-06T08:00:58Z</time></trkpt><trkpt lat="44.83332916171648" lon="9.878765810358326"><ele>277.0</ele><time>2026-04-06T08:01:00Z</time></trkpt><trkpt lat="44.83332127317925" lon="9.878872044049565"><ele>277.0</ele><time>2026-04-06T08:01:04Z</time></trkpt><trkpt lat="44.83312966565645" lon="9.87894488653435"><ele>277.0</ele><time>2026-04-06T08:04:14.999Z</time></trkpt><trkpt lat="44.83303860447188" lon="9.879021757430532"><ele>277.0</ele><time>2026-04-06T08:04:16.999Z</time></trkpt><trkpt lat="44.83301304793719" lon="9.879193645984472"><ele>277.0</ele><time>2026-04-06T08:04:18.998Z</time></trkpt><trkpt lat="44.83304347940352" lon="9.879298369704717"><ele>277.0</ele><time>2026-04-06T08:04:19.998Z</time></trkpt><trkpt lat="44.833084464394176" lon="9.879403075977798"><ele>277.0</ele><time>2026-04-06T08:04:20.998Z</time></trkpt><trkpt lat="44.83310842853781" lon="9.8795191606126"><ele>276.16666666666663</ele><time>2026-04-06T08:04:21.998Z</time></trkpt><trkpt lat="44.83312249152406" lon="9.879637279171362"><ele>275.3333333333333</ele><time>2026-04-06T08:04:22.998Z</time></trkpt><trkpt lat="44.833112076258416" lon="9.879766979949549"><ele>274.5</ele><time>2026-04-06T08:04:23.998Z</time></trkpt><trkpt lat="44.83308926248624" lon="9.879888215869634"><ele>273.6666666666667</ele><time>2026-04-06T08:04:24.998Z</time></trkpt><trkpt lat="44.833082727491416" lon="9.880013236491127"><ele>272.83333333333337</ele><time>2026-04-06T08:04:25.998Z</time></trkpt><trkpt lat="44.83308439027167" lon="9.880136939808095"><ele>272.0</ele><time>2026-04-06T08:04:26.998Z</time></trkpt><trkpt lat="44.833092385788916" lon="9.880261944392524"><ele>271.33333333333337</ele><time>2026-04-06T08:04:27.998Z</time></trkpt><trkpt lat="44.833108673017556" lon="9.880386986393592"><ele>270.6666666666667</ele><time>2026-04-06T08:04:28.998Z</time></trkpt><trkpt lat="44.83314018232885" lon="9.880505274884722"><ele>270.0</ele><time>2026-04-06T08:04:29.998Z</time></trkpt><trkpt lat="44.83318511491957" lon="9.880615909789741"><ele>269.3333333333333</ele><time>2026-04-06T08:04:30.998Z</time></trkpt><trkpt lat="44.83322847762083" lon="9.880719125533762"><ele>268.66666666666663</ele><time>2026-04-06T08:04:31.998Z</time></trkpt><trkpt lat="44.8332705336218" lon="9.880804374280693"><ele>268.0</ele><time>2026-04-06T08:04:32.998Z</time></trkpt><trkpt lat="44.833312946781156" lon="9.880932717441613"><ele>268.0</ele><time>2026-04-06T08:04:34.998Z</time></trkpt><trkpt lat="44.83324180337881" lon="9.881008375748959"><ele>268.0</ele><time>2026-04-06T08:04:36.998Z</time></trkpt><trkpt lat="44.8331543038473" lon="9.880868076999956"><ele>268.0</ele><time>2026-04-06T08:04:38.998Z</time></trkpt><trkpt lat="44.833108078085466" lon="9.880790771270231"><ele>268.0</ele><time>2026-04-06T08:04:39.998Z</time></trkpt><trkpt lat="44.83305284619199" lon="9.880712722644288"><ele>268.0</ele><time>2026-04-06T08:04:40.998Z</time></trkpt><trkpt lat="44.832994095682515" lon="9.880628325790742"><ele>268.0</ele><time>2026-04-06T08:04:41.998Z</time></trkpt><trkpt lat="44.832945921245994" lon="9.880529667348503"><ele>268.0</ele><time>2026-04-06T08:04:42.998Z</time></trkpt><trkpt lat="44.832896027582024" lon="9.88043437295953"><ele>268.0</ele><time>2026-04-06T08:04:43.998Z</time></trkpt><trkpt lat="44.83285081398847" lon="9.880330917057627"><ele>268.0</ele><time>2026-04-06T08:04:44.998Z</time></trkpt><trkpt lat="44.832792196457895" lon="9.880231311536244"><ele>268.0</ele><time>2026-04-06T08:04:45.998Z</time></trkpt><trkpt lat="44.8327700528232" lon="9.880108418233956"><ele>268.0</ele><time>2026-04-06T08:04:46.998Z</time></trkpt><trkpt lat="44.83274054229587" lon="9.87999548526097"><ele>268.66666666666663</ele><time>2026-04-06T08:04:47.998Z</time></trkpt><trkpt lat="44.83270482556948" lon="9.879897786192185"><ele>269.3333333333333</ele><time>2026-04-06T08:04:48.998Z</time></trkpt><trkpt lat="44.8326396393409" lon="9.879829085033341"><ele>270.0</ele><time>2026-04-06T08:04:49.998Z</time></trkpt><trkpt lat="44.83254005814719" lon="9.879847582752172"><ele>270.6666666666667</ele><time>2026-04-06T08:04:50.998Z</time></trkpt><trkpt lat="44.83245116150667" lon="9.879878863636522"><ele>271.33333333333337</ele><time>2026-04-06T08:04:51.998Z</time></trkpt><trkpt lat="44.83235719035248" lon="9.879909368872989"><ele>272.0</ele><time>2026-04-06T08:04:52.998Z</time></trkpt><trkpt lat="44.83225610241938" lon="9.87993457521312"><ele>267.8</ele><time>2026-04-06T08:04:53.998Z</time></trkpt><trkpt lat="44.83215447786474" lon="9.87995029226867"><ele>263.6</ele><time>2026-04-06T08:04:54.998Z</time></trkpt><trkpt lat="44.83205568985953" lon="9.879933772047092"><ele>259.40000000000003</ele><time>2026-04-06T08:04:55.998Z</time></trkpt><trkpt lat="44.831957509902274" lon="9.879901901937506"><ele>255.20000000000002</ele><time>2026-04-06T08:04:56.998Z</time></trkpt><trkpt lat="44.83185799579268" lon="9.879847283428655"><ele>251.0</ele><time>2026-04-06T08:04:57.998Z</time></trkpt><trkpt lat="44.831749512125946" lon="9.879821778130529"><ele>247.60000000000002</ele><time>2026-04-06T08:04:58.998Z</time></trkpt><trkpt lat="44.83164180417108" lon="9.87977905323539"><ele>244.20000000000002</ele><time>2026-04-06T08:04:59.998Z</time></trkpt><trkpt lat="44.83153252102201" lon="9.8797401490431"><ele>240.79999999999998</ele><time>2026-04-06T08:05:00.998Z</time></trkpt><trkpt lat="44.83142692240153" lon="9.879689167723265"><ele>237.39999999999998</ele><time>2026-04-06T08:05:01.998Z</time></trkpt><trkpt lat="44.83132227955488" lon="9.879645050770971"><ele>234.0</ele><time>2026-04-06T08:05:02.998Z</time></trkpt><trkpt lat="44.83121829781114" lon="9.87961648785928"><ele>234.0</ele><time>2026-04-06T08:05:03.998Z</time></trkpt><trkpt lat="44.83111527261731" lon="9.879592323173851"><ele>233.99999999999997</ele><time>2026-04-06T08:05:04.998Z</time></trkpt><trkpt lat="44.83102021759281" lon="9.879538971981578"><ele>233.99999999999997</ele><time>2026-04-06T08:05:05.998Z</time></trkpt><trkpt lat="44.830931915745936" lon="9.879462549401051"><ele>234.0</ele><time>2026-04-06T08:05:06.998Z</time></trkpt><trkpt lat="44.830850880769546" lon="9.879378970686664"><ele>234.0</ele><time>2026-04-06T08:05:07.998Z</time></trkpt><trkpt lat="44.830807155714716" lon="9.879263657748043"><ele>232.66666666666666</ele><time>2026-04-06T08:05:09Z</time></trkpt><trkpt lat="44.830784693487416" lon="9.879155641914975"><ele>231.33333333333331</ele><time>2026-04-06T08:05:10Z</time></trkpt><trkpt lat="44.83078705336479" lon="9.879040096233203"><ele>230.0</ele><time>2026-04-06T08:05:11Z</time></trkpt><trkpt lat="44.83080260774878" lon="9.878928381761868"><ele>228.66666666666666</ele><time>2026-04-06T08:05:12Z</time></trkpt><trkpt lat="44.830811515253295" lon="9.878826899310184"><ele>227.33333333333331</ele><time>2026-04-06T08:05:13Z</time></trkpt><trkpt lat="44.830789852235" lon="9.878741344866878"><ele>226.0</ele><time>2026-04-06T08:05:14Z</time></trkpt><trkpt lat="44.830719520914315" lon="9.87870183676842"><ele>225.99999999999997</ele><time>2026-04-06T08:05:15Z</time></trkpt><trkpt lat="44.83064923927274" lon="9.87871490600639"><ele>226.0</ele><time>2026-04-06T08:05:16Z</time></trkpt><trkpt lat="44.8306044825172" lon="9.878852045330145"><ele>226.0</ele><time>2026-04-06T08:05:17Z</time></trkpt><trkpt lat="44.83059328257701" lon="9.878971069353488"><ele>226.0</ele><time>2026-04-06T08:05:18Z</time></trkpt><trkpt lat="44.83058805210364" lon="9.879097873303849"><ele>225.99999999999997</ele><time>2026-04-06T08:05:19Z</time></trkpt><trkpt lat="44.83057814763379" lon="9.879220381687556"><ele>226.0</ele><time>2026-04-06T08:05:20Z</time></trkpt><trkpt lat="44.83058448936316" lon="9.879336975732244"><ele>224.20000000000002</ele><time>2026-04-06T08:05:21Z</time></trkpt><trkpt lat="44.83058755910082" lon="9.87945411584156"><ele>222.40000000000003</ele><time>2026-04-06T08:05:22Z</time></trkpt><trkpt lat="44.830632386053786" lon="9.879539167721623"><ele>220.6</ele><time>2026-04-06T08:05:23Z</time></trkpt><trkpt lat="44.83062411516838" lon="9.879667164562923"><ele>218.8</ele><time>2026-04-06T08:05:25Z</time></trkpt><trkpt lat="44.8305118486466" lon="9.879696049194981"><ele>217.0</ele><time>2026-04-06T08:05:27Z</time></trkpt><trkpt lat="44.83046306576943" lon="9.879595682122746"><ele>216.99999999999997</ele><time>2026-04-06T08:05:28Z</time></trkpt><trkpt lat="44.83043152537191" lon="9.8795037090798"><ele>217.0</ele><time>2026-04-06T08:05:29Z</time></trkpt><trkpt lat="44.83039111487316" lon="9.879400240593808"><ele>217.0</ele><time>2026-04-06T08:05:30Z</time></trkpt><trkpt lat="44.83032411776378" lon="9.879315031594704"><ele>217.0</ele><time>2026-04-06T08:05:31Z</time></trkpt><trkpt lat="44.83025229845056" lon="9.879243618506596"><ele>216.99999999999997</ele><time>2026-04-06T08:05:31.999Z</time></trkpt><trkpt lat="44.830169359676866" lon="9.87919790744105"><ele>217.0</ele><time>2026-04-06T08:05:32.999Z</time></trkpt><trkpt lat="44.83009239946804" lon="9.879153756991663"><ele>218.49999999999997</ele><time>2026-04-06T08:05:33.999Z</time></trkpt><trkpt lat="44.830051719330264" lon="9.879053553833732"><ele>220.0</ele><time>2026-04-06T08:05:34.999Z</time></trkpt><trkpt lat="44.83002718170008" lon="9.878952335861944"><ele>221.5</ele><time>2026-04-06T08:05:35.999Z</time></trkpt><trkpt lat="44.83005661899725" lon="9.87884970975532"><ele>223.0</ele><time>2026-04-06T08:05:36.999Z</time></trkpt><trkpt lat="44.83008808735839" lon="9.878746595032872"><ele>224.49999999999997</ele><time>2026-04-06T08:05:37.999Z</time></trkpt><trkpt lat="44.830123279063606" lon="9.878642982102285"><ele>226.0</ele><time>2026-04-06T08:05:38.999Z</time></trkpt><trkpt lat="44.830162566247324" lon="9.878528003539875"><ele>225.49999999999997</ele><time>2026-04-06T08:05:39.999Z</time></trkpt><trkpt lat="44.830196203787864" lon="9.878421702669048"><ele>225.0</ele><time>2026-04-06T08:05:40.999Z</time></trkpt><trkpt lat="44.83022148379894" lon="9.878311306989941"><ele>224.5</ele><time>2026-04-06T08:05:41.999Z</time></trkpt><trkpt lat="44.8302043298061" lon="9.87818840614398"><ele>224.0</ele><time>2026-04-06T08:05:42.999Z</time></trkpt><trkpt lat="44.83014740088625" lon="9.878107039330883"><ele>223.49999999999997</ele><time>2026-04-06T08:05:43.999Z</time></trkpt><trkpt lat="44.83008312074395" lon="9.878061018600054"><ele>223.0</ele><time>2026-04-06T08:05:44.999Z</time></trkpt><trkpt lat="44.830016922890884" lon="9.878039152836891"><ele>220.2</ele><time>2026-04-06T08:05:45.999Z</time></trkpt><trkpt lat="44.829946654635535" lon="9.878111266045126"><ele>217.4</ele><time>2026-04-06T08:05:46.999Z</time></trkpt><trkpt lat="44.82989905667888" lon="9.87818051819321"><ele>214.6</ele><time>2026-04-06T08:05:47.999Z</time></trkpt><trkpt lat="44.82986087447031" lon="9.878253532530689"><ele>211.79999999999998</ele><time>2026-04-06T08:05:48.999Z</time></trkpt><trkpt lat="44.82978377302745" lon="9.878383946894322"><ele>209.0</ele><time>2026-04-06T08:05:50.999Z</time></trkpt><trkpt lat="44.82970955093764" lon="9.878511964173935"><ele>208.25</ele><time>2026-04-06T08:05:52.999Z</time></trkpt><trkpt lat="44.829628713622434" lon="9.878629710320963"><ele>207.5</ele><time>2026-04-06T08:05:54.999Z</time></trkpt><trkpt lat="44.82954049164918" lon="9.87874422259994"><ele>206.75</ele><time>2026-04-06T08:05:56.999Z</time></trkpt><trkpt lat="44.829461064011596" lon="9.878863562376681"><ele>206.0</ele><time>2026-04-06T08:05:58.999Z</time></trkpt><trkpt lat="44.82940501865183" lon="9.879003614820785"><ele>206.0</ele><time>2026-04-06T08:06:00.999Z</time></trkpt><trkpt lat="44.82936884317113" lon="9.87915233813111"><ele>206.0</ele><time>2026-04-06T08:06:02.999Z</time></trkpt><trkpt lat="44.8293345689188" lon="9.879288586600207"><ele>206.0</ele><time>2026-04-06T08:06:04.999Z</time></trkpt><trkpt lat="44.829275278810066" lon="9.879393191269386"><ele>206.0</ele><time>2026-04-06T08:06:06.999Z</time></trkpt><trkpt lat="44.82920363826021" lon="9.879490948116379"><ele>206.0</ele><time>2026-04-06T08:06:08.999Z</time></trkpt><trkpt lat="44.82913652043619" lon="9.879597286038187"><ele>205.25</ele><time>2026-04-06T08:06:10.999Z</time></trkpt><trkpt lat="44.829064462839746" lon="9.879711005570789"><ele>204.5</ele><time>2026-04-06T08:06:12.999Z</time></trkpt><trkpt lat="44.82899809793482" lon="9.879839263744318"><ele>203.75</ele><time>2026-04-06T08:06:14.999Z</time></trkpt><trkpt lat="44.828909343356216" lon="9.879954164160779"><ele>203.0</ele><time>2026-04-06T08:06:16.999Z</time></trkpt><trkpt lat="44.82880309596816" lon="9.880047568457075"><ele>202.4</ele><time>2026-04-06T08:06:18.999Z</time></trkpt><trkpt lat="44.82870339755628" lon="9.880132030393769"><ele>201.8</ele><time>2026-04-06T08:06:20.999Z</time></trkpt><trkpt lat="44.828601877418315" lon="9.880205362365505"><ele>201.2</ele><time>2026-04-06T08:06:22.999Z</time></trkpt><trkpt lat="44.82850170652123" lon="9.880275739384288"><ele>200.6</ele><time>2026-04-06T08:06:24.998Z</time></trkpt><trkpt lat="44.82840478953562" lon="9.88033755854309"><ele>200.0</ele><time>2026-04-06T08:06:26.998Z</time></trkpt><trkpt lat="44.82830634302588" lon="9.880386997451158"><ele>200.00000000000003</ele><time>2026-04-06T08:06:28.998Z</time></trkpt><trkpt lat="44.8281811428228" lon="9.880429522731905"><ele>200.0</ele><time>2026-04-06T08:06:30.998Z</time></trkpt><trkpt lat="44.828116641342504" lon="9.880457437808113"><ele>200.0</ele><time>2026-04-06T08:06:31.998Z</time></trkpt><trkpt lat="44.82805038066631" lon="9.880482436937616"><ele>200.0</ele><time>2026-04-06T08:06:32.998Z</time></trkpt><trkpt lat="44.82798382711735" lon="9.880506235697512"><ele>200.00000000000003</ele><time>2026-04-06T08:06:33.998Z</time></trkpt><trkpt lat="44.82791547155893" lon="9.880531505207815"><ele>200.0</ele><time>2026-04-06T08:06:34.998Z</time></trkpt><trkpt lat="44.82784981379837" lon="9.880558352760552"><ele>200.0</ele><time>2026-04-06T08:06:35.998Z</time></trkpt><trkpt lat="44.827728413191295" lon="9.880606909009119"><ele>200.0</ele><time>2026-04-06T08:06:37.998Z</time></trkpt><trkpt lat="44.82762241706069" lon="9.880643847722347"><ele>200.0</ele><time>2026-04-06T08:06:39.998Z</time></trkpt><trkpt lat="44.827546164805355" lon="9.880675026745516"><ele>200.0</ele><time>2026-04-06T08:06:41.998Z</time></trkpt><trkpt lat="44.82747888412577" lon="9.880728567288548"><ele>200.0</ele><time>2026-04-06T08:06:45.998Z</time></trkpt><trkpt lat="44.827425715980795" lon="9.880613212568653"><ele>199.6</ele><time>2026-04-06T08:06:46.998Z</time></trkpt><trkpt lat="44.82748047797975" lon="9.88080807589161"><ele>199.2</ele><time>2026-04-06T08:06:47.998Z</time></trkpt><trkpt lat="44.8275124233193" lon="9.880888519119129"><ele>198.8</ele><time>2026-04-06T08:06:49.998Z</time></trkpt><trkpt lat="44.827539119369064" lon="9.880988066433504"><ele>198.4</ele><time>2026-04-06T08:06:51.998Z</time></trkpt><trkpt lat="44.82756983359283" lon="9.881104622762475"><ele>198.0</ele><time>2026-04-06T08:06:53.998Z</time></trkpt><trkpt lat="44.827599166457354" lon="9.881220878639745"><ele>197.60000000000002</ele><time>2026-04-06T08:06:55.998Z</time></trkpt><trkpt lat="44.82763116897075" lon="9.881346954567102"><ele>197.20000000000002</ele><time>2026-04-06T08:06:57.998Z</time></trkpt><trkpt lat="44.82766557204906" lon="9.881490430641549"><ele>196.8</ele><time>2026-04-06T08:06:59.998Z</time></trkpt><trkpt lat="44.82770652984855" lon="9.881641641797538"><ele>196.4</ele><time>2026-04-06T08:07:01.998Z</time></trkpt><trkpt lat="44.827749335862656" lon="9.88180411095133"><ele>196.0</ele><time>2026-04-06T08:07:03.998Z</time></trkpt><trkpt lat="44.827772652082366" lon="9.881889878609373"><ele>195.57142857142858</ele><time>2026-04-06T08:07:04.998Z</time></trkpt><trkpt lat="44.82779594090206" lon="9.881978384142744"><ele>195.14285714285714</ele><time>2026-04-06T08:07:05.998Z</time></trkpt><trkpt lat="44.827821222536855" lon="9.882067750509302"><ele>194.71428571428572</ele><time>2026-04-06T08:07:06.998Z</time></trkpt><trkpt lat="44.8278441789672" lon="9.882160343891494"><ele>194.28571428571428</ele><time>2026-04-06T08:07:07.998Z</time></trkpt><trkpt lat="44.827870576530515" lon="9.882253288340419"><ele>193.85714285714286</ele><time>2026-04-06T08:07:08.998Z</time></trkpt><trkpt lat="44.82789608218718" lon="9.882347265080515"><ele>193.42857142857144</ele><time>2026-04-06T08:07:09.998Z</time></trkpt><trkpt lat="44.827921868850275" lon="9.882441479103031"><ele>193.0</ele><time>2026-04-06T08:07:10.998Z</time></trkpt><trkpt lat="44.827949754117306" lon="9.882536177591467"><ele>193.00000000000003</ele><time>2026-04-06T08:07:11.998Z</time></trkpt><trkpt lat="44.827978362723734" lon="9.882630403507115"><ele>193.0</ele><time>2026-04-06T08:07:12.998Z</time></trkpt><trkpt lat="44.828004608439734" lon="9.882728380914617"><ele>193.0</ele><time>2026-04-06T08:07:13.998Z</time></trkpt><trkpt lat="44.828031101565415" lon="9.882827433142866"><ele>193.0</ele><time>2026-04-06T08:07:15Z</time></trkpt><trkpt lat="44.828056966078194" lon="9.882922065378645"><ele>193.0</ele><time>2026-04-06T08:07:16Z</time></trkpt><trkpt lat="44.8280831797216" lon="9.883017069164188"><ele>193.00000000000003</ele><time>2026-04-06T08:07:17Z</time></trkpt><trkpt lat="44.828108281626385" lon="9.883111635459212"><ele>193.0</ele><time>2026-04-06T08:07:18Z</time></trkpt><trkpt lat="44.82813395661255" lon="9.88320807069168"><ele>193.00000000000003</ele><time>2026-04-06T08:07:19Z</time></trkpt><trkpt lat="44.82815979011936" lon="9.883302558382935"><ele>193.0</ele><time>2026-04-06T08:07:20Z</time></trkpt><trkpt lat="44.828184702993454" lon="9.88339464258752"><ele>193.0</ele><time>2026-04-06T08:07:21Z</time></trkpt><trkpt lat="44.82820936778107" lon="9.883486828924452"><ele>193.0</ele><time>2026-04-06T08:07:22Z</time></trkpt><trkpt lat="44.828235154850816" lon="9.883576743150668"><ele>193.0</ele><time>2026-04-06T08:07:23Z</time></trkpt><trkpt lat="44.82825990547616" lon="9.883665698736701"><ele>193.00000000000003</ele><time>2026-04-06T08:07:24Z</time></trkpt><trkpt lat="44.828285604337516" lon="9.883753476474926"><ele>193.0</ele><time>2026-04-06T08:07:25Z</time></trkpt><trkpt lat="44.82830787466916" lon="9.883843249157792"><ele>193.14285714285717</ele><time>2026-04-06T08:07:26Z</time></trkpt><trkpt lat="44.82833250790047" lon="9.883934579851477"><ele>193.28571428571428</ele><time>2026-04-06T08:07:27Z</time></trkpt><trkpt lat="44.828356238126325" lon="9.884024097096892"><ele>193.42857142857144</ele><time>2026-04-06T08:07:28Z</time></trkpt><trkpt lat="44.82837973843084" lon="9.884114017182185"><ele>193.57142857142858</ele><time>2026-04-06T08:07:29Z</time></trkpt><trkpt lat="44.828405654027605" lon="9.884204676667677"><ele>193.71428571428572</ele><time>2026-04-06T08:07:30Z</time></trkpt><trkpt lat="44.82843139475627" lon="9.884296466532097"><ele>193.85714285714286</ele><time>2026-04-06T08:07:31Z</time></trkpt><trkpt lat="44.82845684464095" lon="9.884389755402701"><ele>194.0</ele><time>2026-04-06T08:07:32Z</time></trkpt><trkpt lat="44.82848114371878" lon="9.884483010884365"><ele>193.85714285714286</ele><time>2026-04-06T08:07:33Z</time></trkpt><trkpt lat="44.828509644090424" lon="9.884580240452145"><ele>193.71428571428572</ele><time>2026-04-06T08:07:34Z</time></trkpt><trkpt lat="44.8285350518067" lon="9.88467324832377"><ele>193.57142857142858</ele><time>2026-04-06T08:07:35Z</time></trkpt><trkpt lat="44.828560460032115" lon="9.884769906676576"><ele>193.42857142857144</ele><time>2026-04-06T08:07:35.999Z</time></trkpt><trkpt lat="44.82858730121265" lon="9.884867984467094"><ele>193.28571428571428</ele><time>2026-04-06T08:07:36.999Z</time></trkpt><trkpt lat="44.82861405987052" lon="9.884964888115396"><ele>193.14285714285717</ele><time>2026-04-06T08:07:37.999Z</time></trkpt><trkpt lat="44.828641482136845" lon="9.885061950462402"><ele>193.0</ele><time>2026-04-06T08:07:38.999Z</time></trkpt><trkpt lat="44.82866777508993" lon="9.885159882108448"><ele>192.99999999999997</ele><time>2026-04-06T08:07:39.999Z</time></trkpt><trkpt lat="44.82869287815956" lon="9.885261838626757"><ele>193.0</ele><time>2026-04-06T08:07:40.999Z</time></trkpt><trkpt lat="44.82871967576642" lon="9.885363827560939"><ele>193.0</ele><time>2026-04-06T08:07:41.999Z</time></trkpt><trkpt lat="44.828747436527436" lon="9.885465129085738"><ele>193.0</ele><time>2026-04-06T08:07:42.999Z</time></trkpt><trkpt lat="44.82877720643369" lon="9.885567181152398"><ele>192.99999999999997</ele><time>2026-04-06T08:07:43.999Z</time></trkpt><trkpt lat="44.82880382003514" lon="9.885670055612422"><ele>193.0</ele><time>2026-04-06T08:07:44.999Z</time></trkpt><trkpt lat="44.828834055144064" lon="9.885773395045643"><ele>192.99999999999997</ele><time>2026-04-06T08:07:45.999Z</time></trkpt><trkpt lat="44.82886307559101" lon="9.885878184143243"><ele>193.0</ele><time>2026-04-06T08:07:46.999Z</time></trkpt><trkpt lat="44.82889514957185" lon="9.885985021867455"><ele>193.0</ele><time>2026-04-06T08:07:47.999Z</time></trkpt><trkpt lat="44.82892378137488" lon="9.886091912009928"><ele>193.0</ele><time>2026-04-06T08:07:48.999Z</time></trkpt><trkpt lat="44.82895444537917" lon="9.886201012163546"><ele>192.99999999999997</ele><time>2026-04-06T08:07:49.999Z</time></trkpt><trkpt lat="44.828985735738115" lon="9.886307460205774"><ele>193.0</ele><time>2026-04-06T08:07:50.999Z</time></trkpt><trkpt lat="44.82901315046225" lon="9.886413387591784"><ele>192.33333333333331</ele><time>2026-04-06T08:07:51.999Z</time></trkpt><trkpt lat="44.829040070165966" lon="9.886517634483832"><ele>191.66666666666666</ele><time>2026-04-06T08:07:52.999Z</time></trkpt><trkpt lat="44.829070320020804" lon="9.886622875969957"><ele>191.0</ele><time>2026-04-06T08:07:53.999Z</time></trkpt><trkpt lat="44.82910180471181" lon="9.886730780178512"><ele>190.33333333333331</ele><time>2026-04-06T08:07:54.999Z</time></trkpt><trkpt lat="44.82913137182942" lon="9.886843438924437"><ele>189.66666666666666</ele><time>2026-04-06T08:07:55.999Z</time></trkpt><trkpt lat="44.829162827981115" lon="9.886956058715839"><ele>189.0</ele><time>2026-04-06T08:07:56.999Z</time></trkpt><trkpt lat="44.829192625072636" lon="9.887069119021461"><ele>189.0</ele><time>2026-04-06T08:07:57.999Z</time></trkpt><trkpt lat="44.82922250939506" lon="9.887182236303635"><ele>189.0</ele><time>2026-04-06T08:07:58.999Z</time></trkpt><trkpt lat="44.829255435736634" lon="9.887293961307059"><ele>189.0</ele><time>2026-04-06T08:07:59.999Z</time></trkpt><trkpt lat="44.82928790745891" lon="9.887405591357275"><ele>189.0</ele><time>2026-04-06T08:08:00.999Z</time></trkpt><trkpt lat="44.829320536366914" lon="9.887519404865415"><ele>189.0</ele><time>2026-04-06T08:08:01.999Z</time></trkpt><trkpt lat="44.82935098217094" lon="9.887634874269063"><ele>189.0</ele><time>2026-04-06T08:08:02.999Z</time></trkpt><trkpt lat="44.82938181453323" lon="9.887752822241406"><ele>189.0</ele><time>2026-04-06T08:08:03.999Z</time></trkpt><trkpt lat="44.829413321772016" lon="9.887869760626549"><ele>189.0</ele><time>2026-04-06T08:08:04.999Z</time></trkpt><trkpt lat="44.829444839701836" lon="9.887984968918614"><ele>189.0</ele><time>2026-04-06T08:08:05.999Z</time></trkpt><trkpt lat="44.82947674022901" lon="9.888097872964597"><ele>189.0</ele><time>2026-04-06T08:08:06.999Z</time></trkpt><trkpt lat="44.82950756294709" lon="9.88820942760883"><ele>189.0</ele><time>2026-04-06T08:08:07.999Z</time></trkpt><trkpt lat="44.829540536904716" lon="9.888321777658003"><ele>189.0</ele><time>2026-04-06T08:08:08.999Z</time></trkpt><trkpt lat="44.82957111902568" lon="9.888432393912908"><ele>188.5</ele><time>2026-04-06T08:08:09.999Z</time></trkpt><trkpt lat="44.82960246000436" lon="9.888543584284358"><ele>188.0</ele><time>2026-04-06T08:08:10.999Z</time></trkpt><trkpt lat="44.82963214567669" lon="9.88865277855956"><ele>187.5</ele><time>2026-04-06T08:08:11.999Z</time></trkpt><trkpt lat="44.82966242638717" lon="9.888764204038685"><ele>187.0</ele><time>2026-04-06T08:08:12.999Z</time></trkpt><trkpt lat="44.82969242465078" lon="9.88887346649601"><ele>186.5</ele><time>2026-04-06T08:08:13.999Z</time></trkpt><trkpt lat="44.829720897509205" lon="9.8889865707603"><ele>186.0</ele><time>2026-04-06T08:08:14.999Z</time></trkpt><trkpt lat="44.829752072604784" lon="9.889097086026142"><ele>186.0</ele><time>2026-04-06T08:08:15.999Z</time></trkpt><trkpt lat="44.82978338884335" lon="9.889209178103696"><ele>186.0</ele><time>2026-04-06T08:08:16.999Z</time></trkpt><trkpt lat="44.82981600786646" lon="9.889319262947016"><ele>186.0</ele><time>2026-04-06T08:08:17.999Z</time></trkpt><trkpt lat="44.82984642392326" lon="9.889429588284504"><ele>186.0</ele><time>2026-04-06T08:08:18.999Z</time></trkpt><trkpt lat="44.8298785445575" lon="9.889540612964792"><ele>186.0</ele><time>2026-04-06T08:08:19.999Z</time></trkpt><trkpt lat="44.82990855524936" lon="9.889651317895328"><ele>186.0</ele><time>2026-04-06T08:08:20.999Z</time></trkpt><trkpt lat="44.82993867984492" lon="9.889761353038002"><ele>185.83333333333334</ele><time>2026-04-06T08:08:21.999Z</time></trkpt><trkpt lat="44.82996699214335" lon="9.88986958036314"><ele>185.66666666666666</ele><time>2026-04-06T08:08:22.999Z</time></trkpt><trkpt lat="44.82999536157702" lon="9.889978033196105"><ele>185.5</ele><time>2026-04-06T08:08:23.999Z</time></trkpt><trkpt lat="44.83002429167622" lon="9.890085438918423"><ele>185.33333333333331</ele><time>2026-04-06T08:08:24.999Z</time></trkpt><trkpt lat="44.830054478580585" lon="9.890192326787574"><ele>185.16666666666666</ele><time>2026-04-06T08:08:25.999Z</time></trkpt><trkpt lat="44.83008254540412" lon="9.890298806870263"><ele>185.0</ele><time>2026-04-06T08:08:26.999Z</time></trkpt><trkpt lat="44.83011112466316" lon="9.890405460203171"><ele>184.5</ele><time>2026-04-06T08:08:27.998Z</time></trkpt><trkpt lat="44.830141749464225" lon="9.890511379610402"><ele>184.0</ele><time>2026-04-06T08:08:28.998Z</time></trkpt><trkpt lat="44.83017169825443" lon="9.89061760312312"><ele>183.5</ele><time>2026-04-06T08:08:29.998Z</time></trkpt><trkpt lat="44.83020216434218" lon="9.890724464954735"><ele>183.0</ele><time>2026-04-06T08:08:30.998Z</time></trkpt><trkpt lat="44.83023249742918" lon="9.890831503207355"><ele>182.5</ele><time>2026-04-06T08:08:31.998Z</time></trkpt><trkpt lat="44.83026272651775" lon="9.89093854745794"><ele>182.0</ele><time>2026-04-06T08:08:32.998Z</time></trkpt><trkpt lat="44.83029147710258" lon="9.891045599204723"><ele>182.0</ele><time>2026-04-06T08:08:33.998Z</time></trkpt><trkpt lat="44.83032173862724" lon="9.8911532287072"><ele>182.0</ele><time>2026-04-06T08:08:34.998Z</time></trkpt><trkpt lat="44.830353293147134" lon="9.891262074551385"><ele>182.0</ele><time>2026-04-06T08:08:35.998Z</time></trkpt><trkpt lat="44.83038398222145" lon="9.891372731131648"><ele>182.0</ele><time>2026-04-06T08:08:36.998Z</time></trkpt><trkpt lat="44.830413876778714" lon="9.891480943018587"><ele>182.0</ele><time>2026-04-06T08:08:37.998Z</time></trkpt><trkpt lat="44.83044484739828" lon="9.89158847091707"><ele>182.0</ele><time>2026-04-06T08:08:38.998Z</time></trkpt><trkpt lat="44.830475090567695" lon="9.891696466773006"><ele>182.16666666666666</ele><time>2026-04-06T08:08:39.998Z</time></trkpt><trkpt lat="44.830506042302595" lon="9.891806708074586"><ele>182.33333333333331</ele><time>2026-04-06T08:08:40.998Z</time></trkpt><trkpt lat="44.830535289505534" lon="9.891916585118569"><ele>182.5</ele><time>2026-04-06T08:08:41.998Z</time></trkpt><trkpt lat="44.830563947063936" lon="9.892027701949898"><ele>182.66666666666666</ele><time>2026-04-06T08:08:42.998Z</time></trkpt><trkpt lat="44.830595976529615" lon="9.892135822257872"><ele>182.83333333333334</ele><time>2026-04-06T08:08:43.998Z</time></trkpt><trkpt lat="44.83062544489238" lon="9.8922450106121"><ele>183.0</ele><time>2026-04-06T08:08:44.998Z</time></trkpt><trkpt lat="44.83065653426003" lon="9.892351578113477"><ele>183.0</ele><time>2026-04-06T08:08:45.998Z</time></trkpt><trkpt lat="44.830684600705716" lon="9.892459500544646"><ele>183.0</ele><time>2026-04-06T08:08:46.998Z</time></trkpt><trkpt lat="44.830712939532376" lon="9.892568004004076"><ele>183.0</ele><time>2026-04-06T08:08:47.998Z</time></trkpt><trkpt lat="44.830741366651296" lon="9.892674408607718"><ele>183.0</ele><time>2026-04-06T08:08:48.998Z</time></trkpt><trkpt lat="44.83077260843656" lon="9.892780730501205"><ele>183.0</ele><time>2026-04-06T08:08:49.998Z</time></trkpt><trkpt lat="44.83079964668883" lon="9.892885590837828"><ele>183.0</ele><time>2026-04-06T08:08:50.998Z</time></trkpt><trkpt lat="44.830828671260925" lon="9.892993755215906"><ele>182.83333333333334</ele><time>2026-04-06T08:08:51.998Z</time></trkpt><trkpt lat="44.83085859751211" lon="9.893097699146397"><ele>182.66666666666666</ele><time>2026-04-06T08:08:52.998Z</time></trkpt><trkpt lat="44.83088953161967" lon="9.893205461024625"><ele>182.5</ele><time>2026-04-06T08:08:53.998Z</time></trkpt><trkpt lat="44.83091898882647" lon="9.893312948363032"><ele>182.33333333333331</ele><time>2026-04-06T08:08:54.998Z</time></trkpt><trkpt lat="44.83094709179904" lon="9.893420301384793"><ele>182.16666666666666</ele><time>2026-04-06T08:08:55.998Z</time></trkpt><trkpt lat="44.8309783435616" lon="9.89352956595066"><ele>182.0</ele><time>2026-04-06T08:08:56.998Z</time></trkpt><trkpt lat="44.83100926673851" lon="9.893637011854786"><ele>182.33333333333331</ele><time>2026-04-06T08:08:57.998Z</time></trkpt><trkpt lat="44.83104329873061" lon="9.893747020246302"><ele>182.66666666666666</ele><time>2026-04-06T08:08:58.998Z</time></trkpt><trkpt lat="44.83107538261591" lon="9.89385636216919"><ele>183.0</ele><time>2026-04-06T08:08:59.998Z</time></trkpt><trkpt lat="44.83110966002881" lon="9.893966495729622"><ele>183.33333333333334</ele><time>2026-04-06T08:09:00.998Z</time></trkpt><trkpt lat="44.831144129190896" lon="9.894076179108913"><ele>183.66666666666669</ele><time>2026-04-06T08:09:01.998Z</time></trkpt><trkpt lat="44.831182635224216" lon="9.894185614918834"><ele>184.0</ele><time>2026-04-06T08:09:02.998Z</time></trkpt><trkpt lat="44.831221818971734" lon="9.894295531707336"><ele>183.16666666666669</ele><time>2026-04-06T08:09:03.998Z</time></trkpt><trkpt lat="44.83126013369786" lon="9.894403682694538"><ele>182.33333333333334</ele><time>2026-04-06T08:09:04.998Z</time></trkpt><trkpt lat="44.83130217272794" lon="9.894514410250713"><ele>181.5</ele><time>2026-04-06T08:09:05.998Z</time></trkpt><trkpt lat="44.831340569982764" lon="9.89462332510773"><ele>180.66666666666666</ele><time>2026-04-06T08:09:06.998Z</time></trkpt><trkpt lat="44.831380459756446" lon="9.89473067340774"><ele>179.83333333333331</ele><time>2026-04-06T08:09:07.998Z</time></trkpt><trkpt lat="44.83141973070958" lon="9.894839329272072"><ele>179.0</ele><time>2026-04-06T08:09:08.998Z</time></trkpt><trkpt lat="44.83145880622709" lon="9.894945706810239"><ele>179.0</ele><time>2026-04-06T08:09:09.998Z</time></trkpt><trkpt lat="44.83149813857052" lon="9.895052352154975"><ele>179.0</ele><time>2026-04-06T08:09:10.998Z</time></trkpt><trkpt lat="44.83153789126803" lon="9.895158473785429"><ele>179.0</ele><time>2026-04-06T08:09:11.998Z</time></trkpt><trkpt lat="44.8315765433573" lon="9.895265330056453"><ele>179.0</ele><time>2026-04-06T08:09:12.998Z</time></trkpt><trkpt lat="44.83161613096145" lon="9.895370819700732"><ele>179.0</ele><time>2026-04-06T08:09:13.998Z</time></trkpt><trkpt lat="44.831655451060755" lon="9.89547628784084"><ele>179.0</ele><time>2026-04-06T08:09:14.998Z</time></trkpt><trkpt lat="44.83169563700025" lon="9.895583820622214"><ele>179.16666666666666</ele><time>2026-04-06T08:09:15.998Z</time></trkpt><trkpt lat="44.83173251825534" lon="9.895691706402937"><ele>179.33333333333331</ele><time>2026-04-06T08:09:16.998Z</time></trkpt><trkpt lat="44.831772674113815" lon="9.895797740336837"><ele>179.5</ele><time>2026-04-06T08:09:17.998Z</time></trkpt><trkpt lat="44.831812448495285" lon="9.89590470968138"><ele>179.66666666666666</ele><time>2026-04-06T08:09:18.998Z</time></trkpt><trkpt lat="44.83185129524255" lon="9.896009496701566"><ele>179.83333333333334</ele><time>2026-04-06T08:09:19.998Z</time></trkpt><trkpt lat="44.83189117223976" lon="9.89611558645435"><ele>180.0</ele><time>2026-04-06T08:09:21Z</time></trkpt><trkpt lat="44.83193036278165" lon="9.896220064463856"><ele>180.0</ele><time>2026-04-06T08:09:22Z</time></trkpt><trkpt lat="44.83197165362839" lon="9.89632753764989"><ele>180.0</ele><time>2026-04-06T08:09:23Z</time></trkpt><trkpt lat="44.832012887649014" lon="9.896435591851898"><ele>180.0</ele><time>2026-04-06T08:09:24Z</time></trkpt><trkpt lat="44.832061028368024" lon="9.896539829526773"><ele>180.0</ele><time>2026-04-06T08:09:25Z</time></trkpt><trkpt lat="44.83211373085927" lon="9.896641193275057"><ele>180.0</ele><time>2026-04-06T08:09:26Z</time></trkpt><trkpt lat="44.832169808103295" lon="9.89674330911637"><ele>180.0</ele><time>2026-04-06T08:09:27Z</time></trkpt><trkpt lat="44.83222717200572" lon="9.896842509442063"><ele>179.0</ele><time>2026-04-06T08:09:28Z</time></trkpt><trkpt lat="44.8322880256464" lon="9.89694503026833"><ele>178.0</ele><time>2026-04-06T08:09:29Z</time></trkpt><trkpt lat="44.832348947026986" lon="9.89704865886001"><ele>177.0</ele><time>2026-04-06T08:09:30Z</time></trkpt><trkpt lat="44.83240952115966" lon="9.897155771120488"><ele>176.0</ele><time>2026-04-06T08:09:31Z</time></trkpt><trkpt lat="44.83247159136081" lon="9.89726093308473"><ele>175.0</ele><time>2026-04-06T08:09:32Z</time></trkpt><trkpt lat="44.83253322472044" lon="9.897369360250071"><ele>175.0</ele><time>2026-04-06T08:09:33Z</time></trkpt><trkpt lat="44.832596914723574" lon="9.897476145423505"><ele>175.0</ele><time>2026-04-06T08:09:34Z</time></trkpt><trkpt lat="44.83265777982155" lon="9.897582920127164"><ele>175.0</ele><time>2026-04-06T08:09:35Z</time></trkpt><trkpt lat="44.83272129125607" lon="9.897691216695854"><ele>175.0</ele><time>2026-04-06T08:09:36Z</time></trkpt><trkpt lat="44.83278383712311" lon="9.897798703031878"><ele>175.0</ele><time>2026-04-06T08:09:37Z</time></trkpt><trkpt lat="44.83284589312334" lon="9.897906595091252"><ele>175.0</ele><time>2026-04-06T08:09:38Z</time></trkpt><trkpt lat="44.832906874779226" lon="9.898016869679644"><ele>175.0</ele><time>2026-04-06T08:09:39Z</time></trkpt><trkpt lat="44.832969371819765" lon="9.898123358813539"><ele>175.0</ele><time>2026-04-06T08:09:39.999Z</time></trkpt><trkpt lat="44.833031909704346" lon="9.898231065196292"><ele>175.0</ele><time>2026-04-06T08:09:40.999Z</time></trkpt><trkpt lat="44.83309430484842" lon="9.898340640580418"><ele>175.0</ele><time>2026-04-06T08:09:41.999Z</time></trkpt><trkpt lat="44.83315691179385" lon="9.898448647404567"><ele>174.0</ele><time>2026-04-06T08:09:42.999Z</time></trkpt><trkpt lat="44.83321813419745" lon="9.89855475370962"><ele>173.0</ele><time>2026-04-06T08:09:43.999Z</time></trkpt><trkpt lat="44.833278578788175" lon="9.89866288093605"><ele>172.0</ele><time>2026-04-06T08:09:44.999Z</time></trkpt><trkpt lat="44.83334035929763" lon="9.898770168225566"><ele>171.0</ele><time>2026-04-06T08:09:45.999Z</time></trkpt><trkpt lat="44.833401492116636" lon="9.898880452610745"><ele>170.0</ele><time>2026-04-06T08:09:46.999Z</time></trkpt><trkpt lat="44.83346272174677" lon="9.898985299818799"><ele>169.8</ele><time>2026-04-06T08:09:47.999Z</time></trkpt><trkpt lat="44.83352574427191" lon="9.899098428873426"><ele>169.6</ele><time>2026-04-06T08:09:48.999Z</time></trkpt><trkpt lat="44.83358763801341" lon="9.89920684562804"><ele>169.39999999999998</ele><time>2026-04-06T08:09:49.999Z</time></trkpt><trkpt lat="44.833649285923286" lon="9.899314888209128"><ele>169.2</ele><time>2026-04-06T08:09:50.999Z</time></trkpt><trkpt lat="44.8337119137514" lon="9.899424979038361"><ele>169.0</ele><time>2026-04-06T08:09:51.999Z</time></trkpt><trkpt lat="44.83377457297343" lon="9.899533949556258"><ele>169.0</ele><time>2026-04-06T08:09:52.999Z</time></trkpt><trkpt lat="44.83383738401716" lon="9.899641931414072"><ele>169.0</ele><time>2026-04-06T08:09:53.999Z</time></trkpt><trkpt lat="44.83390055925495" lon="9.899750641820193"><ele>169.0</ele><time>2026-04-06T08:09:54.999Z</time></trkpt><trkpt lat="44.83396259890981" lon="9.899862249100847"><ele>169.0</ele><time>2026-04-06T08:09:55.999Z</time></trkpt><trkpt lat="44.83402577394326" lon="9.899972238173905"><ele>169.0</ele><time>2026-04-06T08:09:56.999Z</time></trkpt><trkpt lat="44.83408764882753" lon="9.900082663912155"><ele>169.0</ele><time>2026-04-06T08:09:57.999Z</time></trkpt><trkpt lat="44.8341513804352" lon="9.900191193329768"><ele>169.0</ele><time>2026-04-06T08:09:58.999Z</time></trkpt><trkpt lat="44.83421399651878" lon="9.900300678212968"><ele>169.0</ele><time>2026-04-06T08:09:59.999Z</time></trkpt><trkpt lat="44.83427552462218" lon="9.900412240563389"><ele>169.0</ele><time>2026-04-06T08:10:00.999Z</time></trkpt><trkpt lat="44.83433849493865" lon="9.900519518912775"><ele>169.0</ele><time>2026-04-06T08:10:01.999Z</time></trkpt><trkpt lat="44.83440040619176" lon="9.900628903335392"><ele>169.0</ele><time>2026-04-06T08:10:02.999Z</time></trkpt><trkpt lat="44.834461849977515" lon="9.900739344127075"><ele>169.0</ele><time>2026-04-06T08:10:03.999Z</time></trkpt><trkpt lat="44.83452382288776" lon="9.900847774370712"><ele>169.0</ele><time>2026-04-06T08:10:04.999Z</time></trkpt><trkpt lat="44.83458503181145" lon="9.900957521133055"><ele>169.0</ele><time>2026-04-06T08:10:05.999Z</time></trkpt><trkpt lat="44.834646833437844" lon="9.90106619845839"><ele>169.0</ele><time>2026-04-06T08:10:06.999Z</time></trkpt><trkpt lat="44.83470788499274" lon="9.901173131910564"><ele>168.39999999999998</ele><time>2026-04-06T08:10:07.999Z</time></trkpt><trkpt lat="44.83476657672443" lon="9.901285126049357"><ele>167.8</ele><time>2026-04-06T08:10:08.999Z</time></trkpt><trkpt lat="44.83482245480976" lon="9.901395188819354"><ele>167.2</ele><time>2026-04-06T08:10:09.999Z</time></trkpt><trkpt lat="44.83487623035813" lon="9.901505822135292"><ele>166.60000000000002</ele><time>2026-04-06T08:10:10.999Z</time></trkpt><trkpt lat="44.83492777850306" lon="9.901617743027792"><ele>166.0</ele><time>2026-04-06T08:10:11.999Z</time></trkpt><trkpt lat="44.83497841290776" lon="9.901733272729533"><ele>165.8</ele><time>2026-04-06T08:10:12.999Z</time></trkpt><trkpt lat="44.83502706830201" lon="9.901850998828138"><ele>165.60000000000002</ele><time>2026-04-06T08:10:13.999Z</time></trkpt><trkpt lat="44.83507704296231" lon="9.901967225599469"><ele>165.4</ele><time>2026-04-06T08:10:14.999Z</time></trkpt><trkpt lat="44.83512590249431" lon="9.902085628814767"><ele>165.2</ele><time>2026-04-06T08:10:15.999Z</time></trkpt><trkpt lat="44.835174084605974" lon="9.902206673235575"><ele>165.0</ele><time>2026-04-06T08:10:16.999Z</time></trkpt><trkpt lat="44.83522337561949" lon="9.902323537091588"><ele>165.0</ele><time>2026-04-06T08:10:17.999Z</time></trkpt><trkpt lat="44.83527176968955" lon="9.902439818993514"><ele>165.0</ele><time>2026-04-06T08:10:18.999Z</time></trkpt><trkpt lat="44.83531933269718" lon="9.90255670989693"><ele>165.0</ele><time>2026-04-06T08:10:19.999Z</time></trkpt><trkpt lat="44.835368888600016" lon="9.902676856128455"><ele>165.0</ele><time>2026-04-06T08:10:20.999Z</time></trkpt><trkpt lat="44.83541905735593" lon="9.902796206684192"><ele>165.0</ele><time>2026-04-06T08:10:21.999Z</time></trkpt><trkpt lat="44.83546858312501" lon="9.902912587949649"><ele>164.4</ele><time>2026-04-06T08:10:22.999Z</time></trkpt><trkpt lat="44.835517631081075" lon="9.90303095095634"><ele>163.8</ele><time>2026-04-06T08:10:23.999Z</time></trkpt><trkpt lat="44.83556718234966" lon="9.90315338720137"><ele>163.2</ele><time>2026-04-06T08:10:24.999Z</time></trkpt><trkpt lat="44.835617401105566" lon="9.903274537730269"><ele>162.6</ele><time>2026-04-06T08:10:25.999Z</time></trkpt><trkpt lat="44.83566912176758" lon="9.90339610174479"><ele>162.0</ele><time>2026-04-06T08:10:26.999Z</time></trkpt><trkpt lat="44.835717865520905" lon="9.903518459263019"><ele>161.6</ele><time>2026-04-06T08:10:27.999Z</time></trkpt><trkpt lat="44.835768680663776" lon="9.903644947366049"><ele>161.2</ele><time>2026-04-06T08:10:28.999Z</time></trkpt><trkpt lat="44.835819202032084" lon="9.903767942117783"><ele>160.8</ele><time>2026-04-06T08:10:29.999Z</time></trkpt><trkpt lat="44.835871032501295" lon="9.903891178224649"><ele>160.4</ele><time>2026-04-06T08:10:30.999Z</time></trkpt><trkpt lat="44.83592166778786" lon="9.904014908974164"><ele>160.0</ele><time>2026-04-06T08:10:31.999Z</time></trkpt><trkpt lat="44.835972540427456" lon="9.904136562549231"><ele>160.8</ele><time>2026-04-06T08:10:32.998Z</time></trkpt><trkpt lat="44.83602324300126" lon="9.904257145093487"><ele>161.6</ele><time>2026-04-06T08:10:33.998Z</time></trkpt><trkpt lat="44.83607405921004" lon="9.904373645327368"><ele>162.39999999999998</ele><time>2026-04-06T08:10:34.998Z</time></trkpt><trkpt lat="44.83612375956527" lon="9.904491244271586"><ele>163.2</ele><time>2026-04-06T08:10:35.998Z</time></trkpt><trkpt lat="44.83617311886264" lon="9.904611423920981"><ele>164.0</ele><time>2026-04-06T08:10:36.998Z</time></trkpt><trkpt lat="44.83621979706473" lon="9.904727286136605"><ele>164.0</ele><time>2026-04-06T08:10:37.998Z</time></trkpt><trkpt lat="44.836267973917984" lon="9.904844310929736"><ele>164.0</ele><time>2026-04-06T08:10:38.998Z</time></trkpt><trkpt lat="44.83631432404269" lon="9.904961703586716"><ele>164.0</ele><time>2026-04-06T08:10:39.998Z</time></trkpt><trkpt lat="44.83636162405728" lon="9.90507717807376"><ele>164.0</ele><time>2026-04-06T08:10:40.998Z</time></trkpt><trkpt lat="44.83640907059046" lon="9.905194797564393"><ele>164.0</ele><time>2026-04-06T08:10:41.998Z</time></trkpt><trkpt lat="44.83645846800265" lon="9.905306501165452"><ele>163.6</ele><time>2026-04-06T08:10:42.998Z</time></trkpt><trkpt lat="44.83650594920213" lon="9.905423673163604"><ele>163.2</ele><time>2026-04-06T08:10:43.998Z</time></trkpt><trkpt lat="44.836555708300914" lon="9.905541450852837"><ele>162.79999999999998</ele><time>2026-04-06T08:10:44.998Z</time></trkpt><trkpt lat="44.836606355110014" lon="9.905658509643773"><ele>162.39999999999998</ele><time>2026-04-06T08:10:45.998Z</time></trkpt><trkpt lat="44.8366558030359" lon="9.905777691220841"><ele>162.0</ele><time>2026-04-06T08:10:46.998Z</time></trkpt><trkpt lat="44.83670552066003" lon="9.905898232982807"><ele>162.0</ele><time>2026-04-06T08:10:47.998Z</time></trkpt><trkpt lat="44.83675678577471" lon="9.906018028955287"><ele>162.0</ele><time>2026-04-06T08:10:48.998Z</time></trkpt><trkpt lat="44.83680709199715" lon="9.906136544585385"><ele>162.0</ele><time>2026-04-06T08:10:49.998Z</time></trkpt><trkpt lat="44.83685872630476" lon="9.90625850232743"><ele>162.0</ele><time>2026-04-06T08:10:50.998Z</time></trkpt><trkpt lat="44.83690971933069" lon="9.906378694311998"><ele>162.0</ele><time>2026-04-06T08:10:51.998Z</time></trkpt><trkpt lat="44.8369602675003" lon="9.906500508927365"><ele>161.8</ele><time>2026-04-06T08:10:52.998Z</time></trkpt><trkpt lat="44.837010348602824" lon="9.906623001715982"><ele>161.6</ele><time>2026-04-06T08:10:53.998Z</time></trkpt><trkpt lat="44.837060521557675" lon="9.906745281145337"><ele>161.4</ele><time>2026-04-06T08:10:54.998Z</time></trkpt><trkpt lat="44.837110229293366" lon="9.906864129603779"><ele>161.20000000000002</ele><time>2026-04-06T08:10:55.998Z</time></trkpt><trkpt lat="44.83715867299947" lon="9.906984180099935"><ele>161.0</ele><time>2026-04-06T08:10:56.998Z</time></trkpt><trkpt lat="44.837209142149646" lon="9.907104290884266"><ele>161.0</ele><time>2026-04-06T08:10:57.998Z</time></trkpt><trkpt lat="44.83725931557982" lon="9.907223179066731"><ele>161.0</ele><time>2026-04-06T08:10:58.998Z</time></trkpt><trkpt lat="44.837309154565446" lon="9.907341848402046"><ele>161.0</ele><time>2026-04-06T08:10:59.998Z</time></trkpt><trkpt lat="44.83735952038763" lon="9.907460907625387"><ele>161.0</ele><time>2026-04-06T08:11:00.998Z</time></trkpt><trkpt lat="44.8374102237283" lon="9.907579639731184"><ele>161.0</ele><time>2026-04-06T08:11:01.998Z</time></trkpt><trkpt lat="44.83746039441858" lon="9.907696376451518"><ele>160.8</ele><time>2026-04-06T08:11:02.998Z</time></trkpt><trkpt lat="44.83751086389124" lon="9.907812588066536"><ele>160.60000000000002</ele><time>2026-04-06T08:11:03.998Z</time></trkpt><trkpt lat="44.83755836715514" lon="9.907930964456309"><ele>160.4</ele><time>2026-04-06T08:11:04.998Z</time></trkpt><trkpt lat="44.83760567774558" lon="9.90804801298087"><ele>160.2</ele><time>2026-04-06T08:11:05.998Z</time></trkpt><trkpt lat="44.83765412926669" lon="9.908163065463041"><ele>160.0</ele><time>2026-04-06T08:11:06.998Z</time></trkpt><trkpt lat="44.83770005934952" lon="9.908277355424422"><ele>161.2</ele><time>2026-04-06T08:11:07.998Z</time></trkpt><trkpt lat="44.83774947721182" lon="9.90839217533612"><ele>162.4</ele><time>2026-04-06T08:11:08.998Z</time></trkpt><trkpt lat="44.837797322048104" lon="9.90850515093824"><ele>163.60000000000002</ele><time>2026-04-06T08:11:09.998Z</time></trkpt><trkpt lat="44.83784371268938" lon="9.908618023976665"><ele>164.8</ele><time>2026-04-06T08:11:10.998Z</time></trkpt><trkpt lat="44.837890606459936" lon="9.908728230469647"><ele>166.0</ele><time>2026-04-06T08:11:11.998Z</time></trkpt><trkpt lat="44.83793645267914" lon="9.908840723435246"><ele>166.0</ele><time>2026-04-06T08:11:12.998Z</time></trkpt><trkpt lat="44.83798282945678" lon="9.908953350626502"><ele>166.0</ele><time>2026-04-06T08:11:13.998Z</time></trkpt><trkpt lat="44.83802935246284" lon="9.909066554099766"><ele>166.0</ele><time>2026-04-06T08:11:14.998Z</time></trkpt><trkpt lat="44.83807805430287" lon="9.909179648653636"><ele>166.0</ele><time>2026-04-06T08:11:15.998Z</time></trkpt><trkpt lat="44.838124283299514" lon="9.909293647091165"><ele>166.0</ele><time>2026-04-06T08:11:16.998Z</time></trkpt><trkpt lat="44.83817207979162" lon="9.909408538940331"><ele>164.8</ele><time>2026-04-06T08:11:17.998Z</time></trkpt><trkpt lat="44.83821931979607" lon="9.909520033910221"><ele>163.60000000000002</ele><time>2026-04-06T08:11:18.998Z</time></trkpt><trkpt lat="44.838267289958075" lon="9.909631181199066"><ele>162.4</ele><time>2026-04-06T08:11:19.998Z</time></trkpt><trkpt lat="44.83831629006281" lon="9.909741938366318"><ele>161.2</ele><time>2026-04-06T08:11:20.998Z</time></trkpt><trkpt lat="44.83836229848738" lon="9.909853852219575"><ele>160.0</ele><time>2026-04-06T08:11:21.998Z</time></trkpt><trkpt lat="44.838409225349274" lon="9.909965258560725"><ele>159.6</ele><time>2026-04-06T08:11:22.998Z</time></trkpt><trkpt lat="44.83845548281826" lon="9.910083124950454"><ele>159.2</ele><time>2026-04-06T08:11:23.998Z</time></trkpt><trkpt lat="44.8385041957586" lon="9.910197582169479"><ele>158.8</ele><time>2026-04-06T08:11:24.998Z</time></trkpt><trkpt lat="44.83855323652181" lon="9.910311505196113"><ele>158.4</ele><time>2026-04-06T08:11:25.997Z</time></trkpt><trkpt lat="44.83860095064551" lon="9.91042540622125"><ele>158.0</ele><time>2026-04-06T08:11:27Z</time></trkpt><trkpt lat="44.83864923014336" lon="9.910542234488968"><ele>158.60000000000002</ele><time>2026-04-06T08:11:28Z</time></trkpt><trkpt lat="44.83869834217444" lon="9.910661099534432"><ele>159.20000000000002</ele><time>2026-04-06T08:11:29Z</time></trkpt><trkpt lat="44.838746115423916" lon="9.910777674493115"><ele>159.8</ele><time>2026-04-06T08:11:30Z</time></trkpt><trkpt lat="44.83879485062858" lon="9.910892125808813"><ele>160.4</ele><time>2026-04-06T08:11:31Z</time></trkpt><trkpt lat="44.83884247822671" lon="9.91100853016641"><ele>161.0</ele><time>2026-04-06T08:11:32Z</time></trkpt><trkpt lat="44.8388899423793" lon="9.911124544817252"><ele>161.0</ele><time>2026-04-06T08:11:33Z</time></trkpt><trkpt lat="44.83893712180563" lon="9.911238732080047"><ele>161.0</ele><time>2026-04-06T08:11:34Z</time></trkpt><trkpt lat="44.838983835659114" lon="9.911353685756081"><ele>161.0</ele><time>2026-04-06T08:11:35Z</time></trkpt><trkpt lat="44.83903238108763" lon="9.91147093541812"><ele>161.0</ele><time>2026-04-06T08:11:36Z</time></trkpt><trkpt lat="44.83907749207913" lon="9.911584432177623"><ele>161.0</ele><time>2026-04-06T08:11:37Z</time></trkpt><trkpt lat="44.83912453956509" lon="9.911699061372785"><ele>160.4</ele><time>2026-04-06T08:11:38Z</time></trkpt><trkpt lat="44.83916994726282" lon="9.911816356082022"><ele>159.8</ele><time>2026-04-06T08:11:39Z</time></trkpt><trkpt lat="44.839218985839786" lon="9.911933807257126"><ele>159.20000000000002</ele><time>2026-04-06T08:11:40Z</time></trkpt><trkpt lat="44.839268136186796" lon="9.912046834026496"><ele>158.60000000000002</ele><time>2026-04-06T08:11:41Z</time></trkpt><trkpt lat="44.839316640443165" lon="9.912162100068368"><ele>158.0</ele><time>2026-04-06T08:11:42Z</time></trkpt><trkpt lat="44.83936710043893" lon="9.912280446667257"><ele>159.0</ele><time>2026-04-06T08:11:43Z</time></trkpt><trkpt lat="44.83941539725716" lon="9.912398060204701"><ele>160.0</ele><time>2026-04-06T08:11:44Z</time></trkpt><trkpt lat="44.83946379091997" lon="9.912518086471211"><ele>161.0</ele><time>2026-04-06T08:11:44.999Z</time></trkpt><trkpt lat="44.83951328448175" lon="9.912637180786438"><ele>162.0</ele><time>2026-04-06T08:11:45.999Z</time></trkpt><trkpt lat="44.83956368622081" lon="9.91275518652522"><ele>163.0</ele><time>2026-04-06T08:11:46.999Z</time></trkpt><trkpt lat="44.83961455138593" lon="9.912870490977253"><ele>163.0</ele><time>2026-04-06T08:11:47.999Z</time></trkpt><trkpt lat="44.83966041951859" lon="9.912986788009626"><ele>163.0</ele><time>2026-04-06T08:11:48.999Z</time></trkpt><trkpt lat="44.83970725819504" lon="9.91310814373217"><ele>163.0</ele><time>2026-04-06T08:11:49.999Z</time></trkpt><trkpt lat="44.83975572989439" lon="9.91322915428599"><ele>163.0</ele><time>2026-04-06T08:11:50.999Z</time></trkpt><trkpt lat="44.83980535180716" lon="9.913349984512315"><ele>163.0</ele><time>2026-04-06T08:11:51.999Z</time></trkpt><trkpt lat="44.83985427146717" lon="9.913470085926678"><ele>162.60000000000002</ele><time>2026-04-06T08:11:52.999Z</time></trkpt><trkpt lat="44.839906974645274" lon="9.913591238023267"><ele>162.20000000000002</ele><time>2026-04-06T08:11:53.999Z</time></trkpt><trkpt lat="44.83995797932201" lon="9.913713488919086"><ele>161.8</ele><time>2026-04-06T08:11:54.999Z</time></trkpt><trkpt lat="44.8400129582316" lon="9.913838025175629"><ele>161.4</ele><time>2026-04-06T08:11:55.999Z</time></trkpt><trkpt lat="44.84006748867076" lon="9.9139619863638"><ele>161.0</ele><time>2026-04-06T08:11:56.999Z</time></trkpt><trkpt lat="44.84012376551898" lon="9.914086338332472"><ele>160.4</ele><time>2026-04-06T08:11:57.999Z</time></trkpt><trkpt lat="44.8401864732364" lon="9.914207792175814"><ele>159.8</ele><time>2026-04-06T08:11:58.999Z</time></trkpt><trkpt lat="44.84024738740571" lon="9.914328993398824"><ele>159.20000000000002</ele><time>2026-04-06T08:11:59.999Z</time></trkpt><trkpt lat="44.84030880257253" lon="9.91444764526067"><ele>158.60000000000002</ele><time>2026-04-06T08:12:00.999Z</time></trkpt><trkpt lat="44.840370350052304" lon="9.914569482449714"><ele>158.0</ele><time>2026-04-06T08:12:01.999Z</time></trkpt><trkpt lat="44.84043403760118" lon="9.914688101477962"><ele>158.0</ele><time>2026-04-06T08:12:02.999Z</time></trkpt><trkpt lat="44.84049590166573" lon="9.914809314634653"><ele>158.0</ele><time>2026-04-06T08:12:03.999Z</time></trkpt><trkpt lat="44.840559506558265" lon="9.914931767430529"><ele>158.0</ele><time>2026-04-06T08:12:04.999Z</time></trkpt><trkpt lat="44.840623379126086" lon="9.915051355849664"><ele>158.0</ele><time>2026-04-06T08:12:05.999Z</time></trkpt><trkpt lat="44.84068551487268" lon="9.915166890317794"><ele>158.0</ele><time>2026-04-06T08:12:06.999Z</time></trkpt><trkpt lat="44.84074929606724" lon="9.915286716797253"><ele>157.6</ele><time>2026-04-06T08:12:07.999Z</time></trkpt><trkpt lat="44.840813935345636" lon="9.915404736226014"><ele>157.20000000000002</ele><time>2026-04-06T08:12:08.999Z</time></trkpt><trkpt lat="44.84088048297131" lon="9.915521816152488"><ele>156.8</ele><time>2026-04-06T08:12:09.999Z</time></trkpt><trkpt lat="44.84094643766228" lon="9.915637808741803"><ele>156.4</ele><time>2026-04-06T08:12:10.999Z</time></trkpt><trkpt lat="44.841010590266166" lon="9.915756209315967"><ele>156.0</ele><time>2026-04-06T08:12:11.999Z</time></trkpt><trkpt lat="44.84107560397386" lon="9.915877304588689"><ele>155.2</ele><time>2026-04-06T08:12:12.999Z</time></trkpt><trkpt lat="44.84113767393066" lon="9.915995171739008"><ele>154.39999999999998</ele><time>2026-04-06T08:12:13.999Z</time></trkpt><trkpt lat="44.84119988338733" lon="9.91611139616414"><ele>153.6</ele><time>2026-04-06T08:12:14.999Z</time></trkpt><trkpt lat="44.841262322319075" lon="9.916227093350777"><ele>152.79999999999998</ele><time>2026-04-06T08:12:15.999Z</time></trkpt><trkpt lat="44.84132313836406" lon="9.91634431280631"><ele>152.0</ele><time>2026-04-06T08:12:16.999Z</time></trkpt><trkpt lat="44.84138585870209" lon="9.916461564379462"><ele>152.0</ele><time>2026-04-06T08:12:17.999Z</time></trkpt><trkpt lat="44.84144916086155" lon="9.916578298865177"><ele>152.0</ele><time>2026-04-06T08:12:18.999Z</time></trkpt><trkpt lat="44.84151043768074" lon="9.916691408149271"><ele>152.0</ele><time>2026-04-06T08:12:19.999Z</time></trkpt><trkpt lat="44.84157149486163" lon="9.916804305185629"><ele>152.0</ele><time>2026-04-06T08:12:20.999Z</time></trkpt><trkpt lat="44.84163372104747" lon="9.916919828707323"><ele>152.0</ele><time>2026-04-06T08:12:21.999Z</time></trkpt><trkpt lat="44.841695793418786" lon="9.917033989449415"><ele>151.79999999999998</ele><time>2026-04-06T08:12:22.999Z</time></trkpt><trkpt lat="44.84176023549782" lon="9.9171464126819"><ele>151.6</ele><time>2026-04-06T08:12:23.999Z</time></trkpt><trkpt lat="44.841822611923696" lon="9.917262564496738"><ele>151.39999999999998</ele><time>2026-04-06T08:12:24.999Z</time></trkpt><trkpt lat="44.84188623286957" lon="9.917374868388892"><ele>151.2</ele><time>2026-04-06T08:12:25.999Z</time></trkpt><trkpt lat="44.84194964502266" lon="9.917487616147767"><ele>151.0</ele><time>2026-04-06T08:12:26.999Z</time></trkpt><trkpt lat="44.842011958489955" lon="9.917603766486218"><ele>150.6</ele><time>2026-04-06T08:12:27.999Z</time></trkpt><trkpt lat="44.84207461607876" lon="9.917718319532971"><ele>150.2</ele><time>2026-04-06T08:12:28.999Z</time></trkpt><trkpt lat="44.84213599700997" lon="9.917830039675216"><ele>149.8</ele><time>2026-04-06T08:12:29.999Z</time></trkpt><trkpt lat="44.842197078763824" lon="9.91794199291056"><ele>149.4</ele><time>2026-04-06T08:12:30.999Z</time></trkpt><trkpt lat="44.842256346701134" lon="9.91805181753637"><ele>149.0</ele><time>2026-04-06T08:12:31.999Z</time></trkpt><trkpt lat="44.842313489234954" lon="9.918159955476716"><ele>149.0</ele><time>2026-04-06T08:12:32.999Z</time></trkpt><trkpt lat="44.842369536660804" lon="9.918269063361949"><ele>149.0</ele><time>2026-04-06T08:12:33.999Z</time></trkpt><trkpt lat="44.84242692703653" lon="9.918377361288007"><ele>149.0</ele><time>2026-04-06T08:12:34.999Z</time></trkpt><trkpt lat="44.84248446911248" lon="9.91848294794484"><ele>149.0</ele><time>2026-04-06T08:12:35.999Z</time></trkpt><trkpt lat="44.842548147886895" lon="9.91859418488441"><ele>149.0</ele><time>2026-04-06T08:12:36.999Z</time></trkpt><trkpt lat="44.84260537747914" lon="9.918697704387084"><ele>149.6</ele><time>2026-04-06T08:12:37.998Z</time></trkpt><trkpt lat="44.84266389664597" lon="9.918806024701787"><ele>150.2</ele><time>2026-04-06T08:12:38.998Z</time></trkpt><trkpt lat="44.84272165538455" lon="9.918912262695248"><ele>150.79999999999998</ele><time>2026-04-06T08:12:39.998Z</time></trkpt><trkpt lat="44.842777514273294" lon="9.919013738481475"><ele>151.4</ele><time>2026-04-06T08:12:40.998Z</time></trkpt><trkpt lat="44.842833501680246" lon="9.919116094182648"><ele>152.0</ele><time>2026-04-06T08:12:41.998Z</time></trkpt><trkpt lat="44.84288803319582" lon="9.919217083091366"><ele>151.66666666666666</ele><time>2026-04-06T08:12:42.998Z</time></trkpt><trkpt lat="44.842940487109516" lon="9.919315388520442"><ele>151.33333333333331</ele><time>2026-04-06T08:12:43.998Z</time></trkpt><trkpt lat="44.8429916545978" lon="9.919406842330167"><ele>151.0</ele><time>2026-04-06T08:12:44.998Z</time></trkpt><trkpt lat="44.8430402898617" lon="9.919496859067962"><ele>150.66666666666666</ele><time>2026-04-06T08:12:45.998Z</time></trkpt><trkpt lat="44.84308857573439" lon="9.919586722052232"><ele>150.33333333333334</ele><time>2026-04-06T08:12:46.998Z</time></trkpt><trkpt lat="44.84313802628745" lon="9.919672613948348"><ele>150.0</ele><time>2026-04-06T08:12:47.998Z</time></trkpt><trkpt lat="44.84318549938876" lon="9.919754887370104"><ele>149.99999999999997</ele><time>2026-04-06T08:12:48.998Z</time></trkpt><trkpt lat="44.843230736864236" lon="9.91983576445348"><ele>150.0</ele><time>2026-04-06T08:12:49.998Z</time></trkpt><trkpt lat="44.843274983011895" lon="9.919918476697273"><ele>150.0</ele><time>2026-04-06T08:12:50.998Z</time></trkpt><trkpt lat="44.84332023742642" lon="9.920003069663197"><ele>150.0</ele><time>2026-04-06T08:12:51.998Z</time></trkpt><trkpt lat="44.8433669414352" lon="9.920086187152647"><ele>150.0</ele><time>2026-04-06T08:12:52.998Z</time></trkpt><trkpt lat="44.843411424763474" lon="9.920165800169096"><ele>149.99999999999997</ele><time>2026-04-06T08:12:53.998Z</time></trkpt><trkpt lat="44.84345443369061" lon="9.920243961786934"><ele>150.0</ele><time>2026-04-06T08:12:54.998Z</time></trkpt><trkpt lat="44.84349885991627" lon="9.920320502515743"><ele>150.4</ele><time>2026-04-06T08:12:55.998Z</time></trkpt><trkpt lat="44.84355833409579" lon="9.920442749504407"><ele>150.8</ele><time>2026-04-06T08:12:57.998Z</time></trkpt><trkpt lat="44.843566126745635" lon="9.920531469108457"><ele>151.2</ele><time>2026-04-06T08:12:59.998Z</time></trkpt><trkpt lat="44.84348855706087" lon="9.920647941202747"><ele>151.6</ele><time>2026-04-06T08:13:00.998Z</time></trkpt><trkpt lat="44.84340039772928" lon="9.92077627701022"><ele>152.0</ele><time>2026-04-06T08:13:02.998Z</time></trkpt><trkpt lat="44.8433579731399" lon="9.92084554173051"><ele>151.0</ele><time>2026-04-06T08:13:03.998Z</time></trkpt><trkpt lat="44.84331297493599" lon="9.920914875753333"><ele>150.0</ele><time>2026-04-06T08:13:04.998Z</time></trkpt><trkpt lat="44.84327067603684" lon="9.920986877083154"><ele>149.0</ele><time>2026-04-06T08:13:05.998Z</time></trkpt><trkpt lat="44.84322726391463" lon="9.921058473165031"><ele>148.0</ele><time>2026-04-06T08:13:06.998Z</time></trkpt><trkpt lat="44.84318161482379" lon="9.921129919368806"><ele>147.0</ele><time>2026-04-06T08:13:07.998Z</time></trkpt><trkpt lat="44.84313906774456" lon="9.921202860751547"><ele>146.0</ele><time>2026-04-06T08:13:08.998Z</time></trkpt><trkpt lat="44.84309699977105" lon="9.921271905713015"><ele>145.0</ele><time>2026-04-06T08:13:09.998Z</time></trkpt><trkpt lat="44.84305026745374" lon="9.921344509627067"><ele>145.0</ele><time>2026-04-06T08:13:10.998Z</time></trkpt><trkpt lat="44.843005799165645" lon="9.921415306445274"><ele>145.0</ele><time>2026-04-06T08:13:11.998Z</time></trkpt><trkpt lat="44.8429624752911" lon="9.921487948624915"><ele>145.0</ele><time>2026-04-06T08:13:12.998Z</time></trkpt><trkpt lat="44.8429184937031" lon="9.921561183169487"><ele>145.0</ele><time>2026-04-06T08:13:13.998Z</time></trkpt><trkpt lat="44.842875172476575" lon="9.921634616341821"><ele>145.0</ele><time>2026-04-06T08:13:14.998Z</time></trkpt><trkpt lat="44.8428306694932" lon="9.92171102912842"><ele>145.0</ele><time>2026-04-06T08:13:15.998Z</time></trkpt><trkpt lat="44.842786792269166" lon="9.92178328199136"><ele>145.0</ele><time>2026-04-06T08:13:16.998Z</time></trkpt><trkpt lat="44.84274092744162" lon="9.921860389667456"><ele>144.71428571428572</ele><time>2026-04-06T08:13:17.998Z</time></trkpt><trkpt lat="44.842697869206106" lon="9.921938968384648"><ele>144.42857142857144</ele><time>2026-04-06T08:13:18.998Z</time></trkpt><trkpt lat="44.842653707049436" lon="9.92202137764979"><ele>144.14285714285714</ele><time>2026-04-06T08:13:19.998Z</time></trkpt><trkpt lat="44.84261483318864" lon="9.922105381523021"><ele>143.85714285714286</ele><time>2026-04-06T08:13:20.998Z</time></trkpt><trkpt lat="44.842584357263114" lon="9.92219330261136"><ele>143.57142857142856</ele><time>2026-04-06T08:13:21.998Z</time></trkpt><trkpt lat="44.84255434539477" lon="9.922283615515685"><ele>143.28571428571428</ele><time>2026-04-06T08:13:22.998Z</time></trkpt><trkpt lat="44.842516667308146" lon="9.922371333468412"><ele>143.0</ele><time>2026-04-06T08:13:23.998Z</time></trkpt><trkpt lat="44.84247697158358" lon="9.9224567082862"><ele>143.0</ele><time>2026-04-06T08:13:24.998Z</time></trkpt><trkpt lat="44.84243105881336" lon="9.922536684227495"><ele>143.0</ele><time>2026-04-06T08:13:25.998Z</time></trkpt><trkpt lat="44.84238024915387" lon="9.92261208905176"><ele>143.0</ele><time>2026-04-06T08:13:26.998Z</time></trkpt><trkpt lat="44.842322120382136" lon="9.92268400680738"><ele>143.0</ele><time>2026-04-06T08:13:27.998Z</time></trkpt><trkpt lat="44.84226168642504" lon="9.922751568573158"><ele>143.0</ele><time>2026-04-06T08:13:28.998Z</time></trkpt><trkpt lat="44.84219940376682" lon="9.922814300485227"><ele>143.0</ele><time>2026-04-06T08:13:29.998Z</time></trkpt><trkpt lat="44.84213119706739" lon="9.922853338043518"><ele>142.7142857142857</ele><time>2026-04-06T08:13:30.997Z</time></trkpt><trkpt lat="44.84206118509904" lon="9.922859862611"><ele>142.42857142857142</ele><time>2026-04-06T08:13:31.997Z</time></trkpt><trkpt lat="44.84198781388338" lon="9.922842563830192"><ele>142.14285714285714</ele><time>2026-04-06T08:13:33Z</time></trkpt><trkpt lat="44.84192338493855" lon="9.92281317392313"><ele>141.85714285714283</ele><time>2026-04-06T08:13:34Z</time></trkpt><trkpt lat="44.84186484672924" lon="9.92275529996761"><ele>141.57142857142856</ele><time>2026-04-06T08:13:35Z</time></trkpt><trkpt lat="44.84180006100016" lon="9.922719583898061"><ele>141.28571428571428</ele><time>2026-04-06T08:13:36Z</time></trkpt><trkpt lat="44.84173096835908" lon="9.922682791549645"><ele>141.0</ele><time>2026-04-06T08:13:37Z</time></trkpt><trkpt lat="44.8416629345496" lon="9.922648377318884"><ele>141.0</ele><time>2026-04-06T08:13:38Z</time></trkpt><trkpt lat="44.84159379855899" lon="9.922614930198733"><ele>141.0</ele><time>2026-04-06T08:13:39Z</time></trkpt><trkpt lat="44.841526025283954" lon="9.922596788528644"><ele>141.0</ele><time>2026-04-06T08:13:40Z</time></trkpt><trkpt lat="44.84146521746882" lon="9.922543941142852"><ele>141.0</ele><time>2026-04-06T08:13:41Z</time></trkpt><trkpt lat="44.84142555764815" lon="9.922459778446214"><ele>141.0</ele><time>2026-04-06T08:13:42Z</time></trkpt><trkpt lat="44.84138308187681" lon="9.922383392476371"><ele>141.0</ele><time>2026-04-06T08:13:43Z</time></trkpt><trkpt lat="44.84134113998161" lon="9.922304493032833"><ele>141.0</ele><time>2026-04-06T08:13:44Z</time></trkpt><trkpt lat="44.84130271869253" lon="9.922226149705839"><ele>141.42857142857144</ele><time>2026-04-06T08:13:45Z</time></trkpt><trkpt lat="44.841265090416215" lon="9.922144498231063"><ele>141.85714285714286</ele><time>2026-04-06T08:13:46Z</time></trkpt><trkpt lat="44.84122754557434" lon="9.922063027776517"><ele>142.28571428571428</ele><time>2026-04-06T08:13:47Z</time></trkpt><trkpt lat="44.84119072851352" lon="9.92198252005133"><ele>142.71428571428572</ele><time>2026-04-06T08:13:48Z</time></trkpt><trkpt lat="44.84115351473022" lon="9.921899427401987"><ele>143.14285714285714</ele><time>2026-04-06T08:13:49Z</time></trkpt><trkpt lat="44.84111714657787" lon="9.921818222889026"><ele>143.57142857142858</ele><time>2026-04-06T08:13:49.999Z</time></trkpt><trkpt lat="44.84108140325817" lon="9.921738413604515"><ele>144.0</ele><time>2026-04-06T08:13:50.999Z</time></trkpt><trkpt lat="44.84104541816202" lon="9.921658064436004"><ele>144.0</ele><time>2026-04-06T08:13:51.999Z</time></trkpt><trkpt lat="44.84101027164118" lon="9.921579062525547"><ele>144.0</ele><time>2026-04-06T08:13:52.999Z</time></trkpt><trkpt lat="44.84097707119246" lon="9.92150354219747"><ele>144.0</ele><time>2026-04-06T08:13:53.999Z</time></trkpt><trkpt lat="44.8409248622943" lon="9.921364654642444"><ele>144.0</ele><time>2026-04-06T08:13:55.999Z</time></trkpt><trkpt lat="44.84088506547429" lon="9.921241867178832"><ele>144.0</ele><time>2026-04-06T08:13:57.999Z</time></trkpt><trkpt lat="44.84085279095646" lon="9.921130533019822"><ele>144.0</ele><time>2026-04-06T08:13:59.999Z</time></trkpt><trkpt lat="44.84082268716738" lon="9.921025271892653"><ele>144.83333333333334</ele><time>2026-04-06T08:14:01.999Z</time></trkpt><trkpt lat="44.84077270618874" lon="9.92094647151741"><ele>145.66666666666666</ele><time>2026-04-06T08:14:03.999Z</time></trkpt><trkpt lat="44.84074441808757" lon="9.920822418507738"><ele>146.5</ele><time>2026-04-06T08:14:06.999Z</time></trkpt><trkpt lat="44.84070427025379" lon="9.920716536611078"><ele>147.33333333333331</ele><time>2026-04-06T08:14:09.999Z</time></trkpt><trkpt lat="44.84063804194276" lon="9.920638438429979"><ele>148.16666666666666</ele><time>2026-04-06T08:14:12.999Z</time></trkpt><trkpt lat="44.84056020678887" lon="9.920570776928527"><ele>149.0</ele><time>2026-04-06T08:14:15.999Z</time></trkpt><trkpt lat="44.8404818202422" lon="9.920502441782684"><ele>149.0</ele><time>2026-04-06T08:14:18.999Z</time></trkpt><trkpt lat="44.84039974511622" lon="9.920444271720113"><ele>149.0</ele><time>2026-04-06T08:14:21.999Z</time></trkpt><trkpt lat="44.840311773595516" lon="9.920412280064957"><ele>149.0</ele><time>2026-04-06T08:14:24.999Z</time></trkpt><trkpt lat="44.84024859365895" lon="9.920416289104583"><ele>149.0</ele><time>2026-04-06T08:14:26.999Z</time></trkpt><trkpt lat="44.84018856198133" lon="9.920465031944863"><ele>149.0</ele><time>2026-04-06T08:14:28.999Z</time></trkpt><trkpt lat="44.84013279380196" lon="9.920535491258091"><ele>149.0</ele><time>2026-04-06T08:14:30.999Z</time></trkpt><trkpt lat="44.840089074267674" lon="9.920609068116713"><ele>150.5</ele><time>2026-04-06T08:14:32.999Z</time></trkpt><trkpt lat="44.84004681016298" lon="9.920677311986044"><ele>152.0</ele><time>2026-04-06T08:14:34.999Z</time></trkpt><trkpt lat="44.84000144167409" lon="9.920742568937163"><ele>153.5</ele><time>2026-04-06T08:14:36.999Z</time></trkpt><trkpt lat="44.83994275562803" lon="9.920838200940421"><ele>155.0</ele><time>2026-04-06T08:14:39.999Z</time></trkpt><trkpt lat="44.839890402194925" lon="9.920927351259392"><ele>156.5</ele><time>2026-04-06T08:14:42.998Z</time></trkpt><trkpt lat="44.839834362621765" lon="9.921009885988376"><ele>158.0</ele><time>2026-04-06T08:14:45.998Z</time></trkpt><trkpt lat="44.839781359985615" lon="9.921090024153024"><ele>158.83333333333331</ele><time>2026-04-06T08:14:48.998Z</time></trkpt><trkpt lat="44.83972203339433" lon="9.921162877802686"><ele>159.66666666666666</ele><time>2026-04-06T08:14:51.998Z</time></trkpt><trkpt lat="44.839661948582815" lon="9.921236323371156"><ele>160.5</ele><time>2026-04-06T08:14:54.998Z</time></trkpt><trkpt lat="44.839605241279706" lon="9.921312575230665"><ele>161.33333333333334</ele><time>2026-04-06T08:14:57.998Z</time></trkpt><trkpt lat="44.83954412147317" lon="9.921385198811615"><ele>162.16666666666669</ele><time>2026-04-06T08:15:00.998Z</time></trkpt><trkpt lat="44.83948461998778" lon="9.921469627969337"><ele>163.0</ele><time>2026-04-06T08:15:03.998Z</time></trkpt><trkpt lat="44.83942722908379" lon="9.92154716223148"><ele>163.0</ele><time>2026-04-06T08:15:06.998Z</time></trkpt><trkpt lat="44.839364910761255" lon="9.921623974630842"><ele>163.0</ele><time>2026-04-06T08:15:09.998Z</time></trkpt><trkpt lat="44.83931251830899" lon="9.921686601134457"><ele>163.0</ele><time>2026-04-06T08:15:12.998Z</time></trkpt><trkpt lat="44.839234648798026" lon="9.921787659025698"><ele>163.0</ele><time>2026-04-06T08:15:15.998Z</time></trkpt><trkpt lat="44.83917818736871" lon="9.921859719453877"><ele>163.0</ele><time>2026-04-06T08:15:18.998Z</time></trkpt><trkpt lat="44.83910450643773" lon="9.921946863276462"><ele>163.0</ele><time>2026-04-06T08:15:21.998Z</time></trkpt><trkpt lat="44.83903192668611" lon="9.922017656334363"><ele>165.0</ele><time>2026-04-06T08:15:24.998Z</time></trkpt><trkpt lat="44.838964677901195" lon="9.922061203096106"><ele>167.0</ele><time>2026-04-06T08:15:27.998Z</time></trkpt><trkpt lat="44.83889662830276" lon="9.922095226818211"><ele>169.0</ele><time>2026-04-06T08:15:30.998Z</time></trkpt><trkpt lat="44.83882346744256" lon="9.92212673319689"><ele>171.0</ele><time>2026-04-06T08:15:34.997Z</time></trkpt><trkpt lat="44.838752110266284" lon="9.922193820062414"><ele>173.0</ele><time>2026-04-06T08:15:39Z</time></trkpt><trkpt lat="44.83871466056391" lon="9.922282675076016"><ele>175.0</ele><time>2026-04-06T08:15:42Z</time></trkpt><trkpt lat="44.83871589328784" lon="9.922371735078578"><ele>177.0</ele><time>2026-04-06T08:15:45Z</time></trkpt><trkpt lat="44.83873992745279" lon="9.922460019524252"><ele>177.0</ele><time>2026-04-06T08:15:48Z</time></trkpt><trkpt lat="44.838790188603575" lon="9.922541519736876"><ele>177.0</ele><time>2026-04-06T08:15:51Z</time></trkpt><trkpt lat="44.83886270378037" lon="9.922581879162635"><ele>177.0</ele><time>2026-04-06T08:15:53.999Z</time></trkpt><trkpt lat="44.83894680204711" lon="9.92258708074962"><ele>177.0</ele><time>2026-04-06T08:15:56.999Z</time></trkpt><trkpt lat="44.839047056555835" lon="9.922576096742326"><ele>177.0</ele><time>2026-04-06T08:15:59.999Z</time></trkpt><trkpt lat="44.83912556335069" lon="9.922568822019912"><ele>177.0</ele><time>2026-04-06T08:16:02.999Z</time></trkpt><trkpt lat="44.839192280898715" lon="9.922578328165564"><ele>175.66666666666666</ele><time>2026-04-06T08:16:04.999Z</time></trkpt><trkpt lat="44.8392671029261" lon="9.922631839374816"><ele>174.33333333333334</ele><time>2026-04-06T08:16:07.999Z</time></trkpt><trkpt lat="44.83932557480561" lon="9.922730090675593"><ele>173.0</ele><time>2026-04-06T08:16:10.999Z</time></trkpt><trkpt lat="44.83935456818413" lon="9.922818679304276"><ele>171.66666666666669</ele><time>2026-04-06T08:16:12.999Z</time></trkpt><trkpt lat="44.839349506524826" lon="9.92292895081198"><ele>170.33333333333334</ele><time>2026-04-06T08:16:15.999Z</time></trkpt><trkpt lat="44.83933848416185" lon="9.923023408625712"><ele>169.0</ele><time>2026-04-06T08:16:18.999Z</time></trkpt><trkpt lat="44.83931603872494" lon="9.923120976203672"><ele>171.83333333333334</ele><time>2026-04-06T08:16:20.999Z</time></trkpt><trkpt lat="44.839296714558415" lon="9.923243018721783"><ele>174.66666666666669</ele><time>2026-04-06T08:16:23.999Z</time></trkpt><trkpt lat="44.839267890827756" lon="9.923368464302175"><ele>177.5</ele><time>2026-04-06T08:16:26.999Z</time></trkpt><trkpt lat="44.83924229669407" lon="9.923489893733732"><ele>180.33333333333334</ele><time>2026-04-06T08:16:29.999Z</time></trkpt><trkpt lat="44.839219749405345" lon="9.92360555915954"><ele>183.16666666666666</ele><time>2026-04-06T08:16:32.999Z</time></trkpt><trkpt lat="44.83920563452359" lon="9.9237176325451"><ele>186.0</ele><time>2026-04-06T08:16:35.999Z</time></trkpt><trkpt lat="44.83919832310816" lon="9.923824190851398"><ele>187.33333333333334</ele><time>2026-04-06T08:16:38.999Z</time></trkpt><trkpt lat="44.83919181936884" lon="9.923930462563412"><ele>188.66666666666669</ele><time>2026-04-06T08:16:41.999Z</time></trkpt><trkpt lat="44.83918963283929" lon="9.924049667956504"><ele>190.0</ele><time>2026-04-06T08:16:45.999Z</time></trkpt><trkpt lat="44.839186575575575" lon="9.924153479478854"><ele>191.33333333333334</ele><time>2026-04-06T08:16:48.998Z</time></trkpt><trkpt lat="44.83917013485003" lon="9.924260037669834"><ele>192.66666666666669</ele><time>2026-04-06T08:16:51.998Z</time></trkpt><trkpt lat="44.8391358542571" lon="9.924347361613583"><ele>194.0</ele><time>2026-04-06T08:16:54.998Z</time></trkpt><trkpt lat="44.839073254056125" lon="9.924386699960014"><ele>194.0</ele><time>2026-04-06T08:16:57.998Z</time></trkpt><trkpt lat="44.838998772373564" lon="9.924335687184254"><ele>194.0</ele><time>2026-04-06T08:17:01.998Z</time></trkpt><trkpt lat="44.83893913153254" lon="9.9242761933297"><ele>194.0</ele><time>2026-04-06T08:17:05.998Z</time></trkpt><trkpt lat="44.83888860710382" lon="9.924219721131504"><ele>194.0</ele><time>2026-04-06T08:17:08.998Z</time></trkpt><trkpt lat="44.838823555403565" lon="9.924145719546313"><ele>194.0</ele><time>2026-04-06T08:17:11.998Z</time></trkpt><trkpt lat="44.83877133965049" lon="9.924091504771413"><ele>194.0</ele><time>2026-04-06T08:17:14.998Z</time></trkpt><trkpt lat="44.838707481618655" lon="9.924027648314544"><ele>194.0</ele><time>2026-04-06T08:17:18.999Z</time></trkpt><trkpt lat="44.83864960834318" lon="9.923958423748557"><ele>194.0</ele><time>2026-04-06T08:17:22.999Z</time></trkpt><trkpt lat="44.838598364351725" lon="9.923906558909765"><ele>194.0</ele><time>2026-04-06T08:17:25.999Z</time></trkpt><trkpt lat="44.83854203046778" lon="9.923858957868212"><ele>194.0</ele><time>2026-04-06T08:17:28.999Z</time></trkpt><trkpt lat="44.83847826967371" lon="9.923799152404117"><ele>194.0</ele><time>2026-04-06T08:17:32.999Z</time></trkpt><trkpt lat="44.838418879178484" lon="9.923744936174405"><ele>194.0</ele><time>2026-04-06T08:17:35.999Z</time></trkpt><trkpt lat="44.83835440087971" lon="9.923700431972106"><ele>194.0</ele><time>2026-04-06T08:17:39.998Z</time></trkpt><trkpt lat="44.838291897988164" lon="9.9236756488967"><ele>194.0</ele><time>2026-04-06T08:17:42.998Z</time></trkpt><trkpt lat="44.83822251096579" lon="9.923670173968619"><ele>196.57142857142856</ele><time>2026-04-06T08:17:46Z</time></trkpt><trkpt lat="44.838154535954494" lon="9.923697131678196"><ele>199.14285714285717</ele><time>2026-04-06T08:17:49Z</time></trkpt><trkpt lat="44.83810576467912" lon="9.92376282273369"><ele>201.71428571428572</ele><time>2026-04-06T08:17:52Z</time></trkpt><trkpt lat="44.83807877278658" lon="9.923859147644224"><ele>204.28571428571428</ele><time>2026-04-06T08:17:55Z</time></trkpt><trkpt lat="44.83808630239683" lon="9.923950956409314"><ele>206.85714285714283</ele><time>2026-04-06T08:17:58Z</time></trkpt><trkpt lat="44.83810143637541" lon="9.924039430495332"><ele>209.42857142857144</ele><time>2026-04-06T08:18:01Z</time></trkpt><trkpt lat="44.83812427356242" lon="9.924132398545614"><ele>212.0</ele><time>2026-04-06T08:18:04Z</time></trkpt><trkpt lat="44.838148786050844" lon="9.924220494509653"><ele>212.66666666666669</ele><time>2026-04-06T08:18:07Z</time></trkpt><trkpt lat="44.83816999363314" lon="9.924316782111354"><ele>213.33333333333334</ele><time>2026-04-06T08:18:10Z</time></trkpt><trkpt lat="44.838188882101186" lon="9.924424070929286"><ele>214.0</ele><time>2026-04-06T08:18:13Z</time></trkpt><trkpt lat="44.838198734762905" lon="9.924528263607506"><ele>214.66666666666669</ele><time>2026-04-06T08:18:17Z</time></trkpt><trkpt lat="44.83821282248173" lon="9.924637181634068"><ele>215.33333333333334</ele><time>2026-04-06T08:18:20Z</time></trkpt><trkpt lat="44.83821818140813" lon="9.924755684415942"><ele>216.0</ele><time>2026-04-06T08:18:23Z</time></trkpt><trkpt lat="44.83821445511359" lon="9.924874395067706"><ele>216.0</ele><time>2026-04-06T08:18:26Z</time></trkpt><trkpt lat="44.83821215299197" lon="9.924998019404887"><ele>216.0</ele><time>2026-04-06T08:18:29Z</time></trkpt><trkpt lat="44.83822252710959" lon="9.925128579636965"><ele>216.0</ele><time>2026-04-06T08:18:32Z</time></trkpt><trkpt lat="44.83824289527927" lon="9.925224955414498"><ele>216.0</ele><time>2026-04-06T08:18:34Z</time></trkpt><trkpt lat="44.83828658350484" lon="9.925387403083187"><ele>216.0</ele><time>2026-04-06T08:18:36Z</time></trkpt><trkpt lat="44.83832953494692" lon="9.92546978643945"><ele>216.0</ele><time>2026-04-06T08:18:38Z</time></trkpt><trkpt lat="44.838369195896526" lon="9.92555361070674"><ele>216.75</ele><time>2026-04-06T08:18:40Z</time></trkpt><trkpt lat="44.83841569448167" lon="9.925641847118744"><ele>217.5</ele><time>2026-04-06T08:18:41Z</time></trkpt><trkpt lat="44.83849145452688" lon="9.925741797020633"><ele>218.25</ele><time>2026-04-06T08:18:44Z</time></trkpt><trkpt lat="44.83862803936708" lon="9.925944519076305"><ele>219.0</ele><time>2026-04-06T08:18:47Z</time></trkpt><trkpt lat="44.83870493221461" lon="9.926039868374106"><ele>219.0</ele><time>2026-04-06T08:18:49Z</time></trkpt><trkpt lat="44.83876492384259" lon="9.926169334402452"><ele>218.99999999999997</ele><time>2026-04-06T08:18:50.999Z</time></trkpt><trkpt lat="44.83880069956328" lon="9.9263235007675"><ele>218.99999999999997</ele><time>2026-04-06T08:18:52.999Z</time></trkpt><trkpt lat="44.83884177586441" lon="9.926454586817997"><ele>219.0</ele><time>2026-04-06T08:18:54.999Z</time></trkpt><trkpt lat="44.838883655334314" lon="9.926584029099034"><ele>219.0</ele><time>2026-04-06T08:18:56.999Z</time></trkpt><trkpt lat="44.83892272200886" lon="9.926708358212775"><ele>220.33333333333334</ele><time>2026-04-06T08:18:58.999Z</time></trkpt><trkpt lat="44.8389606008817" lon="9.926828907154505"><ele>221.66666666666669</ele><time>2026-04-06T08:19:00.999Z</time></trkpt><trkpt lat="44.83899194059812" lon="9.926928645334845"><ele>223.0</ele><time>2026-04-06T08:19:02.999Z</time></trkpt><trkpt lat="44.83903994929849" lon="9.927059140266355"><ele>224.33333333333334</ele><time>2026-04-06T08:19:05.999Z</time></trkpt><trkpt lat="44.83907136229419" lon="9.927159968083712"><ele>225.66666666666669</ele><time>2026-04-06T08:19:07.999Z</time></trkpt><trkpt lat="44.83910092153687" lon="9.927259056284509"><ele>227.0</ele><time>2026-04-06T08:19:09.999Z</time></trkpt><trkpt lat="44.83913014394456" lon="9.927361254379619"><ele>227.0</ele><time>2026-04-06T08:19:11.999Z</time></trkpt><trkpt lat="44.83915983024193" lon="9.927459789297435"><ele>227.00000000000003</ele><time>2026-04-06T08:19:14.999Z</time></trkpt><trkpt lat="44.83918574122715" lon="9.927543247822115"><ele>227.0</ele><time>2026-04-06T08:19:15.999Z</time></trkpt><trkpt lat="44.83921093797138" lon="9.92762779584555"><ele>227.0</ele><time>2026-04-06T08:19:17.999Z</time></trkpt><trkpt lat="44.83923910877067" lon="9.92770925107643"><ele>227.00000000000003</ele><time>2026-04-06T08:19:18.999Z</time></trkpt><trkpt lat="44.83927055376961" lon="9.927799556605272"><ele>227.0</ele><time>2026-04-06T08:19:20.999Z</time></trkpt><trkpt lat="44.83930768094789" lon="9.927896760392434"><ele>227.0</ele><time>2026-04-06T08:19:22.999Z</time></trkpt><trkpt lat="44.8393484815037" lon="9.927989307460107"><ele>227.33333333333334</ele><time>2026-04-06T08:19:24.999Z</time></trkpt><trkpt lat="44.83938190850926" lon="9.92808950881499"><ele>227.66666666666669</ele><time>2026-04-06T08:19:26.999Z</time></trkpt><trkpt lat="44.83941507772881" lon="9.928190348495924"><ele>228.0</ele><time>2026-04-06T08:19:28.999Z</time></trkpt><trkpt lat="44.83945273856374" lon="9.928296596589199"><ele>228.33333333333331</ele><time>2026-04-06T08:19:30.999Z</time></trkpt><trkpt lat="44.83948431970673" lon="9.928403272387524"><ele>228.66666666666666</ele><time>2026-04-06T08:19:32.999Z</time></trkpt><trkpt lat="44.83950114758456" lon="9.928521069362104"><ele>229.0</ele><time>2026-04-06T08:19:34.999Z</time></trkpt><trkpt lat="44.839508774775155" lon="9.928657481390289"><ele>229.0</ele><time>2026-04-06T08:19:36.999Z</time></trkpt><trkpt lat="44.83951976786854" lon="9.928794993206242"><ele>228.99999999999997</ele><time>2026-04-06T08:19:38.999Z</time></trkpt><trkpt lat="44.8395319496287" lon="9.928928399161334"><ele>228.99999999999997</ele><time>2026-04-06T08:19:40.999Z</time></trkpt><trkpt lat="44.839546414486435" lon="9.929059120719906"><ele>229.0</ele><time>2026-04-06T08:19:42.998Z</time></trkpt><trkpt lat="44.83955986626764" lon="9.9291822774148"><ele>229.0</ele><time>2026-04-06T08:19:44.998Z</time></trkpt><trkpt lat="44.839566137212636" lon="9.929296909167814"><ele>228.83333333333331</ele><time>2026-04-06T08:19:46.998Z</time></trkpt><trkpt lat="44.83958161849865" lon="9.929439805144204"><ele>228.66666666666666</ele><time>2026-04-06T08:19:50Z</time></trkpt><trkpt lat="44.83959624807294" lon="9.92954938897249"><ele>228.5</ele><time>2026-04-06T08:19:52Z</time></trkpt><trkpt lat="44.83961307682964" lon="9.929665888692808"><ele>228.33333333333331</ele><time>2026-04-06T08:19:54Z</time></trkpt><trkpt lat="44.83962564807591" lon="9.92977083886835"><ele>228.16666666666666</ele><time>2026-04-06T08:19:55Z</time></trkpt><trkpt lat="44.83963382288589" lon="9.92987703413869"><ele>228.0</ele><time>2026-04-06T08:19:57Z</time></trkpt><trkpt lat="44.83964014958419" lon="9.929985104609177"><ele>227.25</ele><time>2026-04-06T08:19:58Z</time></trkpt><trkpt lat="44.83964511236563" lon="9.930132363870468"><ele>226.5</ele><time>2026-04-06T08:20:00Z</time></trkpt><trkpt lat="44.83964817959359" lon="9.930293173454261"><ele>225.75</ele><time>2026-04-06T08:20:02Z</time></trkpt><trkpt lat="44.83964213477593" lon="9.930453941090313"><ele>225.0</ele><time>2026-04-06T08:20:04Z</time></trkpt><trkpt lat="44.83963436788136" lon="9.930621797036821"><ele>225.0</ele><time>2026-04-06T08:20:06Z</time></trkpt><trkpt lat="44.839622349451" lon="9.930792355918022"><ele>225.0</ele><time>2026-04-06T08:20:08Z</time></trkpt><trkpt lat="44.83961610246446" lon="9.930959864686182"><ele>225.0</ele><time>2026-04-06T08:20:10Z</time></trkpt><trkpt lat="44.83961490803257" lon="9.93112335470881"><ele>225.0</ele><time>2026-04-06T08:20:12Z</time></trkpt><trkpt lat="44.839617323648454" lon="9.93128123337031"><ele>225.4</ele><time>2026-04-06T08:20:14Z</time></trkpt><trkpt lat="44.83962382279697" lon="9.931435176829616"><ele>225.8</ele><time>2026-04-06T08:20:16Z</time></trkpt><trkpt lat="44.83963289264944" lon="9.931582135003492"><ele>226.2</ele><time>2026-04-06T08:20:18Z</time></trkpt><trkpt lat="44.83964308632349" lon="9.931721012818974"><ele>226.6</ele><time>2026-04-06T08:20:20Z</time></trkpt><trkpt lat="44.839656377847014" lon="9.931862234228662"><ele>227.0</ele><time>2026-04-06T08:20:22Z</time></trkpt><trkpt lat="44.83967185371427" lon="9.932002170572725"><ele>227.0</ele><time>2026-04-06T08:20:24Z</time></trkpt><trkpt lat="44.83967939508519" lon="9.932130916156414"><ele>227.0</ele><time>2026-04-06T08:20:26Z</time></trkpt><trkpt lat="44.839684301702775" lon="9.932266281223258"><ele>227.0</ele><time>2026-04-06T08:20:28Z</time></trkpt><trkpt lat="44.83969558576861" lon="9.932397756241292"><ele>227.0</ele><time>2026-04-06T08:20:30Z</time></trkpt><trkpt lat="44.839707880956" lon="9.932545916271808"><ele>227.0</ele><time>2026-04-06T08:20:32Z</time></trkpt><trkpt lat="44.83972242369888" lon="9.932698358460206"><ele>227.0</ele><time>2026-04-06T08:20:34Z</time></trkpt><trkpt lat="44.83974684728091" lon="9.9328687519977"><ele>227.0</ele><time>2026-04-06T08:20:36Z</time></trkpt><trkpt lat="44.839787136897314" lon="9.933030932669249"><ele>227.0</ele><time>2026-04-06T08:20:38Z</time></trkpt><trkpt lat="44.839839559849544" lon="9.933192623166715"><ele>227.0</ele><time>2026-04-06T08:20:40Z</time></trkpt><trkpt lat="44.83988785819375" lon="9.933348624080018"><ele>226.57142857142858</ele><time>2026-04-06T08:20:42Z</time></trkpt><trkpt lat="44.83991723276933" lon="9.933427160633052"><ele>226.14285714285717</ele><time>2026-04-06T08:20:43Z</time></trkpt><trkpt lat="44.83995396319537" lon="9.93350918525467"><ele>225.71428571428572</ele><time>2026-04-06T08:20:44Z</time></trkpt><trkpt lat="44.83999619434255" lon="9.933593720293658"><ele>225.28571428571428</ele><time>2026-04-06T08:20:45Z</time></trkpt><trkpt lat="44.840039665010885" lon="9.933674607255034"><ele>224.85714285714286</ele><time>2026-04-06T08:20:46Z</time></trkpt><trkpt lat="44.84008429991177" lon="9.93376031069214"><ele>224.42857142857144</ele><time>2026-04-06T08:20:47Z</time></trkpt><trkpt lat="44.840128942644064" lon="9.933841401572602"><ele>224.0</ele><time>2026-04-06T08:20:48Z</time></trkpt><trkpt lat="44.8401679118004" lon="9.933923041030765"><ele>222.5</ele><time>2026-04-06T08:20:49Z</time></trkpt><trkpt lat="44.84022952285077" lon="9.934067988669831"><ele>221.0</ele><time>2026-04-06T08:20:51Z</time></trkpt><trkpt lat="44.84022115532445" lon="9.934215910318963"><ele>219.5</ele><time>2026-04-06T08:20:52.999Z</time></trkpt><trkpt lat="44.84011852225792" lon="9.934287619348076"><ele>218.0</ele><time>2026-04-06T08:20:54.999Z</time></trkpt><trkpt lat="44.84000822281764" lon="9.934357820407252"><ele>218.0</ele><time>2026-04-06T08:20:56.999Z</time></trkpt><trkpt lat="44.83995030490726" lon="9.934393800435103"><ele>218.0</ele><time>2026-04-06T08:20:57.999Z</time></trkpt><trkpt lat="44.839890456393306" lon="9.934433926734389"><ele>218.0</ele><time>2026-04-06T08:20:58.999Z</time></trkpt><trkpt lat="44.83983671734" lon="9.934494550270555"><ele>218.0</ele><time>2026-04-06T08:20:59.999Z</time></trkpt><trkpt lat="44.83978255654662" lon="9.934541613610728"><ele>218.0</ele><time>2026-04-06T08:21:00.999Z</time></trkpt><trkpt lat="44.839735418042004" lon="9.934609481329716"><ele>218.0</ele><time>2026-04-06T08:21:01.999Z</time></trkpt><trkpt lat="44.839702471966234" lon="9.934690641019174"><ele>218.0</ele><time>2026-04-06T08:21:02.999Z</time></trkpt><trkpt lat="44.83968940587691" lon="9.934778188230846"><ele>218.00000000000003</ele><time>2026-04-06T08:21:03.999Z</time></trkpt><trkpt lat="44.83970443855909" lon="9.934873813152754"><ele>218.0</ele><time>2026-04-06T08:21:04.999Z</time></trkpt><trkpt lat="44.83973657616124" lon="9.934951337359314"><ele>218.0</ele><time>2026-04-06T08:21:05.999Z</time></trkpt><trkpt lat="44.839773989718175" lon="9.935027344017373"><ele>218.0</ele><time>2026-04-06T08:21:06.999Z</time></trkpt><trkpt lat="44.83985113978136" lon="9.935165419787646"><ele>218.00000000000003</ele><time>2026-04-06T08:21:08.999Z</time></trkpt><trkpt lat="44.839892514180946" lon="9.935237538800395"><ele>218.0</ele><time>2026-04-06T08:21:09.999Z</time></trkpt><trkpt lat="44.83993444465742" lon="9.935311175984351"><ele>217.33333333333334</ele><time>2026-04-06T08:21:10.999Z</time></trkpt><trkpt lat="44.8399770272689" lon="9.935388678326836"><ele>216.66666666666669</ele><time>2026-04-06T08:21:11.999Z</time></trkpt><trkpt lat="44.840019029279695" lon="9.935476640756868"><ele>216.0</ele><time>2026-04-06T08:21:12.999Z</time></trkpt><trkpt lat="44.840060953869546" lon="9.93557169827668"><ele>215.33333333333331</ele><time>2026-04-06T08:21:13.999Z</time></trkpt><trkpt lat="44.84010617221969" lon="9.93567515645347"><ele>214.66666666666666</ele><time>2026-04-06T08:21:14.999Z</time></trkpt><trkpt lat="44.84014833925233" lon="9.935779539021173"><ele>214.0</ele><time>2026-04-06T08:21:15.999Z</time></trkpt><trkpt lat="44.84018901582013" lon="9.93589063576076"><ele>213.39999999999998</ele><time>2026-04-06T08:21:16.999Z</time></trkpt><trkpt lat="44.840226090018334" lon="9.936009259513938"><ele>212.79999999999998</ele><time>2026-04-06T08:21:17.999Z</time></trkpt><trkpt lat="44.84025733017171" lon="9.936130500543014"><ele>212.2</ele><time>2026-04-06T08:21:18.999Z</time></trkpt><trkpt lat="44.84027990510979" lon="9.936256175371255"><ele>211.60000000000002</ele><time>2026-04-06T08:21:19.999Z</time></trkpt><trkpt lat="44.840297783771334" lon="9.93638143259951"><ele>211.0</ele><time>2026-04-06T08:21:20.999Z</time></trkpt><trkpt lat="44.84031287407548" lon="9.93650368186729"><ele>210.99999999999997</ele><time>2026-04-06T08:21:21.999Z</time></trkpt><trkpt lat="44.84032454346638" lon="9.936622169101778"><ele>211.0</ele><time>2026-04-06T08:21:22.999Z</time></trkpt><trkpt lat="44.84034009962409" lon="9.936733449756575"><ele>211.0</ele><time>2026-04-06T08:21:23.999Z</time></trkpt><trkpt lat="44.84036025725839" lon="9.936844032644654"><ele>211.0</ele><time>2026-04-06T08:21:24.999Z</time></trkpt><trkpt lat="44.84038368872188" lon="9.936955463330358"><ele>210.99999999999997</ele><time>2026-04-06T08:21:25.999Z</time></trkpt><trkpt lat="44.84041055382168" lon="9.937061363365867"><ele>211.0</ele><time>2026-04-06T08:21:26.999Z</time></trkpt><trkpt lat="44.84043828803404" lon="9.93717128528"><ele>210.66666666666666</ele><time>2026-04-06T08:21:27.999Z</time></trkpt><trkpt lat="44.84046423417669" lon="9.937279717222621"><ele>210.33333333333331</ele><time>2026-04-06T08:21:28.999Z</time></trkpt><trkpt lat="44.840490522654626" lon="9.937390559486413"><ele>210.0</ele><time>2026-04-06T08:21:29.999Z</time></trkpt><trkpt lat="44.84051529365225" lon="9.937503277434889"><ele>209.66666666666669</ele><time>2026-04-06T08:21:30.999Z</time></trkpt><trkpt lat="44.840537121404836" lon="9.937615702859189"><ele>209.33333333333334</ele><time>2026-04-06T08:21:31.999Z</time></trkpt><trkpt lat="44.840551919783216" lon="9.93773796482939"><ele>209.0</ele><time>2026-04-06T08:21:32.999Z</time></trkpt><trkpt lat="44.84055929642507" lon="9.937866763926136"><ele>208.2</ele><time>2026-04-06T08:21:33.999Z</time></trkpt><trkpt lat="44.840565403397974" lon="9.937997384565664"><ele>207.39999999999998</ele><time>2026-04-06T08:21:34.999Z</time></trkpt><trkpt lat="44.840580137836994" lon="9.938133892317799"><ele>206.6</ele><time>2026-04-06T08:21:35.999Z</time></trkpt><trkpt lat="44.840610320346016" lon="9.938263528663894"><ele>205.8</ele><time>2026-04-06T08:21:36.999Z</time></trkpt><trkpt lat="44.84065337852129" lon="9.93838676998342"><ele>205.0</ele><time>2026-04-06T08:21:37.999Z</time></trkpt><trkpt lat="44.840703593479724" lon="9.938503741835033"><ele>203.8</ele><time>2026-04-06T08:21:38.999Z</time></trkpt><trkpt lat="44.840753682367136" lon="9.938618569735873"><ele>202.6</ele><time>2026-04-06T08:21:39.999Z</time></trkpt><trkpt lat="44.84079932406278" lon="9.938733618096117"><ele>201.39999999999998</ele><time>2026-04-06T08:21:40.999Z</time></trkpt><trkpt lat="44.840845534700385" lon="9.93884618327653"><ele>200.2</ele><time>2026-04-06T08:21:41.999Z</time></trkpt><trkpt lat="44.840892646874124" lon="9.938956272361878"><ele>199.0</ele><time>2026-04-06T08:21:42.999Z</time></trkpt><trkpt lat="44.840940783024294" lon="9.93906231645063"><ele>199.83333333333331</ele><time>2026-04-06T08:21:43.999Z</time></trkpt><trkpt lat="44.840985661807665" lon="9.939165545901604"><ele>200.66666666666666</ele><time>2026-04-06T08:21:44.999Z</time></trkpt><trkpt lat="44.841028261946725" lon="9.939263587375207"><ele>201.5</ele><time>2026-04-06T08:21:45.998Z</time></trkpt><trkpt lat="44.841070079743474" lon="9.939356246270682"><ele>202.33333333333331</ele><time>2026-04-06T08:21:46.998Z</time></trkpt><trkpt lat="44.841111954803964" lon="9.939444501494409"><ele>203.16666666666666</ele><time>2026-04-06T08:21:47.998Z</time></trkpt><trkpt lat="44.84114986513098" lon="9.93953120908876"><ele>204.0</ele><time>2026-04-06T08:21:48.998Z</time></trkpt><trkpt lat="44.841186119631715" lon="9.939618400503475"><ele>204.0</ele><time>2026-04-06T08:21:49.998Z</time></trkpt><trkpt lat="44.841221470974894" lon="9.939708706429341"><ele>204.0</ele><time>2026-04-06T08:21:50.998Z</time></trkpt><trkpt lat="44.84126056067873" lon="9.939797670938697"><ele>204.0</ele><time>2026-04-06T08:21:51.998Z</time></trkpt><trkpt lat="44.84129969339651" lon="9.939887501425083"><ele>204.0</ele><time>2026-04-06T08:21:52.998Z</time></trkpt><trkpt lat="44.84134026013649" lon="9.939977073293578"><ele>204.0</ele><time>2026-04-06T08:21:54Z</time></trkpt><trkpt lat="44.84138048107797" lon="9.94006766773016"><ele>204.0</ele><time>2026-04-06T08:21:55Z</time></trkpt><trkpt lat="44.841423096770114" lon="9.940157284719435"><ele>203.33333333333334</ele><time>2026-04-06T08:21:56Z</time></trkpt><trkpt lat="44.841464807634985" lon="9.940248663018389"><ele>202.66666666666669</ele><time>2026-04-06T08:21:57Z</time></trkpt><trkpt lat="44.84150799414565" lon="9.940340828270248"><ele>202.0</ele><time>2026-04-06T08:21:58Z</time></trkpt><trkpt lat="44.84155044070849" lon="9.940436542967314"><ele>201.33333333333334</ele><time>2026-04-06T08:21:59Z</time></trkpt><trkpt lat="44.841594236418146" lon="9.940536516734035"><ele>200.66666666666669</ele><time>2026-04-06T08:22:00Z</time></trkpt><trkpt lat="44.84163567430259" lon="9.940634399530714"><ele>200.0</ele><time>2026-04-06T08:22:01Z</time></trkpt><trkpt lat="44.84167678725988" lon="9.940732642878556"><ele>200.00000000000003</ele><time>2026-04-06T08:22:02Z</time></trkpt><trkpt lat="44.84171764403459" lon="9.94082935939723"><ele>200.0</ele><time>2026-04-06T08:22:03Z</time></trkpt><trkpt lat="44.84175776624407" lon="9.940925974657235"><ele>200.0</ele><time>2026-04-06T08:22:04Z</time></trkpt><trkpt lat="44.841799409021945" lon="9.94102320615325"><ele>200.0</ele><time>2026-04-06T08:22:05Z</time></trkpt><trkpt lat="44.84184006313933" lon="9.94111750657107"><ele>200.00000000000003</ele><time>2026-04-06T08:22:06Z</time></trkpt><trkpt lat="44.841882126316" lon="9.941210443928904"><ele>200.0</ele><time>2026-04-06T08:22:07Z</time></trkpt><trkpt lat="44.84192387068991" lon="9.941303456401823"><ele>200.16666666666669</ele><time>2026-04-06T08:22:08Z</time></trkpt><trkpt lat="44.84196480028742" lon="9.941395242361775"><ele>200.33333333333334</ele><time>2026-04-06T08:22:09Z</time></trkpt><trkpt lat="44.84200568213535" lon="9.941492129597131"><ele>200.5</ele><time>2026-04-06T08:22:10Z</time></trkpt><trkpt lat="44.8420495953237" lon="9.94159050077257"><ele>200.66666666666669</ele><time>2026-04-06T08:22:11Z</time></trkpt><trkpt lat="44.84209288279805" lon="9.941688915907342"><ele>200.83333333333334</ele><time>2026-04-06T08:22:12Z</time></trkpt><trkpt lat="44.842134847727344" lon="9.941787815363554"><ele>201.0</ele><time>2026-04-06T08:22:13Z</time></trkpt><trkpt lat="44.84217775477712" lon="9.941885301704263"><ele>201.0</ele><time>2026-04-06T08:22:14Z</time></trkpt><trkpt lat="44.84222258467461" lon="9.941978802667878"><ele>201.0</ele><time>2026-04-06T08:22:15Z</time></trkpt><trkpt lat="44.84226774717102" lon="9.942072419090909"><ele>201.0</ele><time>2026-04-06T08:22:16Z</time></trkpt><trkpt lat="44.84231273437593" lon="9.942167710051995"><ele>201.0</ele><time>2026-04-06T08:22:17Z</time></trkpt><trkpt lat="44.84235474343463" lon="9.942263547784554"><ele>201.0</ele><time>2026-04-06T08:22:18Z</time></trkpt><trkpt lat="44.84239746048864" lon="9.942358947358285"><ele>201.0</ele><time>2026-04-06T08:22:19Z</time></trkpt><trkpt lat="44.84244264415945" lon="9.9424528624332"><ele>201.0</ele><time>2026-04-06T08:22:20Z</time></trkpt><trkpt lat="44.842487774234876" lon="9.942546841200913"><ele>201.0</ele><time>2026-04-06T08:22:21Z</time></trkpt><trkpt lat="44.842531905093" lon="9.942639279277833"><ele>201.0</ele><time>2026-04-06T08:22:22Z</time></trkpt><trkpt lat="44.84257654973653" lon="9.942733926493922"><ele>201.0</ele><time>2026-04-06T08:22:23Z</time></trkpt><trkpt lat="44.842620270148984" lon="9.942830044393961"><ele>201.0</ele><time>2026-04-06T08:22:24Z</time></trkpt><trkpt lat="44.84266325993308" lon="9.942924540634504"><ele>201.0</ele><time>2026-04-06T08:22:25Z</time></trkpt><trkpt lat="44.84271075244725" lon="9.943015593683002"><ele>200.16666666666666</ele><time>2026-04-06T08:22:26Z</time></trkpt><trkpt lat="44.842758731302325" lon="9.943106231180908"><ele>199.33333333333331</ele><time>2026-04-06T08:22:27Z</time></trkpt><trkpt lat="44.84280674071534" lon="9.943197390777165"><ele>198.5</ele><time>2026-04-06T08:22:28Z</time></trkpt><trkpt lat="44.84285712973358" lon="9.943288010495932"><ele>197.66666666666666</ele><time>2026-04-06T08:22:29Z</time></trkpt><trkpt lat="44.84291180637878" lon="9.943371154439005"><ele>196.83333333333331</ele><time>2026-04-06T08:22:30Z</time></trkpt><trkpt lat="44.84296791926471" lon="9.943458371772559"><ele>196.0</ele><time>2026-04-06T08:22:31Z</time></trkpt><trkpt lat="44.84302945514294" lon="9.943538093798045"><ele>195.99999999999997</ele><time>2026-04-06T08:22:32Z</time></trkpt><trkpt lat="44.84309560319368" lon="9.94361592837332"><ele>196.0</ele><time>2026-04-06T08:22:33Z</time></trkpt><trkpt lat="44.8431640762784" lon="9.943689411868107"><ele>196.0</ele><time>2026-04-06T08:22:34Z</time></trkpt><trkpt lat="44.84323510739509" lon="9.943758719240357"><ele>196.0</ele><time>2026-04-06T08:22:35Z</time></trkpt><trkpt lat="44.84330853434913" lon="9.94382714293822"><ele>195.99999999999997</ele><time>2026-04-06T08:22:36Z</time></trkpt><trkpt lat="44.84338332519137" lon="9.943893284654257"><ele>196.0</ele><time>2026-04-06T08:22:37Z</time></trkpt><trkpt lat="44.84346107896337" lon="9.943959164198237"><ele>196.16666666666666</ele><time>2026-04-06T08:22:38Z</time></trkpt><trkpt lat="44.843536484422714" lon="9.94402347055329"><ele>196.33333333333331</ele><time>2026-04-06T08:22:39Z</time></trkpt><trkpt lat="44.8436109417001" lon="9.944090753555152"><ele>196.5</ele><time>2026-04-06T08:22:40Z</time></trkpt><trkpt lat="44.84368281956416" lon="9.94416129050711"><ele>196.66666666666669</ele><time>2026-04-06T08:22:41Z</time></trkpt><trkpt lat="44.843752358219014" lon="9.944236970261224"><ele>196.83333333333334</ele><time>2026-04-06T08:22:42Z</time></trkpt><trkpt lat="44.84382053626353" lon="9.944315857691628"><ele>197.0</ele><time>2026-04-06T08:22:43Z</time></trkpt><trkpt lat="44.843888245971954" lon="9.944393099088309"><ele>197.00000000000003</ele><time>2026-04-06T08:22:44Z</time></trkpt><trkpt lat="44.843954483629624" lon="9.944470406156036"><ele>197.0</ele><time>2026-04-06T08:22:45Z</time></trkpt><trkpt lat="44.844017538278294" lon="9.944552562531262"><ele>197.0</ele><time>2026-04-06T08:22:46Z</time></trkpt><trkpt lat="44.844079017471515" lon="9.944635516881954"><ele>197.0</ele><time>2026-04-06T08:22:47Z</time></trkpt><trkpt lat="44.844137974134306" lon="9.944721209637267"><ele>197.00000000000003</ele><time>2026-04-06T08:22:48Z</time></trkpt><trkpt lat="44.84418758388038" lon="9.94481746370409"><ele>197.0</ele><time>2026-04-06T08:22:49Z</time></trkpt><trkpt lat="44.84423374408492" lon="9.944914277068984"><ele>197.00000000000003</ele><time>2026-04-06T08:22:50Z</time></trkpt><trkpt lat="44.844275211410505" lon="9.945016486524619"><ele>197.0</ele><time>2026-04-06T08:22:51Z</time></trkpt><trkpt lat="44.84431125602399" lon="9.945120271710929"><ele>197.0</ele><time>2026-04-06T08:22:52Z</time></trkpt><trkpt lat="44.84434657737356" lon="9.945223554014952"><ele>197.0</ele><time>2026-04-06T08:22:53Z</time></trkpt><trkpt lat="44.84438183250695" lon="9.945326760841663"><ele>197.00000000000003</ele><time>2026-04-06T08:22:54Z</time></trkpt><trkpt lat="44.844417821028344" lon="9.945428666339629"><ele>197.0</ele><time>2026-04-06T08:22:55Z</time></trkpt><trkpt lat="44.844454948495354" lon="9.945527467371457"><ele>196.33333333333334</ele><time>2026-04-06T08:22:55.999Z</time></trkpt><trkpt lat="44.844491172799145" lon="9.945625943648778"><ele>195.66666666666669</ele><time>2026-04-06T08:22:56.999Z</time></trkpt><trkpt lat="44.84452582669196" lon="9.945723676211603"><ele>195.0</ele><time>2026-04-06T08:22:57.999Z</time></trkpt><trkpt lat="44.844560010230204" lon="9.945821258458253"><ele>194.33333333333331</ele><time>2026-04-06T08:22:58.999Z</time></trkpt><trkpt lat="44.844596056898666" lon="9.945915352865576"><ele>193.66666666666666</ele><time>2026-04-06T08:22:59.999Z</time></trkpt><trkpt lat="44.84463396652228" lon="9.946007653252519"><ele>193.0</ele><time>2026-04-06T08:23:00.999Z</time></trkpt><trkpt lat="44.84466909940594" lon="9.946099987787044"><ele>192.60000000000002</ele><time>2026-04-06T08:23:01.999Z</time></trkpt><trkpt lat="44.84469979758592" lon="9.946193561288881"><ele>192.20000000000002</ele><time>2026-04-06T08:23:02.999Z</time></trkpt><trkpt lat="44.84472416219307" lon="9.946280740503804"><ele>191.8</ele><time>2026-04-06T08:23:03.999Z</time></trkpt><trkpt lat="44.84478151821121" lon="9.946409186859558"><ele>191.4</ele><time>2026-04-06T08:23:05.999Z</time></trkpt><trkpt lat="44.84494090453367" lon="9.946374965247335"><ele>191.0</ele><time>2026-04-06T08:23:08.999Z</time></trkpt><trkpt lat="44.84503838300176" lon="9.94628070963818"><ele>190.25</ele><time>2026-04-06T08:23:10.999Z</time></trkpt><trkpt lat="44.84514029490991" lon="9.946179738672999"><ele>189.5</ele><time>2026-04-06T08:23:12.999Z</time></trkpt><trkpt lat="44.845234755005976" lon="9.946088518413239"><ele>188.75</ele><time>2026-04-06T08:23:14.999Z</time></trkpt><trkpt lat="44.84532296020109" lon="9.946007008392773"><ele>188.0</ele><time>2026-04-06T08:23:16.999Z</time></trkpt><trkpt lat="44.84542857426221" lon="9.945915947273363"><ele>187.5</ele><time>2026-04-06T08:23:18.999Z</time></trkpt><trkpt lat="44.84548770990276" lon="9.945872421763191"><ele>187.0</ele><time>2026-04-06T08:23:19.999Z</time></trkpt><trkpt lat="44.84555517352592" lon="9.945835922521153"><ele>186.5</ele><time>2026-04-06T08:23:20.999Z</time></trkpt><trkpt lat="44.84563111104577" lon="9.945823493715594"><ele>186.0</ele><time>2026-04-06T08:23:21.999Z</time></trkpt><trkpt lat="44.845721543809425" lon="9.94580764323745"><ele>185.5</ele><time>2026-04-06T08:23:22.999Z</time></trkpt><trkpt lat="44.84582047707875" lon="9.945811160035262"><ele>185.0</ele><time>2026-04-06T08:23:23.999Z</time></trkpt><trkpt lat="44.84592537356247" lon="9.945849647490732"><ele>183.5</ele><time>2026-04-06T08:23:24.999Z</time></trkpt><trkpt lat="44.8460423079884" lon="9.945868110099683"><ele>182.0</ele><time>2026-04-06T08:23:25.999Z</time></trkpt><trkpt lat="44.846150301185524" lon="9.945925311727633"><ele>180.5</ele><time>2026-04-06T08:23:26.999Z</time></trkpt><trkpt lat="44.846253508132335" lon="9.945989535966275"><ele>179.0</ele><time>2026-04-06T08:23:27.999Z</time></trkpt><trkpt lat="44.846354122111364" lon="9.946056449062292"><ele>178.6</ele><time>2026-04-06T08:23:28.999Z</time></trkpt><trkpt lat="44.84644323676273" lon="9.94615003468643"><ele>178.2</ele><time>2026-04-06T08:23:29.999Z</time></trkpt><trkpt lat="44.846542894462004" lon="9.946203948394468"><ele>177.79999999999998</ele><time>2026-04-06T08:23:30.999Z</time></trkpt><trkpt lat="44.84662831265166" lon="9.946290519418305"><ele>177.39999999999998</ele><time>2026-04-06T08:23:31.999Z</time></trkpt><trkpt lat="44.846702455552226" lon="9.946398831377246"><ele>177.0</ele><time>2026-04-06T08:23:32.999Z</time></trkpt><trkpt lat="44.84675845066049" lon="9.946520788132105"><ele>176.8</ele><time>2026-04-06T08:23:33.999Z</time></trkpt><trkpt lat="44.84679576609739" lon="9.9466509430265"><ele>176.6</ele><time>2026-04-06T08:23:34.999Z</time></trkpt><trkpt lat="44.84682772965099" lon="9.946782228088633"><ele>176.4</ele><time>2026-04-06T08:23:35.999Z</time></trkpt><trkpt lat="44.84686533833838" lon="9.94690728138735"><ele>176.20000000000002</ele><time>2026-04-06T08:23:36.999Z</time></trkpt><trkpt lat="44.84690077571443" lon="9.94702664336897"><ele>176.0</ele><time>2026-04-06T08:23:37.999Z</time></trkpt><trkpt lat="44.84693362981479" lon="9.94714064317889"><ele>176.33333333333331</ele><time>2026-04-06T08:23:38.999Z</time></trkpt><trkpt lat="44.84696265271189" lon="9.947243104150605"><ele>176.66666666666666</ele><time>2026-04-06T08:23:39.999Z</time></trkpt><trkpt lat="44.84698977388165" lon="9.94733945998535"><ele>177.0</ele><time>2026-04-06T08:23:40.999Z</time></trkpt><trkpt lat="44.847013503668855" lon="9.947429303430642"><ele>177.33333333333334</ele><time>2026-04-06T08:23:41.999Z</time></trkpt><trkpt lat="44.847062861289665" lon="9.947583391206962"><ele>177.66666666666669</ele><time>2026-04-06T08:23:43.999Z</time></trkpt><trkpt lat="44.84710824974237" lon="9.94772258047952"><ele>178.0</ele><time>2026-04-06T08:23:45.999Z</time></trkpt><trkpt lat="44.84715036757742" lon="9.94786634742663"><ele>178.0</ele><time>2026-04-06T08:23:47.999Z</time></trkpt><trkpt lat="44.84720073008217" lon="9.948009954541273"><ele>178.0</ele><time>2026-04-06T08:23:49.998Z</time></trkpt><trkpt lat="44.847267924694734" lon="9.948160242715973"><ele>178.0</ele><time>2026-04-06T08:23:51.998Z</time></trkpt><trkpt lat="44.84732967870033" lon="9.9483205039677"><ele>178.0</ele><time>2026-04-06T08:23:53.998Z</time></trkpt><trkpt lat="44.84738375603074" lon="9.948480802705562"><ele>177.99999999999997</ele><time>2026-04-06T08:23:55.998Z</time></trkpt><trkpt lat="44.84741230683644" lon="9.94856200811758"><ele>178.0</ele><time>2026-04-06T08:23:56.998Z</time></trkpt><trkpt lat="44.84743816163682" lon="9.948644853797147"><ele>178.0</ele><time>2026-04-06T08:23:57.998Z</time></trkpt><trkpt lat="44.84746634490156" lon="9.94873028967084"><ele>178.0</ele><time>2026-04-06T08:23:58.998Z</time></trkpt><trkpt lat="44.84749396448592" lon="9.948813499241824"><ele>178.0</ele><time>2026-04-06T08:24:00Z</time></trkpt><trkpt lat="44.847524632855624" lon="9.948896403178638"><ele>177.99999999999997</ele><time>2026-04-06T08:24:01Z</time></trkpt><trkpt lat="44.847554165599966" lon="9.948978905924875"><ele>178.0</ele><time>2026-04-06T08:24:02Z</time></trkpt><trkpt lat="44.84758388291815" lon="9.949062958665197"><ele>177.99999999999997</ele><time>2026-04-06T08:24:03Z</time></trkpt><trkpt lat="44.847611421740545" lon="9.949147547137521"><ele>178.0</ele><time>2026-04-06T08:24:04Z</time></trkpt><trkpt lat="44.847638741816816" lon="9.94923180619336"><ele>178.0</ele><time>2026-04-06T08:24:05Z</time></trkpt><trkpt lat="44.847665469932465" lon="9.949318571031798"><ele>178.0</ele><time>2026-04-06T08:24:06Z</time></trkpt><trkpt lat="44.84769103113344" lon="9.949403146241062"><ele>178.0</ele><time>2026-04-06T08:24:07Z</time></trkpt><trkpt lat="44.84771934392731" lon="9.949486534696666"><ele>177.99999999999997</ele><time>2026-04-06T08:24:08Z</time></trkpt><trkpt lat="44.84774722621734" lon="9.949570550345092"><ele>178.0</ele><time>2026-04-06T08:24:09Z</time></trkpt><trkpt lat="44.84777754916581" lon="9.949653550472751"><ele>178.33333333333334</ele><time>2026-04-06T08:24:10Z</time></trkpt><trkpt lat="44.847804573506316" lon="9.949736623005995"><ele>178.66666666666669</ele><time>2026-04-06T08:24:11Z</time></trkpt><trkpt lat="44.8478306830114" lon="9.949820155737731"><ele>179.0</ele><time>2026-04-06T08:24:12Z</time></trkpt><trkpt lat="44.84786058201671" lon="9.949899685457842"><ele>179.33333333333334</ele><time>2026-04-06T08:24:13Z</time></trkpt><trkpt lat="44.84788916532251" lon="9.949982172594233"><ele>179.66666666666666</ele><time>2026-04-06T08:24:14Z</time></trkpt><trkpt lat="44.847943981985104" lon="9.950143460889144"><ele>180.0</ele><time>2026-04-06T08:24:16Z</time></trkpt><trkpt lat="44.84797247566138" lon="9.950228072821702"><ele>180.0</ele><time>2026-04-06T08:24:17Z</time></trkpt><trkpt lat="44.848001961302664" lon="9.95030809421721"><ele>180.0</ele><time>2026-04-06T08:24:18Z</time></trkpt><trkpt lat="44.848030568844656" lon="9.950389952614579"><ele>180.0</ele><time>2026-04-06T08:24:19Z</time></trkpt><trkpt lat="44.84805676092643" lon="9.950471193984717"><ele>180.0</ele><time>2026-04-06T08:24:20Z</time></trkpt><trkpt lat="44.848086220132856" lon="9.9505536404264"><ele>180.0</ele><time>2026-04-06T08:24:21Z</time></trkpt><trkpt lat="44.848115437893625" lon="9.950638647016865"><ele>180.0</ele><time>2026-04-06T08:24:22Z</time></trkpt><trkpt lat="44.848142952086896" lon="9.950726099086257"><ele>180.0</ele><time>2026-04-06T08:24:23Z</time></trkpt><trkpt lat="44.84817130313143" lon="9.950814688768563"><ele>180.28571428571428</ele><time>2026-04-06T08:24:24Z</time></trkpt><trkpt lat="44.84820071601555" lon="9.950897687182513"><ele>180.57142857142858</ele><time>2026-04-06T08:24:25Z</time></trkpt><trkpt lat="44.84823096354144" lon="9.950982814945004"><ele>180.85714285714286</ele><time>2026-04-06T08:24:26Z</time></trkpt><trkpt lat="44.848258085325575" lon="9.951064556070401"><ele>181.14285714285714</ele><time>2026-04-06T08:24:27Z</time></trkpt><trkpt lat="44.84828443689245" lon="9.951147006002596"><ele>181.42857142857144</ele><time>2026-04-06T08:24:28Z</time></trkpt><trkpt lat="44.84831106476798" lon="9.951231435247147"><ele>181.71428571428572</ele><time>2026-04-06T08:24:29Z</time></trkpt><trkpt lat="44.84834071433128" lon="9.951318776795574"><ele>182.0</ele><time>2026-04-06T08:24:30Z</time></trkpt><trkpt lat="44.84836769315928" lon="9.951404359767134"><ele>182.0</ele><time>2026-04-06T08:24:31Z</time></trkpt><trkpt lat="44.848401227965525" lon="9.951491910026125"><ele>182.0</ele><time>2026-04-06T08:24:32Z</time></trkpt><trkpt lat="44.848428540362185" lon="9.951582010620161"><ele>182.0</ele><time>2026-04-06T08:24:33Z</time></trkpt><trkpt lat="44.848458747036645" lon="9.951671721811714"><ele>182.0</ele><time>2026-04-06T08:24:34Z</time></trkpt><trkpt lat="44.84848883882223" lon="9.951760861532865"><ele>182.0</ele><time>2026-04-06T08:24:35Z</time></trkpt><trkpt lat="44.848519378841274" lon="9.951850400664144"><ele>182.0</ele><time>2026-04-06T08:24:36Z</time></trkpt><trkpt lat="44.848544632897706" lon="9.951938581689152"><ele>182.0</ele><time>2026-04-06T08:24:37Z</time></trkpt><trkpt lat="44.8485712137259" lon="9.952022758244002"><ele>181.85714285714286</ele><time>2026-04-06T08:24:38Z</time></trkpt><trkpt lat="44.84859594586718" lon="9.952108838913384"><ele>181.71428571428572</ele><time>2026-04-06T08:24:39Z</time></trkpt><trkpt lat="44.848618978737086" lon="9.952194660498145"><ele>181.57142857142856</ele><time>2026-04-06T08:24:40Z</time></trkpt><trkpt lat="44.84864494563376" lon="9.952276086645517"><ele>181.42857142857144</ele><time>2026-04-06T08:24:41Z</time></trkpt><trkpt lat="44.84867162732219" lon="9.952358534810935"><ele>181.28571428571428</ele><time>2026-04-06T08:24:42Z</time></trkpt><trkpt lat="44.84869906320197" lon="9.952443350322048"><ele>181.14285714285714</ele><time>2026-04-06T08:24:43Z</time></trkpt><trkpt lat="44.84872591073935" lon="9.95253226413776"><ele>181.0</ele><time>2026-04-06T08:24:44Z</time></trkpt><trkpt lat="44.848751523989066" lon="9.952621853439629"><ele>181.0</ele><time>2026-04-06T08:24:45Z</time></trkpt><trkpt lat="44.84877818802822" lon="9.952713964556153"><ele>181.0</ele><time>2026-04-06T08:24:46Z</time></trkpt><trkpt lat="44.84880444329731" lon="9.95280742020153"><ele>181.0</ele><time>2026-04-06T08:24:47Z</time></trkpt><trkpt lat="44.84883232119611" lon="9.952899481998045"><ele>181.0</ele><time>2026-04-06T08:24:48Z</time></trkpt><trkpt lat="44.84886071298056" lon="9.952986742634268"><ele>181.0</ele><time>2026-04-06T08:24:49Z</time></trkpt><trkpt lat="44.84889175395083" lon="9.953079225145615"><ele>181.0</ele><time>2026-04-06T08:24:50Z</time></trkpt><trkpt lat="44.84892011126171" lon="9.953172999351542"><ele>181.0</ele><time>2026-04-06T08:24:51Z</time></trkpt><trkpt lat="44.84894769159638" lon="9.953270213302842"><ele>181.0</ele><time>2026-04-06T08:24:52Z</time></trkpt><trkpt lat="44.84897673693533" lon="9.953366251020732"><ele>181.0</ele><time>2026-04-06T08:24:53Z</time></trkpt><trkpt lat="44.8490058126579" lon="9.953460963261746"><ele>181.0</ele><time>2026-04-06T08:24:54Z</time></trkpt><trkpt lat="44.84903983210423" lon="9.953556338821132"><ele>181.0</ele><time>2026-04-06T08:24:55Z</time></trkpt><trkpt lat="44.84907090716841" lon="9.953647300276183"><ele>181.0</ele><time>2026-04-06T08:24:56Z</time></trkpt><trkpt lat="44.849101703557146" lon="9.95373925959536"><ele>181.0</ele><time>2026-04-06T08:24:57Z</time></trkpt><trkpt lat="44.84913696493761" lon="9.953833039472354"><ele>181.0</ele><time>2026-04-06T08:24:58Z</time></trkpt><trkpt lat="44.84916876395012" lon="9.95392227123524"><ele>181.14285714285714</ele><time>2026-04-06T08:24:59Z</time></trkpt><trkpt lat="44.84920075206281" lon="9.954014443123581"><ele>181.28571428571428</ele><time>2026-04-06T08:24:59.999Z</time></trkpt><trkpt lat="44.84923049557822" lon="9.95410306712529"><ele>181.42857142857144</ele><time>2026-04-06T08:25:00.999Z</time></trkpt><trkpt lat="44.84925903529725" lon="9.954193940797916"><ele>181.57142857142856</ele><time>2026-04-06T08:25:01.999Z</time></trkpt><trkpt lat="44.84928766691476" lon="9.954284787535954"><ele>181.71428571428572</ele><time>2026-04-06T08:25:02.999Z</time></trkpt><trkpt lat="44.84932010728258" lon="9.954374801414586"><ele>181.85714285714286</ele><time>2026-04-06T08:25:03.999Z</time></trkpt><trkpt lat="44.84934923008571" lon="9.954465355214834"><ele>182.0</ele><time>2026-04-06T08:25:04.999Z</time></trkpt><trkpt lat="44.84937955817093" lon="9.954556144426942"><ele>181.71428571428572</ele><time>2026-04-06T08:25:05.999Z</time></trkpt><trkpt lat="44.84940839747274" lon="9.954643443436636"><ele>181.42857142857144</ele><time>2026-04-06T08:25:06.999Z</time></trkpt><trkpt lat="44.84944062900995" lon="9.95473230295085"><ele>181.14285714285714</ele><time>2026-04-06T08:25:07.999Z</time></trkpt><trkpt lat="44.84947011785866" lon="9.954820032895647"><ele>180.85714285714286</ele><time>2026-04-06T08:25:08.999Z</time></trkpt><trkpt lat="44.8494979458063" lon="9.954913069527418"><ele>180.57142857142858</ele><time>2026-04-06T08:25:09.999Z</time></trkpt><trkpt lat="44.84952344088596" lon="9.955005416837281"><ele>180.28571428571428</ele><time>2026-04-06T08:25:10.999Z</time></trkpt><trkpt lat="44.84954678429469" lon="9.955098919748485"><ele>180.0</ele><time>2026-04-06T08:25:11.999Z</time></trkpt><trkpt lat="44.84957069097721" lon="9.95519557056156"><ele>180.0</ele><time>2026-04-06T08:25:12.999Z</time></trkpt><trkpt lat="44.84958771273176" lon="9.955288178012626"><ele>180.0</ele><time>2026-04-06T08:25:13.999Z</time></trkpt><trkpt lat="44.84960935259708" lon="9.955381005664952"><ele>180.0</ele><time>2026-04-06T08:25:14.999Z</time></trkpt><trkpt lat="44.84962435145761" lon="9.955478209519608"><ele>180.0</ele><time>2026-04-06T08:25:15.999Z</time></trkpt><trkpt lat="44.84963592778762" lon="9.95557407313694"><ele>180.0</ele><time>2026-04-06T08:25:16.999Z</time></trkpt><trkpt lat="44.84964463838953" lon="9.955670593052371"><ele>180.0</ele><time>2026-04-06T08:25:17.999Z</time></trkpt><trkpt lat="44.84965221694198" lon="9.955764129540928"><ele>180.0</ele><time>2026-04-06T08:25:18.999Z</time></trkpt><trkpt lat="44.849657771948195" lon="9.955857591830902"><ele>179.85714285714286</ele><time>2026-04-06T08:25:19.999Z</time></trkpt><trkpt lat="44.84966195573606" lon="9.955948934689548"><ele>179.71428571428572</ele><time>2026-04-06T08:25:20.999Z</time></trkpt><trkpt lat="44.84966030727508" lon="9.956040108352735"><ele>179.57142857142858</ele><time>2026-04-06T08:25:21.999Z</time></trkpt><trkpt lat="44.849657437980404" lon="9.956130183414341"><ele>179.42857142857144</ele><time>2026-04-06T08:25:22.999Z</time></trkpt><trkpt lat="44.849651094689484" lon="9.956220198876176"><ele>179.28571428571428</ele><time>2026-04-06T08:25:23.999Z</time></trkpt><trkpt lat="44.84964366237866" lon="9.956312917505226"><ele>179.14285714285717</ele><time>2026-04-06T08:25:24.999Z</time></trkpt><trkpt lat="44.849633020314876" lon="9.956407016015786"><ele>179.0</ele><time>2026-04-06T08:25:25.999Z</time></trkpt><trkpt lat="44.84962409304597" lon="9.956503257422447"><ele>179.00000000000003</ele><time>2026-04-06T08:25:26.999Z</time></trkpt><trkpt lat="44.84961329925654" lon="9.956596747093261"><ele>179.0</ele><time>2026-04-06T08:25:27.999Z</time></trkpt><trkpt lat="44.849604248396005" lon="9.956689384004779"><ele>179.0</ele><time>2026-04-06T08:25:28.999Z</time></trkpt><trkpt lat="44.8495950186233" lon="9.956784662298537"><ele>179.0</ele><time>2026-04-06T08:25:29.999Z</time></trkpt><trkpt lat="44.849582786081484" lon="9.956877607694283"><ele>179.0</ele><time>2026-04-06T08:25:30.999Z</time></trkpt><trkpt lat="44.84957186210078" lon="9.95697397844574"><ele>179.00000000000003</ele><time>2026-04-06T08:25:31.999Z</time></trkpt><trkpt lat="44.84956226077327" lon="9.957069701497918"><ele>179.0</ele><time>2026-04-06T08:25:32.999Z</time></trkpt><trkpt lat="44.84955426638618" lon="9.957165060674349"><ele>179.00000000000003</ele><time>2026-04-06T08:25:33.999Z</time></trkpt><trkpt lat="44.84954454712332" lon="9.957264250791617"><ele>179.0</ele><time>2026-04-06T08:25:34.999Z</time></trkpt><trkpt lat="44.849535760594435" lon="9.95735978376547"><ele>179.0</ele><time>2026-04-06T08:25:35.999Z</time></trkpt><trkpt lat="44.84952400862145" lon="9.957456938051108"><ele>179.0</ele><time>2026-04-06T08:25:36.999Z</time></trkpt><trkpt lat="44.849520572801794" lon="9.957553183572792"><ele>179.0</ele><time>2026-04-06T08:25:37.999Z</time></trkpt><trkpt lat="44.84951317054994" lon="9.957653860183655"><ele>179.00000000000003</ele><time>2026-04-06T08:25:38.999Z</time></trkpt><trkpt lat="44.84950508442865" lon="9.957753897380995"><ele>179.0</ele><time>2026-04-06T08:25:39.999Z</time></trkpt><trkpt lat="44.849495412209585" lon="9.95785408309255"><ele>179.00000000000003</ele><time>2026-04-06T08:25:40.999Z</time></trkpt><trkpt lat="44.849485577521925" lon="9.957955061938906"><ele>179.0</ele><time>2026-04-06T08:25:41.999Z</time></trkpt><trkpt lat="44.84947360844165" lon="9.958055820696758"><ele>179.0</ele><time>2026-04-06T08:25:42.999Z</time></trkpt><trkpt lat="44.849463786248805" lon="9.958160499988436"><ele>179.0</ele><time>2026-04-06T08:25:43.999Z</time></trkpt><trkpt lat="44.84945402878557" lon="9.958266574621883"><ele>179.0</ele><time>2026-04-06T08:25:44.999Z</time></trkpt><trkpt lat="44.84944340864266" lon="9.95837232578157"><ele>179.00000000000003</ele><time>2026-04-06T08:25:45.999Z</time></trkpt><trkpt lat="44.84943202329202" lon="9.958477800695015"><ele>179.0</ele><time>2026-04-06T08:25:46.999Z</time></trkpt><trkpt lat="44.84942134861294" lon="9.958584534282656"><ele>179.00000000000003</ele><time>2026-04-06T08:25:47.999Z</time></trkpt><trkpt lat="44.84941102669864" lon="9.958690505764174"><ele>179.0</ele><time>2026-04-06T08:25:48.999Z</time></trkpt><trkpt lat="44.8493992968982" lon="9.958791380487385"><ele>179.0</ele><time>2026-04-06T08:25:49.999Z</time></trkpt><trkpt lat="44.84938819161128" lon="9.958891498739442"><ele>179.0</ele><time>2026-04-06T08:25:50.999Z</time></trkpt><trkpt lat="44.849374792434226" lon="9.958988398015359"><ele>179.0</ele><time>2026-04-06T08:25:51.998Z</time></trkpt><trkpt lat="44.84936573937749" lon="9.95908933647543"><ele>179.00000000000003</ele><time>2026-04-06T08:25:52.998Z</time></trkpt><trkpt lat="44.849355570481286" lon="9.95918433804597"><ele>179.0</ele><time>2026-04-06T08:25:53.998Z</time></trkpt><trkpt lat="44.84934351460902" lon="9.959280983864794"><ele>178.71428571428572</ele><time>2026-04-06T08:25:54.998Z</time></trkpt><trkpt lat="44.84933447676098" lon="9.959375229827312"><ele>178.42857142857144</ele><time>2026-04-06T08:25:55.998Z</time></trkpt><trkpt lat="44.849327101290775" lon="9.959472723166597"><ele>178.14285714285717</ele><time>2026-04-06T08:25:56.998Z</time></trkpt><trkpt lat="44.84931858008648" lon="9.959572949607463"><ele>177.85714285714286</ele><time>2026-04-06T08:25:57.998Z</time></trkpt><trkpt lat="44.84930810926326" lon="9.959671502079747"><ele>177.57142857142856</ele><time>2026-04-06T08:25:58.998Z</time></trkpt><trkpt lat="44.849295640689235" lon="9.959771419202758"><ele>177.2857142857143</ele><time>2026-04-06T08:25:59.998Z</time></trkpt><trkpt lat="44.849285207099335" lon="9.959871686171816"><ele>177.0</ele><time>2026-04-06T08:26:00.998Z</time></trkpt><trkpt lat="44.84927611933036" lon="9.959966339236347"><ele>177.39999999999998</ele><time>2026-04-06T08:26:01.998Z</time></trkpt><trkpt lat="44.84926569090679" lon="9.960059165557977"><ele>177.79999999999998</ele><time>2026-04-06T08:26:02.998Z</time></trkpt><trkpt lat="44.849260122475734" lon="9.96014903503897"><ele>178.2</ele><time>2026-04-06T08:26:03.998Z</time></trkpt><trkpt lat="44.84924268344913" lon="9.96032368172658"><ele>178.6</ele><time>2026-04-06T08:26:06Z</time></trkpt><trkpt lat="44.849220996686846" lon="9.960491068970985"><ele>179.0</ele><time>2026-04-06T08:26:08Z</time></trkpt><trkpt lat="44.849207370681086" lon="9.960663418898825"><ele>179.0</ele><time>2026-04-06T08:26:10Z</time></trkpt><trkpt lat="44.8491986446361" lon="9.960839050769355"><ele>179.0</ele><time>2026-04-06T08:26:12Z</time></trkpt><trkpt lat="44.84919857704351" lon="9.960929680408057"><ele>179.0</ele><time>2026-04-06T08:26:13Z</time></trkpt><trkpt lat="44.84920399297211" lon="9.961106168844669"><ele>179.0</ele><time>2026-04-06T08:26:15Z</time></trkpt><trkpt lat="44.849222534000376" lon="9.961284137162515"><ele>179.0</ele><time>2026-04-06T08:26:17Z</time></trkpt><trkpt lat="44.849239036928594" lon="9.961457279331341"><ele>179.2</ele><time>2026-04-06T08:26:19Z</time></trkpt><trkpt lat="44.84925160946235" lon="9.961627789202048"><ele>179.39999999999998</ele><time>2026-04-06T08:26:21Z</time></trkpt><trkpt lat="44.84926029239859" lon="9.961793508219285"><ele>179.6</ele><time>2026-04-06T08:26:23Z</time></trkpt><trkpt lat="44.849275513936156" lon="9.961957966641284"><ele>179.8</ele><time>2026-04-06T08:26:25Z</time></trkpt><trkpt lat="44.84928256245172" lon="9.962046256633737"><ele>180.0</ele><time>2026-04-06T08:26:26Z</time></trkpt><trkpt lat="44.84929886428409" lon="9.962222088473933"><ele>179.57142857142856</ele><time>2026-04-06T08:26:28Z</time></trkpt><trkpt lat="44.84930713262152" lon="9.962312812390902"><ele>179.14285714285717</ele><time>2026-04-06T08:26:29Z</time></trkpt><trkpt lat="44.849316643845064" lon="9.962402802330255"><ele>178.71428571428572</ele><time>2026-04-06T08:26:30Z</time></trkpt><trkpt lat="44.84932741447126" lon="9.962492044647528"><ele>178.28571428571428</ele><time>2026-04-06T08:26:31Z</time></trkpt><trkpt lat="44.84933642279619" lon="9.962587682253483"><ele>177.85714285714283</ele><time>2026-04-06T08:26:32Z</time></trkpt><trkpt lat="44.849342681030166" lon="9.962683979928395"><ele>177.42857142857144</ele><time>2026-04-06T08:26:33Z</time></trkpt><trkpt lat="44.84935688618986" lon="9.96278258925431"><ele>177.0</ele><time>2026-04-06T08:26:34Z</time></trkpt><trkpt lat="44.84938262476409" lon="9.962874506154776"><ele>177.0</ele><time>2026-04-06T08:26:35Z</time></trkpt><trkpt lat="44.849420458270764" lon="9.962962466800736"><ele>177.0</ele><time>2026-04-06T08:26:36Z</time></trkpt><trkpt lat="44.84947033068792" lon="9.963043561469556"><ele>177.0</ele><time>2026-04-06T08:26:37Z</time></trkpt><trkpt lat="44.8495221072434" lon="9.963120951015673"><ele>177.0</ele><time>2026-04-06T08:26:38Z</time></trkpt><trkpt lat="44.84956877688104" lon="9.963202399405416"><ele>177.0</ele><time>2026-04-06T08:26:39Z</time></trkpt><trkpt lat="44.84961607176094" lon="9.963283551724066"><ele>177.0</ele><time>2026-04-06T08:26:40Z</time></trkpt><trkpt lat="44.84966679371049" lon="9.963363129868775"><ele>177.0</ele><time>2026-04-06T08:26:41Z</time></trkpt><trkpt lat="44.849716955170855" lon="9.963440172916659"><ele>176.5</ele><time>2026-04-06T08:26:42Z</time></trkpt><trkpt lat="44.84976555853533" lon="9.963521837030257"><ele>176.0</ele><time>2026-04-06T08:26:43Z</time></trkpt><trkpt lat="44.8498147501909" lon="9.963600209639706"><ele>175.5</ele><time>2026-04-06T08:26:44Z</time></trkpt><trkpt lat="44.84986598628103" lon="9.963683098053789"><ele>175.0</ele><time>2026-04-06T08:26:45Z</time></trkpt><trkpt lat="44.849916272663435" lon="9.963763556611243"><ele>174.5</ele><time>2026-04-06T08:26:46Z</time></trkpt><trkpt lat="44.849966723079355" lon="9.963845431493226"><ele>174.0</ele><time>2026-04-06T08:26:47Z</time></trkpt><trkpt lat="44.850020426102375" lon="9.963937569403187"><ele>174.0</ele><time>2026-04-06T08:26:48Z</time></trkpt><trkpt lat="44.85007291780603" lon="9.96401755269424"><ele>174.0</ele><time>2026-04-06T08:26:49Z</time></trkpt><trkpt lat="44.8501222854069" lon="9.964097804547434"><ele>174.0</ele><time>2026-04-06T08:26:50Z</time></trkpt><trkpt lat="44.850171708549574" lon="9.964176022369442"><ele>174.0</ele><time>2026-04-06T08:26:51Z</time></trkpt><trkpt lat="44.85026773465507" lon="9.96433158593236"><ele>174.0</ele><time>2026-04-06T08:26:53Z</time></trkpt><trkpt lat="44.85031354204419" lon="9.964407894486174"><ele>174.0</ele><time>2026-04-06T08:26:54Z</time></trkpt><trkpt lat="44.85036088842934" lon="9.964481304852228"><ele>173.42857142857142</ele><time>2026-04-06T08:26:55Z</time></trkpt><trkpt lat="44.85040717725472" lon="9.964553032009876"><ele>172.85714285714286</ele><time>2026-04-06T08:26:56Z</time></trkpt><trkpt lat="44.85045221170666" lon="9.96462439508388"><ele>172.28571428571428</ele><time>2026-04-06T08:26:57Z</time></trkpt><trkpt lat="44.850497677148645" lon="9.964699993597279"><ele>171.71428571428572</ele><time>2026-04-06T08:26:58Z</time></trkpt><trkpt lat="44.850545953467496" lon="9.964765785855349"><ele>171.14285714285714</ele><time>2026-04-06T08:26:59Z</time></trkpt><trkpt lat="44.85060051328462" lon="9.96483292049699"><ele>170.57142857142858</ele><time>2026-04-06T08:27:00Z</time></trkpt><trkpt lat="44.85065468184175" lon="9.964900868351807"><ele>170.0</ele><time>2026-04-06T08:27:01Z</time></trkpt><trkpt lat="44.85071309674321" lon="9.964964245752162"><ele>170.14285714285714</ele><time>2026-04-06T08:27:02Z</time></trkpt><trkpt lat="44.850767471606304" lon="9.965034550494511"><ele>170.28571428571428</ele><time>2026-04-06T08:27:03Z</time></trkpt><trkpt lat="44.850818726384325" lon="9.965108864109357"><ele>170.42857142857142</ele><time>2026-04-06T08:27:04Z</time></trkpt><trkpt lat="44.850866471679744" lon="9.965186496754034"><ele>170.57142857142856</ele><time>2026-04-06T08:27:04.999Z</time></trkpt><trkpt lat="44.85090943194723" lon="9.965268367394907"><ele>170.71428571428572</ele><time>2026-04-06T08:27:05.999Z</time></trkpt><trkpt lat="44.85094063235582" lon="9.965357139379238"><ele>170.85714285714283</ele><time>2026-04-06T08:27:06.999Z</time></trkpt><trkpt lat="44.85096144888099" lon="9.965450110181887"><ele>171.0</ele><time>2026-04-06T08:27:07.999Z</time></trkpt><trkpt lat="44.8509727883039" lon="9.96554439514207"><ele>170.99999999999997</ele><time>2026-04-06T08:27:08.999Z</time></trkpt><trkpt lat="44.85097948035474" lon="9.965639347763855"><ele>171.0</ele><time>2026-04-06T08:27:09.999Z</time></trkpt><trkpt lat="44.85098540073568" lon="9.965737302585529"><ele>171.0</ele><time>2026-04-06T08:27:10.999Z</time></trkpt><trkpt lat="44.85099541287328" lon="9.965839642145477"><ele>171.0</ele><time>2026-04-06T08:27:11.999Z</time></trkpt><trkpt lat="44.8510074482534" lon="9.965940148513143"><ele>171.0</ele><time>2026-04-06T08:27:12.999Z</time></trkpt><trkpt lat="44.8510206826953" lon="9.966045148769588"><ele>170.99999999999997</ele><time>2026-04-06T08:27:13.999Z</time></trkpt><trkpt lat="44.8510322266186" lon="9.966152487766516"><ele>171.0</ele><time>2026-04-06T08:27:14.999Z</time></trkpt><trkpt lat="44.85104342384191" lon="9.966256346171216"><ele>170.5</ele><time>2026-04-06T08:27:15.999Z</time></trkpt><trkpt lat="44.85105687678962" lon="9.966361959720498"><ele>170.0</ele><time>2026-04-06T08:27:16.999Z</time></trkpt><trkpt lat="44.851069628097655" lon="9.966472517230473"><ele>169.5</ele><time>2026-04-06T08:27:17.999Z</time></trkpt><trkpt lat="44.85108523560114" lon="9.966578049360995"><ele>169.0</ele><time>2026-04-06T08:27:18.999Z</time></trkpt><trkpt lat="44.8511012314413" lon="9.966687997972086"><ele>168.5</ele><time>2026-04-06T08:27:19.999Z</time></trkpt><trkpt lat="44.85111543395022" lon="9.966798894758956"><ele>168.0</ele><time>2026-04-06T08:27:20.999Z</time></trkpt><trkpt lat="44.851130773337566" lon="9.966912951777136"><ele>167.66666666666666</ele><time>2026-04-06T08:27:21.999Z</time></trkpt><trkpt lat="44.85115375475558" lon="9.96702615906457"><ele>167.33333333333334</ele><time>2026-04-06T08:27:22.999Z</time></trkpt><trkpt lat="44.851165879118355" lon="9.967140016428932"><ele>167.0</ele><time>2026-04-06T08:27:23.999Z</time></trkpt><trkpt lat="44.851181378285816" lon="9.96724957340524"><ele>166.66666666666669</ele><time>2026-04-06T08:27:24.999Z</time></trkpt><trkpt lat="44.851197027891686" lon="9.96735916338213"><ele>166.33333333333334</ele><time>2026-04-06T08:27:25.999Z</time></trkpt><trkpt lat="44.851213121230074" lon="9.96747013406526"><ele>166.0</ele><time>2026-04-06T08:27:26.999Z</time></trkpt><trkpt lat="44.85122853009064" lon="9.96757476766735"><ele>166.0</ele><time>2026-04-06T08:27:27.999Z</time></trkpt><trkpt lat="44.85124172937197" lon="9.967680391849054"><ele>166.0</ele><time>2026-04-06T08:27:28.999Z</time></trkpt><trkpt lat="44.851255766446755" lon="9.967784545225909"><ele>166.0</ele><time>2026-04-06T08:27:29.999Z</time></trkpt><trkpt lat="44.851268167625705" lon="9.967886342582009"><ele>166.0</ele><time>2026-04-06T08:27:30.999Z</time></trkpt><trkpt lat="44.85128149754944" lon="9.967989882088764"><ele>166.0</ele><time>2026-04-06T08:27:31.999Z</time></trkpt><trkpt lat="44.85129211805838" lon="9.968089468469547"><ele>166.0</ele><time>2026-04-06T08:27:32.999Z</time></trkpt><trkpt lat="44.851304950810025" lon="9.968192316682673"><ele>166.0</ele><time>2026-04-06T08:27:33.999Z</time></trkpt><trkpt lat="44.851313520033976" lon="9.968291243886235"><ele>165.66666666666669</ele><time>2026-04-06T08:27:34.999Z</time></trkpt><trkpt lat="44.85132204549688" lon="9.968380480518684"><ele>165.33333333333334</ele><time>2026-04-06T08:27:35.999Z</time></trkpt><trkpt lat="44.851328039676545" lon="9.96847548445764"><ele>165.0</ele><time>2026-04-06T08:27:36.999Z</time></trkpt><trkpt lat="44.851343755593156" lon="9.968587526250383"><ele>164.66666666666666</ele><time>2026-04-06T08:27:37.999Z</time></trkpt><trkpt lat="44.85135305222241" lon="9.968705252450615"><ele>164.33333333333331</ele><time>2026-04-06T08:27:38.999Z</time></trkpt><trkpt lat="44.85137375680472" lon="9.968820245315735"><ele>164.0</ele><time>2026-04-06T08:27:39.999Z</time></trkpt><trkpt lat="44.85139483270133" lon="9.968919484543118"><ele>164.0</ele><time>2026-04-06T08:27:40.999Z</time></trkpt><trkpt lat="44.85141348545492" lon="9.969024962774036"><ele>164.0</ele><time>2026-04-06T08:27:41.999Z</time></trkpt><trkpt lat="44.85143038064281" lon="9.96912792401319"><ele>164.0</ele><time>2026-04-06T08:27:42.999Z</time></trkpt><trkpt lat="44.85144846585668" lon="9.96923848605702"><ele>164.0</ele><time>2026-04-06T08:27:43.999Z</time></trkpt><trkpt lat="44.85146174146599" lon="9.969351791010963"><ele>164.0</ele><time>2026-04-06T08:27:44.999Z</time></trkpt><trkpt lat="44.85147518357954" lon="9.96946564597451"><ele>164.0</ele><time>2026-04-06T08:27:45.999Z</time></trkpt><trkpt lat="44.851487537421704" lon="9.969571905869394"><ele>163.66666666666666</ele><time>2026-04-06T08:27:46.999Z</time></trkpt><trkpt lat="44.85150211673326" lon="9.969682827333587"><ele>163.33333333333331</ele><time>2026-04-06T08:27:47.999Z</time></trkpt><trkpt lat="44.85151788867801" lon="9.969791728340503"><ele>163.0</ele><time>2026-04-06T08:27:48.999Z</time></trkpt><trkpt lat="44.85152968313725" lon="9.969899347636627"><ele>162.66666666666666</ele><time>2026-04-06T08:27:49.999Z</time></trkpt><trkpt lat="44.851548272260224" lon="9.97000800523535"><ele>162.33333333333334</ele><time>2026-04-06T08:27:50.999Z</time></trkpt><trkpt lat="44.85156157439293" lon="9.970110069761699"><ele>162.0</ele><time>2026-04-06T08:27:51.999Z</time></trkpt><trkpt lat="44.85156717506952" lon="9.97021316506603"><ele>162.0</ele><time>2026-04-06T08:27:52.999Z</time></trkpt><trkpt lat="44.85157722880109" lon="9.970314544300022"><ele>162.0</ele><time>2026-04-06T08:27:53.999Z</time></trkpt><trkpt lat="44.851592815556174" lon="9.970414134779476"><ele>162.0</ele><time>2026-04-06T08:27:54.999Z</time></trkpt><trkpt lat="44.85160785626653" lon="9.97051298595373"><ele>162.0</ele><time>2026-04-06T08:27:55.999Z</time></trkpt><trkpt lat="44.85162173601087" lon="9.970611849037612"><ele>162.0</ele><time>2026-04-06T08:27:56.998Z</time></trkpt><trkpt lat="44.85163065529959" lon="9.970711039612107"><ele>162.0</ele><time>2026-04-06T08:27:57.998Z</time></trkpt><trkpt lat="44.85163768911276" lon="9.97081243641124"><ele>162.0</ele><time>2026-04-06T08:27:58.998Z</time></trkpt><trkpt lat="44.851643636109166" lon="9.970917344731996"><ele>161.0</ele><time>2026-04-06T08:27:59.998Z</time></trkpt><trkpt lat="44.851656515896906" lon="9.971024100439175"><ele>160.0</ele><time>2026-04-06T08:28:00.998Z</time></trkpt><trkpt lat="44.85167384744574" lon="9.971131137306084"><ele>159.0</ele><time>2026-04-06T08:28:01.998Z</time></trkpt><trkpt lat="44.85169223168925" lon="9.971240258095625"><ele>158.0</ele><time>2026-04-06T08:28:02.998Z</time></trkpt><trkpt lat="44.85171189777466" lon="9.97135284111965"><ele>157.0</ele><time>2026-04-06T08:28:03.998Z</time></trkpt><trkpt lat="44.85172614107055" lon="9.971475747819442"><ele>156.0</ele><time>2026-04-06T08:28:04.998Z</time></trkpt><trkpt lat="44.85174230216245" lon="9.971595930972413"><ele>155.33333333333334</ele><time>2026-04-06T08:28:05.998Z</time></trkpt><trkpt lat="44.85175967085734" lon="9.971710310639159"><ele>154.66666666666666</ele><time>2026-04-06T08:28:06.998Z</time></trkpt><trkpt lat="44.851775439806424" lon="9.971825478215374"><ele>154.0</ele><time>2026-04-06T08:28:07.998Z</time></trkpt><trkpt lat="44.85179009067771" lon="9.971938151186421"><ele>153.33333333333331</ele><time>2026-04-06T08:28:08.998Z</time></trkpt><trkpt lat="44.85180291731624" lon="9.972030286429963"><ele>152.66666666666666</ele><time>2026-04-06T08:28:09.998Z</time></trkpt><trkpt lat="44.851814928893404" lon="9.972158286644017"><ele>152.0</ele><time>2026-04-06T08:28:12Z</time></trkpt><trkpt lat="44.851824450863354" lon="9.972277161542603"><ele>152.0</ele><time>2026-04-06T08:28:17Z</time></trkpt><trkpt lat="44.85188236386736" lon="9.972326051435028"><ele>152.0</ele><time>2026-04-06T08:28:20Z</time></trkpt><trkpt lat="44.85195365933116" lon="9.972321171336924"><ele>152.0</ele><time>2026-04-06T08:28:22Z</time></trkpt><trkpt lat="44.852028347296546" lon="9.972332956114096"><ele>152.0</ele><time>2026-04-06T08:28:24Z</time></trkpt><trkpt lat="44.85210347066896" lon="9.972349218657065"><ele>152.0</ele><time>2026-04-06T08:28:26Z</time></trkpt><trkpt lat="44.85217267239959" lon="9.972359705489657"><ele>152.0</ele><time>2026-04-06T08:28:28Z</time></trkpt><trkpt lat="44.85224820473453" lon="9.97237937974523"><ele>152.0</ele><time>2026-04-06T08:28:31Z</time></trkpt><trkpt lat="44.85231781651794" lon="9.972368374083741"><ele>152.0</ele><time>2026-04-06T08:29:34.999Z</time></trkpt><trkpt lat="44.85239228439961" lon="9.972384803407506"><ele>152.0</ele><time>2026-04-06T08:29:37.999Z</time></trkpt><trkpt lat="44.85248626528195" lon="9.972395104747077"><ele>152.0</ele><time>2026-04-06T08:29:40.999Z</time></trkpt><trkpt lat="44.85256045710205" lon="9.972404650155111"><ele>152.0</ele><time>2026-04-06T08:29:42.999Z</time></trkpt><trkpt lat="44.85263388029585" lon="9.972411467348783"><ele>152.0</ele><time>2026-04-06T08:29:44.999Z</time></trkpt><trkpt lat="44.85270469530265" lon="9.972423402876608"><ele>152.0</ele><time>2026-04-06T08:29:46.999Z</time></trkpt><trkpt lat="44.85277955580968" lon="9.972431633361127"><ele>152.33333333333331</ele><time>2026-04-06T08:29:48.999Z</time></trkpt><trkpt lat="44.85286293070708" lon="9.972438290714665"><ele>152.66666666666666</ele><time>2026-04-06T08:29:50.999Z</time></trkpt><trkpt lat="44.85294884308357" lon="9.972455545361681"><ele>153.0</ele><time>2026-04-06T08:29:52.999Z</time></trkpt><trkpt lat="44.85302855684175" lon="9.972466097427137"><ele>153.33333333333334</ele><time>2026-04-06T08:29:54.999Z</time></trkpt><trkpt lat="44.853111548093345" lon="9.972476560895409"><ele>153.66666666666669</ele><time>2026-04-06T08:29:56.999Z</time></trkpt><trkpt lat="44.85319737645679" lon="9.972492831487987"><ele>154.0</ele><time>2026-04-06T08:29:58.998Z</time></trkpt><trkpt lat="44.85328607554163" lon="9.972499643994958"><ele>154.0</ele><time>2026-04-06T08:30:00.998Z</time></trkpt><trkpt lat="44.85337300513631" lon="9.972511772638308"><ele>154.0</ele><time>2026-04-06T08:30:02.998Z</time></trkpt><trkpt lat="44.85346018608971" lon="9.972527215074946"><ele>154.0</ele><time>2026-04-06T08:30:04.998Z</time></trkpt><trkpt lat="44.85354837841405" lon="9.972540158970006"><ele>154.0</ele><time>2026-04-06T08:30:06.998Z</time></trkpt><trkpt lat="44.853633042638315" lon="9.97255523880082"><ele>154.0</ele><time>2026-04-06T08:30:08.998Z</time></trkpt><trkpt lat="44.853721320790925" lon="9.972565987649446"><ele>154.0</ele><time>2026-04-06T08:30:10.998Z</time></trkpt><trkpt lat="44.85381369383658" lon="9.972578324107614"><ele>153.6</ele><time>2026-04-06T08:30:12.998Z</time></trkpt><trkpt lat="44.85390543377666" lon="9.972593514368139"><ele>153.2</ele><time>2026-04-06T08:30:14.998Z</time></trkpt><trkpt lat="44.85399861706643" lon="9.972607411748422"><ele>152.79999999999998</ele><time>2026-04-06T08:30:16.998Z</time></trkpt><trkpt lat="44.85409756477436" lon="9.97262218430459"><ele>152.4</ele><time>2026-04-06T08:30:19Z</time></trkpt><trkpt lat="44.85419924013412" lon="9.972639054473516"><ele>152.0</ele><time>2026-04-06T08:30:21Z</time></trkpt><trkpt lat="44.8543037592733" lon="9.972656300686296"><ele>152.0</ele><time>2026-04-06T08:30:23Z</time></trkpt><trkpt lat="44.854408949714944" lon="9.972674428495312"><ele>152.0</ele><time>2026-04-06T08:30:25Z</time></trkpt><trkpt lat="44.854519559095586" lon="9.972687667650257"><ele>152.0</ele><time>2026-04-06T08:30:27Z</time></trkpt><trkpt lat="44.85463071808863" lon="9.972704957466933"><ele>152.0</ele><time>2026-04-06T08:30:29Z</time></trkpt><trkpt lat="44.85474946465481" lon="9.97272032383439"><ele>152.0</ele><time>2026-04-06T08:30:31Z</time></trkpt><trkpt lat="44.854865959915834" lon="9.972736205370834"><ele>152.0</ele><time>2026-04-06T08:30:33Z</time></trkpt><trkpt lat="44.85498612111334" lon="9.972752394309667"><ele>152.0</ele><time>2026-04-06T08:30:35Z</time></trkpt><trkpt lat="44.85510282196542" lon="9.972767503170683"><ele>152.0</ele><time>2026-04-06T08:30:37Z</time></trkpt><trkpt lat="44.85517001219999" lon="9.972777864749956"><ele>152.0</ele><time>2026-04-06T08:30:38Z</time></trkpt><trkpt lat="44.85523345976866" lon="9.972787515424706"><ele>152.0</ele><time>2026-04-06T08:30:39Z</time></trkpt><trkpt lat="44.855296696564075" lon="9.972796509170832"><ele>152.0</ele><time>2026-04-06T08:30:40Z</time></trkpt><trkpt lat="44.85536027127883" lon="9.972804340418854"><ele>152.16666666666666</ele><time>2026-04-06T08:30:41Z</time></trkpt><trkpt lat="44.855424089167485" lon="9.97281425156592"><ele>152.33333333333331</ele><time>2026-04-06T08:30:42Z</time></trkpt><trkpt lat="44.85548819749662" lon="9.97282367276621"><ele>152.5</ele><time>2026-04-06T08:30:43Z</time></trkpt><trkpt lat="44.855614387367254" lon="9.972844988383924"><ele>152.66666666666666</ele><time>2026-04-06T08:30:45Z</time></trkpt><trkpt lat="44.85568093251598" lon="9.972856111212124"><ele>152.83333333333334</ele><time>2026-04-06T08:30:46Z</time></trkpt><trkpt lat="44.85574906847561" lon="9.972867215710567"><ele>153.0</ele><time>2026-04-06T08:30:47Z</time></trkpt><trkpt lat="44.855816543351764" lon="9.972875587644122"><ele>153.0</ele><time>2026-04-06T08:30:48Z</time></trkpt><trkpt lat="44.85588542889115" lon="9.972885959650384"><ele>153.0</ele><time>2026-04-06T08:30:49Z</time></trkpt><trkpt lat="44.855955371660876" lon="9.972895318313554"><ele>153.0</ele><time>2026-04-06T08:30:50Z</time></trkpt><trkpt lat="44.856023589152535" lon="9.972904070276439"><ele>153.0</ele><time>2026-04-06T08:30:51Z</time></trkpt><trkpt lat="44.85609219647404" lon="9.972913846540553"><ele>153.0</ele><time>2026-04-06T08:30:52Z</time></trkpt><trkpt lat="44.85616132912333" lon="9.972922867073738"><ele>153.0</ele><time>2026-04-06T08:30:53Z</time></trkpt><trkpt lat="44.85623197668646" lon="9.972932746641327"><ele>153.0</ele><time>2026-04-06T08:30:54Z</time></trkpt><trkpt lat="44.85630451310485" lon="9.972937899718886"><ele>152.71428571428572</ele><time>2026-04-06T08:30:55Z</time></trkpt><trkpt lat="44.85637538764296" lon="9.972942130300932"><ele>152.42857142857144</ele><time>2026-04-06T08:30:56Z</time></trkpt><trkpt lat="44.85644496952694" lon="9.972945063119887"><ele>152.14285714285717</ele><time>2026-04-06T08:30:57Z</time></trkpt><trkpt lat="44.856516776293326" lon="9.972946490230589"><ele>151.85714285714286</ele><time>2026-04-06T08:30:58Z</time></trkpt><trkpt lat="44.85658566442718" lon="9.972943338711834"><ele>151.57142857142858</ele><time>2026-04-06T08:30:59Z</time></trkpt><trkpt lat="44.856654848510985" lon="9.972936851637634"><ele>151.2857142857143</ele><time>2026-04-06T08:31:00Z</time></trkpt><trkpt lat="44.85672304306231" lon="9.972928631631135"><ele>151.0</ele><time>2026-04-06T08:31:01Z</time></trkpt><trkpt lat="44.85679098245373" lon="9.97292043999583"><ele>150.71428571428572</ele><time>2026-04-06T08:31:02Z</time></trkpt><trkpt lat="44.85685805897148" lon="9.972906597608665"><ele>150.42857142857144</ele><time>2026-04-06T08:31:03Z</time></trkpt><trkpt lat="44.85692533315716" lon="9.972886764403501"><ele>150.14285714285714</ele><time>2026-04-06T08:31:04Z</time></trkpt><trkpt lat="44.856993589780686" lon="9.972868101372079"><ele>149.85714285714286</ele><time>2026-04-06T08:31:05Z</time></trkpt><trkpt lat="44.857056121553846" lon="9.972847527380988"><ele>149.57142857142856</ele><time>2026-04-06T08:31:06Z</time></trkpt><trkpt lat="44.85712209187424" lon="9.972829901760424"><ele>149.28571428571428</ele><time>2026-04-06T08:31:07Z</time></trkpt><trkpt lat="44.85718894680154" lon="9.97280715341026"><ele>149.0</ele><time>2026-04-06T08:31:08Z</time></trkpt><trkpt lat="44.85725686685257" lon="9.972776524474636"><ele>149.0</ele><time>2026-04-06T08:31:09Z</time></trkpt><trkpt lat="44.857324061660876" lon="9.972749573078088"><ele>149.0</ele><time>2026-04-06T08:31:10Z</time></trkpt><trkpt lat="44.85739413334968" lon="9.97272733811862"><ele>149.0</ele><time>2026-04-06T08:31:11Z</time></trkpt><trkpt lat="44.857464074934086" lon="9.972704809963794"><ele>149.0</ele><time>2026-04-06T08:31:12Z</time></trkpt><trkpt lat="44.85753618520165" lon="9.972680484463053"><ele>149.0</ele><time>2026-04-06T08:31:12.999Z</time></trkpt><trkpt lat="44.85761303641641" lon="9.972651417571347"><ele>149.0</ele><time>2026-04-06T08:31:13.999Z</time></trkpt><trkpt lat="44.85768671206158" lon="9.972629815918815"><ele>149.0</ele><time>2026-04-06T08:31:14.999Z</time></trkpt><trkpt lat="44.85776282669152" lon="9.972603508657576"><ele>148.83333333333331</ele><time>2026-04-06T08:31:15.999Z</time></trkpt><trkpt lat="44.85784199253724" lon="9.972579557023604"><ele>148.66666666666666</ele><time>2026-04-06T08:31:16.999Z</time></trkpt><trkpt lat="44.85792591680487" lon="9.97255448997247"><ele>148.5</ele><time>2026-04-06T08:31:17.999Z</time></trkpt><trkpt lat="44.85801383002426" lon="9.972532019447613"><ele>148.33333333333334</ele><time>2026-04-06T08:31:18.999Z</time></trkpt><trkpt lat="44.85810532692773" lon="9.972526202943833"><ele>148.16666666666669</ele><time>2026-04-06T08:31:19.999Z</time></trkpt><trkpt lat="44.858198255367924" lon="9.972525430171633"><ele>148.0</ele><time>2026-04-06T08:31:20.999Z</time></trkpt><trkpt lat="44.85829189510248" lon="9.972532024625695"><ele>148.0</ele><time>2026-04-06T08:31:21.999Z</time></trkpt><trkpt lat="44.85838585117638" lon="9.972540279599924"><ele>148.0</ele><time>2026-04-06T08:31:22.999Z</time></trkpt><trkpt lat="44.85847659959492" lon="9.972557851433894"><ele>148.0</ele><time>2026-04-06T08:31:23.999Z</time></trkpt><trkpt lat="44.85856527938293" lon="9.972582120528841"><ele>148.0</ele><time>2026-04-06T08:31:24.999Z</time></trkpt><trkpt lat="44.858653411555615" lon="9.972610660686154"><ele>148.0</ele><time>2026-04-06T08:31:25.999Z</time></trkpt><trkpt lat="44.85874092698281" lon="9.972643719461395"><ele>148.0</ele><time>2026-04-06T08:31:26.999Z</time></trkpt><trkpt lat="44.85882727258448" lon="9.972681335686918"><ele>148.0</ele><time>2026-04-06T08:31:27.999Z</time></trkpt><trkpt lat="44.85891031968167" lon="9.972726335303348"><ele>148.0</ele><time>2026-04-06T08:31:28.999Z</time></trkpt><trkpt lat="44.85899148109361" lon="9.97278263832965"><ele>148.0</ele><time>2026-04-06T08:31:29.999Z</time></trkpt><trkpt lat="44.85907442870217" lon="9.97284004246008"><ele>148.0</ele><time>2026-04-06T08:31:30.999Z</time></trkpt><trkpt lat="44.859157424277406" lon="9.972909032889438"><ele>148.0</ele><time>2026-04-06T08:31:31.999Z</time></trkpt><trkpt lat="44.85924185664925" lon="9.972984043971206"><ele>148.0</ele><time>2026-04-06T08:31:32.999Z</time></trkpt><trkpt lat="44.859328267747166" lon="9.973058423783176"><ele>148.0</ele><time>2026-04-06T08:31:33.999Z</time></trkpt><trkpt lat="44.859412888115365" lon="9.97314003455791"><ele>148.0</ele><time>2026-04-06T08:31:34.999Z</time></trkpt><trkpt lat="44.859498166670036" lon="9.973223455081477"><ele>148.0</ele><time>2026-04-06T08:31:35.999Z</time></trkpt><trkpt lat="44.8595868339926" lon="9.973303175095294"><ele>147.6</ele><time>2026-04-06T08:31:36.999Z</time></trkpt><trkpt lat="44.859675779908336" lon="9.973379864692097"><ele>147.20000000000002</ele><time>2026-04-06T08:31:37.999Z</time></trkpt><trkpt lat="44.85976882707395" lon="9.973454996609675"><ele>146.8</ele><time>2026-04-06T08:31:38.999Z</time></trkpt><trkpt lat="44.85986432296653" lon="9.973521034885898"><ele>146.4</ele><time>2026-04-06T08:31:39.999Z</time></trkpt><trkpt lat="44.859965651521165" lon="9.973572935774907"><ele>146.0</ele><time>2026-04-06T08:31:40.999Z</time></trkpt><trkpt lat="44.86007063099817" lon="9.973615852333428"><ele>145.6</ele><time>2026-04-06T08:31:41.999Z</time></trkpt><trkpt lat="44.86017629589892" lon="9.973651683109642"><ele>145.2</ele><time>2026-04-06T08:31:42.999Z</time></trkpt><trkpt lat="44.860285229181464" lon="9.973678199322702"><ele>144.8</ele><time>2026-04-06T08:31:43.999Z</time></trkpt><trkpt lat="44.860397619683454" lon="9.97369539165132"><ele>144.4</ele><time>2026-04-06T08:31:44.999Z</time></trkpt><trkpt lat="44.8605115333455" lon="9.973702793144836"><ele>144.0</ele><time>2026-04-06T08:31:45.999Z</time></trkpt><trkpt lat="44.860622943334256" lon="9.973704550258146"><ele>144.0</ele><time>2026-04-06T08:31:46.999Z</time></trkpt><trkpt lat="44.860737310369274" lon="9.973709568952833"><ele>144.0</ele><time>2026-04-06T08:31:47.999Z</time></trkpt><trkpt lat="44.86085105977475" lon="9.97371501446631"><ele>144.0</ele><time>2026-04-06T08:31:48.999Z</time></trkpt><trkpt lat="44.860963092108804" lon="9.973719342760154"><ele>144.0</ele><time>2026-04-06T08:31:49.999Z</time></trkpt><trkpt lat="44.86107728533114" lon="9.973725225358802"><ele>143.2</ele><time>2026-04-06T08:31:50.999Z</time></trkpt><trkpt lat="44.861189383705465" lon="9.973731765094405"><ele>142.4</ele><time>2026-04-06T08:31:51.999Z</time></trkpt><trkpt lat="44.861300613474974" lon="9.97373563125704"><ele>141.6</ele><time>2026-04-06T08:31:52.999Z</time></trkpt><trkpt lat="44.861411205502286" lon="9.973739603639025"><ele>140.8</ele><time>2026-04-06T08:31:53.999Z</time></trkpt><trkpt lat="44.86152382189659" lon="9.973743292204741"><ele>140.0</ele><time>2026-04-06T08:31:54.999Z</time></trkpt><trkpt lat="44.86163623784474" lon="9.973744341694038"><ele>140.0</ele><time>2026-04-06T08:31:55.999Z</time></trkpt><trkpt lat="44.86174985338822" lon="9.973749125633297"><ele>140.0</ele><time>2026-04-06T08:31:56.999Z</time></trkpt><trkpt lat="44.86186021907991" lon="9.973752429117368"><ele>140.0</ele><time>2026-04-06T08:31:57.999Z</time></trkpt><trkpt lat="44.8619722489721" lon="9.973756001976074"><ele>140.0</ele><time>2026-04-06T08:31:58.999Z</time></trkpt><trkpt lat="44.862079476697815" lon="9.973760600832025"><ele>140.0</ele><time>2026-04-06T08:31:59.999Z</time></trkpt><trkpt lat="44.862188332009396" lon="9.973764747905065"><ele>139.4</ele><time>2026-04-06T08:32:00.999Z</time></trkpt><trkpt lat="44.86229849255857" lon="9.973765644643127"><ele>138.8</ele><time>2026-04-06T08:32:01.999Z</time></trkpt><trkpt lat="44.86240810041663" lon="9.973756255430864"><ele>138.2</ele><time>2026-04-06T08:32:02.999Z</time></trkpt><trkpt lat="44.862518829603275" lon="9.973749027463363"><ele>137.6</ele><time>2026-04-06T08:32:03.999Z</time></trkpt><trkpt lat="44.862626561869114" lon="9.973745103955626"><ele>137.0</ele><time>2026-04-06T08:32:04.999Z</time></trkpt><trkpt lat="44.862733655003375" lon="9.973740000213493"><ele>136.79999999999998</ele><time>2026-04-06T08:32:05.998Z</time></trkpt><trkpt lat="44.86283942840945" lon="9.973730796818458"><ele>136.6</ele><time>2026-04-06T08:32:06.998Z</time></trkpt><trkpt lat="44.862944311515676" lon="9.97372269602998"><ele>136.39999999999998</ele><time>2026-04-06T08:32:07.998Z</time></trkpt><trkpt lat="44.86304843819975" lon="9.97371399501907"><ele>136.2</ele><time>2026-04-06T08:32:08.998Z</time></trkpt><trkpt lat="44.86315074854043" lon="9.973704920498987"><ele>136.0</ele><time>2026-04-06T08:32:09.998Z</time></trkpt><trkpt lat="44.863254896137555" lon="9.97369580642938"><ele>136.0</ele><time>2026-04-06T08:32:10.998Z</time></trkpt><trkpt lat="44.86335517917086" lon="9.973686090130823"><ele>136.0</ele><time>2026-04-06T08:32:11.998Z</time></trkpt><trkpt lat="44.863459283803216" lon="9.973677177614189"><ele>136.0</ele><time>2026-04-06T08:32:12.998Z</time></trkpt><trkpt lat="44.863567859674184" lon="9.973667485597527"><ele>136.0</ele><time>2026-04-06T08:32:13.998Z</time></trkpt><trkpt lat="44.863677145888055" lon="9.97365723960219"><ele>136.0</ele><time>2026-04-06T08:32:14.998Z</time></trkpt><trkpt lat="44.863787035065975" lon="9.97364614993341"><ele>135.8</ele><time>2026-04-06T08:32:15.998Z</time></trkpt><trkpt lat="44.86389807115147" lon="9.973636970116626"><ele>135.6</ele><time>2026-04-06T08:32:16.998Z</time></trkpt><trkpt lat="44.864009090762266" lon="9.973628029662287"><ele>135.4</ele><time>2026-04-06T08:32:17.998Z</time></trkpt><trkpt lat="44.8641206281948" lon="9.973616118332302"><ele>135.2</ele><time>2026-04-06T08:32:18.998Z</time></trkpt><trkpt lat="44.864229855483444" lon="9.97360761843952"><ele>135.0</ele><time>2026-04-06T08:32:19.998Z</time></trkpt><trkpt lat="44.864339826717206" lon="9.973599594894184"><ele>134.6</ele><time>2026-04-06T08:32:20.998Z</time></trkpt><trkpt lat="44.86444841402425" lon="9.973587739013063"><ele>134.2</ele><time>2026-04-06T08:32:21.998Z</time></trkpt><trkpt lat="44.86456050557611" lon="9.973577175212707"><ele>133.8</ele><time>2026-04-06T08:32:23Z</time></trkpt><trkpt lat="44.86467311582636" lon="9.97357105235928"><ele>133.4</ele><time>2026-04-06T08:32:24Z</time></trkpt><trkpt lat="44.86478492042733" lon="9.973562879958985"><ele>133.0</ele><time>2026-04-06T08:32:25Z</time></trkpt><trkpt lat="44.86489780249055" lon="9.97355408237733"><ele>133.0</ele><time>2026-04-06T08:32:26Z</time></trkpt><trkpt lat="44.86501072396013" lon="9.973547253713228"><ele>133.0</ele><time>2026-04-06T08:32:27Z</time></trkpt><trkpt lat="44.86512183613881" lon="9.973549604536105"><ele>133.0</ele><time>2026-04-06T08:32:28Z</time></trkpt><trkpt lat="44.86523396021187" lon="9.973559483148167"><ele>133.0</ele><time>2026-04-06T08:32:29Z</time></trkpt><trkpt lat="44.86534588009447" lon="9.97357518379715"><ele>133.0</ele><time>2026-04-06T08:32:30Z</time></trkpt><trkpt lat="44.86545775418668" lon="9.97359706572503"><ele>132.25</ele><time>2026-04-06T08:32:31Z</time></trkpt><trkpt lat="44.8655692508657" lon="9.97361920691549"><ele>131.5</ele><time>2026-04-06T08:32:32Z</time></trkpt><trkpt lat="44.86568066189917" lon="9.973648784229836"><ele>130.75</ele><time>2026-04-06T08:32:33Z</time></trkpt><trkpt lat="44.865794453426055" lon="9.973675859463814"><ele>130.0</ele><time>2026-04-06T08:32:34Z</time></trkpt><trkpt lat="44.86590813820656" lon="9.9737042973176"><ele>129.5</ele><time>2026-04-06T08:32:35Z</time></trkpt><trkpt lat="44.86602356356051" lon="9.973735880729237"><ele>129.0</ele><time>2026-04-06T08:32:36Z</time></trkpt><trkpt lat="44.86613900211115" lon="9.973764601213059"><ele>128.5</ele><time>2026-04-06T08:32:37Z</time></trkpt><trkpt lat="44.86625455807864" lon="9.973793887934395"><ele>128.0</ele><time>2026-04-06T08:32:38Z</time></trkpt><trkpt lat="44.86636996101489" lon="9.97382737643564"><ele>128.0</ele><time>2026-04-06T08:32:39Z</time></trkpt><trkpt lat="44.86648634953971" lon="9.973855136396203"><ele>128.0</ele><time>2026-04-06T08:32:40Z</time></trkpt><trkpt lat="44.866602868680125" lon="9.973884320597195"><ele>128.0</ele><time>2026-04-06T08:32:41Z</time></trkpt><trkpt lat="44.8667194985943" lon="9.973913915190323"><ele>128.0</ele><time>2026-04-06T08:32:42Z</time></trkpt><trkpt lat="44.86683804116422" lon="9.97394358864542"><ele>128.25</ele><time>2026-04-06T08:32:43Z</time></trkpt><trkpt lat="44.866954456268545" lon="9.97397439496597"><ele>128.5</ele><time>2026-04-06T08:32:44Z</time></trkpt><trkpt lat="44.867070681099584" lon="9.974005585655041"><ele>128.75</ele><time>2026-04-06T08:32:45Z</time></trkpt><trkpt lat="44.86718872868064" lon="9.974036441049856"><ele>129.0</ele><time>2026-04-06T08:32:46Z</time></trkpt><trkpt lat="44.867308891394416" lon="9.974063132399534"><ele>129.0</ele><time>2026-04-06T08:32:47Z</time></trkpt><trkpt lat="44.86742996416165" lon="9.974086026831463"><ele>129.0</ele><time>2026-04-06T08:32:48Z</time></trkpt><trkpt lat="44.86755108808822" lon="9.974100109930085"><ele>129.0</ele><time>2026-04-06T08:32:49Z</time></trkpt><trkpt lat="44.86767175683703" lon="9.97409930944807"><ele>129.0</ele><time>2026-04-06T08:32:50Z</time></trkpt><trkpt lat="44.86779518112162" lon="9.974086338132206"><ele>128.0</ele><time>2026-04-06T08:32:51Z</time></trkpt><trkpt lat="44.8679172317699" lon="9.974066028915841"><ele>127.0</ele><time>2026-04-06T08:32:52Z</time></trkpt><trkpt lat="44.86803722618875" lon="9.974041105303934"><ele>126.0</ele><time>2026-04-06T08:32:53Z</time></trkpt><trkpt lat="44.868156263273356" lon="9.974012977798443"><ele>125.0</ele><time>2026-04-06T08:32:54Z</time></trkpt><trkpt lat="44.86827498456555" lon="9.973985604960097"><ele>125.0</ele><time>2026-04-06T08:32:55Z</time></trkpt><trkpt lat="44.868393591554124" lon="9.973959325810876"><ele>125.0</ele><time>2026-04-06T08:32:56Z</time></trkpt><trkpt lat="44.86851579232862" lon="9.973936274002892"><ele>125.0</ele><time>2026-04-06T08:32:57Z</time></trkpt><trkpt lat="44.86863907229301" lon="9.973920036783177"><ele>125.0</ele><time>2026-04-06T08:32:58Z</time></trkpt><trkpt lat="44.86876249338377" lon="9.973913318351238"><ele>124.25</ele><time>2026-04-06T08:32:59Z</time></trkpt><trkpt lat="44.86888609662519" lon="9.973913030814778"><ele>123.5</ele><time>2026-04-06T08:33:00Z</time></trkpt><trkpt lat="44.86900959628487" lon="9.97392462404818"><ele>122.75</ele><time>2026-04-06T08:33:01Z</time></trkpt><trkpt lat="44.86913240888821" lon="9.97393875537375"><ele>122.0</ele><time>2026-04-06T08:33:02Z</time></trkpt><trkpt lat="44.86925565842051" lon="9.97395035986875"><ele>121.5</ele><time>2026-04-06T08:33:03Z</time></trkpt><trkpt lat="44.869378895737356" lon="9.973965224834155"><ele>121.0</ele><time>2026-04-06T08:33:04Z</time></trkpt><trkpt lat="44.86950383388435" lon="9.973984177744724"><ele>120.5</ele><time>2026-04-06T08:33:05Z</time></trkpt><trkpt lat="44.86962849893991" lon="9.97399887238063"><ele>120.0</ele><time>2026-04-06T08:33:06Z</time></trkpt><trkpt lat="44.86975352729487" lon="9.97401494798383"><ele>120.0</ele><time>2026-04-06T08:33:07Z</time></trkpt><trkpt lat="44.869880003694355" lon="9.974033281860729"><ele>120.0</ele><time>2026-04-06T08:33:08Z</time></trkpt><trkpt lat="44.87000632527908" lon="9.974051462676034"><ele>120.0</ele><time>2026-04-06T08:33:09Z</time></trkpt><trkpt lat="44.87013429138327" lon="9.974068078907582"><ele>120.0</ele><time>2026-04-06T08:33:10Z</time></trkpt><trkpt lat="44.87026178999918" lon="9.974081687924404"><ele>119.75</ele><time>2026-04-06T08:33:11Z</time></trkpt><trkpt lat="44.87039098849608" lon="9.974098500849623"><ele>119.5</ele><time>2026-04-06T08:33:12Z</time></trkpt><trkpt lat="44.870518081791054" lon="9.974117139969861"><ele>119.25</ele><time>2026-04-06T08:33:13Z</time></trkpt><trkpt lat="44.87064517337987" lon="9.974137571768946"><ele>119.0</ele><time>2026-04-06T08:33:14Z</time></trkpt><trkpt lat="44.870772050178175" lon="9.974155423104179"><ele>119.0</ele><time>2026-04-06T08:33:15Z</time></trkpt><trkpt lat="44.87089927563212" lon="9.974174260950054"><ele>119.0</ele><time>2026-04-06T08:33:16Z</time></trkpt><trkpt lat="44.871026402674886" lon="9.974196037368907"><ele>119.0</ele><time>2026-04-06T08:33:17Z</time></trkpt><trkpt lat="44.87115165670472" lon="9.974219466106634"><ele>119.0</ele><time>2026-04-06T08:33:17.999Z</time></trkpt><trkpt lat="44.87127625251092" lon="9.974248583312795"><ele>118.5</ele><time>2026-04-06T08:33:18.999Z</time></trkpt><trkpt lat="44.87140060839889" lon="9.974279921848211"><ele>118.0</ele><time>2026-04-06T08:33:19.999Z</time></trkpt><trkpt lat="44.87152547401867" lon="9.974309625428504"><ele>117.5</ele><time>2026-04-06T08:33:20.999Z</time></trkpt><trkpt lat="44.87165008961171" lon="9.974339000260189"><ele>117.0</ele><time>2026-04-06T08:33:21.999Z</time></trkpt><trkpt lat="44.87177466217311" lon="9.974369942625188"><ele>116.5</ele><time>2026-04-06T08:33:22.999Z</time></trkpt><trkpt lat="44.87189710930496" lon="9.974398604876614"><ele>116.0</ele><time>2026-04-06T08:33:23.999Z</time></trkpt><trkpt lat="44.87202084633796" lon="9.974423912811478"><ele>115.5</ele><time>2026-04-06T08:33:24.999Z</time></trkpt><trkpt lat="44.87214337674001" lon="9.974447711176099"><ele>115.0</ele><time>2026-04-06T08:33:25.999Z</time></trkpt><trkpt lat="44.87226585095283" lon="9.974468124694868"><ele>115.0</ele><time>2026-04-06T08:33:26.999Z</time></trkpt><trkpt lat="44.87239056641313" lon="9.974486887561408"><ele>115.0</ele><time>2026-04-06T08:33:27.999Z</time></trkpt><trkpt lat="44.872515678064055" lon="9.97450195660036"><ele>115.0</ele><time>2026-04-06T08:33:28.999Z</time></trkpt><trkpt lat="44.87264072769835" lon="9.974517450590652"><ele>115.0</ele><time>2026-04-06T08:33:29.999Z</time></trkpt><trkpt lat="44.87276684304116" lon="9.974531778794644"><ele>114.0</ele><time>2026-04-06T08:33:30.999Z</time></trkpt><trkpt lat="44.87289035956" lon="9.974546865851464"><ele>113.0</ele><time>2026-04-06T08:33:31.999Z</time></trkpt><trkpt lat="44.8730141829905" lon="9.974562612471368"><ele>112.0</ele><time>2026-04-06T08:33:32.999Z</time></trkpt><trkpt lat="44.873137819063494" lon="9.974577006344449"><ele>111.0</ele><time>2026-04-06T08:33:33.999Z</time></trkpt><trkpt lat="44.8732614999893" lon="9.974593203054846"><ele>111.0</ele><time>2026-04-06T08:33:34.999Z</time></trkpt><trkpt lat="44.87338478315184" lon="9.974608288482413"><ele>111.0</ele><time>2026-04-06T08:33:35.999Z</time></trkpt><trkpt lat="44.87350747047503" lon="9.974620556623803"><ele>111.0</ele><time>2026-04-06T08:33:36.999Z</time></trkpt><trkpt lat="44.87363073090818" lon="9.974634496482267"><ele>111.0</ele><time>2026-04-06T08:33:37.999Z</time></trkpt><trkpt lat="44.87375360248655" lon="9.974651408994381"><ele>110.5</ele><time>2026-04-06T08:33:38.999Z</time></trkpt><trkpt lat="44.87387810097366" lon="9.974664653692766"><ele>110.0</ele><time>2026-04-06T08:33:39.999Z</time></trkpt><trkpt lat="44.87400063655772" lon="9.974677492310807"><ele>109.5</ele><time>2026-04-06T08:33:40.999Z</time></trkpt><trkpt lat="44.874123302047146" lon="9.974695588054475"><ele>109.0</ele><time>2026-04-06T08:33:41.999Z</time></trkpt><trkpt lat="44.87423894184161" lon="9.974715015550471"><ele>108.25</ele><time>2026-04-06T08:33:42.999Z</time></trkpt><trkpt lat="44.874354816307076" lon="9.974727968559113"><ele>107.5</ele><time>2026-04-06T08:33:43.999Z</time></trkpt><trkpt lat="44.874468605754096" lon="9.974740330036072"><ele>106.75</ele><time>2026-04-06T08:33:44.999Z</time></trkpt><trkpt lat="44.874579188525594" lon="9.974752152825422"><ele>106.0</ele><time>2026-04-06T08:33:45.999Z</time></trkpt><trkpt lat="44.87468856949253" lon="9.974761195173963"><ele>106.0</ele><time>2026-04-06T08:33:46.999Z</time></trkpt><trkpt lat="44.87479567864425" lon="9.974774546923028"><ele>106.0</ele><time>2026-04-06T08:33:47.999Z</time></trkpt><trkpt lat="44.87490015897021" lon="9.974786120774247"><ele>106.0</ele><time>2026-04-06T08:33:48.999Z</time></trkpt><trkpt lat="44.87500248416548" lon="9.974796830453485"><ele>106.0</ele><time>2026-04-06T08:33:49.999Z</time></trkpt><trkpt lat="44.875097293313935" lon="9.974806813773943"><ele>106.0</ele><time>2026-04-06T08:33:50.999Z</time></trkpt><trkpt lat="44.87518434438777" lon="9.974829215497655"><ele>106.50000000000001</ele><time>2026-04-06T08:33:51.999Z</time></trkpt><trkpt lat="44.87525785652723" lon="9.97485790653073"><ele>107.0</ele><time>2026-04-06T08:33:52.999Z</time></trkpt><trkpt lat="44.8753362119898" lon="9.974861474140429"><ele>107.5</ele><time>2026-04-06T08:33:53.999Z</time></trkpt><trkpt lat="44.87540382060459" lon="9.974801004793626"><ele>108.0</ele><time>2026-04-06T08:33:54.999Z</time></trkpt><trkpt lat="44.875441261834794" lon="9.974696325056613"><ele>108.50000000000001</ele><time>2026-04-06T08:33:55.999Z</time></trkpt><trkpt lat="44.87546452811648" lon="9.97458027752027"><ele>109.0</ele><time>2026-04-06T08:33:56.999Z</time></trkpt><trkpt lat="44.87548729014664" lon="9.974461118186625"><ele>109.0</ele><time>2026-04-06T08:33:57.999Z</time></trkpt><trkpt lat="44.87551579471821" lon="9.974332192824042"><ele>109.0</ele><time>2026-04-06T08:33:58.999Z</time></trkpt><trkpt lat="44.8755402203269" lon="9.97419040370789"><ele>109.0</ele><time>2026-04-06T08:33:59.999Z</time></trkpt><trkpt lat="44.87556710863069" lon="9.974042275382894"><ele>109.0</ele><time>2026-04-06T08:34:00.999Z</time></trkpt><trkpt lat="44.87560522451553" lon="9.973888676742364"><ele>109.0</ele><time>2026-04-06T08:34:01.999Z</time></trkpt><trkpt lat="44.87564480896953" lon="9.973728633876243"><ele>109.0</ele><time>2026-04-06T08:34:02.999Z</time></trkpt><trkpt lat="44.87568669617334" lon="9.973560793070657"><ele>109.0</ele><time>2026-04-06T08:34:03.999Z</time></trkpt><trkpt lat="44.87573013973115" lon="9.973387533631728"><ele>109.0</ele><time>2026-04-06T08:34:04.999Z</time></trkpt><trkpt lat="44.87577675194095" lon="9.973211147442278"><ele>109.0</ele><time>2026-04-06T08:34:05.999Z</time></trkpt><trkpt lat="44.875822307161336" lon="9.97304312140902"><ele>106.0</ele><time>2026-04-06T08:34:06.999Z</time></trkpt><trkpt lat="44.8758669758418" lon="9.972876356829143"><ele>103.0</ele><time>2026-04-06T08:34:07.999Z</time></trkpt><trkpt lat="44.87591485815624" lon="9.97271728348379"><ele>100.0</ele><time>2026-04-06T08:34:08.999Z</time></trkpt><trkpt lat="44.875968465900215" lon="9.972566641820444"><ele>97.0</ele><time>2026-04-06T08:34:09.999Z</time></trkpt><trkpt lat="44.87602909425357" lon="9.972424171552506"><ele>95.0</ele><time>2026-04-06T08:34:10.999Z</time></trkpt><trkpt lat="44.87609510297993" lon="9.972295933026631"><ele>93.0</ele><time>2026-04-06T08:34:11.998Z</time></trkpt><trkpt lat="44.876164374062974" lon="9.972168038836491"><ele>91.0</ele><time>2026-04-06T08:34:12.998Z</time></trkpt><trkpt lat="44.87623517127012" lon="9.97204312800973"><ele>89.0</ele><time>2026-04-06T08:34:13.998Z</time></trkpt><trkpt lat="44.876306885881654" lon="9.971917593932657"><ele>89.0</ele><time>2026-04-06T08:34:14.998Z</time></trkpt><trkpt lat="44.87637471327916" lon="9.971787604573814"><ele>89.0</ele><time>2026-04-06T08:34:15.998Z</time></trkpt><trkpt lat="44.87643569651703" lon="9.971655660713676"><ele>89.0</ele><time>2026-04-06T08:34:16.998Z</time></trkpt><trkpt lat="44.876497991826334" lon="9.971531137013224"><ele>89.0</ele><time>2026-04-06T08:34:17.998Z</time></trkpt><trkpt lat="44.87656333008686" lon="9.971410410205692"><ele>89.0</ele><time>2026-04-06T08:34:18.998Z</time></trkpt><trkpt lat="44.87662611642943" lon="9.9712906131761"><ele>89.2</ele><time>2026-04-06T08:34:19.998Z</time></trkpt><trkpt lat="44.87669144096073" lon="9.971167846247708"><ele>89.4</ele><time>2026-04-06T08:34:20.998Z</time></trkpt><trkpt lat="44.87675645509689" lon="9.971044699466468"><ele>89.6</ele><time>2026-04-06T08:34:21.998Z</time></trkpt><trkpt lat="44.876819597678235" lon="9.97092361646815"><ele>89.8</ele><time>2026-04-06T08:34:22.998Z</time></trkpt><trkpt lat="44.87688132509428" lon="9.970803299713626"><ele>90.0</ele><time>2026-04-06T08:34:23.998Z</time></trkpt><trkpt lat="44.876944428502945" lon="9.970685900991356"><ele>90.0</ele><time>2026-04-06T08:34:24.998Z</time></trkpt><trkpt lat="44.87700310509808" lon="9.970566229366195"><ele>90.0</ele><time>2026-04-06T08:34:25.998Z</time></trkpt><trkpt lat="44.87706298771758" lon="9.970448887162608"><ele>90.0</ele><time>2026-04-06T08:34:26.998Z</time></trkpt><trkpt lat="44.877124544929835" lon="9.970337988508518"><ele>90.0</ele><time>2026-04-06T08:34:27.998Z</time></trkpt><trkpt lat="44.87718038420914" lon="9.970222496145704"><ele>90.0</ele><time>2026-04-06T08:34:29Z</time></trkpt><trkpt lat="44.8772390410557" lon="9.970112213878236"><ele>90.0</ele><time>2026-04-06T08:34:30Z</time></trkpt><trkpt lat="44.87729580027141" lon="9.970003118997846"><ele>90.0</ele><time>2026-04-06T08:34:31Z</time></trkpt><trkpt lat="44.877355066539394" lon="9.969900704516817"><ele>90.0</ele><time>2026-04-06T08:34:32Z</time></trkpt><trkpt lat="44.877408983164436" lon="9.969793786878052"><ele>90.0</ele><time>2026-04-06T08:34:33Z</time></trkpt><trkpt lat="44.87746101641581" lon="9.969692794818574"><ele>90.0</ele><time>2026-04-06T08:34:34Z</time></trkpt><trkpt lat="44.87751451758402" lon="9.969604172891326"><ele>90.0</ele><time>2026-04-06T08:34:35Z</time></trkpt><trkpt lat="44.87756966530142" lon="9.969527472154658"><ele>90.0</ele><time>2026-04-06T08:34:36Z</time></trkpt><trkpt lat="44.87763815776627" lon="9.969467837891417"><ele>90.0</ele><time>2026-04-06T08:34:37Z</time></trkpt><trkpt lat="44.87771606119061" lon="9.969438474433815"><ele>90.0</ele><time>2026-04-06T08:34:38Z</time></trkpt><trkpt lat="44.877794396410174" lon="9.969429387403684"><ele>90.0</ele><time>2026-04-06T08:34:39Z</time></trkpt><trkpt lat="44.877873468678054" lon="9.969436202886174"><ele>90.0</ele><time>2026-04-06T08:34:40Z</time></trkpt><trkpt lat="44.87795289041711" lon="9.969465154136078"><ele>89.83333333333333</ele><time>2026-04-06T08:34:41Z</time></trkpt><trkpt lat="44.8780233905825" lon="9.96952298545297"><ele>89.66666666666667</ele><time>2026-04-06T08:34:42Z</time></trkpt><trkpt lat="44.878086317149126" lon="9.969597692946508"><ele>89.5</ele><time>2026-04-06T08:34:43Z</time></trkpt><trkpt lat="44.878135260277766" lon="9.969687455296773"><ele>89.33333333333334</ele><time>2026-04-06T08:34:44Z</time></trkpt><trkpt lat="44.87817780196537" lon="9.969781079516162"><ele>89.16666666666667</ele><time>2026-04-06T08:34:45Z</time></trkpt><trkpt lat="44.8782145381041" lon="9.969878131988505"><ele>89.0</ele><time>2026-04-06T08:34:46Z</time></trkpt><trkpt lat="44.8782473868398" lon="9.969974559260892"><ele>88.83333333333334</ele><time>2026-04-06T08:34:47Z</time></trkpt><trkpt lat="44.878296298244805" lon="9.97005511706213"><ele>88.66666666666667</ele><time>2026-04-06T08:34:48Z</time></trkpt><trkpt lat="44.87837212264914" lon="9.970083193298652"><ele>88.5</ele><time>2026-04-06T08:34:49Z</time></trkpt><trkpt lat="44.87845334410077" lon="9.970049743771732"><ele>88.33333333333333</ele><time>2026-04-06T08:34:50Z</time></trkpt><trkpt lat="44.878506887253955" lon="9.969955079666752"><ele>88.16666666666666</ele><time>2026-04-06T08:34:51Z</time></trkpt><trkpt lat="44.87852141672613" lon="9.969842308830156"><ele>88.0</ele><time>2026-04-06T08:34:52Z</time></trkpt><trkpt lat="44.87851728870321" lon="9.969735206965554"><ele>88.0</ele><time>2026-04-06T08:34:53Z</time></trkpt><trkpt lat="44.878514922415" lon="9.969634173427474"><ele>88.0</ele><time>2026-04-06T08:34:54Z</time></trkpt><trkpt lat="44.87852437530183" lon="9.969536155857401"><ele>88.0</ele><time>2026-04-06T08:34:55Z</time></trkpt><trkpt lat="44.87854319513292" lon="9.969437558618889"><ele>88.0</ele><time>2026-04-06T08:34:56Z</time></trkpt><trkpt lat="44.8785708304536" lon="9.969341826427225"><ele>88.0</ele><time>2026-04-06T08:34:57Z</time></trkpt><trkpt lat="44.87860038815115" lon="9.969248052197981"><ele>88.0</ele><time>2026-04-06T08:34:58Z</time></trkpt><trkpt lat="44.87863795567787" lon="9.969149501261118"><ele>88.0</ele><time>2026-04-06T08:34:59Z</time></trkpt><trkpt lat="44.87867073540982" lon="9.96905172631215"><ele>87.83333333333333</ele><time>2026-04-06T08:35:00Z</time></trkpt><trkpt lat="44.87871206006722" lon="9.96894996613803"><ele>87.66666666666666</ele><time>2026-04-06T08:35:01Z</time></trkpt><trkpt lat="44.87874896359071" lon="9.968847778719729"><ele>87.5</ele><time>2026-04-06T08:35:02Z</time></trkpt><trkpt lat="44.878789323568576" lon="9.968744796109494"><ele>87.33333333333333</ele><time>2026-04-06T08:35:03Z</time></trkpt><trkpt lat="44.87882840178866" lon="9.96864122705751"><ele>87.16666666666667</ele><time>2026-04-06T08:35:04Z</time></trkpt><trkpt lat="44.87886536293392" lon="9.968537809135348"><ele>87.0</ele><time>2026-04-06T08:35:05Z</time></trkpt><trkpt lat="44.87890448047241" lon="9.96843217147601"><ele>87.83333333333333</ele><time>2026-04-06T08:35:06Z</time></trkpt><trkpt lat="44.878944415183916" lon="9.968329821547542"><ele>88.66666666666667</ele><time>2026-04-06T08:35:07Z</time></trkpt><trkpt lat="44.87898043346834" lon="9.968222817569066"><ele>89.5</ele><time>2026-04-06T08:35:08Z</time></trkpt><trkpt lat="44.87901943306259" lon="9.968117702461576"><ele>90.33333333333334</ele><time>2026-04-06T08:35:09Z</time></trkpt><trkpt lat="44.87906053566591" lon="9.96800961079865"><ele>91.16666666666667</ele><time>2026-04-06T08:35:10Z</time></trkpt><trkpt lat="44.87910183926335" lon="9.967903291808144"><ele>92.0</ele><time>2026-04-06T08:35:11Z</time></trkpt><trkpt lat="44.87914510465627" lon="9.96779576850566"><ele>92.0</ele><time>2026-04-06T08:35:12Z</time></trkpt><trkpt lat="44.87918561042164" lon="9.96768126956887"><ele>92.0</ele><time>2026-04-06T08:35:13Z</time></trkpt><trkpt lat="44.879229521546165" lon="9.967573446295766"><ele>92.0</ele><time>2026-04-06T08:35:14Z</time></trkpt><trkpt lat="44.879270453852335" lon="9.967460601667918"><ele>92.0</ele><time>2026-04-06T08:35:15Z</time></trkpt><trkpt lat="44.87931071109042" lon="9.967352486884536"><ele>92.0</ele><time>2026-04-06T08:35:16Z</time></trkpt><trkpt lat="44.87934974377099" lon="9.967245482963568"><ele>92.0</ele><time>2026-04-06T08:35:17Z</time></trkpt><trkpt lat="44.87938995153963" lon="9.967138288127527"><ele>91.66666666666667</ele><time>2026-04-06T08:35:18Z</time></trkpt><trkpt lat="44.8794293460122" lon="9.967031702677858"><ele>91.33333333333334</ele><time>2026-04-06T08:35:19Z</time></trkpt><trkpt lat="44.879470219877874" lon="9.966926579905278"><ele>91.0</ele><time>2026-04-06T08:35:20Z</time></trkpt><trkpt lat="44.87950929024005" lon="9.96681919711357"><ele>90.66666666666667</ele><time>2026-04-06T08:35:20.999Z</time></trkpt><trkpt lat="44.879545925382864" lon="9.96671398528939"><ele>90.33333333333333</ele><time>2026-04-06T08:35:21.999Z</time></trkpt><trkpt lat="44.87958569457677" lon="9.966608701584205"><ele>90.0</ele><time>2026-04-06T08:35:22.999Z</time></trkpt><trkpt lat="44.87962237968014" lon="9.966505697168529"><ele>90.0</ele><time>2026-04-06T08:35:23.999Z</time></trkpt><trkpt lat="44.87965869874232" lon="9.966402769718597"><ele>90.0</ele><time>2026-04-06T08:35:24.999Z</time></trkpt><trkpt lat="44.87969846380566" lon="9.966301473859842"><ele>90.0</ele><time>2026-04-06T08:35:25.999Z</time></trkpt><trkpt lat="44.87973647060139" lon="9.96619596274365"><ele>90.0</ele><time>2026-04-06T08:35:26.999Z</time></trkpt><trkpt lat="44.87977797497194" lon="9.96609112594129"><ele>90.0</ele><time>2026-04-06T08:35:27.999Z</time></trkpt><trkpt lat="44.87981498038713" lon="9.965989376089839"><ele>90.0</ele><time>2026-04-06T08:35:28.999Z</time></trkpt><trkpt lat="44.87985355574497" lon="9.96588487822609"><ele>90.16666666666667</ele><time>2026-04-06T08:35:29.999Z</time></trkpt><trkpt lat="44.879895049196975" lon="9.96577922865925"><ele>90.33333333333333</ele><time>2026-04-06T08:35:30.999Z</time></trkpt><trkpt lat="44.87993266372884" lon="9.965675335104489"><ele>90.5</ele><time>2026-04-06T08:35:31.999Z</time></trkpt><trkpt lat="44.879975572691585" lon="9.965570813437882"><ele>90.66666666666666</ele><time>2026-04-06T08:35:32.999Z</time></trkpt><trkpt lat="44.880017025673816" lon="9.965468403736153"><ele>90.83333333333333</ele><time>2026-04-06T08:35:33.999Z</time></trkpt><trkpt lat="44.88006095273436" lon="9.965366755087025"><ele>91.0</ele><time>2026-04-06T08:35:34.999Z</time></trkpt><trkpt lat="44.8801053836037" lon="9.96526520219381"><ele>91.0</ele><time>2026-04-06T08:35:35.999Z</time></trkpt><trkpt lat="44.88014881814509" lon="9.965165268587656"><ele>91.0</ele><time>2026-04-06T08:35:36.999Z</time></trkpt><trkpt lat="44.88019294611331" lon="9.965065762420926"><ele>91.0</ele><time>2026-04-06T08:35:37.999Z</time></trkpt><trkpt lat="44.88023789592687" lon="9.964966183247013"><ele>91.0</ele><time>2026-04-06T08:35:38.999Z</time></trkpt><trkpt lat="44.88028236636173" lon="9.964864116450219"><ele>91.0</ele><time>2026-04-06T08:35:39.999Z</time></trkpt><trkpt lat="44.88032960415159" lon="9.964763185426765"><ele>91.0</ele><time>2026-04-06T08:35:40.999Z</time></trkpt><trkpt lat="44.880372964930935" lon="9.964661533327707"><ele>91.5</ele><time>2026-04-06T08:35:41.999Z</time></trkpt><trkpt lat="44.8804179315499" lon="9.96456112546759"><ele>92.0</ele><time>2026-04-06T08:35:42.999Z</time></trkpt><trkpt lat="44.88046241100991" lon="9.964461064105691"><ele>92.5</ele><time>2026-04-06T08:35:43.999Z</time></trkpt><trkpt lat="44.880507104188354" lon="9.964362681191613"><ele>93.0</ele><time>2026-04-06T08:35:44.999Z</time></trkpt><trkpt lat="44.88055205725747" lon="9.964258965684618"><ele>93.5</ele><time>2026-04-06T08:35:45.999Z</time></trkpt><trkpt lat="44.88059691246135" lon="9.96415897551086"><ele>94.0</ele><time>2026-04-06T08:35:46.999Z</time></trkpt><trkpt lat="44.88064195364578" lon="9.964056289625407"><ele>94.66666666666666</ele><time>2026-04-06T08:35:47.999Z</time></trkpt><trkpt lat="44.88068624075995" lon="9.96395748024659"><ele>95.33333333333333</ele><time>2026-04-06T08:35:48.999Z</time></trkpt><trkpt lat="44.880733283039454" lon="9.96385709484299"><ele>96.0</ele><time>2026-04-06T08:35:49.999Z</time></trkpt><trkpt lat="44.880775948644725" lon="9.963754787067582"><ele>96.66666666666666</ele><time>2026-04-06T08:35:50.999Z</time></trkpt><trkpt lat="44.880821194888185" lon="9.963650350518716"><ele>97.33333333333333</ele><time>2026-04-06T08:35:51.999Z</time></trkpt><trkpt lat="44.88086591541898" lon="9.963545929377005"><ele>98.0</ele><time>2026-04-06T08:35:52.999Z</time></trkpt><trkpt lat="44.880911973099685" lon="9.96344378054835"><ele>97.2</ele><time>2026-04-06T08:35:53.999Z</time></trkpt><trkpt lat="44.88095776212954" lon="9.963341199461006"><ele>96.4</ele><time>2026-04-06T08:35:54.999Z</time></trkpt><trkpt lat="44.88100341268385" lon="9.963237515037845"><ele>95.60000000000001</ele><time>2026-04-06T08:35:55.999Z</time></trkpt><trkpt lat="44.8810515212794" lon="9.963129690138517"><ele>94.80000000000001</ele><time>2026-04-06T08:35:56.999Z</time></trkpt><trkpt lat="44.88110050287208" lon="9.963019981324354"><ele>94.0</ele><time>2026-04-06T08:35:57.999Z</time></trkpt><trkpt lat="44.88115492714888" lon="9.96290859728081"><ele>94.0</ele><time>2026-04-06T08:35:58.999Z</time></trkpt><trkpt lat="44.8812163210078" lon="9.962800064520321"><ele>94.0</ele><time>2026-04-06T08:35:59.999Z</time></trkpt><trkpt lat="44.88128177638011" lon="9.96269048325357"><ele>94.0</ele><time>2026-04-06T08:36:00.999Z</time></trkpt><trkpt lat="44.88134796949203" lon="9.962582301289032"><ele>94.0</ele><time>2026-04-06T08:36:01.999Z</time></trkpt><trkpt lat="44.88142258307838" lon="9.962482541552005"><ele>94.0</ele><time>2026-04-06T08:36:02.999Z</time></trkpt><trkpt lat="44.88150374714891" lon="9.962390661901496"><ele>93.6</ele><time>2026-04-06T08:36:03.999Z</time></trkpt><trkpt lat="44.88158903230419" lon="9.962306234610773"><ele>93.2</ele><time>2026-04-06T08:36:04.999Z</time></trkpt><trkpt lat="44.88167621699982" lon="9.962219887232495"><ele>92.8</ele><time>2026-04-06T08:36:05.999Z</time></trkpt><trkpt lat="44.88176951772962" lon="9.962139972120237"><ele>92.39999999999999</ele><time>2026-04-06T08:36:06.999Z</time></trkpt><trkpt lat="44.881858762952824" lon="9.962054479503053"><ele>92.0</ele><time>2026-04-06T08:36:07.999Z</time></trkpt><trkpt lat="44.88195067494649" lon="9.961973087429925"><ele>92.0</ele><time>2026-04-06T08:36:08.999Z</time></trkpt><trkpt lat="44.8820412662294" lon="9.961888559268619"><ele>92.0</ele><time>2026-04-06T08:36:09.999Z</time></trkpt><trkpt lat="44.88213187807216" lon="9.961806662012904"><ele>92.0</ele><time>2026-04-06T08:36:10.999Z</time></trkpt><trkpt lat="44.88222044244971" lon="9.961727566857306"><ele>92.0</ele><time>2026-04-06T08:36:11.999Z</time></trkpt><trkpt lat="44.88230331341603" lon="9.961649004287557"><ele>92.0</ele><time>2026-04-06T08:36:12.999Z</time></trkpt><trkpt lat="44.88238424223508" lon="9.961574746111559"><ele>92.0</ele><time>2026-04-06T08:36:13.999Z</time></trkpt><trkpt lat="44.882462389021235" lon="9.961504431434028"><ele>92.0</ele><time>2026-04-06T08:36:14.998Z</time></trkpt><trkpt lat="44.88253994196668" lon="9.961434866257022"><ele>92.0</ele><time>2026-04-06T08:36:15.998Z</time></trkpt><trkpt lat="44.88261561252031" lon="9.961364992555962"><ele>92.0</ele><time>2026-04-06T08:36:16.998Z</time></trkpt><trkpt lat="44.88268912039152" lon="9.961296895501784"><ele>92.0</ele><time>2026-04-06T08:36:17.998Z</time></trkpt><trkpt lat="44.88275653486748" lon="9.961231366246873"><ele>92.0</ele><time>2026-04-06T08:36:18.998Z</time></trkpt><trkpt lat="44.8828225070787" lon="9.96116591203825"><ele>92.66666666666667</ele><time>2026-04-06T08:36:19.998Z</time></trkpt><trkpt lat="44.882888739488266" lon="9.961103403965588"><ele>93.33333333333334</ele><time>2026-04-06T08:36:20.998Z</time></trkpt><trkpt lat="44.88295251749277" lon="9.961034666743414"><ele>94.0</ele><time>2026-04-06T08:36:21.998Z</time></trkpt><trkpt lat="44.88301226430371" lon="9.960960945011184"><ele>94.66666666666667</ele><time>2026-04-06T08:36:22.998Z</time></trkpt><trkpt lat="44.88307051233434" lon="9.96088376020857"><ele>95.33333333333333</ele><time>2026-04-06T08:36:23.998Z</time></trkpt><trkpt lat="44.883127177704736" lon="9.96080585511837"><ele>96.0</ele><time>2026-04-06T08:36:24.998Z</time></trkpt><trkpt lat="44.88318466303187" lon="9.960728415993023"><ele>96.16666666666667</ele><time>2026-04-06T08:36:25.998Z</time></trkpt><trkpt lat="44.883241815380664" lon="9.9606503331992"><ele>96.33333333333334</ele><time>2026-04-06T08:36:26.998Z</time></trkpt><trkpt lat="44.88329729597847" lon="9.96056800058962"><ele>96.5</ele><time>2026-04-06T08:36:27.998Z</time></trkpt><trkpt lat="44.883353608262325" lon="9.960490082308702"><ele>96.66666666666667</ele><time>2026-04-06T08:36:28.998Z</time></trkpt><trkpt lat="44.88341312124143" lon="9.960415458323942"><ele>96.83333333333334</ele><time>2026-04-06T08:36:29.998Z</time></trkpt><trkpt lat="44.883477399534854" lon="9.96034186018641"><ele>97.0</ele><time>2026-04-06T08:36:30.998Z</time></trkpt><trkpt lat="44.88354481059344" lon="9.960269988444576"><ele>96.66666666666667</ele><time>2026-04-06T08:36:31.998Z</time></trkpt><trkpt lat="44.883616543306054" lon="9.960200787584098"><ele>96.33333333333334</ele><time>2026-04-06T08:36:32.998Z</time></trkpt><trkpt lat="44.883688412480396" lon="9.960129997929785"><ele>96.0</ele><time>2026-04-06T08:36:33.998Z</time></trkpt><trkpt lat="44.883760992871835" lon="9.96005947040294"><ele>95.66666666666667</ele><time>2026-04-06T08:36:35Z</time></trkpt><trkpt lat="44.88383511078932" lon="9.95999086032381"><ele>95.33333333333334</ele><time>2026-04-06T08:36:36Z</time></trkpt><trkpt lat="44.88390973753654" lon="9.959917607417337"><ele>95.0</ele><time>2026-04-06T08:36:37Z</time></trkpt><trkpt lat="44.88398133075602" lon="9.959849156813153"><ele>95.0</ele><time>2026-04-06T08:36:38Z</time></trkpt><trkpt lat="44.88405712676752" lon="9.959776839454092"><ele>95.0</ele><time>2026-04-06T08:36:39Z</time></trkpt><trkpt lat="44.88413093058724" lon="9.959705096452666"><ele>95.0</ele><time>2026-04-06T08:36:40Z</time></trkpt><trkpt lat="44.88420804783724" lon="9.959633048063314"><ele>95.0</ele><time>2026-04-06T08:36:41Z</time></trkpt><trkpt lat="44.88428444061177" lon="9.95955855067"><ele>95.0</ele><time>2026-04-06T08:36:42Z</time></trkpt><trkpt lat="44.884356512677435" lon="9.959479967155154"><ele>94.4</ele><time>2026-04-06T08:36:43Z</time></trkpt><trkpt lat="44.88442836896345" lon="9.959399013762457"><ele>93.8</ele><time>2026-04-06T08:36:44Z</time></trkpt><trkpt lat="44.884496961229395" lon="9.959309918039516"><ele>93.19999999999999</ele><time>2026-04-06T08:36:45Z</time></trkpt><trkpt lat="44.884564054374685" lon="9.959213065389948"><ele>92.6</ele><time>2026-04-06T08:36:46Z</time></trkpt><trkpt lat="44.88462859850834" lon="9.95911155531661"><ele>92.0</ele><time>2026-04-06T08:36:47Z</time></trkpt><trkpt lat="44.88468991510949" lon="9.959003788623173"><ele>91.6</ele><time>2026-04-06T08:36:48Z</time></trkpt><trkpt lat="44.88474933991118" lon="9.95888874172043"><ele>91.19999999999999</ele><time>2026-04-06T08:36:49Z</time></trkpt><trkpt lat="44.88480868663446" lon="9.958771579321953"><ele>90.8</ele><time>2026-04-06T08:36:50Z</time></trkpt><trkpt lat="44.88486831363451" lon="9.958650790769576"><ele>90.4</ele><time>2026-04-06T08:36:51Z</time></trkpt><trkpt lat="44.88493042383494" lon="9.958527388412666"><ele>90.0</ele><time>2026-04-06T08:36:52Z</time></trkpt><trkpt lat="44.884995237058035" lon="9.95840597019113"><ele>89.6</ele><time>2026-04-06T08:36:53Z</time></trkpt><trkpt lat="44.88506118089896" lon="9.958284642811499"><ele>89.2</ele><time>2026-04-06T08:36:54Z</time></trkpt><trkpt lat="44.8851314289618" lon="9.958165528214906"><ele>88.80000000000001</ele><time>2026-04-06T08:36:55Z</time></trkpt><trkpt lat="44.88519427928779" lon="9.958044833382626"><ele>88.4</ele><time>2026-04-06T08:36:56Z</time></trkpt><trkpt lat="44.88525445449473" lon="9.957920268003566"><ele>88.0</ele><time>2026-04-06T08:36:57Z</time></trkpt><trkpt lat="44.88530777740721" lon="9.957793928792839"><ele>87.80000000000001</ele><time>2026-04-06T08:36:58Z</time></trkpt><trkpt lat="44.88535440727655" lon="9.957667540253397"><ele>87.6</ele><time>2026-04-06T08:36:59Z</time></trkpt><trkpt lat="44.88540164686371" lon="9.957542561590802"><ele>87.4</ele><time>2026-04-06T08:37:00Z</time></trkpt><trkpt lat="44.88544710490197" lon="9.957423316593362"><ele>87.19999999999999</ele><time>2026-04-06T08:37:01Z</time></trkpt><trkpt lat="44.88548858838412" lon="9.957313146323944"><ele>87.0</ele><time>2026-04-06T08:37:02Z</time></trkpt><trkpt lat="44.88552829001409" lon="9.95720746166307"><ele>87.0</ele><time>2026-04-06T08:37:03Z</time></trkpt><trkpt lat="44.88556679635989" lon="9.95710284054114"><ele>87.0</ele><time>2026-04-06T08:37:04Z</time></trkpt><trkpt lat="44.885602124935915" lon="9.957004387795717"><ele>87.0</ele><time>2026-04-06T08:37:05Z</time></trkpt><trkpt lat="44.88563580057629" lon="9.95690705518337"><ele>87.0</ele><time>2026-04-06T08:37:06Z</time></trkpt><trkpt lat="44.885668433304346" lon="9.956811452530276"><ele>87.0</ele><time>2026-04-06T08:37:07Z</time></trkpt><trkpt lat="44.88570404167543" lon="9.956720711354441"><ele>87.0</ele><time>2026-04-06T08:37:08Z</time></trkpt><trkpt lat="44.88573403053541" lon="9.956634308189392"><ele>87.16666666666667</ele><time>2026-04-06T08:37:09Z</time></trkpt><trkpt lat="44.88576442635813" lon="9.956551670068299"><ele>87.33333333333333</ele><time>2026-04-06T08:37:10Z</time></trkpt><trkpt lat="44.88579246547079" lon="9.956469204304993"><ele>87.5</ele><time>2026-04-06T08:37:11Z</time></trkpt><trkpt lat="44.88582077521811" lon="9.95638918745893"><ele>87.66666666666666</ele><time>2026-04-06T08:37:12Z</time></trkpt><trkpt lat="44.885876611904344" lon="9.956240218987489"><ele>87.83333333333333</ele><time>2026-04-06T08:37:14Z</time></trkpt><trkpt lat="44.88592360801034" lon="9.95611148259337"><ele>88.0</ele><time>2026-04-06T08:37:16Z</time></trkpt><trkpt lat="44.88595836416101" lon="9.955993988461106"><ele>88.0</ele><time>2026-04-06T08:37:18Z</time></trkpt><trkpt lat="44.885988557049586" lon="9.955892184714292"><ele>88.0</ele><time>2026-04-06T08:37:20Z</time></trkpt><trkpt lat="44.88603182549793" lon="9.955786661476814"><ele>88.0</ele><time>2026-04-06T08:37:22Z</time></trkpt><trkpt lat="44.88607173167434" lon="9.955678882835631"><ele>88.0</ele><time>2026-04-06T08:37:24Z</time></trkpt><trkpt lat="44.88610716480881" lon="9.955561206195606"><ele>88.0</ele><time>2026-04-06T08:37:25.999Z</time></trkpt><trkpt lat="44.88614960425975" lon="9.955433326716596"><ele>88.0</ele><time>2026-04-06T08:37:27.999Z</time></trkpt><trkpt lat="44.8861977557149" lon="9.955308317478762"><ele>88.0</ele><time>2026-04-06T08:37:29.999Z</time></trkpt><trkpt lat="44.88624809099711" lon="9.955171583126054"><ele>88.0</ele><time>2026-04-06T08:37:31.999Z</time></trkpt><trkpt lat="44.8863037320027" lon="9.955027265524823"><ele>88.0</ele><time>2026-04-06T08:37:33.999Z</time></trkpt><trkpt lat="44.88635639599421" lon="9.954884248207243"><ele>88.0</ele><time>2026-04-06T08:37:35.999Z</time></trkpt><trkpt lat="44.8864117332027" lon="9.954728185081224"><ele>88.25</ele><time>2026-04-06T08:37:37.999Z</time></trkpt><trkpt lat="44.886456109223325" lon="9.954568140651013"><ele>88.5</ele><time>2026-04-06T08:37:39.999Z</time></trkpt><trkpt lat="44.88650180804212" lon="9.95440928497009"><ele>88.75</ele><time>2026-04-06T08:37:41.999Z</time></trkpt><trkpt lat="44.88657363578178" lon="9.954285587731707"><ele>89.0</ele><time>2026-04-06T08:37:43.999Z</time></trkpt><trkpt lat="44.886693535338324" lon="9.954325816555606"><ele>89.0</ele><time>2026-04-06T08:37:45.999Z</time></trkpt><trkpt lat="44.886733007838274" lon="9.954398450806469"><ele>89.0</ele><time>2026-04-06T08:37:46.999Z</time></trkpt><trkpt lat="44.88680491111065" lon="9.954534578971238"><ele>89.0</ele><time>2026-04-06T08:37:48.999Z</time></trkpt><trkpt lat="44.88684880325095" lon="9.954601501786223"><ele>89.0</ele><time>2026-04-06T08:37:49.999Z</time></trkpt><trkpt lat="44.8868940025898" lon="9.954667557259258"><ele>89.0</ele><time>2026-04-06T08:37:50.999Z</time></trkpt><trkpt lat="44.88698439338655" lon="9.954805057241341"><ele>89.0</ele><time>2026-04-06T08:37:52.999Z</time></trkpt><trkpt lat="44.88703620016195" lon="9.95487929193929"><ele>89.0</ele><time>2026-04-06T08:37:53.999Z</time></trkpt><trkpt lat="44.887088668076366" lon="9.954955783788302"><ele>89.0</ele><time>2026-04-06T08:37:54.999Z</time></trkpt><trkpt lat="44.88714779842751" lon="9.95503036226783"><ele>89.0</ele><time>2026-04-06T08:37:55.999Z</time></trkpt><trkpt lat="44.88720729745724" lon="9.95510926010971"><ele>89.0</ele><time>2026-04-06T08:37:56.999Z</time></trkpt><trkpt lat="44.88726613209774" lon="9.9551849834873"><ele>89.0</ele><time>2026-04-06T08:37:57.999Z</time></trkpt><trkpt lat="44.88732982637224" lon="9.955263623917759"><ele>89.0</ele><time>2026-04-06T08:37:58.999Z</time></trkpt><trkpt lat="44.88739576572156" lon="9.955341397752301"><ele>88.83333333333334</ele><time>2026-04-06T08:37:59.999Z</time></trkpt><trkpt lat="44.88746329275414" lon="9.955419200198168"><ele>88.66666666666667</ele><time>2026-04-06T08:38:00.999Z</time></trkpt><trkpt lat="44.887531010978" lon="9.955495864484492"><ele>88.5</ele><time>2026-04-06T08:38:01.999Z</time></trkpt><trkpt lat="44.887599111790216" lon="9.95557295546142"><ele>88.33333333333333</ele><time>2026-04-06T08:38:02.999Z</time></trkpt><trkpt lat="44.88767100721904" lon="9.955648327085218"><ele>88.16666666666666</ele><time>2026-04-06T08:38:03.999Z</time></trkpt><trkpt lat="44.887746566344944" lon="9.955715887757991"><ele>88.0</ele><time>2026-04-06T08:38:04.999Z</time></trkpt><trkpt lat="44.88782636684217" lon="9.955779805417697"><ele>87.80000000000001</ele><time>2026-04-06T08:38:05.999Z</time></trkpt><trkpt lat="44.88790861803656" lon="9.955836465604415"><ele>87.6</ele><time>2026-04-06T08:38:06.999Z</time></trkpt><trkpt lat="44.88799398915894" lon="9.955889362544875"><ele>87.4</ele><time>2026-04-06T08:38:07.999Z</time></trkpt><trkpt lat="44.88808057076202" lon="9.955941941898933"><ele>87.19999999999999</ele><time>2026-04-06T08:38:08.999Z</time></trkpt><trkpt lat="44.88816753214405" lon="9.95599148011418"><ele>87.0</ele><time>2026-04-06T08:38:09.999Z</time></trkpt><trkpt lat="44.88825475029832" lon="9.956042223004241"><ele>87.0</ele><time>2026-04-06T08:38:10.999Z</time></trkpt><trkpt lat="44.88834234379206" lon="9.956089618845159"><ele>87.0</ele><time>2026-04-06T08:38:11.999Z</time></trkpt><trkpt lat="44.88843113045181" lon="9.956136972472715"><ele>87.0</ele><time>2026-04-06T08:38:12.999Z</time></trkpt><trkpt lat="44.888518924412566" lon="9.956186938771923"><ele>87.0</ele><time>2026-04-06T08:38:13.999Z</time></trkpt><trkpt lat="44.88860746030552" lon="9.956240324658898"><ele>87.0</ele><time>2026-04-06T08:38:14.999Z</time></trkpt><trkpt lat="44.88869377581905" lon="9.956295236912338"><ele>87.0</ele><time>2026-04-06T08:38:15.999Z</time></trkpt><trkpt lat="44.888777954284826" lon="9.956355383378938"><ele>87.0</ele><time>2026-04-06T08:38:16.999Z</time></trkpt><trkpt lat="44.88886260052987" lon="9.956419666061734"><ele>87.0</ele><time>2026-04-06T08:38:17.999Z</time></trkpt><trkpt lat="44.88894168745497" lon="9.956492566629665"><ele>87.0</ele><time>2026-04-06T08:38:18.998Z</time></trkpt><trkpt lat="44.88901897545551" lon="9.956570941266225"><ele>87.0</ele><time>2026-04-06T08:38:19.998Z</time></trkpt><trkpt lat="44.88909426232444" lon="9.95665233975014"><ele>87.0</ele><time>2026-04-06T08:38:20.998Z</time></trkpt><trkpt lat="44.88916748857596" lon="9.956738591823724"><ele>87.0</ele><time>2026-04-06T08:38:21.998Z</time></trkpt><trkpt lat="44.88923937220146" lon="9.956830083719437"><ele>87.0</ele><time>2026-04-06T08:38:22.998Z</time></trkpt><trkpt lat="44.889305059847" lon="9.956922872634395"><ele>87.0</ele><time>2026-04-06T08:38:23.998Z</time></trkpt><trkpt lat="44.889365847104095" lon="9.957021401910472"><ele>87.0</ele><time>2026-04-06T08:38:24.998Z</time></trkpt><trkpt lat="44.88942086816299" lon="9.957125644279431"><ele>87.0</ele><time>2026-04-06T08:38:25.998Z</time></trkpt><trkpt lat="44.88947319992912" lon="9.957235067471707"><ele>87.0</ele><time>2026-04-06T08:38:26.998Z</time></trkpt><trkpt lat="44.8895196051866" lon="9.957345539584406"><ele>87.0</ele><time>2026-04-06T08:38:27.998Z</time></trkpt><trkpt lat="44.88956485743628" lon="9.957451941610742"><ele>87.0</ele><time>2026-04-06T08:38:28.998Z</time></trkpt><trkpt lat="44.88961064502557" lon="9.957560132864444"><ele>87.0</ele><time>2026-04-06T08:38:29.998Z</time></trkpt><trkpt lat="44.88965491977489" lon="9.957668070946616"><ele>87.16666666666667</ele><time>2026-04-06T08:38:30.998Z</time></trkpt><trkpt lat="44.88970079024605" lon="9.957774438175187"><ele>87.33333333333333</ele><time>2026-04-06T08:38:31.998Z</time></trkpt><trkpt lat="44.889748247652896" lon="9.957877248848037"><ele>87.5</ele><time>2026-04-06T08:38:32.998Z</time></trkpt><trkpt lat="44.88980042623064" lon="9.957975098774458"><ele>87.66666666666666</ele><time>2026-04-06T08:38:33.998Z</time></trkpt><trkpt lat="44.889858205690196" lon="9.958072807647959"><ele>87.83333333333333</ele><time>2026-04-06T08:38:34.998Z</time></trkpt><trkpt lat="44.88991775875698" lon="9.958166084967543"><ele>88.0</ele><time>2026-04-06T08:38:35.998Z</time></trkpt><trkpt lat="44.8899777447509" lon="9.958259139420713"><ele>88.0</ele><time>2026-04-06T08:38:36.998Z</time></trkpt><trkpt lat="44.89003784852624" lon="9.958351185901499"><ele>88.0</ele><time>2026-04-06T08:38:37.998Z</time></trkpt><trkpt lat="44.89009760580179" lon="9.958446005561711"><ele>88.0</ele><time>2026-04-06T08:38:38.998Z</time></trkpt><trkpt lat="44.890157973744074" lon="9.958543201471691"><ele>88.0</ele><time>2026-04-06T08:38:39.998Z</time></trkpt><trkpt lat="44.89022049447855" lon="9.958640034031527"><ele>88.0</ele><time>2026-04-06T08:38:41Z</time></trkpt><trkpt lat="44.89028338465848" lon="9.958737000093882"><ele>87.4</ele><time>2026-04-06T08:38:42Z</time></trkpt><trkpt lat="44.890346401693186" lon="9.958838305011366"><ele>86.80000000000001</ele><time>2026-04-06T08:38:43Z</time></trkpt><trkpt lat="44.89040805271514" lon="9.958937895329331"><ele>86.2</ele><time>2026-04-06T08:38:44Z</time></trkpt><trkpt lat="44.89047266922209" lon="9.95903743086524"><ele>85.6</ele><time>2026-04-06T08:38:45Z</time></trkpt><trkpt lat="44.890536435726766" lon="9.959135004913033"><ele>85.0</ele><time>2026-04-06T08:38:46Z</time></trkpt><trkpt lat="44.890599855078314" lon="9.959234666171358"><ele>84.8</ele><time>2026-04-06T08:38:47Z</time></trkpt><trkpt lat="44.89066228787668" lon="9.9593335523621"><ele>84.6</ele><time>2026-04-06T08:38:48Z</time></trkpt><trkpt lat="44.890727180923584" lon="9.959433138164112"><ele>84.4</ele><time>2026-04-06T08:38:49Z</time></trkpt><trkpt lat="44.89079205824297" lon="9.95953372530633"><ele>84.2</ele><time>2026-04-06T08:38:50Z</time></trkpt><trkpt lat="44.8908565099195" lon="9.959635658752722"><ele>84.0</ele><time>2026-04-06T08:38:51Z</time></trkpt><trkpt lat="44.8909216920929" lon="9.959736809922333"><ele>84.0</ele><time>2026-04-06T08:38:52Z</time></trkpt><trkpt lat="44.890985896454914" lon="9.959843105546673"><ele>84.0</ele><time>2026-04-06T08:38:53Z</time></trkpt><trkpt lat="44.89105069264551" lon="9.95994683962759"><ele>84.0</ele><time>2026-04-06T08:38:54Z</time></trkpt><trkpt lat="44.89111767170737" lon="9.960049398378978"><ele>84.0</ele><time>2026-04-06T08:38:55Z</time></trkpt><trkpt lat="44.891183501402715" lon="9.960152006065691"><ele>84.0</ele><time>2026-04-06T08:38:56Z</time></trkpt><trkpt lat="44.89124873440533" lon="9.960255483731522"><ele>84.0</ele><time>2026-04-06T08:38:57Z</time></trkpt><trkpt lat="44.89131487893237" lon="9.960359701481106"><ele>84.0</ele><time>2026-04-06T08:38:58Z</time></trkpt><trkpt lat="44.89138101700705" lon="9.960463613725807"><ele>84.0</ele><time>2026-04-06T08:38:59Z</time></trkpt><trkpt lat="44.89144675314898" lon="9.960568953757216"><ele>84.0</ele><time>2026-04-06T08:39:00Z</time></trkpt><trkpt lat="44.89151233377172" lon="9.960672975593546"><ele>84.0</ele><time>2026-04-06T08:39:01Z</time></trkpt><trkpt lat="44.89157933186604" lon="9.960778472829249"><ele>84.0</ele><time>2026-04-06T08:39:02Z</time></trkpt><trkpt lat="44.89164694298387" lon="9.960884275263652"><ele>84.0</ele><time>2026-04-06T08:39:03Z</time></trkpt><trkpt lat="44.891714806930196" lon="9.960990847245178"><ele>84.0</ele><time>2026-04-06T08:39:04Z</time></trkpt><trkpt lat="44.891782851544725" lon="9.96109986304068"><ele>84.0</ele><time>2026-04-06T08:39:05Z</time></trkpt><trkpt lat="44.89185196170223" lon="9.961209098068707"><ele>84.0</ele><time>2026-04-06T08:39:06Z</time></trkpt><trkpt lat="44.8919189659835" lon="9.961315690056294"><ele>83.80000000000001</ele><time>2026-04-06T08:39:07Z</time></trkpt><trkpt lat="44.89198804233012" lon="9.961422541798273"><ele>83.60000000000001</ele><time>2026-04-06T08:39:08Z</time></trkpt><trkpt lat="44.89205650395265" lon="9.961530267073883"><ele>83.4</ele><time>2026-04-06T08:39:09Z</time></trkpt><trkpt lat="44.892126175331576" lon="9.961637839366604"><ele>83.2</ele><time>2026-04-06T08:39:10Z</time></trkpt><trkpt lat="44.89219337791971" lon="9.96174668332969"><ele>83.0</ele><time>2026-04-06T08:39:11Z</time></trkpt><trkpt lat="44.892261306766045" lon="9.961856225015387"><ele>83.0</ele><time>2026-04-06T08:39:12Z</time></trkpt><trkpt lat="44.89233008568038" lon="9.961965055525715"><ele>83.0</ele><time>2026-04-06T08:39:13Z</time></trkpt><trkpt lat="44.892400575109484" lon="9.962074073502857"><ele>83.0</ele><time>2026-04-06T08:39:14Z</time></trkpt><trkpt lat="44.89247086379715" lon="9.962182300444685"><ele>83.0</ele><time>2026-04-06T08:39:15Z</time></trkpt><trkpt lat="44.892540520939654" lon="9.962291094116242"><ele>83.0</ele><time>2026-04-06T08:39:16Z</time></trkpt><trkpt lat="44.892610355349824" lon="9.962401470859682"><ele>82.60000000000001</ele><time>2026-04-06T08:39:17Z</time></trkpt><trkpt lat="44.892681128921424" lon="9.96251047452289"><ele>82.2</ele><time>2026-04-06T08:39:18Z</time></trkpt><trkpt lat="44.89275174539167" lon="9.962620547182219"><ele>81.8</ele><time>2026-04-06T08:39:19Z</time></trkpt><trkpt lat="44.89282272353764" lon="9.96273047511039"><ele>81.4</ele><time>2026-04-06T08:39:20Z</time></trkpt><trkpt lat="44.892891818074624" lon="9.962839926892324"><ele>81.0</ele><time>2026-04-06T08:39:21Z</time></trkpt><trkpt lat="44.89296156201298" lon="9.962949528389787"><ele>81.0</ele><time>2026-04-06T08:39:22Z</time></trkpt><trkpt lat="44.89302964805506" lon="9.963059220920453"><ele>81.0</ele><time>2026-04-06T08:39:23Z</time></trkpt><trkpt lat="44.89309837408119" lon="9.96316887165027"><ele>81.0</ele><time>2026-04-06T08:39:24Z</time></trkpt><trkpt lat="44.893166911397984" lon="9.96327636040294"><ele>81.0</ele><time>2026-04-06T08:39:25Z</time></trkpt><trkpt lat="44.89323721787773" lon="9.963383686723867"><ele>81.0</ele><time>2026-04-06T08:39:26Z</time></trkpt><trkpt lat="44.893307069469905" lon="9.96349125457439"><ele>81.4</ele><time>2026-04-06T08:39:27Z</time></trkpt><trkpt lat="44.89337673927163" lon="9.963594090237478"><ele>81.8</ele><time>2026-04-06T08:39:28Z</time></trkpt><trkpt lat="44.893445724852555" lon="9.963702974991294"><ele>82.2</ele><time>2026-04-06T08:39:29Z</time></trkpt><trkpt lat="44.89351058378269" lon="9.96381023227208"><ele>82.60000000000001</ele><time>2026-04-06T08:39:29.999Z</time></trkpt><trkpt lat="44.89357179070667" lon="9.963922364295154"><ele>83.0</ele><time>2026-04-06T08:39:30.999Z</time></trkpt><trkpt lat="44.89363270096364" lon="9.96403561049787"><ele>83.0</ele><time>2026-04-06T08:39:31.999Z</time></trkpt><trkpt lat="44.89369202749625" lon="9.964152114431947"><ele>83.0</ele><time>2026-04-06T08:39:32.999Z</time></trkpt><trkpt lat="44.89375165278359" lon="9.964268486067235"><ele>83.0</ele><time>2026-04-06T08:39:33.999Z</time></trkpt><trkpt lat="44.893811190417075" lon="9.964385925643857"><ele>83.0</ele><time>2026-04-06T08:39:34.999Z</time></trkpt><trkpt lat="44.89387076516735" lon="9.964503271692147"><ele>83.0</ele><time>2026-04-06T08:39:35.999Z</time></trkpt><trkpt lat="44.89392781296317" lon="9.964622921006441"><ele>83.0</ele><time>2026-04-06T08:39:36.999Z</time></trkpt><trkpt lat="44.89398605426209" lon="9.964742527489314"><ele>83.0</ele><time>2026-04-06T08:39:37.999Z</time></trkpt><trkpt lat="44.8940417159486" lon="9.96486416186567"><ele>83.0</ele><time>2026-04-06T08:39:38.999Z</time></trkpt><trkpt lat="44.89409472803518" lon="9.964987658633598"><ele>83.0</ele><time>2026-04-06T08:39:39.999Z</time></trkpt><trkpt lat="44.89415253170849" lon="9.965112260991521"><ele>83.0</ele><time>2026-04-06T08:39:40.999Z</time></trkpt><trkpt lat="44.894209742570155" lon="9.965234250981649"><ele>82.60000000000001</ele><time>2026-04-06T08:39:41.999Z</time></trkpt><trkpt lat="44.894263847481824" lon="9.965356153566232"><ele>82.2</ele><time>2026-04-06T08:39:42.999Z</time></trkpt><trkpt lat="44.89431492359929" lon="9.965480286328761"><ele>81.8</ele><time>2026-04-06T08:39:43.999Z</time></trkpt><trkpt lat="44.89436898771472" lon="9.965605168449569"><ele>81.4</ele><time>2026-04-06T08:39:44.999Z</time></trkpt><trkpt lat="44.89442269978627" lon="9.96572817612094"><ele>81.0</ele><time>2026-04-06T08:39:45.999Z</time></trkpt><trkpt lat="44.89447592128935" lon="9.965849576251621"><ele>80.6</ele><time>2026-04-06T08:39:46.999Z</time></trkpt><trkpt lat="44.89452847810773" lon="9.965968874159618"><ele>80.19999999999999</ele><time>2026-04-06T08:39:47.999Z</time></trkpt><trkpt lat="44.89458084803765" lon="9.966083866344835"><ele>79.80000000000001</ele><time>2026-04-06T08:39:48.999Z</time></trkpt><trkpt lat="44.894629224696466" lon="9.966198131416883"><ele>79.4</ele><time>2026-04-06T08:39:49.999Z</time></trkpt><trkpt lat="44.89468482717227" lon="9.96630876226622"><ele>79.0</ele><time>2026-04-06T08:39:50.999Z</time></trkpt><trkpt lat="44.89473661135174" lon="9.966420832096867"><ele>79.0</ele><time>2026-04-06T08:39:51.999Z</time></trkpt><trkpt lat="44.89480556925713" lon="9.966527954954197"><ele>79.0</ele><time>2026-04-06T08:39:52.999Z</time></trkpt><trkpt lat="44.89488095545473" lon="9.966623995043607"><ele>79.0</ele><time>2026-04-06T08:39:53.999Z</time></trkpt><trkpt lat="44.8949593360442" lon="9.96670787339721"><ele>79.0</ele><time>2026-04-06T08:39:54.999Z</time></trkpt><trkpt lat="44.89504108802023" lon="9.966782741553057"><ele>79.0</ele><time>2026-04-06T08:39:55.999Z</time></trkpt><trkpt lat="44.895122573089914" lon="9.966860783932043"><ele>79.2</ele><time>2026-04-06T08:39:56.999Z</time></trkpt><trkpt lat="44.89520393555476" lon="9.966942648537337"><ele>79.4</ele><time>2026-04-06T08:39:57.999Z</time></trkpt><trkpt lat="44.895281972684735" lon="9.967024515049584"><ele>79.6</ele><time>2026-04-06T08:39:58.999Z</time></trkpt><trkpt lat="44.895362760383705" lon="9.96710897637192"><ele>79.8</ele><time>2026-04-06T08:39:59.999Z</time></trkpt><trkpt lat="44.89543798212711" lon="9.967187556781454"><ele>80.0</ele><time>2026-04-06T08:40:00.999Z</time></trkpt><trkpt lat="44.89551439082151" lon="9.967263134034566"><ele>80.0</ele><time>2026-04-06T08:40:01.999Z</time></trkpt><trkpt lat="44.89559148523677" lon="9.967343093411497"><ele>80.0</ele><time>2026-04-06T08:40:02.999Z</time></trkpt><trkpt lat="44.89566447356908" lon="9.967415970332373"><ele>80.0</ele><time>2026-04-06T08:40:03.999Z</time></trkpt><trkpt lat="44.895734070691766" lon="9.967490163391165"><ele>80.0</ele><time>2026-04-06T08:40:04.999Z</time></trkpt><trkpt lat="44.895804579082665" lon="9.967563094756585"><ele>80.0</ele><time>2026-04-06T08:40:05.999Z</time></trkpt><trkpt lat="44.89586888386786" lon="9.967629790170554"><ele>80.0</ele><time>2026-04-06T08:40:06.999Z</time></trkpt><trkpt lat="44.895927864233904" lon="9.96769321370079"><ele>79.71428571428571</ele><time>2026-04-06T08:40:07.999Z</time></trkpt><trkpt lat="44.89598255587976" lon="9.967749450052768"><ele>79.42857142857143</ele><time>2026-04-06T08:40:08.999Z</time></trkpt><trkpt lat="44.89606067554117" lon="9.967841434204399"><ele>79.14285714285714</ele><time>2026-04-06T08:40:10.999Z</time></trkpt><trkpt lat="44.89610592211779" lon="9.967916117484606"><ele>78.85714285714286</ele><time>2026-04-06T08:40:13.999Z</time></trkpt><trkpt lat="44.89616200058577" lon="9.967963397796584"><ele>78.57142857142857</ele><time>2026-04-06T08:40:31.998Z</time></trkpt><trkpt lat="44.896227768037136" lon="9.967959712583907"><ele>78.28571428571429</ele><time>2026-04-06T08:40:33.998Z</time></trkpt><trkpt lat="44.89630701848395" lon="9.967955662699616"><ele>78.0</ele><time>2026-04-06T08:40:35.998Z</time></trkpt><trkpt lat="44.89638763592625" lon="9.968041146845186"><ele>78.0</ele><time>2026-04-06T08:40:37.998Z</time></trkpt><trkpt lat="44.89649021131761" lon="9.968135596295891"><ele>78.0</ele><time>2026-04-06T08:40:39.998Z</time></trkpt><trkpt lat="44.89654625463167" lon="9.968187828224961"><ele>78.0</ele><time>2026-04-06T08:40:40.998Z</time></trkpt><trkpt lat="44.896601998573864" lon="9.968246289710054"><ele>78.0</ele><time>2026-04-06T08:40:41.998Z</time></trkpt><trkpt lat="44.896656451111475" lon="9.968311546540749"><ele>78.0</ele><time>2026-04-06T08:40:42.998Z</time></trkpt><trkpt lat="44.89671161000071" lon="9.968371255531197"><ele>78.0</ele><time>2026-04-06T08:40:43.998Z</time></trkpt><trkpt lat="44.89676928203201" lon="9.968427301521979"><ele>77.85714285714286</ele><time>2026-04-06T08:40:44.998Z</time></trkpt><trkpt lat="44.896825039716504" lon="9.968493126108685"><ele>77.71428571428571</ele><time>2026-04-06T08:40:45.998Z</time></trkpt><trkpt lat="44.896884695935526" lon="9.968556085765856"><ele>77.57142857142857</ele><time>2026-04-06T08:40:47Z</time></trkpt><trkpt lat="44.89694591514894" lon="9.9686147096431"><ele>77.42857142857143</ele><time>2026-04-06T08:40:48Z</time></trkpt><trkpt lat="44.89700950105553" lon="9.968671183268214"><ele>77.28571428571428</ele><time>2026-04-06T08:40:49Z</time></trkpt><trkpt lat="44.89707336280432" lon="9.968728805918424"><ele>77.14285714285714</ele><time>2026-04-06T08:40:50Z</time></trkpt><trkpt lat="44.897135628098674" lon="9.968790284423417"><ele>77.0</ele><time>2026-04-06T08:40:51Z</time></trkpt><trkpt lat="44.897202214155755" lon="9.96885106989962"><ele>77.0</ele><time>2026-04-06T08:40:52Z</time></trkpt><trkpt lat="44.89726844083815" lon="9.968914202501804"><ele>77.0</ele><time>2026-04-06T08:40:53Z</time></trkpt><trkpt lat="44.8973345979279" lon="9.96897952333481"><ele>77.0</ele><time>2026-04-06T08:40:54Z</time></trkpt><trkpt lat="44.89740419249611" lon="9.969047323917739"><ele>77.0</ele><time>2026-04-06T08:40:55Z</time></trkpt><trkpt lat="44.89747351506549" lon="9.9691127353866"><ele>77.0</ele><time>2026-04-06T08:40:56Z</time></trkpt><trkpt lat="44.897542662806124" lon="9.969178588749276"><ele>77.0</ele><time>2026-04-06T08:40:57Z</time></trkpt><trkpt lat="44.89761297166577" lon="9.969243486483043"><ele>76.66666666666667</ele><time>2026-04-06T08:40:58Z</time></trkpt><trkpt lat="44.897684068214545" lon="9.969308412624986"><ele>76.33333333333334</ele><time>2026-04-06T08:40:59Z</time></trkpt><trkpt lat="44.8977580520394" lon="9.969371987403212"><ele>76.0</ele><time>2026-04-06T08:41:00Z</time></trkpt><trkpt lat="44.89782955988438" lon="9.969434501711033"><ele>75.66666666666667</ele><time>2026-04-06T08:41:01Z</time></trkpt><trkpt lat="44.89790195916421" lon="9.969504153531366"><ele>75.33333333333333</ele><time>2026-04-06T08:41:02Z</time></trkpt><trkpt lat="44.897973020046614" lon="9.969572188213593"><ele>75.0</ele><time>2026-04-06T08:41:03Z</time></trkpt><trkpt lat="44.89804489350288" lon="9.969637009921383"><ele>75.0</ele><time>2026-04-06T08:41:04Z</time></trkpt><trkpt lat="44.8981167152631" lon="9.969700755968809"><ele>75.0</ele><time>2026-04-06T08:41:05Z</time></trkpt><trkpt lat="44.89818866674735" lon="9.96976678487496"><ele>75.0</ele><time>2026-04-06T08:41:06Z</time></trkpt><trkpt lat="44.89825876133187" lon="9.969831871776462"><ele>75.0</ele><time>2026-04-06T08:41:07Z</time></trkpt><trkpt lat="44.89832992802902" lon="9.969897789061005"><ele>75.0</ele><time>2026-04-06T08:41:08Z</time></trkpt><trkpt lat="44.89840157844873" lon="9.969969342220416"><ele>75.0</ele><time>2026-04-06T08:41:09Z</time></trkpt><trkpt lat="44.89847186171026" lon="9.970040002621582"><ele>74.83333333333333</ele><time>2026-04-06T08:41:10Z</time></trkpt><trkpt lat="44.898544209814325" lon="9.97011085527621"><ele>74.66666666666667</ele><time>2026-04-06T08:41:11Z</time></trkpt><trkpt lat="44.89861611638022" lon="9.970180357185683"><ele>74.5</ele><time>2026-04-06T08:41:12Z</time></trkpt><trkpt lat="44.89869047774209" lon="9.97024787882034"><ele>74.33333333333334</ele><time>2026-04-06T08:41:13Z</time></trkpt><trkpt lat="44.8987638874161" lon="9.970314836044361"><ele>74.16666666666667</ele><time>2026-04-06T08:41:14Z</time></trkpt><trkpt lat="44.89883641529081" lon="9.970384340100901"><ele>74.0</ele><time>2026-04-06T08:41:15Z</time></trkpt><trkpt lat="44.898910346898845" lon="9.970454527274573"><ele>74.0</ele><time>2026-04-06T08:41:16Z</time></trkpt><trkpt lat="44.89898457621489" lon="9.970525261898219"><ele>74.0</ele><time>2026-04-06T08:41:17Z</time></trkpt><trkpt lat="44.89906060912093" lon="9.970595585314516"><ele>74.0</ele><time>2026-04-06T08:41:18Z</time></trkpt><trkpt lat="44.89913681534795" lon="9.970664343431139"><ele>74.0</ele><time>2026-04-06T08:41:19Z</time></trkpt><trkpt lat="44.899212925178844" lon="9.97073583025998"><ele>74.0</ele><time>2026-04-06T08:41:20Z</time></trkpt><trkpt lat="44.899287362259585" lon="9.970805100044043"><ele>73.60000000000001</ele><time>2026-04-06T08:41:21Z</time></trkpt><trkpt lat="44.899364454087184" lon="9.970877568732549"><ele>73.2</ele><time>2026-04-06T08:41:22Z</time></trkpt><trkpt lat="44.89944185925121" lon="9.970946887799714"><ele>72.80000000000001</ele><time>2026-04-06T08:41:23Z</time></trkpt><trkpt lat="44.89951835471454" lon="9.971016927080314"><ele>72.4</ele><time>2026-04-06T08:41:24Z</time></trkpt><trkpt lat="44.89959358155208" lon="9.97108927383905"><ele>72.0</ele><time>2026-04-06T08:41:25Z</time></trkpt><trkpt lat="44.8996685608742" lon="9.97115969065347"><ele>72.0</ele><time>2026-04-06T08:41:26Z</time></trkpt><trkpt lat="44.89974553225657" lon="9.97122392013305"><ele>72.0</ele><time>2026-04-06T08:41:27Z</time></trkpt><trkpt lat="44.899824002130764" lon="9.971284933558138"><ele>72.0</ele><time>2026-04-06T08:41:28Z</time></trkpt><trkpt lat="44.899903068172854" lon="9.97135108498317"><ele>72.0</ele><time>2026-04-06T08:41:29Z</time></trkpt><trkpt lat="44.89997940647756" lon="9.971419925248659"><ele>72.0</ele><time>2026-04-06T08:41:30Z</time></trkpt><trkpt lat="44.90005408045991" lon="9.971494510112235"><ele>72.0</ele><time>2026-04-06T08:41:31Z</time></trkpt><trkpt lat="44.90012790155346" lon="9.971572910881534"><ele>72.0</ele><time>2026-04-06T08:41:32Z</time></trkpt><trkpt lat="44.900199423436824" lon="9.971651535067554"><ele>72.0</ele><time>2026-04-06T08:41:33Z</time></trkpt><trkpt lat="44.90026888117213" lon="9.971735949567716"><ele>72.0</ele><time>2026-04-06T08:41:34Z</time></trkpt><trkpt lat="44.90033146699186" lon="9.971830118799483"><ele>72.0</ele><time>2026-04-06T08:41:34.999Z</time></trkpt><trkpt lat="44.90039054553558" lon="9.971929692627256"><ele>71.6</ele><time>2026-04-06T08:41:35.999Z</time></trkpt><trkpt lat="44.90044751563509" lon="9.972031444430757"><ele>71.2</ele><time>2026-04-06T08:41:36.999Z</time></trkpt><trkpt lat="44.900500453229846" lon="9.97213726318161"><ele>70.8</ele><time>2026-04-06T08:41:37.999Z</time></trkpt><trkpt lat="44.90055441501666" lon="9.972244723980747"><ele>70.4</ele><time>2026-04-06T08:41:38.999Z</time></trkpt><trkpt lat="44.90061143832854" lon="9.972348922900835"><ele>70.0</ele><time>2026-04-06T08:41:39.999Z</time></trkpt><trkpt lat="44.90067813140548" lon="9.972450831584428"><ele>69.8</ele><time>2026-04-06T08:41:40.999Z</time></trkpt><trkpt lat="44.90075183192048" lon="9.972552102218845"><ele>69.6</ele><time>2026-04-06T08:41:41.999Z</time></trkpt><trkpt lat="44.90083127728376" lon="9.972651811447946"><ele>69.4</ele><time>2026-04-06T08:41:42.999Z</time></trkpt><trkpt lat="44.90091726587806" lon="9.972743834907282"><ele>69.2</ele><time>2026-04-06T08:41:43.999Z</time></trkpt><trkpt lat="44.90101175002889" lon="9.97282532429306"><ele>69.0</ele><time>2026-04-06T08:41:44.999Z</time></trkpt><trkpt lat="44.90110954974492" lon="9.972897217183565"><ele>68.75</ele><time>2026-04-06T08:41:45.999Z</time></trkpt><trkpt lat="44.90121291760645" lon="9.972964597843024"><ele>68.5</ele><time>2026-04-06T08:41:46.999Z</time></trkpt><trkpt lat="44.901319397037604" lon="9.973031115643547"><ele>68.25</ele><time>2026-04-06T08:41:47.999Z</time></trkpt><trkpt lat="44.90142741376278" lon="9.973098576365386"><ele>68.0</ele><time>2026-04-06T08:41:48.999Z</time></trkpt><trkpt lat="44.9015346150739" lon="9.973164331028471"><ele>68.0</ele><time>2026-04-06T08:41:49.999Z</time></trkpt><trkpt lat="44.901643049419214" lon="9.9732287235854"><ele>68.0</ele><time>2026-04-06T08:41:50.999Z</time></trkpt><trkpt lat="44.90174989633496" lon="9.97329032456154"><ele>68.0</ele><time>2026-04-06T08:41:51.999Z</time></trkpt><trkpt lat="44.90185128883565" lon="9.973344025742682"><ele>68.0</ele><time>2026-04-06T08:41:52.999Z</time></trkpt><trkpt lat="44.901953371215065" lon="9.973394574149662"><ele>68.2</ele><time>2026-04-06T08:41:53.999Z</time></trkpt><trkpt lat="44.9020519540534" lon="9.973437568410068"><ele>68.4</ele><time>2026-04-06T08:41:54.999Z</time></trkpt><trkpt lat="44.90214653479357" lon="9.973469910328864"><ele>68.60000000000001</ele><time>2026-04-06T08:41:55.999Z</time></trkpt><trkpt lat="44.902235396063176" lon="9.973499211557609"><ele>68.8</ele><time>2026-04-06T08:41:56.999Z</time></trkpt><trkpt lat="44.90232068689716" lon="9.973529020343472"><ele>69.0</ele><time>2026-04-06T08:41:57.999Z</time></trkpt><trkpt lat="44.90240436139949" lon="9.973552742005824"><ele>69.0</ele><time>2026-04-06T08:41:58.999Z</time></trkpt><trkpt lat="44.90248449712379" lon="9.973580959569453"><ele>69.0</ele><time>2026-04-06T08:41:59.999Z</time></trkpt><trkpt lat="44.90256251526208" lon="9.973617553535485"><ele>69.0</ele><time>2026-04-06T08:42:00.999Z</time></trkpt><trkpt lat="44.902638235370596" lon="9.973662736093752"><ele>69.0</ele><time>2026-04-06T08:42:01.999Z</time></trkpt><trkpt lat="44.90271559223025" lon="9.973709823254124"><ele>69.0</ele><time>2026-04-06T08:42:02.999Z</time></trkpt><trkpt lat="44.90279156996523" lon="9.973760527033972"><ele>69.0</ele><time>2026-04-06T08:42:03.999Z</time></trkpt><trkpt lat="44.902868439297514" lon="9.97381263026043"><ele>68.60000000000001</ele><time>2026-04-06T08:42:04.999Z</time></trkpt><trkpt lat="44.90294702727838" lon="9.973869772668559"><ele>68.2</ele><time>2026-04-06T08:42:05.999Z</time></trkpt><trkpt lat="44.903026708645285" lon="9.973926679867526"><ele>67.80000000000001</ele><time>2026-04-06T08:42:06.999Z</time></trkpt><trkpt lat="44.90310870738602" lon="9.97398204537018"><ele>67.4</ele><time>2026-04-06T08:42:07.999Z</time></trkpt><trkpt lat="44.90319290841851" lon="9.97403788260894"><ele>67.0</ele><time>2026-04-06T08:42:08.999Z</time></trkpt><trkpt lat="44.90327698381457" lon="9.974096900204884"><ele>67.0</ele><time>2026-04-06T08:42:09.999Z</time></trkpt><trkpt lat="44.903359962476465" lon="9.974157413055886"><ele>67.0</ele><time>2026-04-06T08:42:10.999Z</time></trkpt><trkpt lat="44.90344218361839" lon="9.974216288044321"><ele>67.0</ele><time>2026-04-06T08:42:11.999Z</time></trkpt><trkpt lat="44.903526368683295" lon="9.974270701952195"><ele>67.0</ele><time>2026-04-06T08:42:12.999Z</time></trkpt><trkpt lat="44.90361118014217" lon="9.974328182790892"><ele>67.0</ele><time>2026-04-06T08:42:13.999Z</time></trkpt><trkpt lat="44.90369602073958" lon="9.974387481203772"><ele>66.8</ele><time>2026-04-06T08:42:14.999Z</time></trkpt><trkpt lat="44.903778634321995" lon="9.97444560904027"><ele>66.6</ele><time>2026-04-06T08:42:15.999Z</time></trkpt><trkpt lat="44.90386253847884" lon="9.974503308899688"><ele>66.39999999999999</ele><time>2026-04-06T08:42:16.999Z</time></trkpt><trkpt lat="44.90395094515403" lon="9.974560225740888"><ele>66.2</ele><time>2026-04-06T08:42:17.999Z</time></trkpt><trkpt lat="44.90403826850529" lon="9.974618917163257"><ele>66.0</ele><time>2026-04-06T08:42:18.999Z</time></trkpt><trkpt lat="44.9041272560108" lon="9.974680002070174"><ele>66.0</ele><time>2026-04-06T08:42:19.999Z</time></trkpt><trkpt lat="44.90421557226896" lon="9.974744975065764"><ele>66.0</ele><time>2026-04-06T08:42:20.999Z</time></trkpt><trkpt lat="44.90430913471397" lon="9.97480414945723"><ele>66.0</ele><time>2026-04-06T08:42:21.999Z</time></trkpt><trkpt lat="44.90439666057326" lon="9.97486273219231"><ele>66.0</ele><time>2026-04-06T08:42:22.999Z</time></trkpt><trkpt lat="44.904487207547874" lon="9.974924055808986"><ele>66.0</ele><time>2026-04-06T08:42:23.999Z</time></trkpt><trkpt lat="44.904578637868724" lon="9.974986932958778"><ele>65.8</ele><time>2026-04-06T08:42:24.999Z</time></trkpt><trkpt lat="44.904667126517744" lon="9.975047401347279"><ele>65.6</ele><time>2026-04-06T08:42:25.999Z</time></trkpt><trkpt lat="44.90475776491308" lon="9.97511079076004"><ele>65.4</ele><time>2026-04-06T08:42:26.999Z</time></trkpt><trkpt lat="44.90484823046855" lon="9.975172459286437"><ele>65.2</ele><time>2026-04-06T08:42:27.998Z</time></trkpt><trkpt lat="44.90493757570486" lon="9.975235547630632"><ele>65.0</ele><time>2026-04-06T08:42:28.998Z</time></trkpt><trkpt lat="44.90502727261832" lon="9.975295327371327"><ele>65.2</ele><time>2026-04-06T08:42:29.998Z</time></trkpt><trkpt lat="44.905117785732585" lon="9.975357770874083"><ele>65.4</ele><time>2026-04-06T08:42:30.998Z</time></trkpt><trkpt lat="44.90520569096875" lon="9.975419671266467"><ele>65.6</ele><time>2026-04-06T08:42:31.998Z</time></trkpt><trkpt lat="44.90529377982484" lon="9.975481251701664"><ele>65.8</ele><time>2026-04-06T08:42:32.998Z</time></trkpt><trkpt lat="44.90538130506372" lon="9.97554156258119"><ele>66.0</ele><time>2026-04-06T08:42:33.998Z</time></trkpt><trkpt lat="44.90546921331704" lon="9.975601780571933"><ele>66.0</ele><time>2026-04-06T08:42:34.998Z</time></trkpt><trkpt lat="44.905559422523154" lon="9.975662509419026"><ele>66.0</ele><time>2026-04-06T08:42:35.998Z</time></trkpt><trkpt lat="44.90564928478138" lon="9.97572387890362"><ele>66.0</ele><time>2026-04-06T08:42:36.998Z</time></trkpt><trkpt lat="44.90573734278516" lon="9.975785107802007"><ele>66.0</ele><time>2026-04-06T08:42:37.998Z</time></trkpt><trkpt lat="44.9058266768641" lon="9.975846886281799"><ele>66.0</ele><time>2026-04-06T08:42:38.998Z</time></trkpt><trkpt lat="44.90591526925576" lon="9.975904270010249"><ele>65.39999999999999</ele><time>2026-04-06T08:42:39.998Z</time></trkpt><trkpt lat="44.90600687006923" lon="9.975966302209404"><ele>64.8</ele><time>2026-04-06T08:42:40.998Z</time></trkpt><trkpt lat="44.90609738206059" lon="9.976028668377271"><ele>64.19999999999999</ele><time>2026-04-06T08:42:41.998Z</time></trkpt><trkpt lat="44.90618790346218" lon="9.976091272613267"><ele>63.599999999999994</ele><time>2026-04-06T08:42:42.998Z</time></trkpt><trkpt lat="44.90627827753823" lon="9.976153132789877"><ele>63.0</ele><time>2026-04-06T08:42:43.998Z</time></trkpt><trkpt lat="44.906369544826084" lon="9.976213347144002"><ele>63.0</ele><time>2026-04-06T08:42:44.998Z</time></trkpt><trkpt lat="44.90646104111428" lon="9.97627344516897"><ele>63.0</ele><time>2026-04-06T08:42:45.998Z</time></trkpt><trkpt lat="44.906550438765315" lon="9.97633253566989"><ele>63.0</ele><time>2026-04-06T08:42:46.998Z</time></trkpt><trkpt lat="44.90664027615327" lon="9.976393339580662"><ele>63.0</ele><time>2026-04-06T08:42:47.998Z</time></trkpt><trkpt lat="44.90672992120127" lon="9.976454836320455"><ele>63.0</ele><time>2026-04-06T08:42:48.998Z</time></trkpt><trkpt lat="44.90681942009395" lon="9.976519456688228"><ele>63.0</ele><time>2026-04-06T08:42:49.998Z</time></trkpt><trkpt lat="44.90690962949613" lon="9.976582604773553"><ele>63.0</ele><time>2026-04-06T08:42:50.998Z</time></trkpt><trkpt lat="44.90700127395598" lon="9.976644454985392"><ele>63.0</ele><time>2026-04-06T08:42:51.998Z</time></trkpt><trkpt lat="44.90709080006429" lon="9.976708245847101"><ele>63.0</ele><time>2026-04-06T08:42:53Z</time></trkpt><trkpt lat="44.90718118818825" lon="9.976769342620273"><ele>63.0</ele><time>2026-04-06T08:42:54Z</time></trkpt><trkpt lat="44.907273594843105" lon="9.976831230977906"><ele>63.0</ele><time>2026-04-06T08:42:55Z</time></trkpt><trkpt lat="44.90736497729699" lon="9.976894777320638"><ele>63.0</ele><time>2026-04-06T08:42:56Z</time></trkpt><trkpt lat="44.90745863339892" lon="9.976958776296241"><ele>63.0</ele><time>2026-04-06T08:42:57Z</time></trkpt><trkpt lat="44.90755021438172" lon="9.977023656848882"><ele>63.0</ele><time>2026-04-06T08:42:58Z</time></trkpt><trkpt lat="44.907642319904674" lon="9.977084977780967"><ele>63.0</ele><time>2026-04-06T08:42:59Z</time></trkpt><trkpt lat="44.90773481222454" lon="9.977150788091526"><ele>62.8</ele><time>2026-04-06T08:43:00Z</time></trkpt><trkpt lat="44.90782802392257" lon="9.977215497183272"><ele>62.599999999999994</ele><time>2026-04-06T08:43:01Z</time></trkpt><trkpt lat="44.90792034193182" lon="9.9772780128752"><ele>62.400000000000006</ele><time>2026-04-06T08:43:02Z</time></trkpt><trkpt lat="44.90801233408347" lon="9.977341502639844"><ele>62.2</ele><time>2026-04-06T08:43:03Z</time></trkpt><trkpt lat="44.90810658669683" lon="9.977404694159585"><ele>62.0</ele><time>2026-04-06T08:43:04Z</time></trkpt><trkpt lat="44.90819920599983" lon="9.977467873049044"><ele>61.8</ele><time>2026-04-06T08:43:05Z</time></trkpt><trkpt lat="44.90829088065466" lon="9.977529481099435"><ele>61.6</ele><time>2026-04-06T08:43:06Z</time></trkpt><trkpt lat="44.90838402788206" lon="9.977593041397066"><ele>61.39999999999999</ele><time>2026-04-06T08:43:07Z</time></trkpt><trkpt lat="44.90847607378133" lon="9.977658231808942"><ele>61.199999999999996</ele><time>2026-04-06T08:43:08Z</time></trkpt><trkpt lat="44.9085693213055" lon="9.977720581671125"><ele>61.0</ele><time>2026-04-06T08:43:09Z</time></trkpt><trkpt lat="44.90866236114792" lon="9.977783029142511"><ele>61.0</ele><time>2026-04-06T08:43:10Z</time></trkpt><trkpt lat="44.90875479550059" lon="9.97784582616161"><ele>60.99999999999999</ele><time>2026-04-06T08:43:11Z</time></trkpt><trkpt lat="44.90884481277487" lon="9.977908911742224"><ele>60.99999999999999</ele><time>2026-04-06T08:43:12Z</time></trkpt><trkpt lat="44.908934339048" lon="9.977973208034369"><ele>61.0</ele><time>2026-04-06T08:43:13Z</time></trkpt><trkpt lat="44.90902505400971" lon="9.97803677893423"><ele>61.0</ele><time>2026-04-06T08:43:14Z</time></trkpt><trkpt lat="44.90911458718823" lon="9.97809847498102"><ele>61.0</ele><time>2026-04-06T08:43:15Z</time></trkpt><trkpt lat="44.90920440895056" lon="9.978159171608109"><ele>60.99999999999999</ele><time>2026-04-06T08:43:16Z</time></trkpt><trkpt lat="44.90929522660058" lon="9.978218404488182"><ele>60.99999999999999</ele><time>2026-04-06T08:43:17Z</time></trkpt><trkpt lat="44.90938449284573" lon="9.97827919306074"><ele>61.0</ele><time>2026-04-06T08:43:18Z</time></trkpt><trkpt lat="44.90947587526302" lon="9.978341380632465"><ele>61.0</ele><time>2026-04-06T08:43:19Z</time></trkpt><trkpt lat="44.909567447786884" lon="9.978403811512745"><ele>61.0</ele><time>2026-04-06T08:43:20Z</time></trkpt><trkpt lat="44.90965900437946" lon="9.97846633953988"><ele>60.99999999999999</ele><time>2026-04-06T08:43:21Z</time></trkpt><trkpt lat="44.909750146804534" lon="9.978529285967543"><ele>60.99999999999999</ele><time>2026-04-06T08:43:22Z</time></trkpt><trkpt lat="44.90984102260674" lon="9.97859289824993"><ele>61.0</ele><time>2026-04-06T08:43:23Z</time></trkpt><trkpt lat="44.90993103628976" lon="9.978655201745829"><ele>61.0</ele><time>2026-04-06T08:43:24Z</time></trkpt><trkpt lat="44.910021557537746" lon="9.978719672742058"><ele>61.0</ele><time>2026-04-06T08:43:25Z</time></trkpt><trkpt lat="44.910112246898635" lon="9.97877954142898"><ele>60.99999999999999</ele><time>2026-04-06T08:43:26Z</time></trkpt><trkpt lat="44.91020500569578" lon="9.978840080976086"><ele>60.99999999999999</ele><time>2026-04-06T08:43:27Z</time></trkpt><trkpt lat="44.910297258723986" lon="9.978901609164932"><ele>61.0</ele><time>2026-04-06T08:43:28Z</time></trkpt><trkpt lat="44.91038792779691" lon="9.978962606910098"><ele>61.0</ele><time>2026-04-06T08:43:29Z</time></trkpt><trkpt lat="44.91047824079438" lon="9.979025929877311"><ele>61.0</ele><time>2026-04-06T08:43:30Z</time></trkpt><trkpt lat="44.910567431692265" lon="9.979090556485131"><ele>60.99999999999999</ele><time>2026-04-06T08:43:31Z</time></trkpt><trkpt lat="44.910658941872995" lon="9.97915676562997"><ele>60.99999999999999</ele><time>2026-04-06T08:43:32Z</time></trkpt><trkpt lat="44.91074861388919" lon="9.979222199909325"><ele>61.0</ele><time>2026-04-06T08:43:33Z</time></trkpt><trkpt lat="44.9108401810625" lon="9.979285781868539"><ele>61.0</ele><time>2026-04-06T08:43:34Z</time></trkpt><trkpt lat="44.91093231732902" lon="9.979349526336375"><ele>61.199999999999996</ele><time>2026-04-06T08:43:35Z</time></trkpt><trkpt lat="44.911023579113525" lon="9.979412000063384"><ele>61.39999999999999</ele><time>2026-04-06T08:43:36Z</time></trkpt><trkpt lat="44.91111515423101" lon="9.979475894562027"><ele>61.6</ele><time>2026-04-06T08:43:37Z</time></trkpt><trkpt lat="44.91120600048833" lon="9.979538406984778"><ele>61.8</ele><time>2026-04-06T08:43:38Z</time></trkpt><trkpt lat="44.91129793268577" lon="9.979599832002865"><ele>62.0</ele><time>2026-04-06T08:43:39Z</time></trkpt><trkpt lat="44.911388830206405" lon="9.979664527689804"><ele>62.0</ele><time>2026-04-06T08:43:39.999Z</time></trkpt><trkpt lat="44.91147944885169" lon="9.979729148568875"><ele>62.0</ele><time>2026-04-06T08:43:40.999Z</time></trkpt><trkpt lat="44.911571248633535" lon="9.97979449211194"><ele>62.0</ele><time>2026-04-06T08:43:41.999Z</time></trkpt><trkpt lat="44.91166131695995" lon="9.979860100160083"><ele>62.0</ele><time>2026-04-06T08:43:42.999Z</time></trkpt><trkpt lat="44.911750167442726" lon="9.979925012958157"><ele>62.0</ele><time>2026-04-06T08:43:43.999Z</time></trkpt><trkpt lat="44.91184091440143" lon="9.979989088824686"><ele>61.6</ele><time>2026-04-06T08:43:44.999Z</time></trkpt><trkpt lat="44.911933693308" lon="9.980047684429444"><ele>61.2</ele><time>2026-04-06T08:43:45.999Z</time></trkpt><trkpt lat="44.91203031083287" lon="9.980089247183962"><ele>60.8</ele><time>2026-04-06T08:43:46.999Z</time></trkpt><trkpt lat="44.912134264846486" lon="9.980085997719245"><ele>60.4</ele><time>2026-04-06T08:43:47.999Z</time></trkpt><trkpt lat="44.912240628117914" lon="9.98005818732264"><ele>60.0</ele><time>2026-04-06T08:43:48.999Z</time></trkpt><trkpt lat="44.91231611081979" lon="9.979947465024154"><ele>60.0</ele><time>2026-04-06T08:43:49.999Z</time></trkpt><trkpt lat="44.91238625836277" lon="9.979848198027236"><ele>60.0</ele><time>2026-04-06T08:43:50.999Z</time></trkpt><trkpt lat="44.91245144901196" lon="9.97974396880342"><ele>60.0</ele><time>2026-04-06T08:43:51.999Z</time></trkpt><trkpt lat="44.91252140551489" lon="9.97964418319287"><ele>60.0</ele><time>2026-04-06T08:43:52.999Z</time></trkpt><trkpt lat="44.91259066263523" lon="9.979544497450487"><ele>60.0</ele><time>2026-04-06T08:43:53.999Z</time></trkpt><trkpt lat="44.912660561456505" lon="9.979446409051015"><ele>59.8</ele><time>2026-04-06T08:43:54.999Z</time></trkpt><trkpt lat="44.912729664460684" lon="9.979349636771564"><ele>59.6</ele><time>2026-04-06T08:43:55.999Z</time></trkpt><trkpt lat="44.91279934024906" lon="9.979254845597401"><ele>59.400000000000006</ele><time>2026-04-06T08:43:56.999Z</time></trkpt><trkpt lat="44.912867098902545" lon="9.979160262735713"><ele>59.2</ele><time>2026-04-06T08:43:57.999Z</time></trkpt><trkpt lat="44.91293369270659" lon="9.979065789978087"><ele>59.0</ele><time>2026-04-06T08:43:58.999Z</time></trkpt><trkpt lat="44.913001356665724" lon="9.97897214504198"><ele>58.800000000000004</ele><time>2026-04-06T08:43:59.999Z</time></trkpt><trkpt lat="44.913066650589954" lon="9.978876201185352"><ele>58.60000000000001</ele><time>2026-04-06T08:44:00.999Z</time></trkpt><trkpt lat="44.91313242801727" lon="9.97878114785125"><ele>58.4</ele><time>2026-04-06T08:44:01.999Z</time></trkpt><trkpt lat="44.91319785410711" lon="9.97868826551577"><ele>58.2</ele><time>2026-04-06T08:44:02.999Z</time></trkpt><trkpt lat="44.913264857735356" lon="9.97859560482836"><ele>58.0</ele><time>2026-04-06T08:44:03.999Z</time></trkpt><trkpt lat="44.91332974053238" lon="9.978499877593066"><ele>58.0</ele><time>2026-04-06T08:44:04.999Z</time></trkpt><trkpt lat="44.91339412947908" lon="9.978406760940763"><ele>58.0</ele><time>2026-04-06T08:44:05.999Z</time></trkpt><trkpt lat="44.913462146995364" lon="9.978316317686051"><ele>58.0</ele><time>2026-04-06T08:44:06.999Z</time></trkpt><trkpt lat="44.913529326059404" lon="9.978224535593489"><ele>58.0</ele><time>2026-04-06T08:44:07.999Z</time></trkpt><trkpt lat="44.91359586574959" lon="9.978130940809564"><ele>58.0</ele><time>2026-04-06T08:44:08.999Z</time></trkpt><trkpt lat="44.913660866298414" lon="9.978036797354777"><ele>57.8</ele><time>2026-04-06T08:44:09.999Z</time></trkpt><trkpt lat="44.91372725362589" lon="9.977944948079518"><ele>57.599999999999994</ele><time>2026-04-06T08:44:10.999Z</time></trkpt><trkpt lat="44.91379389605704" lon="9.977852354107371"><ele>57.400000000000006</ele><time>2026-04-06T08:44:11.999Z</time></trkpt><trkpt lat="44.91385849911592" lon="9.977757874573467"><ele>57.2</ele><time>2026-04-06T08:44:12.999Z</time></trkpt><trkpt lat="44.91392390933222" lon="9.977665436087978"><ele>57.0</ele><time>2026-04-06T08:44:13.999Z</time></trkpt><trkpt lat="44.9139898728718" lon="9.977572913574152"><ele>57.0</ele><time>2026-04-06T08:44:14.999Z</time></trkpt><trkpt lat="44.9140535002289" lon="9.977480371248573"><ele>57.0</ele><time>2026-04-06T08:44:15.999Z</time></trkpt><trkpt lat="44.91411868725705" lon="9.977386565887041"><ele>57.0</ele><time>2026-04-06T08:44:16.999Z</time></trkpt><trkpt lat="44.914185012616" lon="9.977293838538623"><ele>57.0</ele><time>2026-04-06T08:44:17.999Z</time></trkpt><trkpt lat="44.91425053967746" lon="9.97720057664954"><ele>57.0</ele><time>2026-04-06T08:44:18.999Z</time></trkpt><trkpt lat="44.91431614679663" lon="9.977105997752666"><ele>57.0</ele><time>2026-04-06T08:44:19.999Z</time></trkpt><trkpt lat="44.91438081438623" lon="9.97701181399556"><ele>57.0</ele><time>2026-04-06T08:44:20.999Z</time></trkpt><trkpt lat="44.91444670453697" lon="9.976916627071006"><ele>57.0</ele><time>2026-04-06T08:44:21.999Z</time></trkpt><trkpt lat="44.91451438570486" lon="9.97682314592743"><ele>57.0</ele><time>2026-04-06T08:44:22.999Z</time></trkpt><trkpt lat="44.91458077660677" lon="9.976729701912934"><ele>57.0</ele><time>2026-04-06T08:44:23.999Z</time></trkpt><trkpt lat="44.91464737767359" lon="9.976637432169465"><ele>57.0</ele><time>2026-04-06T08:44:24.999Z</time></trkpt><trkpt lat="44.91471316164433" lon="9.976544905844513"><ele>57.0</ele><time>2026-04-06T08:44:25.999Z</time></trkpt><trkpt lat="44.914778681576344" lon="9.976451513496006"><ele>57.0</ele><time>2026-04-06T08:44:26.999Z</time></trkpt><trkpt lat="44.914842972917526" lon="9.976359467440496"><ele>57.0</ele><time>2026-04-06T08:44:27.999Z</time></trkpt><trkpt lat="44.91490934000827" lon="9.976265024762563"><ele>57.0</ele><time>2026-04-06T08:44:28.999Z</time></trkpt><trkpt lat="44.91497499279407" lon="9.976170723562115"><ele>57.0</ele><time>2026-04-06T08:44:29.999Z</time></trkpt><trkpt lat="44.915040104770334" lon="9.976077552322332"><ele>57.0</ele><time>2026-04-06T08:44:30.999Z</time></trkpt><trkpt lat="44.915106283736385" lon="9.975984693956562"><ele>57.0</ele><time>2026-04-06T08:44:31.998Z</time></trkpt><trkpt lat="44.915169871671104" lon="9.975891420862613"><ele>57.0</ele><time>2026-04-06T08:44:32.998Z</time></trkpt><trkpt lat="44.9152363114491" lon="9.975799229329347"><ele>57.0</ele><time>2026-04-06T08:44:33.998Z</time></trkpt><trkpt lat="44.91530292712908" lon="9.97570772751602"><ele>57.0</ele><time>2026-04-06T08:44:34.998Z</time></trkpt><trkpt lat="44.915366988658135" lon="9.975615449807737"><ele>57.0</ele><time>2026-04-06T08:44:35.998Z</time></trkpt><trkpt lat="44.91543460339643" lon="9.975524435433664"><ele>57.0</ele><time>2026-04-06T08:44:36.998Z</time></trkpt><trkpt lat="44.91550009205868" lon="9.975431754756672"><ele>57.0</ele><time>2026-04-06T08:44:37.998Z</time></trkpt><trkpt lat="44.91556364734953" lon="9.975338030025739"><ele>57.0</ele><time>2026-04-06T08:44:38.998Z</time></trkpt><trkpt lat="44.91562650729796" lon="9.975243499083682"><ele>57.0</ele><time>2026-04-06T08:44:39.998Z</time></trkpt><trkpt lat="44.915692718218175" lon="9.975151701142922"><ele>57.0</ele><time>2026-04-06T08:44:40.998Z</time></trkpt><trkpt lat="44.915758029933464" lon="9.975060633669878"><ele>57.0</ele><time>2026-04-06T08:44:41.998Z</time></trkpt><trkpt lat="44.91582412653081" lon="9.974970036018346"><ele>57.0</ele><time>2026-04-06T08:44:42.998Z</time></trkpt><trkpt lat="44.91588967271411" lon="9.974876580095696"><ele>57.0</ele><time>2026-04-06T08:44:43.998Z</time></trkpt><trkpt lat="44.91595556854565" lon="9.974784012308062"><ele>57.0</ele><time>2026-04-06T08:44:44.998Z</time></trkpt><trkpt lat="44.9160194887589" lon="9.97469290674846"><ele>57.0</ele><time>2026-04-06T08:44:45.998Z</time></trkpt><trkpt lat="44.91608502646528" lon="9.974599080015972"><ele>57.0</ele><time>2026-04-06T08:44:46.998Z</time></trkpt><trkpt lat="44.916151667867545" lon="9.974504582564624"><ele>57.0</ele><time>2026-04-06T08:44:47.998Z</time></trkpt><trkpt lat="44.916216676056116" lon="9.974412239632283"><ele>57.0</ele><time>2026-04-06T08:44:48.998Z</time></trkpt><trkpt lat="44.91628225145248" lon="9.974320273936977"><ele>57.0</ele><time>2026-04-06T08:44:49.998Z</time></trkpt><trkpt lat="44.916347097386385" lon="9.974226552249254"><ele>57.0</ele><time>2026-04-06T08:44:50.998Z</time></trkpt><trkpt lat="44.91641177217374" lon="9.97413435376071"><ele>57.0</ele><time>2026-04-06T08:44:51.998Z</time></trkpt><trkpt lat="44.91647877198891" lon="9.974041275809217"><ele>57.0</ele><time>2026-04-06T08:44:52.998Z</time></trkpt><trkpt lat="44.916543505401975" lon="9.973948220265052"><ele>57.0</ele><time>2026-04-06T08:44:53.998Z</time></trkpt><trkpt lat="44.91660852849472" lon="9.9738551517396"><ele>57.2</ele><time>2026-04-06T08:44:54.998Z</time></trkpt><trkpt lat="44.916675062083286" lon="9.973763647297181"><ele>57.400000000000006</ele><time>2026-04-06T08:44:55.998Z</time></trkpt><trkpt lat="44.916741863657805" lon="9.973671853021623"><ele>57.599999999999994</ele><time>2026-04-06T08:44:56.998Z</time></trkpt><trkpt lat="44.9168068758478" lon="9.97357841848745"><ele>57.8</ele><time>2026-04-06T08:44:57.998Z</time></trkpt><trkpt lat="44.91687377340486" lon="9.973486908867683"><ele>58.0</ele><time>2026-04-06T08:44:59Z</time></trkpt><trkpt lat="44.916938054159914" lon="9.973396720179322"><ele>57.8</ele><time>2026-04-06T08:45:00Z</time></trkpt><trkpt lat="44.917003571917924" lon="9.973304677298026"><ele>57.599999999999994</ele><time>2026-04-06T08:45:01Z</time></trkpt><trkpt lat="44.917069256208684" lon="9.973212839882212"><ele>57.400000000000006</ele><time>2026-04-06T08:45:02Z</time></trkpt><trkpt lat="44.91713685677793" lon="9.973126215551119"><ele>57.2</ele><time>2026-04-06T08:45:03Z</time></trkpt><trkpt lat="44.917206142171885" lon="9.973043372949705"><ele>57.0</ele><time>2026-04-06T08:45:04Z</time></trkpt><trkpt lat="44.91727718718793" lon="9.972961655902747"><ele>57.0</ele><time>2026-04-06T08:45:05Z</time></trkpt><trkpt lat="44.91735575869204" lon="9.972893098037364"><ele>57.0</ele><time>2026-04-06T08:45:06Z</time></trkpt><trkpt lat="44.91743955042282" lon="9.972842871647234"><ele>57.0</ele><time>2026-04-06T08:45:07Z</time></trkpt><trkpt lat="44.917525744329055" lon="9.972800330625569"><ele>57.0</ele><time>2026-04-06T08:45:08Z</time></trkpt><trkpt lat="44.91761376696553" lon="9.972758299601905"><ele>57.0</ele><time>2026-04-06T08:45:09Z</time></trkpt><trkpt lat="44.917702418969206" lon="9.972719983520843"><ele>56.6</ele><time>2026-04-06T08:45:10Z</time></trkpt><trkpt lat="44.91779011174081" lon="9.972679926942408"><ele>56.2</ele><time>2026-04-06T08:45:11Z</time></trkpt><trkpt lat="44.91787714480384" lon="9.972637817007962"><ele>55.8</ele><time>2026-04-06T08:45:12Z</time></trkpt><trkpt lat="44.91796595821008" lon="9.972597088759498"><ele>55.4</ele><time>2026-04-06T08:45:13Z</time></trkpt><trkpt lat="44.91805299812357" lon="9.972554909642286"><ele>55.0</ele><time>2026-04-06T08:45:14Z</time></trkpt><trkpt lat="44.91814057563124" lon="9.97251517621322"><ele>55.0</ele><time>2026-04-06T08:45:15Z</time></trkpt><trkpt lat="44.918228753979605" lon="9.972475640008417"><ele>55.0</ele><time>2026-04-06T08:45:16Z</time></trkpt><trkpt lat="44.918318138687454" lon="9.97243980051293"><ele>55.0</ele><time>2026-04-06T08:45:17Z</time></trkpt><trkpt lat="44.918405746353024" lon="9.972397738877715"><ele>55.0</ele><time>2026-04-06T08:45:18Z</time></trkpt><trkpt lat="44.918494099986994" lon="9.97235903793438"><ele>55.0</ele><time>2026-04-06T08:45:19Z</time></trkpt><trkpt lat="44.91858095696994" lon="9.972316618678688"><ele>55.6</ele><time>2026-04-06T08:45:20Z</time></trkpt><trkpt lat="44.91866693146877" lon="9.972274217977683"><ele>56.2</ele><time>2026-04-06T08:45:21Z</time></trkpt><trkpt lat="44.918752811257825" lon="9.972233122911872"><ele>56.8</ele><time>2026-04-06T08:45:22Z</time></trkpt><trkpt lat="44.91884203372746" lon="9.972194056161664"><ele>57.4</ele><time>2026-04-06T08:45:23Z</time></trkpt><trkpt lat="44.91893049379037" lon="9.972156910471972"><ele>58.0</ele><time>2026-04-06T08:45:24Z</time></trkpt><trkpt lat="44.9190164825747" lon="9.972118370153064"><ele>58.0</ele><time>2026-04-06T08:45:25Z</time></trkpt><trkpt lat="44.919105346507386" lon="9.972086834129517"><ele>58.0</ele><time>2026-04-06T08:45:26Z</time></trkpt><trkpt lat="44.91919447606435" lon="9.972051704472415"><ele>58.0</ele><time>2026-04-06T08:45:27Z</time></trkpt><trkpt lat="44.9192847870968" lon="9.972020008611706"><ele>58.0</ele><time>2026-04-06T08:45:28Z</time></trkpt><trkpt lat="44.919373995932816" lon="9.971986540174319"><ele>58.0</ele><time>2026-04-06T08:45:29Z</time></trkpt><trkpt lat="44.91946123433797" lon="9.971951798025655"><ele>58.0</ele><time>2026-04-06T08:45:30Z</time></trkpt><trkpt lat="44.91954958154718" lon="9.97191941909356"><ele>58.0</ele><time>2026-04-06T08:45:31Z</time></trkpt><trkpt lat="44.919637003826864" lon="9.97188722164333"><ele>58.0</ele><time>2026-04-06T08:45:32Z</time></trkpt><trkpt lat="44.91972439977628" lon="9.971855443467154"><ele>58.0</ele><time>2026-04-06T08:45:33Z</time></trkpt><trkpt lat="44.91981085496165" lon="9.971824116612636"><ele>58.0</ele><time>2026-04-06T08:45:34Z</time></trkpt><trkpt lat="44.9199009540026" lon="9.97179415799689"><ele>58.0</ele><time>2026-04-06T08:45:35Z</time></trkpt><trkpt lat="44.919991377680816" lon="9.971762139772972"><ele>58.0</ele><time>2026-04-06T08:45:36Z</time></trkpt><trkpt lat="44.920081107174134" lon="9.971731784558669"><ele>58.0</ele><time>2026-04-06T08:45:37Z</time></trkpt><trkpt lat="44.92017079265665" lon="9.971699733562753"><ele>58.0</ele><time>2026-04-06T08:45:38Z</time></trkpt><trkpt lat="44.92026045413509" lon="9.97166852776843"><ele>58.0</ele><time>2026-04-06T08:45:39Z</time></trkpt><trkpt lat="44.920350265427686" lon="9.971635282922485"><ele>57.8</ele><time>2026-04-06T08:45:40Z</time></trkpt><trkpt lat="44.92044037520116" lon="9.971602629205053"><ele>57.599999999999994</ele><time>2026-04-06T08:45:41Z</time></trkpt><trkpt lat="44.9205310578761" lon="9.971567597684222"><ele>57.400000000000006</ele><time>2026-04-06T08:45:42Z</time></trkpt><trkpt lat="44.920622647151184" lon="9.971532751506329"><ele>57.2</ele><time>2026-04-06T08:45:42.999Z</time></trkpt><trkpt lat="44.92070793311771" lon="9.971493006121309"><ele>57.0</ele><time>2026-04-06T08:45:43.999Z</time></trkpt><trkpt lat="44.92079772264474" lon="9.971454891627868"><ele>57.0</ele><time>2026-04-06T08:45:44.999Z</time></trkpt><trkpt lat="44.92088471359608" lon="9.971414217157232"><ele>57.0</ele><time>2026-04-06T08:45:45.999Z</time></trkpt><trkpt lat="44.920971403117505" lon="9.971368226169657"><ele>57.0</ele><time>2026-04-06T08:45:46.999Z</time></trkpt><trkpt lat="44.921058486538335" lon="9.971320543148591"><ele>57.0</ele><time>2026-04-06T08:45:47.999Z</time></trkpt><trkpt lat="44.9211451403211" lon="9.971276975710916"><ele>57.0</ele><time>2026-04-06T08:45:48.999Z</time></trkpt><trkpt lat="44.92122923885873" lon="9.971232305830888"><ele>56.400000000000006</ele><time>2026-04-06T08:45:49.999Z</time></trkpt><trkpt lat="44.921315214909896" lon="9.97118640119281"><ele>55.800000000000004</ele><time>2026-04-06T08:45:50.999Z</time></trkpt><trkpt lat="44.921402750622015" lon="9.971146389604609"><ele>55.2</ele><time>2026-04-06T08:45:51.999Z</time></trkpt><trkpt lat="44.921490063574346" lon="9.971103848589227"><ele>54.6</ele><time>2026-04-06T08:45:52.999Z</time></trkpt><trkpt lat="44.92157742056916" lon="9.971070029851955"><ele>54.0</ele><time>2026-04-06T08:45:53.999Z</time></trkpt><trkpt lat="44.9216673382073" lon="9.971057848308211"><ele>54.0</ele><time>2026-04-06T08:45:54.999Z</time></trkpt><trkpt lat="44.92175951151712" lon="9.97106560921515"><ele>54.00000000000001</ele><time>2026-04-06T08:45:55.999Z</time></trkpt><trkpt lat="44.921851395551336" lon="9.971088291359495"><ele>54.00000000000001</ele><time>2026-04-06T08:45:56.999Z</time></trkpt><trkpt lat="44.92194272154667" lon="9.971107588866536"><ele>54.0</ele><time>2026-04-06T08:45:57.999Z</time></trkpt><trkpt lat="44.92203393828341" lon="9.971124985019445"><ele>54.0</ele><time>2026-04-06T08:45:58.999Z</time></trkpt><trkpt lat="44.92212496959824" lon="9.971139483361332"><ele>54.0</ele><time>2026-04-06T08:45:59.999Z</time></trkpt><trkpt lat="44.92221644968639" lon="9.971159448077705"><ele>54.00000000000001</ele><time>2026-04-06T08:46:00.999Z</time></trkpt><trkpt lat="44.922304987653234" lon="9.971175426474296"><ele>54.00000000000001</ele><time>2026-04-06T08:46:01.999Z</time></trkpt><trkpt lat="44.92239450670247" lon="9.971190423829164"><ele>54.0</ele><time>2026-04-06T08:46:02.999Z</time></trkpt><trkpt lat="44.922484022239686" lon="9.971202151912014"><ele>54.0</ele><time>2026-04-06T08:46:03.999Z</time></trkpt><trkpt lat="44.92257557553758" lon="9.97121819051895"><ele>54.0</ele><time>2026-04-06T08:46:04.999Z</time></trkpt><trkpt lat="44.922666305549946" lon="9.97123457195148"><ele>54.00000000000001</ele><time>2026-04-06T08:46:05.999Z</time></trkpt><trkpt lat="44.92275758452699" lon="9.97125610294414"><ele>54.00000000000001</ele><time>2026-04-06T08:46:06.999Z</time></trkpt><trkpt lat="44.922846914980134" lon="9.971279231772783"><ele>54.0</ele><time>2026-04-06T08:46:07.999Z</time></trkpt><trkpt lat="44.922936231719426" lon="9.971299112114366"><ele>54.0</ele><time>2026-04-06T08:46:08.999Z</time></trkpt><trkpt lat="44.923025967480434" lon="9.971313266738726"><ele>54.0</ele><time>2026-04-06T08:46:09.999Z</time></trkpt><trkpt lat="44.92311559859441" lon="9.971332126030099"><ele>54.00000000000001</ele><time>2026-04-06T08:46:10.999Z</time></trkpt><trkpt lat="44.92320583677797" lon="9.971350460135435"><ele>54.00000000000001</ele><time>2026-04-06T08:46:11.999Z</time></trkpt><trkpt lat="44.92329691986475" lon="9.971367287682133"><ele>54.0</ele><time>2026-04-06T08:46:12.999Z</time></trkpt><trkpt lat="44.923387914339656" lon="9.971388407993983"><ele>54.0</ele><time>2026-04-06T08:46:13.999Z</time></trkpt><trkpt lat="44.92347590223335" lon="9.971408835077034"><ele>53.800000000000004</ele><time>2026-04-06T08:46:14.999Z</time></trkpt><trkpt lat="44.92356381681772" lon="9.971431023833533"><ele>53.60000000000001</ele><time>2026-04-06T08:46:15.999Z</time></trkpt><trkpt lat="44.923654265058865" lon="9.971449416083164"><ele>53.4</ele><time>2026-04-06T08:46:16.999Z</time></trkpt><trkpt lat="44.92374355159096" lon="9.971469855695078"><ele>53.2</ele><time>2026-04-06T08:46:17.999Z</time></trkpt><trkpt lat="44.92383386525496" lon="9.971492524128731"><ele>53.0</ele><time>2026-04-06T08:46:18.999Z</time></trkpt><trkpt lat="44.92392684922463" lon="9.971518027162425"><ele>53.0</ele><time>2026-04-06T08:46:19.999Z</time></trkpt><trkpt lat="44.92401849046734" lon="9.971539167097733"><ele>53.0</ele><time>2026-04-06T08:46:20.999Z</time></trkpt><trkpt lat="44.92410949999193" lon="9.971556380436445"><ele>53.0</ele><time>2026-04-06T08:46:21.999Z</time></trkpt><trkpt lat="44.92420329732441" lon="9.971571474870192"><ele>53.0</ele><time>2026-04-06T08:46:22.999Z</time></trkpt><trkpt lat="44.924296145561584" lon="9.9715910184216"><ele>53.0</ele><time>2026-04-06T08:46:23.999Z</time></trkpt><trkpt lat="44.924389320478795" lon="9.971611702324703"><ele>53.4</ele><time>2026-04-06T08:46:24.999Z</time></trkpt><trkpt lat="44.924481540638226" lon="9.97163124989648"><ele>53.8</ele><time>2026-04-06T08:46:25.999Z</time></trkpt><trkpt lat="44.92457632653986" lon="9.97165001866243"><ele>54.2</ele><time>2026-04-06T08:46:26.999Z</time></trkpt><trkpt lat="44.92467116360872" lon="9.971653764412274"><ele>54.6</ele><time>2026-04-06T08:46:27.999Z</time></trkpt><trkpt lat="44.92476575709338" lon="9.971646087465352"><ele>55.0</ele><time>2026-04-06T08:46:28.999Z</time></trkpt><trkpt lat="44.924858618500046" lon="9.971628369268679"><ele>55.0</ele><time>2026-04-06T08:46:29.999Z</time></trkpt><trkpt lat="44.924951498233554" lon="9.971607346309217"><ele>55.0</ele><time>2026-04-06T08:46:30.999Z</time></trkpt><trkpt lat="44.9250423027305" lon="9.971588167251097"><ele>55.0</ele><time>2026-04-06T08:46:31.999Z</time></trkpt><trkpt lat="44.925130860323776" lon="9.97156723234"><ele>55.0</ele><time>2026-04-06T08:46:32.999Z</time></trkpt><trkpt lat="44.92522208988545" lon="9.971546120304364"><ele>55.0</ele><time>2026-04-06T08:46:33.999Z</time></trkpt><trkpt lat="44.925309666696855" lon="9.9715233359743"><ele>55.166666666666664</ele><time>2026-04-06T08:46:34.999Z</time></trkpt><trkpt lat="44.925397754461606" lon="9.971500817238095"><ele>55.33333333333333</ele><time>2026-04-06T08:46:35.998Z</time></trkpt><trkpt lat="44.92547853420085" lon="9.971477032175693"><ele>55.5</ele><time>2026-04-06T08:46:36.998Z</time></trkpt><trkpt lat="44.92555848067763" lon="9.971454724207973"><ele>55.66666666666667</ele><time>2026-04-06T08:46:37.998Z</time></trkpt><trkpt lat="44.92562327754832" lon="9.971395077369934"><ele>55.833333333333336</ele><time>2026-04-06T08:46:38.998Z</time></trkpt><trkpt lat="44.92568235055118" lon="9.971316765756338"><ele>56.0</ele><time>2026-04-06T08:46:39.998Z</time></trkpt><trkpt lat="44.92566224237564" lon="9.971184531283996"><ele>56.00000000000001</ele><time>2026-04-06T08:46:40.998Z</time></trkpt><trkpt lat="44.925642623576856" lon="9.97107598108106"><ele>56.0</ele><time>2026-04-06T08:46:41.998Z</time></trkpt><trkpt lat="44.92561777457787" lon="9.97097259730561"><ele>56.0</ele><time>2026-04-06T08:46:42.998Z</time></trkpt><trkpt lat="44.9255944945131" lon="9.970866973774307"><ele>56.0</ele><time>2026-04-06T08:46:43.998Z</time></trkpt><trkpt lat="44.92557162371656" lon="9.970763427784345"><ele>56.00000000000001</ele><time>2026-04-06T08:46:44.998Z</time></trkpt><trkpt lat="44.9255526967094" lon="9.970657464305939"><ele>56.0</ele><time>2026-04-06T08:46:45.998Z</time></trkpt><trkpt lat="44.925552478362384" lon="9.970551860037116"><ele>55.66666666666667</ele><time>2026-04-06T08:46:46.998Z</time></trkpt><trkpt lat="44.925587835138266" lon="9.97045834353527"><ele>55.333333333333336</ele><time>2026-04-06T08:46:47.998Z</time></trkpt><trkpt lat="44.92565699879928" lon="9.97039771492245"><ele>55.0</ele><time>2026-04-06T08:46:48.998Z</time></trkpt><trkpt lat="44.92574248681748" lon="9.970382603715917"><ele>54.66666666666667</ele><time>2026-04-06T08:46:49.998Z</time></trkpt><trkpt lat="44.92582797464601" lon="9.970412502693984"><ele>54.333333333333336</ele><time>2026-04-06T08:46:50.998Z</time></trkpt><trkpt lat="44.92590194751545" lon="9.970441008953951"><ele>54.0</ele><time>2026-04-06T08:46:51.998Z</time></trkpt><trkpt lat="44.92597956287363" lon="9.970462071053829"><ele>53.5</ele><time>2026-04-06T08:46:52.998Z</time></trkpt><trkpt lat="44.92605693300533" lon="9.970481459709882"><ele>53.0</ele><time>2026-04-06T08:46:53.998Z</time></trkpt><trkpt lat="44.92613478084465" lon="9.97049989716036"><ele>52.5</ele><time>2026-04-06T08:46:54.998Z</time></trkpt><trkpt lat="44.92621238402968" lon="9.970517863325734"><ele>52.0</ele><time>2026-04-06T08:46:55.998Z</time></trkpt><trkpt lat="44.926293908290965" lon="9.970534419030916"><ele>51.5</ele><time>2026-04-06T08:46:56.998Z</time></trkpt><trkpt lat="44.92637084760568" lon="9.970554119019868"><ele>51.0</ele><time>2026-04-06T08:46:57.998Z</time></trkpt><trkpt lat="44.92645489595636" lon="9.970572354824101"><ele>51.0</ele><time>2026-04-06T08:46:58.998Z</time></trkpt><trkpt lat="44.92653746728292" lon="9.970590203511861"><ele>51.0</ele><time>2026-04-06T08:46:59.998Z</time></trkpt><trkpt lat="44.92661924965245" lon="9.970605980001107"><ele>51.0</ele><time>2026-04-06T08:47:00.998Z</time></trkpt><trkpt lat="44.92670101763192" lon="9.970625497276178"><ele>51.0</ele><time>2026-04-06T08:47:01.998Z</time></trkpt><trkpt lat="44.926783889056175" lon="9.97064537444574"><ele>51.0</ele><time>2026-04-06T08:47:02.998Z</time></trkpt><trkpt lat="44.92686759940194" lon="9.970663647716263"><ele>51.0</ele><time>2026-04-06T08:47:03.998Z</time></trkpt><trkpt lat="44.926950191704144" lon="9.97067866096031"><ele>51.0</ele><time>2026-04-06T08:47:05Z</time></trkpt><trkpt lat="44.92703200063104" lon="9.97069728436477"><ele>51.0</ele><time>2026-04-06T08:47:06Z</time></trkpt><trkpt lat="44.92711702164993" lon="9.970718435613033"><ele>51.0</ele><time>2026-04-06T08:47:07Z</time></trkpt><trkpt lat="44.927199989891186" lon="9.970738450232043"><ele>51.0</ele><time>2026-04-06T08:47:08Z</time></trkpt><trkpt lat="44.927285559451754" lon="9.970756239343372"><ele>51.0</ele><time>2026-04-06T08:47:09Z</time></trkpt><trkpt lat="44.92737023585491" lon="9.970776157411457"><ele>51.0</ele><time>2026-04-06T08:47:10Z</time></trkpt><trkpt lat="44.9274560287426" lon="9.970793182678463"><ele>51.0</ele><time>2026-04-06T08:47:11Z</time></trkpt><trkpt lat="44.92754257095133" lon="9.970815492967068"><ele>51.0</ele><time>2026-04-06T08:47:12Z</time></trkpt><trkpt lat="44.92762620452886" lon="9.9708322907332"><ele>51.0</ele><time>2026-04-06T08:47:13Z</time></trkpt><trkpt lat="44.9277124756101" lon="9.970850574591946"><ele>51.0</ele><time>2026-04-06T08:47:14Z</time></trkpt><trkpt lat="44.92779884104982" lon="9.97086888807277"><ele>51.0</ele><time>2026-04-06T08:47:15Z</time></trkpt><trkpt lat="44.92788453909351" lon="9.970888872901577"><ele>51.0</ele><time>2026-04-06T08:47:16Z</time></trkpt><trkpt lat="44.92796937502503" lon="9.9709064189459"><ele>51.0</ele><time>2026-04-06T08:47:17Z</time></trkpt><trkpt lat="44.9280539467357" lon="9.970926849669008"><ele>51.0</ele><time>2026-04-06T08:47:18Z</time></trkpt><trkpt lat="44.92814115261467" lon="9.97094619704365"><ele>51.0</ele><time>2026-04-06T08:47:19Z</time></trkpt><trkpt lat="44.92822502764983" lon="9.97096497695915"><ele>51.0</ele><time>2026-04-06T08:47:20Z</time></trkpt><trkpt lat="44.9283108674797" lon="9.97098537917405"><ele>51.0</ele><time>2026-04-06T08:47:21Z</time></trkpt><trkpt lat="44.92839513961297" lon="9.971003345756843"><ele>51.0</ele><time>2026-04-06T08:47:22Z</time></trkpt><trkpt lat="44.928483761311504" lon="9.97102228224532"><ele>51.0</ele><time>2026-04-06T08:47:23Z</time></trkpt><trkpt lat="44.92856908506222" lon="9.971040843350467"><ele>51.0</ele><time>2026-04-06T08:47:24Z</time></trkpt><trkpt lat="44.92865604681351" lon="9.971062587827454"><ele>51.0</ele><time>2026-04-06T08:47:25Z</time></trkpt><trkpt lat="44.92874235121339" lon="9.971079678931252"><ele>51.0</ele><time>2026-04-06T08:47:26Z</time></trkpt><trkpt lat="44.92882981033201" lon="9.971095779250941"><ele>51.0</ele><time>2026-04-06T08:47:27Z</time></trkpt><trkpt lat="44.92891635737725" lon="9.971114892341634"><ele>51.0</ele><time>2026-04-06T08:47:28Z</time></trkpt><trkpt lat="44.929002462994646" lon="9.97113280179588"><ele>51.0</ele><time>2026-04-06T08:47:29Z</time></trkpt><trkpt lat="44.929088585249936" lon="9.971155487122374"><ele>51.0</ele><time>2026-04-06T08:47:30Z</time></trkpt><trkpt lat="44.929174992687166" lon="9.971170854972364"><ele>51.0</ele><time>2026-04-06T08:47:31Z</time></trkpt><trkpt lat="44.9292609423063" lon="9.971187200665863"><ele>51.0</ele><time>2026-04-06T08:47:32Z</time></trkpt><trkpt lat="44.92934758710265" lon="9.971206314868418"><ele>51.0</ele><time>2026-04-06T08:47:33Z</time></trkpt><trkpt lat="44.92943389721192" lon="9.971227524839678"><ele>51.0</ele><time>2026-04-06T08:47:34Z</time></trkpt><trkpt lat="44.92952010297776" lon="9.971247330098278"><ele>51.0</ele><time>2026-04-06T08:47:35Z</time></trkpt><trkpt lat="44.92960691488024" lon="9.971270280486351"><ele>51.0</ele><time>2026-04-06T08:47:36Z</time></trkpt><trkpt lat="44.929692633958894" lon="9.97129692008398"><ele>51.0</ele><time>2026-04-06T08:47:37Z</time></trkpt><trkpt lat="44.92977893133645" lon="9.971323195318265"><ele>51.0</ele><time>2026-04-06T08:47:38Z</time></trkpt><trkpt lat="44.92986732873236" lon="9.971346439453912"><ele>51.0</ele><time>2026-04-06T08:47:39Z</time></trkpt><trkpt lat="44.92995549201426" lon="9.971367458371358"><ele>51.0</ele><time>2026-04-06T08:47:40Z</time></trkpt><trkpt lat="44.93004322573238" lon="9.971385558845599"><ele>50.833333333333336</ele><time>2026-04-06T08:47:41Z</time></trkpt><trkpt lat="44.93013172264423" lon="9.971405969587018"><ele>50.66666666666667</ele><time>2026-04-06T08:47:42Z</time></trkpt><trkpt lat="44.9302196412358" lon="9.971424618984841"><ele>50.5</ele><time>2026-04-06T08:47:43Z</time></trkpt><trkpt lat="44.93030901783138" lon="9.971442973042315"><ele>50.333333333333336</ele><time>2026-04-06T08:47:44Z</time></trkpt><trkpt lat="44.9303972794865" lon="9.971461648736721"><ele>50.16666666666667</ele><time>2026-04-06T08:47:45Z</time></trkpt><trkpt lat="44.93048659732746" lon="9.97147694398292"><ele>50.0</ele><time>2026-04-06T08:47:46Z</time></trkpt><trkpt lat="44.93057322660352" lon="9.971492035324038"><ele>50.00000000000001</ele><time>2026-04-06T08:47:46.999Z</time></trkpt><trkpt lat="44.930660906935785" lon="9.971500878259993"><ele>50.0</ele><time>2026-04-06T08:47:47.999Z</time></trkpt><trkpt lat="44.93074683585616" lon="9.97151378126275"><ele>50.0</ele><time>2026-04-06T08:47:48.999Z</time></trkpt><trkpt lat="44.930832761814706" lon="9.971528230967353"><ele>50.0</ele><time>2026-04-06T08:47:49.999Z</time></trkpt><trkpt lat="44.93091926741013" lon="9.971540883286353"><ele>50.00000000000001</ele><time>2026-04-06T08:47:50.999Z</time></trkpt><trkpt lat="44.93100367747538" lon="9.971551079061621"><ele>50.0</ele><time>2026-04-06T08:47:51.999Z</time></trkpt><trkpt lat="44.931087972528" lon="9.971562368125277"><ele>49.833333333333336</ele><time>2026-04-06T08:47:52.999Z</time></trkpt><trkpt lat="44.93117118288913" lon="9.971572938748789"><ele>49.66666666666667</ele><time>2026-04-06T08:47:53.999Z</time></trkpt><trkpt lat="44.93125425374329" lon="9.97158360637722"><ele>49.5</ele><time>2026-04-06T08:47:54.999Z</time></trkpt><trkpt lat="44.931336188155036" lon="9.971594479866878"><ele>49.33333333333333</ele><time>2026-04-06T08:47:55.999Z</time></trkpt><trkpt lat="44.93141399091434" lon="9.971602690667105"><ele>49.166666666666664</ele><time>2026-04-06T08:47:56.999Z</time></trkpt><trkpt lat="44.93149523655642" lon="9.971616132800236"><ele>49.0</ele><time>2026-04-06T08:47:57.999Z</time></trkpt><trkpt lat="44.93157171774771" lon="9.971623290918316"><ele>49.0</ele><time>2026-04-06T08:47:58.999Z</time></trkpt><trkpt lat="44.931649306261676" lon="9.971629730152703"><ele>49.0</ele><time>2026-04-06T08:47:59.999Z</time></trkpt><trkpt lat="44.93172420690532" lon="9.971635502764958"><ele>49.0</ele><time>2026-04-06T08:48:00.999Z</time></trkpt><trkpt lat="44.93179868009582" lon="9.971643382969226"><ele>49.0</ele><time>2026-04-06T08:48:01.999Z</time></trkpt><trkpt lat="44.93187286522976" lon="9.971650886597425"><ele>49.0</ele><time>2026-04-06T08:48:02.999Z</time></trkpt><trkpt lat="44.93194621398225" lon="9.971654669290405"><ele>49.0</ele><time>2026-04-06T08:48:03.999Z</time></trkpt><trkpt lat="44.932018124542545" lon="9.971661965143308"><ele>49.0</ele><time>2026-04-06T08:48:04.999Z</time></trkpt><trkpt lat="44.9320898606324" lon="9.971668769976244"><ele>49.0</ele><time>2026-04-06T08:48:05.999Z</time></trkpt><trkpt lat="44.93216108869578" lon="9.97167326096031"><ele>49.0</ele><time>2026-04-06T08:48:06.999Z</time></trkpt><trkpt lat="44.93223013208397" lon="9.971682123993913"><ele>49.0</ele><time>2026-04-06T08:48:07.999Z</time></trkpt><trkpt lat="44.93229761991327" lon="9.97168748619848"><ele>49.0</ele><time>2026-04-06T08:48:08.999Z</time></trkpt><trkpt lat="44.93236796036996" lon="9.97169766883688"><ele>49.0</ele><time>2026-04-06T08:48:09.999Z</time></trkpt><trkpt lat="44.93243776466802" lon="9.971703991181645"><ele>49.0</ele><time>2026-04-06T08:48:10.999Z</time></trkpt><trkpt lat="44.932506245268016" lon="9.971708709782677"><ele>49.0</ele><time>2026-04-06T08:48:11.999Z</time></trkpt><trkpt lat="44.932571996019604" lon="9.97171544466761"><ele>48.714285714285715</ele><time>2026-04-06T08:48:12.999Z</time></trkpt><trkpt lat="44.932638105292426" lon="9.971723222607494"><ele>48.42857142857143</ele><time>2026-04-06T08:48:13.999Z</time></trkpt><trkpt lat="44.93270509781077" lon="9.971731261884159"><ele>48.14285714285714</ele><time>2026-04-06T08:48:14.999Z</time></trkpt><trkpt lat="44.93277232760125" lon="9.971738622209653"><ele>47.85714285714286</ele><time>2026-04-06T08:48:15.999Z</time></trkpt><trkpt lat="44.932839333586045" lon="9.971745741368565"><ele>47.57142857142857</ele><time>2026-04-06T08:48:16.999Z</time></trkpt><trkpt lat="44.932905775772255" lon="9.971753243251127"><ele>47.285714285714285</ele><time>2026-04-06T08:48:17.999Z</time></trkpt><trkpt lat="44.932971657605464" lon="9.971756957063436"><ele>47.0</ele><time>2026-04-06T08:48:18.999Z</time></trkpt><trkpt lat="44.9330383173534" lon="9.971762191619257"><ele>47.0</ele><time>2026-04-06T08:48:19.999Z</time></trkpt><trkpt lat="44.93310506377782" lon="9.971769355748876"><ele>47.0</ele><time>2026-04-06T08:48:20.999Z</time></trkpt><trkpt lat="44.93317138291169" lon="9.971777919696653"><ele>47.0</ele><time>2026-04-06T08:48:21.999Z</time></trkpt><trkpt lat="44.9332379040729" lon="9.97178177035856"><ele>47.0</ele><time>2026-04-06T08:48:22.999Z</time></trkpt><trkpt lat="44.93330445642892" lon="9.971787188668769"><ele>47.0</ele><time>2026-04-06T08:48:23.999Z</time></trkpt><trkpt lat="44.93336924846257" lon="9.971792785905853"><ele>47.0</ele><time>2026-04-06T08:48:24.999Z</time></trkpt><trkpt lat="44.93343472765884" lon="9.971803277345908"><ele>47.0</ele><time>2026-04-06T08:48:25.999Z</time></trkpt><trkpt lat="44.93350057961058" lon="9.971812869097986"><ele>47.14285714285714</ele><time>2026-04-06T08:48:26.999Z</time></trkpt><trkpt lat="44.93356535303287" lon="9.971817859952786"><ele>47.285714285714285</ele><time>2026-04-06T08:48:27.999Z</time></trkpt><trkpt lat="44.933634691672246" lon="9.971824286327609"><ele>47.42857142857143</ele><time>2026-04-06T08:48:28.999Z</time></trkpt><trkpt lat="44.93370399369487" lon="9.971830673272105"><ele>47.57142857142857</ele><time>2026-04-06T08:48:29.999Z</time></trkpt><trkpt lat="44.93377278353174" lon="9.971841251726554"><ele>47.714285714285715</ele><time>2026-04-06T08:48:30.999Z</time></trkpt><trkpt lat="44.933842008719346" lon="9.971849077703242"><ele>47.857142857142854</ele><time>2026-04-06T08:48:31.999Z</time></trkpt><trkpt lat="44.93391325609049" lon="9.971856570197925"><ele>48.0</ele><time>2026-04-06T08:48:32.999Z</time></trkpt><trkpt lat="44.93397909901986" lon="9.971863483299602"><ele>47.99999999999999</ele><time>2026-04-06T08:48:33.999Z</time></trkpt><trkpt lat="44.934049549499704" lon="9.971867284186231"><ele>48.0</ele><time>2026-04-06T08:48:34.999Z</time></trkpt><trkpt lat="44.93411606854011" lon="9.971877614647784"><ele>48.0</ele><time>2026-04-06T08:48:35.999Z</time></trkpt><trkpt lat="44.93418802613232" lon="9.971887155209085"><ele>48.0</ele><time>2026-04-06T08:48:36.999Z</time></trkpt><trkpt lat="44.93425569334913" lon="9.971898162348875"><ele>48.0</ele><time>2026-04-06T08:48:37.999Z</time></trkpt><trkpt lat="44.9343255543253" lon="9.971910645052066"><ele>47.99999999999999</ele><time>2026-04-06T08:48:38.999Z</time></trkpt><trkpt lat="44.93439373920608" lon="9.971923686239366"><ele>48.0</ele><time>2026-04-06T08:48:39.998Z</time></trkpt><trkpt lat="44.934464890036544" lon="9.971937621691175"><ele>47.833333333333336</ele><time>2026-04-06T08:48:40.998Z</time></trkpt><trkpt lat="44.93453706099955" lon="9.971952524964028"><ele>47.666666666666664</ele><time>2026-04-06T08:48:41.998Z</time></trkpt><trkpt lat="44.93460855546071" lon="9.97197174143933"><ele>47.5</ele><time>2026-04-06T08:48:42.998Z</time></trkpt><trkpt lat="44.9346796206384" lon="9.97199276082245"><ele>47.33333333333333</ele><time>2026-04-06T08:48:43.998Z</time></trkpt><trkpt lat="44.93475610711613" lon="9.972015966563347"><ele>47.166666666666664</ele><time>2026-04-06T08:48:44.998Z</time></trkpt><trkpt lat="44.93482876016009" lon="9.972041332504803"><ele>47.0</ele><time>2026-04-06T08:48:45.998Z</time></trkpt><trkpt lat="44.934905220079386" lon="9.972070469869905"><ele>47.0</ele><time>2026-04-06T08:48:46.998Z</time></trkpt><trkpt lat="44.93498052091317" lon="9.9721021285096"><ele>47.0</ele><time>2026-04-06T08:48:47.998Z</time></trkpt><trkpt lat="44.935057936574374" lon="9.972135434194675"><ele>47.0</ele><time>2026-04-06T08:48:48.998Z</time></trkpt><trkpt lat="44.935136620615815" lon="9.972171568835961"><ele>47.0</ele><time>2026-04-06T08:48:49.998Z</time></trkpt><trkpt lat="44.935215733103014" lon="9.972212114117895"><ele>47.0</ele><time>2026-04-06T08:48:50.998Z</time></trkpt><trkpt lat="44.9352953585313" lon="9.97225568559229"><ele>47.0</ele><time>2026-04-06T08:48:51.998Z</time></trkpt><trkpt lat="44.93537864125438" lon="9.972296749320293"><ele>47.0</ele><time>2026-04-06T08:48:52.998Z</time></trkpt><trkpt lat="44.93546399469485" lon="9.972341326635602"><ele>47.0</ele><time>2026-04-06T08:48:53.998Z</time></trkpt><trkpt lat="44.93554665533162" lon="9.972397841004938"><ele>47.0</ele><time>2026-04-06T08:48:54.998Z</time></trkpt><trkpt lat="44.93563138473984" lon="9.97245516529668"><ele>47.0</ele><time>2026-04-06T08:48:55.998Z</time></trkpt><trkpt lat="44.93571931262297" lon="9.972513279172274"><ele>47.0</ele><time>2026-04-06T08:48:56.998Z</time></trkpt><trkpt lat="44.935807838924276" lon="9.972566868193047"><ele>47.2</ele><time>2026-04-06T08:48:57.998Z</time></trkpt><trkpt lat="44.935899476131034" lon="9.972622819598355"><ele>47.400000000000006</ele><time>2026-04-06T08:48:58.998Z</time></trkpt><trkpt lat="44.93598973322538" lon="9.9726815313611"><ele>47.599999999999994</ele><time>2026-04-06T08:48:59.998Z</time></trkpt><trkpt lat="44.936080552762974" lon="9.972741067915013"><ele>47.8</ele><time>2026-04-06T08:49:00.998Z</time></trkpt><trkpt lat="44.93617193421922" lon="9.972799889162713"><ele>48.0</ele><time>2026-04-06T08:49:01.998Z</time></trkpt><trkpt lat="44.936264168045774" lon="9.972860524377046"><ele>48.0</ele><time>2026-04-06T08:49:02.998Z</time></trkpt><trkpt lat="44.93635720367327" lon="9.972918464602078"><ele>48.0</ele><time>2026-04-06T08:49:03.998Z</time></trkpt><trkpt lat="44.93644879051586" lon="9.972975360760175"><ele>48.0</ele><time>2026-04-06T08:49:04.998Z</time></trkpt><trkpt lat="44.93654316018066" lon="9.97303506500092"><ele>48.0</ele><time>2026-04-06T08:49:05.998Z</time></trkpt><trkpt lat="44.93663671941861" lon="9.973094783514311"><ele>48.0</ele><time>2026-04-06T08:49:06.998Z</time></trkpt><trkpt lat="44.93672565090207" lon="9.973152461804064"><ele>48.0</ele><time>2026-04-06T08:49:07.998Z</time></trkpt><trkpt lat="44.93682007800324" lon="9.973214162283513"><ele>48.0</ele><time>2026-04-06T08:49:08.998Z</time></trkpt><trkpt lat="44.93691457665722" lon="9.973272943773436"><ele>48.0</ele><time>2026-04-06T08:49:09.998Z</time></trkpt><trkpt lat="44.93700906600788" lon="9.973333350879981"><ele>48.0</ele><time>2026-04-06T08:49:11Z</time></trkpt><trkpt lat="44.93710346670247" lon="9.97339233576505"><ele>48.0</ele><time>2026-04-06T08:49:12Z</time></trkpt><trkpt lat="44.93719747547162" lon="9.973448845270287"><ele>48.0</ele><time>2026-04-06T08:49:13Z</time></trkpt><trkpt lat="44.93729058706732" lon="9.973506923921333"><ele>48.0</ele><time>2026-04-06T08:49:14Z</time></trkpt><trkpt lat="44.937383400046485" lon="9.973562644588387"><ele>48.0</ele><time>2026-04-06T08:49:15Z</time></trkpt><trkpt lat="44.937473550232376" lon="9.973618888462616"><ele>48.0</ele><time>2026-04-06T08:49:16Z</time></trkpt><trkpt lat="44.93756448147543" lon="9.973671894699448"><ele>48.0</ele><time>2026-04-06T08:49:17Z</time></trkpt><trkpt lat="44.937655500270935" lon="9.973727865642447"><ele>48.0</ele><time>2026-04-06T08:49:18Z</time></trkpt><trkpt lat="44.93774596239739" lon="9.973784202242802"><ele>48.0</ele><time>2026-04-06T08:49:19Z</time></trkpt><trkpt lat="44.937835146722136" lon="9.973836984081505"><ele>48.0</ele><time>2026-04-06T08:49:20Z</time></trkpt><trkpt lat="44.93792719243646" lon="9.973889869789154"><ele>48.0</ele><time>2026-04-06T08:49:21Z</time></trkpt><trkpt lat="44.93801692515145" lon="9.973937488111712"><ele>48.0</ele><time>2026-04-06T08:49:22Z</time></trkpt><trkpt lat="44.9381053936059" lon="9.973985746918006"><ele>48.0</ele><time>2026-04-06T08:49:23Z</time></trkpt><trkpt lat="44.93819571180279" lon="9.974036127920517"><ele>48.0</ele><time>2026-04-06T08:49:24Z</time></trkpt><trkpt lat="44.93828380980866" lon="9.974082326309054"><ele>48.0</ele><time>2026-04-06T08:49:25Z</time></trkpt><trkpt lat="44.938373375736056" lon="9.974126704802483"><ele>48.0</ele><time>2026-04-06T08:49:26Z</time></trkpt><trkpt lat="44.9384643693516" lon="9.974163882185561"><ele>48.0</ele><time>2026-04-06T08:49:27Z</time></trkpt><trkpt lat="44.93855281713928" lon="9.974199623737043"><ele>48.0</ele><time>2026-04-06T08:49:28Z</time></trkpt><trkpt lat="44.93864193788366" lon="9.974237589779445"><ele>48.0</ele><time>2026-04-06T08:49:29Z</time></trkpt><trkpt lat="44.938730858226656" lon="9.974278481385559"><ele>48.0</ele><time>2026-04-06T08:49:30Z</time></trkpt><trkpt lat="44.93881684341227" lon="9.974326267146937"><ele>48.0</ele><time>2026-04-06T08:49:31Z</time></trkpt><trkpt lat="44.938903981390474" lon="9.974370167657842"><ele>48.0</ele><time>2026-04-06T08:49:32Z</time></trkpt><trkpt lat="44.93899346335184" lon="9.974411894039598"><ele>48.0</ele><time>2026-04-06T08:49:33Z</time></trkpt><trkpt lat="44.93908348896861" lon="9.974445521713285"><ele>48.0</ele><time>2026-04-06T08:49:34Z</time></trkpt><trkpt lat="44.93917160415469" lon="9.974482288029968"><ele>48.0</ele><time>2026-04-06T08:49:35Z</time></trkpt><trkpt lat="44.93925841145022" lon="9.974528523615732"><ele>48.0</ele><time>2026-04-06T08:49:36Z</time></trkpt><trkpt lat="44.93934427703168" lon="9.97457360261016"><ele>48.0</ele><time>2026-04-06T08:49:37Z</time></trkpt><trkpt lat="44.9394318810942" lon="9.97461692169381"><ele>47.8</ele><time>2026-04-06T08:49:38Z</time></trkpt><trkpt lat="44.939517999489986" lon="9.974658611279551"><ele>47.599999999999994</ele><time>2026-04-06T08:49:39Z</time></trkpt><trkpt lat="44.939603645265024" lon="9.974703320655324"><ele>47.400000000000006</ele><time>2026-04-06T08:49:40Z</time></trkpt><trkpt lat="44.93968909150972" lon="9.974744826131703"><ele>47.2</ele><time>2026-04-06T08:49:41Z</time></trkpt><trkpt lat="44.93977544473486" lon="9.97478687826716"><ele>47.0</ele><time>2026-04-06T08:49:42Z</time></trkpt><trkpt lat="44.93985960358908" lon="9.974827259009023"><ele>47.0</ele><time>2026-04-06T08:49:43Z</time></trkpt><trkpt lat="44.93994388849983" lon="9.974873199566817"><ele>47.0</ele><time>2026-04-06T08:49:44Z</time></trkpt><trkpt lat="44.94002725914487" lon="9.97491198235356"><ele>47.0</ele><time>2026-04-06T08:49:45Z</time></trkpt><trkpt lat="44.94011303755371" lon="9.974952133727191"><ele>47.0</ele><time>2026-04-06T08:49:46Z</time></trkpt><trkpt lat="44.940195877220674" lon="9.974993064723122"><ele>47.0</ele><time>2026-04-06T08:49:47Z</time></trkpt><trkpt lat="44.94027872377698" lon="9.975036358189048"><ele>47.0</ele><time>2026-04-06T08:49:48Z</time></trkpt><trkpt lat="44.94036005116366" lon="9.97507858726863"><ele>47.166666666666664</ele><time>2026-04-06T08:49:49Z</time></trkpt><trkpt lat="44.940442019439544" lon="9.975116438290442"><ele>47.33333333333333</ele><time>2026-04-06T08:49:50Z</time></trkpt><trkpt lat="44.9405247626935" lon="9.975160741980426"><ele>47.5</ele><time>2026-04-06T08:49:50.999Z</time></trkpt><trkpt lat="44.94060721213227" lon="9.975205223302662"><ele>47.666666666666664</ele><time>2026-04-06T08:49:51.999Z</time></trkpt><trkpt lat="44.94069006196619" lon="9.975245814391512"><ele>47.833333333333336</ele><time>2026-04-06T08:49:52.999Z</time></trkpt><trkpt lat="44.9407738476092" lon="9.975288719377932"><ele>48.0</ele><time>2026-04-06T08:49:53.999Z</time></trkpt><trkpt lat="44.94085450275313" lon="9.975327901018987"><ele>47.5</ele><time>2026-04-06T08:49:54.999Z</time></trkpt><trkpt lat="44.94093935315383" lon="9.975369201010313"><ele>47.0</ele><time>2026-04-06T08:49:55.999Z</time></trkpt><trkpt lat="44.94101992858825" lon="9.975414677047924"><ele>46.5</ele><time>2026-04-06T08:49:56.999Z</time></trkpt><trkpt lat="44.941102581081516" lon="9.975461138769733"><ele>46.0</ele><time>2026-04-06T08:49:57.999Z</time></trkpt><trkpt lat="44.9411850829171" lon="9.975508033562717"><ele>45.5</ele><time>2026-04-06T08:49:58.999Z</time></trkpt><trkpt lat="44.94126538071725" lon="9.975552516083338"><ele>45.0</ele><time>2026-04-06T08:49:59.999Z</time></trkpt><trkpt lat="44.94134680373233" lon="9.975597337469198"><ele>45.0</ele><time>2026-04-06T08:50:00.999Z</time></trkpt><trkpt lat="44.94142842271278" lon="9.975642698039733"><ele>45.0</ele><time>2026-04-06T08:50:01.999Z</time></trkpt><trkpt lat="44.941507095353536" lon="9.975684114144485"><ele>45.0</ele><time>2026-04-06T08:50:02.999Z</time></trkpt><trkpt lat="44.941589012544235" lon="9.97573010496219"><ele>45.0</ele><time>2026-04-06T08:50:03.999Z</time></trkpt><trkpt lat="44.941670419750324" lon="9.975774676725411"><ele>45.0</ele><time>2026-04-06T08:50:04.999Z</time></trkpt><trkpt lat="44.94175232495149" lon="9.975816173864438"><ele>45.0</ele><time>2026-04-06T08:50:05.999Z</time></trkpt><trkpt lat="44.94183454893287" lon="9.975857886232513"><ele>45.166666666666664</ele><time>2026-04-06T08:50:06.999Z</time></trkpt><trkpt lat="44.94191745285019" lon="9.975902919367035"><ele>45.333333333333336</ele><time>2026-04-06T08:50:07.999Z</time></trkpt><trkpt lat="44.941998127333974" lon="9.975945019468298"><ele>45.5</ele><time>2026-04-06T08:50:08.999Z</time></trkpt><trkpt lat="44.94207976196346" lon="9.975987633246934"><ele>45.66666666666667</ele><time>2026-04-06T08:50:09.999Z</time></trkpt><trkpt lat="44.94216126719351" lon="9.976032218269527"><ele>45.833333333333336</ele><time>2026-04-06T08:50:10.999Z</time></trkpt><trkpt lat="44.942241760439096" lon="9.976074137466664"><ele>46.0</ele><time>2026-04-06T08:50:11.999Z</time></trkpt><trkpt lat="44.94232530363603" lon="9.9761178415201"><ele>46.0</ele><time>2026-04-06T08:50:12.999Z</time></trkpt><trkpt lat="44.94240558479899" lon="9.976158910239267"><ele>46.0</ele><time>2026-04-06T08:50:13.999Z</time></trkpt><trkpt lat="44.94248846931128" lon="9.976202468180135"><ele>46.0</ele><time>2026-04-06T08:50:14.999Z</time></trkpt><trkpt lat="44.94257281411593" lon="9.97624342396554"><ele>46.0</ele><time>2026-04-06T08:50:15.999Z</time></trkpt><trkpt lat="44.94265471039548" lon="9.976286222424616"><ele>46.0</ele><time>2026-04-06T08:50:16.999Z</time></trkpt><trkpt lat="44.94273726879266" lon="9.976335525604897"><ele>46.0</ele><time>2026-04-06T08:50:17.999Z</time></trkpt><trkpt lat="44.942818066710295" lon="9.976378209063174"><ele>46.16666666666667</ele><time>2026-04-06T08:50:18.999Z</time></trkpt><trkpt lat="44.94290143624271" lon="9.976420214657935"><ele>46.333333333333336</ele><time>2026-04-06T08:50:19.999Z</time></trkpt><trkpt lat="44.94298505392388" lon="9.976463959634556"><ele>46.5</ele><time>2026-04-06T08:50:20.999Z</time></trkpt><trkpt lat="44.94306745621509" lon="9.976508718265682"><ele>46.666666666666664</ele><time>2026-04-06T08:50:21.999Z</time></trkpt><trkpt lat="44.94314906112075" lon="9.976552232720158"><ele>46.83333333333333</ele><time>2026-04-06T08:50:22.999Z</time></trkpt><trkpt lat="44.94323222416719" lon="9.976594797595467"><ele>47.0</ele><time>2026-04-06T08:50:23.999Z</time></trkpt><trkpt lat="44.94331533448961" lon="9.976637632847556"><ele>47.0</ele><time>2026-04-06T08:50:24.999Z</time></trkpt><trkpt lat="44.94339727578635" lon="9.976679070418122"><ele>47.0</ele><time>2026-04-06T08:50:25.999Z</time></trkpt><trkpt lat="44.94348058847931" lon="9.976724494697738"><ele>47.0</ele><time>2026-04-06T08:50:26.999Z</time></trkpt><trkpt lat="44.94356402906089" lon="9.976766715792861"><ele>47.0</ele><time>2026-04-06T08:50:27.999Z</time></trkpt><trkpt lat="44.94364601307766" lon="9.976812081066385"><ele>47.0</ele><time>2026-04-06T08:50:28.999Z</time></trkpt><trkpt lat="44.9437275066724" lon="9.976856903678815"><ele>47.0</ele><time>2026-04-06T08:50:29.999Z</time></trkpt><trkpt lat="44.94381145144691" lon="9.976900261177486"><ele>47.5</ele><time>2026-04-06T08:50:30.999Z</time></trkpt><trkpt lat="44.94389373844778" lon="9.976942988329858"><ele>48.0</ele><time>2026-04-06T08:50:31.999Z</time></trkpt><trkpt lat="44.94397628376231" lon="9.976987332155554"><ele>48.5</ele><time>2026-04-06T08:50:32.999Z</time></trkpt><trkpt lat="44.94405865414307" lon="9.977032907297312"><ele>49.0</ele><time>2026-04-06T08:50:33.999Z</time></trkpt><trkpt lat="44.94414260723071" lon="9.977075546945217"><ele>49.50000000000001</ele><time>2026-04-06T08:50:34.999Z</time></trkpt><trkpt lat="44.94422589071441" lon="9.977120336439665"><ele>50.0</ele><time>2026-04-06T08:50:35.999Z</time></trkpt><trkpt lat="44.94430927422018" lon="9.977164596732582"><ele>50.00000000000001</ele><time>2026-04-06T08:50:36.999Z</time></trkpt><trkpt lat="44.94439292288754" lon="9.977208338695128"><ele>50.0</ele><time>2026-04-06T08:50:37.999Z</time></trkpt><trkpt lat="44.94447208069091" lon="9.977250969414586"><ele>50.0</ele><time>2026-04-06T08:50:38.999Z</time></trkpt><trkpt lat="44.944554378808505" lon="9.977294078018678"><ele>50.0</ele><time>2026-04-06T08:50:39.999Z</time></trkpt><trkpt lat="44.94463690561774" lon="9.97733787350586"><ele>50.00000000000001</ele><time>2026-04-06T08:50:40.999Z</time></trkpt><trkpt lat="44.944719640090014" lon="9.977379250660025"><ele>50.0</ele><time>2026-04-06T08:50:41.999Z</time></trkpt><trkpt lat="44.944803512546066" lon="9.97742304605757"><ele>50.00000000000001</ele><time>2026-04-06T08:50:42.998Z</time></trkpt><trkpt lat="44.94488723635874" lon="9.977463701957909"><ele>50.0</ele><time>2026-04-06T08:50:43.998Z</time></trkpt><trkpt lat="44.944969603246264" lon="9.977510180393732"><ele>50.0</ele><time>2026-04-06T08:50:44.998Z</time></trkpt><trkpt lat="44.94505176784937" lon="9.977554858437683"><ele>50.0</ele><time>2026-04-06T08:50:45.998Z</time></trkpt><trkpt lat="44.94513651586213" lon="9.977598179948655"><ele>50.00000000000001</ele><time>2026-04-06T08:50:46.998Z</time></trkpt><trkpt lat="44.94521977313484" lon="9.977642700114943"><ele>50.0</ele><time>2026-04-06T08:50:47.998Z</time></trkpt><trkpt lat="44.94530279940985" lon="9.977688130487069"><ele>50.00000000000001</ele><time>2026-04-06T08:50:48.998Z</time></trkpt><trkpt lat="44.94538561182038" lon="9.97773246266455"><ele>50.0</ele><time>2026-04-06T08:50:49.998Z</time></trkpt><trkpt lat="44.94547066803329" lon="9.977776896951791"><ele>50.0</ele><time>2026-04-06T08:50:50.998Z</time></trkpt><trkpt lat="44.94555197366483" lon="9.977818189289541"><ele>50.0</ele><time>2026-04-06T08:50:51.998Z</time></trkpt><trkpt lat="44.94563691948574" lon="9.977864793364652"><ele>50.00000000000001</ele><time>2026-04-06T08:50:52.998Z</time></trkpt><trkpt lat="44.94571971083949" lon="9.977907926893977"><ele>50.0</ele><time>2026-04-06T08:50:53.998Z</time></trkpt><trkpt lat="44.94580284001972" lon="9.977956163982054"><ele>49.66666666666667</ele><time>2026-04-06T08:50:54.998Z</time></trkpt><trkpt lat="44.94588588759233" lon="9.978002106893355"><ele>49.333333333333336</ele><time>2026-04-06T08:50:55.998Z</time></trkpt><trkpt lat="44.94596922065091" lon="9.97804499064411"><ele>49.0</ele><time>2026-04-06T08:50:56.998Z</time></trkpt><trkpt lat="44.94605452209157" lon="9.978089841487064"><ele>48.66666666666667</ele><time>2026-04-06T08:50:57.998Z</time></trkpt><trkpt lat="44.946138169542834" lon="9.978134601264294"><ele>48.333333333333336</ele><time>2026-04-06T08:50:58.998Z</time></trkpt><trkpt lat="44.94621893590468" lon="9.978183311848987"><ele>48.0</ele><time>2026-04-06T08:50:59.998Z</time></trkpt><trkpt lat="44.94630854316363" lon="9.978222999253942"><ele>48.0</ele><time>2026-04-06T08:51:00.998Z</time></trkpt><trkpt lat="44.946388113008204" lon="9.978267416770484"><ele>48.0</ele><time>2026-04-06T08:51:01.998Z</time></trkpt><trkpt lat="44.94647389314005" lon="9.97831893815249"><ele>48.0</ele><time>2026-04-06T08:51:02.998Z</time></trkpt><trkpt lat="44.9465539941684" lon="9.978361160190818"><ele>48.0</ele><time>2026-04-06T08:51:03.998Z</time></trkpt><trkpt lat="44.9466404527339" lon="9.978406787701855"><ele>48.0</ele><time>2026-04-06T08:51:04.998Z</time></trkpt><trkpt lat="44.94672210672295" lon="9.978451122205175"><ele>48.0</ele><time>2026-04-06T08:51:05.998Z</time></trkpt><trkpt lat="44.9468060688186" lon="9.978495316992358"><ele>48.0</ele><time>2026-04-06T08:51:06.998Z</time></trkpt><trkpt lat="44.94689006503663" lon="9.978539884686043"><ele>48.0</ele><time>2026-04-06T08:51:07.998Z</time></trkpt><trkpt lat="44.94697368963983" lon="9.978583438091325"><ele>48.0</ele><time>2026-04-06T08:51:08.998Z</time></trkpt><trkpt lat="44.947058662668645" lon="9.978631251511327"><ele>48.0</ele><time>2026-04-06T08:51:09.998Z</time></trkpt><trkpt lat="44.947142073800826" lon="9.978676795711674"><ele>48.0</ele><time>2026-04-06T08:51:10.998Z</time></trkpt><trkpt lat="44.94722429978504" lon="9.978719665691369"><ele>48.0</ele><time>2026-04-06T08:51:11.998Z</time></trkpt><trkpt lat="44.94730933486123" lon="9.978764904160403"><ele>48.0</ele><time>2026-04-06T08:51:12.998Z</time></trkpt><trkpt lat="44.947391231700934" lon="9.978808697635804"><ele>48.0</ele><time>2026-04-06T08:51:13.998Z</time></trkpt><trkpt lat="44.94747604911658" lon="9.978855784615117"><ele>48.0</ele><time>2026-04-06T08:51:14.998Z</time></trkpt><trkpt lat="44.94755999394783" lon="9.978899521161239"><ele>48.0</ele><time>2026-04-06T08:51:15.998Z</time></trkpt><trkpt lat="44.947643393586354" lon="9.978944757960178"><ele>48.0</ele><time>2026-04-06T08:51:17Z</time></trkpt><trkpt lat="44.9477290626014" lon="9.978989920629381"><ele>48.0</ele><time>2026-04-06T08:51:18Z</time></trkpt><trkpt lat="44.947813754117796" lon="9.979033080129758"><ele>48.0</ele><time>2026-04-06T08:51:19Z</time></trkpt><trkpt lat="44.94789781121196" lon="9.979078832750897"><ele>48.0</ele><time>2026-04-06T08:51:20Z</time></trkpt><trkpt lat="44.94798196938962" lon="9.979123692228498"><ele>48.0</ele><time>2026-04-06T08:51:21Z</time></trkpt><trkpt lat="44.94806425518992" lon="9.97916664136442"><ele>48.0</ele><time>2026-04-06T08:51:22Z</time></trkpt><trkpt lat="44.948147858806436" lon="9.979211605086467"><ele>48.0</ele><time>2026-04-06T08:51:23Z</time></trkpt><trkpt lat="44.948230265321996" lon="9.979254554453371"><ele>48.0</ele><time>2026-04-06T08:51:24Z</time></trkpt><trkpt lat="44.9483154651838" lon="9.979298474742006"><ele>47.666666666666664</ele><time>2026-04-06T08:51:25Z</time></trkpt><trkpt lat="44.948397177817206" lon="9.979342159462904"><ele>47.333333333333336</ele><time>2026-04-06T08:51:26Z</time></trkpt><trkpt lat="44.94847991361896" lon="9.979387580103898"><ele>47.0</ele><time>2026-04-06T08:51:27Z</time></trkpt><trkpt lat="44.94856388013433" lon="9.97943018097685"><ele>46.66666666666667</ele><time>2026-04-06T08:51:28Z</time></trkpt><trkpt lat="44.94864731402152" lon="9.979470847027587"><ele>46.333333333333336</ele><time>2026-04-06T08:51:29Z</time></trkpt><trkpt lat="44.9487329166532" lon="9.979509482894493"><ele>46.0</ele><time>2026-04-06T08:51:30Z</time></trkpt><trkpt lat="44.94882263873348" lon="9.979539534293872"><ele>46.0</ele><time>2026-04-06T08:51:31Z</time></trkpt><trkpt lat="44.948914663085546" lon="9.97955629803768"><ele>46.0</ele><time>2026-04-06T08:51:32Z</time></trkpt><trkpt lat="44.94900796236334" lon="9.97956422865505"><ele>46.0</ele><time>2026-04-06T08:51:33Z</time></trkpt><trkpt lat="44.949102429423206" lon="9.97956526850529"><ele>46.0</ele><time>2026-04-06T08:51:34Z</time></trkpt><trkpt lat="44.94919780584982" lon="9.979564030608648"><ele>46.0</ele><time>2026-04-06T08:51:35Z</time></trkpt><trkpt lat="44.949297236737145" lon="9.979562368997447"><ele>45.8</ele><time>2026-04-06T08:51:36Z</time></trkpt><trkpt lat="44.94939307435162" lon="9.979562867032168"><ele>45.599999999999994</ele><time>2026-04-06T08:51:37Z</time></trkpt><trkpt lat="44.949486999344415" lon="9.979562786144315"><ele>45.4</ele><time>2026-04-06T08:51:38Z</time></trkpt><trkpt lat="44.949582544059474" lon="9.979564867608522"><ele>45.2</ele><time>2026-04-06T08:51:39Z</time></trkpt><trkpt lat="44.94967765150274" lon="9.979567868001585"><ele>45.0</ele><time>2026-04-06T08:51:40Z</time></trkpt><trkpt lat="44.949773188997725" lon="9.979571153866871"><ele>45.0</ele><time>2026-04-06T08:51:41Z</time></trkpt><trkpt lat="44.94986672361452" lon="9.9795763257836"><ele>45.0</ele><time>2026-04-06T08:51:42Z</time></trkpt><trkpt lat="44.94995988971504" lon="9.979583731048999"><ele>45.0</ele><time>2026-04-06T08:51:43Z</time></trkpt><trkpt lat="44.95005048829416" lon="9.979587614890374"><ele>45.0</ele><time>2026-04-06T08:51:44Z</time></trkpt><trkpt lat="44.95014393899011" lon="9.979590295184222"><ele>45.0</ele><time>2026-04-06T08:51:45Z</time></trkpt><trkpt lat="44.95023671222883" lon="9.979595845473385"><ele>44.8</ele><time>2026-04-06T08:51:46Z</time></trkpt><trkpt lat="44.95033035567241" lon="9.979598844168889"><ele>44.6</ele><time>2026-04-06T08:51:47Z</time></trkpt><trkpt lat="44.95042456973351" lon="9.979601693605767"><ele>44.400000000000006</ele><time>2026-04-06T08:51:48Z</time></trkpt><trkpt lat="44.95051625986221" lon="9.97960447016453"><ele>44.2</ele><time>2026-04-06T08:51:49Z</time></trkpt><trkpt lat="44.95060759786557" lon="9.979605169519841"><ele>44.0</ele><time>2026-04-06T08:51:50Z</time></trkpt><trkpt lat="44.95069955329264" lon="9.979605257052933"><ele>44.0</ele><time>2026-04-06T08:51:51Z</time></trkpt><trkpt lat="44.95078763267656" lon="9.979606439976099"><ele>44.0</ele><time>2026-04-06T08:51:52Z</time></trkpt><trkpt lat="44.950877185495095" lon="9.979608924460857"><ele>44.0</ele><time>2026-04-06T08:51:53Z</time></trkpt><trkpt lat="44.95096784815674" lon="9.979616342474532"><ele>44.0</ele><time>2026-04-06T08:51:54Z</time></trkpt><trkpt lat="44.95105670919282" lon="9.97962384307173"><ele>44.0</ele><time>2026-04-06T08:51:54.999Z</time></trkpt><trkpt lat="44.95114752275123" lon="9.979644078555863"><ele>44.0</ele><time>2026-04-06T08:51:55.999Z</time></trkpt><trkpt lat="44.95123500631763" lon="9.979676505136455"><ele>44.400000000000006</ele><time>2026-04-06T08:51:56.999Z</time></trkpt><trkpt lat="44.95131976873497" lon="9.979720716584463"><ele>44.8</ele><time>2026-04-06T08:51:57.999Z</time></trkpt><trkpt lat="44.95140172206192" lon="9.979778419474243"><ele>45.2</ele><time>2026-04-06T08:51:58.999Z</time></trkpt><trkpt lat="44.951482782435626" lon="9.979836390496102"><ele>45.599999999999994</ele><time>2026-04-06T08:51:59.999Z</time></trkpt><trkpt lat="44.95156138854768" lon="9.979895770286573"><ele>46.0</ele><time>2026-04-06T08:52:00.999Z</time></trkpt><trkpt lat="44.95164077423898" lon="9.979957675947064"><ele>46.16666666666667</ele><time>2026-04-06T08:52:01.999Z</time></trkpt><trkpt lat="44.951720218284585" lon="9.98001801250178"><ele>46.333333333333336</ele><time>2026-04-06T08:52:02.999Z</time></trkpt><trkpt lat="44.95179907199997" lon="9.98007945687061"><ele>46.5</ele><time>2026-04-06T08:52:03.999Z</time></trkpt><trkpt lat="44.95187826665165" lon="9.980141195339522"><ele>46.666666666666664</ele><time>2026-04-06T08:52:04.999Z</time></trkpt><trkpt lat="44.95195512336566" lon="9.98020271635902"><ele>46.83333333333333</ele><time>2026-04-06T08:52:05.999Z</time></trkpt><trkpt lat="44.95203250184403" lon="9.9802634282378"><ele>47.0</ele><time>2026-04-06T08:52:06.999Z</time></trkpt><trkpt lat="44.952111406392405" lon="9.980324364850691"><ele>47.0</ele><time>2026-04-06T08:52:07.999Z</time></trkpt><trkpt lat="44.95218847003316" lon="9.980385262938528"><ele>47.0</ele><time>2026-04-06T08:52:08.999Z</time></trkpt><trkpt lat="44.952266405748766" lon="9.980447406321714"><ele>47.0</ele><time>2026-04-06T08:52:09.999Z</time></trkpt><trkpt lat="44.95234382535995" lon="9.980509034540855"><ele>47.0</ele><time>2026-04-06T08:52:10.999Z</time></trkpt><trkpt lat="44.95242260322269" lon="9.980571428815608"><ele>47.0</ele><time>2026-04-06T08:52:11.999Z</time></trkpt><trkpt lat="44.95250135705641" lon="9.98062932546984"><ele>47.0</ele><time>2026-04-06T08:52:12.999Z</time></trkpt><trkpt lat="44.95257926322504" lon="9.98069230343287"><ele>46.83333333333333</ele><time>2026-04-06T08:52:13.999Z</time></trkpt><trkpt lat="44.95265683096085" lon="9.980754238828395"><ele>46.666666666666664</ele><time>2026-04-06T08:52:14.999Z</time></trkpt><trkpt lat="44.95273488972342" lon="9.980817119633578"><ele>46.5</ele><time>2026-04-06T08:52:15.999Z</time></trkpt><trkpt lat="44.95281330941602" lon="9.980882588964873"><ele>46.333333333333336</ele><time>2026-04-06T08:52:16.999Z</time></trkpt><trkpt lat="44.952890420257205" lon="9.980942405238647"><ele>46.16666666666667</ele><time>2026-04-06T08:52:17.999Z</time></trkpt><trkpt lat="44.952970174206406" lon="9.981004813588587"><ele>46.0</ele><time>2026-04-06T08:52:18.999Z</time></trkpt><trkpt lat="44.95304685226082" lon="9.981066647190527"><ele>46.0</ele><time>2026-04-06T08:52:19.999Z</time></trkpt><trkpt lat="44.95312456057133" lon="9.98112832835455"><ele>46.0</ele><time>2026-04-06T08:52:20.999Z</time></trkpt><trkpt lat="44.95320329484473" lon="9.981192424220868"><ele>46.0</ele><time>2026-04-06T08:52:21.999Z</time></trkpt><trkpt lat="44.95328084891625" lon="9.981252282657213"><ele>46.0</ele><time>2026-04-06T08:52:22.999Z</time></trkpt><trkpt lat="44.953359309070116" lon="9.981315656806176"><ele>46.0</ele><time>2026-04-06T08:52:23.999Z</time></trkpt><trkpt lat="44.95343786366121" lon="9.981373705308563"><ele>46.0</ele><time>2026-04-06T08:52:24.999Z</time></trkpt><trkpt lat="44.953514512091466" lon="9.981433676755495"><ele>46.0</ele><time>2026-04-06T08:52:25.999Z</time></trkpt><trkpt lat="44.95359303903541" lon="9.98149583712209"><ele>46.0</ele><time>2026-04-06T08:52:26.999Z</time></trkpt><trkpt lat="44.95367104993684" lon="9.981553974501935"><ele>46.0</ele><time>2026-04-06T08:52:27.999Z</time></trkpt><trkpt lat="44.95374836445521" lon="9.981617720714569"><ele>46.0</ele><time>2026-04-06T08:52:28.999Z</time></trkpt><trkpt lat="44.95382552548422" lon="9.981676053175981"><ele>46.0</ele><time>2026-04-06T08:52:29.999Z</time></trkpt><trkpt lat="44.95390476072792" lon="9.981738186113658"><ele>46.0</ele><time>2026-04-06T08:52:30.999Z</time></trkpt><trkpt lat="44.953983026926046" lon="9.981794807878611"><ele>46.16666666666667</ele><time>2026-04-06T08:52:31.999Z</time></trkpt><trkpt lat="44.95406126076884" lon="9.98185457720734"><ele>46.333333333333336</ele><time>2026-04-06T08:52:32.999Z</time></trkpt><trkpt lat="44.95413908343758" lon="9.981913348198384"><ele>46.5</ele><time>2026-04-06T08:52:33.999Z</time></trkpt><trkpt lat="44.954216426160855" lon="9.981972739873887"><ele>46.666666666666664</ele><time>2026-04-06T08:52:34.999Z</time></trkpt><trkpt lat="44.95429341540893" lon="9.982035184927561"><ele>46.83333333333333</ele><time>2026-04-06T08:52:35.999Z</time></trkpt><trkpt lat="44.95437250361349" lon="9.982095766846918"><ele>47.0</ele><time>2026-04-06T08:52:36.999Z</time></trkpt><trkpt lat="44.9544509082081" lon="9.98215497117112"><ele>47.0</ele><time>2026-04-06T08:52:37.999Z</time></trkpt><trkpt lat="44.95452879789213" lon="9.982219953874743"><ele>47.0</ele><time>2026-04-06T08:52:38.999Z</time></trkpt><trkpt lat="44.95460539829378" lon="9.982280566220245"><ele>47.0</ele><time>2026-04-06T08:52:39.999Z</time></trkpt><trkpt lat="44.9546831118487" lon="9.982345392468673"><ele>47.0</ele><time>2026-04-06T08:52:40.999Z</time></trkpt><trkpt lat="44.95476001623919" lon="9.982407088808802"><ele>47.0</ele><time>2026-04-06T08:52:41.999Z</time></trkpt><trkpt lat="44.95483556897474" lon="9.982474287120743"><ele>47.0</ele><time>2026-04-06T08:52:42.999Z</time></trkpt><trkpt lat="44.95491156006025" lon="9.982538706657872"><ele>46.83333333333333</ele><time>2026-04-06T08:52:43.999Z</time></trkpt><trkpt lat="44.954988727416634" lon="9.982605430117644"><ele>46.666666666666664</ele><time>2026-04-06T08:52:44.999Z</time></trkpt><trkpt lat="44.9550632341591" lon="9.982669848606948"><ele>46.5</ele><time>2026-04-06T08:52:45.999Z</time></trkpt><trkpt lat="44.955138500422514" lon="9.982732687335595"><ele>46.333333333333336</ele><time>2026-04-06T08:52:46.999Z</time></trkpt><trkpt lat="44.95521383460701" lon="9.982798281309206"><ele>46.16666666666667</ele><time>2026-04-06T08:52:47.998Z</time></trkpt><trkpt lat="44.95528960373714" lon="9.982863759849975"><ele>46.0</ele><time>2026-04-06T08:52:48.998Z</time></trkpt><trkpt lat="44.955365335207944" lon="9.982926969778148"><ele>45.833333333333336</ele><time>2026-04-06T08:52:49.998Z</time></trkpt><trkpt lat="44.95544222948127" lon="9.982992587783862"><ele>45.66666666666667</ele><time>2026-04-06T08:52:50.998Z</time></trkpt><trkpt lat="44.955518813378454" lon="9.983054782986544"><ele>45.5</ele><time>2026-04-06T08:52:51.998Z</time></trkpt><trkpt lat="44.95559461576382" lon="9.983122752049251"><ele>45.333333333333336</ele><time>2026-04-06T08:52:52.998Z</time></trkpt><trkpt lat="44.95566990204614" lon="9.98318821486098"><ele>45.166666666666664</ele><time>2026-04-06T08:52:53.998Z</time></trkpt><trkpt lat="44.955747204480254" lon="9.98325215043908"><ele>45.0</ele><time>2026-04-06T08:52:54.998Z</time></trkpt><trkpt lat="44.95582221671078" lon="9.983315671449592"><ele>44.833333333333336</ele><time>2026-04-06T08:52:55.998Z</time></trkpt><trkpt lat="44.955898099490355" lon="9.983380264088385"><ele>44.666666666666664</ele><time>2026-04-06T08:52:56.998Z</time></trkpt><trkpt lat="44.95597568847008" lon="9.983439082122313"><ele>44.5</ele><time>2026-04-06T08:52:57.998Z</time></trkpt><trkpt lat="44.956051670296894" lon="9.983500685643198"><ele>44.33333333333333</ele><time>2026-04-06T08:52:58.998Z</time></trkpt><trkpt lat="44.956127150814176" lon="9.98356413429392"><ele>44.166666666666664</ele><time>2026-04-06T08:52:59.998Z</time></trkpt><trkpt lat="44.95620245358407" lon="9.983630688788573"><ele>44.0</ele><time>2026-04-06T08:53:00.998Z</time></trkpt><trkpt lat="44.95627541406926" lon="9.98369695824504"><ele>44.0</ele><time>2026-04-06T08:53:01.998Z</time></trkpt><trkpt lat="44.95634845441397" lon="9.983764176638172"><ele>44.0</ele><time>2026-04-06T08:53:02.998Z</time></trkpt><trkpt lat="44.956424266268414" lon="9.983825054470378"><ele>44.0</ele><time>2026-04-06T08:53:03.998Z</time></trkpt><trkpt lat="44.95649931818147" lon="9.98388734732347"><ele>44.0</ele><time>2026-04-06T08:53:04.998Z</time></trkpt><trkpt lat="44.95657437345924" lon="9.983948750878811"><ele>44.0</ele><time>2026-04-06T08:53:05.998Z</time></trkpt><trkpt lat="44.95664979030183" lon="9.984011106515792"><ele>44.0</ele><time>2026-04-06T08:53:06.998Z</time></trkpt><trkpt lat="44.956723029218416" lon="9.984072698336279"><ele>44.0</ele><time>2026-04-06T08:53:07.998Z</time></trkpt><trkpt lat="44.95679970756638" lon="9.984135405434156"><ele>44.0</ele><time>2026-04-06T08:53:08.998Z</time></trkpt><trkpt lat="44.956880545343815" lon="9.984196615807239"><ele>44.0</ele><time>2026-04-06T08:53:09.998Z</time></trkpt><trkpt lat="44.956957819891755" lon="9.984255235179285"><ele>44.0</ele><time>2026-04-06T08:53:10.998Z</time></trkpt><trkpt lat="44.957034482035084" lon="9.984316882497495"><ele>44.0</ele><time>2026-04-06T08:53:11.998Z</time></trkpt><trkpt lat="44.95711270249842" lon="9.984376963432636"><ele>44.0</ele><time>2026-04-06T08:53:12.998Z</time></trkpt><trkpt lat="44.957190371485446" lon="9.984438144744725"><ele>44.166666666666664</ele><time>2026-04-06T08:53:13.998Z</time></trkpt><trkpt lat="44.95726822831835" lon="9.984499936022726"><ele>44.33333333333333</ele><time>2026-04-06T08:53:14.998Z</time></trkpt><trkpt lat="44.95734595299806" lon="9.984559854228278"><ele>44.5</ele><time>2026-04-06T08:53:15.998Z</time></trkpt><trkpt lat="44.957421139075905" lon="9.984620752015003"><ele>44.666666666666664</ele><time>2026-04-06T08:53:16.998Z</time></trkpt><trkpt lat="44.95749745250338" lon="9.984679941317586"><ele>44.833333333333336</ele><time>2026-04-06T08:53:17.998Z</time></trkpt><trkpt lat="44.95757302808041" lon="9.984741343746723"><ele>45.0</ele><time>2026-04-06T08:53:18.998Z</time></trkpt><trkpt lat="44.957648759947844" lon="9.984802206116765"><ele>45.0</ele><time>2026-04-06T08:53:19.998Z</time></trkpt><trkpt lat="44.95772401314061" lon="9.984864812437348"><ele>45.0</ele><time>2026-04-06T08:53:20.998Z</time></trkpt><trkpt lat="44.95780030664543" lon="9.984925174786936"><ele>45.0</ele><time>2026-04-06T08:53:22Z</time></trkpt><trkpt lat="44.957878594800775" lon="9.984987977061806"><ele>45.0</ele><time>2026-04-06T08:53:23Z</time></trkpt><trkpt lat="44.957956676256444" lon="9.985048836981115"><ele>45.0</ele><time>2026-04-06T08:53:24Z</time></trkpt><trkpt lat="44.95803431339754" lon="9.985109287838432"><ele>45.0</ele><time>2026-04-06T08:53:25Z</time></trkpt><trkpt lat="44.95811166083175" lon="9.985172821597029"><ele>45.2</ele><time>2026-04-06T08:53:26Z</time></trkpt><trkpt lat="44.9581908251299" lon="9.98523544016948"><ele>45.4</ele><time>2026-04-06T08:53:27Z</time></trkpt><trkpt lat="44.958269188016395" lon="9.985301014149387"><ele>45.599999999999994</ele><time>2026-04-06T08:53:28Z</time></trkpt><trkpt lat="44.95834699416627" lon="9.985367072289533"><ele>45.8</ele><time>2026-04-06T08:53:29Z</time></trkpt><trkpt lat="44.95842544335351" lon="9.985428408976581"><ele>46.0</ele><time>2026-04-06T08:53:30Z</time></trkpt><trkpt lat="44.95850448465358" lon="9.985493515545002"><ele>46.0</ele><time>2026-04-06T08:53:31Z</time></trkpt><trkpt lat="44.95858409130956" lon="9.985555930114895"><ele>46.0</ele><time>2026-04-06T08:53:32Z</time></trkpt><trkpt lat="44.958661800694095" lon="9.985616594015013"><ele>46.0</ele><time>2026-04-06T08:53:33Z</time></trkpt><trkpt lat="44.95874027864438" lon="9.985679566951088"><ele>46.0</ele><time>2026-04-06T08:53:34Z</time></trkpt><trkpt lat="44.95881764701498" lon="9.985740513685931"><ele>46.0</ele><time>2026-04-06T08:53:35Z</time></trkpt><trkpt lat="44.95889504384924" lon="9.98580528196263"><ele>46.0</ele><time>2026-04-06T08:53:36Z</time></trkpt><trkpt lat="44.95897121453992" lon="9.985866442488936"><ele>46.0</ele><time>2026-04-06T08:53:37Z</time></trkpt><trkpt lat="44.9590488616654" lon="9.985930152661894"><ele>46.0</ele><time>2026-04-06T08:53:38Z</time></trkpt><trkpt lat="44.959125035071295" lon="9.985990357870635"><ele>46.0</ele><time>2026-04-06T08:53:39Z</time></trkpt><trkpt lat="44.959201756852245" lon="9.986052462048038"><ele>46.0</ele><time>2026-04-06T08:53:40Z</time></trkpt><trkpt lat="44.95927606195881" lon="9.98611271287158"><ele>46.0</ele><time>2026-04-06T08:53:41Z</time></trkpt><trkpt lat="44.95935184904218" lon="9.986171716450933"><ele>46.0</ele><time>2026-04-06T08:53:42Z</time></trkpt><trkpt lat="44.95942843483001" lon="9.986234677154172"><ele>45.833333333333336</ele><time>2026-04-06T08:53:43Z</time></trkpt><trkpt lat="44.95950426002037" lon="9.986295097626245"><ele>45.66666666666667</ele><time>2026-04-06T08:53:44Z</time></trkpt><trkpt lat="44.95958157303067" lon="9.98636028940084"><ele>45.5</ele><time>2026-04-06T08:53:45Z</time></trkpt><trkpt lat="44.959655704076255" lon="9.986421542145477"><ele>45.333333333333336</ele><time>2026-04-06T08:53:46Z</time></trkpt><trkpt lat="44.95973286640561" lon="9.986481464965717"><ele>45.166666666666664</ele><time>2026-04-06T08:53:47Z</time></trkpt><trkpt lat="44.959809450626004" lon="9.986542307822205"><ele>45.0</ele><time>2026-04-06T08:53:48Z</time></trkpt><trkpt lat="44.959886893615355" lon="9.98660227343693"><ele>45.0</ele><time>2026-04-06T08:53:49Z</time></trkpt><trkpt lat="44.959964574528435" lon="9.986667075539586"><ele>45.0</ele><time>2026-04-06T08:53:50Z</time></trkpt><trkpt lat="44.96004089478792" lon="9.986730817927494"><ele>45.0</ele><time>2026-04-06T08:53:51Z</time></trkpt><trkpt lat="44.9601183040904" lon="9.98679383419882"><ele>45.0</ele><time>2026-04-06T08:53:52Z</time></trkpt><trkpt lat="44.96019610516906" lon="9.98685585869715"><ele>45.0</ele><time>2026-04-06T08:53:53Z</time></trkpt><trkpt lat="44.96027223782752" lon="9.986919345171403"><ele>45.0</ele><time>2026-04-06T08:53:54Z</time></trkpt><trkpt lat="44.96034782097627" lon="9.986980615848367"><ele>44.666666666666664</ele><time>2026-04-06T08:53:55Z</time></trkpt><trkpt lat="44.96042484156227" lon="9.98704331865477"><ele>44.333333333333336</ele><time>2026-04-06T08:53:56Z</time></trkpt><trkpt lat="44.96050225405933" lon="9.98710568407554"><ele>44.0</ele><time>2026-04-06T08:53:57Z</time></trkpt><trkpt lat="44.9605788809447" lon="9.987168023309207"><ele>43.66666666666667</ele><time>2026-04-06T08:53:58Z</time></trkpt><trkpt lat="44.9606561697569" lon="9.98723138997547"><ele>43.333333333333336</ele><time>2026-04-06T08:53:58.999Z</time></trkpt><trkpt lat="44.96073266220218" lon="9.987296403531245"><ele>43.0</ele><time>2026-04-06T08:53:59.999Z</time></trkpt><trkpt lat="44.960808197341294" lon="9.987359704363374"><ele>42.833333333333336</ele><time>2026-04-06T08:54:00.999Z</time></trkpt><trkpt lat="44.960885357750584" lon="9.98742381920563"><ele>42.66666666666667</ele><time>2026-04-06T08:54:01.999Z</time></trkpt><trkpt lat="44.96096328837245" lon="9.987485164133222"><ele>42.5</ele><time>2026-04-06T08:54:02.999Z</time></trkpt><trkpt lat="44.961040532074136" lon="9.98754868696312"><ele>42.333333333333336</ele><time>2026-04-06T08:54:03.999Z</time></trkpt><trkpt lat="44.961116072703966" lon="9.987615371380699"><ele>42.166666666666664</ele><time>2026-04-06T08:54:04.999Z</time></trkpt><trkpt lat="44.961192395371725" lon="9.987681918277305"><ele>42.0</ele><time>2026-04-06T08:54:05.999Z</time></trkpt><trkpt lat="44.961269830077725" lon="9.98774889376037"><ele>42.5</ele><time>2026-04-06T08:54:06.999Z</time></trkpt><trkpt lat="44.96134722822163" lon="9.98781296352169"><ele>43.0</ele><time>2026-04-06T08:54:07.999Z</time></trkpt><trkpt lat="44.961422163659364" lon="9.987876151037037"><ele>43.5</ele><time>2026-04-06T08:54:08.999Z</time></trkpt><trkpt lat="44.96149981349178" lon="9.987939641850804"><ele>44.0</ele><time>2026-04-06T08:54:09.999Z</time></trkpt><trkpt lat="44.96157645114881" lon="9.988002202398889"><ele>44.5</ele><time>2026-04-06T08:54:10.999Z</time></trkpt><trkpt lat="44.961653882714884" lon="9.9880670500363"><ele>45.0</ele><time>2026-04-06T08:54:11.999Z</time></trkpt><trkpt lat="44.96173080330187" lon="9.988129602203687"><ele>45.0</ele><time>2026-04-06T08:54:12.999Z</time></trkpt><trkpt lat="44.96180806703395" lon="9.988192995150442"><ele>45.0</ele><time>2026-04-06T08:54:13.999Z</time></trkpt><trkpt lat="44.96188572530975" lon="9.98825474732793"><ele>45.0</ele><time>2026-04-06T08:54:14.999Z</time></trkpt><trkpt lat="44.96196273162853" lon="9.988315677481493"><ele>45.0</ele><time>2026-04-06T08:54:15.999Z</time></trkpt><trkpt lat="44.96203804686868" lon="9.988377437515139"><ele>45.0</ele><time>2026-04-06T08:54:16.999Z</time></trkpt><trkpt lat="44.96211488763933" lon="9.988438670273162"><ele>45.0</ele><time>2026-04-06T08:54:17.999Z</time></trkpt><trkpt lat="44.96219140371193" lon="9.98850034767784"><ele>45.0</ele><time>2026-04-06T08:54:18.999Z</time></trkpt><trkpt lat="44.96226864122158" lon="9.988563006766308"><ele>45.0</ele><time>2026-04-06T08:54:19.999Z</time></trkpt><trkpt lat="44.96234595485532" lon="9.988623589874598"><ele>45.0</ele><time>2026-04-06T08:54:20.999Z</time></trkpt><trkpt lat="44.96242202012748" lon="9.988687948552238"><ele>45.0</ele><time>2026-04-06T08:54:21.999Z</time></trkpt><trkpt lat="44.96249706588043" lon="9.988752492337799"><ele>45.0</ele><time>2026-04-06T08:54:22.999Z</time></trkpt><trkpt lat="44.96257390418541" lon="9.988816605565196"><ele>45.0</ele><time>2026-04-06T08:54:23.999Z</time></trkpt><trkpt lat="44.962650920582526" lon="9.988878258543666"><ele>45.0</ele><time>2026-04-06T08:54:24.999Z</time></trkpt><trkpt lat="44.962726833078506" lon="9.988939858862034"><ele>45.0</ele><time>2026-04-06T08:54:25.999Z</time></trkpt><trkpt lat="44.96280422497914" lon="9.989000416410029"><ele>45.0</ele><time>2026-04-06T08:54:26.999Z</time></trkpt><trkpt lat="44.962880167543275" lon="9.989062047945685"><ele>45.0</ele><time>2026-04-06T08:54:27.999Z</time></trkpt><trkpt lat="44.96295632507193" lon="9.989127667991255"><ele>45.0</ele><time>2026-04-06T08:54:28.999Z</time></trkpt><trkpt lat="44.96303344327316" lon="9.989192733166531"><ele>45.0</ele><time>2026-04-06T08:54:29.999Z</time></trkpt><trkpt lat="44.963109756553465" lon="9.989257680752429"><ele>45.333333333333336</ele><time>2026-04-06T08:54:30.999Z</time></trkpt><trkpt lat="44.96318637138613" lon="9.989321190483027"><ele>45.666666666666664</ele><time>2026-04-06T08:54:31.999Z</time></trkpt><trkpt lat="44.96326432729307" lon="9.989383557299568"><ele>46.0</ele><time>2026-04-06T08:54:32.999Z</time></trkpt><trkpt lat="44.96334244061049" lon="9.989446604934246"><ele>46.33333333333333</ele><time>2026-04-06T08:54:33.999Z</time></trkpt><trkpt lat="44.96341973492044" lon="9.989507304705787"><ele>46.666666666666664</ele><time>2026-04-06T08:54:34.999Z</time></trkpt><trkpt lat="44.96349714456003" lon="9.989572377101505"><ele>47.0</ele><time>2026-04-06T08:54:35.999Z</time></trkpt><trkpt lat="44.96357443701778" lon="9.989634296252225"><ele>46.33333333333333</ele><time>2026-04-06T08:54:36.999Z</time></trkpt><trkpt lat="44.96365263842691" lon="9.989697446269014"><ele>45.666666666666664</ele><time>2026-04-06T08:54:37.999Z</time></trkpt><trkpt lat="44.96372820956895" lon="9.989756512072503"><ele>45.0</ele><time>2026-04-06T08:54:38.999Z</time></trkpt><trkpt lat="44.963806689559824" lon="9.989816999741787"><ele>44.333333333333336</ele><time>2026-04-06T08:54:39.999Z</time></trkpt><trkpt lat="44.9638840304489" lon="9.989877252528744"><ele>43.66666666666667</ele><time>2026-04-06T08:54:40.999Z</time></trkpt><trkpt lat="44.963962251905926" lon="9.989937770244916"><ele>43.0</ele><time>2026-04-06T08:54:41.999Z</time></trkpt><trkpt lat="44.96403883071597" lon="9.989999385292075"><ele>43.0</ele><time>2026-04-06T08:54:42.999Z</time></trkpt><trkpt lat="44.96411519916931" lon="9.990065212475555"><ele>43.0</ele><time>2026-04-06T08:54:43.999Z</time></trkpt><trkpt lat="44.9641897762981" lon="9.990130237562266"><ele>43.0</ele><time>2026-04-06T08:54:44.999Z</time></trkpt><trkpt lat="44.96426407075187" lon="9.990192450193407"><ele>43.0</ele><time>2026-04-06T08:54:45.999Z</time></trkpt><trkpt lat="44.96433698491633" lon="9.990252068872644"><ele>43.0</ele><time>2026-04-06T08:54:46.999Z</time></trkpt><trkpt lat="44.964409254688334" lon="9.990310612460085"><ele>43.0</ele><time>2026-04-06T08:54:47.999Z</time></trkpt><trkpt lat="44.96448234986907" lon="9.990371013263323"><ele>43.16666666666667</ele><time>2026-04-06T08:54:48.999Z</time></trkpt><trkpt lat="44.96456904955744" lon="9.990381840707068"><ele>43.333333333333336</ele><time>2026-04-06T08:54:49.999Z</time></trkpt><trkpt lat="44.96464940838117" lon="9.990344347724548"><ele>43.5</ele><time>2026-04-06T08:54:50.999Z</time></trkpt><trkpt lat="44.9647026339491" lon="9.990222175125238"><ele>43.666666666666664</ele><time>2026-04-06T08:54:51.998Z</time></trkpt><trkpt lat="44.96473675985796" lon="9.990120595748735"><ele>43.83333333333333</ele><time>2026-04-06T08:54:52.998Z</time></trkpt><trkpt lat="44.964769970910474" lon="9.990025539822138"><ele>44.0</ele><time>2026-04-06T08:54:53.998Z</time></trkpt><trkpt lat="44.96480510255515" lon="9.989928927727444"><ele>44.0</ele><time>2026-04-06T08:54:54.998Z</time></trkpt><trkpt lat="44.96483982903812" lon="9.989829812650251"><ele>44.0</ele><time>2026-04-06T08:54:55.998Z</time></trkpt><trkpt lat="44.96487450469706" lon="9.98973138905604"><ele>44.0</ele><time>2026-04-06T08:54:56.998Z</time></trkpt><trkpt lat="44.96490935052942" lon="9.98963430694727"><ele>44.0</ele><time>2026-04-06T08:54:57.998Z</time></trkpt><trkpt lat="44.96494383541072" lon="9.989538230452096"><ele>44.0</ele><time>2026-04-06T08:54:58.998Z</time></trkpt><trkpt lat="44.96497846553102" lon="9.989441749349606"><ele>44.0</ele><time>2026-04-06T08:54:59.998Z</time></trkpt><trkpt lat="44.96501319658495" lon="9.989350931717638"><ele>44.166666666666664</ele><time>2026-04-06T08:55:00.998Z</time></trkpt><trkpt lat="44.9650505259494" lon="9.989257721436866"><ele>44.33333333333333</ele><time>2026-04-06T08:55:01.998Z</time></trkpt><trkpt lat="44.965085569834294" lon="9.989160056929586"><ele>44.5</ele><time>2026-04-06T08:55:02.998Z</time></trkpt><trkpt lat="44.96515841758051" lon="9.98911304249731"><ele>44.666666666666664</ele><time>2026-04-06T08:55:03.998Z</time></trkpt><trkpt lat="44.9652318660049" lon="9.98909730296765"><ele>44.833333333333336</ele><time>2026-04-06T08:55:04.998Z</time></trkpt><trkpt lat="44.965311428603435" lon="9.98908379256438"><ele>45.0</ele><time>2026-04-06T08:55:05.998Z</time></trkpt><trkpt lat="44.96538847017758" lon="9.989049733442364"><ele>45.166666666666664</ele><time>2026-04-06T08:55:06.998Z</time></trkpt><trkpt lat="44.96546942549178" lon="9.98903927094318"><ele>45.333333333333336</ele><time>2026-04-06T08:55:07.998Z</time></trkpt><trkpt lat="44.965551856608286" lon="9.989021040478326"><ele>45.5</ele><time>2026-04-06T08:55:08.998Z</time></trkpt><trkpt lat="44.9656326769464" lon="9.988996609213363"><ele>45.66666666666667</ele><time>2026-04-06T08:55:09.998Z</time></trkpt><trkpt lat="44.965715916689796" lon="9.988974793666518"><ele>45.833333333333336</ele><time>2026-04-06T08:55:10.998Z</time></trkpt><trkpt lat="44.965797465132425" lon="9.988954177443203"><ele>46.0</ele><time>2026-04-06T08:55:11.998Z</time></trkpt><trkpt lat="44.9658810514077" lon="9.988933929898339"><ele>46.0</ele><time>2026-04-06T08:55:12.998Z</time></trkpt><trkpt lat="44.96596487274115" lon="9.988913868943635"><ele>46.0</ele><time>2026-04-06T08:55:13.998Z</time></trkpt><trkpt lat="44.96604912038616" lon="9.988893814877635"><ele>46.0</ele><time>2026-04-06T08:55:14.998Z</time></trkpt><trkpt lat="44.9661316803466" lon="9.988871735095133"><ele>46.0</ele><time>2026-04-06T08:55:15.998Z</time></trkpt><trkpt lat="44.96621764489714" lon="9.988857402509845"><ele>46.0</ele><time>2026-04-06T08:55:16.998Z</time></trkpt><trkpt lat="44.96630407000032" lon="9.988840567538796"><ele>46.0</ele><time>2026-04-06T08:55:17.998Z</time></trkpt><trkpt lat="44.96638868357796" lon="9.98882174950149"><ele>46.0</ele><time>2026-04-06T08:55:18.998Z</time></trkpt><trkpt lat="44.966471730517625" lon="9.98879991373565"><ele>46.0</ele><time>2026-04-06T08:55:19.998Z</time></trkpt><trkpt lat="44.966556405712154" lon="9.988778366792802"><ele>46.0</ele><time>2026-04-06T08:55:20.998Z</time></trkpt><trkpt lat="44.96664111592181" lon="9.988758075024936"><ele>46.0</ele><time>2026-04-06T08:55:21.998Z</time></trkpt><trkpt lat="44.96672586038275" lon="9.988739803006366"><ele>46.0</ele><time>2026-04-06T08:55:22.998Z</time></trkpt><trkpt lat="44.966812260724694" lon="9.988719210978525"><ele>46.0</ele><time>2026-04-06T08:55:23.998Z</time></trkpt><trkpt lat="44.96689604880617" lon="9.98869904542351"><ele>46.0</ele><time>2026-04-06T08:55:24.998Z</time></trkpt><trkpt lat="44.96697897955553" lon="9.98867713359232"><ele>46.0</ele><time>2026-04-06T08:55:25.998Z</time></trkpt><trkpt lat="44.96706296679349" lon="9.988656941651922"><ele>46.0</ele><time>2026-04-06T08:55:26.998Z</time></trkpt><trkpt lat="44.967144953017694" lon="9.988633698586984"><ele>46.0</ele><time>2026-04-06T08:55:28Z</time></trkpt><trkpt lat="44.96722849953664" lon="9.98861319785095"><ele>46.0</ele><time>2026-04-06T08:55:29Z</time></trkpt><trkpt lat="44.96731201159317" lon="9.988591301115349"><ele>46.0</ele><time>2026-04-06T08:55:30Z</time></trkpt><trkpt lat="44.96739626788074" lon="9.988570434932512"><ele>46.0</ele><time>2026-04-06T08:55:31Z</time></trkpt><trkpt lat="44.96747998058985" lon="9.9885500305959"><ele>46.0</ele><time>2026-04-06T08:55:32Z</time></trkpt><trkpt lat="44.96756360351769" lon="9.988527099305214"><ele>46.0</ele><time>2026-04-06T08:55:33Z</time></trkpt><trkpt lat="44.96764821154812" lon="9.988505889516"><ele>46.0</ele><time>2026-04-06T08:55:34Z</time></trkpt><trkpt lat="44.96773280611535" lon="9.988485231129289"><ele>46.0</ele><time>2026-04-06T08:55:35Z</time></trkpt><trkpt lat="44.967817872886215" lon="9.988467905674183"><ele>46.0</ele><time>2026-04-06T08:55:36Z</time></trkpt><trkpt lat="44.96790245407654" lon="9.988448415758503"><ele>46.0</ele><time>2026-04-06T08:55:37Z</time></trkpt><trkpt lat="44.96798550205907" lon="9.98842593096796"><ele>46.0</ele><time>2026-04-06T08:55:38Z</time></trkpt><trkpt lat="44.96807022305903" lon="9.98840552164399"><ele>46.0</ele><time>2026-04-06T08:55:39Z</time></trkpt><trkpt lat="44.96815760881419" lon="9.98838931764908"><ele>46.0</ele><time>2026-04-06T08:55:40Z</time></trkpt><trkpt lat="44.96824216901211" lon="9.988367006540768"><ele>46.0</ele><time>2026-04-06T08:55:41Z</time></trkpt><trkpt lat="44.96832810406661" lon="9.988345039692753"><ele>46.0</ele><time>2026-04-06T08:55:42Z</time></trkpt><trkpt lat="44.96841115765546" lon="9.988323663346808"><ele>46.0</ele><time>2026-04-06T08:55:43Z</time></trkpt><trkpt lat="44.968496070245315" lon="9.988303920488995"><ele>46.0</ele><time>2026-04-06T08:55:44Z</time></trkpt><trkpt lat="44.968581452064115" lon="9.988282522825225"><ele>46.0</ele><time>2026-04-06T08:55:45Z</time></trkpt><trkpt lat="44.96866634131221" lon="9.988262636983366"><ele>46.0</ele><time>2026-04-06T08:55:46Z</time></trkpt><trkpt lat="44.96875072408501" lon="9.988243134458692"><ele>46.0</ele><time>2026-04-06T08:55:47Z</time></trkpt><trkpt lat="44.968833370357416" lon="9.988219690699422"><ele>46.0</ele><time>2026-04-06T08:55:48Z</time></trkpt><trkpt lat="44.96891931413443" lon="9.988197147351416"><ele>46.0</ele><time>2026-04-06T08:55:49Z</time></trkpt><trkpt lat="44.969004203299406" lon="9.988176753434372"><ele>46.0</ele><time>2026-04-06T08:55:50Z</time></trkpt><trkpt lat="44.969087714457615" lon="9.988154026809996"><ele>46.0</ele><time>2026-04-06T08:55:51Z</time></trkpt><trkpt lat="44.96917217878332" lon="9.988131421100672"><ele>46.0</ele><time>2026-04-06T08:55:52Z</time></trkpt><trkpt lat="44.969256294812254" lon="9.988110227496266"><ele>46.0</ele><time>2026-04-06T08:55:53Z</time></trkpt><trkpt lat="44.96934158129941" lon="9.988088230084069"><ele>46.0</ele><time>2026-04-06T08:55:54Z</time></trkpt><trkpt lat="44.96942822076576" lon="9.988070266791336"><ele>46.0</ele><time>2026-04-06T08:55:55Z</time></trkpt><trkpt lat="44.96951553759884" lon="9.98805849004407"><ele>46.0</ele><time>2026-04-06T08:55:56Z</time></trkpt><trkpt lat="44.969601571624835" lon="9.98805253870905"><ele>46.0</ele><time>2026-04-06T08:55:57Z</time></trkpt><trkpt lat="44.96968908698777" lon="9.988047036190924"><ele>46.0</ele><time>2026-04-06T08:55:58Z</time></trkpt><trkpt lat="44.96977851417644" lon="9.988050870887715"><ele>46.0</ele><time>2026-04-06T08:55:59Z</time></trkpt><trkpt lat="44.96986588491382" lon="9.988058367490437"><ele>46.0</ele><time>2026-04-06T08:56:00Z</time></trkpt><trkpt lat="44.969953856038146" lon="9.988075049982156"><ele>45.66666666666667</ele><time>2026-04-06T08:56:01Z</time></trkpt><trkpt lat="44.97003939344926" lon="9.988099856649145"><ele>45.333333333333336</ele><time>2026-04-06T08:56:02Z</time></trkpt><trkpt lat="44.97012755271139" lon="9.988122653027997"><ele>45.0</ele><time>2026-04-06T08:56:03Z</time></trkpt><trkpt lat="44.97021351120858" lon="9.98814594831076"><ele>44.666666666666664</ele><time>2026-04-06T08:56:03.999Z</time></trkpt><trkpt lat="44.97030181639102" lon="9.98817113743363"><ele>44.33333333333333</ele><time>2026-04-06T08:56:04.999Z</time></trkpt><trkpt lat="44.970389466955226" lon="9.988199783751485"><ele>44.0</ele><time>2026-04-06T08:56:05.999Z</time></trkpt><trkpt lat="44.97047617263181" lon="9.988228070370166"><ele>44.0</ele><time>2026-04-06T08:56:06.999Z</time></trkpt><trkpt lat="44.97056142007721" lon="9.988259929262227"><ele>44.0</ele><time>2026-04-06T08:56:07.999Z</time></trkpt><trkpt lat="44.9706469711901" lon="9.988305347497363"><ele>44.0</ele><time>2026-04-06T08:56:08.999Z</time></trkpt><trkpt lat="44.97072764650332" lon="9.98835981461984"><ele>44.0</ele><time>2026-04-06T08:56:09.999Z</time></trkpt><trkpt lat="44.970805959780286" lon="9.988423618501175"><ele>44.0</ele><time>2026-04-06T08:56:10.999Z</time></trkpt><trkpt lat="44.9708833833268" lon="9.988490739068432"><ele>44.0</ele><time>2026-04-06T08:56:11.999Z</time></trkpt><trkpt lat="44.970957155841965" lon="9.988555905279306"><ele>44.0</ele><time>2026-04-06T08:56:12.999Z</time></trkpt><trkpt lat="44.97103289302474" lon="9.988623679539824"><ele>44.0</ele><time>2026-04-06T08:56:13.999Z</time></trkpt><trkpt lat="44.97110697592717" lon="9.988691304642607"><ele>44.0</ele><time>2026-04-06T08:56:14.999Z</time></trkpt><trkpt lat="44.971180446254664" lon="9.988763782963481"><ele>44.0</ele><time>2026-04-06T08:56:15.999Z</time></trkpt><trkpt lat="44.971253763620616" lon="9.988834148080272"><ele>44.0</ele><time>2026-04-06T08:56:16.999Z</time></trkpt><trkpt lat="44.9713284370252" lon="9.988902440481239"><ele>44.0</ele><time>2026-04-06T08:56:17.999Z</time></trkpt><trkpt lat="44.97140410113217" lon="9.988965583847826"><ele>44.0</ele><time>2026-04-06T08:56:18.999Z</time></trkpt><trkpt lat="44.9714791894478" lon="9.98903295527111"><ele>44.0</ele><time>2026-04-06T08:56:19.999Z</time></trkpt><trkpt lat="44.971554822132795" lon="9.989102736750116"><ele>44.0</ele><time>2026-04-06T08:56:20.999Z</time></trkpt><trkpt lat="44.97162925782081" lon="9.989171017404571"><ele>44.0</ele><time>2026-04-06T08:56:21.999Z</time></trkpt><trkpt lat="44.97170349895132" lon="9.989239133990772"><ele>44.0</ele><time>2026-04-06T08:56:22.999Z</time></trkpt><trkpt lat="44.97177756204012" lon="9.989309072297837"><ele>44.166666666666664</ele><time>2026-04-06T08:56:23.999Z</time></trkpt><trkpt lat="44.971852455633346" lon="9.989374803608852"><ele>44.33333333333333</ele><time>2026-04-06T08:56:24.999Z</time></trkpt><trkpt lat="44.97192738657899" lon="9.989442633494754"><ele>44.5</ele><time>2026-04-06T08:56:25.999Z</time></trkpt><trkpt lat="44.97200321921106" lon="9.989510921392611"><ele>44.666666666666664</ele><time>2026-04-06T08:56:26.999Z</time></trkpt><trkpt lat="44.97207789395749" lon="9.989576670081076"><ele>44.833333333333336</ele><time>2026-04-06T08:56:27.999Z</time></trkpt><trkpt lat="44.97215343740235" lon="9.989645026394497"><ele>45.0</ele><time>2026-04-06T08:56:28.999Z</time></trkpt><trkpt lat="44.972227770912106" lon="9.989709266955114"><ele>45.0</ele><time>2026-04-06T08:56:29.999Z</time></trkpt><trkpt lat="44.97230356659964" lon="9.98977580511327"><ele>45.0</ele><time>2026-04-06T08:56:30.999Z</time></trkpt><trkpt lat="44.972378033906395" lon="9.989838390092885"><ele>45.0</ele><time>2026-04-06T08:56:31.999Z</time></trkpt><trkpt lat="44.97244999937982" lon="9.989905314990537"><ele>45.0</ele><time>2026-04-06T08:56:32.999Z</time></trkpt><trkpt lat="44.97252329163297" lon="9.989973468108682"><ele>45.0</ele><time>2026-04-06T08:56:33.999Z</time></trkpt><trkpt lat="44.9725993166903" lon="9.990037160492939"><ele>45.0</ele><time>2026-04-06T08:56:34.999Z</time></trkpt><trkpt lat="44.97267767118711" lon="9.990097970171686"><ele>44.5</ele><time>2026-04-06T08:56:35.999Z</time></trkpt><trkpt lat="44.972757511041095" lon="9.990147618157172"><ele>44.0</ele><time>2026-04-06T08:56:36.999Z</time></trkpt><trkpt lat="44.972840879774466" lon="9.990194400460322"><ele>43.5</ele><time>2026-04-06T08:56:37.999Z</time></trkpt><trkpt lat="44.9729253584651" lon="9.990235789905089"><ele>43.0</ele><time>2026-04-06T08:56:38.999Z</time></trkpt><trkpt lat="44.97300894815506" lon="9.99027744781879"><ele>42.5</ele><time>2026-04-06T08:56:39.999Z</time></trkpt><trkpt lat="44.97309232901955" lon="9.990320106128026"><ele>42.0</ele><time>2026-04-06T08:56:40.999Z</time></trkpt><trkpt lat="44.973175558295885" lon="9.990359671337039"><ele>42.0</ele><time>2026-04-06T08:56:41.999Z</time></trkpt><trkpt lat="44.97325933392595" lon="9.99039891676274"><ele>42.0</ele><time>2026-04-06T08:56:42.999Z</time></trkpt><trkpt lat="44.9733458143008" lon="9.990438904188453"><ele>42.0</ele><time>2026-04-06T08:56:43.999Z</time></trkpt><trkpt lat="44.97342943964144" lon="9.9904773527499"><ele>42.0</ele><time>2026-04-06T08:56:44.999Z</time></trkpt><trkpt lat="44.973512488540685" lon="9.990516990734976"><ele>42.0</ele><time>2026-04-06T08:56:45.999Z</time></trkpt><trkpt lat="44.97359437096466" lon="9.99055647352177"><ele>42.0</ele><time>2026-04-06T08:56:46.999Z</time></trkpt><trkpt lat="44.97367818275529" lon="9.99059897108775"><ele>41.833333333333336</ele><time>2026-04-06T08:56:47.999Z</time></trkpt><trkpt lat="44.973759337463676" lon="9.99064054186718"><ele>41.666666666666664</ele><time>2026-04-06T08:56:48.999Z</time></trkpt><trkpt lat="44.97384149358192" lon="9.990682395078128"><ele>41.5</ele><time>2026-04-06T08:56:49.999Z</time></trkpt><trkpt lat="44.97392390261418" lon="9.990723974396058"><ele>41.33333333333333</ele><time>2026-04-06T08:56:50.999Z</time></trkpt><trkpt lat="44.97400630255992" lon="9.990767721131027"><ele>41.166666666666664</ele><time>2026-04-06T08:56:51.999Z</time></trkpt><trkpt lat="44.97408858365739" lon="9.990811571742976"><ele>41.0</ele><time>2026-04-06T08:56:52.999Z</time></trkpt><trkpt lat="44.97417026315404" lon="9.990857256843631"><ele>41.166666666666664</ele><time>2026-04-06T08:56:53.999Z</time></trkpt><trkpt lat="44.97425145468283" lon="9.990899881571519"><ele>41.33333333333333</ele><time>2026-04-06T08:56:54.999Z</time></trkpt><trkpt lat="44.97433467878723" lon="9.990943406650604"><ele>41.5</ele><time>2026-04-06T08:56:55.999Z</time></trkpt><trkpt lat="44.97441598181513" lon="9.990984891095273"><ele>41.666666666666664</ele><time>2026-04-06T08:56:56.998Z</time></trkpt><trkpt lat="44.97449774482635" lon="9.991029148024191"><ele>41.833333333333336</ele><time>2026-04-06T08:56:57.998Z</time></trkpt><trkpt lat="44.974579132466594" lon="9.991077627396626"><ele>42.0</ele><time>2026-04-06T08:56:58.998Z</time></trkpt><trkpt lat="44.974661202230706" lon="9.9911231958996"><ele>42.0</ele><time>2026-04-06T08:56:59.998Z</time></trkpt><trkpt lat="44.97474262672381" lon="9.991173950982136"><ele>42.0</ele><time>2026-04-06T08:57:00.998Z</time></trkpt><trkpt lat="44.974822027509475" lon="9.99122399042572"><ele>42.0</ele><time>2026-04-06T08:57:01.998Z</time></trkpt><trkpt lat="44.97490244550529" lon="9.99127319406339"><ele>42.0</ele><time>2026-04-06T08:57:02.998Z</time></trkpt><trkpt lat="44.974981770137155" lon="9.991323290091021"><ele>42.0</ele><time>2026-04-06T08:57:03.998Z</time></trkpt><trkpt lat="44.97506525654991" lon="9.99137350215069"><ele>42.0</ele><time>2026-04-06T08:57:04.998Z</time></trkpt><trkpt lat="44.97514497090616" lon="9.991427625766278"><ele>42.0</ele><time>2026-04-06T08:57:05.998Z</time></trkpt><trkpt lat="44.97522361225211" lon="9.991488650438935"><ele>42.0</ele><time>2026-04-06T08:57:06.998Z</time></trkpt><trkpt lat="44.975302119763306" lon="9.991546007047264"><ele>42.0</ele><time>2026-04-06T08:57:07.998Z</time></trkpt><trkpt lat="44.97538236971737" lon="9.991597981096241"><ele>42.0</ele><time>2026-04-06T08:57:08.998Z</time></trkpt><trkpt lat="44.97546445060382" lon="9.991640924594172"><ele>42.0</ele><time>2026-04-06T08:57:09.998Z</time></trkpt><trkpt lat="44.97554382069969" lon="9.991695234618065"><ele>42.0</ele><time>2026-04-06T08:57:10.998Z</time></trkpt><trkpt lat="44.97562351492956" lon="9.991753809780885"><ele>41.833333333333336</ele><time>2026-04-06T08:57:11.998Z</time></trkpt><trkpt lat="44.975702881555634" lon="9.991807922464169"><ele>41.666666666666664</ele><time>2026-04-06T08:57:12.998Z</time></trkpt><trkpt lat="44.97578371436993" lon="9.991859646039476"><ele>41.5</ele><time>2026-04-06T08:57:13.998Z</time></trkpt><trkpt lat="44.975863670348154" lon="9.991908814804233"><ele>41.33333333333333</ele><time>2026-04-06T08:57:14.998Z</time></trkpt><trkpt lat="44.975943745419194" lon="9.991962525429352"><ele>41.166666666666664</ele><time>2026-04-06T08:57:15.998Z</time></trkpt><trkpt lat="44.97602470992197" lon="9.992014362980056"><ele>41.0</ele><time>2026-04-06T08:57:16.998Z</time></trkpt><trkpt lat="44.97610455268827" lon="9.992069070353375"><ele>41.5</ele><time>2026-04-06T08:57:17.998Z</time></trkpt><trkpt lat="44.976184405465595" lon="9.99211975016292"><ele>42.0</ele><time>2026-04-06T08:57:18.998Z</time></trkpt><trkpt lat="44.976266256134124" lon="9.992169158038553"><ele>42.5</ele><time>2026-04-06T08:57:19.998Z</time></trkpt><trkpt lat="44.976345563875924" lon="9.99222673724479"><ele>43.0</ele><time>2026-04-06T08:57:20.998Z</time></trkpt><trkpt lat="44.976426575032626" lon="9.992275940647279"><ele>43.5</ele><time>2026-04-06T08:57:21.998Z</time></trkpt><trkpt lat="44.97651203927246" lon="9.99231994394495"><ele>44.0</ele><time>2026-04-06T08:57:22.998Z</time></trkpt><trkpt lat="44.976596664483914" lon="9.992355610251828"><ele>44.0</ele><time>2026-04-06T08:57:23.998Z</time></trkpt><trkpt lat="44.9766809206336" lon="9.992395358622339"><ele>44.0</ele><time>2026-04-06T08:57:24.998Z</time></trkpt><trkpt lat="44.97676570871725" lon="9.992433343986178"><ele>44.0</ele><time>2026-04-06T08:57:25.998Z</time></trkpt><trkpt lat="44.97684889570479" lon="9.992474699090224"><ele>44.0</ele><time>2026-04-06T08:57:26.998Z</time></trkpt><trkpt lat="44.976932902425276" lon="9.99251654903983"><ele>44.0</ele><time>2026-04-06T08:57:27.998Z</time></trkpt><trkpt lat="44.9770170256371" lon="9.992557968133678"><ele>44.0</ele><time>2026-04-06T08:57:28.998Z</time></trkpt><trkpt lat="44.97709988877553" lon="9.99259410058389"><ele>43.83333333333333</ele><time>2026-04-06T08:57:29.998Z</time></trkpt><trkpt lat="44.97718444485783" lon="9.992633714413124"><ele>43.666666666666664</ele><time>2026-04-06T08:57:30.998Z</time></trkpt><trkpt lat="44.97726737612085" lon="9.992672372438513"><ele>43.5</ele><time>2026-04-06T08:57:31.998Z</time></trkpt><trkpt lat="44.97735178871821" lon="9.992713382039266"><ele>43.333333333333336</ele><time>2026-04-06T08:57:32.998Z</time></trkpt><trkpt lat="44.97743486828295" lon="9.992751839526793"><ele>43.16666666666667</ele><time>2026-04-06T08:57:34Z</time></trkpt><trkpt lat="44.977519208734314" lon="9.992789586365555"><ele>43.0</ele><time>2026-04-06T08:57:35Z</time></trkpt><trkpt lat="44.97760171463913" lon="9.992825429053951"><ele>42.8</ele><time>2026-04-06T08:57:36Z</time></trkpt><trkpt lat="44.97766822285385" lon="9.992906346251933"><ele>42.599999999999994</ele><time>2026-04-06T08:57:37Z</time></trkpt><trkpt lat="44.97777271996876" lon="9.99289004327741"><ele>42.400000000000006</ele><time>2026-04-06T08:57:38Z</time></trkpt><trkpt lat="44.97785653736261" lon="9.992914153023085"><ele>42.2</ele><time>2026-04-06T08:57:39Z</time></trkpt><trkpt lat="44.97794301070208" lon="9.992939318315953"><ele>42.0</ele><time>2026-04-06T08:57:40Z</time></trkpt><trkpt lat="44.978026274407476" lon="9.992974961193186"><ele>42.0</ele><time>2026-04-06T08:57:41Z</time></trkpt><trkpt lat="44.97810486347529" lon="9.993017297604764"><ele>42.0</ele><time>2026-04-06T08:57:42Z</time></trkpt><trkpt lat="44.978186498285346" lon="9.993064461072297"><ele>42.0</ele><time>2026-04-06T08:57:43Z</time></trkpt><trkpt lat="44.9782658296644" lon="9.993113288719217"><ele>42.0</ele><time>2026-04-06T08:57:44Z</time></trkpt><trkpt lat="44.97834519545472" lon="9.993159245567563"><ele>42.0</ele><time>2026-04-06T08:57:45Z</time></trkpt><trkpt lat="44.97842249283257" lon="9.993206400861004"><ele>42.0</ele><time>2026-04-06T08:57:46Z</time></trkpt><trkpt lat="44.978503516032326" lon="9.993252230547107"><ele>42.166666666666664</ele><time>2026-04-06T08:57:47Z</time></trkpt><trkpt lat="44.97858344162693" lon="9.993301982278396"><ele>42.333333333333336</ele><time>2026-04-06T08:57:48Z</time></trkpt><trkpt lat="44.97866239611289" lon="9.993351754917448"><ele>42.5</ele><time>2026-04-06T08:57:49Z</time></trkpt><trkpt lat="44.978741455681" lon="9.993399472821922"><ele>42.66666666666667</ele><time>2026-04-06T08:57:50Z</time></trkpt><trkpt lat="44.97882139412523" lon="9.993447415957492"><ele>42.833333333333336</ele><time>2026-04-06T08:57:51Z</time></trkpt><trkpt lat="44.978902370049845" lon="9.993494928757372"><ele>43.0</ele><time>2026-04-06T08:57:52Z</time></trkpt><trkpt lat="44.978982308500676" lon="9.993540577389563"><ele>43.0</ele><time>2026-04-06T08:57:53Z</time></trkpt><trkpt lat="44.979062535501235" lon="9.99358438902907"><ele>43.0</ele><time>2026-04-06T08:57:54Z</time></trkpt><trkpt lat="44.979142499990424" lon="9.993631555234785"><ele>43.0</ele><time>2026-04-06T08:57:55Z</time></trkpt><trkpt lat="44.97922269960057" lon="9.9936801796986"><ele>43.0</ele><time>2026-04-06T08:57:56Z</time></trkpt><trkpt lat="44.97930113346836" lon="9.993729162795749"><ele>43.0</ele><time>2026-04-06T08:57:57Z</time></trkpt><trkpt lat="44.97937984666554" lon="9.99377637334838"><ele>43.0</ele><time>2026-04-06T08:57:58Z</time></trkpt><trkpt lat="44.979458000396214" lon="9.993827529454324"><ele>43.0</ele><time>2026-04-06T08:57:59Z</time></trkpt><trkpt lat="44.97953588234453" lon="9.993876412987078"><ele>43.0</ele><time>2026-04-06T08:58:00Z</time></trkpt><trkpt lat="44.979613963328966" lon="9.993922814292157"><ele>43.0</ele><time>2026-04-06T08:58:01Z</time></trkpt><trkpt lat="44.97968851689467" lon="9.993965342329219"><ele>43.0</ele><time>2026-04-06T08:58:02Z</time></trkpt><trkpt lat="44.97976645808915" lon="9.99398990178306"><ele>43.0</ele><time>2026-04-06T08:58:03Z</time></trkpt><trkpt lat="44.979842850248225" lon="9.993964342164793"><ele>43.0</ele><time>2026-04-06T08:58:04Z</time></trkpt><trkpt lat="44.97991539142538" lon="9.99391694235292"><ele>43.0</ele><time>2026-04-06T08:58:05Z</time></trkpt><trkpt lat="44.979962110896516" lon="9.993808121785186"><ele>43.0</ele><time>2026-04-06T08:58:06Z</time></trkpt><trkpt lat="44.97995391865992" lon="9.99365978257396"><ele>43.0</ele><time>2026-04-06T08:58:07Z</time></trkpt><trkpt lat="44.97999115664665" lon="9.99356026527783"><ele>43.0</ele><time>2026-04-06T08:58:07.999Z</time></trkpt><trkpt lat="44.98000655550448" lon="9.993444368434236"><ele>43.0</ele><time>2026-04-06T08:58:08.999Z</time></trkpt><trkpt lat="44.98003624700646" lon="9.99334292335428"><ele>43.0</ele><time>2026-04-06T08:58:09.999Z</time></trkpt><trkpt lat="44.98006809504352" lon="9.993235721069818"><ele>43.0</ele><time>2026-04-06T08:58:10.999Z</time></trkpt><trkpt lat="44.98009831735776" lon="9.993128420602842"><ele>43.0</ele><time>2026-04-06T08:58:11.999Z</time></trkpt><trkpt lat="44.98012917025072" lon="9.993020051389175"><ele>43.0</ele><time>2026-04-06T08:58:12.999Z</time></trkpt><trkpt lat="44.98017525154483" lon="9.992919503452958"><ele>43.0</ele><time>2026-04-06T08:58:13.999Z</time></trkpt><trkpt lat="44.98019076803341" lon="9.992805707850989"><ele>43.0</ele><time>2026-04-06T08:58:14.999Z</time></trkpt><trkpt lat="44.98022241954823" lon="9.992698846504764"><ele>43.0</ele><time>2026-04-06T08:58:15.999Z</time></trkpt><trkpt lat="44.98025496496941" lon="9.99258861218086"><ele>43.333333333333336</ele><time>2026-04-06T08:58:16.999Z</time></trkpt><trkpt lat="44.98028803874253" lon="9.992476884163569"><ele>43.66666666666667</ele><time>2026-04-06T08:58:17.999Z</time></trkpt><trkpt lat="44.9803204520433" lon="9.992364889666563"><ele>44.0</ele><time>2026-04-06T08:58:18.999Z</time></trkpt><trkpt lat="44.9803538962938" lon="9.992254178032628"><ele>44.333333333333336</ele><time>2026-04-06T08:58:19.999Z</time></trkpt><trkpt lat="44.98038734418241" lon="9.99214227672865"><ele>44.666666666666664</ele><time>2026-04-06T08:58:20.999Z</time></trkpt><trkpt lat="44.98041971669544" lon="9.992029557042713"><ele>45.0</ele><time>2026-04-06T08:58:21.999Z</time></trkpt><trkpt lat="44.98045352261225" lon="9.991919232023"><ele>45.0</ele><time>2026-04-06T08:58:22.999Z</time></trkpt><trkpt lat="44.98048777133313" lon="9.991807750859998"><ele>45.0</ele><time>2026-04-06T08:58:23.999Z</time></trkpt><trkpt lat="44.980520930035446" lon="9.991696205074708"><ele>45.0</ele><time>2026-04-06T08:58:24.999Z</time></trkpt><trkpt lat="44.980553661483334" lon="9.991585663128806"><ele>45.0</ele><time>2026-04-06T08:58:25.999Z</time></trkpt><trkpt lat="44.980585813902145" lon="9.99147423331224"><ele>45.0</ele><time>2026-04-06T08:58:26.999Z</time></trkpt><trkpt lat="44.98061857367393" lon="9.991362959846867"><ele>45.0</ele><time>2026-04-06T08:58:27.999Z</time></trkpt><trkpt lat="44.980651372705964" lon="9.991252733729553"><ele>44.833333333333336</ele><time>2026-04-06T08:58:28.999Z</time></trkpt><trkpt lat="44.98068237979753" lon="9.991140827015185"><ele>44.666666666666664</ele><time>2026-04-06T08:58:29.999Z</time></trkpt><trkpt lat="44.980715305270735" lon="9.991029641240905"><ele>44.5</ele><time>2026-04-06T08:58:30.999Z</time></trkpt><trkpt lat="44.98074716593569" lon="9.990919898488388"><ele>44.33333333333333</ele><time>2026-04-06T08:58:31.999Z</time></trkpt><trkpt lat="44.980779566657404" lon="9.990811016564665"><ele>44.166666666666664</ele><time>2026-04-06T08:58:32.999Z</time></trkpt><trkpt lat="44.98081313843216" lon="9.990702237077077"><ele>44.0</ele><time>2026-04-06T08:58:33.999Z</time></trkpt><trkpt lat="44.9808466324714" lon="9.990592831933473"><ele>44.0</ele><time>2026-04-06T08:58:34.999Z</time></trkpt><trkpt lat="44.98087871107795" lon="9.990481729789678"><ele>44.0</ele><time>2026-04-06T08:58:35.999Z</time></trkpt><trkpt lat="44.980909831390335" lon="9.99037181034133"><ele>44.0</ele><time>2026-04-06T08:58:36.999Z</time></trkpt><trkpt lat="44.98094204665444" lon="9.9902605126837"><ele>44.0</ele><time>2026-04-06T08:58:37.999Z</time></trkpt><trkpt lat="44.980974071395046" lon="9.990150969633726"><ele>44.0</ele><time>2026-04-06T08:58:38.999Z</time></trkpt><trkpt lat="44.9810064930391" lon="9.990042378567505"><ele>44.0</ele><time>2026-04-06T08:58:39.999Z</time></trkpt><trkpt lat="44.98103914095003" lon="9.989932708691104"><ele>43.83333333333333</ele><time>2026-04-06T08:58:40.999Z</time></trkpt><trkpt lat="44.98107010343786" lon="9.989823279560314"><ele>43.666666666666664</ele><time>2026-04-06T08:58:41.999Z</time></trkpt><trkpt lat="44.98110174873936" lon="9.989714797981067"><ele>43.5</ele><time>2026-04-06T08:58:42.999Z</time></trkpt><trkpt lat="44.9811348045053" lon="9.98960813759529"><ele>43.333333333333336</ele><time>2026-04-06T08:58:43.999Z</time></trkpt><trkpt lat="44.98116887283049" lon="9.989498871617515"><ele>43.16666666666667</ele><time>2026-04-06T08:58:44.999Z</time></trkpt><trkpt lat="44.98120079229887" lon="9.989391316546474"><ele>43.0</ele><time>2026-04-06T08:58:45.999Z</time></trkpt><trkpt lat="44.98123258515641" lon="9.98928173500757"><ele>42.833333333333336</ele><time>2026-04-06T08:58:46.999Z</time></trkpt><trkpt lat="44.9812651043482" lon="9.989171581343015"><ele>42.66666666666667</ele><time>2026-04-06T08:58:47.999Z</time></trkpt><trkpt lat="44.981297988812365" lon="9.989061123567014"><ele>42.5</ele><time>2026-04-06T08:58:48.999Z</time></trkpt><trkpt lat="44.98133204330166" lon="9.988949383744327"><ele>42.333333333333336</ele><time>2026-04-06T08:58:49.999Z</time></trkpt><trkpt lat="44.98136237824388" lon="9.988838150116747"><ele>42.166666666666664</ele><time>2026-04-06T08:58:50.999Z</time></trkpt><trkpt lat="44.981396357549706" lon="9.988728097090672"><ele>42.0</ele><time>2026-04-06T08:58:51.999Z</time></trkpt><trkpt lat="44.98142995361481" lon="9.988617711793244"><ele>42.0</ele><time>2026-04-06T08:58:52.999Z</time></trkpt><trkpt lat="44.981463337831066" lon="9.988509671891771"><ele>42.0</ele><time>2026-04-06T08:58:53.999Z</time></trkpt><trkpt lat="44.98149766414532" lon="9.98839778883934"><ele>42.0</ele><time>2026-04-06T08:58:54.999Z</time></trkpt><trkpt lat="44.98153006197008" lon="9.988286652924023"><ele>42.0</ele><time>2026-04-06T08:58:55.999Z</time></trkpt><trkpt lat="44.98156359731964" lon="9.988176078835878"><ele>42.0</ele><time>2026-04-06T08:58:56.999Z</time></trkpt><trkpt lat="44.98159503716467" lon="9.988063888635796"><ele>42.0</ele><time>2026-04-06T08:58:57.999Z</time></trkpt><trkpt lat="44.9816243086544" lon="9.98795328830069"><ele>42.333333333333336</ele><time>2026-04-06T08:58:58.999Z</time></trkpt><trkpt lat="44.98165762614993" lon="9.987844803287905"><ele>42.666666666666664</ele><time>2026-04-06T08:58:59.999Z</time></trkpt><trkpt lat="44.98168946936675" lon="9.98773788078625"><ele>43.0</ele><time>2026-04-06T08:59:00.998Z</time></trkpt><trkpt lat="44.98171945325844" lon="9.98763211253021"><ele>43.33333333333333</ele><time>2026-04-06T08:59:01.998Z</time></trkpt><trkpt lat="44.98176925922884" lon="9.987540529826681"><ele>43.666666666666664</ele><time>2026-04-06T08:59:02.998Z</time></trkpt><trkpt lat="44.98182026369416" lon="9.987461657556132"><ele>44.0</ele><time>2026-04-06T08:59:03.998Z</time></trkpt><trkpt lat="44.98188890424398" lon="9.987406283712259"><ele>44.33333333333333</ele><time>2026-04-06T08:59:04.998Z</time></trkpt><trkpt lat="44.98198017981408" lon="9.987428669658206"><ele>44.666666666666664</ele><time>2026-04-06T08:59:05.998Z</time></trkpt><trkpt lat="44.982051151520025" lon="9.987510687574074"><ele>45.0</ele><time>2026-04-06T08:59:06.998Z</time></trkpt><trkpt lat="44.982134994455734" lon="9.987534209028015"><ele>45.333333333333336</ele><time>2026-04-06T08:59:07.998Z</time></trkpt><trkpt lat="44.98221108658144" lon="9.987588457321449"><ele>45.66666666666667</ele><time>2026-04-06T08:59:08.998Z</time></trkpt><trkpt lat="44.982289013262125" lon="9.987635039467717"><ele>46.0</ele><time>2026-04-06T08:59:09.998Z</time></trkpt><trkpt lat="44.98236660990877" lon="9.98768281865783"><ele>46.0</ele><time>2026-04-06T08:59:10.998Z</time></trkpt><trkpt lat="44.982442363973654" lon="9.987725319405312"><ele>46.0</ele><time>2026-04-06T08:59:11.998Z</time></trkpt><trkpt lat="44.98252082252126" lon="9.987759306966831"><ele>46.0</ele><time>2026-04-06T08:59:12.998Z</time></trkpt><trkpt lat="44.98260350026439" lon="9.987763127751725"><ele>46.0</ele><time>2026-04-06T08:59:13.998Z</time></trkpt><trkpt lat="44.982691244554985" lon="9.987754625319988"><ele>46.0</ele><time>2026-04-06T08:59:14.998Z</time></trkpt><trkpt lat="44.98276448176089" lon="9.987663836598792"><ele>46.0</ele><time>2026-04-06T08:59:15.998Z</time></trkpt><trkpt lat="44.98278645322938" lon="9.987518777978211"><ele>46.0</ele><time>2026-04-06T08:59:16.998Z</time></trkpt><trkpt lat="44.98280496390321" lon="9.987397653587783"><ele>46.0</ele><time>2026-04-06T08:59:17.998Z</time></trkpt><trkpt lat="44.98282073364121" lon="9.9872811174521"><ele>46.0</ele><time>2026-04-06T08:59:18.998Z</time></trkpt><trkpt lat="44.98283646810054" lon="9.98716655616654"><ele>46.0</ele><time>2026-04-06T08:59:19.998Z</time></trkpt><trkpt lat="44.98287007545705" lon="9.987056132367986"><ele>46.0</ele><time>2026-04-06T08:59:20.998Z</time></trkpt><trkpt lat="44.982888976911745" lon="9.986942274591014"><ele>46.0</ele><time>2026-04-06T08:59:21.998Z</time></trkpt><trkpt lat="44.982908071071726" lon="9.98682725601051"><ele>46.0</ele><time>2026-04-06T08:59:22.998Z</time></trkpt><trkpt lat="44.98292683627895" lon="9.986714218875708"><ele>46.0</ele><time>2026-04-06T08:59:23.998Z</time></trkpt><trkpt lat="44.98294594689223" lon="9.986599101323435"><ele>46.0</ele><time>2026-04-06T08:59:24.998Z</time></trkpt><trkpt lat="44.98296485998439" lon="9.986484982669028"><ele>46.0</ele><time>2026-04-06T08:59:25.998Z</time></trkpt><trkpt lat="44.982983851049696" lon="9.986370349122579"><ele>46.0</ele><time>2026-04-06T08:59:26.998Z</time></trkpt><trkpt lat="44.98298710790966" lon="9.986249007327817"><ele>46.0</ele><time>2026-04-06T08:59:27.998Z</time></trkpt><trkpt lat="44.983006713678044" lon="9.986135515027549"><ele>45.66666666666667</ele><time>2026-04-06T08:59:28.998Z</time></trkpt><trkpt lat="44.98302593263378" lon="9.986021204199655"><ele>45.333333333333336</ele><time>2026-04-06T08:59:29.998Z</time></trkpt><trkpt lat="44.983044191079564" lon="9.985906168198554"><ele>45.0</ele><time>2026-04-06T08:59:30.998Z</time></trkpt><trkpt lat="44.9830639988871" lon="9.985791069800454"><ele>44.666666666666664</ele><time>2026-04-06T08:59:31.998Z</time></trkpt><trkpt lat="44.983084157050264" lon="9.985676213420675"><ele>44.33333333333333</ele><time>2026-04-06T08:59:32.998Z</time></trkpt><trkpt lat="44.98310290234525" lon="9.985559127361945"><ele>44.0</ele><time>2026-04-06T08:59:33.998Z</time></trkpt><trkpt lat="44.98312145096293" lon="9.98544117420703"><ele>44.0</ele><time>2026-04-06T08:59:34.998Z</time></trkpt><trkpt lat="44.98314015783999" lon="9.985323977251879"><ele>44.0</ele><time>2026-04-06T08:59:35.998Z</time></trkpt><trkpt lat="44.98316014660749" lon="9.98520729787844"><ele>44.0</ele><time>2026-04-06T08:59:36.998Z</time></trkpt><trkpt lat="44.98318094872951" lon="9.985089570476406"><ele>44.0</ele><time>2026-04-06T08:59:37.998Z</time></trkpt><trkpt lat="44.98320145066166" lon="9.984973308216393"><ele>44.0</ele><time>2026-04-06T08:59:38.998Z</time></trkpt><trkpt lat="44.9832203337917" lon="9.984855691824826"><ele>44.0</ele><time>2026-04-06T08:59:40Z</time></trkpt><trkpt lat="44.983241862194404" lon="9.98473725807616"><ele>44.0</ele><time>2026-04-06T08:59:41Z</time></trkpt><trkpt lat="44.98326152756906" lon="9.98461767575649"><ele>44.0</ele><time>2026-04-06T08:59:42Z</time></trkpt><trkpt lat="44.98328139654674" lon="9.98450008676804"><ele>44.0</ele><time>2026-04-06T08:59:43Z</time></trkpt><trkpt lat="44.983301033981654" lon="9.984380737322798"><ele>44.0</ele><time>2026-04-06T08:59:44Z</time></trkpt><trkpt lat="44.98332174280494" lon="9.984261429304631"><ele>44.0</ele><time>2026-04-06T08:59:45Z</time></trkpt><trkpt lat="44.98334185113347" lon="9.984140747549894"><ele>44.0</ele><time>2026-04-06T08:59:46Z</time></trkpt><trkpt lat="44.98336180393624" lon="9.984022294940322"><ele>44.33333333333333</ele><time>2026-04-06T08:59:47Z</time></trkpt><trkpt lat="44.98338279543472" lon="9.983903361064339"><ele>44.666666666666664</ele><time>2026-04-06T08:59:48Z</time></trkpt><trkpt lat="44.9834021722158" lon="9.98378533435969"><ele>45.0</ele><time>2026-04-06T08:59:49Z</time></trkpt><trkpt lat="44.983422892186994" lon="9.983667850329953"><ele>45.333333333333336</ele><time>2026-04-06T08:59:50Z</time></trkpt><trkpt lat="44.983442281802205" lon="9.983552499833841"><ele>45.66666666666667</ele><time>2026-04-06T08:59:51Z</time></trkpt><trkpt lat="44.98346231438488" lon="9.983435720102742"><ele>46.0</ele><time>2026-04-06T08:59:52Z</time></trkpt><trkpt lat="44.98348193663994" lon="9.983318843998834"><ele>46.16666666666667</ele><time>2026-04-06T08:59:53Z</time></trkpt><trkpt lat="44.98350395439835" lon="9.983201730140667"><ele>46.333333333333336</ele><time>2026-04-06T08:59:54Z</time></trkpt><trkpt lat="44.98352249120504" lon="9.983084065339883"><ele>46.5</ele><time>2026-04-06T08:59:55Z</time></trkpt><trkpt lat="44.98354233226677" lon="9.98296636171913"><ele>46.666666666666664</ele><time>2026-04-06T08:59:56Z</time></trkpt><trkpt lat="44.98356319249341" lon="9.98285032142487"><ele>46.83333333333333</ele><time>2026-04-06T08:59:57Z</time></trkpt><trkpt lat="44.98358224449127" lon="9.9827325803929"><ele>47.0</ele><time>2026-04-06T08:59:58Z</time></trkpt><trkpt lat="44.98359862415794" lon="9.982616192473126"><ele>47.33333333333333</ele><time>2026-04-06T08:59:59Z</time></trkpt><trkpt lat="44.98361752276496" lon="9.982500692333971"><ele>47.666666666666664</ele><time>2026-04-06T09:00:00Z</time></trkpt><trkpt lat="44.98363682506783" lon="9.98238571355827"><ele>48.0</ele><time>2026-04-06T09:00:01Z</time></trkpt><trkpt lat="44.98365882212553" lon="9.982270361777744"><ele>48.33333333333333</ele><time>2026-04-06T09:00:02Z</time></trkpt><trkpt lat="44.98368017416697" lon="9.98215332026262"><ele>48.666666666666664</ele><time>2026-04-06T09:00:03Z</time></trkpt><trkpt lat="44.98370182085856" lon="9.982036040683179"><ele>49.0</ele><time>2026-04-06T09:00:04Z</time></trkpt><trkpt lat="44.98372102012927" lon="9.981918161663318"><ele>48.99999999999999</ele><time>2026-04-06T09:00:05Z</time></trkpt><trkpt lat="44.983741462524506" lon="9.981801149785879"><ele>49.0</ele><time>2026-04-06T09:00:06Z</time></trkpt><trkpt lat="44.983759508326045" lon="9.981684678628206"><ele>49.0</ele><time>2026-04-06T09:00:07Z</time></trkpt><trkpt lat="44.98377721441268" lon="9.981569153392767"><ele>49.0</ele><time>2026-04-06T09:00:08Z</time></trkpt><trkpt lat="44.983796965018634" lon="9.981455430077656"><ele>48.99999999999999</ele><time>2026-04-06T09:00:09Z</time></trkpt><trkpt lat="44.98381620189019" lon="9.981345520610681"><ele>49.0</ele><time>2026-04-06T09:00:10Z</time></trkpt><trkpt lat="44.98383570839069" lon="9.981240660645582"><ele>48.6</ele><time>2026-04-06T09:00:11Z</time></trkpt><trkpt lat="44.98385502898284" lon="9.981136548743843"><ele>48.2</ele><time>2026-04-06T09:00:11.999Z</time></trkpt><trkpt lat="44.983876863127236" lon="9.981035459221244"><ele>47.800000000000004</ele><time>2026-04-06T09:00:12.999Z</time></trkpt><trkpt lat="44.98390154905412" lon="9.980937375837254"><ele>47.400000000000006</ele><time>2026-04-06T09:00:13.999Z</time></trkpt><trkpt lat="44.98392851034782" lon="9.980854414475862"><ele>47.0</ele><time>2026-04-06T09:00:14.999Z</time></trkpt><trkpt lat="44.984095790013725" lon="9.98086556802501"><ele>47.0</ele><time>2026-04-06T09:00:16.999Z</time></trkpt><trkpt lat="44.98416268046374" lon="9.980903720651188"><ele>47.0</ele><time>2026-04-06T09:00:17.999Z</time></trkpt><trkpt lat="44.984228680155894" lon="9.980938262698162"><ele>47.0</ele><time>2026-04-06T09:00:18.999Z</time></trkpt><trkpt lat="44.984299763548236" lon="9.980980184385306"><ele>47.0</ele><time>2026-04-06T09:00:19.999Z</time></trkpt><trkpt lat="44.98436398406466" lon="9.981014783243701"><ele>47.0</ele><time>2026-04-06T09:00:20.999Z</time></trkpt><trkpt lat="44.98443081670196" lon="9.981048826354009"><ele>47.0</ele><time>2026-04-06T09:00:21.999Z</time></trkpt><trkpt lat="44.98450520240763" lon="9.981084254476144"><ele>47.0</ele><time>2026-04-06T09:00:22.999Z</time></trkpt><trkpt lat="44.984576743297794" lon="9.981118396037829"><ele>47.0</ele><time>2026-04-06T09:00:23.999Z</time></trkpt><trkpt lat="44.98465092414107" lon="9.981152780740947"><ele>47.0</ele><time>2026-04-06T09:00:24.999Z</time></trkpt><trkpt lat="44.984722139970906" lon="9.981191812748174"><ele>47.0</ele><time>2026-04-06T09:00:25.999Z</time></trkpt><trkpt lat="44.98479693892104" lon="9.98123031202603"><ele>47.0</ele><time>2026-04-06T09:00:26.999Z</time></trkpt><trkpt lat="44.98487228229617" lon="9.981269180143507"><ele>47.0</ele><time>2026-04-06T09:00:27.999Z</time></trkpt><trkpt lat="44.98494589399633" lon="9.981307448637159"><ele>47.0</ele><time>2026-04-06T09:00:28.999Z</time></trkpt><trkpt lat="44.985021012547186" lon="9.981346974794976"><ele>46.666666666666664</ele><time>2026-04-06T09:00:29.999Z</time></trkpt><trkpt lat="44.98510026649324" lon="9.981387174677627"><ele>46.33333333333333</ele><time>2026-04-06T09:00:30.999Z</time></trkpt><trkpt lat="44.9851802211204" lon="9.981426792396302"><ele>46.0</ele><time>2026-04-06T09:00:31.999Z</time></trkpt><trkpt lat="44.9852603468116" lon="9.981468065339032"><ele>45.666666666666664</ele><time>2026-04-06T09:00:32.999Z</time></trkpt><trkpt lat="44.98534170777474" lon="9.98150626363235"><ele>45.333333333333336</ele><time>2026-04-06T09:00:33.999Z</time></trkpt><trkpt lat="44.98542326252634" lon="9.981545758978557"><ele>45.0</ele><time>2026-04-06T09:00:34.999Z</time></trkpt><trkpt lat="44.98550404335449" lon="9.981587402356276"><ele>45.0</ele><time>2026-04-06T09:00:35.999Z</time></trkpt><trkpt lat="44.98558546955662" lon="9.98163050061745"><ele>45.0</ele><time>2026-04-06T09:00:36.999Z</time></trkpt><trkpt lat="44.985663329931505" lon="9.981668795286911"><ele>45.0</ele><time>2026-04-06T09:00:37.999Z</time></trkpt><trkpt lat="44.98574552473596" lon="9.981710754131637"><ele>45.0</ele><time>2026-04-06T09:00:38.999Z</time></trkpt><trkpt lat="44.98582658238822" lon="9.981752212078213"><ele>45.0</ele><time>2026-04-06T09:00:39.999Z</time></trkpt><trkpt lat="44.985907543910095" lon="9.98179505269725"><ele>45.0</ele><time>2026-04-06T09:00:40.999Z</time></trkpt><trkpt lat="44.985989351322615" lon="9.98183209533201"><ele>44.833333333333336</ele><time>2026-04-06T09:00:41.999Z</time></trkpt><trkpt lat="44.98607122962755" lon="9.981873149825512"><ele>44.666666666666664</ele><time>2026-04-06T09:00:42.999Z</time></trkpt><trkpt lat="44.98615150654972" lon="9.981920455085817"><ele>44.5</ele><time>2026-04-06T09:00:43.999Z</time></trkpt><trkpt lat="44.98623183405572" lon="9.981962433578907"><ele>44.33333333333333</ele><time>2026-04-06T09:00:44.999Z</time></trkpt><trkpt lat="44.98631264649579" lon="9.98200406584572"><ele>44.166666666666664</ele><time>2026-04-06T09:00:45.999Z</time></trkpt><trkpt lat="44.98639444111162" lon="9.982045349988082"><ele>44.0</ele><time>2026-04-06T09:00:46.999Z</time></trkpt><trkpt lat="44.98647645736499" lon="9.982089734520207"><ele>44.0</ele><time>2026-04-06T09:00:47.999Z</time></trkpt><trkpt lat="44.98655758061263" lon="9.982131860970402"><ele>44.0</ele><time>2026-04-06T09:00:48.999Z</time></trkpt><trkpt lat="44.986639222702735" lon="9.982173265277801"><ele>44.0</ele><time>2026-04-06T09:00:49.999Z</time></trkpt><trkpt lat="44.98672220407356" lon="9.982214188655526"><ele>44.0</ele><time>2026-04-06T09:00:50.999Z</time></trkpt><trkpt lat="44.98680407433184" lon="9.9822576570805"><ele>44.0</ele><time>2026-04-06T09:00:51.999Z</time></trkpt><trkpt lat="44.98688581056791" lon="9.98230025178967"><ele>44.0</ele><time>2026-04-06T09:00:52.999Z</time></trkpt><trkpt lat="44.98697014047182" lon="9.982341986549324"><ele>44.0</ele><time>2026-04-06T09:00:53.999Z</time></trkpt><trkpt lat="44.987051761357094" lon="9.982386588897596"><ele>44.0</ele><time>2026-04-06T09:00:54.999Z</time></trkpt><trkpt lat="44.98713317576657" lon="9.982428805945707"><ele>44.0</ele><time>2026-04-06T09:00:55.999Z</time></trkpt><trkpt lat="44.98721684841368" lon="9.982473344873176"><ele>44.0</ele><time>2026-04-06T09:00:56.999Z</time></trkpt><trkpt lat="44.98729829504726" lon="9.982513681641544"><ele>44.0</ele><time>2026-04-06T09:00:57.999Z</time></trkpt><trkpt lat="44.98737917648751" lon="9.98255488802277"><ele>44.0</ele><time>2026-04-06T09:00:58.999Z</time></trkpt><trkpt lat="44.987461552156816" lon="9.982597202457272"><ele>43.666666666666664</ele><time>2026-04-06T09:00:59.999Z</time></trkpt><trkpt lat="44.98754295655136" lon="9.982640618228386"><ele>43.33333333333333</ele><time>2026-04-06T09:01:00.999Z</time></trkpt><trkpt lat="44.98762350613103" lon="9.982682236429937"><ele>43.0</ele><time>2026-04-06T09:01:01.999Z</time></trkpt><trkpt lat="44.98770652509553" lon="9.982726345921108"><ele>42.666666666666664</ele><time>2026-04-06T09:01:02.999Z</time></trkpt><trkpt lat="44.98778728575522" lon="9.9827691020325"><ele>42.333333333333336</ele><time>2026-04-06T09:01:03.998Z</time></trkpt><trkpt lat="44.98786972821464" lon="9.982810490156764"><ele>42.0</ele><time>2026-04-06T09:01:04.998Z</time></trkpt><trkpt lat="44.987953729274906" lon="9.98285580642718"><ele>42.0</ele><time>2026-04-06T09:01:05.998Z</time></trkpt><trkpt lat="44.9880360491643" lon="9.982896665201235"><ele>42.0</ele><time>2026-04-06T09:01:06.998Z</time></trkpt><trkpt lat="44.98811942199503" lon="9.982938910749997"><ele>42.0</ele><time>2026-04-06T09:01:07.998Z</time></trkpt><trkpt lat="44.988201309613025" lon="9.982980663350205"><ele>42.0</ele><time>2026-04-06T09:01:08.998Z</time></trkpt><trkpt lat="44.988284773645645" lon="9.98302406745685"><ele>42.0</ele><time>2026-04-06T09:01:09.998Z</time></trkpt><trkpt lat="44.98836864792673" lon="9.983066091863954"><ele>42.0</ele><time>2026-04-06T09:01:10.998Z</time></trkpt><trkpt lat="44.98845269178653" lon="9.983107600778252"><ele>42.166666666666664</ele><time>2026-04-06T09:01:11.998Z</time></trkpt><trkpt lat="44.98853604067455" lon="9.983151194969313"><ele>42.333333333333336</ele><time>2026-04-06T09:01:12.998Z</time></trkpt><trkpt lat="44.98862018541021" lon="9.983194954477844"><ele>42.5</ele><time>2026-04-06T09:01:13.998Z</time></trkpt><trkpt lat="44.988702349321635" lon="9.983241170515386"><ele>42.66666666666667</ele><time>2026-04-06T09:01:14.998Z</time></trkpt><trkpt lat="44.98878155777134" lon="9.983297342807434"><ele>42.833333333333336</ele><time>2026-04-06T09:01:15.998Z</time></trkpt><trkpt lat="44.98885893831109" lon="9.983354802223449"><ele>43.0</ele><time>2026-04-06T09:01:16.998Z</time></trkpt><trkpt lat="44.98893509427894" lon="9.983415938051733"><ele>43.16666666666667</ele><time>2026-04-06T09:01:17.998Z</time></trkpt><trkpt lat="44.98900916267222" lon="9.9834841760907"><ele>43.333333333333336</ele><time>2026-04-06T09:01:18.998Z</time></trkpt><trkpt lat="44.989082411428946" lon="9.983553458294322"><ele>43.5</ele><time>2026-04-06T09:01:19.998Z</time></trkpt><trkpt lat="44.989151515179465" lon="9.983629485396838"><ele>43.666666666666664</ele><time>2026-04-06T09:01:20.998Z</time></trkpt><trkpt lat="44.989219420184945" lon="9.98370757740688"><ele>43.83333333333333</ele><time>2026-04-06T09:01:21.998Z</time></trkpt><trkpt lat="44.98928466638582" lon="9.983786231966192"><ele>44.0</ele><time>2026-04-06T09:01:22.998Z</time></trkpt><trkpt lat="44.98935232019954" lon="9.983866707277558"><ele>44.0</ele><time>2026-04-06T09:01:23.998Z</time></trkpt><trkpt lat="44.98941880693588" lon="9.983945729811435"><ele>44.0</ele><time>2026-04-06T09:01:24.998Z</time></trkpt><trkpt lat="44.9894833047268" lon="9.984019749733212"><ele>44.0</ele><time>2026-04-06T09:01:25.998Z</time></trkpt><trkpt lat="44.98955045405397" lon="9.984095598351063"><ele>44.0</ele><time>2026-04-06T09:01:26.998Z</time></trkpt><trkpt lat="44.98961366866791" lon="9.984169034532917"><ele>44.0</ele><time>2026-04-06T09:01:27.998Z</time></trkpt><trkpt lat="44.98967513119859" lon="9.984245558945387"><ele>44.0</ele><time>2026-04-06T09:01:28.998Z</time></trkpt><trkpt lat="44.989735316706074" lon="9.98431889709629"><ele>44.0</ele><time>2026-04-06T09:01:29.998Z</time></trkpt><trkpt lat="44.989795216806996" lon="9.984390179561363"><ele>44.0</ele><time>2026-04-06T09:01:30.998Z</time></trkpt><trkpt lat="44.98985237785646" lon="9.984459432874408"><ele>44.0</ele><time>2026-04-06T09:01:31.998Z</time></trkpt><trkpt lat="44.98990995306358" lon="9.984529039284158"><ele>44.0</ele><time>2026-04-06T09:01:32.998Z</time></trkpt><trkpt lat="44.98996495017778" lon="9.984595279255457"><ele>44.0</ele><time>2026-04-06T09:01:33.998Z</time></trkpt><trkpt lat="44.990019417052004" lon="9.98465955695344"><ele>44.0</ele><time>2026-04-06T09:01:34.998Z</time></trkpt><trkpt lat="44.99007072206334" lon="9.984725463783244"><ele>44.0</ele><time>2026-04-06T09:01:35.998Z</time></trkpt><trkpt lat="44.99011516993958" lon="9.984791628649905"><ele>44.0</ele><time>2026-04-06T09:01:36.998Z</time></trkpt><trkpt lat="44.990186535859536" lon="9.984901765144086"><ele>44.0</ele><time>2026-04-06T09:01:38.998Z</time></trkpt><trkpt lat="44.99028114820819" lon="9.984905539556324"><ele>44.0</ele><time>2026-04-06T09:01:40.998Z</time></trkpt><trkpt lat="44.9903318464508" lon="9.984846828207425"><ele>44.0</ele><time>2026-04-06T09:01:41.998Z</time></trkpt><trkpt lat="44.990364413762165" lon="9.984767290527468"><ele>44.0</ele><time>2026-04-06T09:01:42.998Z</time></trkpt><trkpt lat="44.990395632744324" lon="9.98468384980979"><ele>44.0</ele><time>2026-04-06T09:01:43.998Z</time></trkpt><trkpt lat="44.99042799795659" lon="9.984602017783022"><ele>44.0</ele><time>2026-04-06T09:01:45Z</time></trkpt><trkpt lat="44.99046296152623" lon="9.984525597737292"><ele>44.0</ele><time>2026-04-06T09:01:46Z</time></trkpt><trkpt lat="44.9904975893102" lon="9.984443639822711"><ele>44.0</ele><time>2026-04-06T09:01:47Z</time></trkpt><trkpt lat="44.990534065558336" lon="9.984361366255701"><ele>44.0</ele><time>2026-04-06T09:01:48Z</time></trkpt><trkpt lat="44.99057037583392" lon="9.98427975433824"><ele>44.0</ele><time>2026-04-06T09:01:49Z</time></trkpt><trkpt lat="44.99060868621713" lon="9.984196527509352"><ele>44.0</ele><time>2026-04-06T09:01:50Z</time></trkpt><trkpt lat="44.99064660547518" lon="9.984115462446956"><ele>44.0</ele><time>2026-04-06T09:01:51Z</time></trkpt><trkpt lat="44.9906862099115" lon="9.984031121841182"><ele>44.0</ele><time>2026-04-06T09:01:52Z</time></trkpt><trkpt lat="44.990725361533435" lon="9.983947116766142"><ele>44.0</ele><time>2026-04-06T09:01:53Z</time></trkpt><trkpt lat="44.990764436189274" lon="9.98386046106348"><ele>44.0</ele><time>2026-04-06T09:01:54Z</time></trkpt><trkpt lat="44.99080555281727" lon="9.983772222484978"><ele>44.0</ele><time>2026-04-06T09:01:55Z</time></trkpt><trkpt lat="44.99084804827752" lon="9.98368183682732"><ele>44.0</ele><time>2026-04-06T09:01:56Z</time></trkpt><trkpt lat="44.99089174585084" lon="9.983594970326982"><ele>44.0</ele><time>2026-04-06T09:01:57Z</time></trkpt><trkpt lat="44.990931059885206" lon="9.983505885130752"><ele>44.0</ele><time>2026-04-06T09:01:58Z</time></trkpt><trkpt lat="44.99096902837083" lon="9.98341970373833"><ele>43.83333333333333</ele><time>2026-04-06T09:01:59Z</time></trkpt><trkpt lat="44.99100920168358" lon="9.983327314489337"><ele>43.666666666666664</ele><time>2026-04-06T09:02:00Z</time></trkpt><trkpt lat="44.99105120346312" lon="9.98323449028323"><ele>43.5</ele><time>2026-04-06T09:02:01Z</time></trkpt><trkpt lat="44.99109693769369" lon="9.983144698758393"><ele>43.333333333333336</ele><time>2026-04-06T09:02:02Z</time></trkpt><trkpt lat="44.99114034478107" lon="9.983049668021767"><ele>43.16666666666667</ele><time>2026-04-06T09:02:03Z</time></trkpt><trkpt lat="44.991182157411785" lon="9.982955311240508"><ele>43.0</ele><time>2026-04-06T09:02:04Z</time></trkpt><trkpt lat="44.99122770933233" lon="9.982860369160216"><ele>43.0</ele><time>2026-04-06T09:02:05Z</time></trkpt><trkpt lat="44.99127278099586" lon="9.98276453757996"><ele>43.0</ele><time>2026-04-06T09:02:06Z</time></trkpt><trkpt lat="44.99131719914263" lon="9.982667712871951"><ele>43.0</ele><time>2026-04-06T09:02:07Z</time></trkpt><trkpt lat="44.99136426989865" lon="9.982571832067922"><ele>43.0</ele><time>2026-04-06T09:02:08Z</time></trkpt><trkpt lat="44.99140991028592" lon="9.982474947100878"><ele>43.0</ele><time>2026-04-06T09:02:09Z</time></trkpt><trkpt lat="44.99145669874442" lon="9.982375250664594"><ele>43.0</ele><time>2026-04-06T09:02:10Z</time></trkpt><trkpt lat="44.991503010536604" lon="9.982275796209361"><ele>43.0</ele><time>2026-04-06T09:02:11Z</time></trkpt><trkpt lat="44.991548592645" lon="9.982176371295255"><ele>43.0</ele><time>2026-04-06T09:02:12Z</time></trkpt><trkpt lat="44.99159161826916" lon="9.98207513570896"><ele>43.0</ele><time>2026-04-06T09:02:13Z</time></trkpt><trkpt lat="44.99163589406314" lon="9.981977208747978"><ele>43.0</ele><time>2026-04-06T09:02:14Z</time></trkpt><trkpt lat="44.99168384181804" lon="9.98188022095024"><ele>43.0</ele><time>2026-04-06T09:02:14.999Z</time></trkpt><trkpt lat="44.99173235417039" lon="9.981781918560868"><ele>43.0</ele><time>2026-04-06T09:02:15.999Z</time></trkpt><trkpt lat="44.99177812208473" lon="9.98168251965697"><ele>42.833333333333336</ele><time>2026-04-06T09:02:16.999Z</time></trkpt><trkpt lat="44.99182483154738" lon="9.98158637441806"><ele>42.66666666666667</ele><time>2026-04-06T09:02:17.999Z</time></trkpt><trkpt lat="44.99187096860811" lon="9.981488578686061"><ele>42.5</ele><time>2026-04-06T09:02:18.999Z</time></trkpt><trkpt lat="44.99191749514669" lon="9.981390595871963"><ele>42.333333333333336</ele><time>2026-04-06T09:02:19.999Z</time></trkpt><trkpt lat="44.99196640575318" lon="9.981291131514977"><ele>42.166666666666664</ele><time>2026-04-06T09:02:20.999Z</time></trkpt><trkpt lat="44.992015894790356" lon="9.981191778722035"><ele>42.0</ele><time>2026-04-06T09:02:21.999Z</time></trkpt><trkpt lat="44.9920626864607" lon="9.9810895899487"><ele>42.0</ele><time>2026-04-06T09:02:22.999Z</time></trkpt><trkpt lat="44.99211089113854" lon="9.980988732159547"><ele>42.0</ele><time>2026-04-06T09:02:23.999Z</time></trkpt><trkpt lat="44.99215967434319" lon="9.980889402357448"><ele>42.0</ele><time>2026-04-06T09:02:24.999Z</time></trkpt><trkpt lat="44.99220762818948" lon="9.980789785188408"><ele>42.0</ele><time>2026-04-06T09:02:25.999Z</time></trkpt><trkpt lat="44.9922542850684" lon="9.980689153572989"><ele>42.0</ele><time>2026-04-06T09:02:26.999Z</time></trkpt><trkpt lat="44.992302399459234" lon="9.980587567724063"><ele>42.0</ele><time>2026-04-06T09:02:27.999Z</time></trkpt><trkpt lat="44.99234944076102" lon="9.98048675776706"><ele>42.0</ele><time>2026-04-06T09:02:28.999Z</time></trkpt><trkpt lat="44.992397350405305" lon="9.98038479161346"><ele>42.0</ele><time>2026-04-06T09:02:29.999Z</time></trkpt><trkpt lat="44.99245794953056" lon="9.980298489914897"><ele>42.0</ele><time>2026-04-06T09:02:30.999Z</time></trkpt><trkpt lat="44.99250598514817" lon="9.980199165279297"><ele>42.0</ele><time>2026-04-06T09:02:31.999Z</time></trkpt><trkpt lat="44.99255466218654" lon="9.980098514363796"><ele>42.0</ele><time>2026-04-06T09:02:32.999Z</time></trkpt><trkpt lat="44.99260367100065" lon="9.979997177413075"><ele>42.0</ele><time>2026-04-06T09:02:33.999Z</time></trkpt><trkpt lat="44.99265253130863" lon="9.979896147526999"><ele>42.0</ele><time>2026-04-06T09:02:34.999Z</time></trkpt><trkpt lat="44.992701495867244" lon="9.979794287225072"><ele>42.0</ele><time>2026-04-06T09:02:35.999Z</time></trkpt><trkpt lat="44.99274894201766" lon="9.979687819347893"><ele>42.0</ele><time>2026-04-06T09:02:36.999Z</time></trkpt><trkpt lat="44.99278011455056" lon="9.979571799446903"><ele>42.0</ele><time>2026-04-06T09:02:37.999Z</time></trkpt><trkpt lat="44.992827842870504" lon="9.979469190049887"><ele>42.0</ele><time>2026-04-06T09:02:38.999Z</time></trkpt><trkpt lat="44.99285300407207" lon="9.979356590376272"><ele>42.0</ele><time>2026-04-06T09:02:39.999Z</time></trkpt><trkpt lat="44.9929412677003" lon="9.979279119388208"><ele>42.5</ele><time>2026-04-06T09:02:40.999Z</time></trkpt><trkpt lat="44.99299202011865" lon="9.979174601342203"><ele>43.0</ele><time>2026-04-06T09:02:41.999Z</time></trkpt><trkpt lat="44.993041314845165" lon="9.979070386195627"><ele>43.5</ele><time>2026-04-06T09:02:42.999Z</time></trkpt><trkpt lat="44.99307751785362" lon="9.978952230630172"><ele>44.0</ele><time>2026-04-06T09:02:43.999Z</time></trkpt><trkpt lat="44.99312552739558" lon="9.978851944411893"><ele>44.5</ele><time>2026-04-06T09:02:44.999Z</time></trkpt><trkpt lat="44.99317583320426" lon="9.978752740135121"><ele>45.0</ele><time>2026-04-06T09:02:45.999Z</time></trkpt><trkpt lat="44.99323638393537" lon="9.978663186388623"><ele>45.0</ele><time>2026-04-06T09:02:46.999Z</time></trkpt><trkpt lat="44.99331026704551" lon="9.978599761218627"><ele>45.0</ele><time>2026-04-06T09:02:47.999Z</time></trkpt><trkpt lat="44.993401782013954" lon="9.978577847136899"><ele>45.0</ele><time>2026-04-06T09:02:48.999Z</time></trkpt><trkpt lat="44.993490555979676" lon="9.978596291175139"><ele>45.0</ele><time>2026-04-06T09:02:49.999Z</time></trkpt><trkpt lat="44.9935769886418" lon="9.978643147887277"><ele>45.0</ele><time>2026-04-06T09:02:50.999Z</time></trkpt><trkpt lat="44.99365739511782" lon="9.978695531858245"><ele>44.833333333333336</ele><time>2026-04-06T09:02:51.999Z</time></trkpt><trkpt lat="44.99373662839944" lon="9.978744390991666"><ele>44.666666666666664</ele><time>2026-04-06T09:02:52.999Z</time></trkpt><trkpt lat="44.99381838549053" lon="9.97879211261202"><ele>44.5</ele><time>2026-04-06T09:02:53.999Z</time></trkpt><trkpt lat="44.99389679905976" lon="9.978839530272504"><ele>44.33333333333333</ele><time>2026-04-06T09:02:54.999Z</time></trkpt><trkpt lat="44.99397647488123" lon="9.978886952706981"><ele>44.166666666666664</ele><time>2026-04-06T09:02:55.999Z</time></trkpt><trkpt lat="44.99405915322203" lon="9.978930192831452"><ele>44.0</ele><time>2026-04-06T09:02:56.999Z</time></trkpt><trkpt lat="44.99414051847049" lon="9.978974401491039"><ele>43.83333333333333</ele><time>2026-04-06T09:02:57.999Z</time></trkpt><trkpt lat="44.99422260841003" lon="9.979021911810598"><ele>43.666666666666664</ele><time>2026-04-06T09:02:58.999Z</time></trkpt><trkpt lat="44.9943054811574" lon="9.97907163608594"><ele>43.5</ele><time>2026-04-06T09:02:59.999Z</time></trkpt><trkpt lat="44.994387997954064" lon="9.979120500575435"><ele>43.333333333333336</ele><time>2026-04-06T09:03:00.999Z</time></trkpt><trkpt lat="44.99447067405372" lon="9.979163202395672"><ele>43.16666666666667</ele><time>2026-04-06T09:03:01.999Z</time></trkpt><trkpt lat="44.99455286700441" lon="9.979210779379011"><ele>43.0</ele><time>2026-04-06T09:03:02.999Z</time></trkpt><trkpt lat="44.99463468134316" lon="9.979254921228762"><ele>43.0</ele><time>2026-04-06T09:03:03.999Z</time></trkpt><trkpt lat="44.99471698496803" lon="9.979300522414453"><ele>43.0</ele><time>2026-04-06T09:03:04.999Z</time></trkpt><trkpt lat="44.99479770167277" lon="9.979346338754674"><ele>43.0</ele><time>2026-04-06T09:03:05.999Z</time></trkpt><trkpt lat="44.994880491174946" lon="9.979390431729632"><ele>43.0</ele><time>2026-04-06T09:03:06.999Z</time></trkpt><trkpt lat="44.99496329305672" lon="9.979434208410172"><ele>43.0</ele><time>2026-04-06T09:03:07.998Z</time></trkpt><trkpt lat="44.995045353006404" lon="9.979477120386779"><ele>43.0</ele><time>2026-04-06T09:03:08.998Z</time></trkpt><trkpt lat="44.99512974256205" lon="9.979520176980207"><ele>42.833333333333336</ele><time>2026-04-06T09:03:09.998Z</time></trkpt><trkpt lat="44.99521340110511" lon="9.979559074070355"><ele>42.66666666666667</ele><time>2026-04-06T09:03:10.998Z</time></trkpt><trkpt lat="44.9952983539666" lon="9.979599668846316"><ele>42.5</ele><time>2026-04-06T09:03:11.998Z</time></trkpt><trkpt lat="44.995383133146305" lon="9.979638970898684"><ele>42.333333333333336</ele><time>2026-04-06T09:03:12.998Z</time></trkpt><trkpt lat="44.995464194406985" lon="9.979682005213"><ele>42.166666666666664</ele><time>2026-04-06T09:03:13.998Z</time></trkpt><trkpt lat="44.9955466938495" lon="9.979722223521081"><ele>42.0</ele><time>2026-04-06T09:03:14.998Z</time></trkpt><trkpt lat="44.99563029749383" lon="9.979756869184232"><ele>42.0</ele><time>2026-04-06T09:03:15.998Z</time></trkpt><trkpt lat="44.995715060787454" lon="9.979794829493164"><ele>42.0</ele><time>2026-04-06T09:03:16.998Z</time></trkpt><trkpt lat="44.995797314760665" lon="9.979833863764263"><ele>42.0</ele><time>2026-04-06T09:03:17.998Z</time></trkpt><trkpt lat="44.99588092151199" lon="9.979873811268419"><ele>42.0</ele><time>2026-04-06T09:03:18.998Z</time></trkpt><trkpt lat="44.99596462403112" lon="9.979912278964642"><ele>42.0</ele><time>2026-04-06T09:03:19.998Z</time></trkpt><trkpt lat="44.99604829460624" lon="9.97995044165166"><ele>42.0</ele><time>2026-04-06T09:03:20.998Z</time></trkpt><trkpt lat="44.996131218275984" lon="9.979989123237676"><ele>41.666666666666664</ele><time>2026-04-06T09:03:21.998Z</time></trkpt><trkpt lat="44.996214161860856" lon="9.980026497814098"><ele>41.333333333333336</ele><time>2026-04-06T09:03:22.998Z</time></trkpt><trkpt lat="44.99629734603145" lon="9.98006131367974"><ele>41.0</ele><time>2026-04-06T09:03:23.998Z</time></trkpt><trkpt lat="44.996381554203154" lon="9.980098218188942"><ele>40.66666666666667</ele><time>2026-04-06T09:03:24.998Z</time></trkpt><trkpt lat="44.99646435873212" lon="9.98013570219259"><ele>40.333333333333336</ele><time>2026-04-06T09:03:25.998Z</time></trkpt><trkpt lat="44.996548235016284" lon="9.980173463900385"><ele>40.0</ele><time>2026-04-06T09:03:26.998Z</time></trkpt><trkpt lat="44.996631829338305" lon="9.980210332414867"><ele>39.833333333333336</ele><time>2026-04-06T09:03:27.998Z</time></trkpt><trkpt lat="44.99671482427649" lon="9.980244679348207"><ele>39.66666666666667</ele><time>2026-04-06T09:03:28.998Z</time></trkpt><trkpt lat="44.99680097962407" lon="9.98028176107428"><ele>39.5</ele><time>2026-04-06T09:03:29.998Z</time></trkpt><trkpt lat="44.996883371846806" lon="9.980319149747785"><ele>39.333333333333336</ele><time>2026-04-06T09:03:30.998Z</time></trkpt><trkpt lat="44.99696658684484" lon="9.980354103554543"><ele>39.166666666666664</ele><time>2026-04-06T09:03:31.998Z</time></trkpt><trkpt lat="44.997051274229094" lon="9.980389676482076"><ele>39.0</ele><time>2026-04-06T09:03:32.998Z</time></trkpt><trkpt lat="44.99713363898564" lon="9.980422398089846"><ele>39.0</ele><time>2026-04-06T09:03:33.998Z</time></trkpt><trkpt lat="44.99722049480833" lon="9.98045823581752"><ele>39.0</ele><time>2026-04-06T09:03:34.998Z</time></trkpt><trkpt lat="44.99730364647551" lon="9.980498488309546"><ele>39.0</ele><time>2026-04-06T09:03:35.998Z</time></trkpt><trkpt lat="44.99738460458135" lon="9.980541540880578"><ele>39.0</ele><time>2026-04-06T09:03:36.998Z</time></trkpt><trkpt lat="44.99746869769585" lon="9.98058272970038"><ele>39.0</ele><time>2026-04-06T09:03:37.998Z</time></trkpt><trkpt lat="44.99755234428052" lon="9.980621010065331"><ele>39.0</ele><time>2026-04-06T09:03:38.998Z</time></trkpt><trkpt lat="44.997633853602515" lon="9.980659552984037"><ele>39.166666666666664</ele><time>2026-04-06T09:03:39.998Z</time></trkpt><trkpt lat="44.99771799963815" lon="9.980696419685975"><ele>39.333333333333336</ele><time>2026-04-06T09:03:40.998Z</time></trkpt><trkpt lat="44.9977996655061" lon="9.98073496669743"><ele>39.5</ele><time>2026-04-06T09:03:41.998Z</time></trkpt><trkpt lat="44.997882180247416" lon="9.980771965917803"><ele>39.66666666666667</ele><time>2026-04-06T09:03:42.998Z</time></trkpt><trkpt lat="44.99796556699883" lon="9.980813390593303"><ele>39.833333333333336</ele><time>2026-04-06T09:03:43.998Z</time></trkpt><trkpt lat="44.998049027547026" lon="9.980852733696935"><ele>40.0</ele><time>2026-04-06T09:03:44.998Z</time></trkpt><trkpt lat="44.99813108228865" lon="9.980891197520785"><ele>40.16666666666667</ele><time>2026-04-06T09:03:45.998Z</time></trkpt><trkpt lat="44.99821378533112" lon="9.980929899370853"><ele>40.333333333333336</ele><time>2026-04-06T09:03:46.998Z</time></trkpt><trkpt lat="44.998295265392976" lon="9.980968551663725"><ele>40.5</ele><time>2026-04-06T09:03:47.998Z</time></trkpt><trkpt lat="44.99837732892618" lon="9.981006556970453"><ele>40.666666666666664</ele><time>2026-04-06T09:03:48.998Z</time></trkpt><trkpt lat="44.99845969072436" lon="9.98104575219079"><ele>40.83333333333333</ele><time>2026-04-06T09:03:50Z</time></trkpt><trkpt lat="44.99854149103293" lon="9.98108362327674"><ele>41.0</ele><time>2026-04-06T09:03:51Z</time></trkpt><trkpt lat="44.99862350751524" lon="9.98111951127313"><ele>41.33333333333333</ele><time>2026-04-06T09:03:52Z</time></trkpt><trkpt lat="44.99870487491858" lon="9.981158242346622"><ele>41.666666666666664</ele><time>2026-04-06T09:03:53Z</time></trkpt><trkpt lat="44.99878654782065" lon="9.981196694701694"><ele>42.0</ele><time>2026-04-06T09:03:54Z</time></trkpt><trkpt lat="44.99887076016052" lon="9.981236200178833"><ele>42.333333333333336</ele><time>2026-04-06T09:03:55Z</time></trkpt><trkpt lat="44.99895325230141" lon="9.981272489810861"><ele>42.66666666666667</ele><time>2026-04-06T09:03:56Z</time></trkpt><trkpt lat="44.99903436114522" lon="9.981307350340588"><ele>43.0</ele><time>2026-04-06T09:03:57Z</time></trkpt><trkpt lat="44.99911791853318" lon="9.981342569473021"><ele>43.0</ele><time>2026-04-06T09:03:58Z</time></trkpt><trkpt lat="44.99919920960792" lon="9.981381692031793"><ele>43.0</ele><time>2026-04-06T09:03:59Z</time></trkpt><trkpt lat="44.99928008985331" lon="9.981421368010015"><ele>43.0</ele><time>2026-04-06T09:04:00Z</time></trkpt><trkpt lat="44.999361717425955" lon="9.981459564084012"><ele>43.0</ele><time>2026-04-06T09:04:01Z</time></trkpt><trkpt lat="44.99944428165654" lon="9.98149847742982"><ele>43.0</ele><time>2026-04-06T09:04:02Z</time></trkpt><trkpt lat="44.99952838222269" lon="9.98153499805214"><ele>43.0</ele><time>2026-04-06T09:04:03Z</time></trkpt><trkpt lat="44.9996095973603" lon="9.981573234558603"><ele>43.0</ele><time>2026-04-06T09:04:04Z</time></trkpt><trkpt lat="44.99969325063583" lon="9.981609046211005"><ele>43.0</ele><time>2026-04-06T09:04:05Z</time></trkpt><trkpt lat="44.999777526910144" lon="9.981646331335385"><ele>43.0</ele><time>2026-04-06T09:04:06Z</time></trkpt><trkpt lat="44.99986179142621" lon="9.981685731328929"><ele>43.0</ele><time>2026-04-06T09:04:07Z</time></trkpt><trkpt lat="44.99994466028679" lon="9.981724117094387"><ele>43.0</ele><time>2026-04-06T09:04:08Z</time></trkpt><trkpt lat="45.00002702924386" lon="9.98176259221238"><ele>43.0</ele><time>2026-04-06T09:04:09Z</time></trkpt><trkpt lat="45.00010958834567" lon="9.981798810093007"><ele>42.833333333333336</ele><time>2026-04-06T09:04:10Z</time></trkpt><trkpt lat="45.00019199349256" lon="9.981837958332802"><ele>42.66666666666667</ele><time>2026-04-06T09:04:11Z</time></trkpt><trkpt lat="45.00027141971256" lon="9.981877920313138"><ele>42.5</ele><time>2026-04-06T09:04:12Z</time></trkpt><trkpt lat="45.000354050395224" lon="9.981918345851597"><ele>42.333333333333336</ele><time>2026-04-06T09:04:13Z</time></trkpt><trkpt lat="45.00043377530684" lon="9.981957116568019"><ele>42.166666666666664</ele><time>2026-04-06T09:04:14Z</time></trkpt><trkpt lat="45.000518434367486" lon="9.981999403872804"><ele>42.0</ele><time>2026-04-06T09:04:15Z</time></trkpt><trkpt lat="45.000599012090575" lon="9.982038913431637"><ele>42.0</ele><time>2026-04-06T09:04:16Z</time></trkpt><trkpt lat="45.000679416146916" lon="9.982082152473641"><ele>42.0</ele><time>2026-04-06T09:04:17Z</time></trkpt><trkpt lat="45.00075972965811" lon="9.982128734343219"><ele>42.0</ele><time>2026-04-06T09:04:17.999Z</time></trkpt><trkpt lat="45.000839623572205" lon="9.982175170843915"><ele>42.0</ele><time>2026-04-06T09:04:18.999Z</time></trkpt><trkpt lat="45.00092124144904" lon="9.982220728663732"><ele>42.0</ele><time>2026-04-06T09:04:19.999Z</time></trkpt><trkpt lat="45.001002637148346" lon="9.982265925524214"><ele>42.0</ele><time>2026-04-06T09:04:20.999Z</time></trkpt><trkpt lat="45.00108344654943" lon="9.982317939850667"><ele>42.0</ele><time>2026-04-06T09:04:21.999Z</time></trkpt><trkpt lat="45.00116212089421" lon="9.98236978915873"><ele>42.0</ele><time>2026-04-06T09:04:22.999Z</time></trkpt><trkpt lat="45.00124042649502" lon="9.982423576952334"><ele>42.0</ele><time>2026-04-06T09:04:23.999Z</time></trkpt><trkpt lat="45.001321658606884" lon="9.982472995706132"><ele>42.0</ele><time>2026-04-06T09:04:24.999Z</time></trkpt><trkpt lat="45.001401104961644" lon="9.982518523074196"><ele>42.0</ele><time>2026-04-06T09:04:25.999Z</time></trkpt><trkpt lat="45.0014839511905" lon="9.982568220089602"><ele>42.0</ele><time>2026-04-06T09:04:26.999Z</time></trkpt><trkpt lat="45.00156221512688" lon="9.982617179718579"><ele>42.0</ele><time>2026-04-06T09:04:27.999Z</time></trkpt><trkpt lat="45.00164174107809" lon="9.982666847262104"><ele>42.0</ele><time>2026-04-06T09:04:28.999Z</time></trkpt><trkpt lat="45.001721903620336" lon="9.982714565799311"><ele>42.0</ele><time>2026-04-06T09:04:29.999Z</time></trkpt><trkpt lat="45.0018004298669" lon="9.982761434526175"><ele>42.0</ele><time>2026-04-06T09:04:30.999Z</time></trkpt><trkpt lat="45.00187908349496" lon="9.982808227349313"><ele>42.0</ele><time>2026-04-06T09:04:31.999Z</time></trkpt><trkpt lat="45.001958848583946" lon="9.982859660169659"><ele>42.0</ele><time>2026-04-06T09:04:32.999Z</time></trkpt><trkpt lat="45.00203907470433" lon="9.982909315810437"><ele>42.0</ele><time>2026-04-06T09:04:33.999Z</time></trkpt><trkpt lat="45.00211784659838" lon="9.98295651759176"><ele>42.0</ele><time>2026-04-06T09:04:34.999Z</time></trkpt><trkpt lat="45.00219827639832" lon="9.9830063222833"><ele>42.0</ele><time>2026-04-06T09:04:35.999Z</time></trkpt><trkpt lat="45.0022771016822" lon="9.983061630251907"><ele>42.0</ele><time>2026-04-06T09:04:36.999Z</time></trkpt><trkpt lat="45.002349392443385" lon="9.98312138133618"><ele>42.0</ele><time>2026-04-06T09:04:37.999Z</time></trkpt><trkpt lat="45.002421372798885" lon="9.983193362938357"><ele>42.0</ele><time>2026-04-06T09:04:38.999Z</time></trkpt><trkpt lat="45.0024823384399" lon="9.983285145522425"><ele>41.6</ele><time>2026-04-06T09:04:39.999Z</time></trkpt><trkpt lat="45.0025353704971" lon="9.983385945095835"><ele>41.2</ele><time>2026-04-06T09:04:40.999Z</time></trkpt><trkpt lat="45.00258811262916" lon="9.983492358396862"><ele>40.8</ele><time>2026-04-06T09:04:41.999Z</time></trkpt><trkpt lat="45.00264145665925" lon="9.983591582225714"><ele>40.4</ele><time>2026-04-06T09:04:42.999Z</time></trkpt><trkpt lat="45.00270515937869" lon="9.983683453810146"><ele>40.0</ele><time>2026-04-06T09:04:43.999Z</time></trkpt><trkpt lat="45.00278060149366" lon="9.983754920237473"><ele>40.0</ele><time>2026-04-06T09:04:44.999Z</time></trkpt><trkpt lat="45.00286034776864" lon="9.983816334612037"><ele>40.0</ele><time>2026-04-06T09:04:45.999Z</time></trkpt><trkpt lat="45.00293851907591" lon="9.983877268375029"><ele>40.0</ele><time>2026-04-06T09:04:46.999Z</time></trkpt><trkpt lat="45.00301578980974" lon="9.98393239635159"><ele>40.0</ele><time>2026-04-06T09:04:47.999Z</time></trkpt><trkpt lat="45.00309390701283" lon="9.983993558640618"><ele>40.0</ele><time>2026-04-06T09:04:48.999Z</time></trkpt><trkpt lat="45.00316893028411" lon="9.984054276669541"><ele>40.0</ele><time>2026-04-06T09:04:49.999Z</time></trkpt><trkpt lat="45.00324878568022" lon="9.984116526964204"><ele>40.0</ele><time>2026-04-06T09:04:50.999Z</time></trkpt><trkpt lat="45.00332506458597" lon="9.984176771559873"><ele>40.0</ele><time>2026-04-06T09:04:51.999Z</time></trkpt><trkpt lat="45.00340442309691" lon="9.98423758791023"><ele>40.0</ele><time>2026-04-06T09:04:52.999Z</time></trkpt><trkpt lat="45.003480326275564" lon="9.984297895891803"><ele>40.0</ele><time>2026-04-06T09:04:53.999Z</time></trkpt><trkpt lat="45.00355781491408" lon="9.984361377504879"><ele>40.0</ele><time>2026-04-06T09:04:54.999Z</time></trkpt><trkpt lat="45.00363267656726" lon="9.984421906002284"><ele>40.0</ele><time>2026-04-06T09:04:55.999Z</time></trkpt><trkpt lat="45.00371120213671" lon="9.984483712167961"><ele>40.16666666666667</ele><time>2026-04-06T09:04:56.999Z</time></trkpt><trkpt lat="45.003786795978705" lon="9.984540870959368"><ele>40.333333333333336</ele><time>2026-04-06T09:04:57.999Z</time></trkpt><trkpt lat="45.003865156109924" lon="9.984602965751458"><ele>40.5</ele><time>2026-04-06T09:04:58.999Z</time></trkpt><trkpt lat="45.00394104710677" lon="9.984665053165056"><ele>40.666666666666664</ele><time>2026-04-06T09:04:59.999Z</time></trkpt><trkpt lat="45.00401782470399" lon="9.984726211089546"><ele>40.83333333333333</ele><time>2026-04-06T09:05:00.999Z</time></trkpt><trkpt lat="45.00409475273123" lon="9.984786254043904"><ele>41.0</ele><time>2026-04-06T09:05:01.999Z</time></trkpt><trkpt lat="45.0041710137993" lon="9.984845502970028"><ele>40.83333333333333</ele><time>2026-04-06T09:05:02.999Z</time></trkpt><trkpt lat="45.00424769912034" lon="9.984906371141134"><ele>40.666666666666664</ele><time>2026-04-06T09:05:03.999Z</time></trkpt><trkpt lat="45.004324120210974" lon="9.984968150944626"><ele>40.5</ele><time>2026-04-06T09:05:04.999Z</time></trkpt><trkpt lat="45.00439999294501" lon="9.985030892180076"><ele>40.333333333333336</ele><time>2026-04-06T09:05:05.999Z</time></trkpt><trkpt lat="45.004478144241865" lon="9.985091511953856"><ele>40.16666666666667</ele><time>2026-04-06T09:05:06.999Z</time></trkpt><trkpt lat="45.00455402959764" lon="9.985152521066883"><ele>40.0</ele><time>2026-04-06T09:05:07.999Z</time></trkpt><trkpt lat="45.00463103684867" lon="9.985216186590213"><ele>40.0</ele><time>2026-04-06T09:05:08.999Z</time></trkpt><trkpt lat="45.00470517128771" lon="9.985276467704443"><ele>40.0</ele><time>2026-04-06T09:05:09.999Z</time></trkpt><trkpt lat="45.00478193255983" lon="9.985337435397744"><ele>40.0</ele><time>2026-04-06T09:05:10.998Z</time></trkpt><trkpt lat="45.004858152880274" lon="9.985396112079512"><ele>40.0</ele><time>2026-04-06T09:05:11.998Z</time></trkpt><trkpt lat="45.004936092800705" lon="9.985456457615163"><ele>40.0</ele><time>2026-04-06T09:05:12.998Z</time></trkpt><trkpt lat="45.005014458729484" lon="9.985519486606798"><ele>40.0</ele><time>2026-04-06T09:05:13.998Z</time></trkpt><trkpt lat="45.00509068624222" lon="9.98558159625918"><ele>40.0</ele><time>2026-04-06T09:05:14.998Z</time></trkpt><trkpt lat="45.005167554774346" lon="9.985646175119564"><ele>40.0</ele><time>2026-04-06T09:05:15.998Z</time></trkpt><trkpt lat="45.005243791885704" lon="9.985706812291175"><ele>40.0</ele><time>2026-04-06T09:05:16.998Z</time></trkpt><trkpt lat="45.005321930580834" lon="9.985768222858711"><ele>40.0</ele><time>2026-04-06T09:05:17.998Z</time></trkpt><trkpt lat="45.00539894711853" lon="9.985829362031623"><ele>40.0</ele><time>2026-04-06T09:05:18.998Z</time></trkpt><trkpt lat="45.00547631088311" lon="9.985894471814856"><ele>40.0</ele><time>2026-04-06T09:05:19.998Z</time></trkpt><trkpt lat="45.005553472062466" lon="9.985956161861173"><ele>40.0</ele><time>2026-04-06T09:05:20.998Z</time></trkpt><trkpt lat="45.005631370625" lon="9.98601837811535"><ele>40.0</ele><time>2026-04-06T09:05:21.998Z</time></trkpt><trkpt lat="45.00570909989153" lon="9.98607965076869"><ele>40.0</ele><time>2026-04-06T09:05:22.998Z</time></trkpt><trkpt lat="45.00578653246552" lon="9.98614102548141"><ele>40.0</ele><time>2026-04-06T09:05:23.998Z</time></trkpt><trkpt lat="45.00586340404588" lon="9.986203886170818"><ele>40.0</ele><time>2026-04-06T09:05:24.998Z</time></trkpt><trkpt lat="45.00594006623998" lon="9.986270169365733"><ele>40.0</ele><time>2026-04-06T09:05:25.998Z</time></trkpt><trkpt lat="45.00601537857024" lon="9.98633806991348"><ele>40.16666666666667</ele><time>2026-04-06T09:05:26.998Z</time></trkpt><trkpt lat="45.00608879801053" lon="9.986406448211442"><ele>40.333333333333336</ele><time>2026-04-06T09:05:27.998Z</time></trkpt><trkpt lat="45.00615735901652" lon="9.98648253353274"><ele>40.5</ele><time>2026-04-06T09:05:28.998Z</time></trkpt><trkpt lat="45.0062228030129" lon="9.986568658312578"><ele>40.666666666666664</ele><time>2026-04-06T09:05:29.998Z</time></trkpt><trkpt lat="45.00628581860806" lon="9.986656922896337"><ele>40.83333333333333</ele><time>2026-04-06T09:05:30.998Z</time></trkpt><trkpt lat="45.00634656375815" lon="9.986753593514818"><ele>41.0</ele><time>2026-04-06T09:05:31.998Z</time></trkpt><trkpt lat="45.00640502196683" lon="9.986845473900328"><ele>41.0</ele><time>2026-04-06T09:05:32.998Z</time></trkpt><trkpt lat="45.00646349284702" lon="9.986938217059453"><ele>41.0</ele><time>2026-04-06T09:05:33.998Z</time></trkpt><trkpt lat="45.00652196841089" lon="9.987037234456418"><ele>41.0</ele><time>2026-04-06T09:05:34.998Z</time></trkpt><trkpt lat="45.0065816524614" lon="9.987131908894039"><ele>41.0</ele><time>2026-04-06T09:05:35.998Z</time></trkpt><trkpt lat="45.00664065158519" lon="9.987227588491482"><ele>41.0</ele><time>2026-04-06T09:05:36.998Z</time></trkpt><trkpt lat="45.00670107739727" lon="9.987321322974752"><ele>41.0</ele><time>2026-04-06T09:05:37.998Z</time></trkpt><trkpt lat="45.00675990196611" lon="9.987415278755698"><ele>41.0</ele><time>2026-04-06T09:05:38.998Z</time></trkpt><trkpt lat="45.006819135853405" lon="9.987512400944759"><ele>41.0</ele><time>2026-04-06T09:05:39.998Z</time></trkpt><trkpt lat="45.0068798654045" lon="9.987605653318141"><ele>41.0</ele><time>2026-04-06T09:05:40.998Z</time></trkpt><trkpt lat="45.006938655561974" lon="9.987702507309637"><ele>41.0</ele><time>2026-04-06T09:05:41.998Z</time></trkpt><trkpt lat="45.00699920428482" lon="9.98779814917853"><ele>41.0</ele><time>2026-04-06T09:05:42.998Z</time></trkpt><trkpt lat="45.007059365705075" lon="9.987888727830306"><ele>41.0</ele><time>2026-04-06T09:05:43.998Z</time></trkpt><trkpt lat="45.00711850225683" lon="9.987984759004119"><ele>41.0</ele><time>2026-04-06T09:05:44.998Z</time></trkpt><trkpt lat="45.00717758992336" lon="9.988082444673877"><ele>41.0</ele><time>2026-04-06T09:05:45.998Z</time></trkpt><trkpt lat="45.007235353514076" lon="9.988179329660781"><ele>41.0</ele><time>2026-04-06T09:05:46.998Z</time></trkpt><trkpt lat="45.007292520364665" lon="9.988280411426004"><ele>41.0</ele><time>2026-04-06T09:05:47.998Z</time></trkpt><trkpt lat="45.00734679664186" lon="9.988384360797431"><ele>41.0</ele><time>2026-04-06T09:05:48.998Z</time></trkpt><trkpt lat="45.007396225562125" lon="9.988491302883824"><ele>41.0</ele><time>2026-04-06T09:05:49.998Z</time></trkpt><trkpt lat="45.00744263412075" lon="9.988601072392505"><ele>41.0</ele><time>2026-04-06T09:05:50.998Z</time></trkpt><trkpt lat="45.00748363074702" lon="9.988716841390266"><ele>41.0</ele><time>2026-04-06T09:05:51.998Z</time></trkpt><trkpt lat="45.00752020626141" lon="9.988832810719906"><ele>41.0</ele><time>2026-04-06T09:05:52.998Z</time></trkpt><trkpt lat="45.007558467689364" lon="9.988945833132451"><ele>41.0</ele><time>2026-04-06T09:05:53.998Z</time></trkpt><trkpt lat="45.00759812894356" lon="9.9890624592559"><ele>41.0</ele><time>2026-04-06T09:05:54.998Z</time></trkpt><trkpt lat="45.00764045963763" lon="9.989173330082883"><ele>41.0</ele><time>2026-04-06T09:05:56Z</time></trkpt><trkpt lat="45.007684261122286" lon="9.989282446078414"><ele>41.0</ele><time>2026-04-06T09:05:57Z</time></trkpt><trkpt lat="45.0077317174607" lon="9.989387960447273"><ele>41.0</ele><time>2026-04-06T09:05:58Z</time></trkpt><trkpt lat="45.00778347431985" lon="9.989487211500297"><ele>41.0</ele><time>2026-04-06T09:05:59Z</time></trkpt><trkpt lat="45.00783594615252" lon="9.989587232152351"><ele>41.0</ele><time>2026-04-06T09:06:00Z</time></trkpt><trkpt lat="45.007891285905494" lon="9.989685350144793"><ele>41.0</ele><time>2026-04-06T09:06:01Z</time></trkpt><trkpt lat="45.007947527565165" lon="9.989781144395712"><ele>41.0</ele><time>2026-04-06T09:06:02Z</time></trkpt><trkpt lat="45.00800537607295" lon="9.989876950560124"><ele>41.0</ele><time>2026-04-06T09:06:03Z</time></trkpt><trkpt lat="45.008060479315986" lon="9.989972119859562"><ele>41.0</ele><time>2026-04-06T09:06:04Z</time></trkpt><trkpt lat="45.008116061445456" lon="9.990069722283117"><ele>41.0</ele><time>2026-04-06T09:06:05Z</time></trkpt><trkpt lat="45.008171871763025" lon="9.990162034382518"><ele>41.0</ele><time>2026-04-06T09:06:06Z</time></trkpt><trkpt lat="45.00823117937819" lon="9.990258664412098"><ele>40.83333333333333</ele><time>2026-04-06T09:06:07Z</time></trkpt><trkpt lat="45.0082898288433" lon="9.99035444680224"><ele>40.666666666666664</ele><time>2026-04-06T09:06:08Z</time></trkpt><trkpt lat="45.00834880957802" lon="9.990451112305674"><ele>40.5</ele><time>2026-04-06T09:06:09Z</time></trkpt><trkpt lat="45.00840464803827" lon="9.990547094484546"><ele>40.333333333333336</ele><time>2026-04-06T09:06:10Z</time></trkpt><trkpt lat="45.00846292994095" lon="9.99064430769469"><ele>40.16666666666667</ele><time>2026-04-06T09:06:11Z</time></trkpt><trkpt lat="45.008519803218825" lon="9.990743348027767"><ele>40.0</ele><time>2026-04-06T09:06:12Z</time></trkpt><trkpt lat="45.008578490762496" lon="9.990840421503284"><ele>40.0</ele><time>2026-04-06T09:06:13Z</time></trkpt><trkpt lat="45.00863741772207" lon="9.990940908954535"><ele>40.0</ele><time>2026-04-06T09:06:14Z</time></trkpt><trkpt lat="45.00869585598366" lon="9.99103881952329"><ele>40.0</ele><time>2026-04-06T09:06:15Z</time></trkpt><trkpt lat="45.00875380189297" lon="9.991134452084712"><ele>40.0</ele><time>2026-04-06T09:06:16Z</time></trkpt><trkpt lat="45.00881240348233" lon="9.991234393232162"><ele>40.0</ele><time>2026-04-06T09:06:17Z</time></trkpt><trkpt lat="45.00887066711491" lon="9.991334919381607"><ele>40.0</ele><time>2026-04-06T09:06:18Z</time></trkpt><trkpt lat="45.00892919822353" lon="9.991434490850189"><ele>40.0</ele><time>2026-04-06T09:06:19Z</time></trkpt><trkpt lat="45.00898801644186" lon="9.991535041173893"><ele>40.0</ele><time>2026-04-06T09:06:20Z</time></trkpt><trkpt lat="45.009046286175206" lon="9.991630075790695"><ele>40.0</ele><time>2026-04-06T09:06:21Z</time></trkpt><trkpt lat="45.009104205559844" lon="9.9917327852411"><ele>40.0</ele><time>2026-04-06T09:06:21.999Z</time></trkpt><trkpt lat="45.009162993956245" lon="9.991834599182344"><ele>39.6</ele><time>2026-04-06T09:06:22.999Z</time></trkpt><trkpt lat="45.009224038775855" lon="9.991930395530282"><ele>39.2</ele><time>2026-04-06T09:06:23.999Z</time></trkpt><trkpt lat="45.009283055497654" lon="9.992027946418045"><ele>38.8</ele><time>2026-04-06T09:06:24.999Z</time></trkpt><trkpt lat="45.00934185919451" lon="9.992125734979588"><ele>38.4</ele><time>2026-04-06T09:06:25.999Z</time></trkpt><trkpt lat="45.009402576678944" lon="9.992224403139366"><ele>38.0</ele><time>2026-04-06T09:06:26.999Z</time></trkpt><trkpt lat="45.009464225849776" lon="9.99232580838708"><ele>38.0</ele><time>2026-04-06T09:06:27.999Z</time></trkpt><trkpt lat="45.00952598098942" lon="9.992424582841723"><ele>38.0</ele><time>2026-04-06T09:06:28.999Z</time></trkpt><trkpt lat="45.00958681406838" lon="9.99252062219574"><ele>38.0</ele><time>2026-04-06T09:06:29.999Z</time></trkpt><trkpt lat="45.00965020187699" lon="9.992617207677673"><ele>38.0</ele><time>2026-04-06T09:06:30.999Z</time></trkpt><trkpt lat="45.00971346672555" lon="9.992710206222167"><ele>38.0</ele><time>2026-04-06T09:06:31.999Z</time></trkpt><trkpt lat="45.00977641974236" lon="9.992802318777056"><ele>38.199999999999996</ele><time>2026-04-06T09:06:32.999Z</time></trkpt><trkpt lat="45.0098385082657" lon="9.992895550951884"><ele>38.4</ele><time>2026-04-06T09:06:33.999Z</time></trkpt><trkpt lat="45.009900270560436" lon="9.992988892263046"><ele>38.599999999999994</ele><time>2026-04-06T09:06:34.999Z</time></trkpt><trkpt lat="45.009962822297005" lon="9.993083571124394"><ele>38.8</ele><time>2026-04-06T09:06:35.999Z</time></trkpt><trkpt lat="45.01002639652679" lon="9.993176569436097"><ele>39.0</ele><time>2026-04-06T09:06:36.999Z</time></trkpt><trkpt lat="45.010088853495894" lon="9.99326759230467"><ele>39.2</ele><time>2026-04-06T09:06:37.999Z</time></trkpt><trkpt lat="45.01015212027708" lon="9.993362498166741"><ele>39.4</ele><time>2026-04-06T09:06:38.999Z</time></trkpt><trkpt lat="45.0102156590963" lon="9.993454857824908"><ele>39.6</ele><time>2026-04-06T09:06:39.999Z</time></trkpt><trkpt lat="45.01027748078494" lon="9.993544153117668"><ele>39.8</ele><time>2026-04-06T09:06:40.999Z</time></trkpt><trkpt lat="45.010339319232585" lon="9.993638845943611"><ele>40.0</ele><time>2026-04-06T09:06:41.999Z</time></trkpt><trkpt lat="45.010401919425306" lon="9.993730025595585"><ele>40.0</ele><time>2026-04-06T09:06:42.999Z</time></trkpt><trkpt lat="45.01046215368543" lon="9.993821819677077"><ele>40.0</ele><time>2026-04-06T09:06:43.999Z</time></trkpt><trkpt lat="45.01052437251723" lon="9.993913711180648"><ele>40.0</ele><time>2026-04-06T09:06:44.999Z</time></trkpt><trkpt lat="45.01058676460649" lon="9.99400229230145"><ele>40.0</ele><time>2026-04-06T09:06:45.999Z</time></trkpt><trkpt lat="45.01064925831836" lon="9.994093143836452"><ele>40.0</ele><time>2026-04-06T09:06:46.999Z</time></trkpt><trkpt lat="45.01071236127084" lon="9.994183086227135"><ele>40.0</ele><time>2026-04-06T09:06:47.999Z</time></trkpt><trkpt lat="45.01077497661533" lon="9.99426986307048"><ele>40.0</ele><time>2026-04-06T09:06:48.999Z</time></trkpt><trkpt lat="45.01083973396816" lon="9.994356970209163"><ele>40.0</ele><time>2026-04-06T09:06:49.999Z</time></trkpt><trkpt lat="45.010905443916" lon="9.99444023643678"><ele>40.0</ele><time>2026-04-06T09:06:50.999Z</time></trkpt><trkpt lat="45.010972147064116" lon="9.994528398574678"><ele>40.0</ele><time>2026-04-06T09:06:51.999Z</time></trkpt><trkpt lat="45.01103683893498" lon="9.99461246478147"><ele>40.0</ele><time>2026-04-06T09:06:52.999Z</time></trkpt><trkpt lat="45.01110434201996" lon="9.99469741296096"><ele>40.0</ele><time>2026-04-06T09:06:53.999Z</time></trkpt><trkpt lat="45.01117190248382" lon="9.994779318803154"><ele>40.0</ele><time>2026-04-06T09:06:54.999Z</time></trkpt><trkpt lat="45.0112377811477" lon="9.99486638147374"><ele>40.0</ele><time>2026-04-06T09:06:55.999Z</time></trkpt><trkpt lat="45.01130270009299" lon="9.994957887638629"><ele>40.0</ele><time>2026-04-06T09:06:56.999Z</time></trkpt><trkpt lat="45.011364527360655" lon="9.995048042634728"><ele>40.0</ele><time>2026-04-06T09:06:57.999Z</time></trkpt><trkpt lat="45.01142564888937" lon="9.995141242992606"><ele>40.0</ele><time>2026-04-06T09:06:58.999Z</time></trkpt><trkpt lat="45.01148749127439" lon="9.99523382404527"><ele>39.833333333333336</ele><time>2026-04-06T09:06:59.999Z</time></trkpt><trkpt lat="45.011548270405534" lon="9.995325389731175"><ele>39.66666666666667</ele><time>2026-04-06T09:07:00.999Z</time></trkpt><trkpt lat="45.01160748866233" lon="9.995420745032702"><ele>39.5</ele><time>2026-04-06T09:07:01.999Z</time></trkpt><trkpt lat="45.011668441419346" lon="9.9955139746636"><ele>39.333333333333336</ele><time>2026-04-06T09:07:02.999Z</time></trkpt><trkpt lat="45.011728857333786" lon="9.99560729236305"><ele>39.166666666666664</ele><time>2026-04-06T09:07:03.999Z</time></trkpt><trkpt lat="45.01178977818615" lon="9.995701396503677"><ele>39.0</ele><time>2026-04-06T09:07:04.999Z</time></trkpt><trkpt lat="45.01184914574963" lon="9.995794655118322"><ele>39.166666666666664</ele><time>2026-04-06T09:07:05.999Z</time></trkpt><trkpt lat="45.011906389523276" lon="9.995887768013992"><ele>39.333333333333336</ele><time>2026-04-06T09:07:06.999Z</time></trkpt><trkpt lat="45.011965371206195" lon="9.995981238837935"><ele>39.5</ele><time>2026-04-06T09:07:07.999Z</time></trkpt><trkpt lat="45.012019929586856" lon="9.996078098534745"><ele>39.66666666666667</ele><time>2026-04-06T09:07:08.999Z</time></trkpt><trkpt lat="45.01207118660547" lon="9.996173425659972"><ele>39.833333333333336</ele><time>2026-04-06T09:07:09.999Z</time></trkpt><trkpt lat="45.012117862684036" lon="9.99627121229794"><ele>40.0</ele><time>2026-04-06T09:07:10.999Z</time></trkpt><trkpt lat="45.012166402082755" lon="9.996363035030274"><ele>40.0</ele><time>2026-04-06T09:07:11.999Z</time></trkpt><trkpt lat="45.01221608279064" lon="9.996451617241656"><ele>40.0</ele><time>2026-04-06T09:07:12.999Z</time></trkpt><trkpt lat="45.01226840843823" lon="9.99653851472183"><ele>40.0</ele><time>2026-04-06T09:07:13.999Z</time></trkpt><trkpt lat="45.012322444759604" lon="9.996627791151946"><ele>40.0</ele><time>2026-04-06T09:07:14.998Z</time></trkpt><trkpt lat="45.01237487296431" lon="9.996722538699649"><ele>40.0</ele><time>2026-04-06T09:07:15.998Z</time></trkpt><trkpt lat="45.01242238943212" lon="9.99681786945525"><ele>40.0</ele><time>2026-04-06T09:07:16.998Z</time></trkpt><trkpt lat="45.01247743958888" lon="9.996916351803563"><ele>39.8</ele><time>2026-04-06T09:07:17.998Z</time></trkpt><trkpt lat="45.012535371417066" lon="9.997014148875436"><ele>39.6</ele><time>2026-04-06T09:07:18.998Z</time></trkpt><trkpt lat="45.0125962187" lon="9.997111521726302"><ele>39.4</ele><time>2026-04-06T09:07:19.998Z</time></trkpt><trkpt lat="45.01265526631109" lon="9.997208093442813"><ele>39.2</ele><time>2026-04-06T09:07:20.998Z</time></trkpt><trkpt lat="45.01271343076289" lon="9.997304278484414"><ele>39.0</ele><time>2026-04-06T09:07:21.998Z</time></trkpt><trkpt lat="45.01276866238845" lon="9.997403151221492"><ele>39.0</ele><time>2026-04-06T09:07:22.998Z</time></trkpt><trkpt lat="45.012826768064905" lon="9.99750028566452"><ele>39.0</ele><time>2026-04-06T09:07:23.998Z</time></trkpt><trkpt lat="45.01288602609001" lon="9.997591759025521"><ele>39.0</ele><time>2026-04-06T09:07:24.998Z</time></trkpt><trkpt lat="45.0129422658165" lon="9.99768386301284"><ele>39.0</ele><time>2026-04-06T09:07:25.998Z</time></trkpt><trkpt lat="45.01299807725846" lon="9.997778958334763"><ele>39.0</ele><time>2026-04-06T09:07:26.998Z</time></trkpt><trkpt lat="45.01305465158109" lon="9.997872069687064"><ele>39.0</ele><time>2026-04-06T09:07:27.998Z</time></trkpt><trkpt lat="45.01310972451712" lon="9.997963200285147"><ele>38.833333333333336</ele><time>2026-04-06T09:07:28.998Z</time></trkpt><trkpt lat="45.01316537320985" lon="9.998054774294804"><ele>38.666666666666664</ele><time>2026-04-06T09:07:29.998Z</time></trkpt><trkpt lat="45.01321842431459" lon="9.998144544195963"><ele>38.5</ele><time>2026-04-06T09:07:30.998Z</time></trkpt><trkpt lat="45.013275685341895" lon="9.99823711613665"><ele>38.33333333333333</ele><time>2026-04-06T09:07:31.998Z</time></trkpt><trkpt lat="45.013330750416195" lon="9.998328374312115"><ele>38.166666666666664</ele><time>2026-04-06T09:07:32.998Z</time></trkpt><trkpt lat="45.01338419959486" lon="9.998418000884417"><ele>38.0</ele><time>2026-04-06T09:07:33.998Z</time></trkpt><trkpt lat="45.01344083454647" lon="9.998510111251669"><ele>38.0</ele><time>2026-04-06T09:07:34.998Z</time></trkpt><trkpt lat="45.0134949934073" lon="9.998600426414312"><ele>38.0</ele><time>2026-04-06T09:07:35.998Z</time></trkpt><trkpt lat="45.01355197069927" lon="9.99869101478659"><ele>38.0</ele><time>2026-04-06T09:07:36.998Z</time></trkpt><trkpt lat="45.01360739362744" lon="9.998780565134119"><ele>38.0</ele><time>2026-04-06T09:07:37.998Z</time></trkpt><trkpt lat="45.01366340133376" lon="9.998868944429669"><ele>38.0</ele><time>2026-04-06T09:07:38.998Z</time></trkpt><trkpt lat="45.01371661172968" lon="9.99895879305437"><ele>38.0</ele><time>2026-04-06T09:07:39.998Z</time></trkpt><trkpt lat="45.013771564171044" lon="9.99904625221701"><ele>38.0</ele><time>2026-04-06T09:07:40.998Z</time></trkpt><trkpt lat="45.013824723649435" lon="9.999134025901899"><ele>38.0</ele><time>2026-04-06T09:07:41.998Z</time></trkpt><trkpt lat="45.013880273505485" lon="9.999221940299389"><ele>38.0</ele><time>2026-04-06T09:07:42.998Z</time></trkpt><trkpt lat="45.01393462100444" lon="9.999310872640244"><ele>38.0</ele><time>2026-04-06T09:07:43.998Z</time></trkpt><trkpt lat="45.01398726177443" lon="9.999397914439209"><ele>38.0</ele><time>2026-04-06T09:07:44.998Z</time></trkpt><trkpt lat="45.014041359387356" lon="9.999484094892711"><ele>38.0</ele><time>2026-04-06T09:07:45.998Z</time></trkpt><trkpt lat="45.0140938193884" lon="9.99957157070294"><ele>37.83333333333333</ele><time>2026-04-06T09:07:46.998Z</time></trkpt><trkpt lat="45.01414725357175" lon="9.99965676346964"><ele>37.666666666666664</ele><time>2026-04-06T09:07:47.998Z</time></trkpt><trkpt lat="45.01420100421958" lon="9.999743431496702"><ele>37.5</ele><time>2026-04-06T09:07:48.998Z</time></trkpt><trkpt lat="45.01425422511032" lon="9.999832583670512"><ele>37.333333333333336</ele><time>2026-04-06T09:07:49.998Z</time></trkpt><trkpt lat="45.01430622447496" lon="9.999919642608733"><ele>37.16666666666667</ele><time>2026-04-06T09:07:50.998Z</time></trkpt><trkpt lat="45.01435901450814" lon="10.000006486743862"><ele>37.0</ele><time>2026-04-06T09:07:51.998Z</time></trkpt><trkpt lat="45.0144120708695" lon="10.000095865181882"><ele>37.333333333333336</ele><time>2026-04-06T09:07:52.998Z</time></trkpt><trkpt lat="45.01446668396642" lon="10.000182418741334"><ele>37.66666666666667</ele><time>2026-04-06T09:07:53.998Z</time></trkpt><trkpt lat="45.01451973805614" lon="10.00026836417031"><ele>38.0</ele><time>2026-04-06T09:07:54.998Z</time></trkpt><trkpt lat="45.014571051946604" lon="10.000355023078175"><ele>38.333333333333336</ele><time>2026-04-06T09:07:55.998Z</time></trkpt><trkpt lat="45.01462628806834" lon="10.000444199644159"><ele>38.666666666666664</ele><time>2026-04-06T09:07:56.998Z</time></trkpt><trkpt lat="45.014681399224806" lon="10.000531840442164"><ele>39.0</ele><time>2026-04-06T09:07:57.998Z</time></trkpt><trkpt lat="45.014734580306076" lon="10.000620688888292"><ele>39.0</ele><time>2026-04-06T09:07:58.998Z</time></trkpt><trkpt lat="45.01478858785339" lon="10.000708023178893"><ele>39.0</ele><time>2026-04-06T09:07:59.998Z</time></trkpt><trkpt lat="45.0148448749671" lon="10.000797115655336"><ele>39.0</ele><time>2026-04-06T09:08:00.998Z</time></trkpt><trkpt lat="45.0148978546376" lon="10.000887059618286"><ele>39.0</ele><time>2026-04-06T09:08:02Z</time></trkpt><trkpt lat="45.0149518053924" lon="10.00097616985116"><ele>39.0</ele><time>2026-04-06T09:08:03Z</time></trkpt><trkpt lat="45.01500698176016" lon="10.001063988984713"><ele>39.0</ele><time>2026-04-06T09:08:04Z</time></trkpt><trkpt lat="45.01506208883227" lon="10.001152938241793"><ele>38.833333333333336</ele><time>2026-04-06T09:08:05Z</time></trkpt><trkpt lat="45.015113005985114" lon="10.001238735334935"><ele>38.666666666666664</ele><time>2026-04-06T09:08:06Z</time></trkpt><trkpt lat="45.01516740654164" lon="10.001326031395255"><ele>38.5</ele><time>2026-04-06T09:08:07Z</time></trkpt><trkpt lat="45.01522092253528" lon="10.001414237419786"><ele>38.33333333333333</ele><time>2026-04-06T09:08:08Z</time></trkpt><trkpt lat="45.015275693525" lon="10.001507480210696"><ele>38.166666666666664</ele><time>2026-04-06T09:08:09Z</time></trkpt><trkpt lat="45.01532721449347" lon="10.00159325985579"><ele>38.0</ele><time>2026-04-06T09:08:10Z</time></trkpt><trkpt lat="45.015384109645176" lon="10.001676636933484"><ele>38.5</ele><time>2026-04-06T09:08:11Z</time></trkpt><trkpt lat="45.01543872959591" lon="10.001756976138303"><ele>39.0</ele><time>2026-04-06T09:08:12Z</time></trkpt><trkpt lat="45.01548830513952" lon="10.001840470026465"><ele>39.5</ele><time>2026-04-06T09:08:13Z</time></trkpt><trkpt lat="45.01553846761944" lon="10.00192126124462"><ele>40.0</ele><time>2026-04-06T09:08:14Z</time></trkpt><trkpt lat="45.015589934762" lon="10.001995428095805"><ele>40.5</ele><time>2026-04-06T09:08:15Z</time></trkpt><trkpt lat="45.01564266846664" lon="10.002073982108076"><ele>41.0</ele><time>2026-04-06T09:08:16Z</time></trkpt><trkpt lat="45.01569127002718" lon="10.002155540553915"><ele>40.99999999999999</ele><time>2026-04-06T09:08:17Z</time></trkpt><trkpt lat="45.01573840068354" lon="10.002234609120334"><ele>41.0</ele><time>2026-04-06T09:08:18Z</time></trkpt><trkpt lat="45.01578268216725" lon="10.002312361442392"><ele>41.0</ele><time>2026-04-06T09:08:19Z</time></trkpt><trkpt lat="45.01583004984123" lon="10.002387325228447"><ele>41.0</ele><time>2026-04-06T09:08:20Z</time></trkpt><trkpt lat="45.015877549079455" lon="10.002465223690338"><ele>41.0</ele><time>2026-04-06T09:08:21Z</time></trkpt><trkpt lat="45.0159258373208" lon="10.00254616778744"><ele>40.99999999999999</ele><time>2026-04-06T09:08:22Z</time></trkpt><trkpt lat="45.01597410716362" lon="10.00263180810049"><ele>41.0</ele><time>2026-04-06T09:08:23Z</time></trkpt><trkpt lat="45.016025285139555" lon="10.002715253557513"><ele>40.5</ele><time>2026-04-06T09:08:24Z</time></trkpt><trkpt lat="45.01607707093278" lon="10.002797708824207"><ele>40.0</ele><time>2026-04-06T09:08:25Z</time></trkpt><trkpt lat="45.01612569216339" lon="10.00287788843824"><ele>39.5</ele><time>2026-04-06T09:08:26Z</time></trkpt><trkpt lat="45.01617416048856" lon="10.002957670318175"><ele>39.0</ele><time>2026-04-06T09:08:26.999Z</time></trkpt><trkpt lat="45.016224075643635" lon="10.00304018864424"><ele>38.5</ele><time>2026-04-06T09:08:27.999Z</time></trkpt><trkpt lat="45.01627625220961" lon="10.00312270292009"><ele>38.0</ele><time>2026-04-06T09:08:28.999Z</time></trkpt><trkpt lat="45.016325981109574" lon="10.003206546459134"><ele>38.0</ele><time>2026-04-06T09:08:29.999Z</time></trkpt><trkpt lat="45.01637655965501" lon="10.003287935051791"><ele>38.0</ele><time>2026-04-06T09:08:30.999Z</time></trkpt><trkpt lat="45.016426137643144" lon="10.003377682433957"><ele>38.0</ele><time>2026-04-06T09:08:31.999Z</time></trkpt><trkpt lat="45.01647896193116" lon="10.003466843392593"><ele>38.0</ele><time>2026-04-06T09:08:32.999Z</time></trkpt><trkpt lat="45.01653301605217" lon="10.003564219041628"><ele>38.0</ele><time>2026-04-06T09:08:33.999Z</time></trkpt><trkpt lat="45.016589461354606" lon="10.003660012112066"><ele>38.0</ele><time>2026-04-06T09:08:34.999Z</time></trkpt><trkpt lat="45.016651671889626" lon="10.003754070301575"><ele>38.0</ele><time>2026-04-06T09:08:35.999Z</time></trkpt><trkpt lat="45.0167140176337" lon="10.003851878838596"><ele>38.0</ele><time>2026-04-06T09:08:36.999Z</time></trkpt><trkpt lat="45.01677250615132" lon="10.003950880303403"><ele>38.0</ele><time>2026-04-06T09:08:37.999Z</time></trkpt><trkpt lat="45.016832794750336" lon="10.004050595757324"><ele>38.0</ele><time>2026-04-06T09:08:38.999Z</time></trkpt><trkpt lat="45.01689401274318" lon="10.00415303425643"><ele>38.0</ele><time>2026-04-06T09:08:39.999Z</time></trkpt><trkpt lat="45.01695492945802" lon="10.004256124071592"><ele>38.0</ele><time>2026-04-06T09:08:40.999Z</time></trkpt><trkpt lat="45.01701804319101" lon="10.004356653664322"><ele>38.0</ele><time>2026-04-06T09:08:41.999Z</time></trkpt><trkpt lat="45.01707955411238" lon="10.004454837175773"><ele>38.0</ele><time>2026-04-06T09:08:42.999Z</time></trkpt><trkpt lat="45.01713861094985" lon="10.004551952105132"><ele>38.0</ele><time>2026-04-06T09:08:43.999Z</time></trkpt><trkpt lat="45.017197317562704" lon="10.00464828003259"><ele>38.0</ele><time>2026-04-06T09:08:44.999Z</time></trkpt><trkpt lat="45.017255538964335" lon="10.004745889406198"><ele>38.0</ele><time>2026-04-06T09:08:45.999Z</time></trkpt><trkpt lat="45.01731197493841" lon="10.004842784703769"><ele>38.0</ele><time>2026-04-06T09:08:46.999Z</time></trkpt><trkpt lat="45.01736864109441" lon="10.00493885914721"><ele>38.0</ele><time>2026-04-06T09:08:47.999Z</time></trkpt><trkpt lat="45.01742704696263" lon="10.005036924600564"><ele>38.0</ele><time>2026-04-06T09:08:48.999Z</time></trkpt><trkpt lat="45.01748674920916" lon="10.005136926540217"><ele>38.0</ele><time>2026-04-06T09:08:49.999Z</time></trkpt><trkpt lat="45.01754694176381" lon="10.005234578261126"><ele>38.166666666666664</ele><time>2026-04-06T09:08:50.999Z</time></trkpt><trkpt lat="45.01760662491242" lon="10.005329539556536"><ele>38.33333333333333</ele><time>2026-04-06T09:08:51.999Z</time></trkpt><trkpt lat="45.01766651971958" lon="10.005428615671368"><ele>38.5</ele><time>2026-04-06T09:08:52.999Z</time></trkpt><trkpt lat="45.01772287127949" lon="10.005524316373178"><ele>38.666666666666664</ele><time>2026-04-06T09:08:53.999Z</time></trkpt><trkpt lat="45.01778049928313" lon="10.005620976099044"><ele>38.833333333333336</ele><time>2026-04-06T09:08:54.999Z</time></trkpt><trkpt lat="45.01783887599405" lon="10.005715862048069"><ele>39.0</ele><time>2026-04-06T09:08:55.999Z</time></trkpt><trkpt lat="45.017897274402" lon="10.005810979163064"><ele>39.0</ele><time>2026-04-06T09:08:56.999Z</time></trkpt><trkpt lat="45.01795612226585" lon="10.005909370732512"><ele>39.0</ele><time>2026-04-06T09:08:57.999Z</time></trkpt><trkpt lat="45.01801528810461" lon="10.006003334708984"><ele>39.0</ele><time>2026-04-06T09:08:58.999Z</time></trkpt><trkpt lat="45.018074314758216" lon="10.006100834432706"><ele>39.0</ele><time>2026-04-06T09:08:59.999Z</time></trkpt><trkpt lat="45.01813428189042" lon="10.00619953903144"><ele>39.0</ele><time>2026-04-06T09:09:00.999Z</time></trkpt><trkpt lat="45.01819138517346" lon="10.006297608908675"><ele>39.0</ele><time>2026-04-06T09:09:01.999Z</time></trkpt><trkpt lat="45.018250233731884" lon="10.006393378608525"><ele>39.0</ele><time>2026-04-06T09:09:02.999Z</time></trkpt><trkpt lat="45.018311129640644" lon="10.006489649700692"><ele>39.0</ele><time>2026-04-06T09:09:03.999Z</time></trkpt><trkpt lat="45.01837132893133" lon="10.00658488036518"><ele>39.0</ele><time>2026-04-06T09:09:04.999Z</time></trkpt><trkpt lat="45.01843165436597" lon="10.006682228205223"><ele>39.0</ele><time>2026-04-06T09:09:05.999Z</time></trkpt><trkpt lat="45.0184882746339" lon="10.006777066587834"><ele>38.833333333333336</ele><time>2026-04-06T09:09:06.999Z</time></trkpt><trkpt lat="45.01854533622906" lon="10.006871089851774"><ele>38.666666666666664</ele><time>2026-04-06T09:09:07.999Z</time></trkpt><trkpt lat="45.018601290796795" lon="10.006968937871944"><ele>38.5</ele><time>2026-04-06T09:09:08.999Z</time></trkpt><trkpt lat="45.01865877864743" lon="10.007064944725103"><ele>38.33333333333333</ele><time>2026-04-06T09:09:09.999Z</time></trkpt><trkpt lat="45.018718493341005" lon="10.007158534349589"><ele>38.166666666666664</ele><time>2026-04-06T09:09:10.999Z</time></trkpt><trkpt lat="45.01877764833892" lon="10.007255259465097"><ele>38.0</ele><time>2026-04-06T09:09:11.999Z</time></trkpt><trkpt lat="45.01883874476913" lon="10.0073500288296"><ele>38.0</ele><time>2026-04-06T09:09:12.999Z</time></trkpt><trkpt lat="45.01889993583477" lon="10.007447912960474"><ele>38.0</ele><time>2026-04-06T09:09:13.999Z</time></trkpt><trkpt lat="45.018956910896414" lon="10.007544652103253"><ele>38.0</ele><time>2026-04-06T09:09:14.999Z</time></trkpt><trkpt lat="45.01901524576058" lon="10.007642506511539"><ele>38.0</ele><time>2026-04-06T09:09:15.999Z</time></trkpt><trkpt lat="45.01907401507317" lon="10.007734439538389"><ele>38.0</ele><time>2026-04-06T09:09:16.999Z</time></trkpt><trkpt lat="45.019133446419076" lon="10.007823567492917"><ele>38.0</ele><time>2026-04-06T09:09:17.999Z</time></trkpt><trkpt lat="45.01918651163888" lon="10.007914403579205"><ele>38.166666666666664</ele><time>2026-04-06T09:09:18.999Z</time></trkpt><trkpt lat="45.01924223168107" lon="10.008002288129548"><ele>38.33333333333333</ele><time>2026-04-06T09:09:19.998Z</time></trkpt><trkpt lat="45.01929480732046" lon="10.008088529500903"><ele>38.5</ele><time>2026-04-06T09:09:20.998Z</time></trkpt><trkpt lat="45.01934826011434" lon="10.00817817365778"><ele>38.666666666666664</ele><time>2026-04-06T09:09:21.998Z</time></trkpt><trkpt lat="45.01940262948733" lon="10.008267236686349"><ele>38.833333333333336</ele><time>2026-04-06T09:09:22.998Z</time></trkpt><trkpt lat="45.01945447319463" lon="10.00835327375098"><ele>39.0</ele><time>2026-04-06T09:09:23.998Z</time></trkpt><trkpt lat="45.01950587666069" lon="10.008439853631973"><ele>39.0</ele><time>2026-04-06T09:09:24.998Z</time></trkpt><trkpt lat="45.019558046124054" lon="10.00852407146229"><ele>39.0</ele><time>2026-04-06T09:09:25.998Z</time></trkpt><trkpt lat="45.01960744358824" lon="10.00860756304328"><ele>39.0</ele><time>2026-04-06T09:09:26.998Z</time></trkpt><trkpt lat="45.01965691206978" lon="10.00869033907102"><ele>39.0</ele><time>2026-04-06T09:09:27.998Z</time></trkpt><trkpt lat="45.01970698465877" lon="10.008769631488828"><ele>39.0</ele><time>2026-04-06T09:09:28.998Z</time></trkpt><trkpt lat="45.01975501337189" lon="10.008841631193656"><ele>39.0</ele><time>2026-04-06T09:09:29.998Z</time></trkpt><trkpt lat="45.019823236605326" lon="10.008944329290616"><ele>39.0</ele><time>2026-04-06T09:09:31.998Z</time></trkpt><trkpt lat="45.01987354691567" lon="10.00901642062319"><ele>39.0</ele><time>2026-04-06T09:09:33.998Z</time></trkpt><trkpt lat="45.01992401043187" lon="10.00907670082405"><ele>39.0</ele><time>2026-04-06T09:09:36.998Z</time></trkpt><trkpt lat="45.020003656896286" lon="10.009092758382065"><ele>39.0</ele><time>2026-04-06T09:09:44.998Z</time></trkpt><trkpt lat="45.020086893776195" lon="10.008969173429355"><ele>39.0</ele><time>2026-04-06T09:09:47.998Z</time></trkpt><trkpt lat="45.020147166864746" lon="10.00886665078364"><ele>39.0</ele><time>2026-04-06T09:09:49.998Z</time></trkpt><trkpt lat="45.02020863986447" lon="10.008751222799544"><ele>38.8</ele><time>2026-04-06T09:09:51.998Z</time></trkpt><trkpt lat="45.02027762248733" lon="10.00862180925833"><ele>38.599999999999994</ele><time>2026-04-06T09:09:53.998Z</time></trkpt><trkpt lat="45.0203471394881" lon="10.008484147765069"><ele>38.4</ele><time>2026-04-06T09:09:55.998Z</time></trkpt><trkpt lat="45.02041999348356" lon="10.008335985040507"><ele>38.199999999999996</ele><time>2026-04-06T09:09:57.998Z</time></trkpt><trkpt lat="45.020456865733046" lon="10.008259917853149"><ele>38.0</ele><time>2026-04-06T09:09:58.998Z</time></trkpt><trkpt lat="45.020498889723505" lon="10.008184212101032"><ele>38.0</ele><time>2026-04-06T09:09:59.998Z</time></trkpt><trkpt lat="45.020536852238244" lon="10.00810517310366"><ele>38.0</ele><time>2026-04-06T09:10:00.998Z</time></trkpt><trkpt lat="45.02057438627769" lon="10.008023665030388"><ele>38.0</ele><time>2026-04-06T09:10:01.998Z</time></trkpt><trkpt lat="45.02061544898005" lon="10.007943796174652"><ele>38.0</ele><time>2026-04-06T09:10:02.998Z</time></trkpt><trkpt lat="45.020656416838904" lon="10.007862601560397"><ele>38.0</ele><time>2026-04-06T09:10:03.998Z</time></trkpt><trkpt lat="45.02069888129995" lon="10.007782319292001"><ele>38.0</ele><time>2026-04-06T09:10:04.998Z</time></trkpt><trkpt lat="45.02074388923003" lon="10.007698971233985"><ele>38.0</ele><time>2026-04-06T09:10:05.998Z</time></trkpt><trkpt lat="45.02078697700335" lon="10.00761117269441"><ele>38.0</ele><time>2026-04-06T09:10:06.998Z</time></trkpt><trkpt lat="45.02083063245467" lon="10.00752539739955"><ele>38.0</ele><time>2026-04-06T09:10:08Z</time></trkpt><trkpt lat="45.02087341310173" lon="10.007433389666769"><ele>38.0</ele><time>2026-04-06T09:10:09Z</time></trkpt><trkpt lat="45.020916235828324" lon="10.007344855657143"><ele>38.0</ele><time>2026-04-06T09:10:10Z</time></trkpt><trkpt lat="45.02095887514426" lon="10.0072573605553"><ele>38.0</ele><time>2026-04-06T09:10:11Z</time></trkpt><trkpt lat="45.02100272513133" lon="10.00717285057698"><ele>38.0</ele><time>2026-04-06T09:10:12Z</time></trkpt><trkpt lat="45.02104809358075" lon="10.007084447440983"><ele>38.0</ele><time>2026-04-06T09:10:13Z</time></trkpt><trkpt lat="45.021094788445396" lon="10.006994500908702"><ele>38.0</ele><time>2026-04-06T09:10:14Z</time></trkpt><trkpt lat="45.02114064471479" lon="10.006903593620304"><ele>38.0</ele><time>2026-04-06T09:10:15Z</time></trkpt><trkpt lat="45.02118519706161" lon="10.006809820023053"><ele>38.0</ele><time>2026-04-06T09:10:16Z</time></trkpt><trkpt lat="45.02123367604846" lon="10.006713012243612"><ele>38.0</ele><time>2026-04-06T09:10:17Z</time></trkpt><trkpt lat="45.02128389689468" lon="10.006616537320177"><ele>38.0</ele><time>2026-04-06T09:10:18Z</time></trkpt><trkpt lat="45.021335698686265" lon="10.006522054631432"><ele>37.5</ele><time>2026-04-06T09:10:19Z</time></trkpt><trkpt lat="45.02138361123503" lon="10.00642354764797"><ele>37.0</ele><time>2026-04-06T09:10:20Z</time></trkpt><trkpt lat="45.02143369873563" lon="10.006325459106629"><ele>36.5</ele><time>2026-04-06T09:10:21Z</time></trkpt><trkpt lat="45.021481745801886" lon="10.006227893905594"><ele>36.0</ele><time>2026-04-06T09:10:22Z</time></trkpt><trkpt lat="45.02153305498047" lon="10.006129409362597"><ele>35.5</ele><time>2026-04-06T09:10:23Z</time></trkpt><trkpt lat="45.02158331365644" lon="10.006031448023847"><ele>35.0</ele><time>2026-04-06T09:10:24Z</time></trkpt><trkpt lat="45.021631554319086" lon="10.00593003999213"><ele>35.33333333333333</ele><time>2026-04-06T09:10:25Z</time></trkpt><trkpt lat="45.02168002252615" lon="10.005828253106234"><ele>35.666666666666664</ele><time>2026-04-06T09:10:26Z</time></trkpt><trkpt lat="45.02173267181148" lon="10.005727141554187"><ele>36.0</ele><time>2026-04-06T09:10:27Z</time></trkpt><trkpt lat="45.021782413449486" lon="10.005626870511259"><ele>36.333333333333336</ele><time>2026-04-06T09:10:28Z</time></trkpt><trkpt lat="45.02183338851153" lon="10.00552503277649"><ele>36.66666666666667</ele><time>2026-04-06T09:10:29Z</time></trkpt><trkpt lat="45.02188526158817" lon="10.005421589732803"><ele>37.0</ele><time>2026-04-06T09:10:30Z</time></trkpt><trkpt lat="45.021936363179506" lon="10.005318298263457"><ele>37.0</ele><time>2026-04-06T09:10:31Z</time></trkpt><trkpt lat="45.02198854035543" lon="10.005217252707764"><ele>37.0</ele><time>2026-04-06T09:10:31.999Z</time></trkpt><trkpt lat="45.02203984870796" lon="10.005113964877747"><ele>37.0</ele><time>2026-04-06T09:10:32.999Z</time></trkpt><trkpt lat="45.02209333653237" lon="10.005011786082283"><ele>37.0</ele><time>2026-04-06T09:10:33.999Z</time></trkpt><trkpt lat="45.02214779651266" lon="10.004912264993774"><ele>37.0</ele><time>2026-04-06T09:10:34.999Z</time></trkpt><trkpt lat="45.02219849622975" lon="10.004813746628765"><ele>37.0</ele><time>2026-04-06T09:10:35.999Z</time></trkpt><trkpt lat="45.02224755340467" lon="10.004711115279072"><ele>37.16666666666667</ele><time>2026-04-06T09:10:36.999Z</time></trkpt><trkpt lat="45.022298527604185" lon="10.004609938576147"><ele>37.333333333333336</ele><time>2026-04-06T09:10:37.999Z</time></trkpt><trkpt lat="45.02235093201515" lon="10.004511596780986"><ele>37.5</ele><time>2026-04-06T09:10:38.999Z</time></trkpt><trkpt lat="45.02240234067739" lon="10.004412371584648"><ele>37.666666666666664</ele><time>2026-04-06T09:10:39.999Z</time></trkpt><trkpt lat="45.02245215220479" lon="10.004314716365725"><ele>37.83333333333333</ele><time>2026-04-06T09:10:40.999Z</time></trkpt><trkpt lat="45.02250048129561" lon="10.004216211669998"><ele>38.0</ele><time>2026-04-06T09:10:41.999Z</time></trkpt><trkpt lat="45.02254735513929" lon="10.004121038792075"><ele>37.666666666666664</ele><time>2026-04-06T09:10:42.999Z</time></trkpt><trkpt lat="45.022597679913765" lon="10.004029670409823"><ele>37.33333333333333</ele><time>2026-04-06T09:10:43.999Z</time></trkpt><trkpt lat="45.02264799858206" lon="10.00393592909038"><ele>37.0</ele><time>2026-04-06T09:10:44.999Z</time></trkpt><trkpt lat="45.022697834827426" lon="10.003840453293147"><ele>36.666666666666664</ele><time>2026-04-06T09:10:45.999Z</time></trkpt><trkpt lat="45.022747717350065" lon="10.00374391664301"><ele>36.333333333333336</ele><time>2026-04-06T09:10:46.999Z</time></trkpt><trkpt lat="45.0227974593719" lon="10.003646975653533"><ele>36.0</ele><time>2026-04-06T09:10:47.999Z</time></trkpt><trkpt lat="45.02284631359548" lon="10.003550355845347"><ele>36.0</ele><time>2026-04-06T09:10:48.999Z</time></trkpt><trkpt lat="45.022897482557326" lon="10.003453221017589"><ele>36.0</ele><time>2026-04-06T09:10:49.999Z</time></trkpt><trkpt lat="45.02294782994114" lon="10.003356116295373"><ele>36.0</ele><time>2026-04-06T09:10:50.999Z</time></trkpt><trkpt lat="45.02299675598417" lon="10.003260386370044"><ele>36.0</ele><time>2026-04-06T09:10:51.999Z</time></trkpt><trkpt lat="45.02304594906963" lon="10.003165772993253"><ele>36.0</ele><time>2026-04-06T09:10:52.999Z</time></trkpt><trkpt lat="45.02309283090736" lon="10.003072045267874"><ele>36.0</ele><time>2026-04-06T09:10:53.999Z</time></trkpt><trkpt lat="45.023140165253565" lon="10.002976930170917"><ele>36.166666666666664</ele><time>2026-04-06T09:10:54.999Z</time></trkpt><trkpt lat="45.02318657697715" lon="10.002884501938627"><ele>36.333333333333336</ele><time>2026-04-06T09:10:55.999Z</time></trkpt><trkpt lat="45.02323318557227" lon="10.002790519969308"><ele>36.5</ele><time>2026-04-06T09:10:56.999Z</time></trkpt><trkpt lat="45.02328256485899" lon="10.002696693113117"><ele>36.66666666666667</ele><time>2026-04-06T09:10:57.999Z</time></trkpt><trkpt lat="45.023331230197165" lon="10.002604396624802"><ele>36.833333333333336</ele><time>2026-04-06T09:10:58.999Z</time></trkpt><trkpt lat="45.02338415849179" lon="10.002513544243344"><ele>37.0</ele><time>2026-04-06T09:10:59.999Z</time></trkpt><trkpt lat="45.02343854124258" lon="10.002426486575873"><ele>37.0</ele><time>2026-04-06T09:11:00.999Z</time></trkpt><trkpt lat="45.02349906199742" lon="10.002346651545253"><ele>37.0</ele><time>2026-04-06T09:11:01.999Z</time></trkpt><trkpt lat="45.02356066086481" lon="10.002272123908991"><ele>37.0</ele><time>2026-04-06T09:11:02.999Z</time></trkpt><trkpt lat="45.02362292707189" lon="10.002196501504141"><ele>37.0</ele><time>2026-04-06T09:11:03.999Z</time></trkpt><trkpt lat="45.023685772974694" lon="10.002121874707061"><ele>37.0</ele><time>2026-04-06T09:11:04.999Z</time></trkpt><trkpt lat="45.023752401394916" lon="10.002046731677654"><ele>37.0</ele><time>2026-04-06T09:11:05.999Z</time></trkpt><trkpt lat="45.02381701776543" lon="10.001974538500411"><ele>37.0</ele><time>2026-04-06T09:11:06.999Z</time></trkpt><trkpt lat="45.02388265718574" lon="10.001901299124773"><ele>37.0</ele><time>2026-04-06T09:11:07.999Z</time></trkpt><trkpt lat="45.02394605652298" lon="10.001826030184278"><ele>37.0</ele><time>2026-04-06T09:11:08.999Z</time></trkpt><trkpt lat="45.0240112213294" lon="10.00175502125587"><ele>37.0</ele><time>2026-04-06T09:11:09.999Z</time></trkpt><trkpt lat="45.024076271613744" lon="10.001678792589281"><ele>37.0</ele><time>2026-04-06T09:11:10.999Z</time></trkpt><trkpt lat="45.02414116740476" lon="10.001607652462"><ele>37.0</ele><time>2026-04-06T09:11:11.999Z</time></trkpt><trkpt lat="45.02420613392249" lon="10.00153265341265"><ele>37.5</ele><time>2026-04-06T09:11:12.999Z</time></trkpt><trkpt lat="45.02426995728001" lon="10.001457091040983"><ele>38.0</ele><time>2026-04-06T09:11:13.999Z</time></trkpt><trkpt lat="45.024332733439834" lon="10.001383181944252"><ele>38.5</ele><time>2026-04-06T09:11:14.999Z</time></trkpt><trkpt lat="45.02439675798877" lon="10.001309342066671"><ele>39.0</ele><time>2026-04-06T09:11:15.999Z</time></trkpt><trkpt lat="45.02445905844244" lon="10.001235312136032"><ele>39.5</ele><time>2026-04-06T09:11:16.999Z</time></trkpt><trkpt lat="45.02451565591803" lon="10.001165007213432"><ele>40.0</ele><time>2026-04-06T09:11:17.999Z</time></trkpt><trkpt lat="45.02457466960021" lon="10.001103385228623"><ele>40.0</ele><time>2026-04-06T09:11:18.999Z</time></trkpt><trkpt lat="45.024632612458404" lon="10.001041329463318"><ele>40.0</ele><time>2026-04-06T09:11:19.999Z</time></trkpt><trkpt lat="45.02468727322898" lon="10.000976380401097"><ele>40.0</ele><time>2026-04-06T09:11:20.999Z</time></trkpt><trkpt lat="45.02473908883591" lon="10.00091745573555"><ele>40.0</ele><time>2026-04-06T09:11:21.999Z</time></trkpt><trkpt lat="45.02479095332476" lon="10.000860332667433"><ele>40.0</ele><time>2026-04-06T09:11:22.999Z</time></trkpt><trkpt lat="45.024875062131194" lon="10.000763174141815"><ele>40.0</ele><time>2026-04-06T09:11:24.998Z</time></trkpt><trkpt lat="45.02493578321961" lon="10.000688661199948"><ele>40.5</ele><time>2026-04-06T09:11:26.998Z</time></trkpt><trkpt lat="45.024993747898975" lon="10.000633612151994"><ele>41.0</ele><time>2026-04-06T09:11:28.998Z</time></trkpt><trkpt lat="45.02506023133534" lon="10.000556842741924"><ele>41.5</ele><time>2026-04-06T09:11:31.998Z</time></trkpt><trkpt lat="45.025132253123445" lon="10.000479502901465"><ele>42.0</ele><time>2026-04-06T09:11:34.998Z</time></trkpt><trkpt lat="45.02518286458539" lon="10.000413722608073"><ele>42.5</ele><time>2026-04-06T09:11:36.998Z</time></trkpt><trkpt lat="45.02525286418526" lon="10.00033863569444"><ele>43.0</ele><time>2026-04-06T09:11:38.998Z</time></trkpt><trkpt lat="45.02532440106204" lon="10.000254127259728"><ele>43.0</ele><time>2026-04-06T09:11:40.998Z</time></trkpt><trkpt lat="45.025404940019214" lon="10.000156215190946"><ele>43.0</ele><time>2026-04-06T09:11:42.998Z</time></trkpt><trkpt lat="45.02548006879308" lon="10.000079408875063"><ele>43.0</ele><time>2026-04-06T09:11:44.998Z</time></trkpt><trkpt lat="45.02555080750139" lon="9.999996619694656"><ele>43.0</ele><time>2026-04-06T09:11:46.998Z</time></trkpt><trkpt lat="45.025622181803186" lon="9.999895788438101"><ele>43.0</ele><time>2026-04-06T09:11:48.998Z</time></trkpt><trkpt lat="45.02568429784624" lon="9.99975823186508"><ele>43.0</ele><time>2026-04-06T09:11:50.998Z</time></trkpt><trkpt lat="45.02574199640044" lon="9.999599267004587"><ele>43.0</ele><time>2026-04-06T09:11:52.998Z</time></trkpt><trkpt lat="45.02577669302725" lon="9.999512223719485"><ele>43.0</ele><time>2026-04-06T09:11:53.998Z</time></trkpt><trkpt lat="45.025808502896794" lon="9.999426611817935"><ele>43.0</ele><time>2026-04-06T09:11:54.998Z</time></trkpt><trkpt lat="45.02584156733071" lon="9.999340109163786"><ele>43.0</ele><time>2026-04-06T09:11:55.998Z</time></trkpt><trkpt lat="45.025876056492216" lon="9.99925331924985"><ele>43.0</ele><time>2026-04-06T09:11:56.998Z</time></trkpt><trkpt lat="45.025908787956304" lon="9.999167411745486"><ele>42.85714285714286</ele><time>2026-04-06T09:11:57.998Z</time></trkpt><trkpt lat="45.0259434474237" lon="9.999078917734776"><ele>42.714285714285715</ele><time>2026-04-06T09:11:58.998Z</time></trkpt><trkpt lat="45.02598480547863" lon="9.998993628408774"><ele>42.57142857142857</ele><time>2026-04-06T09:11:59.998Z</time></trkpt><trkpt lat="45.02602135779158" lon="9.998905653448716"><ele>42.42857142857143</ele><time>2026-04-06T09:12:00.998Z</time></trkpt><trkpt lat="45.02605786556956" lon="9.998818910916366"><ele>42.285714285714285</ele><time>2026-04-06T09:12:01.998Z</time></trkpt><trkpt lat="45.02609093009728" lon="9.998733387896777"><ele>42.142857142857146</ele><time>2026-04-06T09:12:02.998Z</time></trkpt><trkpt lat="45.02612666158747" lon="9.998648615647525"><ele>42.0</ele><time>2026-04-06T09:12:03.998Z</time></trkpt><trkpt lat="45.02616472543186" lon="9.998559070073584"><ele>42.0</ele><time>2026-04-06T09:12:04.998Z</time></trkpt><trkpt lat="45.02620444474395" lon="9.998470493760752"><ele>42.0</ele><time>2026-04-06T09:12:05.998Z</time></trkpt><trkpt lat="45.02624431363311" lon="9.998378251843489"><ele>42.0</ele><time>2026-04-06T09:12:06.998Z</time></trkpt><trkpt lat="45.02628464958365" lon="9.998284847550515"><ele>42.0</ele><time>2026-04-06T09:12:07.998Z</time></trkpt><trkpt lat="45.026324531478394" lon="9.99818926612925"><ele>42.0</ele><time>2026-04-06T09:12:08.998Z</time></trkpt><trkpt lat="45.02636399206987" lon="9.998092328517671"><ele>42.0</ele><time>2026-04-06T09:12:09.998Z</time></trkpt><trkpt lat="45.02640173568039" lon="9.99799612472989"><ele>42.166666666666664</ele><time>2026-04-06T09:12:10.998Z</time></trkpt><trkpt lat="45.02644254759325" lon="9.997901661091264"><ele>42.333333333333336</ele><time>2026-04-06T09:12:11.998Z</time></trkpt><trkpt lat="45.02648289806616" lon="9.997809027616363"><ele>42.5</ele><time>2026-04-06T09:12:12.998Z</time></trkpt><trkpt lat="45.02652643132238" lon="9.997722452825801"><ele>42.66666666666667</ele><time>2026-04-06T09:12:14Z</time></trkpt><trkpt lat="45.02658578207567" lon="9.99765018331975"><ele>42.833333333333336</ele><time>2026-04-06T09:12:15Z</time></trkpt><trkpt lat="45.02665294569177" lon="9.99758311572815"><ele>43.0</ele><time>2026-04-06T09:12:16Z</time></trkpt><trkpt lat="45.02673464210824" lon="9.997552565494113"><ele>42.66666666666667</ele><time>2026-04-06T09:12:17Z</time></trkpt><trkpt lat="45.02682471724173" lon="9.997569067767925"><ele>42.333333333333336</ele><time>2026-04-06T09:12:18Z</time></trkpt><trkpt lat="45.02690618478892" lon="9.997623098110681"><ele>42.0</ele><time>2026-04-06T09:12:19Z</time></trkpt><trkpt lat="45.02698331427333" lon="9.99768754027179"><ele>41.666666666666664</ele><time>2026-04-06T09:12:20Z</time></trkpt><trkpt lat="45.02706358412466" lon="9.99774230901596"><ele>41.33333333333333</ele><time>2026-04-06T09:12:21Z</time></trkpt><trkpt lat="45.02714405627952" lon="9.9977923562014"><ele>41.0</ele><time>2026-04-06T09:12:22Z</time></trkpt><trkpt lat="45.02722361656721" lon="9.997844498159019"><ele>41.0</ele><time>2026-04-06T09:12:23Z</time></trkpt><trkpt lat="45.02730302338325" lon="9.997902615135862"><ele>41.0</ele><time>2026-04-06T09:12:24Z</time></trkpt><trkpt lat="45.02738117389925" lon="9.997960417410196"><ele>41.0</ele><time>2026-04-06T09:12:25Z</time></trkpt><trkpt lat="45.02746060583696" lon="9.99801710203771"><ele>41.0</ele><time>2026-04-06T09:12:26Z</time></trkpt><trkpt lat="45.02753939000397" lon="9.998072672149721"><ele>41.0</ele><time>2026-04-06T09:12:27Z</time></trkpt><trkpt lat="45.02761654485566" lon="9.998131462813156"><ele>41.0</ele><time>2026-04-06T09:12:28Z</time></trkpt><trkpt lat="45.02769299791096" lon="9.998194315562131"><ele>41.166666666666664</ele><time>2026-04-06T09:12:29Z</time></trkpt><trkpt lat="45.02776920861885" lon="9.998257540807787"><ele>41.33333333333333</ele><time>2026-04-06T09:12:30Z</time></trkpt><trkpt lat="45.02784777547237" lon="9.998312152002326"><ele>41.5</ele><time>2026-04-06T09:12:31Z</time></trkpt><trkpt lat="45.02792643917604" lon="9.998363590466552"><ele>41.666666666666664</ele><time>2026-04-06T09:12:32Z</time></trkpt><trkpt lat="45.028006929714394" lon="9.998407774502471"><ele>41.833333333333336</ele><time>2026-04-06T09:12:33Z</time></trkpt><trkpt lat="45.02809568867466" lon="9.998419298542439"><ele>42.0</ele><time>2026-04-06T09:12:34Z</time></trkpt><trkpt lat="45.02818442104429" lon="9.998376758579397"><ele>42.0</ele><time>2026-04-06T09:12:35Z</time></trkpt><trkpt lat="45.02825435950976" lon="9.998274880486267"><ele>42.0</ele><time>2026-04-06T09:12:35.999Z</time></trkpt><trkpt lat="45.02830491952609" lon="9.998160121305567"><ele>42.0</ele><time>2026-04-06T09:12:36.999Z</time></trkpt><trkpt lat="45.02834070297074" lon="9.998037632809908"><ele>42.0</ele><time>2026-04-06T09:12:37.999Z</time></trkpt><trkpt lat="45.02837126431166" lon="9.997918961446366"><ele>42.0</ele><time>2026-04-06T09:12:38.999Z</time></trkpt><trkpt lat="45.0284136903242" lon="9.99780512079623"><ele>41.833333333333336</ele><time>2026-04-06T09:12:39.999Z</time></trkpt><trkpt lat="45.028453794406296" lon="9.997697577543015"><ele>41.666666666666664</ele><time>2026-04-06T09:12:40.999Z</time></trkpt><trkpt lat="45.02849365257233" lon="9.997586048239569"><ele>41.5</ele><time>2026-04-06T09:12:41.999Z</time></trkpt><trkpt lat="45.02853159033732" lon="9.997475432225992"><ele>41.33333333333333</ele><time>2026-04-06T09:12:42.999Z</time></trkpt><trkpt lat="45.028570322799425" lon="9.997369583574077"><ele>41.166666666666664</ele><time>2026-04-06T09:12:43.999Z</time></trkpt><trkpt lat="45.028610198603396" lon="9.99726699508539"><ele>41.0</ele><time>2026-04-06T09:12:44.999Z</time></trkpt><trkpt lat="45.02864896608571" lon="9.99716500913509"><ele>40.99999999999999</ele><time>2026-04-06T09:12:45.999Z</time></trkpt><trkpt lat="45.0286842040107" lon="9.997066569495114"><ele>41.0</ele><time>2026-04-06T09:12:46.999Z</time></trkpt><trkpt lat="45.028717573019236" lon="9.996968922492767"><ele>41.0</ele><time>2026-04-06T09:12:47.999Z</time></trkpt><trkpt lat="45.028750394387146" lon="9.996872349467358"><ele>41.0</ele><time>2026-04-06T09:12:48.999Z</time></trkpt><trkpt lat="45.02878332838563" lon="9.996778198204023"><ele>41.0</ele><time>2026-04-06T09:12:49.999Z</time></trkpt><trkpt lat="45.02881777964791" lon="9.996689745435086"><ele>40.99999999999999</ele><time>2026-04-06T09:12:50.999Z</time></trkpt><trkpt lat="45.028848623716875" lon="9.99659704425018"><ele>41.0</ele><time>2026-04-06T09:12:51.999Z</time></trkpt><trkpt lat="45.02887895342985" lon="9.996507816595079"><ele>40.83333333333333</ele><time>2026-04-06T09:12:52.999Z</time></trkpt><trkpt lat="45.02890903436784" lon="9.996419583650738"><ele>40.666666666666664</ele><time>2026-04-06T09:12:53.999Z</time></trkpt><trkpt lat="45.02894064604439" lon="9.996334189907364"><ele>40.5</ele><time>2026-04-06T09:12:54.999Z</time></trkpt><trkpt lat="45.02897267436087" lon="9.996253552829923"><ele>40.333333333333336</ele><time>2026-04-06T09:12:55.999Z</time></trkpt><trkpt lat="45.029009992983205" lon="9.996179287073419"><ele>40.16666666666667</ele><time>2026-04-06T09:12:56.999Z</time></trkpt><trkpt lat="45.029064375142426" lon="9.996124968646882"><ele>40.0</ele><time>2026-04-06T09:12:57.999Z</time></trkpt><trkpt lat="45.02921311265223" lon="9.99612265050547"><ele>39.833333333333336</ele><time>2026-04-06T09:12:59.999Z</time></trkpt><trkpt lat="45.02928590242164" lon="9.996166871448178"><ele>39.66666666666667</ele><time>2026-04-06T09:13:00.999Z</time></trkpt><trkpt lat="45.02935630303445" lon="9.996219550344678"><ele>39.5</ele><time>2026-04-06T09:13:01.999Z</time></trkpt><trkpt lat="45.029424981266004" lon="9.996273791705597"><ele>39.333333333333336</ele><time>2026-04-06T09:13:02.999Z</time></trkpt><trkpt lat="45.02949734506855" lon="9.996330345004129"><ele>39.166666666666664</ele><time>2026-04-06T09:13:03.999Z</time></trkpt><trkpt lat="45.02957076620602" lon="9.996382303836175"><ele>39.0</ele><time>2026-04-06T09:13:04.999Z</time></trkpt><trkpt lat="45.02964555638987" lon="9.996436279101685"><ele>39.0</ele><time>2026-04-06T09:13:05.999Z</time></trkpt><trkpt lat="45.029720384556896" lon="9.996489987615547"><ele>39.0</ele><time>2026-04-06T09:13:06.999Z</time></trkpt><trkpt lat="45.0297978790783" lon="9.996542624181664"><ele>39.0</ele><time>2026-04-06T09:13:07.999Z</time></trkpt><trkpt lat="45.029874856586076" lon="9.996597657566886"><ele>39.0</ele><time>2026-04-06T09:13:08.999Z</time></trkpt><trkpt lat="45.029951851933" lon="9.996654372731705"><ele>39.0</ele><time>2026-04-06T09:13:09.999Z</time></trkpt><trkpt lat="45.03003024204253" lon="9.996711245801109"><ele>39.0</ele><time>2026-04-06T09:13:10.999Z</time></trkpt><trkpt lat="45.030108372449575" lon="9.996768176970562"><ele>38.5</ele><time>2026-04-06T09:13:11.999Z</time></trkpt><trkpt lat="45.03018723209267" lon="9.996824004822223"><ele>38.0</ele><time>2026-04-06T09:13:12.999Z</time></trkpt><trkpt lat="45.03026727773732" lon="9.996878128185097"><ele>37.5</ele><time>2026-04-06T09:13:13.999Z</time></trkpt><trkpt lat="45.03034586751598" lon="9.996933721825378"><ele>37.0</ele><time>2026-04-06T09:13:14.999Z</time></trkpt><trkpt lat="45.03042358208099" lon="9.996987792840782"><ele>36.5</ele><time>2026-04-06T09:13:15.999Z</time></trkpt><trkpt lat="45.03050210517546" lon="9.997045270807817"><ele>36.0</ele><time>2026-04-06T09:13:16.999Z</time></trkpt><trkpt lat="45.03057825478745" lon="9.99709851029361"><ele>36.0</ele><time>2026-04-06T09:13:17.999Z</time></trkpt><trkpt lat="45.03065356842369" lon="9.997152342383986"><ele>36.0</ele><time>2026-04-06T09:13:18.999Z</time></trkpt><trkpt lat="45.03073337142838" lon="9.997207843675769"><ele>36.0</ele><time>2026-04-06T09:13:19.999Z</time></trkpt><trkpt lat="45.03081112766606" lon="9.997261694583829"><ele>36.0</ele><time>2026-04-06T09:13:20.999Z</time></trkpt><trkpt lat="45.03089104805785" lon="9.997315604584326"><ele>36.0</ele><time>2026-04-06T09:13:21.999Z</time></trkpt><trkpt lat="45.03096852765922" lon="9.99737184506075"><ele>36.0</ele><time>2026-04-06T09:13:22.999Z</time></trkpt><trkpt lat="45.03104858459436" lon="9.997427512576202"><ele>36.166666666666664</ele><time>2026-04-06T09:13:23.999Z</time></trkpt><trkpt lat="45.03112562624906" lon="9.997481410307545"><ele>36.333333333333336</ele><time>2026-04-06T09:13:24.999Z</time></trkpt><trkpt lat="45.031204112218695" lon="9.997534041547896"><ele>36.5</ele><time>2026-04-06T09:13:25.999Z</time></trkpt><trkpt lat="45.03128655782377" lon="9.997582626023515"><ele>36.66666666666667</ele><time>2026-04-06T09:13:26.999Z</time></trkpt><trkpt lat="45.03136777556483" lon="9.997634560667569"><ele>36.833333333333336</ele><time>2026-04-06T09:13:27.999Z</time></trkpt><trkpt lat="45.031449214782924" lon="9.997692655742206"><ele>37.0</ele><time>2026-04-06T09:13:28.999Z</time></trkpt><trkpt lat="45.03152879430477" lon="9.997750887915059"><ele>37.0</ele><time>2026-04-06T09:13:29.998Z</time></trkpt><trkpt lat="45.031610971978985" lon="9.99780991573665"><ele>37.0</ele><time>2026-04-06T09:13:30.998Z</time></trkpt><trkpt lat="45.03169079166474" lon="9.99786550574061"><ele>37.0</ele><time>2026-04-06T09:13:31.998Z</time></trkpt><trkpt lat="45.03177008590881" lon="9.997918444237198"><ele>37.0</ele><time>2026-04-06T09:13:32.998Z</time></trkpt><trkpt lat="45.03184949768897" lon="9.997974791662958"><ele>37.0</ele><time>2026-04-06T09:13:33.998Z</time></trkpt><trkpt lat="45.031930541315425" lon="9.998026307608459"><ele>37.0</ele><time>2026-04-06T09:13:34.998Z</time></trkpt><trkpt lat="45.0320153018515" lon="9.998081873252167"><ele>37.4</ele><time>2026-04-06T09:13:35.998Z</time></trkpt><trkpt lat="45.03209623647012" lon="9.998133251130001"><ele>37.800000000000004</ele><time>2026-04-06T09:13:36.998Z</time></trkpt><trkpt lat="45.032184776850315" lon="9.998184419008426"><ele>38.2</ele><time>2026-04-06T09:13:37.998Z</time></trkpt><trkpt lat="45.032272512633455" lon="9.998231146069688"><ele>38.6</ele><time>2026-04-06T09:13:38.998Z</time></trkpt><trkpt lat="45.03236139193521" lon="9.998277599967409"><ele>39.0</ele><time>2026-04-06T09:13:39.998Z</time></trkpt><trkpt lat="45.03244796880253" lon="9.998322499599041"><ele>38.5</ele><time>2026-04-06T09:13:40.998Z</time></trkpt><trkpt lat="45.032532599585274" lon="9.998365107159149"><ele>38.0</ele><time>2026-04-06T09:13:41.998Z</time></trkpt><trkpt lat="45.03261564125773" lon="9.998411933467095"><ele>37.5</ele><time>2026-04-06T09:13:42.998Z</time></trkpt><trkpt lat="45.032700148749704" lon="9.998457399412148"><ele>37.0</ele><time>2026-04-06T09:13:43.998Z</time></trkpt><trkpt lat="45.03278461879997" lon="9.99849741793071"><ele>36.5</ele><time>2026-04-06T09:13:44.998Z</time></trkpt><trkpt lat="45.03286945345361" lon="9.998536606342888"><ele>36.0</ele><time>2026-04-06T09:13:45.998Z</time></trkpt><trkpt lat="45.032953372269766" lon="9.998573063368832"><ele>36.0</ele><time>2026-04-06T09:13:46.998Z</time></trkpt><trkpt lat="45.033037630023834" lon="9.998613984383356"><ele>36.0</ele><time>2026-04-06T09:13:47.998Z</time></trkpt><trkpt lat="45.03312219772143" lon="9.99865384132266"><ele>36.0</ele><time>2026-04-06T09:13:48.998Z</time></trkpt><trkpt lat="45.03320771848769" lon="9.99869309398416"><ele>36.0</ele><time>2026-04-06T09:13:49.998Z</time></trkpt><trkpt lat="45.03329433190158" lon="9.998731538286203"><ele>36.0</ele><time>2026-04-06T09:13:50.998Z</time></trkpt><trkpt lat="45.033383295986944" lon="9.99876827144777"><ele>36.4</ele><time>2026-04-06T09:13:51.998Z</time></trkpt><trkpt lat="45.03347302715959" lon="9.998805090386185"><ele>36.8</ele><time>2026-04-06T09:13:52.998Z</time></trkpt><trkpt lat="45.03356053435118" lon="9.998840230372089"><ele>37.199999999999996</ele><time>2026-04-06T09:13:53.998Z</time></trkpt><trkpt lat="45.03364742439473" lon="9.998876452097917"><ele>37.6</ele><time>2026-04-06T09:13:54.998Z</time></trkpt><trkpt lat="45.03373595298088" lon="9.998913903200032"><ele>38.0</ele><time>2026-04-06T09:13:55.998Z</time></trkpt><trkpt lat="45.03382418781442" lon="9.998950116721078"><ele>38.0</ele><time>2026-04-06T09:13:56.998Z</time></trkpt><trkpt lat="45.033911535523856" lon="9.998987987795797"><ele>38.0</ele><time>2026-04-06T09:13:57.998Z</time></trkpt><trkpt lat="45.03399630313357" lon="9.999026110600488"><ele>38.0</ele><time>2026-04-06T09:13:58.998Z</time></trkpt><trkpt lat="45.03408264646709" lon="9.999062019905626"><ele>38.0</ele><time>2026-04-06T09:13:59.998Z</time></trkpt><trkpt lat="45.03416820231327" lon="9.999096427058763"><ele>38.0</ele><time>2026-04-06T09:14:00.998Z</time></trkpt><trkpt lat="45.034253830514906" lon="9.999132563209953"><ele>38.0</ele><time>2026-04-06T09:14:01.998Z</time></trkpt><trkpt lat="45.03433802385707" lon="9.999168688394779"><ele>37.5</ele><time>2026-04-06T09:14:02.998Z</time></trkpt><trkpt lat="45.03442165439662" lon="9.999202474020684"><ele>37.0</ele><time>2026-04-06T09:14:03.998Z</time></trkpt><trkpt lat="45.0345035681427" lon="9.999238193683636"><ele>36.5</ele><time>2026-04-06T09:14:04.998Z</time></trkpt><trkpt lat="45.03458695898633" lon="9.999273260588403"><ele>36.0</ele><time>2026-04-06T09:14:05.998Z</time></trkpt><trkpt lat="45.034670390278976" lon="9.99930655082912"><ele>35.5</ele><time>2026-04-06T09:14:06.998Z</time></trkpt><trkpt lat="45.034754429127624" lon="9.999344020706129"><ele>35.0</ele><time>2026-04-06T09:14:07.998Z</time></trkpt><trkpt lat="45.03483938799805" lon="9.999378604668307"><ele>35.0</ele><time>2026-04-06T09:14:08.998Z</time></trkpt><trkpt lat="45.03492619008642" lon="9.999414784998903"><ele>35.0</ele><time>2026-04-06T09:14:09.998Z</time></trkpt><trkpt lat="45.03501276207493" lon="9.999451133283392"><ele>35.0</ele><time>2026-04-06T09:14:10.998Z</time></trkpt><trkpt lat="45.035099210433486" lon="9.999489172477448"><ele>35.0</ele><time>2026-04-06T09:14:11.998Z</time></trkpt><trkpt lat="45.035183944088224" lon="9.99952035606134"><ele>35.0</ele><time>2026-04-06T09:14:12.998Z</time></trkpt><trkpt lat="45.03527031184323" lon="9.99955390612011"><ele>35.0</ele><time>2026-04-06T09:14:13.998Z</time></trkpt><trkpt lat="45.0353551940863" lon="9.999588116825448"><ele>35.33333333333333</ele><time>2026-04-06T09:14:14.998Z</time></trkpt><trkpt lat="45.03544111775943" lon="9.999626789412632"><ele>35.666666666666664</ele><time>2026-04-06T09:14:15.998Z</time></trkpt><trkpt lat="45.03552435643625" lon="9.99966506951401"><ele>36.0</ele><time>2026-04-06T09:14:16.998Z</time></trkpt><trkpt lat="45.035608333750346" lon="9.99970701514338"><ele>36.333333333333336</ele><time>2026-04-06T09:14:17.998Z</time></trkpt><trkpt lat="45.03569090271046" lon="9.999750013517968"><ele>36.66666666666667</ele><time>2026-04-06T09:14:18.998Z</time></trkpt><trkpt lat="45.03577544519472" lon="9.999794539165284"><ele>37.0</ele><time>2026-04-06T09:14:20Z</time></trkpt><trkpt lat="45.03586001972346" lon="9.9998377163816"><ele>37.0</ele><time>2026-04-06T09:14:21Z</time></trkpt><trkpt lat="45.03594425797661" lon="9.999883891315763"><ele>37.0</ele><time>2026-04-06T09:14:22Z</time></trkpt><trkpt lat="45.036027396764176" lon="9.999931222022633"><ele>37.0</ele><time>2026-04-06T09:14:23Z</time></trkpt><trkpt lat="45.03610998731214" lon="9.99997943028129"><ele>37.0</ele><time>2026-04-06T09:14:24Z</time></trkpt><trkpt lat="45.0361927855044" lon="10.00002714054817"><ele>37.0</ele><time>2026-04-06T09:14:25Z</time></trkpt><trkpt lat="45.036275804964056" lon="10.000075020126356"><ele>37.0</ele><time>2026-04-06T09:14:26Z</time></trkpt><trkpt lat="45.03635910301946" lon="10.00012365216463"><ele>37.0</ele><time>2026-04-06T09:14:27Z</time></trkpt><trkpt lat="45.03644147800767" lon="10.000173848187803"><ele>37.0</ele><time>2026-04-06T09:14:28Z</time></trkpt><trkpt lat="45.03652274616602" lon="10.000223728891793"><ele>37.0</ele><time>2026-04-06T09:14:29Z</time></trkpt><trkpt lat="45.03660576088307" lon="10.000272962688692"><ele>37.0</ele><time>2026-04-06T09:14:30Z</time></trkpt><trkpt lat="45.03668993757221" lon="10.000317009138584"><ele>37.0</ele><time>2026-04-06T09:14:31Z</time></trkpt><trkpt lat="45.03677420199761" lon="10.000364092318442"><ele>37.0</ele><time>2026-04-06T09:14:32Z</time></trkpt><trkpt lat="45.03685739942753" lon="10.00041273409956"><ele>36.66666666666667</ele><time>2026-04-06T09:14:33Z</time></trkpt><trkpt lat="45.0369403589898" lon="10.000465174603827"><ele>36.333333333333336</ele><time>2026-04-06T09:14:34Z</time></trkpt><trkpt lat="45.03702350992446" lon="10.000517391665433"><ele>36.0</ele><time>2026-04-06T09:14:35Z</time></trkpt><trkpt lat="45.03710638373264" lon="10.000567145529908"><ele>35.666666666666664</ele><time>2026-04-06T09:14:36Z</time></trkpt><trkpt lat="45.0371883193581" lon="10.000614591725974"><ele>35.33333333333333</ele><time>2026-04-06T09:14:37Z</time></trkpt><trkpt lat="45.03726925399216" lon="10.000662467638042"><ele>35.0</ele><time>2026-04-06T09:14:38Z</time></trkpt><trkpt lat="45.037349387999534" lon="10.000708902701035"><ele>35.0</ele><time>2026-04-06T09:14:39Z</time></trkpt><trkpt lat="45.03743084700489" lon="10.000756121925583"><ele>35.0</ele><time>2026-04-06T09:14:39.999Z</time></trkpt><trkpt lat="45.03751206590828" lon="10.000798931346607"><ele>35.0</ele><time>2026-04-06T09:14:40.999Z</time></trkpt><trkpt lat="45.03759496678691" lon="10.000843161215318"><ele>35.0</ele><time>2026-04-06T09:14:41.999Z</time></trkpt><trkpt lat="45.03767543225618" lon="10.00088595987102"><ele>35.0</ele><time>2026-04-06T09:14:42.999Z</time></trkpt><trkpt lat="45.037757019104426" lon="10.000930581909804"><ele>35.0</ele><time>2026-04-06T09:14:43.999Z</time></trkpt><trkpt lat="45.03783642176548" lon="10.00097510735248"><ele>35.5</ele><time>2026-04-06T09:14:44.999Z</time></trkpt><trkpt lat="45.03791300505283" lon="10.001020864491446"><ele>36.0</ele><time>2026-04-06T09:14:45.999Z</time></trkpt><trkpt lat="45.037987242418204" lon="10.001064259653642"><ele>36.5</ele><time>2026-04-06T09:14:46.999Z</time></trkpt><trkpt lat="45.038063467032416" lon="10.00111054789357"><ele>37.0</ele><time>2026-04-06T09:14:47.999Z</time></trkpt><trkpt lat="45.03814189990846" lon="10.001155145340716"><ele>37.5</ele><time>2026-04-06T09:14:48.999Z</time></trkpt><trkpt lat="45.03822089259033" lon="10.001204223459554"><ele>38.0</ele><time>2026-04-06T09:14:49.999Z</time></trkpt><trkpt lat="45.03829899261746" lon="10.001251653380615"><ele>37.83333333333333</ele><time>2026-04-06T09:14:50.999Z</time></trkpt><trkpt lat="45.03837979994596" lon="10.001301628287695"><ele>37.666666666666664</ele><time>2026-04-06T09:14:51.999Z</time></trkpt><trkpt lat="45.03846082373287" lon="10.001350231847871"><ele>37.5</ele><time>2026-04-06T09:14:52.999Z</time></trkpt><trkpt lat="45.03854066360141" lon="10.00139828460966"><ele>37.333333333333336</ele><time>2026-04-06T09:14:53.999Z</time></trkpt><trkpt lat="45.03862176811779" lon="10.001445381048296"><ele>37.16666666666667</ele><time>2026-04-06T09:14:54.999Z</time></trkpt><trkpt lat="45.03870392625182" lon="10.001492222669627"><ele>37.0</ele><time>2026-04-06T09:14:55.999Z</time></trkpt><trkpt lat="45.03878557414706" lon="10.001538885502773"><ele>37.0</ele><time>2026-04-06T09:14:56.999Z</time></trkpt><trkpt lat="45.03886599071296" lon="10.0015855765814"><ele>37.0</ele><time>2026-04-06T09:14:57.999Z</time></trkpt><trkpt lat="45.038944982743416" lon="10.001634707373858"><ele>37.0</ele><time>2026-04-06T09:14:58.999Z</time></trkpt><trkpt lat="45.039025466747205" lon="10.001680434177329"><ele>37.0</ele><time>2026-04-06T09:14:59.999Z</time></trkpt><trkpt lat="45.0391064705936" lon="10.001727174956892"><ele>37.0</ele><time>2026-04-06T09:15:00.999Z</time></trkpt><trkpt lat="45.039186338041546" lon="10.0017707264841"><ele>37.0</ele><time>2026-04-06T09:15:01.999Z</time></trkpt><trkpt lat="45.03926529464337" lon="10.001822510265953"><ele>37.333333333333336</ele><time>2026-04-06T09:15:02.999Z</time></trkpt><trkpt lat="45.039344660515034" lon="10.001868946122325"><ele>37.66666666666667</ele><time>2026-04-06T09:15:03.999Z</time></trkpt><trkpt lat="45.03942438359901" lon="10.001918161072991"><ele>38.0</ele><time>2026-04-06T09:15:04.999Z</time></trkpt><trkpt lat="45.039504265913735" lon="10.001965886056912"><ele>38.333333333333336</ele><time>2026-04-06T09:15:05.999Z</time></trkpt><trkpt lat="45.03958352890497" lon="10.002012259102269"><ele>38.666666666666664</ele><time>2026-04-06T09:15:06.999Z</time></trkpt><trkpt lat="45.03966217038189" lon="10.002059356145205"><ele>39.0</ele><time>2026-04-06T09:15:07.999Z</time></trkpt><trkpt lat="45.03974180422053" lon="10.002107981098993"><ele>39.0</ele><time>2026-04-06T09:15:08.999Z</time></trkpt><trkpt lat="45.03982116027667" lon="10.002157040558417"><ele>39.0</ele><time>2026-04-06T09:15:09.999Z</time></trkpt><trkpt lat="45.03990205757829" lon="10.0022018638412"><ele>39.0</ele><time>2026-04-06T09:15:10.999Z</time></trkpt><trkpt lat="45.03998464728038" lon="10.002246628203888"><ele>39.0</ele><time>2026-04-06T09:15:11.999Z</time></trkpt><trkpt lat="45.04006793669744" lon="10.002291939299331"><ele>39.0</ele><time>2026-04-06T09:15:12.999Z</time></trkpt><trkpt lat="45.04015378931248" lon="10.002337899631875"><ele>39.0</ele><time>2026-04-06T09:15:13.999Z</time></trkpt><trkpt lat="45.04023646326704" lon="10.002385573587652"><ele>38.6</ele><time>2026-04-06T09:15:14.999Z</time></trkpt><trkpt lat="45.040320696320244" lon="10.00243421579106"><ele>38.2</ele><time>2026-04-06T09:15:15.999Z</time></trkpt><trkpt lat="45.040404610331585" lon="10.002484089013576"><ele>37.800000000000004</ele><time>2026-04-06T09:15:16.999Z</time></trkpt><trkpt lat="45.040488085489386" lon="10.002530081567226"><ele>37.4</ele><time>2026-04-06T09:15:17.999Z</time></trkpt><trkpt lat="45.040571791366006" lon="10.002576334724237"><ele>37.0</ele><time>2026-04-06T09:15:18.999Z</time></trkpt><trkpt lat="45.04065689077206" lon="10.002624905006453"><ele>36.800000000000004</ele><time>2026-04-06T09:15:19.999Z</time></trkpt><trkpt lat="45.04073931631386" lon="10.002672521728147"><ele>36.6</ele><time>2026-04-06T09:15:20.999Z</time></trkpt><trkpt lat="45.04082416446272" lon="10.002718077616775"><ele>36.400000000000006</ele><time>2026-04-06T09:15:21.999Z</time></trkpt><trkpt lat="45.04090786333384" lon="10.002763266148031"><ele>36.2</ele><time>2026-04-06T09:15:22.999Z</time></trkpt><trkpt lat="45.0409911043672" lon="10.00281099325721"><ele>36.0</ele><time>2026-04-06T09:15:23.999Z</time></trkpt><trkpt lat="45.041075320027645" lon="10.002857998932374"><ele>36.0</ele><time>2026-04-06T09:15:24.999Z</time></trkpt><trkpt lat="45.04115678433068" lon="10.002904196404357"><ele>36.0</ele><time>2026-04-06T09:15:25.999Z</time></trkpt><trkpt lat="45.04123864649549" lon="10.002951480023112"><ele>36.0</ele><time>2026-04-06T09:15:26.999Z</time></trkpt><trkpt lat="45.04132086139982" lon="10.002999417698465"><ele>36.0</ele><time>2026-04-06T09:15:27.999Z</time></trkpt><trkpt lat="45.04140234034692" lon="10.003045223272776"><ele>36.0</ele><time>2026-04-06T09:15:28.999Z</time></trkpt><trkpt lat="45.041483838457744" lon="10.003089815121974"><ele>36.0</ele><time>2026-04-06T09:15:29.999Z</time></trkpt><trkpt lat="45.041564704746925" lon="10.003135498306923"><ele>36.0</ele><time>2026-04-06T09:15:30.999Z</time></trkpt><trkpt lat="45.04164487141679" lon="10.003182868675557"><ele>36.0</ele><time>2026-04-06T09:15:31.999Z</time></trkpt><trkpt lat="45.04172530245697" lon="10.003227056046406"><ele>36.0</ele><time>2026-04-06T09:15:32.998Z</time></trkpt><trkpt lat="45.041804193105605" lon="10.003272775911471"><ele>36.0</ele><time>2026-04-06T09:15:33.998Z</time></trkpt><trkpt lat="45.041881353399944" lon="10.003320575506667"><ele>36.0</ele><time>2026-04-06T09:15:34.998Z</time></trkpt><trkpt lat="45.04195091983309" lon="10.003361474551282"><ele>36.0</ele><time>2026-04-06T09:15:35.998Z</time></trkpt><trkpt lat="45.04200937771354" lon="10.0034018656377"><ele>36.0</ele><time>2026-04-06T09:15:36.998Z</time></trkpt><trkpt lat="45.0420895031708" lon="10.003428109944474"><ele>36.0</ele><time>2026-04-06T09:15:38.998Z</time></trkpt><trkpt lat="45.04218592291274" lon="10.00320798482673"><ele>36.0</ele><time>2026-04-06T09:15:39.998Z</time></trkpt><trkpt lat="45.04221774629888" lon="10.003119139287598"><ele>36.0</ele><time>2026-04-06T09:15:40.998Z</time></trkpt><trkpt lat="45.042250992344535" lon="10.003026321889966"><ele>36.0</ele><time>2026-04-06T09:15:41.998Z</time></trkpt><trkpt lat="45.04228530557503" lon="10.002930242705588"><ele>36.0</ele><time>2026-04-06T09:15:42.998Z</time></trkpt><trkpt lat="45.04232117247557" lon="10.002827375580734"><ele>36.0</ele><time>2026-04-06T09:15:43.998Z</time></trkpt><trkpt lat="45.042357019607394" lon="10.002724565285176"><ele>36.0</ele><time>2026-04-06T09:15:44.998Z</time></trkpt><trkpt lat="45.04239431998955" lon="10.002617586829723"><ele>36.0</ele><time>2026-04-06T09:15:45.998Z</time></trkpt><trkpt lat="45.042431467447834" lon="10.00251104715054"><ele>36.0</ele><time>2026-04-06T09:15:46.998Z</time></trkpt><trkpt lat="45.042467785960305" lon="10.002406884732089"><ele>36.0</ele><time>2026-04-06T09:15:47.998Z</time></trkpt><trkpt lat="45.04250540523276" lon="10.002299167585393"><ele>35.666666666666664</ele><time>2026-04-06T09:15:48.998Z</time></trkpt><trkpt lat="45.04254311394697" lon="10.002191553544694"><ele>35.333333333333336</ele><time>2026-04-06T09:15:49.998Z</time></trkpt><trkpt lat="45.04258234683986" lon="10.002079589743325"><ele>35.0</ele><time>2026-04-06T09:15:50.998Z</time></trkpt><trkpt lat="45.042595351056384" lon="10.00195225629003"><ele>34.66666666666667</ele><time>2026-04-06T09:15:51.998Z</time></trkpt><trkpt lat="45.04263039663924" lon="10.001844075503483"><ele>34.333333333333336</ele><time>2026-04-06T09:15:52.998Z</time></trkpt><trkpt lat="45.042667213071994" lon="10.00173821120135"><ele>34.0</ele><time>2026-04-06T09:15:53.998Z</time></trkpt><trkpt lat="45.04273340865656" lon="10.001648485994325"><ele>34.0</ele><time>2026-04-06T09:15:54.998Z</time></trkpt><trkpt lat="45.042772082587604" lon="10.001538117371151"><ele>34.0</ele><time>2026-04-06T09:15:55.998Z</time></trkpt><trkpt lat="45.04281011972741" lon="10.001429566050433"><ele>34.0</ele><time>2026-04-06T09:15:56.998Z</time></trkpt><trkpt lat="45.042849263312654" lon="10.001317857248958"><ele>34.0</ele><time>2026-04-06T09:15:57.998Z</time></trkpt><trkpt lat="45.04288900009078" lon="10.0012044554832"><ele>34.0</ele><time>2026-04-06T09:15:58.998Z</time></trkpt><trkpt lat="45.04292931209523" lon="10.001089412133334"><ele>34.0</ele><time>2026-04-06T09:15:59.998Z</time></trkpt><trkpt lat="45.04296957836957" lon="10.000974499244606"><ele>34.0</ele><time>2026-04-06T09:16:00.998Z</time></trkpt><trkpt lat="45.04300970441891" lon="10.000859990867058"><ele>34.0</ele><time>2026-04-06T09:16:01.998Z</time></trkpt><trkpt lat="45.04304892400457" lon="10.000748947199924"><ele>34.0</ele><time>2026-04-06T09:16:02.998Z</time></trkpt><trkpt lat="45.04308933944037" lon="10.000634518770903"><ele>34.0</ele><time>2026-04-06T09:16:03.998Z</time></trkpt><trkpt lat="45.043129156096626" lon="10.000521784706274"><ele>34.0</ele><time>2026-04-06T09:16:04.998Z</time></trkpt><trkpt lat="45.0431685453436" lon="10.000410260771586"><ele>34.0</ele><time>2026-04-06T09:16:05.998Z</time></trkpt><trkpt lat="45.043208547450575" lon="10.00029700163347"><ele>34.0</ele><time>2026-04-06T09:16:06.998Z</time></trkpt><trkpt lat="45.04324759623623" lon="10.000186441663203"><ele>34.0</ele><time>2026-04-06T09:16:07.998Z</time></trkpt><trkpt lat="45.04328699336689" lon="10.000074895413267"><ele>34.0</ele><time>2026-04-06T09:16:08.998Z</time></trkpt><trkpt lat="45.043325256512354" lon="9.999966575318581"><ele>34.0</ele><time>2026-04-06T09:16:09.998Z</time></trkpt><trkpt lat="45.04336409885898" lon="9.999856636554386"><ele>34.0</ele><time>2026-04-06T09:16:10.998Z</time></trkpt><trkpt lat="45.04340298439411" lon="9.999746575559126"><ele>34.0</ele><time>2026-04-06T09:16:11.998Z</time></trkpt><trkpt lat="45.04344187125319" lon="9.999636510816396"><ele>34.0</ele><time>2026-04-06T09:16:12.998Z</time></trkpt><trkpt lat="45.04348117301622" lon="9.9995252717337"><ele>34.0</ele><time>2026-04-06T09:16:13.998Z</time></trkpt><trkpt lat="45.04352124738741" lon="9.999411845872611"><ele>34.0</ele><time>2026-04-06T09:16:14.998Z</time></trkpt><trkpt lat="45.04356182585244" lon="9.999296993236293"><ele>34.0</ele><time>2026-04-06T09:16:15.998Z</time></trkpt><trkpt lat="45.04360227766113" lon="9.999182499089216"><ele>34.0</ele><time>2026-04-06T09:16:16.998Z</time></trkpt><trkpt lat="45.04364299357704" lon="9.999067797164813"><ele>34.0</ele><time>2026-04-06T09:16:17.998Z</time></trkpt><trkpt lat="45.04368344023696" lon="9.99895394850137"><ele>33.833333333333336</ele><time>2026-04-06T09:16:18.998Z</time></trkpt><trkpt lat="45.04372426315641" lon="9.9988390407392"><ele>33.66666666666667</ele><time>2026-04-06T09:16:19.998Z</time></trkpt><trkpt lat="45.04376463608979" lon="9.998725399627276"><ele>33.5</ele><time>2026-04-06T09:16:20.998Z</time></trkpt><trkpt lat="45.043804302340256" lon="9.998613747624987"><ele>33.333333333333336</ele><time>2026-04-06T09:16:21.998Z</time></trkpt><trkpt lat="45.043844105845295" lon="9.9985017092995"><ele>33.166666666666664</ele><time>2026-04-06T09:16:22.998Z</time></trkpt><trkpt lat="45.04388409366176" lon="9.998389152178214"><ele>33.0</ele><time>2026-04-06T09:16:23.998Z</time></trkpt><trkpt lat="45.043924088238896" lon="9.998276576027767"><ele>33.0</ele><time>2026-04-06T09:16:24.998Z</time></trkpt><trkpt lat="45.04396352822179" lon="9.998165560937638"><ele>33.0</ele><time>2026-04-06T09:16:26Z</time></trkpt><trkpt lat="45.04400305999252" lon="9.998054287481207"><ele>33.0</ele><time>2026-04-06T09:16:27Z</time></trkpt><trkpt lat="45.0440412274273" lon="9.997946854331447"><ele>33.0</ele><time>2026-04-06T09:16:28Z</time></trkpt><trkpt lat="45.04407959639646" lon="9.997838853915658"><ele>33.0</ele><time>2026-04-06T09:16:29Z</time></trkpt><trkpt lat="45.04411795890923" lon="9.997730871488791"><ele>33.0</ele><time>2026-04-06T09:16:30Z</time></trkpt><trkpt lat="45.044156883170125" lon="9.997620622724025"><ele>33.166666666666664</ele><time>2026-04-06T09:16:31Z</time></trkpt><trkpt lat="45.04419588810427" lon="9.997510949180635"><ele>33.333333333333336</ele><time>2026-04-06T09:16:32Z</time></trkpt><trkpt lat="45.04423583550638" lon="9.997399259211802"><ele>33.5</ele><time>2026-04-06T09:16:33Z</time></trkpt><trkpt lat="45.044275575226656" lon="9.997288149902285"><ele>33.66666666666667</ele><time>2026-04-06T09:16:34Z</time></trkpt><trkpt lat="45.04431529835549" lon="9.997177086981614"><ele>33.833333333333336</ele><time>2026-04-06T09:16:35Z</time></trkpt><trkpt lat="45.04435428105856" lon="9.997068094241468"><ele>34.0</ele><time>2026-04-06T09:16:36Z</time></trkpt><trkpt lat="45.04439259947295" lon="9.99696095879097"><ele>34.0</ele><time>2026-04-06T09:16:37Z</time></trkpt><trkpt lat="45.04443188861153" lon="9.996851109275706"><ele>34.0</ele><time>2026-04-06T09:16:38Z</time></trkpt><trkpt lat="45.044470541946495" lon="9.996742598576434"><ele>34.0</ele><time>2026-04-06T09:16:39Z</time></trkpt><trkpt lat="45.04450973988219" lon="9.996632167702845"><ele>34.0</ele><time>2026-04-06T09:16:40Z</time></trkpt><trkpt lat="45.04454794900164" lon="9.996524522602039"><ele>34.0</ele><time>2026-04-06T09:16:41Z</time></trkpt><trkpt lat="45.04458697550545" lon="9.996414574691693"><ele>34.0</ele><time>2026-04-06T09:16:42Z</time></trkpt><trkpt lat="45.04462536092566" lon="9.996306432903285"><ele>34.0</ele><time>2026-04-06T09:16:43Z</time></trkpt><trkpt lat="45.044663429437556" lon="9.996199183922629"><ele>34.0</ele><time>2026-04-06T09:16:43.999Z</time></trkpt><trkpt lat="45.04470323495805" lon="9.996087041323229"><ele>34.0</ele><time>2026-04-06T09:16:44.999Z</time></trkpt><trkpt lat="45.044742429852036" lon="9.995976618992644"><ele>34.0</ele><time>2026-04-06T09:16:45.999Z</time></trkpt><trkpt lat="45.04478210760489" lon="9.995866046162737"><ele>34.0</ele><time>2026-04-06T09:16:46.999Z</time></trkpt><trkpt lat="45.044821031333456" lon="9.995757712755099"><ele>34.0</ele><time>2026-04-06T09:16:47.999Z</time></trkpt><trkpt lat="45.044860194639014" lon="9.995648712540401"><ele>34.0</ele><time>2026-04-06T09:16:48.999Z</time></trkpt><trkpt lat="45.04489983393594" lon="9.995538387534209"><ele>34.0</ele><time>2026-04-06T09:16:49.999Z</time></trkpt><trkpt lat="45.0449384049939" lon="9.995431035690997"><ele>34.0</ele><time>2026-04-06T09:16:50.999Z</time></trkpt><trkpt lat="45.04497767753053" lon="9.995321692763389"><ele>34.0</ele><time>2026-04-06T09:16:51.999Z</time></trkpt><trkpt lat="45.045016767932005" lon="9.995212568410071"><ele>34.0</ele><time>2026-04-06T09:16:52.999Z</time></trkpt><trkpt lat="45.04505517720726" lon="9.995105345490726"><ele>34.0</ele><time>2026-04-06T09:16:53.999Z</time></trkpt><trkpt lat="45.045094532021515" lon="9.994995482994439"><ele>34.5</ele><time>2026-04-06T09:16:54.999Z</time></trkpt><trkpt lat="45.04513387907818" lon="9.994885642165587"><ele>35.0</ele><time>2026-04-06T09:16:55.999Z</time></trkpt><trkpt lat="45.04517358110888" lon="9.994774810389838"><ele>35.5</ele><time>2026-04-06T09:16:56.999Z</time></trkpt><trkpt lat="45.045213031665305" lon="9.99466468063558"><ele>36.0</ele><time>2026-04-06T09:16:57.999Z</time></trkpt><trkpt lat="45.04525189410445" lon="9.994556192664728"><ele>36.5</ele><time>2026-04-06T09:16:58.999Z</time></trkpt><trkpt lat="45.04529160467035" lon="9.9944453370556"><ele>37.0</ele><time>2026-04-06T09:16:59.999Z</time></trkpt><trkpt lat="45.04533132828538" lon="9.994334445030034"><ele>37.0</ele><time>2026-04-06T09:17:00.999Z</time></trkpt><trkpt lat="45.04537101824213" lon="9.994221193983929"><ele>37.0</ele><time>2026-04-06T09:17:01.999Z</time></trkpt><trkpt lat="45.04540983664638" lon="9.994108018787228"><ele>37.0</ele><time>2026-04-06T09:17:02.999Z</time></trkpt><trkpt lat="45.04544988146456" lon="9.99399126795739"><ele>37.0</ele><time>2026-04-06T09:17:03.999Z</time></trkpt><trkpt lat="45.04548824923363" lon="9.993879406604968"><ele>37.0</ele><time>2026-04-06T09:17:04.999Z</time></trkpt><trkpt lat="45.04552715687772" lon="9.99376597121353"><ele>37.0</ele><time>2026-04-06T09:17:05.999Z</time></trkpt><trkpt lat="45.04556630562335" lon="9.99365183289811"><ele>36.833333333333336</ele><time>2026-04-06T09:17:06.999Z</time></trkpt><trkpt lat="45.04560453971154" lon="9.993540361281942"><ele>36.66666666666667</ele><time>2026-04-06T09:17:07.999Z</time></trkpt><trkpt lat="45.045643194722075" lon="9.993427662447463"><ele>36.5</ele><time>2026-04-06T09:17:08.999Z</time></trkpt><trkpt lat="45.04568207995201" lon="9.99331429241168"><ele>36.333333333333336</ele><time>2026-04-06T09:17:09.999Z</time></trkpt><trkpt lat="45.045719566389536" lon="9.993205000557545"><ele>36.166666666666664</ele><time>2026-04-06T09:17:10.999Z</time></trkpt><trkpt lat="45.045757067199816" lon="9.993095666818387"><ele>36.0</ele><time>2026-04-06T09:17:11.999Z</time></trkpt><trkpt lat="45.04579286746962" lon="9.992991291003165"><ele>35.833333333333336</ele><time>2026-04-06T09:17:12.999Z</time></trkpt><trkpt lat="45.045830342081985" lon="9.992882033615649"><ele>35.666666666666664</ele><time>2026-04-06T09:17:13.999Z</time></trkpt><trkpt lat="45.04586799243301" lon="9.992772263876791"><ele>35.5</ele><time>2026-04-06T09:17:14.999Z</time></trkpt><trkpt lat="45.04590558708838" lon="9.992662552626955"><ele>35.33333333333333</ele><time>2026-04-06T09:17:15.999Z</time></trkpt><trkpt lat="45.045942684487095" lon="9.992554271493358"><ele>35.166666666666664</ele><time>2026-04-06T09:17:16.999Z</time></trkpt><trkpt lat="45.04598093007471" lon="9.992442638984961"><ele>35.0</ele><time>2026-04-06T09:17:17.999Z</time></trkpt><trkpt lat="45.04601968584068" lon="9.992329517407383"><ele>35.0</ele><time>2026-04-06T09:17:18.999Z</time></trkpt><trkpt lat="45.04605763797802" lon="9.99221874136513"><ele>35.0</ele><time>2026-04-06T09:17:19.999Z</time></trkpt><trkpt lat="45.04609588140253" lon="9.99210711518064"><ele>35.0</ele><time>2026-04-06T09:17:20.999Z</time></trkpt><trkpt lat="45.046133662499614" lon="9.991996838432284"><ele>35.0</ele><time>2026-04-06T09:17:21.999Z</time></trkpt><trkpt lat="45.04617187759717" lon="9.991885294902717"><ele>35.0</ele><time>2026-04-06T09:17:22.999Z</time></trkpt><trkpt lat="45.046210587759624" lon="9.991772306385068"><ele>35.0</ele><time>2026-04-06T09:17:23.999Z</time></trkpt><trkpt lat="45.04624875418497" lon="9.991660904955607"><ele>35.33333333333333</ele><time>2026-04-06T09:17:24.999Z</time></trkpt><trkpt lat="45.0462874960392" lon="9.99154782392842"><ele>35.666666666666664</ele><time>2026-04-06T09:17:25.999Z</time></trkpt><trkpt lat="45.04632551863183" lon="9.991436842314911"><ele>36.0</ele><time>2026-04-06T09:17:26.999Z</time></trkpt><trkpt lat="45.04636311631822" lon="9.99132710092453"><ele>36.333333333333336</ele><time>2026-04-06T09:17:27.999Z</time></trkpt><trkpt lat="45.04640055111605" lon="9.99121783497881"><ele>36.66666666666667</ele><time>2026-04-06T09:17:28.999Z</time></trkpt><trkpt lat="45.04643755878069" lon="9.99110981576271"><ele>37.0</ele><time>2026-04-06T09:17:29.999Z</time></trkpt><trkpt lat="45.046475492885065" lon="9.990999092385401"><ele>37.0</ele><time>2026-04-06T09:17:30.999Z</time></trkpt><trkpt lat="45.04651239037364" lon="9.990891394792552"><ele>37.0</ele><time>2026-04-06T09:17:31.999Z</time></trkpt><trkpt lat="45.04654950971232" lon="9.990783049589893"><ele>37.0</ele><time>2026-04-06T09:17:32.999Z</time></trkpt><trkpt lat="45.04658679368951" lon="9.990674223896544"><ele>37.0</ele><time>2026-04-06T09:17:33.999Z</time></trkpt><trkpt lat="45.04662430097266" lon="9.990564746364845"><ele>37.0</ele><time>2026-04-06T09:17:34.999Z</time></trkpt><trkpt lat="45.04666118509313" lon="9.990457087732818"><ele>37.0</ele><time>2026-04-06T09:17:35.999Z</time></trkpt><trkpt lat="45.04669818560253" lon="9.990350657967788"><ele>37.0</ele><time>2026-04-06T09:17:36.998Z</time></trkpt><trkpt lat="45.04673515778502" lon="9.990244576265631"><ele>37.0</ele><time>2026-04-06T09:17:37.998Z</time></trkpt><trkpt lat="45.046772407296714" lon="9.990137698773832"><ele>37.0</ele><time>2026-04-06T09:17:38.998Z</time></trkpt><trkpt lat="45.046808835741466" lon="9.990033177180598"><ele>37.0</ele><time>2026-04-06T09:17:39.998Z</time></trkpt><trkpt lat="45.046844134678736" lon="9.989931896364485"><ele>37.0</ele><time>2026-04-06T09:17:40.998Z</time></trkpt><trkpt lat="45.046878126247265" lon="9.989834366598641"><ele>37.0</ele><time>2026-04-06T09:17:41.998Z</time></trkpt><trkpt lat="45.04691227766659" lon="9.989736378293955"><ele>37.0</ele><time>2026-04-06T09:17:42.998Z</time></trkpt><trkpt lat="45.04694706194544" lon="9.989635912775485"><ele>37.0</ele><time>2026-04-06T09:17:43.998Z</time></trkpt><trkpt lat="45.04698131626071" lon="9.989534450221639"><ele>37.0</ele><time>2026-04-06T09:17:44.998Z</time></trkpt><trkpt lat="45.04701405201476" lon="9.989439122335606"><ele>37.0</ele><time>2026-04-06T09:17:45.998Z</time></trkpt><trkpt lat="45.047049885769596" lon="9.98933445536994"><ele>37.0</ele><time>2026-04-06T09:17:46.998Z</time></trkpt><trkpt lat="45.04708799503848" lon="9.989223142634987"><ele>37.0</ele><time>2026-04-06T09:17:47.998Z</time></trkpt><trkpt lat="45.04712428692938" lon="9.989117137217963"><ele>36.66666666666667</ele><time>2026-04-06T09:17:48.998Z</time></trkpt><trkpt lat="45.04716169149539" lon="9.989007883274079"><ele>36.333333333333336</ele><time>2026-04-06T09:17:49.998Z</time></trkpt><trkpt lat="45.0471987660373" lon="9.988899592357932"><ele>36.0</ele><time>2026-04-06T09:17:50.998Z</time></trkpt><trkpt lat="45.04723618073858" lon="9.98879030814631"><ele>35.666666666666664</ele><time>2026-04-06T09:17:51.998Z</time></trkpt><trkpt lat="45.047273600424454" lon="9.988681009710708"><ele>35.33333333333333</ele><time>2026-04-06T09:17:52.998Z</time></trkpt><trkpt lat="45.04731045302092" lon="9.988573366672618"><ele>35.0</ele><time>2026-04-06T09:17:53.998Z</time></trkpt><trkpt lat="45.04734784632087" lon="9.9884641448945"><ele>35.0</ele><time>2026-04-06T09:17:54.998Z</time></trkpt><trkpt lat="45.047384394627834" lon="9.9883573912184"><ele>35.0</ele><time>2026-04-06T09:17:55.998Z</time></trkpt><trkpt lat="45.04742103973135" lon="9.988250354847986"><ele>35.0</ele><time>2026-04-06T09:17:56.998Z</time></trkpt><trkpt lat="45.04745763832822" lon="9.988143454304097"><ele>35.0</ele><time>2026-04-06T09:17:57.998Z</time></trkpt><trkpt lat="45.04749363916392" lon="9.988038299689844"><ele>35.0</ele><time>2026-04-06T09:17:58.998Z</time></trkpt><trkpt lat="45.047528653274675" lon="9.987936027267075"><ele>35.0</ele><time>2026-04-06T09:17:59.998Z</time></trkpt><trkpt lat="45.04756285339866" lon="9.987836132488736"><ele>34.857142857142854</ele><time>2026-04-06T09:18:00.998Z</time></trkpt><trkpt lat="45.0475966715163" lon="9.987737353213078"><ele>34.714285714285715</ele><time>2026-04-06T09:18:01.998Z</time></trkpt><trkpt lat="45.047629903500614" lon="9.987640286472917"><ele>34.57142857142857</ele><time>2026-04-06T09:18:02.998Z</time></trkpt><trkpt lat="45.0476626628623" lon="9.987544599418854"><ele>34.42857142857143</ele><time>2026-04-06T09:18:03.998Z</time></trkpt><trkpt lat="45.0476945296783" lon="9.987451520822534"><ele>34.285714285714285</ele><time>2026-04-06T09:18:04.998Z</time></trkpt><trkpt lat="45.04771383369035" lon="9.987356553461538"><ele>34.14285714285714</ele><time>2026-04-06T09:18:05.998Z</time></trkpt><trkpt lat="45.04777532904908" lon="9.987301373521595"><ele>34.0</ele><time>2026-04-06T09:18:06.998Z</time></trkpt><trkpt lat="45.047936715083175" lon="9.987290533824366"><ele>34.5</ele><time>2026-04-06T09:18:08.998Z</time></trkpt><trkpt lat="45.04801846686568" lon="9.987313149840267"><ele>35.0</ele><time>2026-04-06T09:18:09.998Z</time></trkpt><trkpt lat="45.04810216907779" lon="9.987330564602955"><ele>35.5</ele><time>2026-04-06T09:18:10.998Z</time></trkpt><trkpt lat="45.04818704127231" lon="9.987336691316077"><ele>36.0</ele><time>2026-04-06T09:18:11.998Z</time></trkpt><trkpt lat="45.04827175681434" lon="9.987345462038128"><ele>36.5</ele><time>2026-04-06T09:18:12.998Z</time></trkpt><trkpt lat="45.04835714745461" lon="9.987355492790865"><ele>37.0</ele><time>2026-04-06T09:18:13.998Z</time></trkpt><trkpt lat="45.04844154975444" lon="9.987370944518553"><ele>37.0</ele><time>2026-04-06T09:18:14.998Z</time></trkpt><trkpt lat="45.04852809272446" lon="9.98738650154925"><ele>37.0</ele><time>2026-04-06T09:18:15.998Z</time></trkpt><trkpt lat="45.04861177867796" lon="9.987401808372056"><ele>37.0</ele><time>2026-04-06T09:18:16.998Z</time></trkpt><trkpt lat="45.04869280778193" lon="9.987414020539484"><ele>37.0</ele><time>2026-04-06T09:18:17.998Z</time></trkpt><trkpt lat="45.04877479840214" lon="9.987426504537694"><ele>37.0</ele><time>2026-04-06T09:18:18.998Z</time></trkpt><trkpt lat="45.048858785580435" lon="9.987436796400248"><ele>37.0</ele><time>2026-04-06T09:18:19.998Z</time></trkpt><trkpt lat="45.04894238943326" lon="9.987448836417688"><ele>37.0</ele><time>2026-04-06T09:18:20.998Z</time></trkpt><trkpt lat="45.049026343214294" lon="9.987460646773462"><ele>37.0</ele><time>2026-04-06T09:18:21.998Z</time></trkpt><trkpt lat="45.04910959900612" lon="9.987474228473923"><ele>37.0</ele><time>2026-04-06T09:18:22.998Z</time></trkpt><trkpt lat="45.0491931516034" lon="9.987486798565696"><ele>37.0</ele><time>2026-04-06T09:18:23.998Z</time></trkpt><trkpt lat="45.04927701269566" lon="9.987501737623205"><ele>37.0</ele><time>2026-04-06T09:18:24.998Z</time></trkpt><trkpt lat="45.04936152594975" lon="9.98751822780821"><ele>37.0</ele><time>2026-04-06T09:18:25.998Z</time></trkpt><trkpt lat="45.049445536948134" lon="9.98753109864624"><ele>36.66666666666667</ele><time>2026-04-06T09:18:26.998Z</time></trkpt><trkpt lat="45.04953007998646" lon="9.987542678128014"><ele>36.333333333333336</ele><time>2026-04-06T09:18:27.998Z</time></trkpt><trkpt lat="45.04961399679445" lon="9.987555453112304"><ele>36.0</ele><time>2026-04-06T09:18:28.998Z</time></trkpt><trkpt lat="45.049698943811" lon="9.987570193824583"><ele>35.666666666666664</ele><time>2026-04-06T09:18:29.997Z</time></trkpt><trkpt lat="45.04978378756298" lon="9.987583967466461"><ele>35.33333333333333</ele><time>2026-04-06T09:18:30.997Z</time></trkpt><trkpt lat="45.04986822432007" lon="9.987597049192095"><ele>35.0</ele><time>2026-04-06T09:18:32Z</time></trkpt><trkpt lat="45.04995337915" lon="9.987611041930991"><ele>34.83333333333333</ele><time>2026-04-06T09:18:33Z</time></trkpt><trkpt lat="45.0500388263715" lon="9.987625809345557"><ele>34.666666666666664</ele><time>2026-04-06T09:18:34Z</time></trkpt><trkpt lat="45.050122435671234" lon="9.98764174539158"><ele>34.5</ele><time>2026-04-06T09:18:35Z</time></trkpt><trkpt lat="45.05020737178757" lon="9.987659361158299"><ele>34.333333333333336</ele><time>2026-04-06T09:18:36Z</time></trkpt><trkpt lat="45.050293345779465" lon="9.987679656230272"><ele>34.16666666666667</ele><time>2026-04-06T09:18:37Z</time></trkpt><trkpt lat="45.05037821486027" lon="9.987697666631657"><ele>34.0</ele><time>2026-04-06T09:18:38Z</time></trkpt><trkpt lat="45.05046379790009" lon="9.987713417185548"><ele>34.0</ele><time>2026-04-06T09:18:39Z</time></trkpt><trkpt lat="45.050551056606295" lon="9.98772906494396"><ele>34.0</ele><time>2026-04-06T09:18:40Z</time></trkpt><trkpt lat="45.05063794861077" lon="9.987743303036869"><ele>34.0</ele><time>2026-04-06T09:18:41Z</time></trkpt><trkpt lat="45.05072463130032" lon="9.987760735546816"><ele>34.0</ele><time>2026-04-06T09:18:42Z</time></trkpt><trkpt lat="45.05081053543794" lon="9.987776166880105"><ele>34.0</ele><time>2026-04-06T09:18:43Z</time></trkpt><trkpt lat="45.050895707674826" lon="9.98779255309152"><ele>34.0</ele><time>2026-04-06T09:18:44Z</time></trkpt><trkpt lat="45.05098126744939" lon="9.987805505672126"><ele>34.16666666666667</ele><time>2026-04-06T09:18:45Z</time></trkpt><trkpt lat="45.05106664170605" lon="9.987820966191265"><ele>34.333333333333336</ele><time>2026-04-06T09:18:46Z</time></trkpt><trkpt lat="45.0511519049309" lon="9.987836606831818"><ele>34.5</ele><time>2026-04-06T09:18:47Z</time></trkpt><trkpt lat="45.051236752294145" lon="9.98785298746168"><ele>34.666666666666664</ele><time>2026-04-06T09:18:47.999Z</time></trkpt><trkpt lat="45.05132244066743" lon="9.987866892054084"><ele>34.83333333333333</ele><time>2026-04-06T09:18:48.999Z</time></trkpt><trkpt lat="45.051406455107326" lon="9.98787937749762"><ele>35.0</ele><time>2026-04-06T09:18:49.999Z</time></trkpt><trkpt lat="45.05149306775159" lon="9.98789319395925"><ele>35.0</ele><time>2026-04-06T09:18:50.999Z</time></trkpt><trkpt lat="45.051579930879" lon="9.987908141392506"><ele>35.0</ele><time>2026-04-06T09:18:51.999Z</time></trkpt><trkpt lat="45.05166853520284" lon="9.98792687331993"><ele>35.0</ele><time>2026-04-06T09:18:52.999Z</time></trkpt><trkpt lat="45.05175701124281" lon="9.98794129146525"><ele>35.0</ele><time>2026-04-06T09:18:53.999Z</time></trkpt><trkpt lat="45.05184649118205" lon="9.987955371788281"><ele>35.0</ele><time>2026-04-06T09:18:54.999Z</time></trkpt><trkpt lat="45.05193438604344" lon="9.987974169249807"><ele>35.0</ele><time>2026-04-06T09:18:55.999Z</time></trkpt><trkpt lat="45.0520233108645" lon="9.987994281761546"><ele>35.2</ele><time>2026-04-06T09:18:56.999Z</time></trkpt><trkpt lat="45.05211418998279" lon="9.98801062281122"><ele>35.4</ele><time>2026-04-06T09:18:57.999Z</time></trkpt><trkpt lat="45.0522050651587" lon="9.988019605950441"><ele>35.6</ele><time>2026-04-06T09:18:58.999Z</time></trkpt><trkpt lat="45.05229516061837" lon="9.98803439890162"><ele>35.8</ele><time>2026-04-06T09:18:59.999Z</time></trkpt><trkpt lat="45.052384765273" lon="9.988059015763444"><ele>36.0</ele><time>2026-04-06T09:19:00.999Z</time></trkpt><trkpt lat="45.052473703518615" lon="9.988077520216686"><ele>36.0</ele><time>2026-04-06T09:19:01.999Z</time></trkpt><trkpt lat="45.05256395155722" lon="9.9880934581753"><ele>36.0</ele><time>2026-04-06T09:19:02.999Z</time></trkpt><trkpt lat="45.05265336943313" lon="9.988107162335957"><ele>36.0</ele><time>2026-04-06T09:19:03.999Z</time></trkpt><trkpt lat="45.05274303839499" lon="9.988121549442457"><ele>36.0</ele><time>2026-04-06T09:19:04.999Z</time></trkpt><trkpt lat="45.05283109486437" lon="9.98813429882557"><ele>36.0</ele><time>2026-04-06T09:19:05.999Z</time></trkpt><trkpt lat="45.05291782385019" lon="9.988149517540256"><ele>36.0</ele><time>2026-04-06T09:19:06.999Z</time></trkpt><trkpt lat="45.053003439792064" lon="9.988165207853505"><ele>36.0</ele><time>2026-04-06T09:19:07.999Z</time></trkpt><trkpt lat="45.05308897571366" lon="9.988184245019433"><ele>36.0</ele><time>2026-04-06T09:19:08.999Z</time></trkpt><trkpt lat="45.05317551716942" lon="9.988198269610528"><ele>36.0</ele><time>2026-04-06T09:19:09.999Z</time></trkpt><trkpt lat="45.05326040712169" lon="9.988210023776931"><ele>36.0</ele><time>2026-04-06T09:19:10.999Z</time></trkpt><trkpt lat="45.05334743227039" lon="9.988222153777658"><ele>36.0</ele><time>2026-04-06T09:19:11.999Z</time></trkpt><trkpt lat="45.053431954214126" lon="9.988235778018074"><ele>36.0</ele><time>2026-04-06T09:19:12.999Z</time></trkpt><trkpt lat="45.0535157965735" lon="9.988253028906682"><ele>36.166666666666664</ele><time>2026-04-06T09:19:13.999Z</time></trkpt><trkpt lat="45.05359725547666" lon="9.988264301134969"><ele>36.333333333333336</ele><time>2026-04-06T09:19:14.999Z</time></trkpt><trkpt lat="45.053675518675625" lon="9.988276812976485"><ele>36.5</ele><time>2026-04-06T09:19:15.999Z</time></trkpt><trkpt lat="45.05375237566925" lon="9.988289438080301"><ele>36.66666666666667</ele><time>2026-04-06T09:19:16.999Z</time></trkpt><trkpt lat="45.05382863012225" lon="9.9883056210313"><ele>36.833333333333336</ele><time>2026-04-06T09:19:17.999Z</time></trkpt><trkpt lat="45.053911609636764" lon="9.988337989968556"><ele>37.0</ele><time>2026-04-06T09:19:18.999Z</time></trkpt><trkpt lat="45.05397008974304" lon="9.988388665789518"><ele>37.0</ele><time>2026-04-06T09:19:19.999Z</time></trkpt><trkpt lat="45.05403147187951" lon="9.988450000066784"><ele>37.0</ele><time>2026-04-06T09:19:20.999Z</time></trkpt><trkpt lat="45.054083269497895" lon="9.988529795485773"><ele>37.0</ele><time>2026-04-06T09:19:21.999Z</time></trkpt><trkpt lat="45.05414637031039" lon="9.988604876717911"><ele>37.0</ele><time>2026-04-06T09:19:22.999Z</time></trkpt><trkpt lat="45.05418461338838" lon="9.988691844267528"><ele>37.0</ele><time>2026-04-06T09:19:23.999Z</time></trkpt><trkpt lat="45.054232950078195" lon="9.988776737098751"><ele>37.0</ele><time>2026-04-06T09:19:24.999Z</time></trkpt><trkpt lat="45.05428837404801" lon="9.98885553314343"><ele>37.0</ele><time>2026-04-06T09:19:25.999Z</time></trkpt><trkpt lat="45.05434456665618" lon="9.98894138986999"><ele>37.0</ele><time>2026-04-06T09:19:26.999Z</time></trkpt><trkpt lat="45.05440255723607" lon="9.989028992582567"><ele>37.0</ele><time>2026-04-06T09:19:27.999Z</time></trkpt><trkpt lat="45.05445593547892" lon="9.989114974789185"><ele>37.0</ele><time>2026-04-06T09:19:28.999Z</time></trkpt><trkpt lat="45.05450973899701" lon="9.989204012307502"><ele>37.0</ele><time>2026-04-06T09:19:29.999Z</time></trkpt><trkpt lat="45.05456614752455" lon="9.98929588233789"><ele>37.0</ele><time>2026-04-06T09:19:30.999Z</time></trkpt><trkpt lat="45.054622868293514" lon="9.989387774388549"><ele>37.0</ele><time>2026-04-06T09:19:31.999Z</time></trkpt><trkpt lat="45.0546801582725" lon="9.989481292414519"><ele>37.0</ele><time>2026-04-06T09:19:32.999Z</time></trkpt><trkpt lat="45.05474185051106" lon="9.989571891357638"><ele>37.0</ele><time>2026-04-06T09:19:33.999Z</time></trkpt><trkpt lat="45.05480222042419" lon="9.98966343671683"><ele>37.0</ele><time>2026-04-06T09:19:34.999Z</time></trkpt><trkpt lat="45.054864511457914" lon="9.989754543818709"><ele>37.0</ele><time>2026-04-06T09:19:35.999Z</time></trkpt><trkpt lat="45.054923298342125" lon="9.989845986845792"><ele>37.0</ele><time>2026-04-06T09:19:36.999Z</time></trkpt><trkpt lat="45.05498029724992" lon="9.989939399497635"><ele>37.0</ele><time>2026-04-06T09:19:37.999Z</time></trkpt><trkpt lat="45.05503771615873" lon="9.990029394161166"><ele>37.0</ele><time>2026-04-06T09:19:38.999Z</time></trkpt><trkpt lat="45.055101418055116" lon="9.990116991296171"><ele>37.0</ele><time>2026-04-06T09:19:39.999Z</time></trkpt><trkpt lat="45.055169146135306" lon="9.99019607799223"><ele>37.0</ele><time>2026-04-06T09:19:40.999Z</time></trkpt><trkpt lat="45.05524248158238" lon="9.990262616228636"><ele>37.0</ele><time>2026-04-06T09:19:41.999Z</time></trkpt><trkpt lat="45.05530970933105" lon="9.990317653874916"><ele>37.0</ele><time>2026-04-06T09:19:42.998Z</time></trkpt><trkpt lat="45.05539978683198" lon="9.990359399179855"><ele>37.0</ele><time>2026-04-06T09:19:43.998Z</time></trkpt><trkpt lat="45.055481835163405" lon="9.99039378065309"><ele>37.0</ele><time>2026-04-06T09:19:44.998Z</time></trkpt><trkpt lat="45.055572779039494" lon="9.99041832885922"><ele>37.0</ele><time>2026-04-06T09:19:45.998Z</time></trkpt><trkpt lat="45.05566423869347" lon="9.990424069524881"><ele>37.0</ele><time>2026-04-06T09:19:46.998Z</time></trkpt><trkpt lat="45.055758974125304" lon="9.990408996571464"><ele>37.0</ele><time>2026-04-06T09:19:47.998Z</time></trkpt><trkpt lat="45.05584147645632" lon="9.990381168920878"><ele>37.0</ele><time>2026-04-06T09:19:48.998Z</time></trkpt><trkpt lat="45.055944728761936" lon="9.990348789587685"><ele>37.0</ele><time>2026-04-06T09:19:49.998Z</time></trkpt><trkpt lat="45.056038656949674" lon="9.99032097108224"><ele>37.0</ele><time>2026-04-06T09:19:50.998Z</time></trkpt><trkpt lat="45.056131758855216" lon="9.990290535576797"><ele>37.0</ele><time>2026-04-06T09:19:51.998Z</time></trkpt><trkpt lat="45.05622407984812" lon="9.990257533363609"><ele>37.0</ele><time>2026-04-06T09:19:52.998Z</time></trkpt><trkpt lat="45.05631640208662" lon="9.990226449385297"><ele>37.0</ele><time>2026-04-06T09:19:53.998Z</time></trkpt><trkpt lat="45.056406792095714" lon="9.990216826401019"><ele>37.0</ele><time>2026-04-06T09:19:54.998Z</time></trkpt><trkpt lat="45.05650532163483" lon="9.990218191434002"><ele>37.0</ele><time>2026-04-06T09:19:55.998Z</time></trkpt><trkpt lat="45.056596647202056" lon="9.990241072037538"><ele>37.0</ele><time>2026-04-06T09:19:56.998Z</time></trkpt><trkpt lat="45.056684766531035" lon="9.990283261551516"><ele>37.0</ele><time>2026-04-06T09:19:57.998Z</time></trkpt><trkpt lat="45.0567686544815" lon="9.990333255420445"><ele>37.2</ele><time>2026-04-06T09:19:58.998Z</time></trkpt><trkpt lat="45.0568566244003" lon="9.990385102100444"><ele>37.400000000000006</ele><time>2026-04-06T09:19:59.998Z</time></trkpt><trkpt lat="45.05694227029819" lon="9.990440306815238"><ele>37.599999999999994</ele><time>2026-04-06T09:20:00.998Z</time></trkpt><trkpt lat="45.05702930560574" lon="9.990495537638116"><ele>37.8</ele><time>2026-04-06T09:20:01.998Z</time></trkpt><trkpt lat="45.05711708409857" lon="9.990549867134018"><ele>38.0</ele><time>2026-04-06T09:20:02.998Z</time></trkpt><trkpt lat="45.0572023827361" lon="9.990605498615446"><ele>38.0</ele><time>2026-04-06T09:20:03.998Z</time></trkpt><trkpt lat="45.057286812543246" lon="9.990663111703187"><ele>38.0</ele><time>2026-04-06T09:20:04.998Z</time></trkpt><trkpt lat="45.05736861919521" lon="9.990720663420607"><ele>38.0</ele><time>2026-04-06T09:20:05.998Z</time></trkpt><trkpt lat="45.0574487176064" lon="9.990778318517169"><ele>38.0</ele><time>2026-04-06T09:20:06.998Z</time></trkpt><trkpt lat="45.05752580349861" lon="9.990835962265496"><ele>38.0</ele><time>2026-04-06T09:20:07.998Z</time></trkpt><trkpt lat="45.057605278802654" lon="9.990889798614646"><ele>37.666666666666664</ele><time>2026-04-06T09:20:08.998Z</time></trkpt><trkpt lat="45.057685561208494" lon="9.990946843468338"><ele>37.33333333333333</ele><time>2026-04-06T09:20:09.998Z</time></trkpt><trkpt lat="45.05776117550398" lon="9.991011671431473"><ele>37.0</ele><time>2026-04-06T09:20:10.998Z</time></trkpt><trkpt lat="45.05783675926459" lon="9.991077449241986"><ele>36.666666666666664</ele><time>2026-04-06T09:20:11.998Z</time></trkpt><trkpt lat="45.05791296268832" lon="9.991149589681012"><ele>36.333333333333336</ele><time>2026-04-06T09:20:12.998Z</time></trkpt><trkpt lat="45.057985611738566" lon="9.991223752874296"><ele>36.0</ele><time>2026-04-06T09:20:13.998Z</time></trkpt><trkpt lat="45.05805272831309" lon="9.991305421202897"><ele>36.0</ele><time>2026-04-06T09:20:14.998Z</time></trkpt><trkpt lat="45.058120678048354" lon="9.991388911767"><ele>36.0</ele><time>2026-04-06T09:20:15.998Z</time></trkpt><trkpt lat="45.05818479654633" lon="9.991478665366213"><ele>36.0</ele><time>2026-04-06T09:20:16.998Z</time></trkpt><trkpt lat="45.058241384970174" lon="9.991573219148634"><ele>36.0</ele><time>2026-04-06T09:20:17.998Z</time></trkpt><trkpt lat="45.05829534894183" lon="9.991669426914921"><ele>36.0</ele><time>2026-04-06T09:20:18.998Z</time></trkpt><trkpt lat="45.0583486568848" lon="9.991766347572014"><ele>36.0</ele><time>2026-04-06T09:20:19.998Z</time></trkpt><trkpt lat="45.0584047811464" lon="9.991863010508984"><ele>35.833333333333336</ele><time>2026-04-06T09:20:20.998Z</time></trkpt><trkpt lat="45.05846099793078" lon="9.99196058461401"><ele>35.666666666666664</ele><time>2026-04-06T09:20:21.998Z</time></trkpt><trkpt lat="45.05851874855867" lon="9.992056643727521"><ele>35.5</ele><time>2026-04-06T09:20:22.998Z</time></trkpt><trkpt lat="45.05857910812549" lon="9.992151191329851"><ele>35.33333333333333</ele><time>2026-04-06T09:20:23.998Z</time></trkpt><trkpt lat="45.05864187583828" lon="9.992241575232368"><ele>35.166666666666664</ele><time>2026-04-06T09:20:24.998Z</time></trkpt><trkpt lat="45.058704877352106" lon="9.992330134488538"><ele>35.0</ele><time>2026-04-06T09:20:25.998Z</time></trkpt><trkpt lat="45.058766800778244" lon="9.992413533944463"><ele>35.0</ele><time>2026-04-06T09:20:26.998Z</time></trkpt><trkpt lat="45.05883224833523" lon="9.992492947682619"><ele>35.0</ele><time>2026-04-06T09:20:27.998Z</time></trkpt><trkpt lat="45.05889842871626" lon="9.992570466102872"><ele>35.0</ele><time>2026-04-06T09:20:28.998Z</time></trkpt><trkpt lat="45.058967064114015" lon="9.992648186381427"><ele>35.0</ele><time>2026-04-06T09:20:29.998Z</time></trkpt><trkpt lat="45.05903705223165" lon="9.9927254534954"><ele>35.0</ele><time>2026-04-06T09:20:30.998Z</time></trkpt><trkpt lat="45.05911079834625" lon="9.992801535118382"><ele>35.0</ele><time>2026-04-06T09:20:31.998Z</time></trkpt><trkpt lat="45.05918502389755" lon="9.99287525868893"><ele>34.83333333333333</ele><time>2026-04-06T09:20:32.998Z</time></trkpt><trkpt lat="45.05925919219322" lon="9.992945903718962"><ele>34.666666666666664</ele><time>2026-04-06T09:20:33.998Z</time></trkpt><trkpt lat="45.05933358796663" lon="9.99301835438572"><ele>34.5</ele><time>2026-04-06T09:20:34.998Z</time></trkpt><trkpt lat="45.05940734247317" lon="9.993086677255489"><ele>34.333333333333336</ele><time>2026-04-06T09:20:35.997Z</time></trkpt><trkpt lat="45.05948212825199" lon="9.993158456629233"><ele>34.16666666666667</ele><time>2026-04-06T09:20:36.997Z</time></trkpt><trkpt lat="45.05955653364181" lon="9.993225468511874"><ele>34.0</ele><time>2026-04-06T09:20:38Z</time></trkpt><trkpt lat="45.059631546355654" lon="9.993292076944504"><ele>34.0</ele><time>2026-04-06T09:20:39Z</time></trkpt><trkpt lat="45.0597035412828" lon="9.99335745675963"><ele>34.0</ele><time>2026-04-06T09:20:40Z</time></trkpt><trkpt lat="45.0597753605063" lon="9.993425941260732"><ele>34.0</ele><time>2026-04-06T09:20:41Z</time></trkpt><trkpt lat="45.059848257391856" lon="9.993491871220392"><ele>34.0</ele><time>2026-04-06T09:20:42Z</time></trkpt><trkpt lat="45.05992147756866" lon="9.993558129601826"><ele>34.0</ele><time>2026-04-06T09:20:43Z</time></trkpt><trkpt lat="45.059992923199474" lon="9.993625022594193"><ele>34.0</ele><time>2026-04-06T09:20:44Z</time></trkpt><trkpt lat="45.06006804343714" lon="9.993691544789524"><ele>34.0</ele><time>2026-04-06T09:20:45Z</time></trkpt><trkpt lat="45.06014126787845" lon="9.993757328312777"><ele>34.0</ele><time>2026-04-06T09:20:46Z</time></trkpt><trkpt lat="45.06021580292808" lon="9.993823834302324"><ele>34.0</ele><time>2026-04-06T09:20:47Z</time></trkpt><trkpt lat="45.060290637166005" lon="9.993890106194511"><ele>34.0</ele><time>2026-04-06T09:20:48Z</time></trkpt><trkpt lat="45.060364945130274" lon="9.9939520232651"><ele>34.0</ele><time>2026-04-06T09:20:49Z</time></trkpt><trkpt lat="45.060441530551934" lon="9.994011322592748"><ele>34.0</ele><time>2026-04-06T09:20:50Z</time></trkpt><trkpt lat="45.0605233690139" lon="9.994065227856714"><ele>34.0</ele><time>2026-04-06T09:20:51Z</time></trkpt><trkpt lat="45.06060454555314" lon="9.994116622493408"><ele>34.0</ele><time>2026-04-06T09:20:52Z</time></trkpt><trkpt lat="45.06068863665394" lon="9.994163369591515"><ele>34.0</ele><time>2026-04-06T09:20:52.999Z</time></trkpt><trkpt lat="45.0607727694821" lon="9.9942101467222"><ele>34.0</ele><time>2026-04-06T09:20:53.999Z</time></trkpt><trkpt lat="45.06085733564668" lon="9.994251765405075"><ele>34.0</ele><time>2026-04-06T09:20:54.999Z</time></trkpt><trkpt lat="45.060943050116215" lon="9.994295019872288"><ele>34.6</ele><time>2026-04-06T09:20:55.999Z</time></trkpt><trkpt lat="45.061028787162535" lon="9.994336017462192"><ele>35.2</ele><time>2026-04-06T09:20:56.999Z</time></trkpt><trkpt lat="45.061115218550164" lon="9.994377999132526"><ele>35.800000000000004</ele><time>2026-04-06T09:20:57.999Z</time></trkpt><trkpt lat="45.06120418037205" lon="9.994412661504919"><ele>36.4</ele><time>2026-04-06T09:20:58.999Z</time></trkpt><trkpt lat="45.0612937724459" lon="9.994445899199652"><ele>37.0</ele><time>2026-04-06T09:20:59.999Z</time></trkpt><trkpt lat="45.06138435580147" lon="9.994486637817559"><ele>37.0</ele><time>2026-04-06T09:21:00.999Z</time></trkpt><trkpt lat="45.06147242280698" lon="9.994527786721012"><ele>37.0</ele><time>2026-04-06T09:21:01.999Z</time></trkpt><trkpt lat="45.061560850734296" lon="9.994571507411486"><ele>37.0</ele><time>2026-04-06T09:21:02.999Z</time></trkpt><trkpt lat="45.061645240321056" lon="9.99461108329659"><ele>37.0</ele><time>2026-04-06T09:21:03.999Z</time></trkpt><trkpt lat="45.06173191313461" lon="9.994646699239174"><ele>37.0</ele><time>2026-04-06T09:21:04.999Z</time></trkpt><trkpt lat="45.061811816416444" lon="9.994689010085569"><ele>36.66666666666667</ele><time>2026-04-06T09:21:05.999Z</time></trkpt><trkpt lat="45.06189405322108" lon="9.994729849095249"><ele>36.333333333333336</ele><time>2026-04-06T09:21:06.999Z</time></trkpt><trkpt lat="45.06197710803312" lon="9.99476727141194"><ele>36.0</ele><time>2026-04-06T09:21:07.999Z</time></trkpt><trkpt lat="45.062056448050214" lon="9.994814272424216"><ele>35.666666666666664</ele><time>2026-04-06T09:21:08.999Z</time></trkpt><trkpt lat="45.06213673751773" lon="9.994862410724494"><ele>35.33333333333333</ele><time>2026-04-06T09:21:09.999Z</time></trkpt><trkpt lat="45.06221682275219" lon="9.994911082558977"><ele>35.0</ele><time>2026-04-06T09:21:10.999Z</time></trkpt><trkpt lat="45.0622962140378" lon="9.994963232551124"><ele>35.0</ele><time>2026-04-06T09:21:11.999Z</time></trkpt><trkpt lat="45.06237340185573" lon="9.995017731561308"><ele>35.0</ele><time>2026-04-06T09:21:12.999Z</time></trkpt><trkpt lat="45.06245196928955" lon="9.995075085211765"><ele>35.0</ele><time>2026-04-06T09:21:13.999Z</time></trkpt><trkpt lat="45.06253246192543" lon="9.995128935042807"><ele>35.0</ele><time>2026-04-06T09:21:14.999Z</time></trkpt><trkpt lat="45.0626124034578" lon="9.995184379704595"><ele>35.0</ele><time>2026-04-06T09:21:15.999Z</time></trkpt><trkpt lat="45.062694180802794" lon="9.995236071941932"><ele>35.0</ele><time>2026-04-06T09:21:16.999Z</time></trkpt><trkpt lat="45.0627745794531" lon="9.99528598561373"><ele>35.2</ele><time>2026-04-06T09:21:17.999Z</time></trkpt><trkpt lat="45.06285725877619" lon="9.995335225230683"><ele>35.4</ele><time>2026-04-06T09:21:18.999Z</time></trkpt><trkpt lat="45.06294170548979" lon="9.995381452173485"><ele>35.6</ele><time>2026-04-06T09:21:19.999Z</time></trkpt><trkpt lat="45.063027312881225" lon="9.995428405016513"><ele>35.8</ele><time>2026-04-06T09:21:20.999Z</time></trkpt><trkpt lat="45.0631101136659" lon="9.995479543259673"><ele>36.0</ele><time>2026-04-06T09:21:21.999Z</time></trkpt><trkpt lat="45.06319524652898" lon="9.995526499737295"><ele>36.0</ele><time>2026-04-06T09:21:22.999Z</time></trkpt><trkpt lat="45.063274113852785" lon="9.995583962233756"><ele>36.0</ele><time>2026-04-06T09:21:23.999Z</time></trkpt><trkpt lat="45.06334578968636" lon="9.995666450714852"><ele>36.0</ele><time>2026-04-06T09:21:24.999Z</time></trkpt><trkpt lat="45.063408902245904" lon="9.995756547608403"><ele>36.0</ele><time>2026-04-06T09:21:25.999Z</time></trkpt><trkpt lat="45.06346929391421" lon="9.995853546629567"><ele>36.0</ele><time>2026-04-06T09:21:26.999Z</time></trkpt><trkpt lat="45.0635299267061" lon="9.995939169025648"><ele>36.0</ele><time>2026-04-06T09:21:27.999Z</time></trkpt><trkpt lat="45.063594425022515" lon="9.996026143308686"><ele>36.0</ele><time>2026-04-06T09:21:28.999Z</time></trkpt><trkpt lat="45.06365947710317" lon="9.996111052963487"><ele>36.0</ele><time>2026-04-06T09:21:29.999Z</time></trkpt><trkpt lat="45.063727446419136" lon="9.996185670085147"><ele>36.0</ele><time>2026-04-06T09:21:30.999Z</time></trkpt><trkpt lat="45.06379274512959" lon="9.99625259881539"><ele>36.0</ele><time>2026-04-06T09:21:31.999Z</time></trkpt><trkpt lat="45.06387304441828" lon="9.99630202809008"><ele>36.0</ele><time>2026-04-06T09:21:32.999Z</time></trkpt><trkpt lat="45.06395382640939" lon="9.996320555580727"><ele>36.0</ele><time>2026-04-06T09:21:33.999Z</time></trkpt><trkpt lat="45.0640389504496" lon="9.996313942587955"><ele>36.0</ele><time>2026-04-06T09:21:34.999Z</time></trkpt><trkpt lat="45.06410486022171" lon="9.996204143967619"><ele>36.0</ele><time>2026-04-06T09:21:35.999Z</time></trkpt><trkpt lat="45.06416945128826" lon="9.99608621998398"><ele>36.0</ele><time>2026-04-06T09:21:36.999Z</time></trkpt><trkpt lat="45.06422594705007" lon="9.99597047941712"><ele>36.0</ele><time>2026-04-06T09:21:37.999Z</time></trkpt><trkpt lat="45.06425910948051" lon="9.995853629502465"><ele>36.0</ele><time>2026-04-06T09:21:38.999Z</time></trkpt><trkpt lat="45.06430479993944" lon="9.995741314904308"><ele>35.8</ele><time>2026-04-06T09:21:39.999Z</time></trkpt><trkpt lat="45.064352046125286" lon="9.995630684939472"><ele>35.6</ele><time>2026-04-06T09:21:40.999Z</time></trkpt><trkpt lat="45.0644005352621" lon="9.995517365823861"><ele>35.4</ele><time>2026-04-06T09:21:41.999Z</time></trkpt><trkpt lat="45.064449699068135" lon="9.99540499842654"><ele>35.2</ele><time>2026-04-06T09:21:42.999Z</time></trkpt><trkpt lat="45.064497785601404" lon="9.995296585213419"><ele>35.0</ele><time>2026-04-06T09:21:43.999Z</time></trkpt><trkpt lat="45.06454800413775" lon="9.995185794319514"><ele>35.0</ele><time>2026-04-06T09:21:44.999Z</time></trkpt><trkpt lat="45.06459527006157" lon="9.995076373572036"><ele>35.0</ele><time>2026-04-06T09:21:45.998Z</time></trkpt><trkpt lat="45.06464375854176" lon="9.994965042437187"><ele>35.0</ele><time>2026-04-06T09:21:46.998Z</time></trkpt><trkpt lat="45.06469440196764" lon="9.994855971748537"><ele>35.0</ele><time>2026-04-06T09:21:47.998Z</time></trkpt><trkpt lat="45.06474341831903" lon="9.994746574667287"><ele>35.0</ele><time>2026-04-06T09:21:48.998Z</time></trkpt><trkpt lat="45.064790599234925" lon="9.994638290902232"><ele>35.0</ele><time>2026-04-06T09:21:49.998Z</time></trkpt><trkpt lat="45.06483489371785" lon="9.994531482829748"><ele>35.0</ele><time>2026-04-06T09:21:50.998Z</time></trkpt><trkpt lat="45.064875635841005" lon="9.994423335174792"><ele>35.0</ele><time>2026-04-06T09:21:51.998Z</time></trkpt><trkpt lat="45.0649181535309" lon="9.99431180777164"><ele>35.0</ele><time>2026-04-06T09:21:52.998Z</time></trkpt><trkpt lat="45.06496004324205" lon="9.994202039760523"><ele>35.0</ele><time>2026-04-06T09:21:53.998Z</time></trkpt><trkpt lat="45.06500237086532" lon="9.994091746500978"><ele>35.0</ele><time>2026-04-06T09:21:54.998Z</time></trkpt><trkpt lat="45.06504453844637" lon="9.99398007806262"><ele>35.0</ele><time>2026-04-06T09:21:55.998Z</time></trkpt><trkpt lat="45.065083895197546" lon="9.993869766611361"><ele>35.0</ele><time>2026-04-06T09:21:56.998Z</time></trkpt><trkpt lat="45.06511985527927" lon="9.99375847649848"><ele>35.0</ele><time>2026-04-06T09:21:57.998Z</time></trkpt><trkpt lat="45.065152248253305" lon="9.993649711308695"><ele>35.0</ele><time>2026-04-06T09:21:58.998Z</time></trkpt><trkpt lat="45.06518123081378" lon="9.993542797133575"><ele>35.0</ele><time>2026-04-06T09:21:59.998Z</time></trkpt><trkpt lat="45.06521274237087" lon="9.993429760818895"><ele>35.0</ele><time>2026-04-06T09:22:00.998Z</time></trkpt><trkpt lat="45.06524461727108" lon="9.993318527560774"><ele>35.0</ele><time>2026-04-06T09:22:01.998Z</time></trkpt><trkpt lat="45.06527390209097" lon="9.993198447709402"><ele>35.0</ele><time>2026-04-06T09:22:02.998Z</time></trkpt><trkpt lat="45.06530212463501" lon="9.993084592645255"><ele>35.0</ele><time>2026-04-06T09:22:03.998Z</time></trkpt><trkpt lat="45.06533143753997" lon="9.992970716027921"><ele>35.0</ele><time>2026-04-06T09:22:04.998Z</time></trkpt><trkpt lat="45.06535908482646" lon="9.992854761343784"><ele>35.0</ele><time>2026-04-06T09:22:05.998Z</time></trkpt><trkpt lat="45.065387023902154" lon="9.99273602534494"><ele>35.0</ele><time>2026-04-06T09:22:06.998Z</time></trkpt><trkpt lat="45.06541328213766" lon="9.992616741370169"><ele>35.166666666666664</ele><time>2026-04-06T09:22:07.998Z</time></trkpt><trkpt lat="45.065442495536345" lon="9.992497013183142"><ele>35.33333333333333</ele><time>2026-04-06T09:22:08.998Z</time></trkpt><trkpt lat="45.06546921004347" lon="9.992376790789905"><ele>35.5</ele><time>2026-04-06T09:22:09.998Z</time></trkpt><trkpt lat="45.065495696291016" lon="9.992255960872908"><ele>35.666666666666664</ele><time>2026-04-06T09:22:10.998Z</time></trkpt><trkpt lat="45.06552212311994" lon="9.992136754747909"><ele>35.833333333333336</ele><time>2026-04-06T09:22:11.998Z</time></trkpt><trkpt lat="45.065549716284146" lon="9.99202033872713"><ele>36.0</ele><time>2026-04-06T09:22:12.998Z</time></trkpt><trkpt lat="45.065581699088796" lon="9.991902853274976"><ele>36.0</ele><time>2026-04-06T09:22:13.998Z</time></trkpt><trkpt lat="45.06561143393836" lon="9.991784600997693"><ele>36.0</ele><time>2026-04-06T09:22:14.998Z</time></trkpt><trkpt lat="45.065639466300176" lon="9.991666506679852"><ele>36.0</ele><time>2026-04-06T09:22:15.998Z</time></trkpt><trkpt lat="45.06567200363053" lon="9.991549607331796"><ele>36.0</ele><time>2026-04-06T09:22:16.998Z</time></trkpt><trkpt lat="45.06570149519192" lon="9.991435313756071"><ele>36.0</ele><time>2026-04-06T09:22:17.998Z</time></trkpt><trkpt lat="45.06573942527491" lon="9.99132413547376"><ele>36.0</ele><time>2026-04-06T09:22:18.998Z</time></trkpt><trkpt lat="45.06578413732038" lon="9.99121951311059"><ele>36.0</ele><time>2026-04-06T09:22:19.998Z</time></trkpt><trkpt lat="45.06584172568443" lon="9.991125908451156"><ele>36.0</ele><time>2026-04-06T09:22:20.998Z</time></trkpt><trkpt lat="45.06591547012993" lon="9.9910531459951"><ele>36.0</ele><time>2026-04-06T09:22:21.998Z</time></trkpt><trkpt lat="45.0659958241527" lon="9.990998299697923"><ele>36.0</ele><time>2026-04-06T09:22:22.998Z</time></trkpt><trkpt lat="45.06607543714774" lon="9.990943626959929"><ele>36.0</ele><time>2026-04-06T09:22:23.998Z</time></trkpt><trkpt lat="45.06615610962928" lon="9.990888089680238"><ele>36.0</ele><time>2026-04-06T09:22:24.998Z</time></trkpt><trkpt lat="45.06623605941648" lon="9.990828420835888"><ele>36.0</ele><time>2026-04-06T09:22:25.998Z</time></trkpt><trkpt lat="45.06631257052798" lon="9.99077009133799"><ele>36.0</ele><time>2026-04-06T09:22:26.998Z</time></trkpt><trkpt lat="45.06639001764397" lon="9.990718111540836"><ele>36.0</ele><time>2026-04-06T09:22:27.998Z</time></trkpt><trkpt lat="45.06646824414905" lon="9.99067138528478"><ele>36.0</ele><time>2026-04-06T09:22:28.998Z</time></trkpt><trkpt lat="45.066549104073275" lon="9.990636155785204"><ele>36.0</ele><time>2026-04-06T09:22:29.998Z</time></trkpt><trkpt lat="45.066638703743784" lon="9.990626090714219"><ele>36.0</ele><time>2026-04-06T09:22:30.999Z</time></trkpt><trkpt lat="45.06672885706798" lon="9.990646808421216"><ele>36.0</ele><time>2026-04-06T09:22:31.999Z</time></trkpt><trkpt lat="45.06681499211077" lon="9.990682350970653"><ele>36.0</ele><time>2026-04-06T09:22:32.999Z</time></trkpt><trkpt lat="45.06689676133106" lon="9.990725736821558"><ele>36.0</ele><time>2026-04-06T09:22:33.999Z</time></trkpt><trkpt lat="45.06697871648778" lon="9.990771734636633"><ele>36.0</ele><time>2026-04-06T09:22:34.999Z</time></trkpt><trkpt lat="45.06706206547237" lon="9.990811993401941"><ele>36.0</ele><time>2026-04-06T09:22:35.999Z</time></trkpt><trkpt lat="45.067148502741276" lon="9.990844390885472"><ele>36.0</ele><time>2026-04-06T09:22:36.999Z</time></trkpt><trkpt lat="45.0672350562128" lon="9.99086422322393"><ele>36.0</ele><time>2026-04-06T09:22:37.999Z</time></trkpt><trkpt lat="45.06732334625465" lon="9.99087295885042"><ele>36.0</ele><time>2026-04-06T09:22:38.999Z</time></trkpt><trkpt lat="45.06741128162969" lon="9.990872568057085"><ele>36.0</ele><time>2026-04-06T09:22:39.998Z</time></trkpt><trkpt lat="45.067500122869305" lon="9.990864987282757"><ele>36.0</ele><time>2026-04-06T09:22:40.998Z</time></trkpt><trkpt lat="45.067587296278596" lon="9.99084653005556"><ele>36.0</ele><time>2026-04-06T09:22:41.998Z</time></trkpt><trkpt lat="45.067674065707365" lon="9.990823172191071"><ele>36.0</ele><time>2026-04-06T09:22:42.998Z</time></trkpt><trkpt lat="45.06776175325471" lon="9.99079934621063"><ele>36.2</ele><time>2026-04-06T09:22:44Z</time></trkpt><trkpt lat="45.06784901451481" lon="9.990798389177339"><ele>36.400000000000006</ele><time>2026-04-06T09:22:45Z</time></trkpt><trkpt lat="45.067944399456806" lon="9.990837329319456"><ele>36.6</ele><time>2026-04-06T09:22:46Z</time></trkpt><trkpt lat="45.06802402610329" lon="9.990895601691355"><ele>36.800000000000004</ele><time>2026-04-06T09:22:47Z</time></trkpt><trkpt lat="45.068107037534226" lon="9.990962739247186"><ele>37.0</ele><time>2026-04-06T09:22:48Z</time></trkpt><trkpt lat="45.06817679432027" lon="9.991044727466571"><ele>37.0</ele><time>2026-04-06T09:22:49Z</time></trkpt><trkpt lat="45.068247117555146" lon="9.991132224752587"><ele>37.0</ele><time>2026-04-06T09:22:50Z</time></trkpt><trkpt lat="45.06831936199334" lon="9.991219341069375"><ele>37.0</ele><time>2026-04-06T09:22:51Z</time></trkpt><trkpt lat="45.068394619459106" lon="9.991299546202267"><ele>37.0</ele><time>2026-04-06T09:22:52Z</time></trkpt><trkpt lat="45.06846611912407" lon="9.991379997879566"><ele>37.0</ele><time>2026-04-06T09:22:53Z</time></trkpt><trkpt lat="45.06853540760238" lon="9.991459748580969"><ele>37.16666666666667</ele><time>2026-04-06T09:22:54Z</time></trkpt><trkpt lat="45.06860728939937" lon="9.991535772495617"><ele>37.333333333333336</ele><time>2026-04-06T09:22:55Z</time></trkpt><trkpt lat="45.068676635862815" lon="9.99161280471645"><ele>37.5</ele><time>2026-04-06T09:22:56Z</time></trkpt><trkpt lat="45.06874363420911" lon="9.991686901813098"><ele>37.666666666666664</ele><time>2026-04-06T09:22:57Z</time></trkpt><trkpt lat="45.06881320467629" lon="9.991755476959224"><ele>37.83333333333333</ele><time>2026-04-06T09:22:58Z</time></trkpt><trkpt lat="45.068882688152755" lon="9.99182992491094"><ele>38.0</ele><time>2026-04-06T09:22:59Z</time></trkpt><trkpt lat="45.06895290068955" lon="9.991904417413334"><ele>38.0</ele><time>2026-04-06T09:23:00Z</time></trkpt><trkpt lat="45.06902407586584" lon="9.991978964780428"><ele>38.0</ele><time>2026-04-06T09:23:01Z</time></trkpt><trkpt lat="45.06909552205733" lon="9.99205726620564"><ele>38.0</ele><time>2026-04-06T09:23:02Z</time></trkpt><trkpt lat="45.06916820849696" lon="9.99212925488022"><ele>38.0</ele><time>2026-04-06T09:23:03Z</time></trkpt><trkpt lat="45.0692402870783" lon="9.992208578176305"><ele>38.0</ele><time>2026-04-06T09:23:04Z</time></trkpt><trkpt lat="45.06931077489601" lon="9.992287108422815"><ele>38.0</ele><time>2026-04-06T09:23:05Z</time></trkpt><trkpt lat="45.06938310444989" lon="9.99235747109117"><ele>38.0</ele><time>2026-04-06T09:23:06Z</time></trkpt><trkpt lat="45.069454353537196" lon="9.992433013018095"><ele>38.0</ele><time>2026-04-06T09:23:07Z</time></trkpt><trkpt lat="45.069525071327746" lon="9.99251713368389"><ele>38.0</ele><time>2026-04-06T09:23:08Z</time></trkpt><trkpt lat="45.069597058094956" lon="9.992595919577047"><ele>38.0</ele><time>2026-04-06T09:23:09Z</time></trkpt><trkpt lat="45.06966765875755" lon="9.99267426426471"><ele>38.0</ele><time>2026-04-06T09:23:10Z</time></trkpt><trkpt lat="45.06974001547107" lon="9.992750184817716"><ele>37.83333333333333</ele><time>2026-04-06T09:23:11Z</time></trkpt><trkpt lat="45.06981035626443" lon="9.992824853564326"><ele>37.666666666666664</ele><time>2026-04-06T09:23:12Z</time></trkpt><trkpt lat="45.06988055003082" lon="9.992901708435596"><ele>37.5</ele><time>2026-04-06T09:23:13Z</time></trkpt><trkpt lat="45.06994965191626" lon="9.99298001119341"><ele>37.333333333333336</ele><time>2026-04-06T09:23:14Z</time></trkpt><trkpt lat="45.07002015651467" lon="9.993054712095171"><ele>37.16666666666667</ele><time>2026-04-06T09:23:15Z</time></trkpt><trkpt lat="45.0700897287726" lon="9.993128677501963"><ele>37.0</ele><time>2026-04-06T09:23:16Z</time></trkpt><trkpt lat="45.070158132247855" lon="9.993203193684057"><ele>37.333333333333336</ele><time>2026-04-06T09:23:17Z</time></trkpt><trkpt lat="45.07022556860174" lon="9.99327617812932"><ele>37.66666666666667</ele><time>2026-04-06T09:23:18Z</time></trkpt><trkpt lat="45.07029532542353" lon="9.993343892512717"><ele>38.0</ele><time>2026-04-06T09:23:19Z</time></trkpt><trkpt lat="45.070364600446226" lon="9.993406254340114"><ele>38.333333333333336</ele><time>2026-04-06T09:23:20Z</time></trkpt><trkpt lat="45.070438059292385" lon="9.993458353474029"><ele>38.666666666666664</ele><time>2026-04-06T09:23:21Z</time></trkpt><trkpt lat="45.07051909677706" lon="9.993486816781688"><ele>39.0</ele><time>2026-04-06T09:23:22Z</time></trkpt><trkpt lat="45.07060381454157" lon="9.99348281415214"><ele>39.0</ele><time>2026-04-06T09:23:23Z</time></trkpt><trkpt lat="45.07068555939552" lon="9.993455152711773"><ele>39.0</ele><time>2026-04-06T09:23:24Z</time></trkpt><trkpt lat="45.07076867569271" lon="9.993430150394495"><ele>39.0</ele><time>2026-04-06T09:23:25Z</time></trkpt><trkpt lat="45.07085617050716" lon="9.993413513391625"><ele>39.0</ele><time>2026-04-06T09:23:26Z</time></trkpt><trkpt lat="45.07094360382329" lon="9.993423212928993"><ele>39.0</ele><time>2026-04-06T09:23:27Z</time></trkpt><trkpt lat="45.07103193150144" lon="9.993438863823663"><ele>39.0</ele><time>2026-04-06T09:23:28Z</time></trkpt><trkpt lat="45.07112008600501" lon="9.993453559970341"><ele>38.8</ele><time>2026-04-06T09:23:29Z</time></trkpt><trkpt lat="45.07121111883867" lon="9.993467298523504"><ele>38.599999999999994</ele><time>2026-04-06T09:23:30Z</time></trkpt><trkpt lat="45.071302326197724" lon="9.993480745806853"><ele>38.4</ele><time>2026-04-06T09:23:31Z</time></trkpt><trkpt lat="45.07139256737486" lon="9.993496054331727"><ele>38.199999999999996</ele><time>2026-04-06T09:23:32Z</time></trkpt><trkpt lat="45.071484876168455" lon="9.993516506524792"><ele>38.0</ele><time>2026-04-06T09:23:33Z</time></trkpt><trkpt lat="45.07157689039495" lon="9.993538146295647"><ele>37.8</ele><time>2026-04-06T09:23:34Z</time></trkpt><trkpt lat="45.071668346491336" lon="9.993557837341383"><ele>37.599999999999994</ele><time>2026-04-06T09:23:35Z</time></trkpt><trkpt lat="45.07175986403392" lon="9.993570853372217"><ele>37.400000000000006</ele><time>2026-04-06T09:23:36Z</time></trkpt><trkpt lat="45.07185318965906" lon="9.993577123480366"><ele>37.2</ele><time>2026-04-06T09:23:37Z</time></trkpt><trkpt lat="45.07194562484063" lon="9.993567317087548"><ele>37.0</ele><time>2026-04-06T09:23:38Z</time></trkpt><trkpt lat="45.072030598888425" lon="9.99352894469678"><ele>37.0</ele><time>2026-04-06T09:23:39Z</time></trkpt><trkpt lat="45.072108826888424" lon="9.993463180783856"><ele>37.0</ele><time>2026-04-06T09:23:40Z</time></trkpt><trkpt lat="45.07217651695273" lon="9.99337687737806"><ele>37.0</ele><time>2026-04-06T09:23:41Z</time></trkpt><trkpt lat="45.07223703160436" lon="9.993281207723374"><ele>37.0</ele><time>2026-04-06T09:23:42Z</time></trkpt><trkpt lat="45.072301671139854" lon="9.993191841102858"><ele>37.0</ele><time>2026-04-06T09:23:43Z</time></trkpt><trkpt lat="45.072368763447145" lon="9.99310627387726"><ele>36.833333333333336</ele><time>2026-04-06T09:23:44Z</time></trkpt><trkpt lat="45.072444771026355" lon="9.993038480424781"><ele>36.66666666666667</ele><time>2026-04-06T09:23:45Z</time></trkpt><trkpt lat="45.07252721774783" lon="9.992993489193381"><ele>36.5</ele><time>2026-04-06T09:23:46Z</time></trkpt><trkpt lat="45.07261423553386" lon="9.992967472238803"><ele>36.333333333333336</ele><time>2026-04-06T09:23:47Z</time></trkpt><trkpt lat="45.07270113811318" lon="9.992951138129438"><ele>36.166666666666664</ele><time>2026-04-06T09:23:48Z</time></trkpt><trkpt lat="45.07279139425628" lon="9.992943555485324"><ele>36.0</ele><time>2026-04-06T09:23:48.999Z</time></trkpt><trkpt lat="45.072881365954714" lon="9.992940603843309"><ele>36.0</ele><time>2026-04-06T09:23:49.999Z</time></trkpt><trkpt lat="45.072971589640986" lon="9.992931390621203"><ele>36.0</ele><time>2026-04-06T09:23:50.999Z</time></trkpt><trkpt lat="45.07305982185841" lon="9.992921883400406"><ele>36.0</ele><time>2026-04-06T09:23:51.999Z</time></trkpt><trkpt lat="45.073149625126746" lon="9.992912867404018"><ele>36.0</ele><time>2026-04-06T09:23:52.999Z</time></trkpt><trkpt lat="45.07323841041336" lon="9.992900661166582"><ele>36.0</ele><time>2026-04-06T09:23:53.999Z</time></trkpt><trkpt lat="45.07332749594554" lon="9.992890061488005"><ele>36.0</ele><time>2026-04-06T09:23:54.999Z</time></trkpt><trkpt lat="45.0734123019647" lon="9.992879324636403"><ele>36.166666666666664</ele><time>2026-04-06T09:23:55.999Z</time></trkpt><trkpt lat="45.0734997410944" lon="9.992866039466016"><ele>36.333333333333336</ele><time>2026-04-06T09:23:56.999Z</time></trkpt><trkpt lat="45.07358707008755" lon="9.992842206381564"><ele>36.5</ele><time>2026-04-06T09:23:57.999Z</time></trkpt><trkpt lat="45.07367279689881" lon="9.992804867830582"><ele>36.66666666666667</ele><time>2026-04-06T09:23:58.999Z</time></trkpt><trkpt lat="45.07375526213733" lon="9.992753521528359"><ele>36.833333333333336</ele><time>2026-04-06T09:23:59.999Z</time></trkpt><trkpt lat="45.07383654616862" lon="9.992695829514465"><ele>37.0</ele><time>2026-04-06T09:24:00.999Z</time></trkpt><trkpt lat="45.073915882708675" lon="9.992634701867022"><ele>37.0</ele><time>2026-04-06T09:24:01.999Z</time></trkpt><trkpt lat="45.073995354779996" lon="9.992570798758031"><ele>37.0</ele><time>2026-04-06T09:24:02.999Z</time></trkpt><trkpt lat="45.07407510087952" lon="9.99251086374845"><ele>37.0</ele><time>2026-04-06T09:24:03.999Z</time></trkpt><trkpt lat="45.074158909032725" lon="9.992457279135648"><ele>37.0</ele><time>2026-04-06T09:24:04.999Z</time></trkpt><trkpt lat="45.07423971513945" lon="9.992402970056322"><ele>37.0</ele><time>2026-04-06T09:24:05.999Z</time></trkpt><trkpt lat="45.07431898649671" lon="9.992345859020332"><ele>37.333333333333336</ele><time>2026-04-06T09:24:06.999Z</time></trkpt><trkpt lat="45.07439536666285" lon="9.992288376686734"><ele>37.66666666666667</ele><time>2026-04-06T09:24:07.999Z</time></trkpt><trkpt lat="45.07447504335311" lon="9.992229569449005"><ele>38.0</ele><time>2026-04-06T09:24:08.999Z</time></trkpt><trkpt lat="45.07455315730392" lon="9.992167078437529"><ele>38.333333333333336</ele><time>2026-04-06T09:24:09.999Z</time></trkpt><trkpt lat="45.07463165623654" lon="9.992107682685992"><ele>38.666666666666664</ele><time>2026-04-06T09:24:10.999Z</time></trkpt><trkpt lat="45.074709512519696" lon="9.992048743851884"><ele>39.0</ele><time>2026-04-06T09:24:11.999Z</time></trkpt><trkpt lat="45.07478778812063" lon="9.991990898178381"><ele>39.0</ele><time>2026-04-06T09:24:12.999Z</time></trkpt><trkpt lat="45.07486309930543" lon="9.991930565433448"><ele>39.0</ele><time>2026-04-06T09:24:13.999Z</time></trkpt><trkpt lat="45.07493916751054" lon="9.991870179140765"><ele>39.0</ele><time>2026-04-06T09:24:14.999Z</time></trkpt><trkpt lat="45.075018825665424" lon="9.9918130643159"><ele>39.0</ele><time>2026-04-06T09:24:15.999Z</time></trkpt><trkpt lat="45.07509536260572" lon="9.991765217649181"><ele>39.0</ele><time>2026-04-06T09:24:16.999Z</time></trkpt><trkpt lat="45.07517658268283" lon="9.991729870447726"><ele>39.0</ele><time>2026-04-06T09:24:17.999Z</time></trkpt><trkpt lat="45.07525990002775" lon="9.991719456763843"><ele>38.833333333333336</ele><time>2026-04-06T09:24:18.999Z</time></trkpt><trkpt lat="45.07534020763159" lon="9.991725785272049"><ele>38.666666666666664</ele><time>2026-04-06T09:24:19.999Z</time></trkpt><trkpt lat="45.07542581487883" lon="9.991751207699329"><ele>38.5</ele><time>2026-04-06T09:24:20.999Z</time></trkpt><trkpt lat="45.07550898986998" lon="9.991770930714436"><ele>38.33333333333333</ele><time>2026-04-06T09:24:21.999Z</time></trkpt><trkpt lat="45.075595871821186" lon="9.991783908099428"><ele>38.166666666666664</ele><time>2026-04-06T09:24:22.999Z</time></trkpt><trkpt lat="45.075682358507876" lon="9.99179080595039"><ele>38.0</ele><time>2026-04-06T09:24:23.999Z</time></trkpt><trkpt lat="45.07576902056538" lon="9.991786017834885"><ele>38.0</ele><time>2026-04-06T09:24:24.999Z</time></trkpt><trkpt lat="45.07585311085839" lon="9.99177339847286"><ele>38.0</ele><time>2026-04-06T09:24:25.999Z</time></trkpt><trkpt lat="45.075936445569674" lon="9.991758699593671"><ele>38.0</ele><time>2026-04-06T09:24:26.999Z</time></trkpt><trkpt lat="45.07601771075109" lon="9.991747754148623"><ele>38.0</ele><time>2026-04-06T09:24:27.999Z</time></trkpt><trkpt lat="45.07609161787438" lon="9.99173876094595"><ele>38.0</ele><time>2026-04-06T09:24:28.999Z</time></trkpt><trkpt lat="45.07615976533477" lon="9.991709057475376"><ele>38.0</ele><time>2026-04-06T09:24:29.999Z</time></trkpt><trkpt lat="45.076219952965424" lon="9.991654004225136"><ele>38.0</ele><time>2026-04-06T09:24:30.999Z</time></trkpt><trkpt lat="45.0762734633872" lon="9.99158410138914"><ele>38.0</ele><time>2026-04-06T09:24:31.999Z</time></trkpt><trkpt lat="45.07627016859367" lon="9.991431756793407"><ele>38.0</ele><time>2026-04-06T09:24:32.999Z</time></trkpt><trkpt lat="45.076282520368466" lon="9.991314098022611"><ele>38.0</ele><time>2026-04-06T09:24:33.999Z</time></trkpt><trkpt lat="45.07630275332665" lon="9.991199904574934"><ele>38.0</ele><time>2026-04-06T09:24:34.999Z</time></trkpt><trkpt lat="45.07633574979385" lon="9.9910900951889"><ele>38.0</ele><time>2026-04-06T09:24:35.999Z</time></trkpt><trkpt lat="45.07638593361694" lon="9.990981975727259"><ele>38.0</ele><time>2026-04-06T09:24:36.999Z</time></trkpt><trkpt lat="45.07643482875966" lon="9.990881298889622"><ele>38.0</ele><time>2026-04-06T09:24:37.999Z</time></trkpt><trkpt lat="45.076484263719095" lon="9.990781866215514"><ele>38.0</ele><time>2026-04-06T09:24:38.999Z</time></trkpt><trkpt lat="45.07652958900945" lon="9.990683900676045"><ele>38.0</ele><time>2026-04-06T09:24:39.999Z</time></trkpt><trkpt lat="45.076570303714476" lon="9.990579173863425"><ele>38.0</ele><time>2026-04-06T09:24:40.999Z</time></trkpt><trkpt lat="45.076610883956185" lon="9.99046455629629"><ele>38.0</ele><time>2026-04-06T09:24:41.998Z</time></trkpt><trkpt lat="45.076618869791176" lon="9.990347094489973"><ele>37.83333333333333</ele><time>2026-04-06T09:24:42.998Z</time></trkpt><trkpt lat="45.07662830121421" lon="9.99022706057"><ele>37.666666666666664</ele><time>2026-04-06T09:24:43.998Z</time></trkpt><trkpt lat="45.0766344635272" lon="9.990106335983807"><ele>37.5</ele><time>2026-04-06T09:24:44.998Z</time></trkpt><trkpt lat="45.076642004698435" lon="9.98998596355986"><ele>37.333333333333336</ele><time>2026-04-06T09:24:45.998Z</time></trkpt><trkpt lat="45.07665159562601" lon="9.98986613093559"><ele>37.16666666666667</ele><time>2026-04-06T09:24:46.998Z</time></trkpt><trkpt lat="45.076658973171476" lon="9.989745557673146"><ele>37.0</ele><time>2026-04-06T09:24:47.998Z</time></trkpt><trkpt lat="45.07668060805825" lon="9.989629052639199"><ele>37.0</ele><time>2026-04-06T09:24:48.998Z</time></trkpt><trkpt lat="45.076687513548045" lon="9.989511077333457"><ele>37.0</ele><time>2026-04-06T09:24:50Z</time></trkpt><trkpt lat="45.076692969983725" lon="9.989396576234906"><ele>37.0</ele><time>2026-04-06T09:24:51Z</time></trkpt><trkpt lat="45.0766982348983" lon="9.989288105756115"><ele>37.0</ele><time>2026-04-06T09:24:52Z</time></trkpt><trkpt lat="45.076710727850305" lon="9.989180705126866"><ele>37.0</ele><time>2026-04-06T09:24:53Z</time></trkpt><trkpt lat="45.07672423528869" lon="9.989076461300504"><ele>37.0</ele><time>2026-04-06T09:24:54Z</time></trkpt><trkpt lat="45.07677859870379" lon="9.98899760098499"><ele>36.833333333333336</ele><time>2026-04-06T09:24:55Z</time></trkpt><trkpt lat="45.07686110848401" lon="9.98895310896659"><ele>36.66666666666667</ele><time>2026-04-06T09:24:56Z</time></trkpt><trkpt lat="45.0769531378612" lon="9.988948168539464"><ele>36.5</ele><time>2026-04-06T09:24:57Z</time></trkpt><trkpt lat="45.0770391864156" lon="9.988956765513391"><ele>36.333333333333336</ele><time>2026-04-06T09:24:58Z</time></trkpt><trkpt lat="45.077124416983594" lon="9.98896740695442"><ele>36.166666666666664</ele><time>2026-04-06T09:24:59Z</time></trkpt><trkpt lat="45.077208135958195" lon="9.988975081422728"><ele>36.0</ele><time>2026-04-06T09:25:00Z</time></trkpt><trkpt lat="45.077293532535485" lon="9.98897701664443"><ele>36.0</ele><time>2026-04-06T09:25:01Z</time></trkpt><trkpt lat="45.077379123878046" lon="9.988974455766172"><ele>36.0</ele><time>2026-04-06T09:25:02Z</time></trkpt><trkpt lat="45.0774624307664" lon="9.988971370354589"><ele>36.0</ele><time>2026-04-06T09:25:03Z</time></trkpt><trkpt lat="45.07754705742057" lon="9.988965837384177"><ele>36.0</ele><time>2026-04-06T09:25:04Z</time></trkpt><trkpt lat="45.07762940865015" lon="9.988965306163696"><ele>36.0</ele><time>2026-04-06T09:25:05Z</time></trkpt><trkpt lat="45.077715138073714" lon="9.98896665691795"><ele>36.0</ele><time>2026-04-06T09:25:06Z</time></trkpt><trkpt lat="45.07779940396822" lon="9.98896556615769"><ele>36.0</ele><time>2026-04-06T09:25:07Z</time></trkpt><trkpt lat="45.07788562289581" lon="9.988964250223214"><ele>36.0</ele><time>2026-04-06T09:25:08Z</time></trkpt><trkpt lat="45.07797282855974" lon="9.988963001630324"><ele>36.0</ele><time>2026-04-06T09:25:09Z</time></trkpt><trkpt lat="45.078061120737054" lon="9.988963718001832"><ele>36.0</ele><time>2026-04-06T09:25:10Z</time></trkpt><trkpt lat="45.07814916869547" lon="9.988959626266611"><ele>36.0</ele><time>2026-04-06T09:25:11Z</time></trkpt><trkpt lat="45.07823660408504" lon="9.988954953439013"><ele>36.0</ele><time>2026-04-06T09:25:12Z</time></trkpt><trkpt lat="45.07832369782692" lon="9.988945429881655"><ele>36.166666666666664</ele><time>2026-04-06T09:25:13Z</time></trkpt><trkpt lat="45.07841042110808" lon="9.988934589926341"><ele>36.333333333333336</ele><time>2026-04-06T09:25:14Z</time></trkpt><trkpt lat="45.078497455016155" lon="9.988916913828984"><ele>36.5</ele><time>2026-04-06T09:25:15Z</time></trkpt><trkpt lat="45.078581336911085" lon="9.988895635692401"><ele>36.66666666666667</ele><time>2026-04-06T09:25:16Z</time></trkpt><trkpt lat="45.07866848516819" lon="9.988874579314512"><ele>36.833333333333336</ele><time>2026-04-06T09:25:17Z</time></trkpt><trkpt lat="45.07875436224028" lon="9.988856069326685"><ele>37.0</ele><time>2026-04-06T09:25:18Z</time></trkpt><trkpt lat="45.07883907552485" lon="9.988841341184193"><ele>37.0</ele><time>2026-04-06T09:25:19Z</time></trkpt><trkpt lat="45.07892610087543" lon="9.988829829705125"><ele>37.0</ele><time>2026-04-06T09:25:20Z</time></trkpt><trkpt lat="45.07901135488748" lon="9.988814267008856"><ele>37.0</ele><time>2026-04-06T09:25:21Z</time></trkpt><trkpt lat="45.079097025509874" lon="9.988795091599718"><ele>37.0</ele><time>2026-04-06T09:25:22Z</time></trkpt><trkpt lat="45.079182992931464" lon="9.988777923368005"><ele>37.0</ele><time>2026-04-06T09:25:23Z</time></trkpt><trkpt lat="45.079268751937384" lon="9.988757383048323"><ele>37.0</ele><time>2026-04-06T09:25:24Z</time></trkpt><trkpt lat="45.07935489468567" lon="9.988730642281102"><ele>37.16666666666667</ele><time>2026-04-06T09:25:25Z</time></trkpt><trkpt lat="45.079438927874676" lon="9.988700027523754"><ele>37.333333333333336</ele><time>2026-04-06T09:25:26Z</time></trkpt><trkpt lat="45.07952121577329" lon="9.988671186994036"><ele>37.5</ele><time>2026-04-06T09:25:27Z</time></trkpt><trkpt lat="45.07960552067212" lon="9.988640763868915"><ele>37.666666666666664</ele><time>2026-04-06T09:25:28Z</time></trkpt><trkpt lat="45.07968934391326" lon="9.988606026247602"><ele>37.83333333333333</ele><time>2026-04-06T09:25:29Z</time></trkpt><trkpt lat="45.0797732325748" lon="9.98856775815649"><ele>38.0</ele><time>2026-04-06T09:25:30Z</time></trkpt><trkpt lat="45.079855666293845" lon="9.988529811917811"><ele>38.0</ele><time>2026-04-06T09:25:31Z</time></trkpt><trkpt lat="45.07993835193756" lon="9.988494227529754"><ele>38.0</ele><time>2026-04-06T09:25:32Z</time></trkpt><trkpt lat="45.08002193812286" lon="9.988460036310075"><ele>38.0</ele><time>2026-04-06T09:25:33Z</time></trkpt><trkpt lat="45.08010518654966" lon="9.98842897038375"><ele>38.0</ele><time>2026-04-06T09:25:34Z</time></trkpt><trkpt lat="45.08018846354322" lon="9.988390136706029"><ele>38.0</ele><time>2026-04-06T09:25:35Z</time></trkpt><trkpt lat="45.080270552010724" lon="9.988355375024671"><ele>38.0</ele><time>2026-04-06T09:25:36Z</time></trkpt><trkpt lat="45.08035271673904" lon="9.988321629952368"><ele>38.0</ele><time>2026-04-06T09:25:37Z</time></trkpt><trkpt lat="45.080440730033594" lon="9.988295365707293"><ele>38.0</ele><time>2026-04-06T09:25:38Z</time></trkpt><trkpt lat="45.0805248154947" lon="9.988279927793055"><ele>38.0</ele><time>2026-04-06T09:25:39Z</time></trkpt><trkpt lat="45.08060984274726" lon="9.98827703731441"><ele>38.0</ele><time>2026-04-06T09:25:40Z</time></trkpt><trkpt lat="45.08069558769671" lon="9.988294892831425"><ele>38.0</ele><time>2026-04-06T09:25:41Z</time></trkpt><trkpt lat="45.08077929998235" lon="9.988322900315378"><ele>38.0</ele><time>2026-04-06T09:25:42Z</time></trkpt><trkpt lat="45.08085891032891" lon="9.988371490001864"><ele>37.6</ele><time>2026-04-06T09:25:43Z</time></trkpt><trkpt lat="45.08093732239568" lon="9.988410663799378"><ele>37.199999999999996</ele><time>2026-04-06T09:25:44Z</time></trkpt><trkpt lat="45.081019741467436" lon="9.988387181607676"><ele>36.8</ele><time>2026-04-06T09:25:45Z</time></trkpt><trkpt lat="45.08108459496547" lon="9.988304508646626"><ele>36.4</ele><time>2026-04-06T09:25:46Z</time></trkpt><trkpt lat="45.08113682885418" lon="9.988193265842625"><ele>36.0</ele><time>2026-04-06T09:25:47Z</time></trkpt><trkpt lat="45.081197265294456" lon="9.988077725451811"><ele>36.0</ele><time>2026-04-06T09:25:48Z</time></trkpt><trkpt lat="45.08124738394223" lon="9.987992547509528"><ele>36.0</ele><time>2026-04-06T09:25:49Z</time></trkpt><trkpt lat="45.081325068019446" lon="9.98792540474702"><ele>36.0</ele><time>2026-04-06T09:25:50Z</time></trkpt><trkpt lat="45.08140934516861" lon="9.987876775207779"><ele>36.0</ele><time>2026-04-06T09:25:51Z</time></trkpt><trkpt lat="45.08149638603299" lon="9.987842566391608"><ele>36.0</ele><time>2026-04-06T09:25:52Z</time></trkpt><trkpt lat="45.081583511617" lon="9.987817142907941"><ele>36.0</ele><time>2026-04-06T09:25:53Z</time></trkpt><trkpt lat="45.081665634134374" lon="9.98778774803912"><ele>36.166666666666664</ele><time>2026-04-06T09:25:53.999Z</time></trkpt><trkpt lat="45.08174861269878" lon="9.9877586084388"><ele>36.333333333333336</ele><time>2026-04-06T09:25:54.999Z</time></trkpt><trkpt lat="45.08182827197657" lon="9.987724842927701"><ele>36.5</ele><time>2026-04-06T09:25:55.999Z</time></trkpt><trkpt lat="45.08190814263807" lon="9.987692296717317"><ele>36.66666666666667</ele><time>2026-04-06T09:25:56.999Z</time></trkpt><trkpt lat="45.08198739220952" lon="9.987659511556972"><ele>36.833333333333336</ele><time>2026-04-06T09:25:57.999Z</time></trkpt><trkpt lat="45.08206718749585" lon="9.987623370463393"><ele>37.0</ele><time>2026-04-06T09:25:58.999Z</time></trkpt><trkpt lat="45.082149811670654" lon="9.987587311435615"><ele>37.0</ele><time>2026-04-06T09:25:59.999Z</time></trkpt><trkpt lat="45.08223711360122" lon="9.987556075974966"><ele>37.0</ele><time>2026-04-06T09:26:00.999Z</time></trkpt><trkpt lat="45.08232401983086" lon="9.987523153677076"><ele>37.0</ele><time>2026-04-06T09:26:01.999Z</time></trkpt><trkpt lat="45.08240757404054" lon="9.987484847746009"><ele>37.0</ele><time>2026-04-06T09:26:02.999Z</time></trkpt><trkpt lat="45.08249028287569" lon="9.987448495083541"><ele>37.0</ele><time>2026-04-06T09:26:03.999Z</time></trkpt><trkpt lat="45.082572071355145" lon="9.987416440209628"><ele>37.0</ele><time>2026-04-06T09:26:04.999Z</time></trkpt><trkpt lat="45.08265420548912" lon="9.987384358045873"><ele>36.66666666666667</ele><time>2026-04-06T09:26:05.999Z</time></trkpt><trkpt lat="45.08273793081214" lon="9.987352787344216"><ele>36.333333333333336</ele><time>2026-04-06T09:26:06.999Z</time></trkpt><trkpt lat="45.08282320041618" lon="9.987319601802561"><ele>36.0</ele><time>2026-04-06T09:26:07.999Z</time></trkpt><trkpt lat="45.08290459053164" lon="9.987280694207671"><ele>35.666666666666664</ele><time>2026-04-06T09:26:08.999Z</time></trkpt><trkpt lat="45.0829844983926" lon="9.98724107223239"><ele>35.33333333333333</ele><time>2026-04-06T09:26:09.999Z</time></trkpt><trkpt lat="45.083065481243224" lon="9.987198836672627"><ele>35.0</ele><time>2026-04-06T09:26:10.999Z</time></trkpt><trkpt lat="45.08314603628727" lon="9.987149856079826"><ele>35.0</ele><time>2026-04-06T09:26:11.999Z</time></trkpt><trkpt lat="45.083225895063634" lon="9.987095011606312"><ele>35.0</ele><time>2026-04-06T09:26:12.999Z</time></trkpt><trkpt lat="45.083301477420505" lon="9.987039289204985"><ele>35.0</ele><time>2026-04-06T09:26:13.999Z</time></trkpt><trkpt lat="45.08338141078248" lon="9.986981111289582"><ele>35.0</ele><time>2026-04-06T09:26:14.999Z</time></trkpt><trkpt lat="45.08345453590326" lon="9.986926625526277"><ele>35.0</ele><time>2026-04-06T09:26:15.999Z</time></trkpt><trkpt lat="45.083524357528" lon="9.986863578227581"><ele>35.0</ele><time>2026-04-06T09:26:16.999Z</time></trkpt><trkpt lat="45.08361023493377" lon="9.986800871368724"><ele>35.33333333333333</ele><time>2026-04-06T09:26:17.999Z</time></trkpt><trkpt lat="45.08367528035064" lon="9.986743056383629"><ele>35.666666666666664</ele><time>2026-04-06T09:26:18.999Z</time></trkpt><trkpt lat="45.08375474017115" lon="9.98669299055647"><ele>36.0</ele><time>2026-04-06T09:26:19.999Z</time></trkpt><trkpt lat="45.08383457945279" lon="9.98664640271758"><ele>36.333333333333336</ele><time>2026-04-06T09:26:20.999Z</time></trkpt><trkpt lat="45.083915613096835" lon="9.986608879900183"><ele>36.66666666666667</ele><time>2026-04-06T09:26:21.999Z</time></trkpt><trkpt lat="45.08400405261784" lon="9.986572314171934"><ele>37.0</ele><time>2026-04-06T09:26:22.999Z</time></trkpt><trkpt lat="45.084091742823524" lon="9.98654255101745"><ele>36.6</ele><time>2026-04-06T09:26:23.999Z</time></trkpt><trkpt lat="45.08418052919647" lon="9.986517019897832"><ele>36.2</ele><time>2026-04-06T09:26:24.999Z</time></trkpt><trkpt lat="45.084267573850326" lon="9.986508280102893"><ele>35.8</ele><time>2026-04-06T09:26:25.999Z</time></trkpt><trkpt lat="45.08436010158795" lon="9.986504836480425"><ele>35.4</ele><time>2026-04-06T09:26:26.999Z</time></trkpt><trkpt lat="45.084453911823914" lon="9.986509567485122"><ele>35.0</ele><time>2026-04-06T09:26:27.999Z</time></trkpt><trkpt lat="45.08454214721604" lon="9.986523420934384"><ele>35.0</ele><time>2026-04-06T09:26:28.999Z</time></trkpt><trkpt lat="45.08463063016811" lon="9.986548240413816"><ele>35.0</ele><time>2026-04-06T09:26:29.999Z</time></trkpt><trkpt lat="45.08471798670095" lon="9.986576928165446"><ele>35.0</ele><time>2026-04-06T09:26:30.999Z</time></trkpt><trkpt lat="45.0848044236483" lon="9.986614649050654"><ele>35.0</ele><time>2026-04-06T09:26:31.999Z</time></trkpt><trkpt lat="45.08488744430994" lon="9.986658035338401"><ele>35.0</ele><time>2026-04-06T09:26:32.999Z</time></trkpt><trkpt lat="45.08497024940164" lon="9.986706836113491"><ele>35.0</ele><time>2026-04-06T09:26:33.999Z</time></trkpt><trkpt lat="45.08504370935588" lon="9.98677123994926"><ele>35.0</ele><time>2026-04-06T09:26:34.999Z</time></trkpt><trkpt lat="45.08513240922586" lon="9.986835618985902"><ele>35.0</ele><time>2026-04-06T09:26:35.999Z</time></trkpt><trkpt lat="45.0851938957213" lon="9.986909467967067"><ele>35.0</ele><time>2026-04-06T09:26:36.999Z</time></trkpt><trkpt lat="45.08526348989306" lon="9.986989856805215"><ele>35.0</ele><time>2026-04-06T09:26:37.999Z</time></trkpt><trkpt lat="45.08532965297596" lon="9.987074190116203"><ele>35.0</ele><time>2026-04-06T09:26:38.999Z</time></trkpt><trkpt lat="45.08539320736325" lon="9.987156100611811"><ele>35.0</ele><time>2026-04-06T09:26:39.999Z</time></trkpt><trkpt lat="45.08545846796002" lon="9.98724338061023"><ele>35.0</ele><time>2026-04-06T09:26:40.999Z</time></trkpt><trkpt lat="45.085525286095276" lon="9.987327379295177"><ele>35.0</ele><time>2026-04-06T09:26:41.999Z</time></trkpt><trkpt lat="45.08559352279947" lon="9.987410295737057"><ele>35.0</ele><time>2026-04-06T09:26:42.999Z</time></trkpt><trkpt lat="45.08565997521046" lon="9.987490656358053"><ele>35.0</ele><time>2026-04-06T09:26:43.999Z</time></trkpt><trkpt lat="45.08572607628997" lon="9.987573113240629"><ele>35.0</ele><time>2026-04-06T09:26:44.999Z</time></trkpt><trkpt lat="45.08579376623995" lon="9.987657049817635"><ele>35.0</ele><time>2026-04-06T09:26:45.999Z</time></trkpt><trkpt lat="45.08586177926281" lon="9.98773834193987"><ele>35.0</ele><time>2026-04-06T09:26:46.998Z</time></trkpt><trkpt lat="45.08592994291945" lon="9.98782084154147"><ele>35.0</ele><time>2026-04-06T09:26:47.998Z</time></trkpt><trkpt lat="45.085998034357715" lon="9.9879023072435"><ele>35.0</ele><time>2026-04-06T09:26:48.998Z</time></trkpt><trkpt lat="45.086065498733305" lon="9.987985297110864"><ele>35.0</ele><time>2026-04-06T09:26:49.998Z</time></trkpt><trkpt lat="45.0861336402314" lon="9.988066110289626"><ele>35.0</ele><time>2026-04-06T09:26:50.998Z</time></trkpt><trkpt lat="45.08620077876527" lon="9.988148163577192"><ele>35.0</ele><time>2026-04-06T09:26:51.998Z</time></trkpt><trkpt lat="45.08626668959584" lon="9.988229389744987"><ele>35.0</ele><time>2026-04-06T09:26:52.998Z</time></trkpt><trkpt lat="45.0863337682323" lon="9.988309948049384"><ele>35.0</ele><time>2026-04-06T09:26:53.998Z</time></trkpt><trkpt lat="45.086402078028286" lon="9.98839155775321"><ele>35.0</ele><time>2026-04-06T09:26:54.998Z</time></trkpt><trkpt lat="45.08646956953813" lon="9.988472033082878"><ele>35.0</ele><time>2026-04-06T09:26:56Z</time></trkpt><trkpt lat="45.08653582540154" lon="9.988553938870966"><ele>35.0</ele><time>2026-04-06T09:26:57Z</time></trkpt><trkpt lat="45.08660314042959" lon="9.988638138006028"><ele>35.0</ele><time>2026-04-06T09:26:58Z</time></trkpt><trkpt lat="45.086671020448435" lon="9.988722443544226"><ele>35.0</ele><time>2026-04-06T09:26:59Z</time></trkpt><trkpt lat="45.08673948974272" lon="9.988804120271025"><ele>35.0</ele><time>2026-04-06T09:27:00Z</time></trkpt><trkpt lat="45.08680699048524" lon="9.988886975271255"><ele>35.0</ele><time>2026-04-06T09:27:01Z</time></trkpt><trkpt lat="45.08687628325278" lon="9.988967054666817"><ele>35.0</ele><time>2026-04-06T09:27:02Z</time></trkpt><trkpt lat="45.08694351327813" lon="9.989048095543428"><ele>35.0</ele><time>2026-04-06T09:27:03Z</time></trkpt><trkpt lat="45.08701149708132" lon="9.989132690822608"><ele>35.0</ele><time>2026-04-06T09:27:04Z</time></trkpt><trkpt lat="45.08707834454093" lon="9.989216315629266"><ele>35.0</ele><time>2026-04-06T09:27:05Z</time></trkpt><trkpt lat="45.087147621627636" lon="9.989298404612303"><ele>35.0</ele><time>2026-04-06T09:27:06Z</time></trkpt><trkpt lat="45.0872147174396" lon="9.989379472209764"><ele>35.0</ele><time>2026-04-06T09:27:07Z</time></trkpt><trkpt lat="45.087266942360564" lon="9.989458930867729"><ele>35.0</ele><time>2026-04-06T09:27:08Z</time></trkpt><trkpt lat="45.087347920046334" lon="9.989542157721292"><ele>35.0</ele><time>2026-04-06T09:27:09Z</time></trkpt><trkpt lat="45.087413618605076" lon="9.98962450719942"><ele>35.0</ele><time>2026-04-06T09:27:10Z</time></trkpt><trkpt lat="45.08748136800753" lon="9.989705645343479"><ele>35.0</ele><time>2026-04-06T09:27:11Z</time></trkpt><trkpt lat="45.087549013770655" lon="9.989789279863365"><ele>35.0</ele><time>2026-04-06T09:27:12Z</time></trkpt><trkpt lat="45.08761709302858" lon="9.989867689969927"><ele>35.0</ele><time>2026-04-06T09:27:13Z</time></trkpt><trkpt lat="45.08768268412839" lon="9.989949414467212"><ele>35.0</ele><time>2026-04-06T09:27:14Z</time></trkpt><trkpt lat="45.087752900070164" lon="9.990033286774079"><ele>35.0</ele><time>2026-04-06T09:27:15Z</time></trkpt><trkpt lat="45.08782026976695" lon="9.990117738732227"><ele>35.0</ele><time>2026-04-06T09:27:16Z</time></trkpt><trkpt lat="45.087889288993836" lon="9.99019928524165"><ele>35.0</ele><time>2026-04-06T09:27:17Z</time></trkpt><trkpt lat="45.08795682681788" lon="9.990277492821974"><ele>35.0</ele><time>2026-04-06T09:27:18Z</time></trkpt><trkpt lat="45.088025057956884" lon="9.990359394269069"><ele>35.0</ele><time>2026-04-06T09:27:19Z</time></trkpt><trkpt lat="45.088092292513466" lon="9.99043980856046"><ele>35.0</ele><time>2026-04-06T09:27:20Z</time></trkpt><trkpt lat="45.088156017699596" lon="9.990519416823211"><ele>35.0</ele><time>2026-04-06T09:27:21Z</time></trkpt><trkpt lat="45.08821972870136" lon="9.990602705684397"><ele>35.0</ele><time>2026-04-06T09:27:22Z</time></trkpt><trkpt lat="45.088284950683544" lon="9.99068539066763"><ele>35.33333333333333</ele><time>2026-04-06T09:27:23Z</time></trkpt><trkpt lat="45.08835289453404" lon="9.990758949933408"><ele>35.666666666666664</ele><time>2026-04-06T09:27:24Z</time></trkpt><trkpt lat="45.08841909193791" lon="9.99083528292441"><ele>36.0</ele><time>2026-04-06T09:27:25Z</time></trkpt><trkpt lat="45.08848818594257" lon="9.990910167832693"><ele>36.333333333333336</ele><time>2026-04-06T09:27:26Z</time></trkpt><trkpt lat="45.08855787487091" lon="9.990978000633563"><ele>36.66666666666667</ele><time>2026-04-06T09:27:27Z</time></trkpt><trkpt lat="45.08862880289096" lon="9.991043262708489"><ele>37.0</ele><time>2026-04-06T09:27:28Z</time></trkpt><trkpt lat="45.08870478594652" lon="9.991102220304505"><ele>37.16666666666667</ele><time>2026-04-06T09:27:29Z</time></trkpt><trkpt lat="45.088785343361444" lon="9.991148435544577"><ele>37.333333333333336</ele><time>2026-04-06T09:27:30Z</time></trkpt><trkpt lat="45.0888681677854" lon="9.991189005720027"><ele>37.5</ele><time>2026-04-06T09:27:31Z</time></trkpt><trkpt lat="45.08895497571137" lon="9.991221789770963"><ele>37.666666666666664</ele><time>2026-04-06T09:27:32Z</time></trkpt><trkpt lat="45.08904443055338" lon="9.991247270743623"><ele>37.83333333333333</ele><time>2026-04-06T09:27:33Z</time></trkpt><trkpt lat="45.0891274808492" lon="9.991279485650605"><ele>38.0</ele><time>2026-04-06T09:27:34Z</time></trkpt><trkpt lat="45.08922051781812" lon="9.991317967015465"><ele>38.0</ele><time>2026-04-06T09:27:35Z</time></trkpt><trkpt lat="45.089308653545864" lon="9.991350804093601"><ele>38.0</ele><time>2026-04-06T09:27:36Z</time></trkpt><trkpt lat="45.08939549879099" lon="9.991390110532159"><ele>38.0</ele><time>2026-04-06T09:27:37Z</time></trkpt><trkpt lat="45.08948059573514" lon="9.991422452844343"><ele>38.0</ele><time>2026-04-06T09:27:38Z</time></trkpt><trkpt lat="45.089563551414095" lon="9.991453221593241"><ele>38.0</ele><time>2026-04-06T09:27:39Z</time></trkpt><trkpt lat="45.089646137819265" lon="9.99148442001616"><ele>38.0</ele><time>2026-04-06T09:27:40Z</time></trkpt><trkpt lat="45.08972128115583" lon="9.991509978359987"><ele>38.0</ele><time>2026-04-06T09:27:41Z</time></trkpt><trkpt lat="45.08979404675913" lon="9.991533400209411"><ele>38.0</ele><time>2026-04-06T09:27:42Z</time></trkpt><trkpt lat="45.089861862879516" lon="9.991563659067058"><ele>38.0</ele><time>2026-04-06T09:27:43Z</time></trkpt><trkpt lat="45.08992380372082" lon="9.991608845021313"><ele>38.0</ele><time>2026-04-06T09:27:44Z</time></trkpt><trkpt lat="45.08997707181521" lon="9.991676785461477"><ele>38.0</ele><time>2026-04-06T09:27:45Z</time></trkpt><trkpt lat="45.0900437007393" lon="9.991755437936948"><ele>38.0</ele><time>2026-04-06T09:27:46Z</time></trkpt><trkpt lat="45.090090839158734" lon="9.991823456354625"><ele>38.0</ele><time>2026-04-06T09:27:47Z</time></trkpt><trkpt lat="45.09023210431164" lon="9.991855990826442"><ele>38.166666666666664</ele><time>2026-04-06T09:27:49Z</time></trkpt><trkpt lat="45.09030900536034" lon="9.991811934626591"><ele>38.33333333333333</ele><time>2026-04-06T09:27:50Z</time></trkpt><trkpt lat="45.09038238695608" lon="9.991758880149062"><ele>38.5</ele><time>2026-04-06T09:27:51Z</time></trkpt><trkpt lat="45.090454239951164" lon="9.991713874345617"><ele>38.666666666666664</ele><time>2026-04-06T09:27:52Z</time></trkpt><trkpt lat="45.09053661505635" lon="9.991696108749768"><ele>38.833333333333336</ele><time>2026-04-06T09:27:53Z</time></trkpt><trkpt lat="45.09062331895886" lon="9.991707090146678"><ele>39.0</ele><time>2026-04-06T09:27:54Z</time></trkpt><trkpt lat="45.090711593044766" lon="9.991724540609587"><ele>38.666666666666664</ele><time>2026-04-06T09:27:55Z</time></trkpt><trkpt lat="45.090798361006335" lon="9.991741544319426"><ele>38.333333333333336</ele><time>2026-04-06T09:27:56Z</time></trkpt><trkpt lat="45.09088511977161" lon="9.9917569134693"><ele>38.0</ele><time>2026-04-06T09:27:57Z</time></trkpt><trkpt lat="45.09096920182681" lon="9.99177409379935"><ele>37.66666666666667</ele><time>2026-04-06T09:27:58Z</time></trkpt><trkpt lat="45.09105709078196" lon="9.991792633518225"><ele>37.333333333333336</ele><time>2026-04-06T09:27:58.999Z</time></trkpt><trkpt lat="45.0911398843426" lon="9.991811479223015"><ele>37.0</ele><time>2026-04-06T09:27:59.999Z</time></trkpt><trkpt lat="45.09122298418171" lon="9.991829601669862"><ele>37.0</ele><time>2026-04-06T09:28:00.999Z</time></trkpt><trkpt lat="45.09130527561638" lon="9.991848686273725"><ele>37.0</ele><time>2026-04-06T09:28:01.999Z</time></trkpt><trkpt lat="45.09138546747358" lon="9.991867849270463"><ele>37.0</ele><time>2026-04-06T09:28:02.999Z</time></trkpt><trkpt lat="45.0914690883769" lon="9.991888698644061"><ele>37.0</ele><time>2026-04-06T09:28:03.999Z</time></trkpt><trkpt lat="45.09155404757567" lon="9.99190880722373"><ele>37.0</ele><time>2026-04-06T09:28:04.999Z</time></trkpt><trkpt lat="45.09163791609121" lon="9.991928574160315"><ele>37.0</ele><time>2026-04-06T09:28:05.999Z</time></trkpt><trkpt lat="45.09172356610604" lon="9.99194705092539"><ele>37.16666666666667</ele><time>2026-04-06T09:28:06.999Z</time></trkpt><trkpt lat="45.09180860189372" lon="9.991966292831274"><ele>37.333333333333336</ele><time>2026-04-06T09:28:07.999Z</time></trkpt><trkpt lat="45.09189673016627" lon="9.99198653094282"><ele>37.5</ele><time>2026-04-06T09:28:08.999Z</time></trkpt><trkpt lat="45.09198259191727" lon="9.99200999594953"><ele>37.666666666666664</ele><time>2026-04-06T09:28:09.999Z</time></trkpt><trkpt lat="45.09206971540638" lon="9.992028761547479"><ele>37.83333333333333</ele><time>2026-04-06T09:28:10.999Z</time></trkpt><trkpt lat="45.092158616099724" lon="9.99203796531888"><ele>38.0</ele><time>2026-04-06T09:28:11.999Z</time></trkpt><trkpt lat="45.09225086902401" lon="9.992044335695432"><ele>38.0</ele><time>2026-04-06T09:28:12.999Z</time></trkpt><trkpt lat="45.09234012377724" lon="9.992041809879357"><ele>38.0</ele><time>2026-04-06T09:28:13.999Z</time></trkpt><trkpt lat="45.09243310348678" lon="9.99203420121932"><ele>38.0</ele><time>2026-04-06T09:28:14.999Z</time></trkpt><trkpt lat="45.09252361967028" lon="9.992022524784403"><ele>38.0</ele><time>2026-04-06T09:28:15.999Z</time></trkpt><trkpt lat="45.09261473233944" lon="9.9920032828126"><ele>38.0</ele><time>2026-04-06T09:28:16.999Z</time></trkpt><trkpt lat="45.09270700755818" lon="9.991982854347842"><ele>37.83333333333333</ele><time>2026-04-06T09:28:17.999Z</time></trkpt><trkpt lat="45.09279870255259" lon="9.991957053623615"><ele>37.666666666666664</ele><time>2026-04-06T09:28:18.999Z</time></trkpt><trkpt lat="45.09288738184921" lon="9.991925720553011"><ele>37.5</ele><time>2026-04-06T09:28:19.999Z</time></trkpt><trkpt lat="45.092973659133875" lon="9.991888778127803"><ele>37.333333333333336</ele><time>2026-04-06T09:28:20.999Z</time></trkpt><trkpt lat="45.093053163834426" lon="9.991840116732304"><ele>37.16666666666667</ele><time>2026-04-06T09:28:21.999Z</time></trkpt><trkpt lat="45.09313616456186" lon="9.991800669173601"><ele>37.0</ele><time>2026-04-06T09:28:22.999Z</time></trkpt><trkpt lat="45.09321516088154" lon="9.991752122504222"><ele>37.16666666666667</ele><time>2026-04-06T09:28:23.999Z</time></trkpt><trkpt lat="45.09329539660254" lon="9.991696566204496"><ele>37.333333333333336</ele><time>2026-04-06T09:28:24.999Z</time></trkpt><trkpt lat="45.09337523019688" lon="9.991637576250833"><ele>37.5</ele><time>2026-04-06T09:28:25.999Z</time></trkpt><trkpt lat="45.09345325280564" lon="9.99157432579313"><ele>37.666666666666664</ele><time>2026-04-06T09:28:26.999Z</time></trkpt><trkpt lat="45.09352559208919" lon="9.991511092639577"><ele>37.83333333333333</ele><time>2026-04-06T09:28:27.999Z</time></trkpt><trkpt lat="45.09360629893871" lon="9.991445785799852"><ele>38.0</ele><time>2026-04-06T09:28:28.999Z</time></trkpt><trkpt lat="45.09368658070333" lon="9.991383448503337"><ele>38.0</ele><time>2026-04-06T09:28:29.999Z</time></trkpt><trkpt lat="45.09376286365212" lon="9.991321650986034"><ele>38.0</ele><time>2026-04-06T09:28:30.999Z</time></trkpt><trkpt lat="45.09383787911506" lon="9.99125712935475"><ele>38.0</ele><time>2026-04-06T09:28:31.999Z</time></trkpt><trkpt lat="45.0939145428435" lon="9.991188453728773"><ele>38.0</ele><time>2026-04-06T09:28:32.999Z</time></trkpt><trkpt lat="45.09399304614941" lon="9.991123379686876"><ele>38.0</ele><time>2026-04-06T09:28:33.999Z</time></trkpt><trkpt lat="45.09407352866768" lon="9.991058079170426"><ele>37.8</ele><time>2026-04-06T09:28:34.999Z</time></trkpt><trkpt lat="45.09415400215492" lon="9.99099346103356"><ele>37.599999999999994</ele><time>2026-04-06T09:28:35.999Z</time></trkpt><trkpt lat="45.094238435366265" lon="9.990930848824497"><ele>37.400000000000006</ele><time>2026-04-06T09:28:36.999Z</time></trkpt><trkpt lat="45.0943245402157" lon="9.990884071854227"><ele>37.2</ele><time>2026-04-06T09:28:37.999Z</time></trkpt><trkpt lat="45.09441599467453" lon="9.990858334377762"><ele>37.0</ele><time>2026-04-06T09:28:38.999Z</time></trkpt><trkpt lat="45.094506504663535" lon="9.990848151029653"><ele>37.0</ele><time>2026-04-06T09:28:39.999Z</time></trkpt><trkpt lat="45.0945975202384" lon="9.990845251597664"><ele>37.0</ele><time>2026-04-06T09:28:40.999Z</time></trkpt><trkpt lat="45.09468615424089" lon="9.990854045946184"><ele>37.0</ele><time>2026-04-06T09:28:41.999Z</time></trkpt><trkpt lat="45.094776432203645" lon="9.990846912931836"><ele>37.0</ele><time>2026-04-06T09:28:42.999Z</time></trkpt><trkpt lat="45.09486769947991" lon="9.990837457357458"><ele>37.0</ele><time>2026-04-06T09:28:43.999Z</time></trkpt><trkpt lat="45.094960910907474" lon="9.990815943552697"><ele>37.6</ele><time>2026-04-06T09:28:44.999Z</time></trkpt><trkpt lat="45.095050777806335" lon="9.990791353401509"><ele>38.2</ele><time>2026-04-06T09:28:45.999Z</time></trkpt><trkpt lat="45.095141940280136" lon="9.990757848711839"><ele>38.8</ele><time>2026-04-06T09:28:46.999Z</time></trkpt><trkpt lat="45.0952336711794" lon="9.990723092706443"><ele>39.4</ele><time>2026-04-06T09:28:47.999Z</time></trkpt><trkpt lat="45.09532484336946" lon="9.990689503555044"><ele>40.0</ele><time>2026-04-06T09:28:48.999Z</time></trkpt><trkpt lat="45.09541370284629" lon="9.990655768561542"><ele>40.0</ele><time>2026-04-06T09:28:49.999Z</time></trkpt><trkpt lat="45.09550021064991" lon="9.990625421464765"><ele>40.0</ele><time>2026-04-06T09:28:50.999Z</time></trkpt><trkpt lat="45.09558620158745" lon="9.990597272182471"><ele>40.0</ele><time>2026-04-06T09:28:51.999Z</time></trkpt><trkpt lat="45.095670861708335" lon="9.990567472312755"><ele>40.0</ele><time>2026-04-06T09:28:52.998Z</time></trkpt><trkpt lat="45.09575381854876" lon="9.99053941114266"><ele>40.0</ele><time>2026-04-06T09:28:53.998Z</time></trkpt><trkpt lat="45.095836738700484" lon="9.990511300458486"><ele>40.0</ele><time>2026-04-06T09:28:54.998Z</time></trkpt><trkpt lat="45.095920891673266" lon="9.990485244378556"><ele>39.8</ele><time>2026-04-06T09:28:55.998Z</time></trkpt><trkpt lat="45.09600898387201" lon="9.990459166702163"><ele>39.6</ele><time>2026-04-06T09:28:56.998Z</time></trkpt><trkpt lat="45.096099022656375" lon="9.99043867327555"><ele>39.4</ele><time>2026-04-06T09:28:57.998Z</time></trkpt><trkpt lat="45.09618906891119" lon="9.990424687388593"><ele>39.2</ele><time>2026-04-06T09:28:58.998Z</time></trkpt><trkpt lat="45.09627871155763" lon="9.990415963189315"><ele>39.0</ele><time>2026-04-06T09:28:59.998Z</time></trkpt><trkpt lat="45.09637596686774" lon="9.99040586189609"><ele>39.0</ele><time>2026-04-06T09:29:00.998Z</time></trkpt><trkpt lat="45.096472470811186" lon="9.990383339064186"><ele>39.0</ele><time>2026-04-06T09:29:02Z</time></trkpt><trkpt lat="45.09656784042853" lon="9.990359910426056"><ele>39.0</ele><time>2026-04-06T09:29:03Z</time></trkpt><trkpt lat="45.09666215036048" lon="9.990333427030283"><ele>39.0</ele><time>2026-04-06T09:29:04Z</time></trkpt><trkpt lat="45.09675556122068" lon="9.990308812501457"><ele>39.0</ele><time>2026-04-06T09:29:05Z</time></trkpt><trkpt lat="45.09684781165648" lon="9.990282737319014"><ele>38.6</ele><time>2026-04-06T09:29:06Z</time></trkpt><trkpt lat="45.09693980909452" lon="9.990257015915367"><ele>38.2</ele><time>2026-04-06T09:29:07Z</time></trkpt><trkpt lat="45.097031059229515" lon="9.990230324101034"><ele>37.800000000000004</ele><time>2026-04-06T09:29:08Z</time></trkpt><trkpt lat="45.097120113566305" lon="9.990202491906414"><ele>37.4</ele><time>2026-04-06T09:29:09Z</time></trkpt><trkpt lat="45.09720621970696" lon="9.990170544044918"><ele>37.0</ele><time>2026-04-06T09:29:10Z</time></trkpt><trkpt lat="45.09729125411439" lon="9.990136906274243"><ele>37.0</ele><time>2026-04-06T09:29:11Z</time></trkpt><trkpt lat="45.09737455356529" lon="9.990103435904064"><ele>37.0</ele><time>2026-04-06T09:29:12Z</time></trkpt><trkpt lat="45.0974576088852" lon="9.990069558229985"><ele>37.0</ele><time>2026-04-06T09:29:13Z</time></trkpt><trkpt lat="45.097541211959474" lon="9.9900366842565"><ele>37.0</ele><time>2026-04-06T09:29:14Z</time></trkpt><trkpt lat="45.09762568286452" lon="9.990003665692582"><ele>37.0</ele><time>2026-04-06T09:29:15Z</time></trkpt><trkpt lat="45.097708610287626" lon="9.989966568170349"><ele>37.0</ele><time>2026-04-06T09:29:16Z</time></trkpt><trkpt lat="45.0977933401162" lon="9.989929012706488"><ele>37.16666666666667</ele><time>2026-04-06T09:29:17Z</time></trkpt><trkpt lat="45.097878148402216" lon="9.989894831699049"><ele>37.333333333333336</ele><time>2026-04-06T09:29:18Z</time></trkpt><trkpt lat="45.09796107625021" lon="9.989858102622891"><ele>37.5</ele><time>2026-04-06T09:29:19Z</time></trkpt><trkpt lat="45.09804434678145" lon="9.989826382591898"><ele>37.666666666666664</ele><time>2026-04-06T09:29:20Z</time></trkpt><trkpt lat="45.0981299514699" lon="9.989795814243147"><ele>37.83333333333333</ele><time>2026-04-06T09:29:21Z</time></trkpt><trkpt lat="45.098209318391085" lon="9.989775173830772"><ele>38.0</ele><time>2026-04-06T09:29:22Z</time></trkpt><trkpt lat="45.098299805608676" lon="9.989773683683588"><ele>38.166666666666664</ele><time>2026-04-06T09:29:23Z</time></trkpt><trkpt lat="45.09838515139811" lon="9.989778028378536"><ele>38.33333333333333</ele><time>2026-04-06T09:29:24Z</time></trkpt><trkpt lat="45.09847654556259" lon="9.989784680199904"><ele>38.5</ele><time>2026-04-06T09:29:25Z</time></trkpt><trkpt lat="45.09856355944913" lon="9.989794059147208"><ele>38.666666666666664</ele><time>2026-04-06T09:29:26Z</time></trkpt><trkpt lat="45.09864809532442" lon="9.989800664699514"><ele>38.833333333333336</ele><time>2026-04-06T09:29:27Z</time></trkpt><trkpt lat="45.09873046077717" lon="9.989804574369069"><ele>39.0</ele><time>2026-04-06T09:29:28Z</time></trkpt><trkpt lat="45.098811069754944" lon="9.98980836048014"><ele>39.0</ele><time>2026-04-06T09:29:29Z</time></trkpt><trkpt lat="45.09888958752932" lon="9.989810405872975"><ele>39.0</ele><time>2026-04-06T09:29:30Z</time></trkpt><trkpt lat="45.098966072592006" lon="9.989817445627358"><ele>39.0</ele><time>2026-04-06T09:29:31Z</time></trkpt><trkpt lat="45.09903349423779" lon="9.98983137823297"><ele>39.0</ele><time>2026-04-06T09:29:32Z</time></trkpt><trkpt lat="45.099100302753946" lon="9.989849534046227"><ele>39.0</ele><time>2026-04-06T09:29:33Z</time></trkpt><trkpt lat="45.09916461610247" lon="9.989880966525844"><ele>39.0</ele><time>2026-04-06T09:29:34Z</time></trkpt><trkpt lat="45.09922517674368" lon="9.989915879255067"><ele>39.0</ele><time>2026-04-06T09:29:35Z</time></trkpt><trkpt lat="45.099315692242094" lon="9.98995934948284"><ele>39.0</ele><time>2026-04-06T09:29:37Z</time></trkpt><trkpt lat="45.0994081260915" lon="9.989844315562673"><ele>39.0</ele><time>2026-04-06T09:29:38Z</time></trkpt><trkpt lat="45.09953550414526" lon="9.98983657453746"><ele>39.0</ele><time>2026-04-06T09:29:40Z</time></trkpt><trkpt lat="45.099603883328605" lon="9.989844785014872"><ele>39.0</ele><time>2026-04-06T09:29:41Z</time></trkpt><trkpt lat="45.09967544557098" lon="9.989858022623508"><ele>39.0</ele><time>2026-04-06T09:29:42Z</time></trkpt><trkpt lat="45.09975227456003" lon="9.989869895757746"><ele>39.0</ele><time>2026-04-06T09:29:43Z</time></trkpt><trkpt lat="45.09982843410077" lon="9.989886212001503"><ele>39.0</ele><time>2026-04-06T09:29:44Z</time></trkpt><trkpt lat="45.099905097746166" lon="9.989910068050856"><ele>39.0</ele><time>2026-04-06T09:29:45Z</time></trkpt><trkpt lat="45.09997845936658" lon="9.989928953322519"><ele>39.0</ele><time>2026-04-06T09:29:46Z</time></trkpt><trkpt lat="45.10005106020285" lon="9.98994918600552"><ele>39.0</ele><time>2026-04-06T09:29:47Z</time></trkpt><trkpt lat="45.100120278926155" lon="9.989972941252628"><ele>39.0</ele><time>2026-04-06T09:29:48Z</time></trkpt><trkpt lat="45.1001835942421" lon="9.98999616867909"><ele>39.0</ele><time>2026-04-06T09:29:49Z</time></trkpt><trkpt lat="45.100247490693185" lon="9.990016558818107"><ele>38.85714285714286</ele><time>2026-04-06T09:29:50Z</time></trkpt><trkpt lat="45.10031075534837" lon="9.990042965197734"><ele>38.71428571428571</ele><time>2026-04-06T09:29:51Z</time></trkpt><trkpt lat="45.10037702019412" lon="9.99006767289746"><ele>38.57142857142857</ele><time>2026-04-06T09:29:52Z</time></trkpt><trkpt lat="45.100444448997706" lon="9.99009508808149"><ele>38.42857142857143</ele><time>2026-04-06T09:29:53Z</time></trkpt><trkpt lat="45.10051417365254" lon="9.990125309753353"><ele>38.28571428571429</ele><time>2026-04-06T09:29:54Z</time></trkpt><trkpt lat="45.100585173882116" lon="9.990154762744634"><ele>38.14285714285714</ele><time>2026-04-06T09:29:55Z</time></trkpt><trkpt lat="45.10065503595446" lon="9.990186045386029"><ele>38.0</ele><time>2026-04-06T09:29:56Z</time></trkpt><trkpt lat="45.100723336269354" lon="9.990214842918727"><ele>38.0</ele><time>2026-04-06T09:29:57Z</time></trkpt><trkpt lat="45.10079156815435" lon="9.990244868636617"><ele>38.0</ele><time>2026-04-06T09:29:58Z</time></trkpt><trkpt lat="45.100858554325185" lon="9.990276203753297"><ele>38.0</ele><time>2026-04-06T09:29:59Z</time></trkpt><trkpt lat="45.10092509394982" lon="9.990305194757283"><ele>38.0</ele><time>2026-04-06T09:30:00Z</time></trkpt><trkpt lat="45.10099375566295" lon="9.990338849333254"><ele>38.0</ele><time>2026-04-06T09:30:01Z</time></trkpt><trkpt lat="45.101062765022476" lon="9.990378212583998"><ele>38.0</ele><time>2026-04-06T09:30:01.999Z</time></trkpt><trkpt lat="45.101133928107664" lon="9.990419356512081"><ele>38.0</ele><time>2026-04-06T09:30:02.999Z</time></trkpt><trkpt lat="45.10120403313185" lon="9.990459823146598"><ele>38.0</ele><time>2026-04-06T09:30:03.999Z</time></trkpt><trkpt lat="45.10127105285405" lon="9.990498036160941"><ele>38.0</ele><time>2026-04-06T09:30:04.999Z</time></trkpt><trkpt lat="45.10133476591164" lon="9.99053828805692"><ele>38.0</ele><time>2026-04-06T09:30:05.999Z</time></trkpt><trkpt lat="45.10139926892455" lon="9.990573863954735"><ele>38.0</ele><time>2026-04-06T09:30:06.999Z</time></trkpt><trkpt lat="45.10146113054821" lon="9.990609519665426"><ele>38.0</ele><time>2026-04-06T09:30:07.999Z</time></trkpt><trkpt lat="45.101520805438305" lon="9.990646696806813"><ele>38.0</ele><time>2026-04-06T09:30:08.999Z</time></trkpt><trkpt lat="45.10158065175567" lon="9.990685635468642"><ele>38.0</ele><time>2026-04-06T09:30:09.999Z</time></trkpt><trkpt lat="45.10164042399517" lon="9.990729031522383"><ele>38.0</ele><time>2026-04-06T09:30:10.999Z</time></trkpt><trkpt lat="45.10169990330189" lon="9.99077933483042"><ele>38.0</ele><time>2026-04-06T09:30:11.999Z</time></trkpt><trkpt lat="45.10175796707109" lon="9.990834645024307"><ele>38.0</ele><time>2026-04-06T09:30:12.999Z</time></trkpt><trkpt lat="45.101815153938674" lon="9.99089997584683"><ele>38.0</ele><time>2026-04-06T09:30:13.999Z</time></trkpt><trkpt lat="45.10187433504962" lon="9.990967218839097"><ele>38.0</ele><time>2026-04-06T09:30:14.999Z</time></trkpt><trkpt lat="45.10193128442858" lon="9.991037568495614"><ele>38.0</ele><time>2026-04-06T09:30:15.999Z</time></trkpt><trkpt lat="45.101988411131885" lon="9.991114018845165"><ele>38.0</ele><time>2026-04-06T09:30:16.999Z</time></trkpt><trkpt lat="45.10204163495032" lon="9.991196234313614"><ele>37.666666666666664</ele><time>2026-04-06T09:30:17.999Z</time></trkpt><trkpt lat="45.10209438380735" lon="9.991280836462685"><ele>37.33333333333333</ele><time>2026-04-06T09:30:18.999Z</time></trkpt><trkpt lat="45.102145184867524" lon="9.99136496142455"><ele>37.0</ele><time>2026-04-06T09:30:19.999Z</time></trkpt><trkpt lat="45.1021922187348" lon="9.991453995057993"><ele>36.666666666666664</ele><time>2026-04-06T09:30:20.999Z</time></trkpt><trkpt lat="45.102237792331934" lon="9.991542766153891"><ele>36.333333333333336</ele><time>2026-04-06T09:30:21.999Z</time></trkpt><trkpt lat="45.10228156375135" lon="9.991631219259355"><ele>36.0</ele><time>2026-04-06T09:30:22.999Z</time></trkpt><trkpt lat="45.10232639171881" lon="9.991716627258223"><ele>36.00000000000001</ele><time>2026-04-06T09:30:23.999Z</time></trkpt><trkpt lat="45.10237114416136" lon="9.991800499549475"><ele>36.0</ele><time>2026-04-06T09:30:24.999Z</time></trkpt><trkpt lat="45.10241339870352" lon="9.9918816449618"><ele>36.0</ele><time>2026-04-06T09:30:25.999Z</time></trkpt><trkpt lat="45.10245655427247" lon="9.99196368878735"><ele>36.0</ele><time>2026-04-06T09:30:26.999Z</time></trkpt><trkpt lat="45.102502592972456" lon="9.992041422411761"><ele>36.0</ele><time>2026-04-06T09:30:27.999Z</time></trkpt><trkpt lat="45.10255363538567" lon="9.992115522770826"><ele>36.00000000000001</ele><time>2026-04-06T09:30:28.999Z</time></trkpt><trkpt lat="45.102608310628504" lon="9.992184901341961"><ele>36.0</ele><time>2026-04-06T09:30:29.999Z</time></trkpt><trkpt lat="45.10266846757697" lon="9.992249673810354"><ele>36.28571428571429</ele><time>2026-04-06T09:30:30.999Z</time></trkpt><trkpt lat="45.10272743252281" lon="9.992315881111901"><ele>36.57142857142857</ele><time>2026-04-06T09:30:31.999Z</time></trkpt><trkpt lat="45.102786066696446" lon="9.99238164298447"><ele>36.85714285714286</ele><time>2026-04-06T09:30:32.999Z</time></trkpt><trkpt lat="45.10284361954971" lon="9.9924498528183"><ele>37.142857142857146</ele><time>2026-04-06T09:30:33.999Z</time></trkpt><trkpt lat="45.1029037343223" lon="9.9925209535448"><ele>37.42857142857143</ele><time>2026-04-06T09:30:34.999Z</time></trkpt><trkpt lat="45.10295720061092" lon="9.992581613772613"><ele>37.714285714285715</ele><time>2026-04-06T09:30:35.999Z</time></trkpt><trkpt lat="45.10301045649989" lon="9.992648148907337"><ele>38.0</ele><time>2026-04-06T09:30:36.999Z</time></trkpt><trkpt lat="45.1030645112332" lon="9.992708832375476"><ele>38.0</ele><time>2026-04-06T09:30:37.999Z</time></trkpt><trkpt lat="45.10312081469035" lon="9.992766996769156"><ele>38.0</ele><time>2026-04-06T09:30:38.999Z</time></trkpt><trkpt lat="45.10317362489451" lon="9.992825251583056"><ele>38.0</ele><time>2026-04-06T09:30:39.999Z</time></trkpt><trkpt lat="45.10324047256407" lon="9.992867722661387"><ele>38.0</ele><time>2026-04-06T09:30:40.999Z</time></trkpt><trkpt lat="45.103291533612754" lon="9.992943465214191"><ele>38.0</ele><time>2026-04-06T09:30:41.999Z</time></trkpt><trkpt lat="45.10336270874922" lon="9.992987150411802"><ele>38.0</ele><time>2026-04-06T09:30:42.999Z</time></trkpt><trkpt lat="45.103500933571745" lon="9.993081893061284"><ele>38.0</ele><time>2026-04-06T09:30:44.999Z</time></trkpt><trkpt lat="45.10356222316346" lon="9.993153208383157"><ele>38.0</ele><time>2026-04-06T09:30:45.999Z</time></trkpt><trkpt lat="45.10362388840698" lon="9.993226493885713"><ele>38.0</ele><time>2026-04-06T09:30:46.999Z</time></trkpt><trkpt lat="45.10368898514426" lon="9.99329380462849"><ele>38.0</ele><time>2026-04-06T09:30:47.999Z</time></trkpt><trkpt lat="45.10375394437766" lon="9.99335904841263"><ele>38.0</ele><time>2026-04-06T09:30:48.999Z</time></trkpt><trkpt lat="45.10381694502924" lon="9.993421148736406"><ele>38.0</ele><time>2026-04-06T09:30:49.999Z</time></trkpt><trkpt lat="45.103878537484995" lon="9.993485595731848"><ele>38.0</ele><time>2026-04-06T09:30:50.999Z</time></trkpt><trkpt lat="45.103938292122024" lon="9.993547608811493"><ele>38.0</ele><time>2026-04-06T09:30:51.999Z</time></trkpt><trkpt lat="45.10399885865136" lon="9.99360748895196"><ele>38.0</ele><time>2026-04-06T09:30:52.999Z</time></trkpt><trkpt lat="45.104056844069106" lon="9.993665549421367"><ele>38.0</ele><time>2026-04-06T09:30:53.999Z</time></trkpt><trkpt lat="45.10411300195577" lon="9.993721847182327"><ele>38.0</ele><time>2026-04-06T09:30:54.999Z</time></trkpt><trkpt lat="45.10416984328543" lon="9.993777421685822"><ele>38.0</ele><time>2026-04-06T09:30:55.998Z</time></trkpt><trkpt lat="45.104229229075564" lon="9.993829976130836"><ele>38.0</ele><time>2026-04-06T09:30:56.998Z</time></trkpt><trkpt lat="45.10429018883966" lon="9.993872214269878"><ele>38.166666666666664</ele><time>2026-04-06T09:30:57.998Z</time></trkpt><trkpt lat="45.10435507733874" lon="9.993905263264963"><ele>38.33333333333333</ele><time>2026-04-06T09:30:58.998Z</time></trkpt><trkpt lat="45.10441585109821" lon="9.993866758024089"><ele>38.5</ele><time>2026-04-06T09:30:59.998Z</time></trkpt><trkpt lat="45.104492614116715" lon="9.993753624601787"><ele>38.666666666666664</ele><time>2026-04-06T09:31:00.998Z</time></trkpt><trkpt lat="45.10453258018157" lon="9.99364948251885"><ele>38.833333333333336</ele><time>2026-04-06T09:31:01.998Z</time></trkpt><trkpt lat="45.104571942799126" lon="9.993548951828709"><ele>39.0</ele><time>2026-04-06T09:31:02.998Z</time></trkpt><trkpt lat="45.10460930907547" lon="9.993454406758305"><ele>39.0</ele><time>2026-04-06T09:31:03.998Z</time></trkpt><trkpt lat="45.10464685880888" lon="9.993359397293112"><ele>39.0</ele><time>2026-04-06T09:31:04.998Z</time></trkpt><trkpt lat="45.10468463334305" lon="9.993263819293897"><ele>39.0</ele><time>2026-04-06T09:31:05.998Z</time></trkpt><trkpt lat="45.10472280149962" lon="9.993169669925084"><ele>39.0</ele><time>2026-04-06T09:31:07Z</time></trkpt><trkpt lat="45.104749738844134" lon="9.993068673071798"><ele>39.0</ele><time>2026-04-06T09:31:08Z</time></trkpt><trkpt lat="45.10479103329744" lon="9.992976445450898"><ele>39.0</ele><time>2026-04-06T09:31:09Z</time></trkpt><trkpt lat="45.10482812697204" lon="9.992888226796405"><ele>39.0</ele><time>2026-04-06T09:31:10Z</time></trkpt><trkpt lat="45.10486859536464" lon="9.992803832146453"><ele>39.0</ele><time>2026-04-06T09:31:11Z</time></trkpt><trkpt lat="45.10490533832416" lon="9.99271610228015"><ele>39.0</ele><time>2026-04-06T09:31:12Z</time></trkpt><trkpt lat="45.10494227935907" lon="9.992630139528"><ele>39.0</ele><time>2026-04-06T09:31:13Z</time></trkpt><trkpt lat="45.104978188973334" lon="9.992540009319153"><ele>39.0</ele><time>2026-04-06T09:31:14Z</time></trkpt><trkpt lat="45.10501808194325" lon="9.992450529700946"><ele>39.0</ele><time>2026-04-06T09:31:15Z</time></trkpt><trkpt lat="45.10506026942233" lon="9.992362369055579"><ele>39.0</ele><time>2026-04-06T09:31:16Z</time></trkpt><trkpt lat="45.105105739077594" lon="9.992272445789439"><ele>39.0</ele><time>2026-04-06T09:31:17Z</time></trkpt><trkpt lat="45.10514475945819" lon="9.992178421610634"><ele>39.0</ele><time>2026-04-06T09:31:18Z</time></trkpt><trkpt lat="45.10518648461033" lon="9.992086991799463"><ele>39.0</ele><time>2026-04-06T09:31:19Z</time></trkpt><trkpt lat="45.105222142638475" lon="9.99199414550222"><ele>39.0</ele><time>2026-04-06T09:31:20Z</time></trkpt><trkpt lat="45.105259584140946" lon="9.991903256169381"><ele>39.0</ele><time>2026-04-06T09:31:21Z</time></trkpt><trkpt lat="45.105300394376" lon="9.991814014831906"><ele>39.0</ele><time>2026-04-06T09:31:22Z</time></trkpt><trkpt lat="45.1053408764889" lon="9.991727459349425"><ele>39.166666666666664</ele><time>2026-04-06T09:31:23Z</time></trkpt><trkpt lat="45.10538138540037" lon="9.991644772369794"><ele>39.333333333333336</ele><time>2026-04-06T09:31:24Z</time></trkpt><trkpt lat="45.105423967966956" lon="9.991567122553304"><ele>39.5</ele><time>2026-04-06T09:31:25Z</time></trkpt><trkpt lat="45.105497861626375" lon="9.991437397176718"><ele>39.66666666666667</ele><time>2026-04-06T09:31:27Z</time></trkpt><trkpt lat="45.10556505670491" lon="9.99134349718914"><ele>39.833333333333336</ele><time>2026-04-06T09:31:29Z</time></trkpt><trkpt lat="45.10564972848998" lon="9.991295724065399"><ele>40.0</ele><time>2026-04-06T09:31:31Z</time></trkpt><trkpt lat="45.10572430089134" lon="9.991355488629495"><ele>39.8</ele><time>2026-04-06T09:31:33Z</time></trkpt><trkpt lat="45.105794189190696" lon="9.99146853776105"><ele>39.6</ele><time>2026-04-06T09:31:35Z</time></trkpt><trkpt lat="45.105881766912056" lon="9.991605291135853"><ele>39.4</ele><time>2026-04-06T09:31:37Z</time></trkpt><trkpt lat="45.105943364399" lon="9.991651444368458"><ele>39.2</ele><time>2026-04-06T09:31:38Z</time></trkpt><trkpt lat="45.10599023636642" lon="9.991729276610846"><ele>39.0</ele><time>2026-04-06T09:31:39Z</time></trkpt><trkpt lat="45.10604663125719" lon="9.991796597577236"><ele>39.0</ele><time>2026-04-06T09:31:40Z</time></trkpt><trkpt lat="45.10610349544769" lon="9.991864318056852"><ele>39.0</ele><time>2026-04-06T09:31:41Z</time></trkpt><trkpt lat="45.10615642588575" lon="9.991932672171927"><ele>39.0</ele><time>2026-04-06T09:31:42Z</time></trkpt><trkpt lat="45.10621036586764" lon="9.992000167145937"><ele>39.0</ele><time>2026-04-06T09:31:43Z</time></trkpt><trkpt lat="45.10626239446526" lon="9.99206707747569"><ele>39.0</ele><time>2026-04-06T09:31:44Z</time></trkpt><trkpt lat="45.10632135067312" lon="9.992127776862356"><ele>39.0</ele><time>2026-04-06T09:31:45Z</time></trkpt><trkpt lat="45.106380122112824" lon="9.992186731097869"><ele>39.0</ele><time>2026-04-06T09:31:46Z</time></trkpt><trkpt lat="45.10644238280125" lon="9.992245262589778"><ele>39.0</ele><time>2026-04-06T09:31:47Z</time></trkpt><trkpt lat="45.10650822856209" lon="9.992299306943288"><ele>39.0</ele><time>2026-04-06T09:31:48Z</time></trkpt><trkpt lat="45.106566266859396" lon="9.992357300184379"><ele>39.0</ele><time>2026-04-06T09:31:49Z</time></trkpt><trkpt lat="45.10662645519565" lon="9.992416796750952"><ele>39.0</ele><time>2026-04-06T09:31:50Z</time></trkpt><trkpt lat="45.10668550497976" lon="9.992478729174499"><ele>39.0</ele><time>2026-04-06T09:31:51Z</time></trkpt><trkpt lat="45.10674631312265" lon="9.99253339098265"><ele>39.0</ele><time>2026-04-06T09:31:52Z</time></trkpt><trkpt lat="45.10680225650253" lon="9.992590266175242"><ele>39.0</ele><time>2026-04-06T09:31:53Z</time></trkpt><trkpt lat="45.10685720195239" lon="9.992639148118197"><ele>39.0</ele><time>2026-04-06T09:31:54Z</time></trkpt><trkpt lat="45.10691229700023" lon="9.992703889841897"><ele>39.0</ele><time>2026-04-06T09:31:55Z</time></trkpt><trkpt lat="45.106968089484994" lon="9.992755059549292"><ele>39.0</ele><time>2026-04-06T09:31:56Z</time></trkpt><trkpt lat="45.10702618970051" lon="9.992808201460099"><ele>39.0</ele><time>2026-04-06T09:31:57Z</time></trkpt><trkpt lat="45.107083387617486" lon="9.99286553350946"><ele>39.0</ele><time>2026-04-06T09:31:58Z</time></trkpt><trkpt lat="45.10714414832502" lon="9.992921670697289"><ele>39.0</ele><time>2026-04-06T09:31:59Z</time></trkpt><trkpt lat="45.107198335865945" lon="9.992974482365819"><ele>39.0</ele><time>2026-04-06T09:32:00Z</time></trkpt><trkpt lat="45.107301279606" lon="9.993056590123897"><ele>39.0</ele><time>2026-04-06T09:32:02Z</time></trkpt><trkpt lat="45.107408091857955" lon="9.993123575058103"><ele>39.0</ele><time>2026-04-06T09:32:04Z</time></trkpt><trkpt lat="45.107488571530304" lon="9.993182672173969"><ele>39.0</ele><time>2026-04-06T09:32:05.999Z</time></trkpt><trkpt lat="45.107578675954606" lon="9.993256484701414"><ele>39.0</ele><time>2026-04-06T09:32:07.999Z</time></trkpt><trkpt lat="45.10767900096254" lon="9.993306588345693"><ele>39.0</ele><time>2026-04-06T09:32:09.999Z</time></trkpt><trkpt lat="45.10798192717634" lon="9.992849057605344"><ele>39.0</ele><time>2026-04-06T09:32:11.999Z</time></trkpt><trkpt lat="45.10805628312205" lon="9.992819809575716"><ele>39.0</ele><time>2026-04-06T09:32:12.999Z</time></trkpt><trkpt lat="45.10812318520121" lon="9.99279700614085"><ele>39.0</ele><time>2026-04-06T09:32:13.999Z</time></trkpt><trkpt lat="45.108197496400265" lon="9.992771412677943"><ele>39.0</ele><time>2026-04-06T09:32:14.999Z</time></trkpt><trkpt lat="45.10826523798086" lon="9.992745766400981"><ele>39.0</ele><time>2026-04-06T09:32:15.999Z</time></trkpt><trkpt lat="45.10833672552386" lon="9.9927216949276"><ele>39.0</ele><time>2026-04-06T09:32:16.999Z</time></trkpt><trkpt lat="45.108406947600834" lon="9.992699487449043"><ele>39.0</ele><time>2026-04-06T09:32:17.999Z</time></trkpt><trkpt lat="45.10847719643567" lon="9.992673550944"><ele>38.714285714285715</ele><time>2026-04-06T09:32:18.999Z</time></trkpt><trkpt lat="45.10854579923304" lon="9.992650180344414"><ele>38.42857142857142</ele><time>2026-04-06T09:32:19.999Z</time></trkpt><trkpt lat="45.10861199014407" lon="9.992625565045781"><ele>38.14285714285714</ele><time>2026-04-06T09:32:20.999Z</time></trkpt><trkpt lat="45.108678763479205" lon="9.992609104513742"><ele>37.85714285714286</ele><time>2026-04-06T09:32:21.999Z</time></trkpt><trkpt lat="45.108749724082855" lon="9.992585946482844"><ele>37.57142857142857</ele><time>2026-04-06T09:32:22.999Z</time></trkpt><trkpt lat="45.10881636908983" lon="9.992560512123879"><ele>37.285714285714285</ele><time>2026-04-06T09:32:23.999Z</time></trkpt><trkpt lat="45.10888827440579" lon="9.992534551288665"><ele>37.0</ele><time>2026-04-06T09:32:24.999Z</time></trkpt><trkpt lat="45.108956651126746" lon="9.992512453960801"><ele>36.833333333333336</ele><time>2026-04-06T09:32:25.999Z</time></trkpt><trkpt lat="45.10902440656479" lon="9.992485669818835"><ele>36.66666666666667</ele><time>2026-04-06T09:32:26.999Z</time></trkpt><trkpt lat="45.10908680350449" lon="9.992453727385392"><ele>36.5</ele><time>2026-04-06T09:32:27.999Z</time></trkpt><trkpt lat="45.109147914184426" lon="9.992416573356724"><ele>36.333333333333336</ele><time>2026-04-06T09:32:28.999Z</time></trkpt><trkpt lat="45.10920586139816" lon="9.992378790457742"><ele>36.166666666666664</ele><time>2026-04-06T09:32:29.999Z</time></trkpt><trkpt lat="45.10926204819977" lon="9.992334336951012"><ele>36.0</ele><time>2026-04-06T09:32:30.999Z</time></trkpt><trkpt lat="45.109363330457" lon="9.992232715746624"><ele>36.0</ele><time>2026-04-06T09:32:32.999Z</time></trkpt><trkpt lat="45.1094409108976" lon="9.992123636497507"><ele>36.0</ele><time>2026-04-06T09:32:34.999Z</time></trkpt><trkpt lat="45.10950546086568" lon="9.992045097561212"><ele>36.0</ele><time>2026-04-06T09:32:36.999Z</time></trkpt><trkpt lat="45.109596797708704" lon="9.992049142467412"><ele>36.0</ele><time>2026-04-06T09:32:38.999Z</time></trkpt><trkpt lat="45.10964716842155" lon="9.992102689877212"><ele>36.0</ele><time>2026-04-06T09:32:39.999Z</time></trkpt><trkpt lat="45.109692511395934" lon="9.9921654545779"><ele>36.0</ele><time>2026-04-06T09:32:40.999Z</time></trkpt><trkpt lat="45.109739064671956" lon="9.992227274254331"><ele>36.00000000000001</ele><time>2026-04-06T09:32:41.999Z</time></trkpt><trkpt lat="45.109793569082015" lon="9.99228775465444"><ele>36.0</ele><time>2026-04-06T09:32:42.999Z</time></trkpt><trkpt lat="45.109843788206376" lon="9.992354814989472"><ele>36.0</ele><time>2026-04-06T09:32:43.999Z</time></trkpt><trkpt lat="45.109903646213155" lon="9.99241684124385"><ele>36.0</ele><time>2026-04-06T09:32:44.999Z</time></trkpt><trkpt lat="45.109960831931794" lon="9.992484331238044"><ele>36.0</ele><time>2026-04-06T09:32:45.999Z</time></trkpt><trkpt lat="45.110026151622115" lon="9.992547203409408"><ele>36.00000000000001</ele><time>2026-04-06T09:32:46.999Z</time></trkpt><trkpt lat="45.11008844924363" lon="9.992615447611298"><ele>36.0</ele><time>2026-04-06T09:32:47.999Z</time></trkpt><trkpt lat="45.110155092303415" lon="9.992681917452131"><ele>36.166666666666664</ele><time>2026-04-06T09:32:48.999Z</time></trkpt><trkpt lat="45.11022274397002" lon="9.992750072900542"><ele>36.333333333333336</ele><time>2026-04-06T09:32:49.999Z</time></trkpt><trkpt lat="45.11029683057346" lon="9.99281780937893"><ele>36.5</ele><time>2026-04-06T09:32:50.999Z</time></trkpt><trkpt lat="45.110364978722764" lon="9.992895421420888"><ele>36.66666666666667</ele><time>2026-04-06T09:32:51.999Z</time></trkpt><trkpt lat="45.110434064572516" lon="9.992971692503922"><ele>36.833333333333336</ele><time>2026-04-06T09:32:52.999Z</time></trkpt><trkpt lat="45.11050331697763" lon="9.993049143226326"><ele>37.0</ele><time>2026-04-06T09:32:53.999Z</time></trkpt><trkpt lat="45.11057242754379" lon="9.993124750738762"><ele>37.0</ele><time>2026-04-06T09:32:54.999Z</time></trkpt><trkpt lat="45.110639133215" lon="9.993204558915963"><ele>37.0</ele><time>2026-04-06T09:32:55.999Z</time></trkpt><trkpt lat="45.110710366109764" lon="9.993280518751941"><ele>37.0</ele><time>2026-04-06T09:32:56.999Z</time></trkpt><trkpt lat="45.11077834242766" lon="9.993353193496786"><ele>37.0</ele><time>2026-04-06T09:32:57.999Z</time></trkpt><trkpt lat="45.11084701810253" lon="9.993430397859711"><ele>37.0</ele><time>2026-04-06T09:32:58.999Z</time></trkpt><trkpt lat="45.110913268407174" lon="9.993505544293136"><ele>37.0</ele><time>2026-04-06T09:32:59.998Z</time></trkpt><trkpt lat="45.110981291506505" lon="9.993580060870189"><ele>37.0</ele><time>2026-04-06T09:33:00.998Z</time></trkpt><trkpt lat="45.11104817547174" lon="9.993653126264073"><ele>37.0</ele><time>2026-04-06T09:33:01.998Z</time></trkpt><trkpt lat="45.11111403368302" lon="9.993723972184036"><ele>37.0</ele><time>2026-04-06T09:33:02.998Z</time></trkpt><trkpt lat="45.11117959348047" lon="9.993797545934274"><ele>37.0</ele><time>2026-04-06T09:33:03.998Z</time></trkpt><trkpt lat="45.11124577958861" lon="9.99387099923038"><ele>37.0</ele><time>2026-04-06T09:33:04.998Z</time></trkpt><trkpt lat="45.111310564630735" lon="9.993942565324511"><ele>37.0</ele><time>2026-04-06T09:33:05.998Z</time></trkpt><trkpt lat="45.11137095416004" lon="9.994011421794337"><ele>37.0</ele><time>2026-04-06T09:33:06.998Z</time></trkpt><trkpt lat="45.1114360139178" lon="9.99408053219195"><ele>37.0</ele><time>2026-04-06T09:33:07.998Z</time></trkpt><trkpt lat="45.11150116740231" lon="9.994148688816134"><ele>37.0</ele><time>2026-04-06T09:33:08.998Z</time></trkpt><trkpt lat="45.11156854399911" lon="9.994220718789494"><ele>37.0</ele><time>2026-04-06T09:33:09.998Z</time></trkpt><trkpt lat="45.11163994603584" lon="9.994287495301347"><ele>37.0</ele><time>2026-04-06T09:33:10.998Z</time></trkpt><trkpt lat="45.11170831567014" lon="9.99435556823256"><ele>37.0</ele><time>2026-04-06T09:33:11.998Z</time></trkpt><trkpt lat="45.111776944175524" lon="9.994425794745533"><ele>37.333333333333336</ele><time>2026-04-06T09:33:13Z</time></trkpt><trkpt lat="45.11184443302561" lon="9.994494893890602"><ele>37.66666666666667</ele><time>2026-04-06T09:33:14Z</time></trkpt><trkpt lat="45.111915218333486" lon="9.994551678066017"><ele>38.0</ele><time>2026-04-06T09:33:15Z</time></trkpt><trkpt lat="45.11198738957072" lon="9.994606049601563"><ele>38.333333333333336</ele><time>2026-04-06T09:33:16Z</time></trkpt><trkpt lat="45.11206882200315" lon="9.994654770712057"><ele>38.666666666666664</ele><time>2026-04-06T09:33:17Z</time></trkpt><trkpt lat="45.11215378164823" lon="9.994687031558929"><ele>39.0</ele><time>2026-04-06T09:33:18Z</time></trkpt><trkpt lat="45.11224020120964" lon="9.994707089309362"><ele>39.0</ele><time>2026-04-06T09:33:19Z</time></trkpt><trkpt lat="45.11232502441543" lon="9.994717233292086"><ele>39.0</ele><time>2026-04-06T09:33:20Z</time></trkpt><trkpt lat="45.11241362770982" lon="9.994709597522222"><ele>39.0</ele><time>2026-04-06T09:33:21Z</time></trkpt><trkpt lat="45.1124978884793" lon="9.994688352609254"><ele>39.0</ele><time>2026-04-06T09:33:22Z</time></trkpt><trkpt lat="45.112582245213936" lon="9.994650263709037"><ele>39.0</ele><time>2026-04-06T09:33:23Z</time></trkpt><trkpt lat="45.11266244256931" lon="9.994599065601406"><ele>39.0</ele><time>2026-04-06T09:33:24Z</time></trkpt><trkpt lat="45.11274326556204" lon="9.994547165437412"><ele>39.166666666666664</ele><time>2026-04-06T09:33:25Z</time></trkpt><trkpt lat="45.112824377028716" lon="9.994496644143874"><ele>39.333333333333336</ele><time>2026-04-06T09:33:26Z</time></trkpt><trkpt lat="45.11290617612093" lon="9.994450747407155"><ele>39.5</ele><time>2026-04-06T09:33:27Z</time></trkpt><trkpt lat="45.112985981922975" lon="9.994403464080554"><ele>39.66666666666667</ele><time>2026-04-06T09:33:28Z</time></trkpt><trkpt lat="45.11306366268619" lon="9.994356646895875"><ele>39.833333333333336</ele><time>2026-04-06T09:33:29Z</time></trkpt><trkpt lat="45.11314045967076" lon="9.99431044408384"><ele>40.0</ele><time>2026-04-06T09:33:30Z</time></trkpt><trkpt lat="45.11321812560365" lon="9.994264253762509"><ele>40.0</ele><time>2026-04-06T09:33:31Z</time></trkpt><trkpt lat="45.11329661960786" lon="9.99421663956043"><ele>40.0</ele><time>2026-04-06T09:33:32Z</time></trkpt><trkpt lat="45.11337701233062" lon="9.994169460802578"><ele>40.0</ele><time>2026-04-06T09:33:33Z</time></trkpt><trkpt lat="45.1134556288612" lon="9.994120127585184"><ele>40.0</ele><time>2026-04-06T09:33:34Z</time></trkpt><trkpt lat="45.113533921621695" lon="9.994069472939305"><ele>40.0</ele><time>2026-04-06T09:33:35Z</time></trkpt><trkpt lat="45.113612684305835" lon="9.994022785934932"><ele>40.0</ele><time>2026-04-06T09:33:36Z</time></trkpt><trkpt lat="45.113691409689494" lon="9.993978484500381"><ele>39.833333333333336</ele><time>2026-04-06T09:33:37Z</time></trkpt><trkpt lat="45.11376746885864" lon="9.99393140495665"><ele>39.66666666666667</ele><time>2026-04-06T09:33:38Z</time></trkpt><trkpt lat="45.113845839870464" lon="9.993883435716379"><ele>39.5</ele><time>2026-04-06T09:33:39Z</time></trkpt><trkpt lat="45.11392086545836" lon="9.993839777341307"><ele>39.333333333333336</ele><time>2026-04-06T09:33:40Z</time></trkpt><trkpt lat="45.11399771697003" lon="9.993795301578569"><ele>39.166666666666664</ele><time>2026-04-06T09:33:41Z</time></trkpt><trkpt lat="45.11407015516755" lon="9.993749954488694"><ele>39.0</ele><time>2026-04-06T09:33:42Z</time></trkpt><trkpt lat="45.11414683155013" lon="9.993703469640678"><ele>39.0</ele><time>2026-04-06T09:33:43Z</time></trkpt><trkpt lat="45.11422088599972" lon="9.993659389738834"><ele>39.0</ele><time>2026-04-06T09:33:44Z</time></trkpt><trkpt lat="45.11429642471565" lon="9.99361389853183"><ele>39.0</ele><time>2026-04-06T09:33:45Z</time></trkpt><trkpt lat="45.1143716248127" lon="9.993566609195323"><ele>39.0</ele><time>2026-04-06T09:33:46Z</time></trkpt><trkpt lat="45.114448400964484" lon="9.993520432021176"><ele>39.0</ele><time>2026-04-06T09:33:47Z</time></trkpt><trkpt lat="45.114526318787" lon="9.993475012620662"><ele>39.0</ele><time>2026-04-06T09:33:48Z</time></trkpt><trkpt lat="45.114603387182896" lon="9.993430120816324"><ele>39.0</ele><time>2026-04-06T09:33:49Z</time></trkpt><trkpt lat="45.1146801264197" lon="9.993380837748441"><ele>39.0</ele><time>2026-04-06T09:33:50Z</time></trkpt><trkpt lat="45.11475568133455" lon="9.993335681564405"><ele>39.0</ele><time>2026-04-06T09:33:51Z</time></trkpt><trkpt lat="45.11483126042763" lon="9.993291969243554"><ele>39.0</ele><time>2026-04-06T09:33:52Z</time></trkpt><trkpt lat="45.1149053569435" lon="9.993251068152537"><ele>39.0</ele><time>2026-04-06T09:33:53Z</time></trkpt><trkpt lat="45.11497871145694" lon="9.993210245558807"><ele>39.0</ele><time>2026-04-06T09:33:54Z</time></trkpt><trkpt lat="45.11505165925243" lon="9.993167737099187"><ele>39.166666666666664</ele><time>2026-04-06T09:33:55Z</time></trkpt><trkpt lat="45.11512177214777" lon="9.993122519647171"><ele>39.333333333333336</ele><time>2026-04-06T09:33:56Z</time></trkpt><trkpt lat="45.11519470043394" lon="9.993079255100263"><ele>39.5</ele><time>2026-04-06T09:33:57Z</time></trkpt><trkpt lat="45.115259707390464" lon="9.993041145210848"><ele>39.66666666666667</ele><time>2026-04-06T09:33:58Z</time></trkpt><trkpt lat="45.11533905536123" lon="9.99299359864836"><ele>39.833333333333336</ele><time>2026-04-06T09:33:59Z</time></trkpt><trkpt lat="45.115416063737165" lon="9.992947963791138"><ele>40.0</ele><time>2026-04-06T09:34:00Z</time></trkpt><trkpt lat="45.1154930667128" lon="9.992900282840825"><ele>40.0</ele><time>2026-04-06T09:34:01Z</time></trkpt><trkpt lat="45.115570881248956" lon="9.992851215305055"><ele>40.0</ele><time>2026-04-06T09:34:02Z</time></trkpt><trkpt lat="45.11564845254307" lon="9.992806349937073"><ele>40.0</ele><time>2026-04-06T09:34:03Z</time></trkpt><trkpt lat="45.11572606319733" lon="9.992765062318"><ele>40.0</ele><time>2026-04-06T09:34:04Z</time></trkpt><trkpt lat="45.115806432245016" lon="9.992720554459712"><ele>40.0</ele><time>2026-04-06T09:34:05Z</time></trkpt><trkpt lat="45.11588174173445" lon="9.992672853675506"><ele>40.0</ele><time>2026-04-06T09:34:06Z</time></trkpt><trkpt lat="45.11595959727791" lon="9.99262481489887"><ele>39.833333333333336</ele><time>2026-04-06T09:34:07Z</time></trkpt><trkpt lat="45.11603377881439" lon="9.99257807867425"><ele>39.66666666666667</ele><time>2026-04-06T09:34:08Z</time></trkpt><trkpt lat="45.116115574926674" lon="9.992532864172265"><ele>39.5</ele><time>2026-04-06T09:34:08.999Z</time></trkpt><trkpt lat="45.11619251556079" lon="9.992486431116264"><ele>39.333333333333336</ele><time>2026-04-06T09:34:09.999Z</time></trkpt><trkpt lat="45.11627323943015" lon="9.99243979230888"><ele>39.166666666666664</ele><time>2026-04-06T09:34:10.999Z</time></trkpt><trkpt lat="45.11635255903007" lon="9.992392674976719"><ele>39.0</ele><time>2026-04-06T09:34:11.999Z</time></trkpt><trkpt lat="45.11643101745231" lon="9.992343382830981"><ele>39.0</ele><time>2026-04-06T09:34:12.999Z</time></trkpt><trkpt lat="45.116509179317575" lon="9.992296486676546"><ele>39.0</ele><time>2026-04-06T09:34:13.999Z</time></trkpt><trkpt lat="45.1165878115217" lon="9.992249809504242"><ele>39.0</ele><time>2026-04-06T09:34:14.999Z</time></trkpt><trkpt lat="45.116665308503975" lon="9.99220651313816"><ele>39.0</ele><time>2026-04-06T09:34:15.999Z</time></trkpt><trkpt lat="45.116745393473565" lon="9.992158724571922"><ele>39.0</ele><time>2026-04-06T09:34:16.999Z</time></trkpt><trkpt lat="45.11682345096329" lon="9.992110691815553"><ele>39.0</ele><time>2026-04-06T09:34:17.999Z</time></trkpt><trkpt lat="45.11690321726873" lon="9.99205984982716"><ele>39.0</ele><time>2026-04-06T09:34:18.999Z</time></trkpt><trkpt lat="45.11698340301028" lon="9.992009421808607"><ele>39.0</ele><time>2026-04-06T09:34:19.999Z</time></trkpt><trkpt lat="45.11706169975439" lon="9.991960294988967"><ele>39.0</ele><time>2026-04-06T09:34:20.999Z</time></trkpt><trkpt lat="45.11713187189088" lon="9.991917916109143"><ele>39.0</ele><time>2026-04-06T09:34:21.999Z</time></trkpt><trkpt lat="45.117219909833246" lon="9.99186995301749"><ele>39.0</ele><time>2026-04-06T09:34:22.999Z</time></trkpt><trkpt lat="45.11729970208242" lon="9.991822055068523"><ele>39.0</ele><time>2026-04-06T09:34:23.999Z</time></trkpt><trkpt lat="45.11738029431745" lon="9.991773571387899"><ele>39.0</ele><time>2026-04-06T09:34:24.999Z</time></trkpt><trkpt lat="45.11745922243832" lon="9.991723765259225"><ele>39.0</ele><time>2026-04-06T09:34:25.999Z</time></trkpt><trkpt lat="45.11754067835814" lon="9.991671996861268"><ele>39.0</ele><time>2026-04-06T09:34:26.999Z</time></trkpt><trkpt lat="45.117622801466524" lon="9.991622400298406"><ele>39.0</ele><time>2026-04-06T09:34:27.999Z</time></trkpt><trkpt lat="45.117707021266185" lon="9.991573575662617"><ele>39.0</ele><time>2026-04-06T09:34:28.999Z</time></trkpt><trkpt lat="45.117794319013996" lon="9.991519656913292"><ele>39.0</ele><time>2026-04-06T09:34:29.999Z</time></trkpt><trkpt lat="45.11788457332734" lon="9.99146501288415"><ele>39.0</ele><time>2026-04-06T09:34:30.999Z</time></trkpt><trkpt lat="45.11796786718767" lon="9.991413196261993"><ele>39.0</ele><time>2026-04-06T09:34:31.999Z</time></trkpt><trkpt lat="45.11805625211736" lon="9.991362205665116"><ele>39.0</ele><time>2026-04-06T09:34:32.999Z</time></trkpt><trkpt lat="45.11814347284498" lon="9.991310901099297"><ele>39.0</ele><time>2026-04-06T09:34:33.999Z</time></trkpt><trkpt lat="45.118229969025215" lon="9.991255342230634"><ele>38.0</ele><time>2026-04-06T09:34:34.999Z</time></trkpt><trkpt lat="45.11831440361914" lon="9.991201158878525"><ele>37.0</ele><time>2026-04-06T09:34:35.999Z</time></trkpt><trkpt lat="45.11840415228581" lon="9.99114875057789"><ele>36.0</ele><time>2026-04-06T09:34:36.999Z</time></trkpt><trkpt lat="45.11848907677965" lon="9.991099087232438"><ele>35.0</ele><time>2026-04-06T09:34:37.999Z</time></trkpt><trkpt lat="45.118574728887424" lon="9.991046879157503"><ele>34.0</ele><time>2026-04-06T09:34:38.999Z</time></trkpt><trkpt lat="45.11865966111057" lon="9.990993385120913"><ele>34.0</ele><time>2026-04-06T09:34:39.999Z</time></trkpt><trkpt lat="45.11874165914571" lon="9.990939694265666"><ele>34.0</ele><time>2026-04-06T09:34:40.999Z</time></trkpt><trkpt lat="45.11882404961111" lon="9.990888404898204"><ele>34.0</ele><time>2026-04-06T09:34:41.999Z</time></trkpt><trkpt lat="45.11890895905686" lon="9.990839434433783"><ele>34.0</ele><time>2026-04-06T09:34:42.999Z</time></trkpt><trkpt lat="45.11898783215846" lon="9.9907949523248"><ele>34.0</ele><time>2026-04-06T09:34:43.999Z</time></trkpt><trkpt lat="45.11907234839629" lon="9.990745706275929"><ele>34.0</ele><time>2026-04-06T09:34:44.999Z</time></trkpt><trkpt lat="45.1191543523701" lon="9.990699053352564"><ele>34.4</ele><time>2026-04-06T09:34:45.999Z</time></trkpt><trkpt lat="45.11923538508457" lon="9.990648136780283"><ele>34.8</ele><time>2026-04-06T09:34:46.999Z</time></trkpt><trkpt lat="45.11932087112234" lon="9.990597953056817"><ele>35.2</ele><time>2026-04-06T09:34:47.999Z</time></trkpt><trkpt lat="45.11940760501178" lon="9.990547459884615"><ele>35.6</ele><time>2026-04-06T09:34:48.999Z</time></trkpt><trkpt lat="45.11949346665126" lon="9.990496594877444"><ele>36.0</ele><time>2026-04-06T09:34:49.999Z</time></trkpt><trkpt lat="45.119579072817906" lon="9.99044563728926"><ele>36.0</ele><time>2026-04-06T09:34:50.999Z</time></trkpt><trkpt lat="45.119661853368456" lon="9.990395437116248"><ele>36.0</ele><time>2026-04-06T09:34:51.999Z</time></trkpt><trkpt lat="45.119744759627366" lon="9.990345439499484"><ele>36.0</ele><time>2026-04-06T09:34:52.999Z</time></trkpt><trkpt lat="45.119828673672224" lon="9.990297538634687"><ele>36.0</ele><time>2026-04-06T09:34:53.999Z</time></trkpt><trkpt lat="45.119906735272515" lon="9.990252749390862"><ele>36.0</ele><time>2026-04-06T09:34:54.999Z</time></trkpt><trkpt lat="45.1199844515985" lon="9.990206503474948"><ele>36.0</ele><time>2026-04-06T09:34:55.999Z</time></trkpt><trkpt lat="45.12006035294391" lon="9.990157827048032"><ele>36.5</ele><time>2026-04-06T09:34:56.999Z</time></trkpt><trkpt lat="45.12013491297711" lon="9.99011202917491"><ele>37.0</ele><time>2026-04-06T09:34:57.999Z</time></trkpt><trkpt lat="45.120206359071865" lon="9.990070101823717"><ele>37.5</ele><time>2026-04-06T09:34:58.999Z</time></trkpt><trkpt lat="45.120278764708665" lon="9.990025836543632"><ele>38.0</ele><time>2026-04-06T09:34:59.999Z</time></trkpt><trkpt lat="45.1203473191548" lon="9.989985071098166"><ele>38.5</ele><time>2026-04-06T09:35:00.999Z</time></trkpt><trkpt lat="45.120414702446475" lon="9.989942196429373"><ele>39.0</ele><time>2026-04-06T09:35:01.999Z</time></trkpt><trkpt lat="45.12048023675613" lon="9.98990317793196"><ele>39.0</ele><time>2026-04-06T09:35:02.999Z</time></trkpt><trkpt lat="45.12054315572603" lon="9.989864562388023"><ele>39.0</ele><time>2026-04-06T09:35:03.998Z</time></trkpt><trkpt lat="45.1206049565404" lon="9.98982984633788"><ele>39.0</ele><time>2026-04-06T09:35:04.998Z</time></trkpt><trkpt lat="45.12066651964906" lon="9.989794007940583"><ele>39.0</ele><time>2026-04-06T09:35:05.998Z</time></trkpt><trkpt lat="45.12077853955627" lon="9.9897249499698"><ele>39.0</ele><time>2026-04-06T09:35:07.998Z</time></trkpt><trkpt lat="45.12089022389145" lon="9.989680251974976"><ele>39.0</ele><time>2026-04-06T09:35:09.998Z</time></trkpt><trkpt lat="45.121007203150256" lon="9.989653749176147"><ele>38.57142857142858</ele><time>2026-04-06T09:35:11.998Z</time></trkpt><trkpt lat="45.121063994084935" lon="9.989609746780541"><ele>38.14285714285714</ele><time>2026-04-06T09:35:12.998Z</time></trkpt><trkpt lat="45.121122257188965" lon="9.989568933059612"><ele>37.714285714285715</ele><time>2026-04-06T09:35:13.998Z</time></trkpt><trkpt lat="45.121182705933805" lon="9.989531945472281"><ele>37.28571428571429</ele><time>2026-04-06T09:35:14.998Z</time></trkpt><trkpt lat="45.121245833791846" lon="9.98949536139633"><ele>36.85714285714286</ele><time>2026-04-06T09:35:15.998Z</time></trkpt><trkpt lat="45.12130718701733" lon="9.989461064064107"><ele>36.42857142857143</ele><time>2026-04-06T09:35:16.998Z</time></trkpt><trkpt lat="45.12136681254539" lon="9.989421140860387"><ele>36.0</ele><time>2026-04-06T09:35:17.998Z</time></trkpt><trkpt lat="45.12147734509632" lon="9.989344356620803"><ele>36.2</ele><time>2026-04-06T09:35:20Z</time></trkpt><trkpt lat="45.121583055850984" lon="9.989288201698093"><ele>36.400000000000006</ele><time>2026-04-06T09:35:22Z</time></trkpt><trkpt lat="45.121695361653885" lon="9.989271363567344"><ele>36.6</ele><time>2026-04-06T09:35:24Z</time></trkpt><trkpt lat="45.12181056969855" lon="9.989274360299731"><ele>36.800000000000004</ele><time>2026-04-06T09:35:26Z</time></trkpt><trkpt lat="45.12191000536043" lon="9.989305241876977"><ele>37.0</ele><time>2026-04-06T09:35:28Z</time></trkpt><trkpt lat="45.12199731564483" lon="9.989344788128466"><ele>37.0</ele><time>2026-04-06T09:35:30Z</time></trkpt><trkpt lat="45.12207365870009" lon="9.989390209753532"><ele>37.0</ele><time>2026-04-06T09:35:32Z</time></trkpt><trkpt lat="45.12214265617067" lon="9.98944110744461"><ele>37.0</ele><time>2026-04-06T09:35:34Z</time></trkpt><trkpt lat="45.12221261071649" lon="9.989493534354107"><ele>37.0</ele><time>2026-04-06T09:35:36Z</time></trkpt><trkpt lat="45.12229648443866" lon="9.989572484204459"><ele>37.0</ele><time>2026-04-06T09:35:38Z</time></trkpt><trkpt lat="45.12239248525042" lon="9.989655611879993"><ele>37.142857142857146</ele><time>2026-04-06T09:35:40Z</time></trkpt><trkpt lat="45.122446164005076" lon="9.98970702596881"><ele>37.285714285714285</ele><time>2026-04-06T09:35:41Z</time></trkpt><trkpt lat="45.12250555008839" lon="9.989764470140692"><ele>37.42857142857143</ele><time>2026-04-06T09:35:42Z</time></trkpt><trkpt lat="45.12256138888427" lon="9.98981509045987"><ele>37.57142857142857</ele><time>2026-04-06T09:35:43Z</time></trkpt><trkpt lat="45.1226204083629" lon="9.98986431441352"><ele>37.714285714285715</ele><time>2026-04-06T09:35:44Z</time></trkpt><trkpt lat="45.122681150313674" lon="9.989915187984176"><ele>37.857142857142854</ele><time>2026-04-06T09:35:45Z</time></trkpt><trkpt lat="45.122740030722284" lon="9.989970984601484"><ele>38.0</ele><time>2026-04-06T09:35:46Z</time></trkpt><trkpt lat="45.122800365687844" lon="9.990024696158876"><ele>38.0</ele><time>2026-04-06T09:35:47Z</time></trkpt><trkpt lat="45.12286034015469" lon="9.990078590316134"><ele>38.0</ele><time>2026-04-06T09:35:48Z</time></trkpt><trkpt lat="45.12292257785286" lon="9.99013257111153"><ele>38.0</ele><time>2026-04-06T09:35:49Z</time></trkpt><trkpt lat="45.12298394326519" lon="9.990187251700034"><ele>38.0</ele><time>2026-04-06T09:35:50Z</time></trkpt><trkpt lat="45.12304915010424" lon="9.990238898753956"><ele>38.0</ele><time>2026-04-06T09:35:51Z</time></trkpt><trkpt lat="45.123112259996304" lon="9.990293459708115"><ele>38.0</ele><time>2026-04-06T09:35:52Z</time></trkpt><trkpt lat="45.12317589916699" lon="9.990350560479651"><ele>38.0</ele><time>2026-04-06T09:35:53Z</time></trkpt><trkpt lat="45.1232382771714" lon="9.990404847927854"><ele>38.285714285714285</ele><time>2026-04-06T09:35:54Z</time></trkpt><trkpt lat="45.12330323525313" lon="9.990456118636818"><ele>38.57142857142858</ele><time>2026-04-06T09:35:55Z</time></trkpt><trkpt lat="45.12336652150377" lon="9.990506098244117"><ele>38.85714285714286</ele><time>2026-04-06T09:35:56Z</time></trkpt><trkpt lat="45.12342882649406" lon="9.990556831528785"><ele>39.14285714285714</ele><time>2026-04-06T09:35:57Z</time></trkpt><trkpt lat="45.123488704877026" lon="9.990605125392102"><ele>39.42857142857143</ele><time>2026-04-06T09:35:58Z</time></trkpt><trkpt lat="45.12354980840564" lon="9.990658065044942"><ele>39.714285714285715</ele><time>2026-04-06T09:35:59Z</time></trkpt><trkpt lat="45.12361178858058" lon="9.990713554049334"><ele>40.0</ele><time>2026-04-06T09:36:00Z</time></trkpt><trkpt lat="45.123675828813205" lon="9.990769955016862"><ele>40.0</ele><time>2026-04-06T09:36:01Z</time></trkpt><trkpt lat="45.12373928046204" lon="9.99082552233431"><ele>40.0</ele><time>2026-04-06T09:36:02Z</time></trkpt><trkpt lat="45.12380404241972" lon="9.990881894382207"><ele>40.0</ele><time>2026-04-06T09:36:03Z</time></trkpt><trkpt lat="45.123869374350534" lon="9.990937555494142"><ele>40.0</ele><time>2026-04-06T09:36:04Z</time></trkpt><trkpt lat="45.123934391331524" lon="9.990994487548258"><ele>40.0</ele><time>2026-04-06T09:36:05Z</time></trkpt><trkpt lat="45.123999486302054" lon="9.99104988379652"><ele>40.0</ele><time>2026-04-06T09:36:06Z</time></trkpt><trkpt lat="45.12406387096092" lon="9.991104885297048"><ele>39.857142857142854</ele><time>2026-04-06T09:36:07Z</time></trkpt><trkpt lat="45.12412841469087" lon="9.991161512474159"><ele>39.714285714285715</ele><time>2026-04-06T09:36:08Z</time></trkpt><trkpt lat="45.12419271456225" lon="9.991217586280856"><ele>39.57142857142857</ele><time>2026-04-06T09:36:09Z</time></trkpt><trkpt lat="45.124257048126786" lon="9.991273888294414"><ele>39.42857142857143</ele><time>2026-04-06T09:36:10Z</time></trkpt><trkpt lat="45.124319510573606" lon="9.991329638978678"><ele>39.285714285714285</ele><time>2026-04-06T09:36:11Z</time></trkpt><trkpt lat="45.12438114030796" lon="9.991383372906615"><ele>39.142857142857146</ele><time>2026-04-06T09:36:12Z</time></trkpt><trkpt lat="45.124442393413666" lon="9.991436645204416"><ele>39.0</ele><time>2026-04-06T09:36:12.999Z</time></trkpt><trkpt lat="45.12450343691956" lon="9.991490972746487"><ele>39.0</ele><time>2026-04-06T09:36:13.999Z</time></trkpt><trkpt lat="45.12456588488059" lon="9.99154420139151"><ele>39.0</ele><time>2026-04-06T09:36:14.999Z</time></trkpt><trkpt lat="45.12462877273121" lon="9.991598069083519"><ele>39.0</ele><time>2026-04-06T09:36:15.999Z</time></trkpt><trkpt lat="45.12469188985249" lon="9.991652232556337"><ele>39.0</ele><time>2026-04-06T09:36:16.999Z</time></trkpt><trkpt lat="45.124756862015765" lon="9.99170723188829"><ele>39.0</ele><time>2026-04-06T09:36:17.999Z</time></trkpt><trkpt lat="45.12482154721611" lon="9.991764066500522"><ele>39.0</ele><time>2026-04-06T09:36:18.999Z</time></trkpt><trkpt lat="45.124887915710936" lon="9.991819507884673"><ele>39.0</ele><time>2026-04-06T09:36:19.999Z</time></trkpt><trkpt lat="45.12495516198221" lon="9.991878660172075"><ele>39.333333333333336</ele><time>2026-04-06T09:36:20.999Z</time></trkpt><trkpt lat="45.12502297443038" lon="9.99193666133405"><ele>39.666666666666664</ele><time>2026-04-06T09:36:21.999Z</time></trkpt><trkpt lat="45.12509117441189" lon="9.991996878706397"><ele>40.0</ele><time>2026-04-06T09:36:22.999Z</time></trkpt><trkpt lat="45.12515968530222" lon="9.992056020167096"><ele>40.33333333333333</ele><time>2026-04-06T09:36:23.999Z</time></trkpt><trkpt lat="45.1252280385483" lon="9.992112385180844"><ele>40.666666666666664</ele><time>2026-04-06T09:36:24.999Z</time></trkpt><trkpt lat="45.12529419003822" lon="9.992172114506504"><ele>41.0</ele><time>2026-04-06T09:36:25.999Z</time></trkpt><trkpt lat="45.125361896039735" lon="9.992233074937635"><ele>41.0</ele><time>2026-04-06T09:36:26.999Z</time></trkpt><trkpt lat="45.1254286129884" lon="9.992291607291014"><ele>41.0</ele><time>2026-04-06T09:36:27.999Z</time></trkpt><trkpt lat="45.12549718760021" lon="9.99234826270071"><ele>41.0</ele><time>2026-04-06T09:36:28.999Z</time></trkpt><trkpt lat="45.125567838486056" lon="9.992401762141842"><ele>41.0</ele><time>2026-04-06T09:36:29.999Z</time></trkpt><trkpt lat="45.125633194267685" lon="9.992459661248946"><ele>41.0</ele><time>2026-04-06T09:36:30.999Z</time></trkpt><trkpt lat="45.12569867422672" lon="9.992516742955715"><ele>41.0</ele><time>2026-04-06T09:36:31.999Z</time></trkpt><trkpt lat="45.12576375448718" lon="9.992574885650027"><ele>40.71428571428571</ele><time>2026-04-06T09:36:32.999Z</time></trkpt><trkpt lat="45.12583336302231" lon="9.992632144679694"><ele>40.42857142857143</ele><time>2026-04-06T09:36:33.999Z</time></trkpt><trkpt lat="45.12589540087024" lon="9.992687426347445"><ele>40.14285714285714</ele><time>2026-04-06T09:36:34.999Z</time></trkpt><trkpt lat="45.12595756111288" lon="9.992739646797215"><ele>39.857142857142854</ele><time>2026-04-06T09:36:35.999Z</time></trkpt><trkpt lat="45.12601853394408" lon="9.992793499657177"><ele>39.57142857142857</ele><time>2026-04-06T09:36:36.999Z</time></trkpt><trkpt lat="45.12608304816554" lon="9.992848820765742"><ele>39.285714285714285</ele><time>2026-04-06T09:36:37.999Z</time></trkpt><trkpt lat="45.12614854249635" lon="9.99290026964194"><ele>39.0</ele><time>2026-04-06T09:36:38.999Z</time></trkpt><trkpt lat="45.12621208647073" lon="9.99295689365182"><ele>39.0</ele><time>2026-04-06T09:36:39.999Z</time></trkpt><trkpt lat="45.12627473972369" lon="9.993012728191722"><ele>39.0</ele><time>2026-04-06T09:36:40.999Z</time></trkpt><trkpt lat="45.12633853654936" lon="9.993073502619628"><ele>39.0</ele><time>2026-04-06T09:36:41.999Z</time></trkpt><trkpt lat="45.12640462664357" lon="9.993128099670368"><ele>39.0</ele><time>2026-04-06T09:36:42.999Z</time></trkpt><trkpt lat="45.126472001984254" lon="9.993183803237423"><ele>39.0</ele><time>2026-04-06T09:36:43.999Z</time></trkpt><trkpt lat="45.12653678305791" lon="9.993247787090418"><ele>39.0</ele><time>2026-04-06T09:36:44.999Z</time></trkpt><trkpt lat="45.12660212002441" lon="9.993304283215659"><ele>38.666666666666664</ele><time>2026-04-06T09:36:45.999Z</time></trkpt><trkpt lat="45.12667076571457" lon="9.993360746287335"><ele>38.333333333333336</ele><time>2026-04-06T09:36:46.999Z</time></trkpt><trkpt lat="45.12673666789776" lon="9.993418184706893"><ele>38.0</ele><time>2026-04-06T09:36:47.999Z</time></trkpt><trkpt lat="45.12680475860011" lon="9.99347726486204"><ele>37.66666666666667</ele><time>2026-04-06T09:36:48.999Z</time></trkpt><trkpt lat="45.126871148185806" lon="9.99353562305321"><ele>37.333333333333336</ele><time>2026-04-06T09:36:49.999Z</time></trkpt><trkpt lat="45.12693834833835" lon="9.993596633585137"><ele>37.0</ele><time>2026-04-06T09:36:50.999Z</time></trkpt><trkpt lat="45.12700618960953" lon="9.993656386243307"><ele>37.0</ele><time>2026-04-06T09:36:51.999Z</time></trkpt><trkpt lat="45.127074237864626" lon="9.993715581076973"><ele>37.0</ele><time>2026-04-06T09:36:52.999Z</time></trkpt><trkpt lat="45.12714264679915" lon="9.993775450806552"><ele>37.0</ele><time>2026-04-06T09:36:53.999Z</time></trkpt><trkpt lat="45.127212649278064" lon="9.993834426491826"><ele>37.0</ele><time>2026-04-06T09:36:54.999Z</time></trkpt><trkpt lat="45.12728260812077" lon="9.993894441171047"><ele>37.0</ele><time>2026-04-06T09:36:55.999Z</time></trkpt><trkpt lat="45.1273518670615" lon="9.99395506231049"><ele>37.0</ele><time>2026-04-06T09:36:56.999Z</time></trkpt><trkpt lat="45.12742212494975" lon="9.994013258332176"><ele>35.5</ele><time>2026-04-06T09:36:57.999Z</time></trkpt><trkpt lat="45.127491685471426" lon="9.994069841788212"><ele>34.0</ele><time>2026-04-06T09:36:58.999Z</time></trkpt><trkpt lat="45.12756080496497" lon="9.994126833811807"><ele>32.5</ele><time>2026-04-06T09:36:59.999Z</time></trkpt><trkpt lat="45.1276291328616" lon="9.994186701535481"><ele>31.0</ele><time>2026-04-06T09:37:00.999Z</time></trkpt><trkpt lat="45.127697386716285" lon="9.994241466779876"><ele>29.500000000000004</ele><time>2026-04-06T09:37:01.999Z</time></trkpt><trkpt lat="45.12776690108229" lon="9.994298623059114"><ele>28.0</ele><time>2026-04-06T09:37:02.999Z</time></trkpt><trkpt lat="45.12783445474208" lon="9.994363818861542"><ele>28.000000000000004</ele><time>2026-04-06T09:37:03.999Z</time></trkpt><trkpt lat="45.12790094763869" lon="9.994417769734175"><ele>28.0</ele><time>2026-04-06T09:37:04.999Z</time></trkpt><trkpt lat="45.127969785135654" lon="9.99447771889585"><ele>28.0</ele><time>2026-04-06T09:37:05.999Z</time></trkpt><trkpt lat="45.128037752674125" lon="9.994535684800312"><ele>28.0</ele><time>2026-04-06T09:37:06.999Z</time></trkpt><trkpt lat="45.12810657289247" lon="9.9945964606943"><ele>28.000000000000004</ele><time>2026-04-06T09:37:07.999Z</time></trkpt><trkpt lat="45.12817594014181" lon="9.994656964238573"><ele>28.0</ele><time>2026-04-06T09:37:08.998Z</time></trkpt><trkpt lat="45.12824491452975" lon="9.994716827385561"><ele>28.000000000000004</ele><time>2026-04-06T09:37:09.998Z</time></trkpt><trkpt lat="45.12831484841118" lon="9.99477670643016"><ele>28.0</ele><time>2026-04-06T09:37:10.998Z</time></trkpt><trkpt lat="45.12838405087358" lon="9.994836977881459"><ele>28.0</ele><time>2026-04-06T09:37:11.998Z</time></trkpt><trkpt lat="45.12845443855723" lon="9.994895110719403"><ele>28.0</ele><time>2026-04-06T09:37:12.998Z</time></trkpt><trkpt lat="45.12851690172467" lon="9.99496183127686"><ele>28.000000000000004</ele><time>2026-04-06T09:37:13.998Z</time></trkpt><trkpt lat="45.12859307330166" lon="9.99501548165862"><ele>28.0</ele><time>2026-04-06T09:37:14.998Z</time></trkpt><trkpt lat="45.12865649814366" lon="9.995072904801484"><ele>28.833333333333336</ele><time>2026-04-06T09:37:15.998Z</time></trkpt><trkpt lat="45.128734682126385" lon="9.995134312953168"><ele>29.666666666666668</ele><time>2026-04-06T09:37:16.998Z</time></trkpt><trkpt lat="45.128803355338185" lon="9.995194287088252"><ele>30.5</ele><time>2026-04-06T09:37:17.998Z</time></trkpt><trkpt lat="45.12887524918471" lon="9.995254964374821"><ele>31.333333333333336</ele><time>2026-04-06T09:37:18.998Z</time></trkpt><trkpt lat="45.12894422044162" lon="9.99531289322883"><ele>32.166666666666664</ele><time>2026-04-06T09:37:19.998Z</time></trkpt><trkpt lat="45.12901476400527" lon="9.995373105840143"><ele>33.0</ele><time>2026-04-06T09:37:20.998Z</time></trkpt><trkpt lat="45.12908079911649" lon="9.99543363151873"><ele>33.333333333333336</ele><time>2026-04-06T09:37:21.998Z</time></trkpt><trkpt lat="45.129150680045356" lon="9.995490740450657"><ele>33.666666666666664</ele><time>2026-04-06T09:37:22.998Z</time></trkpt><trkpt lat="45.129220078516205" lon="9.995547072879722"><ele>34.0</ele><time>2026-04-06T09:37:23.998Z</time></trkpt><trkpt lat="45.12928620251936" lon="9.995603738830122"><ele>34.33333333333333</ele><time>2026-04-06T09:37:25Z</time></trkpt><trkpt lat="45.129349515785215" lon="9.995658913794493"><ele>34.666666666666664</ele><time>2026-04-06T09:37:26Z</time></trkpt><trkpt lat="45.129409618671076" lon="9.995710588851901"><ele>35.0</ele><time>2026-04-06T09:37:27Z</time></trkpt><trkpt lat="45.12949231856196" lon="9.995783156205603"><ele>35.6</ele><time>2026-04-06T09:37:29Z</time></trkpt><trkpt lat="45.129555415834936" lon="9.995845146830012"><ele>36.2</ele><time>2026-04-06T09:37:34Z</time></trkpt><trkpt lat="45.129640740682774" lon="9.995910256098492"><ele>36.8</ele><time>2026-04-06T09:37:38Z</time></trkpt><trkpt lat="45.129707322043345" lon="9.99596026402057"><ele>37.4</ele><time>2026-04-06T09:37:40Z</time></trkpt><trkpt lat="45.12978192447468" lon="9.996044848203987"><ele>38.0</ele><time>2026-04-06T09:37:42Z</time></trkpt><trkpt lat="45.12985214787054" lon="9.99617008144738"><ele>38.0</ele><time>2026-04-06T09:37:44Z</time></trkpt><trkpt lat="45.12991842977474" lon="9.996321761537423"><ele>38.0</ele><time>2026-04-06T09:37:46Z</time></trkpt><trkpt lat="45.12995272370933" lon="9.996404522279136"><ele>38.0</ele><time>2026-04-06T09:37:47Z</time></trkpt><trkpt lat="45.129979560263656" lon="9.996496325378661"><ele>38.0</ele><time>2026-04-06T09:37:48Z</time></trkpt><trkpt lat="45.12999524559856" lon="9.996591388790337"><ele>38.0</ele><time>2026-04-06T09:37:49Z</time></trkpt><trkpt lat="45.130008257114255" lon="9.99668349075749"><ele>38.0</ele><time>2026-04-06T09:37:50Z</time></trkpt><trkpt lat="45.130018635281544" lon="9.99677455200616"><ele>38.285714285714285</ele><time>2026-04-06T09:37:51Z</time></trkpt><trkpt lat="45.13002551696127" lon="9.99686685801387"><ele>38.57142857142858</ele><time>2026-04-06T09:37:52Z</time></trkpt><trkpt lat="45.130038772406145" lon="9.996954407521363"><ele>38.85714285714286</ele><time>2026-04-06T09:37:53Z</time></trkpt><trkpt lat="45.130050253919705" lon="9.99704302688875"><ele>39.14285714285714</ele><time>2026-04-06T09:37:54Z</time></trkpt><trkpt lat="45.13006233415271" lon="9.99713364338033"><ele>39.42857142857143</ele><time>2026-04-06T09:37:55Z</time></trkpt><trkpt lat="45.13007829231545" lon="9.9972238375425"><ele>39.714285714285715</ele><time>2026-04-06T09:37:56Z</time></trkpt><trkpt lat="45.13009730987208" lon="9.997316794383645"><ele>40.0</ele><time>2026-04-06T09:37:57Z</time></trkpt><trkpt lat="45.13010981705883" lon="9.997417789605414"><ele>40.0</ele><time>2026-04-06T09:37:58Z</time></trkpt><trkpt lat="45.13012120850902" lon="9.997517121750754"><ele>40.0</ele><time>2026-04-06T09:37:59Z</time></trkpt><trkpt lat="45.13013248701261" lon="9.997616750933997"><ele>40.0</ele><time>2026-04-06T09:38:00Z</time></trkpt><trkpt lat="45.13013976207015" lon="9.997717758964331"><ele>40.0</ele><time>2026-04-06T09:38:01Z</time></trkpt><trkpt lat="45.130148155879006" lon="9.99781621652237"><ele>40.0</ele><time>2026-04-06T09:38:02Z</time></trkpt><trkpt lat="45.130157919470484" lon="9.997913408773286"><ele>40.0</ele><time>2026-04-06T09:38:03Z</time></trkpt><trkpt lat="45.13016808807887" lon="9.99801114215491"><ele>40.0</ele><time>2026-04-06T09:38:04Z</time></trkpt><trkpt lat="45.13017683202749" lon="9.998104855320875"><ele>40.0</ele><time>2026-04-06T09:38:05Z</time></trkpt><trkpt lat="45.13018643706185" lon="9.998199609012799"><ele>40.0</ele><time>2026-04-06T09:38:06Z</time></trkpt><trkpt lat="45.13019761254815" lon="9.998295660474101"><ele>40.0</ele><time>2026-04-06T09:38:07Z</time></trkpt><trkpt lat="45.130209141771495" lon="9.998388798152684"><ele>40.0</ele><time>2026-04-06T09:38:08Z</time></trkpt><trkpt lat="45.13022094626273" lon="9.99848037643743"><ele>40.0</ele><time>2026-04-06T09:38:09Z</time></trkpt><trkpt lat="45.13023008159072" lon="9.998573655745757"><ele>40.0</ele><time>2026-04-06T09:38:10Z</time></trkpt><trkpt lat="45.13024015931513" lon="9.998664703160971"><ele>40.0</ele><time>2026-04-06T09:38:11Z</time></trkpt><trkpt lat="45.13024830554234" lon="9.998756908732819"><ele>40.14285714285714</ele><time>2026-04-06T09:38:12Z</time></trkpt><trkpt lat="45.13025844526604" lon="9.998848396950924"><ele>40.285714285714285</ele><time>2026-04-06T09:38:13Z</time></trkpt><trkpt lat="45.13026954257535" lon="9.99894516083409"><ele>40.42857142857143</ele><time>2026-04-06T09:38:14Z</time></trkpt><trkpt lat="45.13028067632637" lon="9.999044464028225"><ele>40.57142857142857</ele><time>2026-04-06T09:38:15Z</time></trkpt><trkpt lat="45.13028817866609" lon="9.999145403204164"><ele>40.714285714285715</ele><time>2026-04-06T09:38:16Z</time></trkpt><trkpt lat="45.13030555149979" lon="9.999243712330395"><ele>40.857142857142854</ele><time>2026-04-06T09:38:17Z</time></trkpt><trkpt lat="45.130317339226444" lon="9.9993434289119"><ele>41.0</ele><time>2026-04-06T09:38:18Z</time></trkpt><trkpt lat="45.130325733569386" lon="9.999443288467763"><ele>40.99999999999999</ele><time>2026-04-06T09:38:18.999Z</time></trkpt><trkpt lat="45.13033204751095" lon="9.999542261263773"><ele>41.0</ele><time>2026-04-06T09:38:19.999Z</time></trkpt><trkpt lat="45.13034260465075" lon="9.999638527823098"><ele>41.0</ele><time>2026-04-06T09:38:20.999Z</time></trkpt><trkpt lat="45.13035062201589" lon="9.999734859954387"><ele>41.0</ele><time>2026-04-06T09:38:21.999Z</time></trkpt><trkpt lat="45.13035997678739" lon="9.999827358781186"><ele>41.0</ele><time>2026-04-06T09:38:22.999Z</time></trkpt><trkpt lat="45.1303656399725" lon="9.999920790449425"><ele>40.99999999999999</ele><time>2026-04-06T09:38:23.999Z</time></trkpt><trkpt lat="45.13037529188588" lon="10.000012251752166"><ele>41.0</ele><time>2026-04-06T09:38:24.999Z</time></trkpt><trkpt lat="45.13038734757378" lon="10.000102973989062"><ele>41.0</ele><time>2026-04-06T09:38:25.999Z</time></trkpt><trkpt lat="45.13039658480032" lon="10.000193220530686"><ele>41.0</ele><time>2026-04-06T09:38:26.999Z</time></trkpt><trkpt lat="45.13040188661473" lon="10.000282767649335"><ele>41.0</ele><time>2026-04-06T09:38:27.999Z</time></trkpt><trkpt lat="45.13040861802908" lon="10.000372607528657"><ele>41.0</ele><time>2026-04-06T09:38:28.999Z</time></trkpt><trkpt lat="45.13044208580393" lon="10.000551172863132"><ele>41.0</ele><time>2026-04-06T09:38:30.999Z</time></trkpt><trkpt lat="45.13041656659151" lon="10.000723777287709"><ele>41.0</ele><time>2026-04-06T09:38:32.999Z</time></trkpt><trkpt lat="45.13037208209031" lon="10.000886001286258"><ele>40.75</ele><time>2026-04-06T09:38:34.999Z</time></trkpt><trkpt lat="45.13032687662376" lon="10.001035122732956"><ele>40.5</ele><time>2026-04-06T09:38:36.999Z</time></trkpt><trkpt lat="45.130264428086356" lon="10.001180376960315"><ele>40.25</ele><time>2026-04-06T09:38:38.999Z</time></trkpt><trkpt lat="45.13021615922448" lon="10.001299005151495"><ele>40.0</ele><time>2026-04-06T09:38:40.999Z</time></trkpt><trkpt lat="45.13008523666706" lon="10.001334877703908"><ele>40.0</ele><time>2026-04-06T09:38:43.999Z</time></trkpt><trkpt lat="45.130020720390526" lon="10.001376644554602"><ele>40.0</ele><time>2026-04-06T09:38:46.999Z</time></trkpt><trkpt lat="45.13012126936244" lon="10.00152043538365"><ele>40.0</ele><time>2026-04-06T09:38:47.999Z</time></trkpt><trkpt lat="45.13009021744358" lon="10.001442437500117"><ele>40.0</ele><time>2026-04-06T09:38:49.999Z</time></trkpt><trkpt lat="45.13002211323949" lon="10.001484152978765"><ele>40.0</ele><time>2026-04-06T09:38:57.999Z</time></trkpt><trkpt lat="45.130001837407534" lon="10.00137604215511"><ele>40.0</ele><time>2026-04-06T09:40:09Z</time></trkpt><trkpt lat="45.12993071393341" lon="10.001353160766419"><ele>40.0</ele><time>2026-04-06T09:40:12Z</time></trkpt><trkpt lat="45.13000975321216" lon="10.001409996848965"><ele>40.0</ele><time>2026-04-06T09:41:26.998Z</time></trkpt><trkpt lat="45.13003780405558" lon="10.001508766326294"><ele>40.0</ele><time>2026-04-06T09:41:28.998Z</time></trkpt><trkpt lat="45.13002404230498" lon="10.001633060497813"><ele>40.0</ele><time>2026-04-06T09:41:30.998Z</time></trkpt><trkpt lat="45.13000223827386" lon="10.001779140639039"><ele>40.0</ele><time>2026-04-06T09:41:32.998Z</time></trkpt><trkpt lat="45.12994621558493" lon="10.001921418401745"><ele>40.0</ele><time>2026-04-06T09:41:34.998Z</time></trkpt><trkpt lat="45.12991463664887" lon="10.00200034953717"><ele>40.0</ele><time>2026-04-06T09:41:35.998Z</time></trkpt><trkpt lat="45.129877585733155" lon="10.002084988667589"><ele>40.0</ele><time>2026-04-06T09:41:37Z</time></trkpt><trkpt lat="45.129840427502025" lon="10.002169860808364"><ele>40.0</ele><time>2026-04-06T09:41:38Z</time></trkpt><trkpt lat="45.12980203327266" lon="10.002258404038942"><ele>40.0</ele><time>2026-04-06T09:41:39Z</time></trkpt><trkpt lat="45.129762454753234" lon="10.002347888635958"><ele>40.0</ele><time>2026-04-06T09:41:40Z</time></trkpt><trkpt lat="45.129723968986404" lon="10.002441484265303"><ele>40.0</ele><time>2026-04-06T09:41:41Z</time></trkpt><trkpt lat="45.12968252769742" lon="10.002537225283918"><ele>39.5</ele><time>2026-04-06T09:41:42Z</time></trkpt><trkpt lat="45.12964233573547" lon="10.002634539687081"><ele>39.0</ele><time>2026-04-06T09:41:43Z</time></trkpt><trkpt lat="45.12960088286895" lon="10.00273511249571"><ele>38.5</ele><time>2026-04-06T09:41:44Z</time></trkpt><trkpt lat="45.12955993634809" lon="10.0028297294518"><ele>38.0</ele><time>2026-04-06T09:41:45Z</time></trkpt><trkpt lat="45.12951852717139" lon="10.002924637675243"><ele>37.5</ele><time>2026-04-06T09:41:46Z</time></trkpt><trkpt lat="45.12947601183781" lon="10.003015348296477"><ele>37.0</ele><time>2026-04-06T09:41:47Z</time></trkpt><trkpt lat="45.12943516826264" lon="10.003110568998888"><ele>37.0</ele><time>2026-04-06T09:41:48Z</time></trkpt><trkpt lat="45.12939491332076" lon="10.003209431888969"><ele>37.0</ele><time>2026-04-06T09:41:49Z</time></trkpt><trkpt lat="45.129353657269654" lon="10.003308942172817"><ele>37.0</ele><time>2026-04-06T09:41:50Z</time></trkpt><trkpt lat="45.12931186355314" lon="10.00340792048794"><ele>37.0</ele><time>2026-04-06T09:41:51Z</time></trkpt><trkpt lat="45.129271705090936" lon="10.003508446641137"><ele>37.0</ele><time>2026-04-06T09:41:52Z</time></trkpt><trkpt lat="45.1292300891279" lon="10.003609614215716"><ele>37.0</ele><time>2026-04-06T09:41:53Z</time></trkpt><trkpt lat="45.12918769120055" lon="10.003708948747414"><ele>36.66666666666667</ele><time>2026-04-06T09:41:54Z</time></trkpt><trkpt lat="45.1291470028748" lon="10.003810928063812"><ele>36.333333333333336</ele><time>2026-04-06T09:41:55Z</time></trkpt><trkpt lat="45.12910590212582" lon="10.003912201232923"><ele>36.0</ele><time>2026-04-06T09:41:56Z</time></trkpt><trkpt lat="45.129062713416104" lon="10.00401238758646"><ele>35.666666666666664</ele><time>2026-04-06T09:41:57Z</time></trkpt><trkpt lat="45.12902056739298" lon="10.004112869499602"><ele>35.33333333333333</ele><time>2026-04-06T09:41:58Z</time></trkpt><trkpt lat="45.12897902187196" lon="10.00421458691349"><ele>35.0</ele><time>2026-04-06T09:41:59Z</time></trkpt><trkpt lat="45.12893626234925" lon="10.004315151426308"><ele>34.666666666666664</ele><time>2026-04-06T09:42:00Z</time></trkpt><trkpt lat="45.12889504586632" lon="10.004417804548662"><ele>34.33333333333333</ele><time>2026-04-06T09:42:01Z</time></trkpt><trkpt lat="45.12885653202977" lon="10.00452176598965"><ele>34.0</ele><time>2026-04-06T09:42:02Z</time></trkpt><trkpt lat="45.12881611941294" lon="10.004623411210387"><ele>33.666666666666664</ele><time>2026-04-06T09:42:03Z</time></trkpt><trkpt lat="45.12877879086525" lon="10.004726319469876"><ele>33.333333333333336</ele><time>2026-04-06T09:42:04Z</time></trkpt><trkpt lat="45.12874083816061" lon="10.004829420076375"><ele>33.0</ele><time>2026-04-06T09:42:05Z</time></trkpt><trkpt lat="45.12870147366322" lon="10.004932101533818"><ele>33.166666666666664</ele><time>2026-04-06T09:42:06Z</time></trkpt><trkpt lat="45.12866308791189" lon="10.005036315482194"><ele>33.333333333333336</ele><time>2026-04-06T09:42:07Z</time></trkpt><trkpt lat="45.12862877945672" lon="10.00514326871036"><ele>33.5</ele><time>2026-04-06T09:42:08Z</time></trkpt><trkpt lat="45.128593359455316" lon="10.00524939225527"><ele>33.66666666666667</ele><time>2026-04-06T09:42:09Z</time></trkpt><trkpt lat="45.12855629285045" lon="10.005356331831232"><ele>33.833333333333336</ele><time>2026-04-06T09:42:10Z</time></trkpt><trkpt lat="45.128517260565864" lon="10.005463096900288"><ele>34.0</ele><time>2026-04-06T09:42:11Z</time></trkpt><trkpt lat="45.12847682690417" lon="10.00556938080293"><ele>34.0</ele><time>2026-04-06T09:42:12Z</time></trkpt><trkpt lat="45.12844044673515" lon="10.005675559202617"><ele>34.0</ele><time>2026-04-06T09:42:13Z</time></trkpt><trkpt lat="45.1284044602033" lon="10.005786447714383"><ele>34.0</ele><time>2026-04-06T09:42:14Z</time></trkpt><trkpt lat="45.128369010940524" lon="10.0058948979548"><ele>34.0</ele><time>2026-04-06T09:42:15Z</time></trkpt><trkpt lat="45.12833137468201" lon="10.006002050879896"><ele>34.0</ele><time>2026-04-06T09:42:16Z</time></trkpt><trkpt lat="45.12829319530295" lon="10.006110689036815"><ele>34.0</ele><time>2026-04-06T09:42:17Z</time></trkpt><trkpt lat="45.12825663920225" lon="10.006219809290304"><ele>34.333333333333336</ele><time>2026-04-06T09:42:18Z</time></trkpt><trkpt lat="45.12821855618894" lon="10.006327299525957"><ele>34.66666666666667</ele><time>2026-04-06T09:42:19Z</time></trkpt><trkpt lat="45.12818162224381" lon="10.00643484319473"><ele>35.0</ele><time>2026-04-06T09:42:20Z</time></trkpt><trkpt lat="45.128143531092" lon="10.006541876648685"><ele>35.333333333333336</ele><time>2026-04-06T09:42:21Z</time></trkpt><trkpt lat="45.12810402655992" lon="10.00664866026413"><ele>35.666666666666664</ele><time>2026-04-06T09:42:22Z</time></trkpt><trkpt lat="45.12806780158902" lon="10.006758030048399"><ele>36.0</ele><time>2026-04-06T09:42:23Z</time></trkpt><trkpt lat="45.128032084418535" lon="10.00686713354054"><ele>36.0</ele><time>2026-04-06T09:42:24Z</time></trkpt><trkpt lat="45.12799241977577" lon="10.00697617406236"><ele>36.0</ele><time>2026-04-06T09:42:25Z</time></trkpt><trkpt lat="45.12795586578757" lon="10.007085855627583"><ele>36.0</ele><time>2026-04-06T09:42:25.999Z</time></trkpt><trkpt lat="45.127917276658906" lon="10.007194047622617"><ele>36.0</ele><time>2026-04-06T09:42:26.999Z</time></trkpt><trkpt lat="45.12788222336981" lon="10.007302164207646"><ele>36.0</ele><time>2026-04-06T09:42:27.999Z</time></trkpt><trkpt lat="45.127844061070114" lon="10.007410639680806"><ele>36.0</ele><time>2026-04-06T09:42:28.999Z</time></trkpt><trkpt lat="45.12780072707014" lon="10.007524811432729"><ele>36.0</ele><time>2026-04-06T09:42:29.999Z</time></trkpt><trkpt lat="45.12776779139861" lon="10.007629541134408"><ele>36.0</ele><time>2026-04-06T09:42:30.999Z</time></trkpt><trkpt lat="45.12773200127226" lon="10.007741594318015"><ele>36.0</ele><time>2026-04-06T09:42:31.999Z</time></trkpt><trkpt lat="45.12769421390499" lon="10.007853243010269"><ele>36.0</ele><time>2026-04-06T09:42:32.999Z</time></trkpt><trkpt lat="45.1276519008874" lon="10.007962275383852"><ele>36.0</ele><time>2026-04-06T09:42:33.999Z</time></trkpt><trkpt lat="45.12761409763271" lon="10.008073216746663"><ele>36.0</ele><time>2026-04-06T09:42:34.999Z</time></trkpt><trkpt lat="45.12757582278881" lon="10.00818483565793"><ele>36.0</ele><time>2026-04-06T09:42:35.999Z</time></trkpt><trkpt lat="45.12753804706536" lon="10.00829244738624"><ele>36.0</ele><time>2026-04-06T09:42:36.999Z</time></trkpt><trkpt lat="45.127501282596384" lon="10.008402433187847"><ele>36.0</ele><time>2026-04-06T09:42:37.999Z</time></trkpt><trkpt lat="45.12746529874657" lon="10.008511701920641"><ele>36.0</ele><time>2026-04-06T09:42:38.999Z</time></trkpt><trkpt lat="45.127427178715564" lon="10.008621330606507"><ele>36.0</ele><time>2026-04-06T09:42:39.999Z</time></trkpt><trkpt lat="45.12738931940789" lon="10.00872834280103"><ele>36.0</ele><time>2026-04-06T09:42:40.999Z</time></trkpt><trkpt lat="45.12735210109372" lon="10.00883562961886"><ele>36.0</ele><time>2026-04-06T09:42:41.999Z</time></trkpt><trkpt lat="45.12731678444273" lon="10.008942842958678"><ele>36.0</ele><time>2026-04-06T09:42:42.999Z</time></trkpt><trkpt lat="45.1272834697117" lon="10.009046364535928"><ele>36.0</ele><time>2026-04-06T09:42:43.999Z</time></trkpt><trkpt lat="45.12724985670249" lon="10.009148333741507"><ele>36.0</ele><time>2026-04-06T09:42:44.999Z</time></trkpt><trkpt lat="45.12721592428887" lon="10.009244366733094"><ele>36.0</ele><time>2026-04-06T09:42:45.999Z</time></trkpt><trkpt lat="45.12718400130049" lon="10.009340805919566"><ele>36.0</ele><time>2026-04-06T09:42:46.999Z</time></trkpt><trkpt lat="45.12716683233212" lon="10.00943100712938"><ele>36.2</ele><time>2026-04-06T09:42:47.999Z</time></trkpt><trkpt lat="45.12709565243368" lon="10.009533017633995"><ele>36.400000000000006</ele><time>2026-04-06T09:42:51.999Z</time></trkpt><trkpt lat="45.12703183571372" lon="10.009588958128942"><ele>36.6</ele><time>2026-04-06T09:42:53.999Z</time></trkpt><trkpt lat="45.126953690754874" lon="10.009453695662884"><ele>36.800000000000004</ele><time>2026-04-06T09:42:55.999Z</time></trkpt><trkpt lat="45.12685198047589" lon="10.00934260252595"><ele>37.0</ele><time>2026-04-06T09:42:57.999Z</time></trkpt><trkpt lat="45.126800147514686" lon="10.009286527720693"><ele>37.0</ele><time>2026-04-06T09:42:58.999Z</time></trkpt><trkpt lat="45.12674658798307" lon="10.009228585210186"><ele>37.0</ele><time>2026-04-06T09:42:59.999Z</time></trkpt><trkpt lat="45.126682003003346" lon="10.009185580594103"><ele>37.0</ele><time>2026-04-06T09:43:00.999Z</time></trkpt><trkpt lat="45.12662904088322" lon="10.009127293947834"><ele>37.0</ele><time>2026-04-06T09:43:01.999Z</time></trkpt><trkpt lat="45.12657606263494" lon="10.009063327919373"><ele>37.0</ele><time>2026-04-06T09:43:02.999Z</time></trkpt><trkpt lat="45.126516378531626" lon="10.009002581051398"><ele>37.0</ele><time>2026-04-06T09:43:03.999Z</time></trkpt><trkpt lat="45.12645846850185" lon="10.008945273076968"><ele>37.0</ele><time>2026-04-06T09:43:04.999Z</time></trkpt><trkpt lat="45.12639954357735" lon="10.008879860457327"><ele>37.285714285714285</ele><time>2026-04-06T09:43:05.999Z</time></trkpt><trkpt lat="45.126344911895664" lon="10.008811968893813"><ele>37.57142857142857</ele><time>2026-04-06T09:43:06.999Z</time></trkpt><trkpt lat="45.126282835221296" lon="10.008750618672721"><ele>37.85714285714286</ele><time>2026-04-06T09:43:07.999Z</time></trkpt><trkpt lat="45.12622299609432" lon="10.008688160090422"><ele>38.14285714285714</ele><time>2026-04-06T09:43:08.999Z</time></trkpt><trkpt lat="45.12616094262609" lon="10.008603948327632"><ele>38.42857142857142</ele><time>2026-04-06T09:43:09.999Z</time></trkpt><trkpt lat="45.12609769697258" lon="10.008562254869958"><ele>38.714285714285715</ele><time>2026-04-06T09:43:10.999Z</time></trkpt><trkpt lat="45.12605047318601" lon="10.008494470940244"><ele>39.0</ele><time>2026-04-06T09:43:11.999Z</time></trkpt><trkpt lat="45.12597976442932" lon="10.008438480001356"><ele>39.0</ele><time>2026-04-06T09:43:12.999Z</time></trkpt><trkpt lat="45.125920041622784" lon="10.008372200127743"><ele>39.0</ele><time>2026-04-06T09:43:13.999Z</time></trkpt><trkpt lat="45.1258603164176" lon="10.008311086334235"><ele>39.0</ele><time>2026-04-06T09:43:14.999Z</time></trkpt><trkpt lat="45.12580146808014" lon="10.008249340029325"><ele>39.0</ele><time>2026-04-06T09:43:15.999Z</time></trkpt><trkpt lat="45.12574126418891" lon="10.008185838598287"><ele>39.0</ele><time>2026-04-06T09:43:16.999Z</time></trkpt><trkpt lat="45.12568078085483" lon="10.008119130233199"><ele>39.0</ele><time>2026-04-06T09:43:17.999Z</time></trkpt><trkpt lat="45.12561761104889" lon="10.008054952815174"><ele>38.42857142857143</ele><time>2026-04-06T09:43:18.999Z</time></trkpt><trkpt lat="45.125558571344186" lon="10.007994192292195"><ele>37.857142857142854</ele><time>2026-04-06T09:43:19.999Z</time></trkpt><trkpt lat="45.12549996168665" lon="10.00792578356909"><ele>37.285714285714285</ele><time>2026-04-06T09:43:20.999Z</time></trkpt><trkpt lat="45.12543836963779" lon="10.007863890310526"><ele>36.714285714285715</ele><time>2026-04-06T09:43:21.999Z</time></trkpt><trkpt lat="45.125378082055484" lon="10.007800052350937"><ele>36.14285714285714</ele><time>2026-04-06T09:43:22.999Z</time></trkpt><trkpt lat="45.1253160815751" lon="10.00774170833132"><ele>35.57142857142857</ele><time>2026-04-06T09:43:23.998Z</time></trkpt><trkpt lat="45.12526749989119" lon="10.007661678735081"><ele>35.0</ele><time>2026-04-06T09:43:24.998Z</time></trkpt><trkpt lat="45.12520973091022" lon="10.007600915352223"><ele>35.0</ele><time>2026-04-06T09:43:25.998Z</time></trkpt><trkpt lat="45.12515382401433" lon="10.007542464944699"><ele>35.0</ele><time>2026-04-06T09:43:26.998Z</time></trkpt><trkpt lat="45.12509950818348" lon="10.00748576401461"><ele>35.0</ele><time>2026-04-06T09:43:27.998Z</time></trkpt><trkpt lat="45.12503856650582" lon="10.00744736505527"><ele>35.0</ele><time>2026-04-06T09:43:28.998Z</time></trkpt><trkpt lat="45.12498761421654" lon="10.007393047688224"><ele>35.0</ele><time>2026-04-06T09:43:29.998Z</time></trkpt><trkpt lat="45.12489608481358" lon="10.00729775905382"><ele>35.0</ele><time>2026-04-06T09:43:31.998Z</time></trkpt><trkpt lat="45.12481253471015" lon="10.007208295772013"><ele>36.2</ele><time>2026-04-06T09:43:33.998Z</time></trkpt><trkpt lat="45.12474329611948" lon="10.007130159631453"><ele>37.4</ele><time>2026-04-06T09:43:35.998Z</time></trkpt><trkpt lat="45.12466549938596" lon="10.007051860736885"><ele>38.599999999999994</ele><time>2026-04-06T09:43:37.998Z</time></trkpt><trkpt lat="45.12460818828395" lon="10.006968466348916"><ele>39.8</ele><time>2026-04-06T09:43:39.998Z</time></trkpt><trkpt lat="45.12450501129089" lon="10.007156639659433"><ele>41.0</ele><time>2026-04-06T09:43:41.998Z</time></trkpt><trkpt lat="45.12446745079348" lon="10.007310818652881"><ele>41.0</ele><time>2026-04-06T09:43:44Z</time></trkpt><trkpt lat="45.12443433765155" lon="10.007410968203043"><ele>41.0</ele><time>2026-04-06T09:43:46Z</time></trkpt><trkpt lat="45.1244025602444" lon="10.00752460257621"><ele>41.0</ele><time>2026-04-06T09:43:47Z</time></trkpt><trkpt lat="45.12437285848268" lon="10.00761707610623"><ele>41.0</ele><time>2026-04-06T09:43:48Z</time></trkpt><trkpt lat="45.12432364995041" lon="10.007779231966646"><ele>41.0</ele><time>2026-04-06T09:43:50Z</time></trkpt><trkpt lat="45.124295293593434" lon="10.007867006139502"><ele>41.0</ele><time>2026-04-06T09:43:51Z</time></trkpt><trkpt lat="45.124266479295386" lon="10.007952962444925"><ele>40.0</ele><time>2026-04-06T09:43:52Z</time></trkpt><trkpt lat="45.12421698539702" lon="10.008111548618295"><ele>39.0</ele><time>2026-04-06T09:43:54Z</time></trkpt><trkpt lat="45.12417367188486" lon="10.008255893979037"><ele>38.0</ele><time>2026-04-06T09:43:56Z</time></trkpt><trkpt lat="45.12412419859403" lon="10.008412325372312"><ele>37.0</ele><time>2026-04-06T09:43:58Z</time></trkpt><trkpt lat="45.12407118647935" lon="10.008570865316804"><ele>36.66666666666667</ele><time>2026-04-06T09:44:00Z</time></trkpt><trkpt lat="45.1240164963172" lon="10.008731951886213"><ele>36.333333333333336</ele><time>2026-04-06T09:44:02Z</time></trkpt><trkpt lat="45.12398149793283" lon="10.008820726610352"><ele>36.0</ele><time>2026-04-06T09:44:03Z</time></trkpt><trkpt lat="45.12395141634795" lon="10.008913073547367"><ele>35.666666666666664</ele><time>2026-04-06T09:44:04Z</time></trkpt><trkpt lat="45.12392098480351" lon="10.009000767396888"><ele>35.33333333333333</ele><time>2026-04-06T09:44:05Z</time></trkpt><trkpt lat="45.12389377398509" lon="10.009090512034685"><ele>35.0</ele><time>2026-04-06T09:44:06Z</time></trkpt><trkpt lat="45.12386358506942" lon="10.009180880939699"><ele>35.0</ele><time>2026-04-06T09:44:07Z</time></trkpt><trkpt lat="45.12383360254132" lon="10.009271174819979"><ele>35.0</ele><time>2026-04-06T09:44:08Z</time></trkpt><trkpt lat="45.123802150989206" lon="10.00936109580899"><ele>35.0</ele><time>2026-04-06T09:44:09Z</time></trkpt><trkpt lat="45.12377279210972" lon="10.009452285799572"><ele>35.0</ele><time>2026-04-06T09:44:10Z</time></trkpt><trkpt lat="45.12374173032343" lon="10.00954560745674"><ele>35.0</ele><time>2026-04-06T09:44:11Z</time></trkpt><trkpt lat="45.12371212746247" lon="10.009637548927065"><ele>35.0</ele><time>2026-04-06T09:44:12Z</time></trkpt><trkpt lat="45.12367953159981" lon="10.009731439042072"><ele>35.0</ele><time>2026-04-06T09:44:13Z</time></trkpt><trkpt lat="45.123647966987406" lon="10.009825842867665"><ele>35.0</ele><time>2026-04-06T09:44:14Z</time></trkpt><trkpt lat="45.123614681521694" lon="10.009921030582502"><ele>35.0</ele><time>2026-04-06T09:44:15Z</time></trkpt><trkpt lat="45.12358255468856" lon="10.01001571411619"><ele>35.0</ele><time>2026-04-06T09:44:16Z</time></trkpt><trkpt lat="45.123551637875956" lon="10.010109220884024"><ele>35.0</ele><time>2026-04-06T09:44:17Z</time></trkpt><trkpt lat="45.12352210205939" lon="10.010199339067347"><ele>35.0</ele><time>2026-04-06T09:44:18Z</time></trkpt><trkpt lat="45.12349418324402" lon="10.01028682911222"><ele>35.0</ele><time>2026-04-06T09:44:19Z</time></trkpt><trkpt lat="45.12346584623272" lon="10.010374114713388"><ele>35.0</ele><time>2026-04-06T09:44:20Z</time></trkpt><trkpt lat="45.12344185784253" lon="10.010460868265277"><ele>34.857142857142854</ele><time>2026-04-06T09:44:21Z</time></trkpt><trkpt lat="45.12341864791669" lon="10.010544727381133"><ele>34.714285714285715</ele><time>2026-04-06T09:44:22Z</time></trkpt><trkpt lat="45.12337764985885" lon="10.010616651928823"><ele>34.57142857142857</ele><time>2026-04-06T09:44:23Z</time></trkpt><trkpt lat="45.12335744295728" lon="10.010715000577132"><ele>34.42857142857143</ele><time>2026-04-06T09:44:24Z</time></trkpt><trkpt lat="45.12331688700018" lon="10.010802645747862"><ele>34.285714285714285</ele><time>2026-04-06T09:44:25Z</time></trkpt><trkpt lat="45.1232839438505" lon="10.010897491466089"><ele>34.14285714285714</ele><time>2026-04-06T09:44:26Z</time></trkpt><trkpt lat="45.123255857791804" lon="10.010993950790441"><ele>34.0</ele><time>2026-04-06T09:44:27Z</time></trkpt><trkpt lat="45.12322692068773" lon="10.011091137345124"><ele>33.99999999999999</ele><time>2026-04-06T09:44:28Z</time></trkpt><trkpt lat="45.1231989309661" lon="10.011184963251553"><ele>34.0</ele><time>2026-04-06T09:44:29Z</time></trkpt><trkpt lat="45.12316796213486" lon="10.0112743403165"><ele>34.0</ele><time>2026-04-06T09:44:30Z</time></trkpt><trkpt lat="45.12313643396256" lon="10.011362023797686"><ele>34.0</ele><time>2026-04-06T09:44:31Z</time></trkpt><trkpt lat="45.12310355362053" lon="10.011452332419262"><ele>34.0</ele><time>2026-04-06T09:44:32Z</time></trkpt><trkpt lat="45.12306995336945" lon="10.011548073891404"><ele>33.99999999999999</ele><time>2026-04-06T09:44:33Z</time></trkpt><trkpt lat="45.12303869247361" lon="10.011644532250788"><ele>34.0</ele><time>2026-04-06T09:44:34Z</time></trkpt><trkpt lat="45.12300645012216" lon="10.01173900490081"><ele>34.0</ele><time>2026-04-06T09:44:34.999Z</time></trkpt><trkpt lat="45.12297327572414" lon="10.011835702656755"><ele>34.0</ele><time>2026-04-06T09:44:35.999Z</time></trkpt><trkpt lat="45.12294049262206" lon="10.011933128159045"><ele>34.0</ele><time>2026-04-06T09:44:36.999Z</time></trkpt><trkpt lat="45.122908139443" lon="10.012029725855097"><ele>34.0</ele><time>2026-04-06T09:44:37.999Z</time></trkpt><trkpt lat="45.12287413204538" lon="10.012125025531681"><ele>34.0</ele><time>2026-04-06T09:44:38.999Z</time></trkpt><trkpt lat="45.12284160462201" lon="10.01222146378569"><ele>34.0</ele><time>2026-04-06T09:44:39.999Z</time></trkpt><trkpt lat="45.1228091517424" lon="10.012319324461274"><ele>34.0</ele><time>2026-04-06T09:44:40.999Z</time></trkpt><trkpt lat="45.122776013797896" lon="10.01241439882253"><ele>34.0</ele><time>2026-04-06T09:44:41.999Z</time></trkpt><trkpt lat="45.122743133452424" lon="10.012510073760238"><ele>34.0</ele><time>2026-04-06T09:44:42.999Z</time></trkpt><trkpt lat="45.12270967186597" lon="10.0126058234146"><ele>34.0</ele><time>2026-04-06T09:44:43.999Z</time></trkpt><trkpt lat="45.122671411244035" lon="10.012699087794081"><ele>34.0</ele><time>2026-04-06T09:44:44.999Z</time></trkpt><trkpt lat="45.12263126978291" lon="10.012793394412894"><ele>34.0</ele><time>2026-04-06T09:44:45.999Z</time></trkpt><trkpt lat="45.122589969053266" lon="10.012886936793391"><ele>33.66666666666667</ele><time>2026-04-06T09:44:46.999Z</time></trkpt><trkpt lat="45.1225496813978" lon="10.012980681663944"><ele>33.333333333333336</ele><time>2026-04-06T09:44:47.999Z</time></trkpt><trkpt lat="45.12250579037654" lon="10.013071860182372"><ele>33.0</ele><time>2026-04-06T09:44:48.999Z</time></trkpt><trkpt lat="45.12245899348905" lon="10.013160526890582"><ele>32.666666666666664</ele><time>2026-04-06T09:44:49.999Z</time></trkpt><trkpt lat="45.12241002617185" lon="10.013247521683374"><ele>32.33333333333333</ele><time>2026-04-06T09:44:50.999Z</time></trkpt><trkpt lat="45.12235835228843" lon="10.01333241492022"><ele>32.0</ele><time>2026-04-06T09:44:51.999Z</time></trkpt><trkpt lat="45.12230587217053" lon="10.013418779430172"><ele>31.999999999999996</ele><time>2026-04-06T09:44:52.999Z</time></trkpt><trkpt lat="45.12225375774786" lon="10.013503065845795"><ele>32.0</ele><time>2026-04-06T09:44:53.999Z</time></trkpt><trkpt lat="45.12219898929384" lon="10.013586903748765"><ele>32.0</ele><time>2026-04-06T09:44:54.999Z</time></trkpt><trkpt lat="45.12214599617823" lon="10.013671409033215"><ele>32.0</ele><time>2026-04-06T09:44:55.999Z</time></trkpt><trkpt lat="45.12209091327807" lon="10.013755858287503"><ele>31.999999999999996</ele><time>2026-04-06T09:44:56.999Z</time></trkpt><trkpt lat="45.12203790548029" lon="10.013842088455723"><ele>32.0</ele><time>2026-04-06T09:44:57.999Z</time></trkpt><trkpt lat="45.12198665986513" lon="10.013929003516887"><ele>31.999999999999996</ele><time>2026-04-06T09:44:58.999Z</time></trkpt><trkpt lat="45.12193379981924" lon="10.014014194904172"><ele>32.0</ele><time>2026-04-06T09:44:59.999Z</time></trkpt><trkpt lat="45.12188288560876" lon="10.01410145073342"><ele>32.0</ele><time>2026-04-06T09:45:00.999Z</time></trkpt><trkpt lat="45.121830002609116" lon="10.014191394541852"><ele>32.0</ele><time>2026-04-06T09:45:01.999Z</time></trkpt><trkpt lat="45.12177783540738" lon="10.014274511479893"><ele>31.999999999999996</ele><time>2026-04-06T09:45:02.999Z</time></trkpt><trkpt lat="45.12172504723573" lon="10.014360764831137"><ele>32.0</ele><time>2026-04-06T09:45:03.999Z</time></trkpt><trkpt lat="45.12167169320247" lon="10.014447758349755"><ele>32.33333333333333</ele><time>2026-04-06T09:45:04.999Z</time></trkpt><trkpt lat="45.121618634187534" lon="10.014536052080626"><ele>32.666666666666664</ele><time>2026-04-06T09:45:05.999Z</time></trkpt><trkpt lat="45.121564607881" lon="10.01462170220698"><ele>33.0</ele><time>2026-04-06T09:45:06.999Z</time></trkpt><trkpt lat="45.12150941475041" lon="10.014706446380675"><ele>33.333333333333336</ele><time>2026-04-06T09:45:07.999Z</time></trkpt><trkpt lat="45.121454727972065" lon="10.014789768631962"><ele>33.66666666666667</ele><time>2026-04-06T09:45:08.999Z</time></trkpt><trkpt lat="45.12139991368545" lon="10.014874151796018"><ele>34.0</ele><time>2026-04-06T09:45:09.999Z</time></trkpt><trkpt lat="45.12134905450603" lon="10.014962727401025"><ele>34.333333333333336</ele><time>2026-04-06T09:45:10.999Z</time></trkpt><trkpt lat="45.121297980834406" lon="10.015050241255873"><ele>34.66666666666667</ele><time>2026-04-06T09:45:11.999Z</time></trkpt><trkpt lat="45.12124849018863" lon="10.015138526042723"><ele>35.0</ele><time>2026-04-06T09:45:12.999Z</time></trkpt><trkpt lat="45.12119701336248" lon="10.015228601918484"><ele>35.333333333333336</ele><time>2026-04-06T09:45:13.999Z</time></trkpt><trkpt lat="45.121146407025094" lon="10.015318855863129"><ele>35.666666666666664</ele><time>2026-04-06T09:45:14.999Z</time></trkpt><trkpt lat="45.1210995664662" lon="10.015411161801968"><ele>36.0</ele><time>2026-04-06T09:45:15.999Z</time></trkpt><trkpt lat="45.12104802121184" lon="10.01550038972857"><ele>36.0</ele><time>2026-04-06T09:45:16.999Z</time></trkpt><trkpt lat="45.12099815292695" lon="10.01558997154312"><ele>36.0</ele><time>2026-04-06T09:45:17.999Z</time></trkpt><trkpt lat="45.120949297221344" lon="10.015682291774004"><ele>36.0</ele><time>2026-04-06T09:45:18.999Z</time></trkpt><trkpt lat="45.1208971850726" lon="10.015772819840281"><ele>36.0</ele><time>2026-04-06T09:45:19.999Z</time></trkpt><trkpt lat="45.12084776278091" lon="10.015864684815565"><ele>36.0</ele><time>2026-04-06T09:45:20.999Z</time></trkpt><trkpt lat="45.12079789821541" lon="10.015954509916277"><ele>36.0</ele><time>2026-04-06T09:45:21.999Z</time></trkpt><trkpt lat="45.12074905195963" lon="10.016048107828576"><ele>35.333333333333336</ele><time>2026-04-06T09:45:22.999Z</time></trkpt><trkpt lat="45.12069925097255" lon="10.016139658340325"><ele>34.666666666666664</ele><time>2026-04-06T09:45:23.999Z</time></trkpt><trkpt lat="45.12065212339851" lon="10.016231178936064"><ele>34.0</ele><time>2026-04-06T09:45:24.999Z</time></trkpt><trkpt lat="45.12060593255003" lon="10.016323649653833"><ele>33.33333333333333</ele><time>2026-04-06T09:45:25.999Z</time></trkpt><trkpt lat="45.12056147404779" lon="10.016419358799077"><ele>32.666666666666664</ele><time>2026-04-06T09:45:26.999Z</time></trkpt><trkpt lat="45.12051780379356" lon="10.016517372707828"><ele>32.0</ele><time>2026-04-06T09:45:27.999Z</time></trkpt><trkpt lat="45.12047765637812" lon="10.016617304549692"><ele>32.33333333333333</ele><time>2026-04-06T09:45:28.999Z</time></trkpt><trkpt lat="45.12043519068483" lon="10.016715421845108"><ele>32.666666666666664</ele><time>2026-04-06T09:45:29.999Z</time></trkpt><trkpt lat="45.1203952711329" lon="10.01680828670616"><ele>33.0</ele><time>2026-04-06T09:45:30.999Z</time></trkpt><trkpt lat="45.12035401023522" lon="10.016905539200035"><ele>33.333333333333336</ele><time>2026-04-06T09:45:31.998Z</time></trkpt><trkpt lat="45.12031377510513" lon="10.017001233351243"><ele>33.66666666666667</ele><time>2026-04-06T09:45:32.998Z</time></trkpt><trkpt lat="45.12027211418392" lon="10.017098188095522"><ele>34.0</ele><time>2026-04-06T09:45:33.998Z</time></trkpt><trkpt lat="45.12023186094898" lon="10.017193886655695"><ele>33.99999999999999</ele><time>2026-04-06T09:45:34.998Z</time></trkpt><trkpt lat="45.12019282656864" lon="10.017290423587834"><ele>34.0</ele><time>2026-04-06T09:45:35.998Z</time></trkpt><trkpt lat="45.1201571294851" lon="10.017381360029606"><ele>34.0</ele><time>2026-04-06T09:45:36.998Z</time></trkpt><trkpt lat="45.1201161745283" lon="10.017469181191014"><ele>34.0</ele><time>2026-04-06T09:45:37.998Z</time></trkpt><trkpt lat="45.12007808912692" lon="10.01755418650017"><ele>34.0</ele><time>2026-04-06T09:45:38.998Z</time></trkpt><trkpt lat="45.12004302873392" lon="10.017637939551742"><ele>33.99999999999999</ele><time>2026-04-06T09:45:39.998Z</time></trkpt><trkpt lat="45.120010563316114" lon="10.017721722996946"><ele>34.0</ele><time>2026-04-06T09:45:40.998Z</time></trkpt><trkpt lat="45.11997714802208" lon="10.017811405672179"><ele>34.0</ele><time>2026-04-06T09:45:41.998Z</time></trkpt><trkpt lat="45.11994287274106" lon="10.01790238348244"><ele>34.0</ele><time>2026-04-06T09:45:42.998Z</time></trkpt><trkpt lat="45.11989457852737" lon="10.017990973875238"><ele>34.0</ele><time>2026-04-06T09:45:43.998Z</time></trkpt><trkpt lat="45.11984824508011" lon="10.018083722655405"><ele>34.0</ele><time>2026-04-06T09:45:44.998Z</time></trkpt><trkpt lat="45.11980903468908" lon="10.018178737907792"><ele>34.0</ele><time>2026-04-06T09:45:45.998Z</time></trkpt><trkpt lat="45.11976905275376" lon="10.018272872633135"><ele>34.0</ele><time>2026-04-06T09:45:46.998Z</time></trkpt><trkpt lat="45.119728436108794" lon="10.018367292606882"><ele>33.66666666666667</ele><time>2026-04-06T09:45:47.998Z</time></trkpt><trkpt lat="45.11968963919638" lon="10.018463128045223"><ele>33.333333333333336</ele><time>2026-04-06T09:45:49Z</time></trkpt><trkpt lat="45.11965000825977" lon="10.018559764342495"><ele>33.0</ele><time>2026-04-06T09:45:50Z</time></trkpt><trkpt lat="45.11961147112576" lon="10.018656206382532"><ele>32.666666666666664</ele><time>2026-04-06T09:45:51Z</time></trkpt><trkpt lat="45.1195729158726" lon="10.018750067613166"><ele>32.33333333333333</ele><time>2026-04-06T09:45:52Z</time></trkpt><trkpt lat="45.11953339063665" lon="10.018846731517643"><ele>32.0</ele><time>2026-04-06T09:45:53Z</time></trkpt><trkpt lat="45.11949273641597" lon="10.018942976300789"><ele>31.999999999999996</ele><time>2026-04-06T09:45:54Z</time></trkpt><trkpt lat="45.119452914319204" lon="10.019036103695665"><ele>32.0</ele><time>2026-04-06T09:45:55Z</time></trkpt><trkpt lat="45.11941214091577" lon="10.019131231624982"><ele>32.0</ele><time>2026-04-06T09:45:56Z</time></trkpt><trkpt lat="45.11937242941826" lon="10.019225080704699"><ele>32.0</ele><time>2026-04-06T09:45:57Z</time></trkpt><trkpt lat="45.11932879018456" lon="10.019319550852108"><ele>31.999999999999996</ele><time>2026-04-06T09:45:58Z</time></trkpt><trkpt lat="45.11928828574591" lon="10.019415368825452"><ele>32.0</ele><time>2026-04-06T09:45:59Z</time></trkpt><trkpt lat="45.11924264111142" lon="10.019503850899126"><ele>31.999999999999996</ele><time>2026-04-06T09:46:00Z</time></trkpt><trkpt lat="45.11919262203728" lon="10.019593296939371"><ele>32.0</ele><time>2026-04-06T09:46:01Z</time></trkpt><trkpt lat="45.11914325474131" lon="10.019680704336418"><ele>32.0</ele><time>2026-04-06T09:46:02Z</time></trkpt><trkpt lat="45.119088969173085" lon="10.01976460337664"><ele>32.0</ele><time>2026-04-06T09:46:03Z</time></trkpt><trkpt lat="45.11903695263048" lon="10.019846085524216"><ele>31.999999999999996</ele><time>2026-04-06T09:46:04Z</time></trkpt><trkpt lat="45.1189822827074" lon="10.01992858823591"><ele>32.0</ele><time>2026-04-06T09:46:05Z</time></trkpt><trkpt lat="45.118928655201145" lon="10.020007218725798"><ele>32.166666666666664</ele><time>2026-04-06T09:46:06Z</time></trkpt><trkpt lat="45.11887313447204" lon="10.020085470035982"><ele>32.33333333333333</ele><time>2026-04-06T09:46:07Z</time></trkpt><trkpt lat="45.11881793250584" lon="10.020166581509434"><ele>32.5</ele><time>2026-04-06T09:46:08Z</time></trkpt><trkpt lat="45.118764643425216" lon="10.020247696246074"><ele>32.666666666666664</ele><time>2026-04-06T09:46:09Z</time></trkpt><trkpt lat="45.11871103234866" lon="10.02033065467852"><ele>32.833333333333336</ele><time>2026-04-06T09:46:10Z</time></trkpt><trkpt lat="45.118657138391846" lon="10.020411712313196"><ele>33.0</ele><time>2026-04-06T09:46:11Z</time></trkpt><trkpt lat="45.118603367276656" lon="10.020492230944479"><ele>33.0</ele><time>2026-04-06T09:46:12Z</time></trkpt><trkpt lat="45.11855006656657" lon="10.020573285798099"><ele>33.0</ele><time>2026-04-06T09:46:13Z</time></trkpt><trkpt lat="45.118495896535485" lon="10.020653992441492"><ele>33.0</ele><time>2026-04-06T09:46:14Z</time></trkpt><trkpt lat="45.11843828746336" lon="10.020731748299323"><ele>33.0</ele><time>2026-04-06T09:46:15Z</time></trkpt><trkpt lat="45.11837757083473" lon="10.020805312336952"><ele>33.0</ele><time>2026-04-06T09:46:16Z</time></trkpt><trkpt lat="45.118318092279175" lon="10.020886185186283"><ele>33.0</ele><time>2026-04-06T09:46:17Z</time></trkpt><trkpt lat="45.1182628239418" lon="10.02096646042516"><ele>32.833333333333336</ele><time>2026-04-06T09:46:18Z</time></trkpt><trkpt lat="45.11820545045737" lon="10.021044085491804"><ele>32.666666666666664</ele><time>2026-04-06T09:46:19Z</time></trkpt><trkpt lat="45.11814814736513" lon="10.021117680103151"><ele>32.5</ele><time>2026-04-06T09:46:20Z</time></trkpt><trkpt lat="45.1180894593865" lon="10.021190403848355"><ele>32.33333333333333</ele><time>2026-04-06T09:46:21Z</time></trkpt><trkpt lat="45.11802976851738" lon="10.021262492748345"><ele>32.166666666666664</ele><time>2026-04-06T09:46:22Z</time></trkpt><trkpt lat="45.11796740468472" lon="10.021334971621263"><ele>32.0</ele><time>2026-04-06T09:46:23Z</time></trkpt><trkpt lat="45.11790478642103" lon="10.02140830469611"><ele>31.999999999999996</ele><time>2026-04-06T09:46:24Z</time></trkpt><trkpt lat="45.117843234362496" lon="10.02148008409373"><ele>32.0</ele><time>2026-04-06T09:46:25Z</time></trkpt><trkpt lat="45.11777761529044" lon="10.021551022446594"><ele>32.0</ele><time>2026-04-06T09:46:26Z</time></trkpt><trkpt lat="45.117717836158754" lon="10.021627094979761"><ele>32.0</ele><time>2026-04-06T09:46:27Z</time></trkpt><trkpt lat="45.117656078550695" lon="10.021698827643132"><ele>31.999999999999996</ele><time>2026-04-06T09:46:28Z</time></trkpt><trkpt lat="45.11759422402096" lon="10.021772339046532"><ele>32.0</ele><time>2026-04-06T09:46:29Z</time></trkpt><trkpt lat="45.11753199150948" lon="10.021841497292419"><ele>31.999999999999996</ele><time>2026-04-06T09:46:30Z</time></trkpt><trkpt lat="45.11746970958274" lon="10.02191225814022"><ele>32.0</ele><time>2026-04-06T09:46:31Z</time></trkpt><trkpt lat="45.11740881673735" lon="10.021984803301548"><ele>32.0</ele><time>2026-04-06T09:46:32Z</time></trkpt><trkpt lat="45.117348190911756" lon="10.022056478924734"><ele>32.0</ele><time>2026-04-06T09:46:33Z</time></trkpt><trkpt lat="45.117286760446085" lon="10.02212969047054"><ele>31.999999999999996</ele><time>2026-04-06T09:46:34Z</time></trkpt><trkpt lat="45.1172250439866" lon="10.022202956357365"><ele>32.0</ele><time>2026-04-06T09:46:35Z</time></trkpt><trkpt lat="45.11716212102377" lon="10.022273995905895"><ele>31.999999999999996</ele><time>2026-04-06T09:46:36Z</time></trkpt><trkpt lat="45.11710141103381" lon="10.02234612245507"><ele>32.0</ele><time>2026-04-06T09:46:37Z</time></trkpt><trkpt lat="45.11703843794011" lon="10.022420043776478"><ele>32.0</ele><time>2026-04-06T09:46:38Z</time></trkpt><trkpt lat="45.116977397771876" lon="10.022494800751156"><ele>32.0</ele><time>2026-04-06T09:46:39Z</time></trkpt><trkpt lat="45.116917470810364" lon="10.022571012509967"><ele>31.999999999999996</ele><time>2026-04-06T09:46:39.999Z</time></trkpt><trkpt lat="45.1168600681029" lon="10.022655247761097"><ele>32.0</ele><time>2026-04-06T09:46:40.999Z</time></trkpt><trkpt lat="45.11680748364005" lon="10.022742725657757"><ele>31.999999999999996</ele><time>2026-04-06T09:46:41.999Z</time></trkpt><trkpt lat="45.116755874922696" lon="10.022831844113208"><ele>32.0</ele><time>2026-04-06T09:46:42.999Z</time></trkpt><trkpt lat="45.11670669998544" lon="10.022923437971068"><ele>32.0</ele><time>2026-04-06T09:46:43.999Z</time></trkpt><trkpt lat="45.1166565075016" lon="10.023012919365668"><ele>32.0</ele><time>2026-04-06T09:46:44.999Z</time></trkpt><trkpt lat="45.11660804750831" lon="10.023103797145222"><ele>31.999999999999996</ele><time>2026-04-06T09:46:45.999Z</time></trkpt><trkpt lat="45.116560231434775" lon="10.02319416691159"><ele>32.0</ele><time>2026-04-06T09:46:46.999Z</time></trkpt><trkpt lat="45.11651085584292" lon="10.023286023700967"><ele>31.999999999999996</ele><time>2026-04-06T09:46:47.999Z</time></trkpt><trkpt lat="45.11646374041752" lon="10.023375930615467"><ele>32.0</ele><time>2026-04-06T09:46:48.999Z</time></trkpt><trkpt lat="45.11641739015117" lon="10.023470385045215"><ele>32.0</ele><time>2026-04-06T09:46:49.999Z</time></trkpt><trkpt lat="45.11637276459589" lon="10.02356751437123"><ele>32.0</ele><time>2026-04-06T09:46:50.999Z</time></trkpt><trkpt lat="45.11633027102401" lon="10.023666503462707"><ele>31.999999999999996</ele><time>2026-04-06T09:46:51.999Z</time></trkpt><trkpt lat="45.11629153397011" lon="10.023765199558385"><ele>32.0</ele><time>2026-04-06T09:46:52.999Z</time></trkpt><trkpt lat="45.1162517270507" lon="10.02386795721524"><ele>31.999999999999996</ele><time>2026-04-06T09:46:53.999Z</time></trkpt><trkpt lat="45.11621629381228" lon="10.023970558744375"><ele>32.0</ele><time>2026-04-06T09:46:54.999Z</time></trkpt><trkpt lat="45.11617776953516" lon="10.02407428754906"><ele>32.0</ele><time>2026-04-06T09:46:55.999Z</time></trkpt><trkpt lat="45.11613929314826" lon="10.024171547100627"><ele>32.0</ele><time>2026-04-06T09:46:56.999Z</time></trkpt><trkpt lat="45.11610154163661" lon="10.02427347456161"><ele>31.999999999999996</ele><time>2026-04-06T09:46:57.999Z</time></trkpt><trkpt lat="45.11606429366931" lon="10.024375573818537"><ele>32.0</ele><time>2026-04-06T09:46:58.999Z</time></trkpt><trkpt lat="45.1160264193434" lon="10.024478250592248"><ele>31.999999999999996</ele><time>2026-04-06T09:46:59.999Z</time></trkpt><trkpt lat="45.11599073654371" lon="10.024579079728358"><ele>32.0</ele><time>2026-04-06T09:47:00.999Z</time></trkpt><trkpt lat="45.115953936350245" lon="10.024679772146255"><ele>32.0</ele><time>2026-04-06T09:47:01.999Z</time></trkpt><trkpt lat="45.11591536122443" lon="10.024778279535179"><ele>32.0</ele><time>2026-04-06T09:47:02.999Z</time></trkpt><trkpt lat="45.11587180817801" lon="10.02487186165236"><ele>31.999999999999996</ele><time>2026-04-06T09:47:03.999Z</time></trkpt><trkpt lat="45.11582068114317" lon="10.024959896779025"><ele>32.0</ele><time>2026-04-06T09:47:04.999Z</time></trkpt><trkpt lat="45.115762493569264" lon="10.025040585767586"><ele>31.833333333333332</ele><time>2026-04-06T09:47:05.999Z</time></trkpt><trkpt lat="45.115692009317826" lon="10.025102236224471"><ele>31.666666666666664</ele><time>2026-04-06T09:47:06.999Z</time></trkpt><trkpt lat="45.11562197315698" lon="10.02515359978328"><ele>31.5</ele><time>2026-04-06T09:47:07.999Z</time></trkpt><trkpt lat="45.11554301955308" lon="10.025189304937935"><ele>31.333333333333336</ele><time>2026-04-06T09:47:08.999Z</time></trkpt><trkpt lat="45.11546445454605" lon="10.0252165245784"><ele>31.166666666666668</ele><time>2026-04-06T09:47:09.999Z</time></trkpt><trkpt lat="45.115387055047286" lon="10.025250990422075"><ele>31.0</ele><time>2026-04-06T09:47:10.999Z</time></trkpt><trkpt lat="45.11530683570908" lon="10.025278087279547"><ele>31.000000000000004</ele><time>2026-04-06T09:47:11.999Z</time></trkpt><trkpt lat="45.115228437147316" lon="10.025308658023793"><ele>31.0</ele><time>2026-04-06T09:47:12.999Z</time></trkpt><trkpt lat="45.11515068860715" lon="10.025337319181347"><ele>31.0</ele><time>2026-04-06T09:47:13.999Z</time></trkpt><trkpt lat="45.11507264869934" lon="10.02537312633735"><ele>31.0</ele><time>2026-04-06T09:47:14.999Z</time></trkpt><trkpt lat="45.11499580019522" lon="10.025400761600451"><ele>31.000000000000004</ele><time>2026-04-06T09:47:15.999Z</time></trkpt><trkpt lat="45.114918163691655" lon="10.025431879381353"><ele>31.0</ele><time>2026-04-06T09:47:16.999Z</time></trkpt><trkpt lat="45.11484128934442" lon="10.025461593864058"><ele>31.000000000000004</ele><time>2026-04-06T09:47:17.999Z</time></trkpt><trkpt lat="45.11476373800354" lon="10.02549113654255"><ele>31.0</ele><time>2026-04-06T09:47:18.999Z</time></trkpt><trkpt lat="45.11468848200889" lon="10.025520167548171"><ele>31.0</ele><time>2026-04-06T09:47:19.999Z</time></trkpt><trkpt lat="45.114611593342254" lon="10.025550174554215"><ele>31.0</ele><time>2026-04-06T09:47:20.999Z</time></trkpt><trkpt lat="45.114537097896786" lon="10.025573894486222"><ele>31.000000000000004</ele><time>2026-04-06T09:47:21.999Z</time></trkpt><trkpt lat="45.11446144157235" lon="10.025599699155926"><ele>31.0</ele><time>2026-04-06T09:47:22.999Z</time></trkpt><trkpt lat="45.11438688014385" lon="10.02562586222536"><ele>31.000000000000004</ele><time>2026-04-06T09:47:23.999Z</time></trkpt><trkpt lat="45.11430936812173" lon="10.025651482997205"><ele>31.0</ele><time>2026-04-06T09:47:24.999Z</time></trkpt><trkpt lat="45.11423170622745" lon="10.025670222237459"><ele>31.0</ele><time>2026-04-06T09:47:25.999Z</time></trkpt><trkpt lat="45.11415254454353" lon="10.025687017995628"><ele>31.0</ele><time>2026-04-06T09:47:26.999Z</time></trkpt><trkpt lat="45.114073795605464" lon="10.025711583718365"><ele>31.000000000000004</ele><time>2026-04-06T09:47:27.999Z</time></trkpt><trkpt lat="45.113995144559134" lon="10.025738529312568"><ele>31.0</ele><time>2026-04-06T09:47:28.999Z</time></trkpt><trkpt lat="45.11391721941723" lon="10.025765609152721"><ele>31.333333333333336</ele><time>2026-04-06T09:47:29.999Z</time></trkpt><trkpt lat="45.1138379711466" lon="10.02579064592924"><ele>31.666666666666668</ele><time>2026-04-06T09:47:30.999Z</time></trkpt><trkpt lat="45.113761464700744" lon="10.0258178694825"><ele>32.0</ele><time>2026-04-06T09:47:31.999Z</time></trkpt><trkpt lat="45.113683934961315" lon="10.025838845816795"><ele>32.333333333333336</ele><time>2026-04-06T09:47:32.999Z</time></trkpt><trkpt lat="45.11360782854711" lon="10.025863200321188"><ele>32.666666666666664</ele><time>2026-04-06T09:47:33.999Z</time></trkpt><trkpt lat="45.11353148195051" lon="10.025888968849456"><ele>33.0</ele><time>2026-04-06T09:47:34.999Z</time></trkpt><trkpt lat="45.113456114788754" lon="10.025912048430019"><ele>33.0</ele><time>2026-04-06T09:47:35.999Z</time></trkpt><trkpt lat="45.113377175236856" lon="10.025936076346666"><ele>33.0</ele><time>2026-04-06T09:47:36.998Z</time></trkpt><trkpt lat="45.11329684286221" lon="10.025959405388685"><ele>33.0</ele><time>2026-04-06T09:47:37.998Z</time></trkpt><trkpt lat="45.11321771620411" lon="10.0259853466168"><ele>33.0</ele><time>2026-04-06T09:47:38.998Z</time></trkpt><trkpt lat="45.113139995734706" lon="10.026011308406042"><ele>33.0</ele><time>2026-04-06T09:47:39.998Z</time></trkpt><trkpt lat="45.11306126733863" lon="10.0260385211438"><ele>33.0</ele><time>2026-04-06T09:47:40.998Z</time></trkpt><trkpt lat="45.11298266759913" lon="10.02606723143289"><ele>32.833333333333336</ele><time>2026-04-06T09:47:41.998Z</time></trkpt><trkpt lat="45.11290611353384" lon="10.026095319352642"><ele>32.666666666666664</ele><time>2026-04-06T09:47:42.998Z</time></trkpt><trkpt lat="45.11283217736449" lon="10.026123989416904"><ele>32.5</ele><time>2026-04-06T09:47:43.998Z</time></trkpt><trkpt lat="45.112758042330654" lon="10.02615278424678"><ele>32.33333333333333</ele><time>2026-04-06T09:47:44.998Z</time></trkpt><trkpt lat="45.11268049056486" lon="10.026180920967853"><ele>32.166666666666664</ele><time>2026-04-06T09:47:45.998Z</time></trkpt><trkpt lat="45.11260211052878" lon="10.026214865168287"><ele>32.0</ele><time>2026-04-06T09:47:46.998Z</time></trkpt><trkpt lat="45.11252729508966" lon="10.026255042283967"><ele>31.999999999999996</ele><time>2026-04-06T09:47:47.998Z</time></trkpt><trkpt lat="45.11244975801284" lon="10.02629362377845"><ele>32.0</ele><time>2026-04-06T09:47:48.998Z</time></trkpt><trkpt lat="45.1123712530185" lon="10.026332467660698"><ele>32.0</ele><time>2026-04-06T09:47:49.998Z</time></trkpt><trkpt lat="45.11229163287202" lon="10.026374291129223"><ele>32.0</ele><time>2026-04-06T09:47:50.998Z</time></trkpt><trkpt lat="45.112211604342264" lon="10.026416440585827"><ele>31.999999999999996</ele><time>2026-04-06T09:47:51.998Z</time></trkpt><trkpt lat="45.112135065095785" lon="10.026458593854592"><ele>32.0</ele><time>2026-04-06T09:47:52.998Z</time></trkpt><trkpt lat="45.112058905815005" lon="10.026503494795021"><ele>31.999999999999996</ele><time>2026-04-06T09:47:53.998Z</time></trkpt><trkpt lat="45.11198214001764" lon="10.026545379153001"><ele>32.0</ele><time>2026-04-06T09:47:55Z</time></trkpt><trkpt lat="45.11190627987667" lon="10.026585674593985"><ele>32.0</ele><time>2026-04-06T09:47:56Z</time></trkpt><trkpt lat="45.111828490751996" lon="10.026623396220833"><ele>32.0</ele><time>2026-04-06T09:47:57Z</time></trkpt><trkpt lat="45.11175232751515" lon="10.026664921911673"><ele>31.999999999999996</ele><time>2026-04-06T09:47:58Z</time></trkpt><trkpt lat="45.11167525117631" lon="10.026703487000429"><ele>32.0</ele><time>2026-04-06T09:47:59Z</time></trkpt><trkpt lat="45.111601066684614" lon="10.02674605748713"><ele>32.5</ele><time>2026-04-06T09:48:00Z</time></trkpt><trkpt lat="45.11152702187951" lon="10.026789845173438"><ele>33.0</ele><time>2026-04-06T09:48:01Z</time></trkpt><trkpt lat="45.11145245280707" lon="10.02683065964409"><ele>33.5</ele><time>2026-04-06T09:48:02Z</time></trkpt><trkpt lat="45.111377217080324" lon="10.02687444173094"><ele>34.0</ele><time>2026-04-06T09:48:03Z</time></trkpt><trkpt lat="45.11130321755187" lon="10.0269163842235"><ele>34.5</ele><time>2026-04-06T09:48:04Z</time></trkpt><trkpt lat="45.111228364737855" lon="10.026958033405359"><ele>35.0</ele><time>2026-04-06T09:48:05Z</time></trkpt><trkpt lat="45.111154519838834" lon="10.027004458907"><ele>35.0</ele><time>2026-04-06T09:48:06Z</time></trkpt><trkpt lat="45.111080239057266" lon="10.027045779044796"><ele>35.0</ele><time>2026-04-06T09:48:07Z</time></trkpt><trkpt lat="45.11100638464307" lon="10.027090647918985"><ele>35.0</ele><time>2026-04-06T09:48:08Z</time></trkpt><trkpt lat="45.110933144450286" lon="10.027133323934951"><ele>35.0</ele><time>2026-04-06T09:48:09Z</time></trkpt><trkpt lat="45.11085134389402" lon="10.027151247337999"><ele>35.0</ele><time>2026-04-06T09:48:10Z</time></trkpt><trkpt lat="45.1107760845643" lon="10.027187761494972"><ele>35.0</ele><time>2026-04-06T09:48:11Z</time></trkpt><trkpt lat="45.11069983813668" lon="10.027222707668665"><ele>34.666666666666664</ele><time>2026-04-06T09:48:12Z</time></trkpt><trkpt lat="45.110626281343805" lon="10.02727858250743"><ele>34.33333333333333</ele><time>2026-04-06T09:48:13Z</time></trkpt><trkpt lat="45.11054849668052" lon="10.027303869963616"><ele>34.0</ele><time>2026-04-06T09:48:14Z</time></trkpt><trkpt lat="45.11047066658236" lon="10.027330332977893"><ele>33.666666666666664</ele><time>2026-04-06T09:48:15Z</time></trkpt><trkpt lat="45.11039042664024" lon="10.027356427283538"><ele>33.333333333333336</ele><time>2026-04-06T09:48:16Z</time></trkpt><trkpt lat="45.110313086222185" lon="10.027381967813682"><ele>33.0</ele><time>2026-04-06T09:48:17Z</time></trkpt><trkpt lat="45.110234737250174" lon="10.027407826113597"><ele>33.0</ele><time>2026-04-06T09:48:18Z</time></trkpt><trkpt lat="45.11015491255177" lon="10.027434476745412"><ele>33.0</ele><time>2026-04-06T09:48:19Z</time></trkpt><trkpt lat="45.1100739634294" lon="10.02746215197883"><ele>33.0</ele><time>2026-04-06T09:48:20Z</time></trkpt><trkpt lat="45.109995056255386" lon="10.027489839151496"><ele>33.0</ele><time>2026-04-06T09:48:21Z</time></trkpt><trkpt lat="45.10991675329841" lon="10.02751722340275"><ele>33.0</ele><time>2026-04-06T09:48:22Z</time></trkpt><trkpt lat="45.10983683199967" lon="10.027543259500241"><ele>33.0</ele><time>2026-04-06T09:48:23Z</time></trkpt><trkpt lat="45.109758120963434" lon="10.027569350442521"><ele>32.833333333333336</ele><time>2026-04-06T09:48:24Z</time></trkpt><trkpt lat="45.10968057700158" lon="10.02759529144087"><ele>32.666666666666664</ele><time>2026-04-06T09:48:25Z</time></trkpt><trkpt lat="45.10960271609464" lon="10.027621153153602"><ele>32.5</ele><time>2026-04-06T09:48:26Z</time></trkpt><trkpt lat="45.10952678766857" lon="10.027650963951109"><ele>32.33333333333333</ele><time>2026-04-06T09:48:27Z</time></trkpt><trkpt lat="45.10944855917265" lon="10.027672527422322"><ele>32.166666666666664</ele><time>2026-04-06T09:48:28Z</time></trkpt><trkpt lat="45.10937012533354" lon="10.027700494472816"><ele>32.0</ele><time>2026-04-06T09:48:29Z</time></trkpt><trkpt lat="45.10929186812259" lon="10.027728646684519"><ele>31.999999999999996</ele><time>2026-04-06T09:48:30Z</time></trkpt><trkpt lat="45.10921319852872" lon="10.027751143631303"><ele>32.0</ele><time>2026-04-06T09:48:31Z</time></trkpt><trkpt lat="45.10913456640233" lon="10.027776397062812"><ele>32.0</ele><time>2026-04-06T09:48:32Z</time></trkpt><trkpt lat="45.109057594334566" lon="10.02780231473581"><ele>32.0</ele><time>2026-04-06T09:48:33Z</time></trkpt><trkpt lat="45.10898116745682" lon="10.027826715926503"><ele>31.999999999999996</ele><time>2026-04-06T09:48:34Z</time></trkpt><trkpt lat="45.10890380010942" lon="10.027853093172295"><ele>32.0</ele><time>2026-04-06T09:48:35Z</time></trkpt><trkpt lat="45.10882544546306" lon="10.027877068782143"><ele>32.166666666666664</ele><time>2026-04-06T09:48:36Z</time></trkpt><trkpt lat="45.108749803992666" lon="10.027901356010808"><ele>32.33333333333333</ele><time>2026-04-06T09:48:37Z</time></trkpt><trkpt lat="45.10867124200842" lon="10.027925972688106"><ele>32.5</ele><time>2026-04-06T09:48:38Z</time></trkpt><trkpt lat="45.10859526844407" lon="10.027951267272675"><ele>32.666666666666664</ele><time>2026-04-06T09:48:39Z</time></trkpt><trkpt lat="45.108520150042594" lon="10.027973920153737"><ele>32.833333333333336</ele><time>2026-04-06T09:48:40Z</time></trkpt><trkpt lat="45.10844148356619" lon="10.027984296015795"><ele>33.0</ele><time>2026-04-06T09:48:41Z</time></trkpt><trkpt lat="45.10836526270599" lon="10.027994314031476"><ele>33.0</ele><time>2026-04-06T09:48:42Z</time></trkpt><trkpt lat="45.10828684778304" lon="10.028004204845015"><ele>33.0</ele><time>2026-04-06T09:48:43Z</time></trkpt><trkpt lat="45.10820842711537" lon="10.028003815743833"><ele>33.0</ele><time>2026-04-06T09:48:44Z</time></trkpt><trkpt lat="45.108129716362974" lon="10.027999673991816"><ele>33.0</ele><time>2026-04-06T09:48:45Z</time></trkpt><trkpt lat="45.10804999889163" lon="10.027998662863789"><ele>33.0</ele><time>2026-04-06T09:48:45.999Z</time></trkpt><trkpt lat="45.1079708028268" lon="10.02799402128128"><ele>33.0</ele><time>2026-04-06T09:48:46.999Z</time></trkpt><trkpt lat="45.10789239733746" lon="10.027992082470597"><ele>32.833333333333336</ele><time>2026-04-06T09:48:47.999Z</time></trkpt><trkpt lat="45.1078114067303" lon="10.027990096979742"><ele>32.666666666666664</ele><time>2026-04-06T09:48:48.999Z</time></trkpt><trkpt lat="45.1077313706822" lon="10.027989397340184"><ele>32.5</ele><time>2026-04-06T09:48:49.999Z</time></trkpt><trkpt lat="45.10765092374179" lon="10.027989432341306"><ele>32.33333333333333</ele><time>2026-04-06T09:48:50.999Z</time></trkpt><trkpt lat="45.10757139069734" lon="10.027987145090982"><ele>32.166666666666664</ele><time>2026-04-06T09:48:51.999Z</time></trkpt><trkpt lat="45.10749178051926" lon="10.027984814945219"><ele>32.0</ele><time>2026-04-06T09:48:52.999Z</time></trkpt><trkpt lat="45.1074114101192" lon="10.027983724286734"><ele>32.5</ele><time>2026-04-06T09:48:53.999Z</time></trkpt><trkpt lat="45.107332452409366" lon="10.027982206213066"><ele>33.0</ele><time>2026-04-06T09:48:54.999Z</time></trkpt><trkpt lat="45.10725256606968" lon="10.027979371677146"><ele>33.5</ele><time>2026-04-06T09:48:55.999Z</time></trkpt><trkpt lat="45.1071731298325" lon="10.0279794135736"><ele>34.0</ele><time>2026-04-06T09:48:56.999Z</time></trkpt><trkpt lat="45.10709407721053" lon="10.027976272215541"><ele>34.5</ele><time>2026-04-06T09:48:57.999Z</time></trkpt><trkpt lat="45.107015753292266" lon="10.027974516497245"><ele>35.0</ele><time>2026-04-06T09:48:58.999Z</time></trkpt><trkpt lat="45.106937587122914" lon="10.027969594849083"><ele>35.0</ele><time>2026-04-06T09:48:59.999Z</time></trkpt><trkpt lat="45.10685742870543" lon="10.02796849808244"><ele>35.0</ele><time>2026-04-06T09:49:00.999Z</time></trkpt><trkpt lat="45.10677825406022" lon="10.027966593466694"><ele>35.0</ele><time>2026-04-06T09:49:01.999Z</time></trkpt><trkpt lat="45.106698645098774" lon="10.027961660647668"><ele>35.0</ele><time>2026-04-06T09:49:02.999Z</time></trkpt><trkpt lat="45.10661992373991" lon="10.027960645626509"><ele>35.0</ele><time>2026-04-06T09:49:03.999Z</time></trkpt><trkpt lat="45.10653970405319" lon="10.027954081722287"><ele>35.0</ele><time>2026-04-06T09:49:04.999Z</time></trkpt><trkpt lat="45.10646242487216" lon="10.027949930242693"><ele>34.666666666666664</ele><time>2026-04-06T09:49:05.999Z</time></trkpt><trkpt lat="45.10638135553929" lon="10.027947662094952"><ele>34.33333333333333</ele><time>2026-04-06T09:49:06.999Z</time></trkpt><trkpt lat="45.10630292880547" lon="10.027947384156896"><ele>34.0</ele><time>2026-04-06T09:49:07.999Z</time></trkpt><trkpt lat="45.10622188312152" lon="10.02794509957682"><ele>33.666666666666664</ele><time>2026-04-06T09:49:08.999Z</time></trkpt><trkpt lat="45.10614326981401" lon="10.02794521451282"><ele>33.333333333333336</ele><time>2026-04-06T09:49:09.999Z</time></trkpt><trkpt lat="45.10606441791066" lon="10.02794304213993"><ele>33.0</ele><time>2026-04-06T09:49:10.999Z</time></trkpt><trkpt lat="45.10598642431815" lon="10.027946731564287"><ele>33.0</ele><time>2026-04-06T09:49:11.999Z</time></trkpt><trkpt lat="45.10590588782456" lon="10.027959471985154"><ele>33.0</ele><time>2026-04-06T09:49:12.999Z</time></trkpt><trkpt lat="45.10582885856651" lon="10.02799056714301"><ele>33.0</ele><time>2026-04-06T09:49:13.999Z</time></trkpt><trkpt lat="45.10575226940987" lon="10.028028163164569"><ele>33.0</ele><time>2026-04-06T09:49:14.999Z</time></trkpt><trkpt lat="45.105677580159785" lon="10.028065502182132"><ele>33.0</ele><time>2026-04-06T09:49:15.999Z</time></trkpt><trkpt lat="45.10560312712008" lon="10.028105065621611"><ele>33.0</ele><time>2026-04-06T09:49:16.999Z</time></trkpt><trkpt lat="45.105529944719386" lon="10.028148840177032"><ele>32.666666666666664</ele><time>2026-04-06T09:49:17.999Z</time></trkpt><trkpt lat="45.105454601781986" lon="10.028189677716043"><ele>32.333333333333336</ele><time>2026-04-06T09:49:18.999Z</time></trkpt><trkpt lat="45.10538204508644" lon="10.028231539797982"><ele>32.0</ele><time>2026-04-06T09:49:19.999Z</time></trkpt><trkpt lat="45.105309801574045" lon="10.028269880391383"><ele>31.666666666666668</ele><time>2026-04-06T09:49:20.999Z</time></trkpt><trkpt lat="45.10523487624568" lon="10.02830828100983"><ele>31.333333333333336</ele><time>2026-04-06T09:49:21.999Z</time></trkpt><trkpt lat="45.10516081844067" lon="10.028347647504756"><ele>31.0</ele><time>2026-04-06T09:49:22.999Z</time></trkpt><trkpt lat="45.10508837247956" lon="10.028388618180232"><ele>31.666666666666668</ele><time>2026-04-06T09:49:23.999Z</time></trkpt><trkpt lat="45.105016919958146" lon="10.028433723559326"><ele>32.333333333333336</ele><time>2026-04-06T09:49:24.999Z</time></trkpt><trkpt lat="45.10494469406252" lon="10.028481553983655"><ele>33.0</ele><time>2026-04-06T09:49:25.999Z</time></trkpt><trkpt lat="45.1048753108534" lon="10.028531630787647"><ele>33.666666666666664</ele><time>2026-04-06T09:49:26.999Z</time></trkpt><trkpt lat="45.104807188070595" lon="10.028590160520524"><ele>34.33333333333333</ele><time>2026-04-06T09:49:27.999Z</time></trkpt><trkpt lat="45.10473805914374" lon="10.028643797039829"><ele>35.0</ele><time>2026-04-06T09:49:28.999Z</time></trkpt><trkpt lat="45.10467280062613" lon="10.028701369578243"><ele>35.285714285714285</ele><time>2026-04-06T09:49:29.999Z</time></trkpt><trkpt lat="45.104606678144066" lon="10.02875683209932"><ele>35.57142857142857</ele><time>2026-04-06T09:49:30.999Z</time></trkpt><trkpt lat="45.104544462378016" lon="10.02881224416467"><ele>35.85714285714286</ele><time>2026-04-06T09:49:31.999Z</time></trkpt><trkpt lat="45.10448287158705" lon="10.028860902552447"><ele>36.14285714285714</ele><time>2026-04-06T09:49:32.999Z</time></trkpt><trkpt lat="45.104425513903344" lon="10.028916616948916"><ele>36.42857142857143</ele><time>2026-04-06T09:49:33.999Z</time></trkpt><trkpt lat="45.10437364513482" lon="10.028978651472842"><ele>36.714285714285715</ele><time>2026-04-06T09:49:34.999Z</time></trkpt><trkpt lat="45.104333861111904" lon="10.029055664458763"><ele>37.0</ele><time>2026-04-06T09:49:35.999Z</time></trkpt><trkpt lat="45.10430767458268" lon="10.02914352585177"><ele>37.16666666666667</ele><time>2026-04-06T09:49:36.999Z</time></trkpt><trkpt lat="45.10428854891151" lon="10.029238862656998"><ele>37.333333333333336</ele><time>2026-04-06T09:49:37.999Z</time></trkpt><trkpt lat="45.10427075628331" lon="10.029334784945597"><ele>37.5</ele><time>2026-04-06T09:49:38.999Z</time></trkpt><trkpt lat="45.104253179098365" lon="10.029437706187993"><ele>37.666666666666664</ele><time>2026-04-06T09:49:39.999Z</time></trkpt><trkpt lat="45.10424160944506" lon="10.02954612472264"><ele>37.83333333333333</ele><time>2026-04-06T09:49:40.999Z</time></trkpt><trkpt lat="45.104239771619426" lon="10.029660750762078"><ele>38.0</ele><time>2026-04-06T09:49:41.999Z</time></trkpt><trkpt lat="45.1042399280321" lon="10.02977488050337"><ele>38.0</ele><time>2026-04-06T09:49:42.998Z</time></trkpt><trkpt lat="45.10423881651347" lon="10.029893985534311"><ele>38.0</ele><time>2026-04-06T09:49:43.998Z</time></trkpt><trkpt lat="45.10423826246436" lon="10.03001295297548"><ele>38.0</ele><time>2026-04-06T09:49:44.998Z</time></trkpt><trkpt lat="45.10423050491513" lon="10.030132109279375"><ele>38.0</ele><time>2026-04-06T09:49:45.998Z</time></trkpt><trkpt lat="45.10418376895475" lon="10.030225152742856"><ele>38.0</ele><time>2026-04-06T09:49:46.998Z</time></trkpt><trkpt lat="45.104130364900996" lon="10.03029788717403"><ele>38.0</ele><time>2026-04-06T09:49:47.998Z</time></trkpt><trkpt lat="45.10406959642605" lon="10.030372816925368"><ele>38.4</ele><time>2026-04-06T09:49:48.998Z</time></trkpt><trkpt lat="45.10397549705533" lon="10.030457014495743"><ele>38.8</ele><time>2026-04-06T09:49:50.998Z</time></trkpt><trkpt lat="45.103911337193814" lon="10.030545305624388"><ele>39.2</ele><time>2026-04-06T09:49:51.998Z</time></trkpt><trkpt lat="45.10383775138451" lon="10.030589374381593"><ele>39.6</ele><time>2026-04-06T09:49:52.998Z</time></trkpt><trkpt lat="45.10376270154658" lon="10.030649464659374"><ele>40.0</ele><time>2026-04-06T09:49:53.998Z</time></trkpt><trkpt lat="45.10368137703625" lon="10.030713742464847"><ele>40.0</ele><time>2026-04-06T09:49:54.998Z</time></trkpt><trkpt lat="45.10360058528692" lon="10.030784364350373"><ele>40.0</ele><time>2026-04-06T09:49:55.998Z</time></trkpt><trkpt lat="45.103532646459364" lon="10.03087150596776"><ele>40.0</ele><time>2026-04-06T09:49:56.998Z</time></trkpt><trkpt lat="45.10347662607195" lon="10.030962119060822"><ele>40.0</ele><time>2026-04-06T09:49:57.998Z</time></trkpt><trkpt lat="45.103424991079024" lon="10.031050956742435"><ele>40.0</ele><time>2026-04-06T09:49:58.998Z</time></trkpt><trkpt lat="45.10337707296902" lon="10.0311358095297"><ele>40.0</ele><time>2026-04-06T09:50:00Z</time></trkpt><trkpt lat="45.10333285040657" lon="10.031214119359017"><ele>39.42857142857143</ele><time>2026-04-06T09:50:01Z</time></trkpt><trkpt lat="45.10328975738314" lon="10.03129042797687"><ele>38.85714285714286</ele><time>2026-04-06T09:50:02Z</time></trkpt><trkpt lat="45.10324741315382" lon="10.031363823552558"><ele>38.28571428571429</ele><time>2026-04-06T09:50:03Z</time></trkpt><trkpt lat="45.103203978389296" lon="10.031438206089144"><ele>37.714285714285715</ele><time>2026-04-06T09:50:04Z</time></trkpt><trkpt lat="45.103159605957146" lon="10.031512883177689"><ele>37.142857142857146</ele><time>2026-04-06T09:50:05Z</time></trkpt><trkpt lat="45.103116194851346" lon="10.031583826546939"><ele>36.57142857142858</ele><time>2026-04-06T09:50:06Z</time></trkpt><trkpt lat="45.103069745398244" lon="10.031656093808216"><ele>36.0</ele><time>2026-04-06T09:50:07Z</time></trkpt><trkpt lat="45.103026291189195" lon="10.031730921988673"><ele>35.666666666666664</ele><time>2026-04-06T09:50:08Z</time></trkpt><trkpt lat="45.102999522455136" lon="10.03181852122253"><ele>35.333333333333336</ele><time>2026-04-06T09:50:09Z</time></trkpt><trkpt lat="45.10296249721747" lon="10.031891573820877"><ele>35.0</ele><time>2026-04-06T09:50:10Z</time></trkpt><trkpt lat="45.10288339010236" lon="10.032038283463136"><ele>34.66666666666667</ele><time>2026-04-06T09:50:12Z</time></trkpt><trkpt lat="45.102840108680816" lon="10.032115095254117"><ele>34.333333333333336</ele><time>2026-04-06T09:50:13Z</time></trkpt><trkpt lat="45.10278277275235" lon="10.032171925345974"><ele>34.0</ele><time>2026-04-06T09:50:14Z</time></trkpt><trkpt lat="45.1027381649695" lon="10.03224232831068"><ele>33.99999999999999</ele><time>2026-04-06T09:50:15Z</time></trkpt><trkpt lat="45.10269322788482" lon="10.032313123599552"><ele>34.0</ele><time>2026-04-06T09:50:16Z</time></trkpt><trkpt lat="45.10264886523684" lon="10.032382921300504"><ele>34.0</ele><time>2026-04-06T09:50:17Z</time></trkpt><trkpt lat="45.10260127420622" lon="10.032457798378502"><ele>34.0</ele><time>2026-04-06T09:50:18Z</time></trkpt><trkpt lat="45.10255473231417" lon="10.032529949199155"><ele>34.0</ele><time>2026-04-06T09:50:19Z</time></trkpt><trkpt lat="45.10250826971279" lon="10.032602000322182"><ele>33.99999999999999</ele><time>2026-04-06T09:50:20Z</time></trkpt><trkpt lat="45.102460228234776" lon="10.032676529280211"><ele>34.0</ele><time>2026-04-06T09:50:21Z</time></trkpt><trkpt lat="45.102415429788046" lon="10.03274389951655"><ele>33.8</ele><time>2026-04-06T09:50:22Z</time></trkpt><trkpt lat="45.10236867556484" lon="10.032811714156992"><ele>33.599999999999994</ele><time>2026-04-06T09:50:23Z</time></trkpt><trkpt lat="45.10227231128961" lon="10.03293830605036"><ele>33.4</ele><time>2026-04-06T09:50:25Z</time></trkpt><trkpt lat="45.10218077484303" lon="10.03303864291099"><ele>33.199999999999996</ele><time>2026-04-06T09:50:27Z</time></trkpt><trkpt lat="45.10207272871108" lon="10.033126417903247"><ele>33.0</ele><time>2026-04-06T09:50:29Z</time></trkpt><trkpt lat="45.10201114879651" lon="10.033168041955134"><ele>33.0</ele><time>2026-04-06T09:50:30Z</time></trkpt><trkpt lat="45.101948543624545" lon="10.033207181003743"><ele>33.0</ele><time>2026-04-06T09:50:31Z</time></trkpt><trkpt lat="45.101883179930205" lon="10.033246604482423"><ele>33.0</ele><time>2026-04-06T09:50:32Z</time></trkpt><trkpt lat="45.10181827318609" lon="10.033285752344536"><ele>33.0</ele><time>2026-04-06T09:50:33Z</time></trkpt><trkpt lat="45.10175864248817" lon="10.033321718037548"><ele>33.0</ele><time>2026-04-06T09:50:34Z</time></trkpt><trkpt lat="45.1016975007711" lon="10.033358595117067"><ele>33.0</ele><time>2026-04-06T09:50:35Z</time></trkpt><trkpt lat="45.101639233712405" lon="10.033393738332599"><ele>33.0</ele><time>2026-04-06T09:50:36Z</time></trkpt><trkpt lat="45.10158028206402" lon="10.033429294470029"><ele>33.0</ele><time>2026-04-06T09:50:37Z</time></trkpt><trkpt lat="45.101521063945405" lon="10.033464942352385"><ele>33.0</ele><time>2026-04-06T09:50:38Z</time></trkpt><trkpt lat="45.101457161382214" lon="10.033503357499471"><ele>33.0</ele><time>2026-04-06T09:50:39Z</time></trkpt><trkpt lat="45.10139236865849" lon="10.03354244195348"><ele>33.0</ele><time>2026-04-06T09:50:40Z</time></trkpt><trkpt lat="45.10132832630408" lon="10.033582146413808"><ele>33.0</ele><time>2026-04-06T09:50:41Z</time></trkpt><trkpt lat="45.10126411990588" lon="10.033621952614695"><ele>33.0</ele><time>2026-04-06T09:50:42Z</time></trkpt><trkpt lat="45.10119706898131" lon="10.033663522354656"><ele>33.0</ele><time>2026-04-06T09:50:43Z</time></trkpt><trkpt lat="45.10112769910534" lon="10.033706529786741"><ele>33.0</ele><time>2026-04-06T09:50:44Z</time></trkpt><trkpt lat="45.1010571635639" lon="10.033750259934507"><ele>33.0</ele><time>2026-04-06T09:50:45Z</time></trkpt><trkpt lat="45.100989799990664" lon="10.033791730806357"><ele>33.0</ele><time>2026-04-06T09:50:46Z</time></trkpt><trkpt lat="45.10092332995921" lon="10.033832499590714"><ele>33.0</ele><time>2026-04-06T09:50:47Z</time></trkpt><trkpt lat="45.10085771380481" lon="10.033872932318213"><ele>33.0</ele><time>2026-04-06T09:50:48Z</time></trkpt><trkpt lat="45.100790511103206" lon="10.033915032507982"><ele>33.0</ele><time>2026-04-06T09:50:49Z</time></trkpt><trkpt lat="45.10072455240932" lon="10.033956353267959"><ele>33.0</ele><time>2026-04-06T09:50:49.999Z</time></trkpt><trkpt lat="45.10065548194993" lon="10.033999623375413"><ele>33.0</ele><time>2026-04-06T09:50:50.999Z</time></trkpt><trkpt lat="45.10058790117686" lon="10.03404196044669"><ele>33.0</ele><time>2026-04-06T09:50:51.999Z</time></trkpt><trkpt lat="45.10051261884912" lon="10.034089122139697"><ele>33.0</ele><time>2026-04-06T09:50:52.999Z</time></trkpt><trkpt lat="45.10045100711439" lon="10.034127719751181"><ele>33.0</ele><time>2026-04-06T09:50:53.999Z</time></trkpt><trkpt lat="45.1003834347352" lon="10.034170051463756"><ele>33.0</ele><time>2026-04-06T09:50:54.999Z</time></trkpt><trkpt lat="45.10031620537398" lon="10.034212168279511"><ele>33.0</ele><time>2026-04-06T09:50:55.999Z</time></trkpt><trkpt lat="45.10024781551464" lon="10.034255171600327"><ele>33.0</ele><time>2026-04-06T09:50:56.999Z</time></trkpt><trkpt lat="45.10017957588577" lon="10.034299047869348"><ele>33.166666666666664</ele><time>2026-04-06T09:50:57.999Z</time></trkpt><trkpt lat="45.10011684452281" lon="10.034362773113598"><ele>33.333333333333336</ele><time>2026-04-06T09:50:58.999Z</time></trkpt><trkpt lat="45.10004812059017" lon="10.034406013709095"><ele>33.5</ele><time>2026-04-06T09:50:59.999Z</time></trkpt><trkpt lat="45.09998042909902" lon="10.03445017129841"><ele>33.66666666666667</ele><time>2026-04-06T09:51:00.999Z</time></trkpt><trkpt lat="45.099911198747066" lon="10.03449182661581"><ele>33.833333333333336</ele><time>2026-04-06T09:51:01.999Z</time></trkpt><trkpt lat="45.09984060035058" lon="10.034532303928959"><ele>34.0</ele><time>2026-04-06T09:51:02.999Z</time></trkpt><trkpt lat="45.09976968636532" lon="10.034572016021219"><ele>33.5</ele><time>2026-04-06T09:51:03.999Z</time></trkpt><trkpt lat="45.09969262155218" lon="10.034569420584107"><ele>33.0</ele><time>2026-04-06T09:51:04.999Z</time></trkpt><trkpt lat="45.099617248337154" lon="10.034583320134047"><ele>32.5</ele><time>2026-04-06T09:51:05.999Z</time></trkpt><trkpt lat="45.0995414194723" lon="10.034591117345878"><ele>32.0</ele><time>2026-04-06T09:51:06.999Z</time></trkpt><trkpt lat="45.099462893067454" lon="10.034600888977218"><ele>31.500000000000004</ele><time>2026-04-06T09:51:07.999Z</time></trkpt><trkpt lat="45.09938446476293" lon="10.034610648400953"><ele>31.0</ele><time>2026-04-06T09:51:08.999Z</time></trkpt><trkpt lat="45.09930793755421" lon="10.03462017124527"><ele>31.000000000000004</ele><time>2026-04-06T09:51:09.999Z</time></trkpt><trkpt lat="45.099230185896594" lon="10.03463074221441"><ele>31.0</ele><time>2026-04-06T09:51:10.999Z</time></trkpt><trkpt lat="45.09915383064092" lon="10.034642116982399"><ele>31.0</ele><time>2026-04-06T09:51:11.999Z</time></trkpt><trkpt lat="45.09907671211383" lon="10.034653950499356"><ele>31.0</ele><time>2026-04-06T09:51:12.999Z</time></trkpt><trkpt lat="45.099002310545735" lon="10.0346676711706"><ele>31.000000000000004</ele><time>2026-04-06T09:51:13.999Z</time></trkpt><trkpt lat="45.098925586067644" lon="10.034681820212725"><ele>31.0</ele><time>2026-04-06T09:51:14.999Z</time></trkpt><trkpt lat="45.09885110897272" lon="10.034695554874899"><ele>31.333333333333336</ele><time>2026-04-06T09:51:15.999Z</time></trkpt><trkpt lat="45.09876552062269" lon="10.034711338555349"><ele>31.666666666666668</ele><time>2026-04-06T09:51:16.999Z</time></trkpt><trkpt lat="45.09869664523056" lon="10.034724040120697"><ele>32.0</ele><time>2026-04-06T09:51:17.999Z</time></trkpt><trkpt lat="45.09862177549877" lon="10.034737847158988"><ele>32.333333333333336</ele><time>2026-04-06T09:51:18.999Z</time></trkpt><trkpt lat="45.09854701996936" lon="10.034743623414151"><ele>32.666666666666664</ele><time>2026-04-06T09:51:19.999Z</time></trkpt><trkpt lat="45.09848024372502" lon="10.034722038957785"><ele>33.0</ele><time>2026-04-06T09:51:20.999Z</time></trkpt><trkpt lat="45.0983989445801" lon="10.034798085487713"><ele>33.0</ele><time>2026-04-06T09:51:21.999Z</time></trkpt><trkpt lat="45.09832427458346" lon="10.034782871758768"><ele>33.0</ele><time>2026-04-06T09:51:22.999Z</time></trkpt><trkpt lat="45.09824999094693" lon="10.034782707881263"><ele>33.0</ele><time>2026-04-06T09:51:23.999Z</time></trkpt><trkpt lat="45.09817566851994" lon="10.034783886577856"><ele>33.0</ele><time>2026-04-06T09:51:24.999Z</time></trkpt><trkpt lat="45.09810309203881" lon="10.034787096344685"><ele>33.0</ele><time>2026-04-06T09:51:25.999Z</time></trkpt><trkpt lat="45.098029116436805" lon="10.03479152264699"><ele>33.0</ele><time>2026-04-06T09:51:26.999Z</time></trkpt><trkpt lat="45.097952485345026" lon="10.034797359837944"><ele>33.0</ele><time>2026-04-06T09:51:27.999Z</time></trkpt><trkpt lat="45.097878983578845" lon="10.034808667813252"><ele>33.42857142857143</ele><time>2026-04-06T09:51:28.999Z</time></trkpt><trkpt lat="45.09780664182831" lon="10.034824787208104"><ele>33.85714285714286</ele><time>2026-04-06T09:51:29.999Z</time></trkpt><trkpt lat="45.0977341494879" lon="10.034841214520089"><ele>34.28571428571429</ele><time>2026-04-06T09:51:30.999Z</time></trkpt><trkpt lat="45.097663329338864" lon="10.034856760556773"><ele>34.714285714285715</ele><time>2026-04-06T09:51:31.999Z</time></trkpt><trkpt lat="45.09759173802944" lon="10.034869933281687"><ele>35.142857142857146</ele><time>2026-04-06T09:51:32.999Z</time></trkpt><trkpt lat="45.09752068489172" lon="10.034882496066121"><ele>35.57142857142858</ele><time>2026-04-06T09:51:33.999Z</time></trkpt><trkpt lat="45.097451206299596" lon="10.034894780455854"><ele>36.0</ele><time>2026-04-06T09:51:34.999Z</time></trkpt><trkpt lat="45.09738629558931" lon="10.034905585030513"><ele>36.0</ele><time>2026-04-06T09:51:35.999Z</time></trkpt><trkpt lat="45.09732275342747" lon="10.034939654402812"><ele>36.0</ele><time>2026-04-06T09:51:36.999Z</time></trkpt><trkpt lat="45.097197777285984" lon="10.034936674014906"><ele>36.0</ele><time>2026-04-06T09:51:38.999Z</time></trkpt><trkpt lat="45.09709034829934" lon="10.0349593679047"><ele>36.0</ele><time>2026-04-06T09:51:40.999Z</time></trkpt><trkpt lat="45.0970267989588" lon="10.03501895390763"><ele>36.0</ele><time>2026-04-06T09:51:43.999Z</time></trkpt><trkpt lat="45.097020845551384" lon="10.035125641017967"><ele>35.833333333333336</ele><time>2026-04-06T09:51:47.998Z</time></trkpt><trkpt lat="45.09703411933347" lon="10.03521965694001"><ele>35.666666666666664</ele><time>2026-04-06T09:51:49.998Z</time></trkpt><trkpt lat="45.097075035701096" lon="10.035312538711604"><ele>35.5</ele><time>2026-04-06T09:51:51.998Z</time></trkpt><trkpt lat="45.09711899021117" lon="10.03542348942153"><ele>35.33333333333333</ele><time>2026-04-06T09:51:53.998Z</time></trkpt><trkpt lat="45.09717251725725" lon="10.03553607556788"><ele>35.166666666666664</ele><time>2026-04-06T09:51:55.998Z</time></trkpt><trkpt lat="45.09722914906138" lon="10.035662620512657"><ele>35.0</ele><time>2026-04-06T09:51:57.998Z</time></trkpt><trkpt lat="45.097305691626644" lon="10.035790776556787"><ele>35.166666666666664</ele><time>2026-04-06T09:51:59.998Z</time></trkpt><trkpt lat="45.097351233076715" lon="10.035854446303993"><ele>35.33333333333333</ele><time>2026-04-06T09:52:00.998Z</time></trkpt><trkpt lat="45.097395140166846" lon="10.035920461020199"><ele>35.5</ele><time>2026-04-06T09:52:01.998Z</time></trkpt><trkpt lat="45.09744045492445" lon="10.03598444318171"><ele>35.666666666666664</ele><time>2026-04-06T09:52:02.998Z</time></trkpt><trkpt lat="45.09748758878139" lon="10.036051386092483"><ele>35.833333333333336</ele><time>2026-04-06T09:52:03.998Z</time></trkpt><trkpt lat="45.0975772937703" lon="10.036173013717749"><ele>36.0</ele><time>2026-04-06T09:52:06Z</time></trkpt><trkpt lat="45.09766861054801" lon="10.03630387613358"><ele>36.142857142857146</ele><time>2026-04-06T09:52:08Z</time></trkpt><trkpt lat="45.09771985213258" lon="10.03637155632075"><ele>36.285714285714285</ele><time>2026-04-06T09:52:09Z</time></trkpt><trkpt lat="45.097771097309966" lon="10.036433152838553"><ele>36.42857142857143</ele><time>2026-04-06T09:52:10Z</time></trkpt><trkpt lat="45.09782929058325" lon="10.036488844949103"><ele>36.57142857142857</ele><time>2026-04-06T09:52:11Z</time></trkpt><trkpt lat="45.09789363827489" lon="10.036535237715563"><ele>36.714285714285715</ele><time>2026-04-06T09:52:12Z</time></trkpt><trkpt lat="45.097962049486426" lon="10.03656789094096"><ele>36.85714285714286</ele><time>2026-04-06T09:52:13Z</time></trkpt><trkpt lat="45.09803082048299" lon="10.036602921986427"><ele>37.0</ele><time>2026-04-06T09:52:14Z</time></trkpt><trkpt lat="45.09809829459683" lon="10.036644604664318"><ele>37.0</ele><time>2026-04-06T09:52:15Z</time></trkpt><trkpt lat="45.098167610371384" lon="10.036682413101486"><ele>37.0</ele><time>2026-04-06T09:52:16Z</time></trkpt><trkpt lat="45.09823647597966" lon="10.036730318062322"><ele>37.0</ele><time>2026-04-06T09:52:17Z</time></trkpt><trkpt lat="45.09830107286018" lon="10.036786622375999"><ele>37.0</ele><time>2026-04-06T09:52:18Z</time></trkpt><trkpt lat="45.09836399062288" lon="10.036846494572428"><ele>37.0</ele><time>2026-04-06T09:52:19Z</time></trkpt><trkpt lat="45.098426599934214" lon="10.036911757143905"><ele>37.0</ele><time>2026-04-06T09:52:20Z</time></trkpt><trkpt lat="45.098486734312914" lon="10.036982525714835"><ele>36.5</ele><time>2026-04-06T09:52:21Z</time></trkpt><trkpt lat="45.09854280064004" lon="10.037054605014022"><ele>36.0</ele><time>2026-04-06T09:52:22Z</time></trkpt><trkpt lat="45.098602269280896" lon="10.037126800216043"><ele>35.5</ele><time>2026-04-06T09:52:23Z</time></trkpt><trkpt lat="45.09865960785411" lon="10.037197284684785"><ele>35.0</ele><time>2026-04-06T09:52:24Z</time></trkpt><trkpt lat="45.09871725718882" lon="10.037267655188849"><ele>34.5</ele><time>2026-04-06T09:52:25Z</time></trkpt><trkpt lat="45.09877265421541" lon="10.037332516382317"><ele>34.0</ele><time>2026-04-06T09:52:26Z</time></trkpt><trkpt lat="45.09883209442928" lon="10.037395833326402"><ele>34.0</ele><time>2026-04-06T09:52:27Z</time></trkpt><trkpt lat="45.09888926732828" lon="10.037465921119487"><ele>34.0</ele><time>2026-04-06T09:52:28Z</time></trkpt><trkpt lat="45.09894639972551" lon="10.037536312009694"><ele>34.0</ele><time>2026-04-06T09:52:29Z</time></trkpt><trkpt lat="45.09900431628189" lon="10.037600618176457"><ele>34.0</ele><time>2026-04-06T09:52:30Z</time></trkpt><trkpt lat="45.09906268149627" lon="10.037671774260886"><ele>34.0</ele><time>2026-04-06T09:52:31Z</time></trkpt><trkpt lat="45.09912183414079" lon="10.037737204139278"><ele>34.0</ele><time>2026-04-06T09:52:32Z</time></trkpt><trkpt lat="45.09918494064095" lon="10.037804111134172"><ele>34.285714285714285</ele><time>2026-04-06T09:52:33Z</time></trkpt><trkpt lat="45.09924438747114" lon="10.03786395089723"><ele>34.57142857142857</ele><time>2026-04-06T09:52:34Z</time></trkpt><trkpt lat="45.09930287955007" lon="10.037919595094685"><ele>34.85714285714286</ele><time>2026-04-06T09:52:35Z</time></trkpt><trkpt lat="45.099370463098154" lon="10.037972906273913"><ele>35.14285714285714</ele><time>2026-04-06T09:52:36Z</time></trkpt><trkpt lat="45.09943707479335" lon="10.038027473493578"><ele>35.42857142857143</ele><time>2026-04-06T09:52:37Z</time></trkpt><trkpt lat="45.099500970458266" lon="10.038081912131833"><ele>35.714285714285715</ele><time>2026-04-06T09:52:38Z</time></trkpt><trkpt lat="45.09956643589846" lon="10.038136832643687"><ele>36.0</ele><time>2026-04-06T09:52:39Z</time></trkpt><trkpt lat="45.099631643042265" lon="10.038187803014244"><ele>36.0</ele><time>2026-04-06T09:52:40Z</time></trkpt><trkpt lat="45.099696218184924" lon="10.038242510112624"><ele>36.0</ele><time>2026-04-06T09:52:41Z</time></trkpt><trkpt lat="45.09975745532335" lon="10.038303201014756"><ele>36.0</ele><time>2026-04-06T09:52:42Z</time></trkpt><trkpt lat="45.09981977175177" lon="10.038360143109966"><ele>36.0</ele><time>2026-04-06T09:52:43Z</time></trkpt><trkpt lat="45.09988529670364" lon="10.038415438330526"><ele>36.0</ele><time>2026-04-06T09:52:44Z</time></trkpt><trkpt lat="45.09994857720371" lon="10.038470765625128"><ele>36.0</ele><time>2026-04-06T09:52:45Z</time></trkpt><trkpt lat="45.10001410327791" lon="10.0385261359526"><ele>36.28571428571429</ele><time>2026-04-06T09:52:46Z</time></trkpt><trkpt lat="45.10007945667335" lon="10.0385771297728"><ele>36.57142857142857</ele><time>2026-04-06T09:52:47Z</time></trkpt><trkpt lat="45.10014269959354" lon="10.038632027923516"><ele>36.85714285714286</ele><time>2026-04-06T09:52:48Z</time></trkpt><trkpt lat="45.10020417441778" lon="10.038681057010951"><ele>37.142857142857146</ele><time>2026-04-06T09:52:49Z</time></trkpt><trkpt lat="45.10026465746861" lon="10.038729743170569"><ele>37.42857142857143</ele><time>2026-04-06T09:52:50Z</time></trkpt><trkpt lat="45.10032753862139" lon="10.03877108792202"><ele>37.714285714285715</ele><time>2026-04-06T09:52:50.999Z</time></trkpt><trkpt lat="45.10039495080219" lon="10.038816451635638"><ele>38.0</ele><time>2026-04-06T09:52:51.999Z</time></trkpt><trkpt lat="45.1004651909456" lon="10.038864972995839"><ele>38.0</ele><time>2026-04-06T09:52:52.999Z</time></trkpt><trkpt lat="45.100536971983054" lon="10.038909164086885"><ele>38.0</ele><time>2026-04-06T09:52:53.999Z</time></trkpt><trkpt lat="45.10060688974936" lon="10.038951152640475"><ele>38.0</ele><time>2026-04-06T09:52:54.999Z</time></trkpt><trkpt lat="45.10067477937286" lon="10.03899401862938"><ele>38.0</ele><time>2026-04-06T09:52:55.999Z</time></trkpt><trkpt lat="45.10074448138132" lon="10.039037271366245"><ele>38.0</ele><time>2026-04-06T09:52:56.999Z</time></trkpt><trkpt lat="45.1008151367216" lon="10.039079772479242"><ele>38.0</ele><time>2026-04-06T09:52:57.999Z</time></trkpt><trkpt lat="45.10088633817384" lon="10.039119732687553"><ele>37.857142857142854</ele><time>2026-04-06T09:52:58.999Z</time></trkpt><trkpt lat="45.1009542877553" lon="10.039162164867703"><ele>37.714285714285715</ele><time>2026-04-06T09:52:59.999Z</time></trkpt><trkpt lat="45.101021605290185" lon="10.039205488467678"><ele>37.57142857142857</ele><time>2026-04-06T09:53:00.999Z</time></trkpt><trkpt lat="45.101089112198096" lon="10.03924462495425"><ele>37.42857142857143</ele><time>2026-04-06T09:53:01.999Z</time></trkpt><trkpt lat="45.10115748785464" lon="10.039287895895443"><ele>37.285714285714285</ele><time>2026-04-06T09:53:02.999Z</time></trkpt><trkpt lat="45.101227805636746" lon="10.03933042596159"><ele>37.142857142857146</ele><time>2026-04-06T09:53:03.999Z</time></trkpt><trkpt lat="45.101297651232926" lon="10.039373572773204"><ele>37.0</ele><time>2026-04-06T09:53:04.999Z</time></trkpt><trkpt lat="45.101367646594824" lon="10.039416124909593"><ele>37.0</ele><time>2026-04-06T09:53:05.999Z</time></trkpt><trkpt lat="45.10143780884547" lon="10.039460740481495"><ele>37.0</ele><time>2026-04-06T09:53:06.999Z</time></trkpt><trkpt lat="45.101510339902845" lon="10.039504559578988"><ele>37.0</ele><time>2026-04-06T09:53:07.999Z</time></trkpt><trkpt lat="45.101579031189814" lon="10.039546976369039"><ele>37.0</ele><time>2026-04-06T09:53:08.999Z</time></trkpt><trkpt lat="45.101648952233504" lon="10.039587077670244"><ele>37.0</ele><time>2026-04-06T09:53:09.999Z</time></trkpt><trkpt lat="45.101718590766524" lon="10.039631203983879"><ele>37.0</ele><time>2026-04-06T09:53:10.999Z</time></trkpt><trkpt lat="45.10178848523788" lon="10.03967457840446"><ele>36.833333333333336</ele><time>2026-04-06T09:53:11.999Z</time></trkpt><trkpt lat="45.10185727378054" lon="10.03971757450665"><ele>36.66666666666667</ele><time>2026-04-06T09:53:12.999Z</time></trkpt><trkpt lat="45.101926176821806" lon="10.039762328145157"><ele>36.5</ele><time>2026-04-06T09:53:13.999Z</time></trkpt><trkpt lat="45.10199622818615" lon="10.039802482679224"><ele>36.333333333333336</ele><time>2026-04-06T09:53:14.999Z</time></trkpt><trkpt lat="45.10206729311448" lon="10.039846083129834"><ele>36.166666666666664</ele><time>2026-04-06T09:53:15.999Z</time></trkpt><trkpt lat="45.10213764203023" lon="10.039883784324767"><ele>36.0</ele><time>2026-04-06T09:53:16.999Z</time></trkpt><trkpt lat="45.1022108683297" lon="10.03992170324477"><ele>36.00000000000001</ele><time>2026-04-06T09:53:17.999Z</time></trkpt><trkpt lat="45.1022807095309" lon="10.03995363921681"><ele>36.0</ele><time>2026-04-06T09:53:18.999Z</time></trkpt><trkpt lat="45.1023477509646" lon="10.039982659700858"><ele>36.0</ele><time>2026-04-06T09:53:19.999Z</time></trkpt><trkpt lat="45.10241339163487" lon="10.040010107777967"><ele>36.0</ele><time>2026-04-06T09:53:20.999Z</time></trkpt><trkpt lat="45.10247713896276" lon="10.040040601967641"><ele>36.0</ele><time>2026-04-06T09:53:21.999Z</time></trkpt><trkpt lat="45.10253903389806" lon="10.040067141804489"><ele>36.00000000000001</ele><time>2026-04-06T09:53:22.999Z</time></trkpt><trkpt lat="45.102600698068585" lon="10.040091939889432"><ele>36.0</ele><time>2026-04-06T09:53:23.999Z</time></trkpt><trkpt lat="45.10266313846694" lon="10.040117625852595"><ele>35.85714285714286</ele><time>2026-04-06T09:53:24.999Z</time></trkpt><trkpt lat="45.102726643420546" lon="10.04014523936756"><ele>35.714285714285715</ele><time>2026-04-06T09:53:25.999Z</time></trkpt><trkpt lat="45.102789933317084" lon="10.040169635389384"><ele>35.57142857142857</ele><time>2026-04-06T09:53:26.999Z</time></trkpt><trkpt lat="45.102852689122905" lon="10.04019645724604"><ele>35.42857142857143</ele><time>2026-04-06T09:53:27.999Z</time></trkpt><trkpt lat="45.10291446733944" lon="10.040225179869044"><ele>35.285714285714285</ele><time>2026-04-06T09:53:28.999Z</time></trkpt><trkpt lat="45.10297518321489" lon="10.040253811065176"><ele>35.142857142857146</ele><time>2026-04-06T09:53:29.999Z</time></trkpt><trkpt lat="45.1030919703373" lon="10.040300880060999"><ele>35.0</ele><time>2026-04-06T09:53:31.999Z</time></trkpt><trkpt lat="45.10320804817874" lon="10.040348942800351"><ele>35.285714285714285</ele><time>2026-04-06T09:53:33.999Z</time></trkpt><trkpt lat="45.10326891501272" lon="10.040374895313974"><ele>35.57142857142857</ele><time>2026-04-06T09:53:34.999Z</time></trkpt><trkpt lat="45.103332886478654" lon="10.040403779603917"><ele>35.85714285714286</ele><time>2026-04-06T09:53:35.999Z</time></trkpt><trkpt lat="45.10339701391976" lon="10.040429807677716"><ele>36.14285714285714</ele><time>2026-04-06T09:53:36.999Z</time></trkpt><trkpt lat="45.10346270702531" lon="10.040448485844625"><ele>36.42857142857143</ele><time>2026-04-06T09:53:37.999Z</time></trkpt><trkpt lat="45.103530442691195" lon="10.040466938730653"><ele>36.714285714285715</ele><time>2026-04-06T09:53:38.999Z</time></trkpt><trkpt lat="45.10360017558641" lon="10.040489902268071"><ele>37.0</ele><time>2026-04-06T09:53:39.999Z</time></trkpt><trkpt lat="45.10366698392206" lon="10.040511826164293"><ele>37.0</ele><time>2026-04-06T09:53:40.999Z</time></trkpt><trkpt lat="45.10374127085382" lon="10.040527350572376"><ele>37.0</ele><time>2026-04-06T09:53:41.999Z</time></trkpt><trkpt lat="45.103810337018615" lon="10.040545871094645"><ele>37.0</ele><time>2026-04-06T09:53:42.999Z</time></trkpt><trkpt lat="45.103883402181694" lon="10.04056585595306"><ele>37.0</ele><time>2026-04-06T09:53:43.999Z</time></trkpt><trkpt lat="45.10395315671367" lon="10.040589976326336"><ele>37.0</ele><time>2026-04-06T09:53:44.999Z</time></trkpt><trkpt lat="45.10402400517852" lon="10.040611566503463"><ele>37.0</ele><time>2026-04-06T09:53:45.998Z</time></trkpt><trkpt lat="45.10409281692814" lon="10.040631947427395"><ele>37.0</ele><time>2026-04-06T09:53:46.998Z</time></trkpt><trkpt lat="45.10416168882152" lon="10.040652324666018"><ele>37.285714285714285</ele><time>2026-04-06T09:53:47.998Z</time></trkpt><trkpt lat="45.104229895922" lon="10.04067571688863"><ele>37.57142857142857</ele><time>2026-04-06T09:53:48.998Z</time></trkpt><trkpt lat="45.104299715936804" lon="10.040696582519649"><ele>37.85714285714286</ele><time>2026-04-06T09:53:49.998Z</time></trkpt><trkpt lat="45.10436984789573" lon="10.040717210912584"><ele>38.14285714285714</ele><time>2026-04-06T09:53:50.998Z</time></trkpt><trkpt lat="45.10443830625522" lon="10.040739158878692"><ele>38.42857142857142</ele><time>2026-04-06T09:53:51.998Z</time></trkpt><trkpt lat="45.104507142712954" lon="10.040769398388726"><ele>38.714285714285715</ele><time>2026-04-06T09:53:52.998Z</time></trkpt><trkpt lat="45.10457549045001" lon="10.040800444963404"><ele>39.0</ele><time>2026-04-06T09:53:53.998Z</time></trkpt><trkpt lat="45.10464014454901" lon="10.040825544952074"><ele>39.0</ele><time>2026-04-06T09:53:54.998Z</time></trkpt><trkpt lat="45.10470501768543" lon="10.04084478518841"><ele>39.0</ele><time>2026-04-06T09:53:55.998Z</time></trkpt><trkpt lat="45.10477081205815" lon="10.040853296700528"><ele>39.0</ele><time>2026-04-06T09:53:56.998Z</time></trkpt><trkpt lat="45.10483466789505" lon="10.04088087833686"><ele>39.0</ele><time>2026-04-06T09:53:57.998Z</time></trkpt><trkpt lat="45.104895793834416" lon="10.040910384138646"><ele>39.0</ele><time>2026-04-06T09:53:58.998Z</time></trkpt><trkpt lat="45.10501150062948" lon="10.040950876321935"><ele>39.0</ele><time>2026-04-06T09:54:00.998Z</time></trkpt><trkpt lat="45.10510561534883" lon="10.041008022102561"><ele>38.8</ele><time>2026-04-06T09:54:02.998Z</time></trkpt><trkpt lat="45.105177406764994" lon="10.0410387687986"><ele>38.599999999999994</ele><time>2026-04-06T09:54:04.998Z</time></trkpt><trkpt lat="45.105137334850596" lon="10.041194868190793"><ele>38.4</ele><time>2026-04-06T09:54:05.998Z</time></trkpt><trkpt lat="45.10506118562466" lon="10.04129479208895"><ele>38.199999999999996</ele><time>2026-04-06T09:54:07.998Z</time></trkpt><trkpt lat="45.10499396110282" lon="10.041413201158312"><ele>38.0</ele><time>2026-04-06T09:54:10Z</time></trkpt><trkpt lat="45.10492580229227" lon="10.041532639772967"><ele>38.14285714285714</ele><time>2026-04-06T09:54:12Z</time></trkpt><trkpt lat="45.10488446395349" lon="10.041603992900345"><ele>38.28571428571429</ele><time>2026-04-06T09:54:13Z</time></trkpt><trkpt lat="45.104840932930685" lon="10.041678393926478"><ele>38.42857142857143</ele><time>2026-04-06T09:54:14Z</time></trkpt><trkpt lat="45.10479248412652" lon="10.041761196025552"><ele>38.57142857142857</ele><time>2026-04-06T09:54:15Z</time></trkpt><trkpt lat="45.104746233321215" lon="10.041840233688653"><ele>38.71428571428571</ele><time>2026-04-06T09:54:16Z</time></trkpt><trkpt lat="45.104699548402195" lon="10.04192001320525"><ele>38.85714285714286</ele><time>2026-04-06T09:54:17Z</time></trkpt><trkpt lat="45.104662035390405" lon="10.04202092411758"><ele>39.0</ele><time>2026-04-06T09:54:18Z</time></trkpt><trkpt lat="45.10461358959763" lon="10.042101550948708"><ele>38.714285714285715</ele><time>2026-04-06T09:54:19Z</time></trkpt><trkpt lat="45.104561808861654" lon="10.04218421727818"><ele>38.42857142857142</ele><time>2026-04-06T09:54:20Z</time></trkpt><trkpt lat="45.1045138008028" lon="10.04226237868343"><ele>38.14285714285714</ele><time>2026-04-06T09:54:21Z</time></trkpt><trkpt lat="45.10446811471512" lon="10.042334458407895"><ele>37.85714285714286</ele><time>2026-04-06T09:54:22Z</time></trkpt><trkpt lat="45.10442429670617" lon="10.04241105357531"><ele>37.57142857142857</ele><time>2026-04-06T09:54:23Z</time></trkpt><trkpt lat="45.10438112181077" lon="10.042484156665466"><ele>37.285714285714285</ele><time>2026-04-06T09:54:24Z</time></trkpt><trkpt lat="45.10433741700195" lon="10.042553662051018"><ele>37.0</ele><time>2026-04-06T09:54:25Z</time></trkpt><trkpt lat="45.10429227844586" lon="10.04262246148161"><ele>37.0</ele><time>2026-04-06T09:54:26Z</time></trkpt><trkpt lat="45.104253356896955" lon="10.04269293974979"><ele>37.0</ele><time>2026-04-06T09:54:27Z</time></trkpt><trkpt lat="45.10421315728846" lon="10.04276481695649"><ele>37.0</ele><time>2026-04-06T09:54:28Z</time></trkpt><trkpt lat="45.10417025777859" lon="10.042838968887123"><ele>37.0</ele><time>2026-04-06T09:54:29Z</time></trkpt><trkpt lat="45.104124955064506" lon="10.042910989752672"><ele>37.0</ele><time>2026-04-06T09:54:30Z</time></trkpt><trkpt lat="45.104081562920214" lon="10.042979970450281"><ele>37.0</ele><time>2026-04-06T09:54:31Z</time></trkpt><trkpt lat="45.104040236741014" lon="10.043048431185786"><ele>37.0</ele><time>2026-04-06T09:54:32Z</time></trkpt><trkpt lat="45.10395590270477" lon="10.043176978333676"><ele>36.4</ele><time>2026-04-06T09:54:34Z</time></trkpt><trkpt lat="45.10388065728661" lon="10.043303776476257"><ele>35.800000000000004</ele><time>2026-04-06T09:54:36Z</time></trkpt><trkpt lat="45.10391180012174" lon="10.043491669410068"><ele>35.2</ele><time>2026-04-06T09:54:38Z</time></trkpt><trkpt lat="45.10394618044153" lon="10.043575221880886"><ele>34.6</ele><time>2026-04-06T09:54:39Z</time></trkpt><trkpt lat="45.103981757537476" lon="10.043655039787975"><ele>34.0</ele><time>2026-04-06T09:54:40Z</time></trkpt><trkpt lat="45.10401176738687" lon="10.043743483507434"><ele>33.99999999999999</ele><time>2026-04-06T09:54:41Z</time></trkpt><trkpt lat="45.10404246838598" lon="10.043831676860501"><ele>34.0</ele><time>2026-04-06T09:54:42Z</time></trkpt><trkpt lat="45.10407453625945" lon="10.043924723300263"><ele>34.0</ele><time>2026-04-06T09:54:43Z</time></trkpt><trkpt lat="45.1041064953773" lon="10.044017499763081"><ele>34.0</ele><time>2026-04-06T09:54:44Z</time></trkpt><trkpt lat="45.10413433501548" lon="10.044114005496608"><ele>34.0</ele><time>2026-04-06T09:54:45Z</time></trkpt><trkpt lat="45.10416626722246" lon="10.0442021624614"><ele>33.99999999999999</ele><time>2026-04-06T09:54:46Z</time></trkpt><trkpt lat="45.10419711321045" lon="10.044303415870495"><ele>34.0</ele><time>2026-04-06T09:54:47Z</time></trkpt><trkpt lat="45.1042212031566" lon="10.044389815420518"><ele>34.14285714285714</ele><time>2026-04-06T09:54:48Z</time></trkpt><trkpt lat="45.10424466402614" lon="10.044478952483624"><ele>34.285714285714285</ele><time>2026-04-06T09:54:49Z</time></trkpt><trkpt lat="45.10426792814792" lon="10.044567287304819"><ele>34.42857142857143</ele><time>2026-04-06T09:54:50Z</time></trkpt><trkpt lat="45.10429125872814" lon="10.044655680214372"><ele>34.57142857142857</ele><time>2026-04-06T09:54:51Z</time></trkpt><trkpt lat="45.1043060324003" lon="10.044746517514591"><ele>34.714285714285715</ele><time>2026-04-06T09:54:52Z</time></trkpt><trkpt lat="45.10432252627749" lon="10.044841677355352"><ele>34.857142857142854</ele><time>2026-04-06T09:54:53Z</time></trkpt><trkpt lat="45.10434258671394" lon="10.044937588676149"><ele>35.0</ele><time>2026-04-06T09:54:53.999Z</time></trkpt><trkpt lat="45.10436600720031" lon="10.04503304156124"><ele>35.0</ele><time>2026-04-06T09:54:54.999Z</time></trkpt><trkpt lat="45.10438916882592" lon="10.045129718645688"><ele>35.0</ele><time>2026-04-06T09:54:55.999Z</time></trkpt><trkpt lat="45.104410669992156" lon="10.04522651882341"><ele>35.0</ele><time>2026-04-06T09:54:56.999Z</time></trkpt><trkpt lat="45.10443379214012" lon="10.045323661506433"><ele>35.0</ele><time>2026-04-06T09:54:57.999Z</time></trkpt><trkpt lat="45.10445910537867" lon="10.045421253801067"><ele>35.0</ele><time>2026-04-06T09:54:58.999Z</time></trkpt><trkpt lat="45.10448331668049" lon="10.045515147657117"><ele>35.0</ele><time>2026-04-06T09:54:59.999Z</time></trkpt><trkpt lat="45.10450692461355" lon="10.045608341815262"><ele>35.0</ele><time>2026-04-06T09:55:00.999Z</time></trkpt><trkpt lat="45.10452595253953" lon="10.04570303279064"><ele>34.714285714285715</ele><time>2026-04-06T09:55:01.999Z</time></trkpt><trkpt lat="45.104545489161175" lon="10.04579535579483"><ele>34.42857142857143</ele><time>2026-04-06T09:55:02.999Z</time></trkpt><trkpt lat="45.1045677618771" lon="10.045887133819688"><ele>34.14285714285714</ele><time>2026-04-06T09:55:03.999Z</time></trkpt><trkpt lat="45.10458768564697" lon="10.045976448462563"><ele>33.85714285714286</ele><time>2026-04-06T09:55:04.999Z</time></trkpt><trkpt lat="45.10460738715445" lon="10.046067784977872"><ele>33.57142857142857</ele><time>2026-04-06T09:55:05.999Z</time></trkpt><trkpt lat="45.10462452624407" lon="10.046160784857241"><ele>33.285714285714285</ele><time>2026-04-06T09:55:06.999Z</time></trkpt><trkpt lat="45.10464554022358" lon="10.0462538878218"><ele>33.0</ele><time>2026-04-06T09:55:07.999Z</time></trkpt><trkpt lat="45.10466790515688" lon="10.046346546214638"><ele>33.0</ele><time>2026-04-06T09:55:08.999Z</time></trkpt><trkpt lat="45.1046912877194" lon="10.04644217463208"><ele>33.0</ele><time>2026-04-06T09:55:09.999Z</time></trkpt><trkpt lat="45.10471324483451" lon="10.046536960736315"><ele>33.0</ele><time>2026-04-06T09:55:10.999Z</time></trkpt><trkpt lat="45.104733616986366" lon="10.046627130369847"><ele>33.0</ele><time>2026-04-06T09:55:11.999Z</time></trkpt><trkpt lat="45.104749501269744" lon="10.046722629736642"><ele>33.0</ele><time>2026-04-06T09:55:12.999Z</time></trkpt><trkpt lat="45.10476970269082" lon="10.046819262131345"><ele>33.0</ele><time>2026-04-06T09:55:13.999Z</time></trkpt><trkpt lat="45.1047954556078" lon="10.046912300315443"><ele>33.0</ele><time>2026-04-06T09:55:14.999Z</time></trkpt><trkpt lat="45.10481727463901" lon="10.047002742701961"><ele>33.0</ele><time>2026-04-06T09:55:15.999Z</time></trkpt><trkpt lat="45.10483668625571" lon="10.047095426278688"><ele>33.0</ele><time>2026-04-06T09:55:16.999Z</time></trkpt><trkpt lat="45.10485707096682" lon="10.047189518785347"><ele>33.0</ele><time>2026-04-06T09:55:17.999Z</time></trkpt><trkpt lat="45.1048800093226" lon="10.047287952871391"><ele>33.0</ele><time>2026-04-06T09:55:18.999Z</time></trkpt><trkpt lat="45.10490217085859" lon="10.047379743496991"><ele>33.0</ele><time>2026-04-06T09:55:19.999Z</time></trkpt><trkpt lat="45.10492358219142" lon="10.04747432161732"><ele>33.0</ele><time>2026-04-06T09:55:20.999Z</time></trkpt><trkpt lat="45.10494836501376" lon="10.04757074952381"><ele>33.0</ele><time>2026-04-06T09:55:21.999Z</time></trkpt><trkpt lat="45.10497369525442" lon="10.047668358279088"><ele>33.333333333333336</ele><time>2026-04-06T09:55:22.999Z</time></trkpt><trkpt lat="45.10499681517547" lon="10.047764191201985"><ele>33.666666666666664</ele><time>2026-04-06T09:55:23.999Z</time></trkpt><trkpt lat="45.105019156456535" lon="10.047862051552384"><ele>34.0</ele><time>2026-04-06T09:55:24.999Z</time></trkpt><trkpt lat="45.10504381619841" lon="10.048058054943866"><ele>34.33333333333333</ele><time>2026-04-06T09:55:26.999Z</time></trkpt><trkpt lat="45.10506650626718" lon="10.048168790956232"><ele>34.666666666666664</ele><time>2026-04-06T09:55:27.999Z</time></trkpt><trkpt lat="45.10507658900095" lon="10.04828157195136"><ele>35.0</ele><time>2026-04-06T09:55:28.999Z</time></trkpt><trkpt lat="45.10508758057841" lon="10.048389717237788"><ele>35.0</ele><time>2026-04-06T09:55:29.999Z</time></trkpt><trkpt lat="45.10509965155656" lon="10.048495495121355"><ele>35.0</ele><time>2026-04-06T09:55:30.999Z</time></trkpt><trkpt lat="45.10511453416807" lon="10.048603413941523"><ele>35.0</ele><time>2026-04-06T09:55:31.999Z</time></trkpt><trkpt lat="45.10512731509601" lon="10.048708403266318"><ele>35.0</ele><time>2026-04-06T09:55:32.999Z</time></trkpt><trkpt lat="45.1051374298639" lon="10.048809949046685"><ele>35.0</ele><time>2026-04-06T09:55:33.999Z</time></trkpt><trkpt lat="45.105145920483366" lon="10.048912903962302"><ele>35.0</ele><time>2026-04-06T09:55:34.999Z</time></trkpt><trkpt lat="45.10515600440326" lon="10.049019646747585"><ele>34.666666666666664</ele><time>2026-04-06T09:55:35.999Z</time></trkpt><trkpt lat="45.10516503318791" lon="10.049129400122828"><ele>34.33333333333333</ele><time>2026-04-06T09:55:36.999Z</time></trkpt><trkpt lat="45.10517322257331" lon="10.04923928069196"><ele>34.0</ele><time>2026-04-06T09:55:37.999Z</time></trkpt><trkpt lat="45.10518022626499" lon="10.049349117725324"><ele>33.666666666666664</ele><time>2026-04-06T09:55:38.999Z</time></trkpt><trkpt lat="45.105185540969316" lon="10.04945900899293"><ele>33.333333333333336</ele><time>2026-04-06T09:55:39.999Z</time></trkpt><trkpt lat="45.10518935744753" lon="10.049571382173054"><ele>33.0</ele><time>2026-04-06T09:55:40.999Z</time></trkpt><trkpt lat="45.10519315051374" lon="10.049683655005918"><ele>33.0</ele><time>2026-04-06T09:55:41.999Z</time></trkpt><trkpt lat="45.10519593079439" lon="10.049794755706111"><ele>33.0</ele><time>2026-04-06T09:55:42.999Z</time></trkpt><trkpt lat="45.10519754821064" lon="10.0499051152558"><ele>33.0</ele><time>2026-04-06T09:55:43.999Z</time></trkpt><trkpt lat="45.105199899986275" lon="10.05001344017103"><ele>33.0</ele><time>2026-04-06T09:55:44.999Z</time></trkpt><trkpt lat="45.105203649111985" lon="10.050123447022951"><ele>33.0</ele><time>2026-04-06T09:55:45.999Z</time></trkpt><trkpt lat="45.10520656717468" lon="10.050231812244379"><ele>33.0</ele><time>2026-04-06T09:55:46.999Z</time></trkpt><trkpt lat="45.10520646869654" lon="10.05033985845495"><ele>33.0</ele><time>2026-04-06T09:55:47.998Z</time></trkpt><trkpt lat="45.10520596585735" lon="10.050447926868346"><ele>33.0</ele><time>2026-04-06T09:55:48.998Z</time></trkpt><trkpt lat="45.10520531159115" lon="10.050557020323122"><ele>33.0</ele><time>2026-04-06T09:55:49.998Z</time></trkpt><trkpt lat="45.10520542960705" lon="10.050664761566397"><ele>33.0</ele><time>2026-04-06T09:55:50.998Z</time></trkpt><trkpt lat="45.10520596966937" lon="10.050772289439742"><ele>33.0</ele><time>2026-04-06T09:55:51.998Z</time></trkpt><trkpt lat="45.10520645409207" lon="10.050875829551337"><ele>33.0</ele><time>2026-04-06T09:55:52.998Z</time></trkpt><trkpt lat="45.10520659324139" lon="10.05097822196222"><ele>33.0</ele><time>2026-04-06T09:55:53.998Z</time></trkpt><trkpt lat="45.10520575109633" lon="10.051076135868662"><ele>33.0</ele><time>2026-04-06T09:55:54.998Z</time></trkpt><trkpt lat="45.10520502266062" lon="10.051171969113366"><ele>33.0</ele><time>2026-04-06T09:55:55.998Z</time></trkpt><trkpt lat="45.10520716799384" lon="10.051261891953866"><ele>33.0</ele><time>2026-04-06T09:55:56.998Z</time></trkpt><trkpt lat="45.10517564574791" lon="10.051420471630566"><ele>33.0</ele><time>2026-04-06T09:55:58.998Z</time></trkpt><trkpt lat="45.105118099772085" lon="10.051463489052587"><ele>33.0</ele><time>2026-04-06T09:55:59.998Z</time></trkpt><trkpt lat="45.10505081338612" lon="10.051474343605083"><ele>33.0</ele><time>2026-04-06T09:56:00.998Z</time></trkpt><trkpt lat="45.10497631842675" lon="10.051464061791549"><ele>33.0</ele><time>2026-04-06T09:56:01.998Z</time></trkpt><trkpt lat="45.104907148485594" lon="10.051431013878144"><ele>33.0</ele><time>2026-04-06T09:56:02.998Z</time></trkpt><trkpt lat="45.10483695417537" lon="10.051430399678864"><ele>33.0</ele><time>2026-04-06T09:56:03.998Z</time></trkpt><trkpt lat="45.10476607817595" lon="10.0514297795148"><ele>33.0</ele><time>2026-04-06T09:56:04.998Z</time></trkpt><trkpt lat="45.10469410400093" lon="10.05142622830664"><ele>33.0</ele><time>2026-04-06T09:56:05.998Z</time></trkpt><trkpt lat="45.1046201204349" lon="10.051420474812263"><ele>33.0</ele><time>2026-04-06T09:56:06.998Z</time></trkpt><trkpt lat="45.10454452898486" lon="10.05141223168157"><ele>33.0</ele><time>2026-04-06T09:56:07.998Z</time></trkpt><trkpt lat="45.10446967489858" lon="10.051398208779974"><ele>33.0</ele><time>2026-04-06T09:56:08.998Z</time></trkpt><trkpt lat="45.104394317790735" lon="10.05138370005079"><ele>33.0</ele><time>2026-04-06T09:56:09.998Z</time></trkpt><trkpt lat="45.104317271354375" lon="10.051368850865686"><ele>33.0</ele><time>2026-04-06T09:56:10.998Z</time></trkpt><trkpt lat="45.10424038945464" lon="10.051354033381145"><ele>33.0</ele><time>2026-04-06T09:56:11.998Z</time></trkpt><trkpt lat="45.10416454422397" lon="10.051340160438473"><ele>33.0</ele><time>2026-04-06T09:56:12.998Z</time></trkpt><trkpt lat="45.10408814313374" lon="10.051326286848893"><ele>33.0</ele><time>2026-04-06T09:56:13.998Z</time></trkpt><trkpt lat="45.10401135618676" lon="10.051312343190679"><ele>33.166666666666664</ele><time>2026-04-06T09:56:14.998Z</time></trkpt><trkpt lat="45.10393388423777" lon="10.051298275140324"><ele>33.333333333333336</ele><time>2026-04-06T09:56:16Z</time></trkpt><trkpt lat="45.10385424126107" lon="10.051306322855138"><ele>33.5</ele><time>2026-04-06T09:56:17Z</time></trkpt><trkpt lat="45.10377622614403" lon="10.051292914908444"><ele>33.66666666666667</ele><time>2026-04-06T09:56:18Z</time></trkpt><trkpt lat="45.10370202258276" lon="10.051256765418582"><ele>33.833333333333336</ele><time>2026-04-06T09:56:19Z</time></trkpt><trkpt lat="45.10362463502376" lon="10.05124292936203"><ele>34.0</ele><time>2026-04-06T09:56:20Z</time></trkpt><trkpt lat="45.10354829727208" lon="10.051229280998632"><ele>34.0</ele><time>2026-04-06T09:56:21Z</time></trkpt><trkpt lat="45.10347377331487" lon="10.051215956920526"><ele>34.0</ele><time>2026-04-06T09:56:22Z</time></trkpt><trkpt lat="45.10339786649675" lon="10.051202385607764"><ele>34.0</ele><time>2026-04-06T09:56:23Z</time></trkpt><trkpt lat="45.10332335157412" lon="10.051189063142912"><ele>34.0</ele><time>2026-04-06T09:56:24Z</time></trkpt><trkpt lat="45.10324765788425" lon="10.05117552993345"><ele>34.0</ele><time>2026-04-06T09:56:25Z</time></trkpt><trkpt lat="45.10317397437895" lon="10.051162867299457"><ele>34.0</ele><time>2026-04-06T09:56:26Z</time></trkpt><trkpt lat="45.103099908604726" lon="10.05115071524042"><ele>34.16666666666667</ele><time>2026-04-06T09:56:27Z</time></trkpt><trkpt lat="45.103026350617654" lon="10.05113867129409"><ele>34.333333333333336</ele><time>2026-04-06T09:56:28Z</time></trkpt><trkpt lat="45.102951500130565" lon="10.051127160238076"><ele>34.5</ele><time>2026-04-06T09:56:29Z</time></trkpt><trkpt lat="45.102877522651234" lon="10.051116546610046"><ele>34.666666666666664</ele><time>2026-04-06T09:56:30Z</time></trkpt><trkpt lat="45.10280190331659" lon="10.051107765644206"><ele>34.83333333333333</ele><time>2026-04-06T09:56:31Z</time></trkpt><trkpt lat="45.10272644777285" lon="10.05109900370594"><ele>35.0</ele><time>2026-04-06T09:56:32Z</time></trkpt><trkpt lat="45.10265020269703" lon="10.051090150081093"><ele>35.0</ele><time>2026-04-06T09:56:33Z</time></trkpt><trkpt lat="45.10257428280263" lon="10.051081334219399"><ele>35.0</ele><time>2026-04-06T09:56:34Z</time></trkpt><trkpt lat="45.10249616975189" lon="10.051072570750533"><ele>35.0</ele><time>2026-04-06T09:56:35Z</time></trkpt><trkpt lat="45.10242055028106" lon="10.051064962247132"><ele>35.0</ele><time>2026-04-06T09:56:36Z</time></trkpt><trkpt lat="45.10234373927398" lon="10.05105723386191"><ele>35.0</ele><time>2026-04-06T09:56:37Z</time></trkpt><trkpt lat="45.102267659656405" lon="10.051049579063744"><ele>35.0</ele><time>2026-04-06T09:56:38Z</time></trkpt><trkpt lat="45.10219264274399" lon="10.051042031187748"><ele>35.285714285714285</ele><time>2026-04-06T09:56:39Z</time></trkpt><trkpt lat="45.10211797665102" lon="10.051034518615145"><ele>35.57142857142857</ele><time>2026-04-06T09:56:40Z</time></trkpt><trkpt lat="45.10204493064958" lon="10.051027169044584"><ele>35.85714285714286</ele><time>2026-04-06T09:56:41Z</time></trkpt><trkpt lat="45.1019743321847" lon="10.051019234806002"><ele>36.14285714285714</ele><time>2026-04-06T09:56:42Z</time></trkpt><trkpt lat="45.10190550483059" lon="10.051009706795451"><ele>36.42857142857143</ele><time>2026-04-06T09:56:43Z</time></trkpt><trkpt lat="45.1018363581132" lon="10.051000134575332"><ele>36.714285714285715</ele><time>2026-04-06T09:56:44Z</time></trkpt><trkpt lat="45.10176890761688" lon="10.05099271143054"><ele>37.0</ele><time>2026-04-06T09:56:45Z</time></trkpt><trkpt lat="45.101705393893546" lon="10.050985857015663"><ele>37.0</ele><time>2026-04-06T09:56:46Z</time></trkpt><trkpt lat="45.10163568478576" lon="10.050997957584814"><ele>37.0</ele><time>2026-04-06T09:56:47Z</time></trkpt><trkpt lat="45.10157011209278" lon="10.051051563392539"><ele>37.0</ele><time>2026-04-06T09:56:48Z</time></trkpt><trkpt lat="45.101542811108914" lon="10.051184720375288"><ele>37.0</ele><time>2026-04-06T09:56:49Z</time></trkpt><trkpt lat="45.101528210276264" lon="10.051294744819375"><ele>37.0</ele><time>2026-04-06T09:56:50Z</time></trkpt><trkpt lat="45.10151808897416" lon="10.051408218853862"><ele>37.0</ele><time>2026-04-06T09:56:51Z</time></trkpt><trkpt lat="45.10151145911508" lon="10.051511871294538"><ele>37.0</ele><time>2026-04-06T09:56:52Z</time></trkpt><trkpt lat="45.10150492340261" lon="10.051618413010935"><ele>37.0</ele><time>2026-04-06T09:56:53Z</time></trkpt><trkpt lat="45.101496665138875" lon="10.051724909895462"><ele>37.0</ele><time>2026-04-06T09:56:54Z</time></trkpt><trkpt lat="45.10148685796241" lon="10.051830811806331"><ele>37.0</ele><time>2026-04-06T09:56:55Z</time></trkpt><trkpt lat="45.10147813073582" lon="10.051937843885597"><ele>37.0</ele><time>2026-04-06T09:56:56Z</time></trkpt><trkpt lat="45.10147117460737" lon="10.052047328668968"><ele>37.0</ele><time>2026-04-06T09:56:56.999Z</time></trkpt><trkpt lat="45.10146147559491" lon="10.052159690650432"><ele>36.833333333333336</ele><time>2026-04-06T09:56:57.999Z</time></trkpt><trkpt lat="45.101455155376875" lon="10.052269944685591"><ele>36.66666666666667</ele><time>2026-04-06T09:56:58.999Z</time></trkpt><trkpt lat="45.10144732368537" lon="10.052382946477536"><ele>36.5</ele><time>2026-04-06T09:56:59.999Z</time></trkpt><trkpt lat="45.10143742814923" lon="10.052493344832703"><ele>36.333333333333336</ele><time>2026-04-06T09:57:00.999Z</time></trkpt><trkpt lat="45.10142781442787" lon="10.052604407726529"><ele>36.166666666666664</ele><time>2026-04-06T09:57:01.999Z</time></trkpt><trkpt lat="45.101417845836046" lon="10.05271722762141"><ele>36.0</ele><time>2026-04-06T09:57:02.999Z</time></trkpt><trkpt lat="45.10140945202834" lon="10.052829893248248"><ele>35.833333333333336</ele><time>2026-04-06T09:57:03.999Z</time></trkpt><trkpt lat="45.10139989860017" lon="10.052944075758582"><ele>35.666666666666664</ele><time>2026-04-06T09:57:04.999Z</time></trkpt><trkpt lat="45.101388135152334" lon="10.053056560795856"><ele>35.5</ele><time>2026-04-06T09:57:05.999Z</time></trkpt><trkpt lat="45.10137859689393" lon="10.053172599655161"><ele>35.33333333333333</ele><time>2026-04-06T09:57:06.999Z</time></trkpt><trkpt lat="45.10136983498258" lon="10.053284906767079"><ele>35.166666666666664</ele><time>2026-04-06T09:57:07.999Z</time></trkpt><trkpt lat="45.101360396187474" lon="10.053397870685572"><ele>35.0</ele><time>2026-04-06T09:57:08.999Z</time></trkpt><trkpt lat="45.101354536879406" lon="10.05351199029026"><ele>35.0</ele><time>2026-04-06T09:57:09.999Z</time></trkpt><trkpt lat="45.10135011497343" lon="10.053625317651075"><ele>35.0</ele><time>2026-04-06T09:57:10.999Z</time></trkpt><trkpt lat="45.10134469110026" lon="10.05373735628272"><ele>35.0</ele><time>2026-04-06T09:57:11.999Z</time></trkpt><trkpt lat="45.10133977700241" lon="10.053853876290539"><ele>35.0</ele><time>2026-04-06T09:57:12.999Z</time></trkpt><trkpt lat="45.10133827851213" lon="10.053967048407085"><ele>35.0</ele><time>2026-04-06T09:57:13.999Z</time></trkpt><trkpt lat="45.10133765893644" lon="10.054083926868135"><ele>35.0</ele><time>2026-04-06T09:57:14.999Z</time></trkpt><trkpt lat="45.101346029730834" lon="10.054199798971203"><ele>35.0</ele><time>2026-04-06T09:57:15.999Z</time></trkpt><trkpt lat="45.1013627396971" lon="10.054316556869336"><ele>35.0</ele><time>2026-04-06T09:57:16.999Z</time></trkpt><trkpt lat="45.10139202828606" lon="10.054423205067502"><ele>35.0</ele><time>2026-04-06T09:57:17.999Z</time></trkpt><trkpt lat="45.10142815869496" lon="10.054524471836425"><ele>35.0</ele><time>2026-04-06T09:57:18.999Z</time></trkpt><trkpt lat="45.10146334252386" lon="10.054628804604105"><ele>35.0</ele><time>2026-04-06T09:57:19.999Z</time></trkpt><trkpt lat="45.101496323444564" lon="10.054731195989497"><ele>35.0</ele><time>2026-04-06T09:57:20.999Z</time></trkpt><trkpt lat="45.101529256345216" lon="10.054835260691505"><ele>35.0</ele><time>2026-04-06T09:57:21.999Z</time></trkpt><trkpt lat="45.10156027571673" lon="10.054936846737029"><ele>35.0</ele><time>2026-04-06T09:57:22.999Z</time></trkpt><trkpt lat="45.10159210469222" lon="10.05503856543529"><ele>35.0</ele><time>2026-04-06T09:57:23.999Z</time></trkpt><trkpt lat="45.101621491491585" lon="10.055140186529485"><ele>35.0</ele><time>2026-04-06T09:57:24.999Z</time></trkpt><trkpt lat="45.101653314283" lon="10.055238527786457"><ele>35.0</ele><time>2026-04-06T09:57:25.999Z</time></trkpt><trkpt lat="45.1016889614065" lon="10.055341585050618"><ele>35.0</ele><time>2026-04-06T09:57:26.999Z</time></trkpt><trkpt lat="45.10172287401652" lon="10.055443824058067"><ele>34.83333333333333</ele><time>2026-04-06T09:57:27.999Z</time></trkpt><trkpt lat="45.10175452124936" lon="10.055549185981414"><ele>34.666666666666664</ele><time>2026-04-06T09:57:28.999Z</time></trkpt><trkpt lat="45.101788160300245" lon="10.055655213030954"><ele>34.5</ele><time>2026-04-06T09:57:29.999Z</time></trkpt><trkpt lat="45.10182226099223" lon="10.055754269685982"><ele>34.333333333333336</ele><time>2026-04-06T09:57:30.999Z</time></trkpt><trkpt lat="45.10185788377225" lon="10.055854838987335"><ele>34.16666666666667</ele><time>2026-04-06T09:57:31.999Z</time></trkpt><trkpt lat="45.101893558178965" lon="10.055955166800493"><ele>34.0</ele><time>2026-04-06T09:57:32.999Z</time></trkpt><trkpt lat="45.10192813859392" lon="10.056054190365138"><ele>34.333333333333336</ele><time>2026-04-06T09:57:33.999Z</time></trkpt><trkpt lat="45.10196221184909" lon="10.056153435998574"><ele>34.66666666666667</ele><time>2026-04-06T09:57:34.999Z</time></trkpt><trkpt lat="45.10199613035823" lon="10.056254220409109"><ele>35.0</ele><time>2026-04-06T09:57:35.999Z</time></trkpt><trkpt lat="45.10202675859722" lon="10.056359792578181"><ele>35.333333333333336</ele><time>2026-04-06T09:57:36.999Z</time></trkpt><trkpt lat="45.102056880633064" lon="10.05646208588237"><ele>35.666666666666664</ele><time>2026-04-06T09:57:37.999Z</time></trkpt><trkpt lat="45.10208850704862" lon="10.05656362058363"><ele>36.0</ele><time>2026-04-06T09:57:38.999Z</time></trkpt><trkpt lat="45.10211628760586" lon="10.056668922860457"><ele>36.333333333333336</ele><time>2026-04-06T09:57:39.999Z</time></trkpt><trkpt lat="45.10216144330438" lon="10.056759968690312"><ele>36.666666666666664</ele><time>2026-04-06T09:57:40.999Z</time></trkpt><trkpt lat="45.10219517241982" lon="10.056860665623535"><ele>37.0</ele><time>2026-04-06T09:57:41.999Z</time></trkpt><trkpt lat="45.10222849260839" lon="10.056960141658267"><ele>37.33333333333333</ele><time>2026-04-06T09:57:42.999Z</time></trkpt><trkpt lat="45.10226216745123" lon="10.057060676515855"><ele>37.666666666666664</ele><time>2026-04-06T09:57:43.999Z</time></trkpt><trkpt lat="45.10229633918754" lon="10.057162694942434"><ele>38.0</ele><time>2026-04-06T09:57:44.999Z</time></trkpt><trkpt lat="45.10231648067635" lon="10.057270171625419"><ele>38.0</ele><time>2026-04-06T09:57:45.999Z</time></trkpt><trkpt lat="45.10236294221175" lon="10.057361535572166"><ele>38.0</ele><time>2026-04-06T09:57:46.999Z</time></trkpt><trkpt lat="45.10238279141734" lon="10.057471601394573"><ele>38.0</ele><time>2026-04-06T09:57:47.999Z</time></trkpt><trkpt lat="45.102419661604976" lon="10.057574990162783"><ele>38.0</ele><time>2026-04-06T09:57:48.999Z</time></trkpt><trkpt lat="45.10245311594676" lon="10.057678288173868"><ele>38.0</ele><time>2026-04-06T09:57:49.999Z</time></trkpt><trkpt lat="45.10249040229499" lon="10.057777393343429"><ele>38.0</ele><time>2026-04-06T09:57:50.998Z</time></trkpt><trkpt lat="45.102523583706066" lon="10.05787929349754"><ele>37.83333333333333</ele><time>2026-04-06T09:57:51.998Z</time></trkpt><trkpt lat="45.10255186513559" lon="10.057986360558676"><ele>37.666666666666664</ele><time>2026-04-06T09:57:52.998Z</time></trkpt><trkpt lat="45.10258249937338" lon="10.05808985736534"><ele>37.5</ele><time>2026-04-06T09:57:53.998Z</time></trkpt><trkpt lat="45.102604606694335" lon="10.058199561597192"><ele>37.333333333333336</ele><time>2026-04-06T09:57:54.998Z</time></trkpt><trkpt lat="45.10263144576603" lon="10.058307017044068"><ele>37.16666666666667</ele><time>2026-04-06T09:57:55.998Z</time></trkpt><trkpt lat="45.10265923815084" lon="10.058418449382623"><ele>37.0</ele><time>2026-04-06T09:57:56.998Z</time></trkpt><trkpt lat="45.1026839586931" lon="10.058530662801827"><ele>37.0</ele><time>2026-04-06T09:57:57.998Z</time></trkpt><trkpt lat="45.102703407425516" lon="10.058642558100283"><ele>37.0</ele><time>2026-04-06T09:57:58.998Z</time></trkpt><trkpt lat="45.1027225010314" lon="10.058753514766224"><ele>37.0</ele><time>2026-04-06T09:57:59.998Z</time></trkpt><trkpt lat="45.102740783405366" lon="10.058863872292168"><ele>37.0</ele><time>2026-04-06T09:58:00.998Z</time></trkpt><trkpt lat="45.102764015372344" lon="10.058972917011376"><ele>37.0</ele><time>2026-04-06T09:58:01.998Z</time></trkpt><trkpt lat="45.102803757894364" lon="10.059072011371956"><ele>37.0</ele><time>2026-04-06T09:58:02.998Z</time></trkpt><trkpt lat="45.10286846787989" lon="10.059147997037266"><ele>36.833333333333336</ele><time>2026-04-06T09:58:03.998Z</time></trkpt><trkpt lat="45.10295071380948" lon="10.059179659193175"><ele>36.66666666666667</ele><time>2026-04-06T09:58:04.998Z</time></trkpt><trkpt lat="45.10303482453244" lon="10.059180404786877"><ele>36.5</ele><time>2026-04-06T09:58:05.998Z</time></trkpt><trkpt lat="45.10311784867744" lon="10.0591860866467"><ele>36.333333333333336</ele><time>2026-04-06T09:58:06.998Z</time></trkpt><trkpt lat="45.103191440264176" lon="10.059235403341733"><ele>36.166666666666664</ele><time>2026-04-06T09:58:07.998Z</time></trkpt><trkpt lat="45.103251460878674" lon="10.059318736719094"><ele>36.0</ele><time>2026-04-06T09:58:08.998Z</time></trkpt><trkpt lat="45.103290535796006" lon="10.059425396411784"><ele>35.833333333333336</ele><time>2026-04-06T09:58:09.998Z</time></trkpt><trkpt lat="45.10330356322081" lon="10.059542498620802"><ele>35.666666666666664</ele><time>2026-04-06T09:58:10.998Z</time></trkpt><trkpt lat="45.10330032118818" lon="10.059666187546469"><ele>35.5</ele><time>2026-04-06T09:58:11.998Z</time></trkpt><trkpt lat="45.10329679560387" lon="10.059779443721583"><ele>35.33333333333333</ele><time>2026-04-06T09:58:12.998Z</time></trkpt><trkpt lat="45.10328982447358" lon="10.05989246299162"><ele>35.166666666666664</ele><time>2026-04-06T09:58:13.998Z</time></trkpt><trkpt lat="45.10328503337211" lon="10.060003465381753"><ele>35.0</ele><time>2026-04-06T09:58:14.998Z</time></trkpt><trkpt lat="45.103279517016055" lon="10.060108021417332"><ele>34.83333333333333</ele><time>2026-04-06T09:58:15.998Z</time></trkpt><trkpt lat="45.1032745769331" lon="10.060221491992442"><ele>34.666666666666664</ele><time>2026-04-06T09:58:16.998Z</time></trkpt><trkpt lat="45.10326654763314" lon="10.06033088684285"><ele>34.5</ele><time>2026-04-06T09:58:17.998Z</time></trkpt><trkpt lat="45.1032619531109" lon="10.060442111120192"><ele>34.333333333333336</ele><time>2026-04-06T09:58:18.998Z</time></trkpt><trkpt lat="45.10326483137655" lon="10.060551003067372"><ele>34.16666666666667</ele><time>2026-04-06T09:58:19.998Z</time></trkpt><trkpt lat="45.103265882822434" lon="10.060661086304531"><ele>34.0</ele><time>2026-04-06T09:58:20.998Z</time></trkpt><trkpt lat="45.10328455308768" lon="10.06077407882578"><ele>34.333333333333336</ele><time>2026-04-06T09:58:22Z</time></trkpt><trkpt lat="45.10326576597482" lon="10.060882039142195"><ele>34.66666666666667</ele><time>2026-04-06T09:58:23Z</time></trkpt><trkpt lat="45.10326159216719" lon="10.060993316524147"><ele>35.0</ele><time>2026-04-06T09:58:24Z</time></trkpt><trkpt lat="45.10325761605874" lon="10.061108237195555"><ele>35.333333333333336</ele><time>2026-04-06T09:58:25Z</time></trkpt><trkpt lat="45.10325744605045" lon="10.061218035269887"><ele>35.666666666666664</ele><time>2026-04-06T09:58:26Z</time></trkpt><trkpt lat="45.10324401522829" lon="10.061329650701623"><ele>36.0</ele><time>2026-04-06T09:58:27Z</time></trkpt><trkpt lat="45.10324582095187" lon="10.061436877499611"><ele>36.0</ele><time>2026-04-06T09:58:28Z</time></trkpt><trkpt lat="45.10324965302715" lon="10.06154565105625"><ele>36.0</ele><time>2026-04-06T09:58:29Z</time></trkpt><trkpt lat="45.10324911483167" lon="10.061659565153182"><ele>36.0</ele><time>2026-04-06T09:58:30Z</time></trkpt><trkpt lat="45.103250828788184" lon="10.061766985216078"><ele>36.0</ele><time>2026-04-06T09:58:31Z</time></trkpt><trkpt lat="45.103251315948356" lon="10.061877072986633"><ele>36.0</ele><time>2026-04-06T09:58:32Z</time></trkpt><trkpt lat="45.10325149624432" lon="10.061987615988764"><ele>36.0</ele><time>2026-04-06T09:58:33Z</time></trkpt><trkpt lat="45.1032486226793" lon="10.062096625017807"><ele>36.166666666666664</ele><time>2026-04-06T09:58:34Z</time></trkpt><trkpt lat="45.10324548016047" lon="10.062210674104676"><ele>36.333333333333336</ele><time>2026-04-06T09:58:35Z</time></trkpt><trkpt lat="45.103238139653264" lon="10.062323772523095"><ele>36.5</ele><time>2026-04-06T09:58:36Z</time></trkpt><trkpt lat="45.103229699796465" lon="10.062435097009407"><ele>36.66666666666667</ele><time>2026-04-06T09:58:37Z</time></trkpt><trkpt lat="45.10322123092282" lon="10.062545235751879"><ele>36.833333333333336</ele><time>2026-04-06T09:58:38Z</time></trkpt><trkpt lat="45.103220746387805" lon="10.0626501711635"><ele>37.0</ele><time>2026-04-06T09:58:39Z</time></trkpt><trkpt lat="45.10325819376486" lon="10.062738481522704"><ele>36.5</ele><time>2026-04-06T09:58:40Z</time></trkpt><trkpt lat="45.10332833903025" lon="10.062785988007311"><ele>36.0</ele><time>2026-04-06T09:58:41Z</time></trkpt><trkpt lat="45.103410339787445" lon="10.062765244364009"><ele>35.5</ele><time>2026-04-06T09:58:42Z</time></trkpt><trkpt lat="45.10348142220588" lon="10.062716591388934"><ele>35.0</ele><time>2026-04-06T09:58:43Z</time></trkpt><trkpt lat="45.10355171547276" lon="10.062661416104142"><ele>34.5</ele><time>2026-04-06T09:58:44Z</time></trkpt><trkpt lat="45.103622649033625" lon="10.062618841750462"><ele>34.0</ele><time>2026-04-06T09:58:45Z</time></trkpt><trkpt lat="45.10369706498168" lon="10.0625780386073"><ele>34.0</ele><time>2026-04-06T09:58:46Z</time></trkpt><trkpt lat="45.103767725771085" lon="10.062534667007583"><ele>34.0</ele><time>2026-04-06T09:58:47Z</time></trkpt><trkpt lat="45.10384066676877" lon="10.06249868587656"><ele>34.0</ele><time>2026-04-06T09:58:48Z</time></trkpt><trkpt lat="45.10391057247914" lon="10.062459267633683"><ele>34.0</ele><time>2026-04-06T09:58:49Z</time></trkpt><trkpt lat="45.103983217042256" lon="10.062418882386218"><ele>34.0</ele><time>2026-04-06T09:58:50Z</time></trkpt><trkpt lat="45.10405512328543" lon="10.062375869973884"><ele>34.0</ele><time>2026-04-06T09:58:51Z</time></trkpt><trkpt lat="45.10412721856393" lon="10.06233147801775"><ele>33.66666666666667</ele><time>2026-04-06T09:58:52Z</time></trkpt><trkpt lat="45.104200595225166" lon="10.062291126169319"><ele>33.333333333333336</ele><time>2026-04-06T09:58:53Z</time></trkpt><trkpt lat="45.10427199024457" lon="10.062249534586641"><ele>33.0</ele><time>2026-04-06T09:58:54Z</time></trkpt><trkpt lat="45.10434423471795" lon="10.062206580667477"><ele>32.666666666666664</ele><time>2026-04-06T09:58:55Z</time></trkpt><trkpt lat="45.10441724863489" lon="10.062167169699636"><ele>32.33333333333333</ele><time>2026-04-06T09:58:56Z</time></trkpt><trkpt lat="45.104490704883375" lon="10.06213127834382"><ele>32.0</ele><time>2026-04-06T09:58:57Z</time></trkpt><trkpt lat="45.10456129237823" lon="10.06208784683508"><ele>31.999999999999996</ele><time>2026-04-06T09:58:58Z</time></trkpt><trkpt lat="45.104634803363446" lon="10.062046096996342"><ele>32.0</ele><time>2026-04-06T09:58:59Z</time></trkpt><trkpt lat="45.10471212350289" lon="10.062013866033533"><ele>32.0</ele><time>2026-04-06T09:59:00Z</time></trkpt><trkpt lat="45.10479233478087" lon="10.061998377033298"><ele>32.0</ele><time>2026-04-06T09:59:00.999Z</time></trkpt><trkpt lat="45.104875890292725" lon="10.061998528227006"><ele>31.999999999999996</ele><time>2026-04-06T09:59:01.999Z</time></trkpt><trkpt lat="45.104961686331656" lon="10.062012039351636"><ele>32.0</ele><time>2026-04-06T09:59:02.999Z</time></trkpt><trkpt lat="45.105045055440506" lon="10.062046937752598"><ele>31.999999999999996</ele><time>2026-04-06T09:59:03.999Z</time></trkpt><trkpt lat="45.10512463657302" lon="10.062090688501765"><ele>32.0</ele><time>2026-04-06T09:59:04.999Z</time></trkpt><trkpt lat="45.10520036947577" lon="10.062144846786923"><ele>32.0</ele><time>2026-04-06T09:59:05.999Z</time></trkpt><trkpt lat="45.105274135980686" lon="10.062202852062"><ele>32.0</ele><time>2026-04-06T09:59:06.999Z</time></trkpt><trkpt lat="45.10534578602747" lon="10.062267708967873"><ele>31.999999999999996</ele><time>2026-04-06T09:59:07.999Z</time></trkpt><trkpt lat="45.10541069274254" lon="10.06233757870289"><ele>32.0</ele><time>2026-04-06T09:59:08.999Z</time></trkpt><trkpt lat="45.10546825128951" lon="10.06241133151872"><ele>32.285714285714285</ele><time>2026-04-06T09:59:09.999Z</time></trkpt><trkpt lat="45.105521811187174" lon="10.06249035649824"><ele>32.57142857142857</ele><time>2026-04-06T09:59:10.999Z</time></trkpt><trkpt lat="45.10557077486473" lon="10.062566418064387"><ele>32.857142857142854</ele><time>2026-04-06T09:59:11.999Z</time></trkpt><trkpt lat="45.10562119545957" lon="10.062643007930054"><ele>33.14285714285714</ele><time>2026-04-06T09:59:12.999Z</time></trkpt><trkpt lat="45.10566849024738" lon="10.06271599862789"><ele>33.42857142857143</ele><time>2026-04-06T09:59:13.999Z</time></trkpt><trkpt lat="45.10571477622406" lon="10.062791990750462"><ele>33.71428571428571</ele><time>2026-04-06T09:59:14.999Z</time></trkpt><trkpt lat="45.10576019951665" lon="10.062865443726572"><ele>34.0</ele><time>2026-04-06T09:59:15.999Z</time></trkpt><trkpt lat="45.10580634236901" lon="10.062942902746988"><ele>33.99999999999999</ele><time>2026-04-06T09:59:16.999Z</time></trkpt><trkpt lat="45.10585045193498" lon="10.063015368179853"><ele>34.0</ele><time>2026-04-06T09:59:17.999Z</time></trkpt><trkpt lat="45.10589566210561" lon="10.063088904092634"><ele>34.0</ele><time>2026-04-06T09:59:18.999Z</time></trkpt><trkpt lat="45.105942938490195" lon="10.063165049257684"><ele>34.0</ele><time>2026-04-06T09:59:19.999Z</time></trkpt><trkpt lat="45.105993158965326" lon="10.063235933327489"><ele>34.0</ele><time>2026-04-06T09:59:20.999Z</time></trkpt><trkpt lat="45.10603674953654" lon="10.063306411596292"><ele>33.99999999999999</ele><time>2026-04-06T09:59:21.999Z</time></trkpt><trkpt lat="45.10608031604645" lon="10.06337925922242"><ele>34.0</ele><time>2026-04-06T09:59:22.999Z</time></trkpt><trkpt lat="45.10612896567479" lon="10.063456454745458"><ele>34.16666666666667</ele><time>2026-04-06T09:59:23.999Z</time></trkpt><trkpt lat="45.10617996370969" lon="10.06353007402836"><ele>34.333333333333336</ele><time>2026-04-06T09:59:24.999Z</time></trkpt><trkpt lat="45.10622962444637" lon="10.063604581260648"><ele>34.5</ele><time>2026-04-06T09:59:25.999Z</time></trkpt><trkpt lat="45.106275063470164" lon="10.063688156950349"><ele>34.666666666666664</ele><time>2026-04-06T09:59:26.999Z</time></trkpt><trkpt lat="45.10632500693568" lon="10.063771276468062"><ele>34.83333333333333</ele><time>2026-04-06T09:59:27.999Z</time></trkpt><trkpt lat="45.10636042359736" lon="10.063863736299137"><ele>35.0</ele><time>2026-04-06T09:59:28.999Z</time></trkpt><trkpt lat="45.106424119183416" lon="10.063934558266986"><ele>35.0</ele><time>2026-04-06T09:59:29.999Z</time></trkpt><trkpt lat="45.10647839624184" lon="10.064014760384952"><ele>35.0</ele><time>2026-04-06T09:59:30.999Z</time></trkpt><trkpt lat="45.1065306999798" lon="10.064096112687412"><ele>35.0</ele><time>2026-04-06T09:59:31.999Z</time></trkpt><trkpt lat="45.10656892031663" lon="10.064195461254636"><ele>35.0</ele><time>2026-04-06T09:59:32.999Z</time></trkpt><trkpt lat="45.10663269908909" lon="10.064269546781183"><ele>35.0</ele><time>2026-04-06T09:59:33.999Z</time></trkpt><trkpt lat="45.106684825249395" lon="10.06436284449672"><ele>35.0</ele><time>2026-04-06T09:59:34.999Z</time></trkpt><trkpt lat="45.106738067138544" lon="10.064454757822238"><ele>34.666666666666664</ele><time>2026-04-06T09:59:35.999Z</time></trkpt><trkpt lat="45.10679181684452" lon="10.064548043983406"><ele>34.33333333333333</ele><time>2026-04-06T09:59:36.999Z</time></trkpt><trkpt lat="45.106846256607035" lon="10.064635817524135"><ele>34.0</ele><time>2026-04-06T09:59:37.999Z</time></trkpt><trkpt lat="45.10690170379206" lon="10.064722170353717"><ele>33.666666666666664</ele><time>2026-04-06T09:59:38.999Z</time></trkpt><trkpt lat="45.106957483926664" lon="10.064808022460713"><ele>33.333333333333336</ele><time>2026-04-06T09:59:39.999Z</time></trkpt><trkpt lat="45.10701107525373" lon="10.064892656493448"><ele>33.0</ele><time>2026-04-06T09:59:40.999Z</time></trkpt><trkpt lat="45.10706449134699" lon="10.064976217462897"><ele>32.833333333333336</ele><time>2026-04-06T09:59:41.999Z</time></trkpt><trkpt lat="45.107116971606544" lon="10.065061535001004"><ele>32.666666666666664</ele><time>2026-04-06T09:59:42.999Z</time></trkpt><trkpt lat="45.10716955120429" lon="10.06514860837639"><ele>32.5</ele><time>2026-04-06T09:59:43.999Z</time></trkpt><trkpt lat="45.107221371970624" lon="10.06523547205603"><ele>32.33333333333333</ele><time>2026-04-06T09:59:44.999Z</time></trkpt><trkpt lat="45.10727555265513" lon="10.065322403711027"><ele>32.166666666666664</ele><time>2026-04-06T09:59:45.999Z</time></trkpt><trkpt lat="45.10732901793482" lon="10.06540931767582"><ele>32.0</ele><time>2026-04-06T09:59:46.999Z</time></trkpt><trkpt lat="45.107384053947975" lon="10.065494564355705"><ele>32.166666666666664</ele><time>2026-04-06T09:59:47.999Z</time></trkpt><trkpt lat="45.107440632777916" lon="10.065578167494806"><ele>32.33333333333333</ele><time>2026-04-06T09:59:48.999Z</time></trkpt><trkpt lat="45.10749272518853" lon="10.065667064611983"><ele>32.5</ele><time>2026-04-06T09:59:49.999Z</time></trkpt><trkpt lat="45.10754600630335" lon="10.065751141500316"><ele>32.666666666666664</ele><time>2026-04-06T09:59:50.999Z</time></trkpt><trkpt lat="45.10759888881504" lon="10.065838618292547"><ele>32.833333333333336</ele><time>2026-04-06T09:59:51.999Z</time></trkpt><trkpt lat="45.10765158316684" lon="10.065921946060302"><ele>33.0</ele><time>2026-04-06T09:59:52.999Z</time></trkpt><trkpt lat="45.107705245634655" lon="10.066007107574285"><ele>33.0</ele><time>2026-04-06T09:59:53.998Z</time></trkpt><trkpt lat="45.10775606573463" lon="10.06609234812627"><ele>33.0</ele><time>2026-04-06T09:59:54.998Z</time></trkpt><trkpt lat="45.10781018468082" lon="10.066179375769183"><ele>33.0</ele><time>2026-04-06T09:59:55.998Z</time></trkpt><trkpt lat="45.10786329498697" lon="10.0662636859531"><ele>33.0</ele><time>2026-04-06T09:59:56.998Z</time></trkpt><trkpt lat="45.10791639441882" lon="10.066349575476625"><ele>33.0</ele><time>2026-04-06T09:59:57.998Z</time></trkpt><trkpt lat="45.10796831615664" lon="10.066439725233007"><ele>33.0</ele><time>2026-04-06T09:59:58.998Z</time></trkpt><trkpt lat="45.10802191810436" lon="10.066527557152948"><ele>33.0</ele><time>2026-04-06T09:59:59.998Z</time></trkpt><trkpt lat="45.10807588428672" lon="10.066614672833719"><ele>33.0</ele><time>2026-04-06T10:00:00.998Z</time></trkpt><trkpt lat="45.1081309230712" lon="10.066701327521534"><ele>33.0</ele><time>2026-04-06T10:00:01.998Z</time></trkpt><trkpt lat="45.108183336435836" lon="10.066792672620316"><ele>33.0</ele><time>2026-04-06T10:00:02.998Z</time></trkpt><trkpt lat="45.108236913935606" lon="10.066881495347639"><ele>33.0</ele><time>2026-04-06T10:00:03.998Z</time></trkpt><trkpt lat="45.10828995914159" lon="10.066972249061616"><ele>33.0</ele><time>2026-04-06T10:00:04.998Z</time></trkpt><trkpt lat="45.10834459820468" lon="10.067057528899092"><ele>33.0</ele><time>2026-04-06T10:00:05.998Z</time></trkpt><trkpt lat="45.108396289234626" lon="10.067142015270072"><ele>33.0</ele><time>2026-04-06T10:00:06.998Z</time></trkpt><trkpt lat="45.10844895540098" lon="10.06723312583748"><ele>33.0</ele><time>2026-04-06T10:00:07.998Z</time></trkpt><trkpt lat="45.1085012227661" lon="10.067319239132049"><ele>33.0</ele><time>2026-04-06T10:00:08.998Z</time></trkpt><trkpt lat="45.10855446739763" lon="10.067405695316044"><ele>33.0</ele><time>2026-04-06T10:00:09.998Z</time></trkpt><trkpt lat="45.108604947248374" lon="10.06749538041493"><ele>33.0</ele><time>2026-04-06T10:00:10.998Z</time></trkpt><trkpt lat="45.108660447781375" lon="10.067581953840865"><ele>33.166666666666664</ele><time>2026-04-06T10:00:11.998Z</time></trkpt><trkpt lat="45.108711729108784" lon="10.06766498085948"><ele>33.333333333333336</ele><time>2026-04-06T10:00:12.998Z</time></trkpt><trkpt lat="45.10876118752415" lon="10.067753996113392"><ele>33.5</ele><time>2026-04-06T10:00:13.998Z</time></trkpt><trkpt lat="45.10880982666173" lon="10.067842184431893"><ele>33.66666666666667</ele><time>2026-04-06T10:00:14.998Z</time></trkpt><trkpt lat="45.10886103641528" lon="10.06792919356441"><ele>33.833333333333336</ele><time>2026-04-06T10:00:15.998Z</time></trkpt><trkpt lat="45.10891511612518" lon="10.068016998791409"><ele>34.0</ele><time>2026-04-06T10:00:16.998Z</time></trkpt><trkpt lat="45.108967752295605" lon="10.068104782073336"><ele>34.0</ele><time>2026-04-06T10:00:17.998Z</time></trkpt><trkpt lat="45.109020096128944" lon="10.068194726754454"><ele>34.0</ele><time>2026-04-06T10:00:18.998Z</time></trkpt><trkpt lat="45.109074501325864" lon="10.068279566723149"><ele>34.0</ele><time>2026-04-06T10:00:19.998Z</time></trkpt><trkpt lat="45.10913013105577" lon="10.068367369641319"><ele>34.0</ele><time>2026-04-06T10:00:20.998Z</time></trkpt><trkpt lat="45.109184007527965" lon="10.068456511811165"><ele>34.0</ele><time>2026-04-06T10:00:21.998Z</time></trkpt><trkpt lat="45.10923664947213" lon="10.06854460270779"><ele>34.0</ele><time>2026-04-06T10:00:22.998Z</time></trkpt><trkpt lat="45.10928693640537" lon="10.068634865813076"><ele>33.833333333333336</ele><time>2026-04-06T10:00:23.998Z</time></trkpt><trkpt lat="45.10933905287972" lon="10.068723086727676"><ele>33.66666666666667</ele><time>2026-04-06T10:00:24.998Z</time></trkpt><trkpt lat="45.10939186497121" lon="10.06881318588277"><ele>33.5</ele><time>2026-04-06T10:00:25.998Z</time></trkpt><trkpt lat="45.109446099763396" lon="10.06890028020157"><ele>33.333333333333336</ele><time>2026-04-06T10:00:26.998Z</time></trkpt><trkpt lat="45.10949980956224" lon="10.068988010961952"><ele>33.166666666666664</ele><time>2026-04-06T10:00:28Z</time></trkpt><trkpt lat="45.10955322978752" lon="10.069077301921178"><ele>33.0</ele><time>2026-04-06T10:00:29Z</time></trkpt><trkpt lat="45.10960172382221" lon="10.069164350104352"><ele>33.0</ele><time>2026-04-06T10:00:30Z</time></trkpt><trkpt lat="45.10964728013132" lon="10.06926178364316"><ele>33.0</ele><time>2026-04-06T10:00:31Z</time></trkpt><trkpt lat="45.10968285094184" lon="10.069370097608545"><ele>33.0</ele><time>2026-04-06T10:00:32Z</time></trkpt><trkpt lat="45.10971401674432" lon="10.069474843220016"><ele>33.0</ele><time>2026-04-06T10:00:33Z</time></trkpt><trkpt lat="45.10975190177592" lon="10.069578280291225"><ele>33.0</ele><time>2026-04-06T10:00:34Z</time></trkpt><trkpt lat="45.10978773284179" lon="10.069678760924974"><ele>33.0</ele><time>2026-04-06T10:00:35Z</time></trkpt><trkpt lat="45.10982502020497" lon="10.069782185077099"><ele>33.0</ele><time>2026-04-06T10:00:36Z</time></trkpt><trkpt lat="45.10985858211856" lon="10.069883370902845"><ele>33.0</ele><time>2026-04-06T10:00:37Z</time></trkpt><trkpt lat="45.1098928907437" lon="10.069987081127323"><ele>33.0</ele><time>2026-04-06T10:00:38Z</time></trkpt><trkpt lat="45.1099264615672" lon="10.070089738369633"><ele>33.0</ele><time>2026-04-06T10:00:39Z</time></trkpt><trkpt lat="45.1099604337046" lon="10.070188982712406"><ele>33.0</ele><time>2026-04-06T10:00:40Z</time></trkpt><trkpt lat="45.10999528437011" lon="10.070289191062477"><ele>33.0</ele><time>2026-04-06T10:00:41Z</time></trkpt><trkpt lat="45.11002983593464" lon="10.070386203783166"><ele>33.57142857142857</ele><time>2026-04-06T10:00:42Z</time></trkpt><trkpt lat="45.1100730981249" lon="10.07047095633539"><ele>34.142857142857146</ele><time>2026-04-06T10:00:43Z</time></trkpt><trkpt lat="45.11012491642232" lon="10.070543258245896"><ele>34.714285714285715</ele><time>2026-04-06T10:00:44Z</time></trkpt><trkpt lat="45.11018068610536" lon="10.070607662948005"><ele>35.285714285714285</ele><time>2026-04-06T10:00:45Z</time></trkpt><trkpt lat="45.110236157365826" lon="10.070665580692467"><ele>35.857142857142854</ele><time>2026-04-06T10:00:46Z</time></trkpt><trkpt lat="45.11029750136959" lon="10.070714236009922"><ele>36.42857142857143</ele><time>2026-04-06T10:00:47Z</time></trkpt><trkpt lat="45.110364591093145" lon="10.070743665120416"><ele>37.0</ele><time>2026-04-06T10:00:48Z</time></trkpt><trkpt lat="45.11048144680497" lon="10.070821496829883"><ele>38.16666666666667</ele><time>2026-04-06T10:00:50Z</time></trkpt><trkpt lat="45.1105510873882" lon="10.070846857518859"><ele>39.333333333333336</ele><time>2026-04-06T10:00:51Z</time></trkpt><trkpt lat="45.110632450742976" lon="10.070923430077187"><ele>40.5</ele><time>2026-04-06T10:00:53Z</time></trkpt><trkpt lat="45.11071337094073" lon="10.07099643788623"><ele>41.666666666666664</ele><time>2026-04-06T10:00:55Z</time></trkpt><trkpt lat="45.11070956674112" lon="10.071124059104223"><ele>42.83333333333333</ele><time>2026-04-06T10:00:58Z</time></trkpt><trkpt lat="45.11068048448944" lon="10.071230293231283"><ele>44.0</ele><time>2026-04-06T10:01:00Z</time></trkpt><trkpt lat="45.1106145850773" lon="10.071343224875374"><ele>44.0</ele><time>2026-04-06T10:01:02Z</time></trkpt><trkpt lat="45.110558631348866" lon="10.071482836613436"><ele>44.0</ele><time>2026-04-06T10:01:04Z</time></trkpt><trkpt lat="45.11050285646256" lon="10.07163030132663"><ele>44.0</ele><time>2026-04-06T10:01:05.999Z</time></trkpt><trkpt lat="45.11047699654047" lon="10.071714384913701"><ele>44.0</ele><time>2026-04-06T10:01:06.999Z</time></trkpt><trkpt lat="45.11045043461739" lon="10.071798003687219"><ele>44.0</ele><time>2026-04-06T10:01:07.999Z</time></trkpt><trkpt lat="45.11041973229516" lon="10.071876933986426"><ele>44.0</ele><time>2026-04-06T10:01:08.999Z</time></trkpt><trkpt lat="45.110382468266955" lon="10.071957693389658"><ele>43.5</ele><time>2026-04-06T10:01:09.999Z</time></trkpt><trkpt lat="45.1103289181792" lon="10.072114672014912"><ele>43.0</ele><time>2026-04-06T10:01:11.999Z</time></trkpt><trkpt lat="45.11030162866633" lon="10.072195107377643"><ele>42.5</ele><time>2026-04-06T10:01:12.999Z</time></trkpt><trkpt lat="45.11026452609925" lon="10.072278819528007"><ele>42.0</ele><time>2026-04-06T10:01:13.999Z</time></trkpt><trkpt lat="45.11023183789685" lon="10.072363988017301"><ele>41.5</ele><time>2026-04-06T10:01:14.999Z</time></trkpt><trkpt lat="45.1101949497879" lon="10.072446021841742"><ele>41.0</ele><time>2026-04-06T10:01:15.999Z</time></trkpt><trkpt lat="45.11015859429692" lon="10.07252919634646"><ele>40.99999999999999</ele><time>2026-04-06T10:01:16.999Z</time></trkpt><trkpt lat="45.11012315763854" lon="10.072618051387249"><ele>41.0</ele><time>2026-04-06T10:01:17.999Z</time></trkpt><trkpt lat="45.110081775682794" lon="10.07269645198362"><ele>41.0</ele><time>2026-04-06T10:01:18.999Z</time></trkpt><trkpt lat="45.11003743888266" lon="10.072773745903435"><ele>41.0</ele><time>2026-04-06T10:01:19.999Z</time></trkpt><trkpt lat="45.109992990746015" lon="10.0728484915833"><ele>41.0</ele><time>2026-04-06T10:01:20.999Z</time></trkpt><trkpt lat="45.1099520468664" lon="10.072928098382384"><ele>40.99999999999999</ele><time>2026-04-06T10:01:21.999Z</time></trkpt><trkpt lat="45.10990924044926" lon="10.073004142119215"><ele>41.0</ele><time>2026-04-06T10:01:22.999Z</time></trkpt><trkpt lat="45.10986955461271" lon="10.073085066928824"><ele>40.99999999999999</ele><time>2026-04-06T10:01:23.999Z</time></trkpt><trkpt lat="45.109829539017" lon="10.073168763690424"><ele>41.0</ele><time>2026-04-06T10:01:24.999Z</time></trkpt><trkpt lat="45.109787270189315" lon="10.073244231666667"><ele>41.0</ele><time>2026-04-06T10:01:25.999Z</time></trkpt><trkpt lat="45.10974516578333" lon="10.073322265851065"><ele>41.0</ele><time>2026-04-06T10:01:26.999Z</time></trkpt><trkpt lat="45.10970117982544" lon="10.07340028305187"><ele>41.0</ele><time>2026-04-06T10:01:27.999Z</time></trkpt><trkpt lat="45.109656325866716" lon="10.073477864425401"><ele>40.99999999999999</ele><time>2026-04-06T10:01:28.999Z</time></trkpt><trkpt lat="45.1096152575164" lon="10.073557207149454"><ele>41.0</ele><time>2026-04-06T10:01:29.999Z</time></trkpt><trkpt lat="45.10957359491285" lon="10.073638845986038"><ele>40.99999999999999</ele><time>2026-04-06T10:01:30.999Z</time></trkpt><trkpt lat="45.109530399906156" lon="10.073719552524452"><ele>41.0</ele><time>2026-04-06T10:01:31.999Z</time></trkpt><trkpt lat="45.109485491713116" lon="10.0737949479701"><ele>41.0</ele><time>2026-04-06T10:01:32.999Z</time></trkpt><trkpt lat="45.10944158801105" lon="10.073871420037792"><ele>41.0</ele><time>2026-04-06T10:01:33.999Z</time></trkpt><trkpt lat="45.10939827289991" lon="10.073947419232393"><ele>41.0</ele><time>2026-04-06T10:01:34.999Z</time></trkpt><trkpt lat="45.10935314082722" lon="10.074025210962716"><ele>40.99999999999999</ele><time>2026-04-06T10:01:35.999Z</time></trkpt><trkpt lat="45.109316442662404" lon="10.07410581051075"><ele>41.0</ele><time>2026-04-06T10:01:36.999Z</time></trkpt><trkpt lat="45.109279299919045" lon="10.074191777485796"><ele>40.71428571428571</ele><time>2026-04-06T10:01:37.999Z</time></trkpt><trkpt lat="45.10923864926537" lon="10.074274946073169"><ele>40.42857142857143</ele><time>2026-04-06T10:01:38.999Z</time></trkpt><trkpt lat="45.10919999198488" lon="10.074360932126092"><ele>40.14285714285714</ele><time>2026-04-06T10:01:39.999Z</time></trkpt><trkpt lat="45.10916308142461" lon="10.074450497847495"><ele>39.857142857142854</ele><time>2026-04-06T10:01:40.999Z</time></trkpt><trkpt lat="45.10912134276279" lon="10.074535717636083"><ele>39.57142857142857</ele><time>2026-04-06T10:01:41.999Z</time></trkpt><trkpt lat="45.10908855270739" lon="10.074631751873339"><ele>39.285714285714285</ele><time>2026-04-06T10:01:42.999Z</time></trkpt><trkpt lat="45.10906400600788" lon="10.074733387773897"><ele>39.0</ele><time>2026-04-06T10:01:43.999Z</time></trkpt><trkpt lat="45.10904129348074" lon="10.074836828901914"><ele>39.0</ele><time>2026-04-06T10:01:44.999Z</time></trkpt><trkpt lat="45.109013876054476" lon="10.074935101764986"><ele>39.0</ele><time>2026-04-06T10:01:45.999Z</time></trkpt><trkpt lat="45.108984304079634" lon="10.07503368433404"><ele>39.0</ele><time>2026-04-06T10:01:46.999Z</time></trkpt><trkpt lat="45.1089577335294" lon="10.075131673363154"><ele>39.0</ele><time>2026-04-06T10:01:47.999Z</time></trkpt><trkpt lat="45.108931837474785" lon="10.07522936218669"><ele>39.0</ele><time>2026-04-06T10:01:48.999Z</time></trkpt><trkpt lat="45.1089030489523" lon="10.075325218783187"><ele>39.0</ele><time>2026-04-06T10:01:49.999Z</time></trkpt><trkpt lat="45.1088750188761" lon="10.075419560098194"><ele>39.0</ele><time>2026-04-06T10:01:50.999Z</time></trkpt><trkpt lat="45.10884288171642" lon="10.075513569100913"><ele>39.142857142857146</ele><time>2026-04-06T10:01:51.999Z</time></trkpt><trkpt lat="45.10880619589424" lon="10.075603802806024"><ele>39.285714285714285</ele><time>2026-04-06T10:01:52.999Z</time></trkpt><trkpt lat="45.10876305188867" lon="10.075687314863442"><ele>39.42857142857143</ele><time>2026-04-06T10:01:53.999Z</time></trkpt><trkpt lat="45.10871752578685" lon="10.07576918362159"><ele>39.57142857142857</ele><time>2026-04-06T10:01:54.999Z</time></trkpt><trkpt lat="45.10866403920893" lon="10.075839975842484"><ele>39.714285714285715</ele><time>2026-04-06T10:01:55.999Z</time></trkpt><trkpt lat="45.10860507076736" lon="10.075901274646638"><ele>39.857142857142854</ele><time>2026-04-06T10:01:56.999Z</time></trkpt><trkpt lat="45.10854360779383" lon="10.075955746248242"><ele>40.0</ele><time>2026-04-06T10:01:57.998Z</time></trkpt><trkpt lat="45.108481857775566" lon="10.076005185124481"><ele>40.0</ele><time>2026-04-06T10:01:58.998Z</time></trkpt><trkpt lat="45.10841575293197" lon="10.076045497338956"><ele>40.0</ele><time>2026-04-06T10:01:59.998Z</time></trkpt><trkpt lat="45.108348593142715" lon="10.076080910879694"><ele>40.0</ele><time>2026-04-06T10:02:00.998Z</time></trkpt><trkpt lat="45.10827960888062" lon="10.076117256073866"><ele>40.0</ele><time>2026-04-06T10:02:01.998Z</time></trkpt><trkpt lat="45.10821430854459" lon="10.076155610805904"><ele>40.0</ele><time>2026-04-06T10:02:02.998Z</time></trkpt><trkpt lat="45.108148213488256" lon="10.076193715473224"><ele>40.0</ele><time>2026-04-06T10:02:03.998Z</time></trkpt><trkpt lat="45.10808289050776" lon="10.076235233963803"><ele>40.0</ele><time>2026-04-06T10:02:04.998Z</time></trkpt><trkpt lat="45.10801504511466" lon="10.076276651653375"><ele>40.0</ele><time>2026-04-06T10:02:05.998Z</time></trkpt><trkpt lat="45.107948457159374" lon="10.076323494392367"><ele>40.0</ele><time>2026-04-06T10:02:06.998Z</time></trkpt><trkpt lat="45.10788502411703" lon="10.076375466019902"><ele>40.0</ele><time>2026-04-06T10:02:07.998Z</time></trkpt><trkpt lat="45.10782475584379" lon="10.076434628999005"><ele>40.0</ele><time>2026-04-06T10:02:08.998Z</time></trkpt><trkpt lat="45.10776566193849" lon="10.076501162041042"><ele>40.0</ele><time>2026-04-06T10:02:09.998Z</time></trkpt><trkpt lat="45.10770865468646" lon="10.076571906230598"><ele>40.0</ele><time>2026-04-06T10:02:10.998Z</time></trkpt><trkpt lat="45.10765531621806" lon="10.076647139959324"><ele>40.0</ele><time>2026-04-06T10:02:11.998Z</time></trkpt><trkpt lat="45.107607620420545" lon="10.076728809439686"><ele>40.0</ele><time>2026-04-06T10:02:12.998Z</time></trkpt><trkpt lat="45.10755610918316" lon="10.076808983884844"><ele>40.0</ele><time>2026-04-06T10:02:13.998Z</time></trkpt><trkpt lat="45.10750526946809" lon="10.076885752448703"><ele>40.0</ele><time>2026-04-06T10:02:14.998Z</time></trkpt><trkpt lat="45.107455656696544" lon="10.07696524647102"><ele>40.0</ele><time>2026-04-06T10:02:15.998Z</time></trkpt><trkpt lat="45.107408163518805" lon="10.077044477156875"><ele>40.0</ele><time>2026-04-06T10:02:16.998Z</time></trkpt><trkpt lat="45.107362998956425" lon="10.077122793702438"><ele>40.0</ele><time>2026-04-06T10:02:17.998Z</time></trkpt><trkpt lat="45.107312831608816" lon="10.077194729707516"><ele>40.0</ele><time>2026-04-06T10:02:18.998Z</time></trkpt><trkpt lat="45.10726560031483" lon="10.07726145756832"><ele>39.8</ele><time>2026-04-06T10:02:19.998Z</time></trkpt><trkpt lat="45.10721941091865" lon="10.077323989650395"><ele>39.6</ele><time>2026-04-06T10:02:20.998Z</time></trkpt><trkpt lat="45.10715474439379" lon="10.077413946883704"><ele>39.4</ele><time>2026-04-06T10:02:22.998Z</time></trkpt><trkpt lat="45.10725719025329" lon="10.077504717358279"><ele>39.2</ele><time>2026-04-06T10:02:23.998Z</time></trkpt><trkpt lat="45.10732137662722" lon="10.077539176160885"><ele>39.0</ele><time>2026-04-06T10:02:24.998Z</time></trkpt><trkpt lat="45.10744122613058" lon="10.077592188689009"><ele>39.333333333333336</ele><time>2026-04-06T10:02:26.998Z</time></trkpt><trkpt lat="45.107550373062935" lon="10.077659048780188"><ele>39.666666666666664</ele><time>2026-04-06T10:02:28.998Z</time></trkpt><trkpt lat="45.107670830764526" lon="10.077703591020981"><ele>40.0</ele><time>2026-04-06T10:02:30.998Z</time></trkpt><trkpt lat="45.1077337398678" lon="10.07772612051862"><ele>40.33333333333333</ele><time>2026-04-06T10:02:31.998Z</time></trkpt><trkpt lat="45.10779814876352" lon="10.077746436694715"><ele>40.666666666666664</ele><time>2026-04-06T10:02:32.998Z</time></trkpt><trkpt lat="45.10786359259471" lon="10.077763035341718"><ele>41.0</ele><time>2026-04-06T10:02:34Z</time></trkpt><trkpt lat="45.10792899550645" lon="10.077776672246747"><ele>41.0</ele><time>2026-04-06T10:02:35Z</time></trkpt><trkpt lat="45.10799253208319" lon="10.077788652978173"><ele>41.0</ele><time>2026-04-06T10:02:36Z</time></trkpt><trkpt lat="45.10805687768975" lon="10.077804354275502"><ele>41.0</ele><time>2026-04-06T10:02:37Z</time></trkpt><trkpt lat="45.108119764560264" lon="10.077825029929771"><ele>41.0</ele><time>2026-04-06T10:02:38Z</time></trkpt><trkpt lat="45.10824419549418" lon="10.077858736835895"><ele>41.0</ele><time>2026-04-06T10:02:40Z</time></trkpt><trkpt lat="45.108363578848646" lon="10.077885928128106"><ele>41.0</ele><time>2026-04-06T10:02:42Z</time></trkpt><trkpt lat="45.10848090708856" lon="10.077912382892675"><ele>41.199999999999996</ele><time>2026-04-06T10:02:44Z</time></trkpt><trkpt lat="45.108598455644504" lon="10.077935688386672"><ele>41.4</ele><time>2026-04-06T10:02:46Z</time></trkpt><trkpt lat="45.108713045517916" lon="10.077932818461814"><ele>41.6</ele><time>2026-04-06T10:02:48Z</time></trkpt><trkpt lat="45.10878380506664" lon="10.077932683432659"><ele>41.8</ele><time>2026-04-06T10:02:50Z</time></trkpt><trkpt lat="45.108808614822316" lon="10.07777154379292"><ele>42.0</ele><time>2026-04-06T10:02:51Z</time></trkpt><trkpt lat="45.10880652271706" lon="10.077638861892666"><ele>42.0</ele><time>2026-04-06T10:02:53Z</time></trkpt><trkpt lat="45.10882241143093" lon="10.077510413244147"><ele>42.0</ele><time>2026-04-06T10:02:55Z</time></trkpt><trkpt lat="45.108842058739754" lon="10.077388828620641"><ele>42.0</ele><time>2026-04-06T10:02:57Z</time></trkpt><trkpt lat="45.108853145759745" lon="10.077268751533373"><ele>42.0</ele><time>2026-04-06T10:02:59Z</time></trkpt><trkpt lat="45.108878675312816" lon="10.07715338027818"><ele>42.0</ele><time>2026-04-06T10:03:01Z</time></trkpt><trkpt lat="45.10887832994772" lon="10.077039447008994"><ele>42.0</ele><time>2026-04-06T10:03:03Z</time></trkpt><trkpt lat="45.10881568184938" lon="10.07695811685626"><ele>41.857142857142854</ele><time>2026-04-06T10:03:05Z</time></trkpt><trkpt lat="45.1087836822543" lon="10.076881020055417"><ele>41.714285714285715</ele><time>2026-04-06T10:03:07Z</time></trkpt><trkpt lat="45.108740616167495" lon="10.076813391688196"><ele>41.57142857142857</ele><time>2026-04-06T10:03:20.999Z</time></trkpt><trkpt lat="45.10867547957226" lon="10.076789017448748"><ele>41.42857142857143</ele><time>2026-04-06T10:03:28.999Z</time></trkpt><trkpt lat="45.10860738910481" lon="10.076773761882375"><ele>41.285714285714285</ele><time>2026-04-06T10:03:33.999Z</time></trkpt><trkpt lat="45.10853584046046" lon="10.076793102585743"><ele>41.14285714285714</ele><time>2026-04-06T10:03:39.999Z</time></trkpt><trkpt lat="45.10846676007783" lon="10.076831965033636"><ele>41.0</ele><time>2026-04-06T10:03:44.999Z</time></trkpt><trkpt lat="45.1084012201106" lon="10.07684592493314"><ele>40.99999999999999</ele><time>2026-04-06T10:03:49.999Z</time></trkpt><trkpt lat="45.10833125241081" lon="10.076845532727456"><ele>41.0</ele><time>2026-04-06T10:03:54.999Z</time></trkpt><trkpt lat="45.108266444642325" lon="10.076842732273015"><ele>41.0</ele><time>2026-04-06T10:03:59.999Z</time></trkpt><trkpt lat="45.108204402459556" lon="10.07680509311754"><ele>41.0</ele><time>2026-04-06T10:05:44.999Z</time></trkpt><trkpt lat="45.10825019760283" lon="10.076880894788724"><ele>41.0</ele><time>2026-04-06T10:10:17.998Z</time></trkpt><trkpt lat="45.10818838553814" lon="10.07681554753992"><ele>40.99999999999999</ele><time>2026-04-06T10:10:58Z</time></trkpt><trkpt lat="45.108116154947396" lon="10.076788523654225"><ele>41.0</ele><time>2026-04-06T10:11:03Z</time></trkpt><trkpt lat="45.10805232420968" lon="10.07683811702441"><ele>41.0</ele><time>2026-04-06T10:11:08Z</time></trkpt><trkpt lat="45.10802846539588" lon="10.076922069422144"><ele>41.0</ele><time>2026-04-06T10:11:13Z</time></trkpt><trkpt lat="45.108013777413845" lon="10.07703784007983"><ele>41.0</ele><time>2026-04-06T10:11:20.999Z</time></trkpt><trkpt lat="45.10800200959021" lon="10.077128379776559"><ele>41.0</ele><time>2026-04-06T10:11:25.999Z</time></trkpt><trkpt lat="45.10798222747704" lon="10.077233028614794"><ele>41.0</ele><time>2026-04-06T10:11:30.999Z</time></trkpt><trkpt lat="45.107957222274486" lon="10.077080689872451"><ele>41.0</ele><time>2026-04-06T10:11:32.999Z</time></trkpt><trkpt lat="45.108252424990816" lon="10.07703981352929"><ele>41.0</ele><time>2026-04-06T10:12:59.378Z</time></trkpt><trkpt lat="45.10803267293335" lon="10.07707388005907"><ele>40.0</ele><time>2026-04-06T10:13:20.985Z</time></trkpt><trkpt lat="45.107932073101544" lon="10.077056177242296"><ele>40.0</ele><time>2026-04-06T10:13:32.997Z</time></trkpt></trkseg></trk></gpx>